<?xml version='1.0' encoding='UTF-8'?><gpx version="1.1" creator="JPX - https://github.com/jenetics/jpx" xmlns="http://www.topografix.com/GPX/1/1"><trk><trkseg><trkpt lat="41.5216567" lon="0.8723333"><ele>317.0</ele><time>2026-04-19T05:51:18.292Z</time></trkpt><trkpt lat="41.5218317" lon="0.872375"><ele>317.0</ele><time>2026-04-19T05:51:20.962Z</time></trkpt><trkpt lat="41.5219383" lon="0.87238"><ele>317.0</ele><time>2026-04-19T05:51:21.962Z</time></trkpt><trkpt lat="41.5218667" lon="0.87235"><ele>317.0</ele><time>2026-04-19T05:51:24.962Z</time></trkpt><trkpt lat="41.5217267" lon="0.8723117"><ele>317.0</ele><time>2026-04-19T05:52:31.963Z</time></trkpt><trkpt lat="41.5217767" lon="0.872215"><ele>317.0</ele><time>2026-04-19T05:52:33.962Z</time></trkpt><trkpt lat="41.5218217" lon="0.8721117"><ele>317.0</ele><time>2026-04-19T05:52:35.963Z</time></trkpt><trkpt lat="41.521855" lon="0.8719983"><ele>317.0</ele><time>2026-04-19T05:52:37.962Z</time></trkpt><trkpt lat="41.5217917" lon="0.871905"><ele>317.0</ele><time>2026-04-19T05:52:40.963Z</time></trkpt><trkpt lat="41.5217283" lon="0.8718583"><ele>317.0</ele><time>2026-04-19T05:52:41.962Z</time></trkpt><trkpt lat="41.5216683" lon="0.871815"><ele>317.0</ele><time>2026-04-19T05:52:42.962Z</time></trkpt><trkpt lat="41.5216033" lon="0.87178"><ele>317.0</ele><time>2026-04-19T05:52:43.963Z</time></trkpt><trkpt lat="41.521535" lon="0.8717517"><ele>317.0</ele><time>2026-04-19T05:52:44.963Z</time></trkpt><trkpt lat="41.5214633" lon="0.8717117"><ele>317.0</ele><time>2026-04-19T05:52:45.963Z</time></trkpt><trkpt lat="41.52139" lon="0.8716733"><ele>317.0</ele><time>2026-04-19T05:52:46.962Z</time></trkpt><trkpt lat="41.5213167" lon="0.8716317"><ele>317.0</ele><time>2026-04-19T05:52:47.963Z</time></trkpt><trkpt lat="41.52123" lon="0.8715633"><ele>316.33333333333337</ele><time>2026-04-19T05:52:49.963Z</time></trkpt><trkpt lat="41.521185" lon="0.8714917"><ele>315.6666666666667</ele><time>2026-04-19T05:52:53.962Z</time></trkpt><trkpt lat="41.5211983" lon="0.8713633"><ele>315.0</ele><time>2026-04-19T05:52:56.962Z</time></trkpt><trkpt lat="41.5212167" lon="0.87123"><ele>314.3333333333333</ele><time>2026-04-19T05:52:58.962Z</time></trkpt><trkpt lat="41.52123" lon="0.8710983"><ele>313.66666666666663</ele><time>2026-04-19T05:53:00.962Z</time></trkpt><trkpt lat="41.5212017" lon="0.8710183"><ele>313.0</ele><time>2026-04-19T05:53:02.962Z</time></trkpt><trkpt lat="41.5210917" lon="0.8709583"><ele>312.66666666666663</ele><time>2026-04-19T05:53:04.962Z</time></trkpt><trkpt lat="41.5209833" lon="0.8708883"><ele>312.3333333333333</ele><time>2026-04-19T05:53:06.962Z</time></trkpt><trkpt lat="41.5209183" lon="0.8708383"><ele>312.0</ele><time>2026-04-19T05:53:07.963Z</time></trkpt><trkpt lat="41.5208517" lon="0.8707983"><ele>311.6666666666667</ele><time>2026-04-19T05:53:08.962Z</time></trkpt><trkpt lat="41.5207767" lon="0.870745"><ele>311.33333333333337</ele><time>2026-04-19T05:53:09.962Z</time></trkpt><trkpt lat="41.5207033" lon="0.8706983"><ele>311.0</ele><time>2026-04-19T05:53:10.963Z</time></trkpt><trkpt lat="41.52063" lon="0.8706517"><ele>311.0</ele><time>2026-04-19T05:53:11.962Z</time></trkpt><trkpt lat="41.5205583" lon="0.8706133"><ele>311.0</ele><time>2026-04-19T05:53:12.962Z</time></trkpt><trkpt lat="41.5204933" lon="0.8705717"><ele>311.0</ele><time>2026-04-19T05:53:13.963Z</time></trkpt><trkpt lat="41.5204333" lon="0.8705417"><ele>311.0</ele><time>2026-04-19T05:53:14.963Z</time></trkpt><trkpt lat="41.5203317" lon="0.8704983"><ele>311.0</ele><time>2026-04-19T05:53:16.962Z</time></trkpt><trkpt lat="41.52028" lon="0.87044"><ele>311.0</ele><time>2026-04-19T05:53:18.963Z</time></trkpt><trkpt lat="41.5201967" lon="0.8703767"><ele>310.1666666666667</ele><time>2026-04-19T05:53:22.962Z</time></trkpt><trkpt lat="41.5200867" lon="0.8702967"><ele>309.33333333333337</ele><time>2026-04-19T05:53:24.963Z</time></trkpt><trkpt lat="41.5200267" lon="0.8702483"><ele>308.5</ele><time>2026-04-19T05:53:25.963Z</time></trkpt><trkpt lat="41.5199667" lon="0.8702083"><ele>307.6666666666667</ele><time>2026-04-19T05:53:26.962Z</time></trkpt><trkpt lat="41.519905" lon="0.8701733"><ele>306.8333333333333</ele><time>2026-04-19T05:53:27.962Z</time></trkpt><trkpt lat="41.5198383" lon="0.87014"><ele>306.0</ele><time>2026-04-19T05:53:28.962Z</time></trkpt><trkpt lat="41.5197783" lon="0.8701"><ele>305.8</ele><time>2026-04-19T05:53:29.962Z</time></trkpt><trkpt lat="41.5196617" lon="0.8700283"><ele>305.6</ele><time>2026-04-19T05:53:31.962Z</time></trkpt><trkpt lat="41.5195517" lon="0.869965"><ele>305.4</ele><time>2026-04-19T05:53:33.962Z</time></trkpt><trkpt lat="41.51949" lon="0.86992"><ele>305.2</ele><time>2026-04-19T05:53:34.962Z</time></trkpt><trkpt lat="41.5194317" lon="0.8698817"><ele>305.0</ele><time>2026-04-19T05:53:35.963Z</time></trkpt><trkpt lat="41.519315" lon="0.8697933"><ele>304.33333333333337</ele><time>2026-04-19T05:53:37.962Z</time></trkpt><trkpt lat="41.51925" lon="0.869745"><ele>303.6666666666667</ele><time>2026-04-19T05:53:38.962Z</time></trkpt><trkpt lat="41.5191917" lon="0.8696983"><ele>303.0</ele><time>2026-04-19T05:53:39.963Z</time></trkpt><trkpt lat="41.5191317" lon="0.8696567"><ele>302.3333333333333</ele><time>2026-04-19T05:53:40.962Z</time></trkpt><trkpt lat="41.5190683" lon="0.8696267"><ele>301.66666666666663</ele><time>2026-04-19T05:53:41.963Z</time></trkpt><trkpt lat="41.5189517" lon="0.8695533"><ele>301.0</ele><time>2026-04-19T05:53:43.962Z</time></trkpt><trkpt lat="41.51889" lon="0.8695133"><ele>301.0</ele><time>2026-04-19T05:53:44.962Z</time></trkpt><trkpt lat="41.5188283" lon="0.8694633"><ele>301.0</ele><time>2026-04-19T05:53:45.962Z</time></trkpt><trkpt lat="41.5187683" lon="0.8694133"><ele>301.0</ele><time>2026-04-19T05:53:46.962Z</time></trkpt><trkpt lat="41.518705" lon="0.86937"><ele>301.0</ele><time>2026-04-19T05:53:47.963Z</time></trkpt><trkpt lat="41.5186367" lon="0.8693217"><ele>301.0</ele><time>2026-04-19T05:53:48.962Z</time></trkpt><trkpt lat="41.518555" lon="0.869265"><ele>301.0</ele><time>2026-04-19T05:53:49.962Z</time></trkpt><trkpt lat="41.518485" lon="0.8692067"><ele>300.5</ele><time>2026-04-19T05:53:50.963Z</time></trkpt><trkpt lat="41.51841" lon="0.8691533"><ele>300.0</ele><time>2026-04-19T05:53:51.962Z</time></trkpt><trkpt lat="41.5183333" lon="0.8691067"><ele>299.5</ele><time>2026-04-19T05:53:52.962Z</time></trkpt><trkpt lat="41.5182667" lon="0.869055"><ele>299.0</ele><time>2026-04-19T05:53:53.962Z</time></trkpt><trkpt lat="41.5182" lon="0.8690083"><ele>298.5</ele><time>2026-04-19T05:53:54.963Z</time></trkpt><trkpt lat="41.5181367" lon="0.868965"><ele>298.0</ele><time>2026-04-19T05:53:55.962Z</time></trkpt><trkpt lat="41.5180383" lon="0.8688933"><ele>298.0</ele><time>2026-04-19T05:53:57.963Z</time></trkpt><trkpt lat="41.5179567" lon="0.8688167"><ele>298.0</ele><time>2026-04-19T05:53:59.963Z</time></trkpt><trkpt lat="41.5179283" lon="0.8687383"><ele>298.0</ele><time>2026-04-19T05:54:02.963Z</time></trkpt><trkpt lat="41.517955" lon="0.868635"><ele>298.0</ele><time>2026-04-19T05:54:05.963Z</time></trkpt><trkpt lat="41.5180033" lon="0.8685683"><ele>298.0</ele><time>2026-04-19T05:54:06.962Z</time></trkpt><trkpt lat="41.5180583" lon="0.8685067"><ele>298.0</ele><time>2026-04-19T05:54:07.962Z</time></trkpt><trkpt lat="41.518115" lon="0.86844"><ele>298.0</ele><time>2026-04-19T05:54:08.962Z</time></trkpt><trkpt lat="41.51818" lon="0.8683667"><ele>298.0</ele><time>2026-04-19T05:54:09.962Z</time></trkpt><trkpt lat="41.51825" lon="0.8682983"><ele>298.0</ele><time>2026-04-19T05:54:10.963Z</time></trkpt><trkpt lat="41.5183217" lon="0.868225"><ele>298.0</ele><time>2026-04-19T05:54:11.963Z</time></trkpt><trkpt lat="41.5183717" lon="0.8681383"><ele>298.0</ele><time>2026-04-19T05:54:12.963Z</time></trkpt><trkpt lat="41.5184083" lon="0.8680633"><ele>298.0</ele><time>2026-04-19T05:54:13.963Z</time></trkpt><trkpt lat="41.51843" lon="0.8679817"><ele>298.0</ele><time>2026-04-19T05:54:14.963Z</time></trkpt><trkpt lat="41.5184" lon="0.8678433"><ele>298.0</ele><time>2026-04-19T05:54:16.962Z</time></trkpt><trkpt lat="41.5183583" lon="0.8677783"><ele>298.0</ele><time>2026-04-19T05:54:17.962Z</time></trkpt><trkpt lat="41.5183167" lon="0.867715"><ele>298.0</ele><time>2026-04-19T05:54:18.962Z</time></trkpt><trkpt lat="41.5182733" lon="0.867565"><ele>298.0</ele><time>2026-04-19T05:54:20.962Z</time></trkpt><trkpt lat="41.5182833" lon="0.8674733"><ele>298.0</ele><time>2026-04-19T05:54:21.963Z</time></trkpt><trkpt lat="41.5183067" lon="0.8673583"><ele>297.2</ele><time>2026-04-19T05:54:22.963Z</time></trkpt><trkpt lat="41.5183367" lon="0.86724"><ele>296.4</ele><time>2026-04-19T05:54:23.962Z</time></trkpt><trkpt lat="41.5183667" lon="0.8671183"><ele>295.59999999999997</ele><time>2026-04-19T05:54:24.963Z</time></trkpt><trkpt lat="41.5184033" lon="0.867"><ele>294.8</ele><time>2026-04-19T05:54:25.963Z</time></trkpt><trkpt lat="41.5184433" lon="0.866885"><ele>294.0</ele><time>2026-04-19T05:54:26.962Z</time></trkpt><trkpt lat="41.5184917" lon="0.8667633"><ele>293.6666666666667</ele><time>2026-04-19T05:54:27.962Z</time></trkpt><trkpt lat="41.5185483" lon="0.866645"><ele>293.3333333333333</ele><time>2026-04-19T05:54:28.962Z</time></trkpt><trkpt lat="41.5186083" lon="0.8665433"><ele>293.0</ele><time>2026-04-19T05:54:29.963Z</time></trkpt><trkpt lat="41.5186733" lon="0.8664533"><ele>292.66666666666663</ele><time>2026-04-19T05:54:30.963Z</time></trkpt><trkpt lat="41.518725" lon="0.8663817"><ele>292.3333333333333</ele><time>2026-04-19T05:54:31.963Z</time></trkpt><trkpt lat="41.5187767" lon="0.8663083"><ele>292.0</ele><time>2026-04-19T05:54:32.963Z</time></trkpt><trkpt lat="41.5188217" lon="0.8662433"><ele>292.0</ele><time>2026-04-19T05:54:33.962Z</time></trkpt><trkpt lat="41.5189133" lon="0.8661217"><ele>292.0</ele><time>2026-04-19T05:54:35.962Z</time></trkpt><trkpt lat="41.5189583" lon="0.8659633"><ele>292.0</ele><time>2026-04-19T05:54:37.963Z</time></trkpt><trkpt lat="41.5189767" lon="0.8658683"><ele>292.0</ele><time>2026-04-19T05:54:38.962Z</time></trkpt><trkpt lat="41.5189983" lon="0.8657683"><ele>292.0</ele><time>2026-04-19T05:54:39.962Z</time></trkpt><trkpt lat="41.51902" lon="0.8656583"><ele>291.3333333333333</ele><time>2026-04-19T05:54:40.962Z</time></trkpt><trkpt lat="41.5190417" lon="0.86554"><ele>290.66666666666663</ele><time>2026-04-19T05:54:41.963Z</time></trkpt><trkpt lat="41.5190717" lon="0.8654083"><ele>290.0</ele><time>2026-04-19T05:54:42.963Z</time></trkpt><trkpt lat="41.51909" lon="0.8653117"><ele>289.3333333333333</ele><time>2026-04-19T05:54:43.962Z</time></trkpt><trkpt lat="41.5191017" lon="0.86522"><ele>288.6666666666667</ele><time>2026-04-19T05:54:44.963Z</time></trkpt><trkpt lat="41.5191133" lon="0.8651267"><ele>288.0</ele><time>2026-04-19T05:54:45.963Z</time></trkpt><trkpt lat="41.51913" lon="0.865035"><ele>287.8571428571429</ele><time>2026-04-19T05:54:46.962Z</time></trkpt><trkpt lat="41.51914" lon="0.8649433"><ele>287.7142857142857</ele><time>2026-04-19T05:54:47.963Z</time></trkpt><trkpt lat="41.5191467" lon="0.8648583"><ele>287.57142857142856</ele><time>2026-04-19T05:54:48.963Z</time></trkpt><trkpt lat="41.519155" lon="0.8647683"><ele>287.42857142857144</ele><time>2026-04-19T05:54:49.963Z</time></trkpt><trkpt lat="41.5191533" lon="0.864655"><ele>287.2857142857143</ele><time>2026-04-19T05:54:50.963Z</time></trkpt><trkpt lat="41.51916" lon="0.86455"><ele>287.14285714285717</ele><time>2026-04-19T05:54:51.963Z</time></trkpt><trkpt lat="41.519175" lon="0.8644417"><ele>287.0</ele><time>2026-04-19T05:54:52.963Z</time></trkpt><trkpt lat="41.5191867" lon="0.8643383"><ele>287.0</ele><time>2026-04-19T05:54:53.963Z</time></trkpt><trkpt lat="41.5192083" lon="0.8642267"><ele>287.0</ele><time>2026-04-19T05:54:54.962Z</time></trkpt><trkpt lat="41.5192383" lon="0.8640983"><ele>287.0</ele><time>2026-04-19T05:54:55.963Z</time></trkpt><trkpt lat="41.5192633" lon="0.8639767"><ele>287.0</ele><time>2026-04-19T05:54:56.963Z</time></trkpt><trkpt lat="41.51929" lon="0.8638533"><ele>287.0</ele><time>2026-04-19T05:54:57.962Z</time></trkpt><trkpt lat="41.519305" lon="0.8637333"><ele>287.0</ele><time>2026-04-19T05:54:58.963Z</time></trkpt><trkpt lat="41.5193333" lon="0.8636033"><ele>287.0</ele><time>2026-04-19T05:54:59.962Z</time></trkpt><trkpt lat="41.5193517" lon="0.86348"><ele>287.0</ele><time>2026-04-19T05:55:00.963Z</time></trkpt><trkpt lat="41.51936" lon="0.863355"><ele>287.0</ele><time>2026-04-19T05:55:01.963Z</time></trkpt><trkpt lat="41.5193783" lon="0.8632317"><ele>287.0</ele><time>2026-04-19T05:55:02.963Z</time></trkpt><trkpt lat="41.5193917" lon="0.86311"><ele>287.1666666666667</ele><time>2026-04-19T05:55:03.963Z</time></trkpt><trkpt lat="41.5194083" lon="0.8629917"><ele>287.33333333333337</ele><time>2026-04-19T05:55:04.963Z</time></trkpt><trkpt lat="41.51942" lon="0.862875"><ele>287.5</ele><time>2026-04-19T05:55:05.963Z</time></trkpt><trkpt lat="41.5194283" lon="0.8627667"><ele>287.6666666666667</ele><time>2026-04-19T05:55:06.962Z</time></trkpt><trkpt lat="41.5194433" lon="0.8626667"><ele>287.8333333333333</ele><time>2026-04-19T05:55:07.962Z</time></trkpt><trkpt lat="41.519455" lon="0.8625783"><ele>288.0</ele><time>2026-04-19T05:55:08.963Z</time></trkpt><trkpt lat="41.5194683" lon="0.8624917"><ele>287.6666666666667</ele><time>2026-04-19T05:55:09.962Z</time></trkpt><trkpt lat="41.5194817" lon="0.8624067"><ele>287.3333333333333</ele><time>2026-04-19T05:55:10.963Z</time></trkpt><trkpt lat="41.519495" lon="0.8623133"><ele>287.0</ele><time>2026-04-19T05:55:11.963Z</time></trkpt><trkpt lat="41.519515" lon="0.8622167"><ele>286.66666666666663</ele><time>2026-04-19T05:55:12.963Z</time></trkpt><trkpt lat="41.5195283" lon="0.8621"><ele>286.3333333333333</ele><time>2026-04-19T05:55:13.963Z</time></trkpt><trkpt lat="41.5195367" lon="0.8619733"><ele>286.0</ele><time>2026-04-19T05:55:14.962Z</time></trkpt><trkpt lat="41.51956" lon="0.86185"><ele>285.40000000000003</ele><time>2026-04-19T05:55:15.963Z</time></trkpt><trkpt lat="41.51957" lon="0.8617317"><ele>284.8</ele><time>2026-04-19T05:55:16.963Z</time></trkpt><trkpt lat="41.5195833" lon="0.8616067"><ele>284.20000000000005</ele><time>2026-04-19T05:55:17.962Z</time></trkpt><trkpt lat="41.519585" lon="0.8614867"><ele>283.6</ele><time>2026-04-19T05:55:18.962Z</time></trkpt><trkpt lat="41.51959" lon="0.8613667"><ele>283.0</ele><time>2026-04-19T05:55:19.962Z</time></trkpt><trkpt lat="41.5196" lon="0.8612517"><ele>283.0</ele><time>2026-04-19T05:55:20.963Z</time></trkpt><trkpt lat="41.519605" lon="0.8611467"><ele>283.0</ele><time>2026-04-19T05:55:21.963Z</time></trkpt><trkpt lat="41.5196133" lon="0.8610483"><ele>283.0</ele><time>2026-04-19T05:55:22.962Z</time></trkpt><trkpt lat="41.5196367" lon="0.860915"><ele>283.0</ele><time>2026-04-19T05:55:24.962Z</time></trkpt><trkpt lat="41.519655" lon="0.86078"><ele>283.0</ele><time>2026-04-19T05:55:27.962Z</time></trkpt><trkpt lat="41.519595" lon="0.860625"><ele>283.0</ele><time>2026-04-19T05:55:29.962Z</time></trkpt><trkpt lat="41.5195433" lon="0.8605283"><ele>283.0</ele><time>2026-04-19T05:55:30.963Z</time></trkpt><trkpt lat="41.5194933" lon="0.8604133"><ele>283.0</ele><time>2026-04-19T05:55:31.963Z</time></trkpt><trkpt lat="41.51944" lon="0.860305"><ele>283.0</ele><time>2026-04-19T05:55:32.962Z</time></trkpt><trkpt lat="41.5193833" lon="0.8601933"><ele>283.0</ele><time>2026-04-19T05:55:33.963Z</time></trkpt><trkpt lat="41.5193267" lon="0.8600833"><ele>282.4</ele><time>2026-04-19T05:55:34.962Z</time></trkpt><trkpt lat="41.5192883" lon="0.8599783"><ele>281.8</ele><time>2026-04-19T05:55:35.963Z</time></trkpt><trkpt lat="41.5192633" lon="0.8598733"><ele>281.2</ele><time>2026-04-19T05:55:36.963Z</time></trkpt><trkpt lat="41.519255" lon="0.85975"><ele>280.6</ele><time>2026-04-19T05:55:37.963Z</time></trkpt><trkpt lat="41.5192567" lon="0.8596183"><ele>280.0</ele><time>2026-04-19T05:55:38.962Z</time></trkpt><trkpt lat="41.5192733" lon="0.8594833"><ele>280.0</ele><time>2026-04-19T05:55:39.962Z</time></trkpt><trkpt lat="41.5192717" lon="0.859355"><ele>280.0</ele><time>2026-04-19T05:55:40.962Z</time></trkpt><trkpt lat="41.51926" lon="0.8592417"><ele>280.0</ele><time>2026-04-19T05:55:41.962Z</time></trkpt><trkpt lat="41.519225" lon="0.8591517"><ele>280.0</ele><time>2026-04-19T05:55:42.962Z</time></trkpt><trkpt lat="41.51916" lon="0.8590667"><ele>280.0</ele><time>2026-04-19T05:55:43.963Z</time></trkpt><trkpt lat="41.5190917" lon="0.85898"><ele>280.0</ele><time>2026-04-19T05:55:44.962Z</time></trkpt><trkpt lat="41.5190383" lon="0.8588633"><ele>280.0</ele><time>2026-04-19T05:55:45.963Z</time></trkpt><trkpt lat="41.5189933" lon="0.858715"><ele>280.0</ele><time>2026-04-19T05:55:46.963Z</time></trkpt><trkpt lat="41.5189617" lon="0.8585567"><ele>280.0</ele><time>2026-04-19T05:55:47.962Z</time></trkpt><trkpt lat="41.5189333" lon="0.8583983"><ele>280.0</ele><time>2026-04-19T05:55:48.963Z</time></trkpt><trkpt lat="41.518905" lon="0.8582317"><ele>279.5</ele><time>2026-04-19T05:55:49.963Z</time></trkpt><trkpt lat="41.51887" lon="0.8580817"><ele>279.0</ele><time>2026-04-19T05:55:50.963Z</time></trkpt><trkpt lat="41.5188367" lon="0.8579317"><ele>278.5</ele><time>2026-04-19T05:55:51.963Z</time></trkpt><trkpt lat="41.5187967" lon="0.8577667"><ele>278.0</ele><time>2026-04-19T05:55:52.962Z</time></trkpt><trkpt lat="41.51877" lon="0.857625"><ele>278.2</ele><time>2026-04-19T05:55:53.963Z</time></trkpt><trkpt lat="41.518755" lon="0.8574917"><ele>278.4</ele><time>2026-04-19T05:55:54.963Z</time></trkpt><trkpt lat="41.5187383" lon="0.8573533"><ele>278.59999999999997</ele><time>2026-04-19T05:55:55.963Z</time></trkpt><trkpt lat="41.5187183" lon="0.857205"><ele>278.8</ele><time>2026-04-19T05:55:56.963Z</time></trkpt><trkpt lat="41.5187033" lon="0.85706"><ele>279.0</ele><time>2026-04-19T05:55:57.962Z</time></trkpt><trkpt lat="41.5186717" lon="0.8569167"><ele>279.5</ele><time>2026-04-19T05:55:58.962Z</time></trkpt><trkpt lat="41.518615" lon="0.8567917"><ele>280.0</ele><time>2026-04-19T05:55:59.962Z</time></trkpt><trkpt lat="41.5185367" lon="0.85666"><ele>280.5</ele><time>2026-04-19T05:56:00.962Z</time></trkpt><trkpt lat="41.5184383" lon="0.8565217"><ele>281.0</ele><time>2026-04-19T05:56:01.962Z</time></trkpt><trkpt lat="41.51836" lon="0.8563617"><ele>281.0</ele><time>2026-04-19T05:56:02.962Z</time></trkpt><trkpt lat="41.518285" lon="0.85619"><ele>281.0</ele><time>2026-04-19T05:56:03.963Z</time></trkpt><trkpt lat="41.5181967" lon="0.8560133"><ele>281.0</ele><time>2026-04-19T05:56:04.962Z</time></trkpt><trkpt lat="41.5181117" lon="0.855835"><ele>280.0</ele><time>2026-04-19T05:56:05.963Z</time></trkpt><trkpt lat="41.51802" lon="0.8556483"><ele>279.0</ele><time>2026-04-19T05:56:06.962Z</time></trkpt><trkpt lat="41.5179283" lon="0.8554617"><ele>278.0</ele><time>2026-04-19T05:56:07.962Z</time></trkpt><trkpt lat="41.5178383" lon="0.8552567"><ele>277.6666666666667</ele><time>2026-04-19T05:56:08.963Z</time></trkpt><trkpt lat="41.517745" lon="0.855065"><ele>277.3333333333333</ele><time>2026-04-19T05:56:09.963Z</time></trkpt><trkpt lat="41.5176517" lon="0.8548683"><ele>277.0</ele><time>2026-04-19T05:56:10.962Z</time></trkpt><trkpt lat="41.5175567" lon="0.8546733"><ele>277.0</ele><time>2026-04-19T05:56:11.962Z</time></trkpt><trkpt lat="41.5174617" lon="0.8544667"><ele>277.0</ele><time>2026-04-19T05:56:12.963Z</time></trkpt><trkpt lat="41.5173633" lon="0.85427"><ele>277.0</ele><time>2026-04-19T05:56:13.962Z</time></trkpt><trkpt lat="41.5172583" lon="0.8540617"><ele>277.66666666666663</ele><time>2026-04-19T05:56:14.962Z</time></trkpt><trkpt lat="41.517155" lon="0.8538567"><ele>278.3333333333333</ele><time>2026-04-19T05:56:15.962Z</time></trkpt><trkpt lat="41.5170533" lon="0.8536517"><ele>279.0</ele><time>2026-04-19T05:56:16.963Z</time></trkpt><trkpt lat="41.51696" lon="0.8534567"><ele>279.6666666666667</ele><time>2026-04-19T05:56:17.962Z</time></trkpt><trkpt lat="41.5168617" lon="0.853265"><ele>280.33333333333337</ele><time>2026-04-19T05:56:18.963Z</time></trkpt><trkpt lat="41.5167517" lon="0.85307"><ele>281.0</ele><time>2026-04-19T05:56:19.962Z</time></trkpt><trkpt lat="41.5166383" lon="0.8528783"><ele>281.0</ele><time>2026-04-19T05:56:20.962Z</time></trkpt><trkpt lat="41.51652" lon="0.85269"><ele>281.0</ele><time>2026-04-19T05:56:21.963Z</time></trkpt><trkpt lat="41.5163983" lon="0.8525033"><ele>281.0</ele><time>2026-04-19T05:56:22.963Z</time></trkpt><trkpt lat="41.5162767" lon="0.8523283"><ele>283.0</ele><time>2026-04-19T05:56:23.963Z</time></trkpt><trkpt lat="41.5161583" lon="0.8521533"><ele>285.0</ele><time>2026-04-19T05:56:24.963Z</time></trkpt><trkpt lat="41.51603" lon="0.8519867"><ele>287.0</ele><time>2026-04-19T05:56:25.962Z</time></trkpt><trkpt lat="41.5159017" lon="0.851815"><ele>287.0</ele><time>2026-04-19T05:56:26.962Z</time></trkpt><trkpt lat="41.5157817" lon="0.8516417"><ele>287.0</ele><time>2026-04-19T05:56:27.962Z</time></trkpt><trkpt lat="41.51565" lon="0.8514633"><ele>287.0</ele><time>2026-04-19T05:56:28.962Z</time></trkpt><trkpt lat="41.5155217" lon="0.8512883"><ele>287.6666666666667</ele><time>2026-04-19T05:56:29.963Z</time></trkpt><trkpt lat="41.5153983" lon="0.8511167"><ele>288.3333333333333</ele><time>2026-04-19T05:56:30.962Z</time></trkpt><trkpt lat="41.5152667" lon="0.8509383"><ele>289.0</ele><time>2026-04-19T05:56:31.963Z</time></trkpt><trkpt lat="41.5151367" lon="0.850755"><ele>289.0</ele><time>2026-04-19T05:56:32.962Z</time></trkpt><trkpt lat="41.515" lon="0.8505767"><ele>289.0</ele><time>2026-04-19T05:56:33.962Z</time></trkpt><trkpt lat="41.5148683" lon="0.8504"><ele>289.0</ele><time>2026-04-19T05:56:34.962Z</time></trkpt><trkpt lat="41.5147383" lon="0.8502283"><ele>288.3333333333333</ele><time>2026-04-19T05:56:35.963Z</time></trkpt><trkpt lat="41.5146067" lon="0.8500567"><ele>287.6666666666667</ele><time>2026-04-19T05:56:36.963Z</time></trkpt><trkpt lat="41.51448" lon="0.8498817"><ele>287.0</ele><time>2026-04-19T05:56:37.963Z</time></trkpt><trkpt lat="41.514345" lon="0.8497033"><ele>288.6666666666667</ele><time>2026-04-19T05:56:38.962Z</time></trkpt><trkpt lat="41.5142233" lon="0.8495317"><ele>290.3333333333333</ele><time>2026-04-19T05:56:39.962Z</time></trkpt><trkpt lat="41.5140917" lon="0.8493567"><ele>292.0</ele><time>2026-04-19T05:56:40.963Z</time></trkpt><trkpt lat="41.513965" lon="0.8491817"><ele>292.0</ele><time>2026-04-19T05:56:41.963Z</time></trkpt><trkpt lat="41.5138417" lon="0.84901"><ele>292.0</ele><time>2026-04-19T05:56:42.962Z</time></trkpt><trkpt lat="41.5137067" lon="0.848835"><ele>292.0</ele><time>2026-04-19T05:56:43.962Z</time></trkpt><trkpt lat="41.513575" lon="0.8486667"><ele>293.3333333333333</ele><time>2026-04-19T05:56:44.962Z</time></trkpt><trkpt lat="41.51345" lon="0.8484917"><ele>294.6666666666667</ele><time>2026-04-19T05:56:45.963Z</time></trkpt><trkpt lat="41.5133233" lon="0.84832"><ele>296.0</ele><time>2026-04-19T05:56:46.962Z</time></trkpt><trkpt lat="41.5132" lon="0.8481533"><ele>296.0</ele><time>2026-04-19T05:56:47.962Z</time></trkpt><trkpt lat="41.5130717" lon="0.8479733"><ele>296.0</ele><time>2026-04-19T05:56:48.963Z</time></trkpt><trkpt lat="41.5129433" lon="0.8478"><ele>296.0</ele><time>2026-04-19T05:56:49.962Z</time></trkpt><trkpt lat="41.5128117" lon="0.8476217"><ele>296.33333333333337</ele><time>2026-04-19T05:56:50.962Z</time></trkpt><trkpt lat="41.5126783" lon="0.847445"><ele>296.6666666666667</ele><time>2026-04-19T05:56:51.963Z</time></trkpt><trkpt lat="41.512545" lon="0.8472617"><ele>297.0</ele><time>2026-04-19T05:56:52.963Z</time></trkpt><trkpt lat="41.5124167" lon="0.84708"><ele>297.0</ele><time>2026-04-19T05:56:53.962Z</time></trkpt><trkpt lat="41.5122833" lon="0.8469"><ele>297.0</ele><time>2026-04-19T05:56:54.962Z</time></trkpt><trkpt lat="41.5121467" lon="0.8467183"><ele>297.0</ele><time>2026-04-19T05:56:55.963Z</time></trkpt><trkpt lat="41.5120083" lon="0.8465383"><ele>296.6666666666667</ele><time>2026-04-19T05:56:56.962Z</time></trkpt><trkpt lat="41.511885" lon="0.8463517"><ele>296.33333333333337</ele><time>2026-04-19T05:56:57.962Z</time></trkpt><trkpt lat="41.5117667" lon="0.8461667"><ele>296.0</ele><time>2026-04-19T05:56:58.962Z</time></trkpt><trkpt lat="41.511645" lon="0.84598"><ele>296.6666666666667</ele><time>2026-04-19T05:56:59.963Z</time></trkpt><trkpt lat="41.511525" lon="0.8457967"><ele>297.3333333333333</ele><time>2026-04-19T05:57:00.962Z</time></trkpt><trkpt lat="41.5114017" lon="0.8456033"><ele>298.0</ele><time>2026-04-19T05:57:01.962Z</time></trkpt><trkpt lat="41.51128" lon="0.84541"><ele>297.66666666666663</ele><time>2026-04-19T05:57:02.962Z</time></trkpt><trkpt lat="41.511155" lon="0.8452183"><ele>297.3333333333333</ele><time>2026-04-19T05:57:03.962Z</time></trkpt><trkpt lat="41.5110267" lon="0.8450267"><ele>297.0</ele><time>2026-04-19T05:57:04.963Z</time></trkpt><trkpt lat="41.510905" lon="0.84483"><ele>297.3333333333333</ele><time>2026-04-19T05:57:05.962Z</time></trkpt><trkpt lat="41.5107817" lon="0.8446333"><ele>297.66666666666663</ele><time>2026-04-19T05:57:06.963Z</time></trkpt><trkpt lat="41.5106617" lon="0.84443"><ele>298.0</ele><time>2026-04-19T05:57:07.963Z</time></trkpt><trkpt lat="41.5105517" lon="0.8442317"><ele>298.0</ele><time>2026-04-19T05:57:08.962Z</time></trkpt><trkpt lat="41.5104417" lon="0.8440333"><ele>298.0</ele><time>2026-04-19T05:57:09.962Z</time></trkpt><trkpt lat="41.5103267" lon="0.8438283"><ele>298.0</ele><time>2026-04-19T05:57:10.963Z</time></trkpt><trkpt lat="41.51021" lon="0.8436183"><ele>298.66666666666663</ele><time>2026-04-19T05:57:11.963Z</time></trkpt><trkpt lat="41.5100967" lon="0.843415"><ele>299.3333333333333</ele><time>2026-04-19T05:57:12.963Z</time></trkpt><trkpt lat="41.50999" lon="0.843225"><ele>300.0</ele><time>2026-04-19T05:57:13.963Z</time></trkpt><trkpt lat="41.5098883" lon="0.8430367"><ele>300.0</ele><time>2026-04-19T05:57:14.962Z</time></trkpt><trkpt lat="41.5097833" lon="0.842855"><ele>300.0</ele><time>2026-04-19T05:57:15.962Z</time></trkpt><trkpt lat="41.5096883" lon="0.84267"><ele>300.0</ele><time>2026-04-19T05:57:16.962Z</time></trkpt><trkpt lat="41.5095883" lon="0.842485"><ele>300.6666666666667</ele><time>2026-04-19T05:57:17.963Z</time></trkpt><trkpt lat="41.5094833" lon="0.842295"><ele>301.33333333333337</ele><time>2026-04-19T05:57:18.963Z</time></trkpt><trkpt lat="41.5093883" lon="0.8421"><ele>302.0</ele><time>2026-04-19T05:57:19.962Z</time></trkpt><trkpt lat="41.50929" lon="0.8418967"><ele>302.0</ele><time>2026-04-19T05:57:20.963Z</time></trkpt><trkpt lat="41.5091967" lon="0.8417033"><ele>302.0</ele><time>2026-04-19T05:57:21.963Z</time></trkpt><trkpt lat="41.5090933" lon="0.84151"><ele>302.0</ele><time>2026-04-19T05:57:22.963Z</time></trkpt><trkpt lat="41.508985" lon="0.84131"><ele>302.0</ele><time>2026-04-19T05:57:23.962Z</time></trkpt><trkpt lat="41.50888" lon="0.841115"><ele>302.0</ele><time>2026-04-19T05:57:24.963Z</time></trkpt><trkpt lat="41.5087733" lon="0.8409117"><ele>302.0</ele><time>2026-04-19T05:57:25.962Z</time></trkpt><trkpt lat="41.5086633" lon="0.8407017"><ele>302.33333333333337</ele><time>2026-04-19T05:57:26.962Z</time></trkpt><trkpt lat="41.50856" lon="0.8404867"><ele>302.6666666666667</ele><time>2026-04-19T05:57:27.962Z</time></trkpt><trkpt lat="41.5084517" lon="0.84028"><ele>303.0</ele><time>2026-04-19T05:57:28.962Z</time></trkpt><trkpt lat="41.5083467" lon="0.84007"><ele>303.3333333333333</ele><time>2026-04-19T05:57:29.962Z</time></trkpt><trkpt lat="41.5082367" lon="0.8398383"><ele>303.66666666666663</ele><time>2026-04-19T05:57:30.963Z</time></trkpt><trkpt lat="41.5081233" lon="0.8396267"><ele>304.0</ele><time>2026-04-19T05:57:31.962Z</time></trkpt><trkpt lat="41.5080117" lon="0.8394167"><ele>305.3333333333333</ele><time>2026-04-19T05:57:32.963Z</time></trkpt><trkpt lat="41.5079083" lon="0.8392133"><ele>306.6666666666667</ele><time>2026-04-19T05:57:33.962Z</time></trkpt><trkpt lat="41.50782" lon="0.838995"><ele>308.0</ele><time>2026-04-19T05:57:34.963Z</time></trkpt><trkpt lat="41.5077" lon="0.8387867"><ele>308.0</ele><time>2026-04-19T05:57:35.962Z</time></trkpt><trkpt lat="41.50757" lon="0.8385667"><ele>308.0</ele><time>2026-04-19T05:57:36.963Z</time></trkpt><trkpt lat="41.50746" lon="0.8383583"><ele>308.0</ele><time>2026-04-19T05:57:37.963Z</time></trkpt><trkpt lat="41.5073567" lon="0.83816"><ele>307.6666666666667</ele><time>2026-04-19T05:57:38.962Z</time></trkpt><trkpt lat="41.507255" lon="0.8379583"><ele>307.3333333333333</ele><time>2026-04-19T05:57:39.962Z</time></trkpt><trkpt lat="41.5071517" lon="0.8377583"><ele>307.0</ele><time>2026-04-19T05:57:40.962Z</time></trkpt><trkpt lat="41.50705" lon="0.83757"><ele>307.66666666666663</ele><time>2026-04-19T05:57:41.962Z</time></trkpt><trkpt lat="41.5069417" lon="0.8373767"><ele>308.3333333333333</ele><time>2026-04-19T05:57:42.962Z</time></trkpt><trkpt lat="41.5068367" lon="0.8371767"><ele>309.0</ele><time>2026-04-19T05:57:43.963Z</time></trkpt><trkpt lat="41.506735" lon="0.83698"><ele>310.0</ele><time>2026-04-19T05:57:44.962Z</time></trkpt><trkpt lat="41.506635" lon="0.83678"><ele>311.0</ele><time>2026-04-19T05:57:45.963Z</time></trkpt><trkpt lat="41.5065333" lon="0.8365833"><ele>312.0</ele><time>2026-04-19T05:57:46.963Z</time></trkpt><trkpt lat="41.50643" lon="0.8363883"><ele>312.0</ele><time>2026-04-19T05:57:47.963Z</time></trkpt><trkpt lat="41.50632" lon="0.836195"><ele>312.0</ele><time>2026-04-19T05:57:48.963Z</time></trkpt><trkpt lat="41.50621" lon="0.83599"><ele>312.0</ele><time>2026-04-19T05:57:49.962Z</time></trkpt><trkpt lat="41.5061133" lon="0.835785"><ele>312.3333333333333</ele><time>2026-04-19T05:57:50.962Z</time></trkpt><trkpt lat="41.506005" lon="0.8355833"><ele>312.66666666666663</ele><time>2026-04-19T05:57:51.963Z</time></trkpt><trkpt lat="41.5058967" lon="0.8353733"><ele>313.0</ele><time>2026-04-19T05:57:52.962Z</time></trkpt><trkpt lat="41.50579" lon="0.8351783"><ele>312.66666666666663</ele><time>2026-04-19T05:57:53.963Z</time></trkpt><trkpt lat="41.50568" lon="0.8349833"><ele>312.3333333333333</ele><time>2026-04-19T05:57:54.963Z</time></trkpt><trkpt lat="41.5055717" lon="0.8347817"><ele>312.0</ele><time>2026-04-19T05:57:55.962Z</time></trkpt><trkpt lat="41.5054667" lon="0.8345767"><ele>313.0</ele><time>2026-04-19T05:57:56.963Z</time></trkpt><trkpt lat="41.5053617" lon="0.8343633"><ele>314.0</ele><time>2026-04-19T05:57:57.963Z</time></trkpt><trkpt lat="41.5052533" lon="0.83416"><ele>315.0</ele><time>2026-04-19T05:57:58.962Z</time></trkpt><trkpt lat="41.5051467" lon="0.83396"><ele>315.0</ele><time>2026-04-19T05:57:59.962Z</time></trkpt><trkpt lat="41.5050417" lon="0.833755"><ele>315.0</ele><time>2026-04-19T05:58:00.962Z</time></trkpt><trkpt lat="41.5049333" lon="0.8335533"><ele>315.0</ele><time>2026-04-19T05:58:01.962Z</time></trkpt><trkpt lat="41.504825" lon="0.8333483"><ele>315.3333333333333</ele><time>2026-04-19T05:58:02.962Z</time></trkpt><trkpt lat="41.5047167" lon="0.8331417"><ele>315.66666666666663</ele><time>2026-04-19T05:58:03.963Z</time></trkpt><trkpt lat="41.504605" lon="0.832935"><ele>316.0</ele><time>2026-04-19T05:58:04.963Z</time></trkpt><trkpt lat="41.5044967" lon="0.832735"><ele>316.66666666666663</ele><time>2026-04-19T05:58:05.962Z</time></trkpt><trkpt lat="41.5043967" lon="0.83254"><ele>317.3333333333333</ele><time>2026-04-19T05:58:06.962Z</time></trkpt><trkpt lat="41.504285" lon="0.83234"><ele>318.0</ele><time>2026-04-19T05:58:07.962Z</time></trkpt><trkpt lat="41.504185" lon="0.8321367"><ele>318.0</ele><time>2026-04-19T05:58:08.962Z</time></trkpt><trkpt lat="41.5040867" lon="0.831925"><ele>318.0</ele><time>2026-04-19T05:58:09.963Z</time></trkpt><trkpt lat="41.5039883" lon="0.8317267"><ele>318.0</ele><time>2026-04-19T05:58:10.963Z</time></trkpt><trkpt lat="41.5038867" lon="0.8315333"><ele>318.3333333333333</ele><time>2026-04-19T05:58:11.963Z</time></trkpt><trkpt lat="41.50378" lon="0.8313317"><ele>318.66666666666663</ele><time>2026-04-19T05:58:12.962Z</time></trkpt><trkpt lat="41.5036733" lon="0.8311283"><ele>319.0</ele><time>2026-04-19T05:58:13.962Z</time></trkpt><trkpt lat="41.5035683" lon="0.830925"><ele>320.0</ele><time>2026-04-19T05:58:14.962Z</time></trkpt><trkpt lat="41.5034633" lon="0.83073"><ele>321.0</ele><time>2026-04-19T05:58:15.963Z</time></trkpt><trkpt lat="41.5033517" lon="0.83053"><ele>322.0</ele><time>2026-04-19T05:58:16.962Z</time></trkpt><trkpt lat="41.50325" lon="0.8303317"><ele>322.66666666666663</ele><time>2026-04-19T05:58:17.963Z</time></trkpt><trkpt lat="41.50315" lon="0.8301367"><ele>323.3333333333333</ele><time>2026-04-19T05:58:18.962Z</time></trkpt><trkpt lat="41.5030517" lon="0.8299367"><ele>324.0</ele><time>2026-04-19T05:58:19.963Z</time></trkpt><trkpt lat="41.5029483" lon="0.82974"><ele>324.3333333333333</ele><time>2026-04-19T05:58:20.963Z</time></trkpt><trkpt lat="41.502845" lon="0.829545"><ele>324.66666666666663</ele><time>2026-04-19T05:58:21.963Z</time></trkpt><trkpt lat="41.502735" lon="0.82935"><ele>325.0</ele><time>2026-04-19T05:58:22.963Z</time></trkpt><trkpt lat="41.5026333" lon="0.8291517"><ele>326.0</ele><time>2026-04-19T05:58:23.963Z</time></trkpt><trkpt lat="41.502525" lon="0.8289517"><ele>327.0</ele><time>2026-04-19T05:58:24.962Z</time></trkpt><trkpt lat="41.50242" lon="0.828745"><ele>328.0</ele><time>2026-04-19T05:58:25.962Z</time></trkpt><trkpt lat="41.5023167" lon="0.82855"><ele>328.66666666666663</ele><time>2026-04-19T05:58:26.963Z</time></trkpt><trkpt lat="41.50222" lon="0.8283583"><ele>329.3333333333333</ele><time>2026-04-19T05:58:27.963Z</time></trkpt><trkpt lat="41.5021233" lon="0.82817"><ele>330.0</ele><time>2026-04-19T05:58:28.962Z</time></trkpt><trkpt lat="41.50202" lon="0.8279783"><ele>331.0</ele><time>2026-04-19T05:58:29.963Z</time></trkpt><trkpt lat="41.5019283" lon="0.8277883"><ele>332.0</ele><time>2026-04-19T05:58:30.963Z</time></trkpt><trkpt lat="41.5018317" lon="0.827595"><ele>333.0</ele><time>2026-04-19T05:58:31.963Z</time></trkpt><trkpt lat="41.5017483" lon="0.82739"><ele>333.0</ele><time>2026-04-19T05:58:32.962Z</time></trkpt><trkpt lat="41.5016583" lon="0.827185"><ele>333.0</ele><time>2026-04-19T05:58:33.962Z</time></trkpt><trkpt lat="41.5015683" lon="0.82696"><ele>333.0</ele><time>2026-04-19T05:58:34.962Z</time></trkpt><trkpt lat="41.5014767" lon="0.8267417"><ele>332.6666666666667</ele><time>2026-04-19T05:58:35.962Z</time></trkpt><trkpt lat="41.5013933" lon="0.826515"><ele>332.33333333333337</ele><time>2026-04-19T05:58:36.962Z</time></trkpt><trkpt lat="41.5013117" lon="0.8262867"><ele>332.0</ele><time>2026-04-19T05:58:37.963Z</time></trkpt><trkpt lat="41.5012283" lon="0.8260583"><ele>334.0</ele><time>2026-04-19T05:58:38.962Z</time></trkpt><trkpt lat="41.501145" lon="0.8258367"><ele>336.0</ele><time>2026-04-19T05:58:39.962Z</time></trkpt><trkpt lat="41.501055" lon="0.8256133"><ele>338.0</ele><time>2026-04-19T05:58:40.962Z</time></trkpt><trkpt lat="41.50097" lon="0.8253817"><ele>338.0</ele><time>2026-04-19T05:58:41.963Z</time></trkpt><trkpt lat="41.5008783" lon="0.8251583"><ele>338.0</ele><time>2026-04-19T05:58:42.963Z</time></trkpt><trkpt lat="41.5007917" lon="0.82493"><ele>338.0</ele><time>2026-04-19T05:58:43.962Z</time></trkpt><trkpt lat="41.5007" lon="0.8247083"><ele>337.6666666666667</ele><time>2026-04-19T05:58:44.963Z</time></trkpt><trkpt lat="41.5006083" lon="0.824495"><ele>337.3333333333333</ele><time>2026-04-19T05:58:45.963Z</time></trkpt><trkpt lat="41.5005083" lon="0.8242783"><ele>337.0</ele><time>2026-04-19T05:58:46.962Z</time></trkpt><trkpt lat="41.500405" lon="0.8240583"><ele>337.0</ele><time>2026-04-19T05:58:47.963Z</time></trkpt><trkpt lat="41.5003017" lon="0.82384"><ele>337.0</ele><time>2026-04-19T05:58:48.963Z</time></trkpt><trkpt lat="41.5001883" lon="0.82363"><ele>337.0</ele><time>2026-04-19T05:58:49.962Z</time></trkpt><trkpt lat="41.50007" lon="0.8234233"><ele>334.66666666666663</ele><time>2026-04-19T05:58:50.962Z</time></trkpt><trkpt lat="41.499955" lon="0.8232167"><ele>332.3333333333333</ele><time>2026-04-19T05:58:51.962Z</time></trkpt><trkpt lat="41.4998417" lon="0.823005"><ele>330.0</ele><time>2026-04-19T05:58:52.962Z</time></trkpt><trkpt lat="41.4997233" lon="0.8227917"><ele>329.0</ele><time>2026-04-19T05:58:53.963Z</time></trkpt><trkpt lat="41.49961" lon="0.8225767"><ele>328.0</ele><time>2026-04-19T05:58:54.963Z</time></trkpt><trkpt lat="41.4994967" lon="0.82236"><ele>327.0</ele><time>2026-04-19T05:58:55.963Z</time></trkpt><trkpt lat="41.4993767" lon="0.8221483"><ele>327.0</ele><time>2026-04-19T05:58:56.962Z</time></trkpt><trkpt lat="41.49927" lon="0.821935"><ele>327.0</ele><time>2026-04-19T05:58:57.963Z</time></trkpt><trkpt lat="41.49917" lon="0.821705"><ele>327.0</ele><time>2026-04-19T05:58:58.962Z</time></trkpt><trkpt lat="41.4990833" lon="0.8214667"><ele>326.3333333333333</ele><time>2026-04-19T05:58:59.962Z</time></trkpt><trkpt lat="41.4990083" lon="0.821225"><ele>325.66666666666663</ele><time>2026-04-19T05:59:00.962Z</time></trkpt><trkpt lat="41.4989517" lon="0.8209867"><ele>325.0</ele><time>2026-04-19T05:59:01.963Z</time></trkpt><trkpt lat="41.4988983" lon="0.820735"><ele>325.0</ele><time>2026-04-19T05:59:02.962Z</time></trkpt><trkpt lat="41.4988517" lon="0.8204883"><ele>325.0</ele><time>2026-04-19T05:59:03.962Z</time></trkpt><trkpt lat="41.498815" lon="0.8202383"><ele>325.0</ele><time>2026-04-19T05:59:04.962Z</time></trkpt><trkpt lat="41.4987967" lon="0.8199833"><ele>326.0</ele><time>2026-04-19T05:59:05.963Z</time></trkpt><trkpt lat="41.498805" lon="0.8197483"><ele>327.0</ele><time>2026-04-19T05:59:06.963Z</time></trkpt><trkpt lat="41.4988067" lon="0.8194883"><ele>328.0</ele><time>2026-04-19T05:59:07.963Z</time></trkpt><trkpt lat="41.4988183" lon="0.819235"><ele>329.3333333333333</ele><time>2026-04-19T05:59:08.962Z</time></trkpt><trkpt lat="41.4988417" lon="0.8189883"><ele>330.6666666666667</ele><time>2026-04-19T05:59:09.962Z</time></trkpt><trkpt lat="41.4988717" lon="0.8187517"><ele>332.0</ele><time>2026-04-19T05:59:10.963Z</time></trkpt><trkpt lat="41.49891" lon="0.8185367"><ele>333.6666666666667</ele><time>2026-04-19T05:59:11.963Z</time></trkpt><trkpt lat="41.49896" lon="0.81832"><ele>335.3333333333333</ele><time>2026-04-19T05:59:12.963Z</time></trkpt><trkpt lat="41.499015" lon="0.8181083"><ele>337.0</ele><time>2026-04-19T05:59:13.963Z</time></trkpt><trkpt lat="41.49908" lon="0.8179067"><ele>337.0</ele><time>2026-04-19T05:59:14.963Z</time></trkpt><trkpt lat="41.4991483" lon="0.817705"><ele>337.0</ele><time>2026-04-19T05:59:15.963Z</time></trkpt><trkpt lat="41.4992183" lon="0.81751"><ele>337.0</ele><time>2026-04-19T05:59:16.963Z</time></trkpt><trkpt lat="41.4992817" lon="0.81732"><ele>340.0</ele><time>2026-04-19T05:59:17.962Z</time></trkpt><trkpt lat="41.499345" lon="0.81712"><ele>343.0</ele><time>2026-04-19T05:59:18.963Z</time></trkpt><trkpt lat="41.4994117" lon="0.8169267"><ele>346.0</ele><time>2026-04-19T05:59:19.963Z</time></trkpt><trkpt lat="41.4994767" lon="0.8167283"><ele>346.25</ele><time>2026-04-19T05:59:20.962Z</time></trkpt><trkpt lat="41.499535" lon="0.8165333"><ele>346.5</ele><time>2026-04-19T05:59:21.963Z</time></trkpt><trkpt lat="41.4995833" lon="0.8163483"><ele>346.75</ele><time>2026-04-19T05:59:22.962Z</time></trkpt><trkpt lat="41.4996233" lon="0.8161633"><ele>347.0</ele><time>2026-04-19T05:59:23.962Z</time></trkpt><trkpt lat="41.4996567" lon="0.8159783"><ele>348.0</ele><time>2026-04-19T05:59:24.963Z</time></trkpt><trkpt lat="41.4996767" lon="0.81578"><ele>349.0</ele><time>2026-04-19T05:59:25.963Z</time></trkpt><trkpt lat="41.4996933" lon="0.8155683"><ele>350.0</ele><time>2026-04-19T05:59:26.963Z</time></trkpt><trkpt lat="41.4996967" lon="0.8153517"><ele>349.6666666666667</ele><time>2026-04-19T05:59:27.962Z</time></trkpt><trkpt lat="41.499685" lon="0.8151333"><ele>349.3333333333333</ele><time>2026-04-19T05:59:28.963Z</time></trkpt><trkpt lat="41.4996617" lon="0.8148983"><ele>349.0</ele><time>2026-04-19T05:59:29.963Z</time></trkpt><trkpt lat="41.49963" lon="0.81467"><ele>349.0</ele><time>2026-04-19T05:59:30.962Z</time></trkpt><trkpt lat="41.4995917" lon="0.8144417"><ele>349.0</ele><time>2026-04-19T05:59:31.962Z</time></trkpt><trkpt lat="41.499545" lon="0.8142033"><ele>349.0</ele><time>2026-04-19T05:59:32.963Z</time></trkpt><trkpt lat="41.499495" lon="0.8139733"><ele>349.0</ele><time>2026-04-19T05:59:33.962Z</time></trkpt><trkpt lat="41.4994333" lon="0.81373"><ele>349.0</ele><time>2026-04-19T05:59:34.962Z</time></trkpt><trkpt lat="41.49937" lon="0.81349"><ele>349.0</ele><time>2026-04-19T05:59:35.962Z</time></trkpt><trkpt lat="41.4993033" lon="0.81325"><ele>348.66666666666663</ele><time>2026-04-19T05:59:36.963Z</time></trkpt><trkpt lat="41.49924" lon="0.8129967"><ele>348.3333333333333</ele><time>2026-04-19T05:59:37.963Z</time></trkpt><trkpt lat="41.4991767" lon="0.81275"><ele>348.0</ele><time>2026-04-19T05:59:38.963Z</time></trkpt><trkpt lat="41.4991133" lon="0.8125117"><ele>347.0</ele><time>2026-04-19T05:59:39.963Z</time></trkpt><trkpt lat="41.49905" lon="0.8122683"><ele>346.0</ele><time>2026-04-19T05:59:40.962Z</time></trkpt><trkpt lat="41.4989817" lon="0.8120317"><ele>345.0</ele><time>2026-04-19T05:59:41.963Z</time></trkpt><trkpt lat="41.49892" lon="0.811785"><ele>345.0</ele><time>2026-04-19T05:59:42.962Z</time></trkpt><trkpt lat="41.498855" lon="0.8115383"><ele>345.0</ele><time>2026-04-19T05:59:43.962Z</time></trkpt><trkpt lat="41.498785" lon="0.8112783"><ele>345.0</ele><time>2026-04-19T05:59:44.962Z</time></trkpt><trkpt lat="41.4987183" lon="0.8110217"><ele>345.0</ele><time>2026-04-19T05:59:45.962Z</time></trkpt><trkpt lat="41.4986517" lon="0.8107667"><ele>345.0</ele><time>2026-04-19T05:59:46.962Z</time></trkpt><trkpt lat="41.498585" lon="0.8105083"><ele>345.0</ele><time>2026-04-19T05:59:47.963Z</time></trkpt><trkpt lat="41.498515" lon="0.8102467"><ele>345.0</ele><time>2026-04-19T05:59:48.963Z</time></trkpt><trkpt lat="41.498455" lon="0.8099867"><ele>345.0</ele><time>2026-04-19T05:59:49.963Z</time></trkpt><trkpt lat="41.49839" lon="0.809725"><ele>345.0</ele><time>2026-04-19T05:59:50.963Z</time></trkpt><trkpt lat="41.4983183" lon="0.8094617"><ele>344.3333333333333</ele><time>2026-04-19T05:59:51.963Z</time></trkpt><trkpt lat="41.49825" lon="0.80921"><ele>343.66666666666663</ele><time>2026-04-19T05:59:52.963Z</time></trkpt><trkpt lat="41.4981817" lon="0.8089633"><ele>343.0</ele><time>2026-04-19T05:59:53.963Z</time></trkpt><trkpt lat="41.49811" lon="0.8087083"><ele>341.66666666666663</ele><time>2026-04-19T05:59:54.963Z</time></trkpt><trkpt lat="41.4980433" lon="0.8084467"><ele>340.3333333333333</ele><time>2026-04-19T05:59:55.962Z</time></trkpt><trkpt lat="41.4979883" lon="0.8081933"><ele>339.0</ele><time>2026-04-19T05:59:56.963Z</time></trkpt><trkpt lat="41.4979417" lon="0.8079483"><ele>340.6666666666667</ele><time>2026-04-19T05:59:57.963Z</time></trkpt><trkpt lat="41.497915" lon="0.807695"><ele>342.33333333333337</ele><time>2026-04-19T05:59:58.963Z</time></trkpt><trkpt lat="41.4978983" lon="0.8074233"><ele>344.0</ele><time>2026-04-19T05:59:59.963Z</time></trkpt><trkpt lat="41.49789" lon="0.8071567"><ele>344.0</ele><time>2026-04-19T06:00:00.963Z</time></trkpt><trkpt lat="41.4978933" lon="0.8068817"><ele>344.0</ele><time>2026-04-19T06:00:01.962Z</time></trkpt><trkpt lat="41.4979117" lon="0.8066183"><ele>344.0</ele><time>2026-04-19T06:00:02.963Z</time></trkpt><trkpt lat="41.4979483" lon="0.8063483"><ele>342.6666666666667</ele><time>2026-04-19T06:00:03.963Z</time></trkpt><trkpt lat="41.4979917" lon="0.806075"><ele>341.3333333333333</ele><time>2026-04-19T06:00:04.963Z</time></trkpt><trkpt lat="41.49802" lon="0.80581"><ele>340.0</ele><time>2026-04-19T06:00:05.963Z</time></trkpt><trkpt lat="41.49806" lon="0.8055433"><ele>339.3333333333333</ele><time>2026-04-19T06:00:06.963Z</time></trkpt><trkpt lat="41.498095" lon="0.8052767"><ele>338.6666666666667</ele><time>2026-04-19T06:00:07.962Z</time></trkpt><trkpt lat="41.4981317" lon="0.8050117"><ele>338.0</ele><time>2026-04-19T06:00:08.963Z</time></trkpt><trkpt lat="41.4981733" lon="0.80474"><ele>337.6666666666667</ele><time>2026-04-19T06:00:09.962Z</time></trkpt><trkpt lat="41.4982133" lon="0.8044733"><ele>337.3333333333333</ele><time>2026-04-19T06:00:10.963Z</time></trkpt><trkpt lat="41.49825" lon="0.80421"><ele>337.0</ele><time>2026-04-19T06:00:11.963Z</time></trkpt><trkpt lat="41.4982883" lon="0.80394"><ele>336.66666666666663</ele><time>2026-04-19T06:00:12.962Z</time></trkpt><trkpt lat="41.4983167" lon="0.8036717"><ele>336.3333333333333</ele><time>2026-04-19T06:00:13.962Z</time></trkpt><trkpt lat="41.498355" lon="0.8034"><ele>336.0</ele><time>2026-04-19T06:00:14.962Z</time></trkpt><trkpt lat="41.4983883" lon="0.8031283"><ele>335.6666666666667</ele><time>2026-04-19T06:00:15.963Z</time></trkpt><trkpt lat="41.4984233" lon="0.8028683"><ele>335.33333333333337</ele><time>2026-04-19T06:00:16.962Z</time></trkpt><trkpt lat="41.49846" lon="0.80259"><ele>335.0</ele><time>2026-04-19T06:00:17.962Z</time></trkpt><trkpt lat="41.4985" lon="0.802325"><ele>335.0</ele><time>2026-04-19T06:00:18.962Z</time></trkpt><trkpt lat="41.49854" lon="0.8020533"><ele>335.0</ele><time>2026-04-19T06:00:19.962Z</time></trkpt><trkpt lat="41.4985817" lon="0.8017883"><ele>335.0</ele><time>2026-04-19T06:00:20.963Z</time></trkpt><trkpt lat="41.4986133" lon="0.80152"><ele>335.0</ele><time>2026-04-19T06:00:21.962Z</time></trkpt><trkpt lat="41.4986533" lon="0.8012567"><ele>335.0</ele><time>2026-04-19T06:00:22.962Z</time></trkpt><trkpt lat="41.4986917" lon="0.80099"><ele>335.0</ele><time>2026-04-19T06:00:23.962Z</time></trkpt><trkpt lat="41.49873" lon="0.8007217"><ele>333.33333333333337</ele><time>2026-04-19T06:00:24.963Z</time></trkpt><trkpt lat="41.49876" lon="0.800455"><ele>331.6666666666667</ele><time>2026-04-19T06:00:25.962Z</time></trkpt><trkpt lat="41.4987933" lon="0.80018"><ele>330.0</ele><time>2026-04-19T06:00:26.962Z</time></trkpt><trkpt lat="41.49883" lon="0.7999167"><ele>328.6666666666667</ele><time>2026-04-19T06:00:27.962Z</time></trkpt><trkpt lat="41.49887" lon="0.799645"><ele>327.33333333333337</ele><time>2026-04-19T06:00:28.962Z</time></trkpt><trkpt lat="41.4989017" lon="0.7993817"><ele>326.0</ele><time>2026-04-19T06:00:29.963Z</time></trkpt><trkpt lat="41.4989383" lon="0.799105"><ele>325.6666666666667</ele><time>2026-04-19T06:00:30.963Z</time></trkpt><trkpt lat="41.4989733" lon="0.7988383"><ele>325.3333333333333</ele><time>2026-04-19T06:00:31.962Z</time></trkpt><trkpt lat="41.49901" lon="0.7985633"><ele>325.0</ele><time>2026-04-19T06:00:32.963Z</time></trkpt><trkpt lat="41.4990517" lon="0.7982883"><ele>323.66666666666663</ele><time>2026-04-19T06:00:33.963Z</time></trkpt><trkpt lat="41.4990867" lon="0.798015"><ele>322.3333333333333</ele><time>2026-04-19T06:00:34.962Z</time></trkpt><trkpt lat="41.4991183" lon="0.7977467"><ele>321.0</ele><time>2026-04-19T06:00:35.963Z</time></trkpt><trkpt lat="41.4991567" lon="0.7974717"><ele>319.3333333333333</ele><time>2026-04-19T06:00:36.963Z</time></trkpt><trkpt lat="41.4991917" lon="0.797195"><ele>317.66666666666663</ele><time>2026-04-19T06:00:37.962Z</time></trkpt><trkpt lat="41.49923" lon="0.7969183"><ele>316.0</ele><time>2026-04-19T06:00:38.962Z</time></trkpt><trkpt lat="41.49927" lon="0.7966417"><ele>316.0</ele><time>2026-04-19T06:00:39.963Z</time></trkpt><trkpt lat="41.499305" lon="0.7963667"><ele>316.0</ele><time>2026-04-19T06:00:40.962Z</time></trkpt><trkpt lat="41.4993433" lon="0.7960883"><ele>316.0</ele><time>2026-04-19T06:00:41.963Z</time></trkpt><trkpt lat="41.4993783" lon="0.795815"><ele>316.3333333333333</ele><time>2026-04-19T06:00:42.963Z</time></trkpt><trkpt lat="41.4994167" lon="0.79554"><ele>316.6666666666667</ele><time>2026-04-19T06:00:43.962Z</time></trkpt><trkpt lat="41.4994617" lon="0.7952683"><ele>317.0</ele><time>2026-04-19T06:00:44.963Z</time></trkpt><trkpt lat="41.4995033" lon="0.7949967"><ele>317.0</ele><time>2026-04-19T06:00:45.962Z</time></trkpt><trkpt lat="41.4995467" lon="0.794725"><ele>317.0</ele><time>2026-04-19T06:00:46.963Z</time></trkpt><trkpt lat="41.4995933" lon="0.7944467"><ele>317.0</ele><time>2026-04-19T06:00:47.962Z</time></trkpt><trkpt lat="41.4996383" lon="0.7941717"><ele>316.0</ele><time>2026-04-19T06:00:48.963Z</time></trkpt><trkpt lat="41.49969" lon="0.7938967"><ele>315.0</ele><time>2026-04-19T06:00:49.962Z</time></trkpt><trkpt lat="41.4997433" lon="0.7936233"><ele>314.0</ele><time>2026-04-19T06:00:50.963Z</time></trkpt><trkpt lat="41.499795" lon="0.7933583"><ele>313.6666666666667</ele><time>2026-04-19T06:00:51.962Z</time></trkpt><trkpt lat="41.4998517" lon="0.7930917"><ele>313.3333333333333</ele><time>2026-04-19T06:00:52.962Z</time></trkpt><trkpt lat="41.4999117" lon="0.7928233"><ele>313.0</ele><time>2026-04-19T06:00:53.963Z</time></trkpt><trkpt lat="41.49997" lon="0.7925483"><ele>312.66666666666663</ele><time>2026-04-19T06:00:54.963Z</time></trkpt><trkpt lat="41.50003" lon="0.7922817"><ele>312.3333333333333</ele><time>2026-04-19T06:00:55.962Z</time></trkpt><trkpt lat="41.5000933" lon="0.7920133"><ele>312.0</ele><time>2026-04-19T06:00:56.962Z</time></trkpt><trkpt lat="41.500155" lon="0.7917467"><ele>312.0</ele><time>2026-04-19T06:00:57.963Z</time></trkpt><trkpt lat="41.500215" lon="0.7914783"><ele>312.0</ele><time>2026-04-19T06:00:58.963Z</time></trkpt><trkpt lat="41.50027" lon="0.7912183"><ele>312.0</ele><time>2026-04-19T06:00:59.962Z</time></trkpt><trkpt lat="41.50033" lon="0.790965"><ele>312.3333333333333</ele><time>2026-04-19T06:01:00.962Z</time></trkpt><trkpt lat="41.50039" lon="0.7907"><ele>312.66666666666663</ele><time>2026-04-19T06:01:01.962Z</time></trkpt><trkpt lat="41.50045" lon="0.7904383"><ele>313.0</ele><time>2026-04-19T06:01:02.963Z</time></trkpt><trkpt lat="41.5005117" lon="0.790175"><ele>311.66666666666663</ele><time>2026-04-19T06:01:03.963Z</time></trkpt><trkpt lat="41.5005667" lon="0.7899133"><ele>310.3333333333333</ele><time>2026-04-19T06:01:04.963Z</time></trkpt><trkpt lat="41.5006283" lon="0.7896483"><ele>309.0</ele><time>2026-04-19T06:01:05.962Z</time></trkpt><trkpt lat="41.5006833" lon="0.7893883"><ele>308.6666666666667</ele><time>2026-04-19T06:01:06.962Z</time></trkpt><trkpt lat="41.5007433" lon="0.789125"><ele>308.33333333333337</ele><time>2026-04-19T06:01:07.963Z</time></trkpt><trkpt lat="41.5008033" lon="0.7888583"><ele>308.0</ele><time>2026-04-19T06:01:08.962Z</time></trkpt><trkpt lat="41.5008633" lon="0.7885967"><ele>308.33333333333337</ele><time>2026-04-19T06:01:09.963Z</time></trkpt><trkpt lat="41.5009233" lon="0.7883317"><ele>308.6666666666667</ele><time>2026-04-19T06:01:10.962Z</time></trkpt><trkpt lat="41.5009783" lon="0.7880617"><ele>309.0</ele><time>2026-04-19T06:01:11.963Z</time></trkpt><trkpt lat="41.5010367" lon="0.7877933"><ele>309.0</ele><time>2026-04-19T06:01:12.963Z</time></trkpt><trkpt lat="41.5010933" lon="0.7875267"><ele>309.0</ele><time>2026-04-19T06:01:13.963Z</time></trkpt><trkpt lat="41.5011533" lon="0.7872583"><ele>309.0</ele><time>2026-04-19T06:01:14.962Z</time></trkpt><trkpt lat="41.50122" lon="0.78698"><ele>308.3333333333333</ele><time>2026-04-19T06:01:15.962Z</time></trkpt><trkpt lat="41.5012817" lon="0.7867083"><ele>307.66666666666663</ele><time>2026-04-19T06:01:16.962Z</time></trkpt><trkpt lat="41.5013433" lon="0.786435"><ele>307.0</ele><time>2026-04-19T06:01:17.962Z</time></trkpt><trkpt lat="41.5014017" lon="0.7861683"><ele>306.66666666666663</ele><time>2026-04-19T06:01:18.962Z</time></trkpt><trkpt lat="41.5014567" lon="0.7859083"><ele>306.3333333333333</ele><time>2026-04-19T06:01:19.962Z</time></trkpt><trkpt lat="41.5015183" lon="0.7856383"><ele>306.0</ele><time>2026-04-19T06:01:20.963Z</time></trkpt><trkpt lat="41.5015733" lon="0.7853767"><ele>306.6666666666667</ele><time>2026-04-19T06:01:21.963Z</time></trkpt><trkpt lat="41.50163" lon="0.7851167"><ele>307.33333333333337</ele><time>2026-04-19T06:01:22.962Z</time></trkpt><trkpt lat="41.50169" lon="0.7848517"><ele>308.0</ele><time>2026-04-19T06:01:23.963Z</time></trkpt><trkpt lat="41.5017517" lon="0.7845783"><ele>307.6666666666667</ele><time>2026-04-19T06:01:24.963Z</time></trkpt><trkpt lat="41.5018117" lon="0.7843183"><ele>307.3333333333333</ele><time>2026-04-19T06:01:25.963Z</time></trkpt><trkpt lat="41.5018683" lon="0.7840583"><ele>307.0</ele><time>2026-04-19T06:01:26.963Z</time></trkpt><trkpt lat="41.501925" lon="0.7837967"><ele>307.0</ele><time>2026-04-19T06:01:27.963Z</time></trkpt><trkpt lat="41.5019833" lon="0.7835367"><ele>307.0</ele><time>2026-04-19T06:01:28.963Z</time></trkpt><trkpt lat="41.5020417" lon="0.7832733"><ele>307.0</ele><time>2026-04-19T06:01:29.963Z</time></trkpt><trkpt lat="41.5021033" lon="0.7830117"><ele>306.0</ele><time>2026-04-19T06:01:30.963Z</time></trkpt><trkpt lat="41.5021633" lon="0.782745"><ele>305.0</ele><time>2026-04-19T06:01:31.962Z</time></trkpt><trkpt lat="41.5022233" lon="0.7824783"><ele>304.0</ele><time>2026-04-19T06:01:32.963Z</time></trkpt><trkpt lat="41.5022783" lon="0.7822167"><ele>304.0</ele><time>2026-04-19T06:01:33.963Z</time></trkpt><trkpt lat="41.5023367" lon="0.7819583"><ele>304.0</ele><time>2026-04-19T06:01:34.963Z</time></trkpt><trkpt lat="41.50239" lon="0.781705"><ele>304.0</ele><time>2026-04-19T06:01:35.962Z</time></trkpt><trkpt lat="41.50245" lon="0.7814467"><ele>305.3333333333333</ele><time>2026-04-19T06:01:36.963Z</time></trkpt><trkpt lat="41.5025083" lon="0.7811967"><ele>306.6666666666667</ele><time>2026-04-19T06:01:37.963Z</time></trkpt><trkpt lat="41.5025633" lon="0.7809483"><ele>308.0</ele><time>2026-04-19T06:01:38.962Z</time></trkpt><trkpt lat="41.5026133" lon="0.7806883"><ele>308.6666666666667</ele><time>2026-04-19T06:01:39.962Z</time></trkpt><trkpt lat="41.5026683" lon="0.78043"><ele>309.3333333333333</ele><time>2026-04-19T06:01:40.962Z</time></trkpt><trkpt lat="41.5027233" lon="0.780175"><ele>310.0</ele><time>2026-04-19T06:01:41.963Z</time></trkpt><trkpt lat="41.50278" lon="0.7799133"><ele>310.66666666666663</ele><time>2026-04-19T06:01:42.962Z</time></trkpt><trkpt lat="41.502845" lon="0.7796533"><ele>311.3333333333333</ele><time>2026-04-19T06:01:43.963Z</time></trkpt><trkpt lat="41.502905" lon="0.7793917"><ele>312.0</ele><time>2026-04-19T06:01:44.963Z</time></trkpt><trkpt lat="41.5029583" lon="0.77914"><ele>309.3333333333333</ele><time>2026-04-19T06:01:45.962Z</time></trkpt><trkpt lat="41.5030183" lon="0.7788867"><ele>306.66666666666663</ele><time>2026-04-19T06:01:46.962Z</time></trkpt><trkpt lat="41.50308" lon="0.7786267"><ele>304.0</ele><time>2026-04-19T06:01:47.963Z</time></trkpt><trkpt lat="41.5031317" lon="0.778365"><ele>304.0</ele><time>2026-04-19T06:01:48.963Z</time></trkpt><trkpt lat="41.5031667" lon="0.7781"><ele>304.0</ele><time>2026-04-19T06:01:49.963Z</time></trkpt><trkpt lat="41.5031733" lon="0.7778333"><ele>304.0</ele><time>2026-04-19T06:01:50.963Z</time></trkpt><trkpt lat="41.5031633" lon="0.7775733"><ele>304.0</ele><time>2026-04-19T06:01:51.963Z</time></trkpt><trkpt lat="41.5031383" lon="0.777315"><ele>304.0</ele><time>2026-04-19T06:01:52.963Z</time></trkpt><trkpt lat="41.50309" lon="0.7770667"><ele>304.0</ele><time>2026-04-19T06:01:53.962Z</time></trkpt><trkpt lat="41.5030233" lon="0.7768283"><ele>304.0</ele><time>2026-04-19T06:01:54.962Z</time></trkpt><trkpt lat="41.5029233" lon="0.7765967"><ele>304.0</ele><time>2026-04-19T06:01:55.963Z</time></trkpt><trkpt lat="41.5027933" lon="0.7763867"><ele>304.0</ele><time>2026-04-19T06:01:56.963Z</time></trkpt><trkpt lat="41.5026633" lon="0.7761933"><ele>306.0</ele><time>2026-04-19T06:01:57.963Z</time></trkpt><trkpt lat="41.5025283" lon="0.776035"><ele>308.0</ele><time>2026-04-19T06:01:58.963Z</time></trkpt><trkpt lat="41.5023733" lon="0.7758783"><ele>310.0</ele><time>2026-04-19T06:01:59.962Z</time></trkpt><trkpt lat="41.50222" lon="0.7757217"><ele>315.0</ele><time>2026-04-19T06:02:00.963Z</time></trkpt><trkpt lat="41.5020633" lon="0.7755683"><ele>320.0</ele><time>2026-04-19T06:02:01.962Z</time></trkpt><trkpt lat="41.5019167" lon="0.7754167"><ele>325.0</ele><time>2026-04-19T06:02:02.962Z</time></trkpt><trkpt lat="41.50178" lon="0.7752717"><ele>321.66666666666663</ele><time>2026-04-19T06:02:03.962Z</time></trkpt><trkpt lat="41.5016367" lon="0.7751167"><ele>318.3333333333333</ele><time>2026-04-19T06:02:04.962Z</time></trkpt><trkpt lat="41.5014967" lon="0.774965"><ele>315.0</ele><time>2026-04-19T06:02:05.962Z</time></trkpt><trkpt lat="41.5013483" lon="0.77481"><ele>320.0</ele><time>2026-04-19T06:02:06.962Z</time></trkpt><trkpt lat="41.5012" lon="0.7746583"><ele>325.0</ele><time>2026-04-19T06:02:07.963Z</time></trkpt><trkpt lat="41.5010617" lon="0.7745183"><ele>330.0</ele><time>2026-04-19T06:02:08.963Z</time></trkpt><trkpt lat="41.5009183" lon="0.774375"><ele>326.0</ele><time>2026-04-19T06:02:09.963Z</time></trkpt><trkpt lat="41.5007733" lon="0.7742217"><ele>322.0</ele><time>2026-04-19T06:02:10.962Z</time></trkpt><trkpt lat="41.50063" lon="0.7740683"><ele>318.0</ele><time>2026-04-19T06:02:11.962Z</time></trkpt><trkpt lat="41.5004917" lon="0.7739233"><ele>318.3333333333333</ele><time>2026-04-19T06:02:12.962Z</time></trkpt><trkpt lat="41.5003517" lon="0.773785"><ele>318.66666666666663</ele><time>2026-04-19T06:02:13.963Z</time></trkpt><trkpt lat="41.5002133" lon="0.773635"><ele>319.0</ele><time>2026-04-19T06:02:14.962Z</time></trkpt><trkpt lat="41.5000867" lon="0.7734917"><ele>319.0</ele><time>2026-04-19T06:02:15.962Z</time></trkpt><trkpt lat="41.49997" lon="0.77333"><ele>319.0</ele><time>2026-04-19T06:02:16.962Z</time></trkpt><trkpt lat="41.4998717" lon="0.7731533"><ele>319.0</ele><time>2026-04-19T06:02:17.963Z</time></trkpt><trkpt lat="41.499795" lon="0.7729517"><ele>319.0</ele><time>2026-04-19T06:02:18.963Z</time></trkpt><trkpt lat="41.499745" lon="0.77274"><ele>319.0</ele><time>2026-04-19T06:02:19.962Z</time></trkpt><trkpt lat="41.4997133" lon="0.772525"><ele>319.0</ele><time>2026-04-19T06:02:20.963Z</time></trkpt><trkpt lat="41.499695" lon="0.77231"><ele>321.3333333333333</ele><time>2026-04-19T06:02:21.963Z</time></trkpt><trkpt lat="41.49969" lon="0.7721"><ele>323.6666666666667</ele><time>2026-04-19T06:02:22.962Z</time></trkpt><trkpt lat="41.4996933" lon="0.7719067"><ele>326.0</ele><time>2026-04-19T06:02:23.962Z</time></trkpt><trkpt lat="41.4996917" lon="0.7717083"><ele>328.25</ele><time>2026-04-19T06:02:24.963Z</time></trkpt><trkpt lat="41.4996933" lon="0.7715267"><ele>330.5</ele><time>2026-04-19T06:02:25.962Z</time></trkpt><trkpt lat="41.4996967" lon="0.77134"><ele>332.75</ele><time>2026-04-19T06:02:26.963Z</time></trkpt><trkpt lat="41.4996933" lon="0.7711567"><ele>335.0</ele><time>2026-04-19T06:02:27.962Z</time></trkpt><trkpt lat="41.4996667" lon="0.770965"><ele>335.33333333333337</ele><time>2026-04-19T06:02:28.963Z</time></trkpt><trkpt lat="41.49962" lon="0.7707717"><ele>335.6666666666667</ele><time>2026-04-19T06:02:29.963Z</time></trkpt><trkpt lat="41.4995467" lon="0.7705933"><ele>336.0</ele><time>2026-04-19T06:02:30.963Z</time></trkpt><trkpt lat="41.4994467" lon="0.770425"><ele>340.0</ele><time>2026-04-19T06:02:31.963Z</time></trkpt><trkpt lat="41.49936" lon="0.770255"><ele>344.0</ele><time>2026-04-19T06:02:32.963Z</time></trkpt><trkpt lat="41.4992717" lon="0.7700867"><ele>348.0</ele><time>2026-04-19T06:02:33.962Z</time></trkpt><trkpt lat="41.4991867" lon="0.7699167"><ele>348.0</ele><time>2026-04-19T06:02:34.962Z</time></trkpt><trkpt lat="41.4991017" lon="0.7697417"><ele>348.0</ele><time>2026-04-19T06:02:35.963Z</time></trkpt><trkpt lat="41.49904" lon="0.76956"><ele>348.0</ele><time>2026-04-19T06:02:36.962Z</time></trkpt><trkpt lat="41.4989917" lon="0.76936"><ele>347.25</ele><time>2026-04-19T06:02:37.962Z</time></trkpt><trkpt lat="41.4989583" lon="0.769165"><ele>346.5</ele><time>2026-04-19T06:02:38.962Z</time></trkpt><trkpt lat="41.4989317" lon="0.7689783"><ele>345.75</ele><time>2026-04-19T06:02:39.963Z</time></trkpt><trkpt lat="41.498915" lon="0.7687967"><ele>345.0</ele><time>2026-04-19T06:02:40.963Z</time></trkpt><trkpt lat="41.4988967" lon="0.7686167"><ele>346.25</ele><time>2026-04-19T06:02:41.963Z</time></trkpt><trkpt lat="41.498885" lon="0.7684433"><ele>347.5</ele><time>2026-04-19T06:02:42.963Z</time></trkpt><trkpt lat="41.49887" lon="0.7682733"><ele>348.75</ele><time>2026-04-19T06:02:43.962Z</time></trkpt><trkpt lat="41.49886" lon="0.7681017"><ele>350.0</ele><time>2026-04-19T06:02:44.963Z</time></trkpt><trkpt lat="41.4988433" lon="0.767925"><ele>350.0</ele><time>2026-04-19T06:02:45.963Z</time></trkpt><trkpt lat="41.4988217" lon="0.7677517"><ele>350.0</ele><time>2026-04-19T06:02:46.963Z</time></trkpt><trkpt lat="41.498805" lon="0.7675817"><ele>350.0</ele><time>2026-04-19T06:02:47.963Z</time></trkpt><trkpt lat="41.4987767" lon="0.7674267"><ele>350.0</ele><time>2026-04-19T06:02:48.962Z</time></trkpt><trkpt lat="41.4987383" lon="0.767265"><ele>351.75</ele><time>2026-04-19T06:02:49.963Z</time></trkpt><trkpt lat="41.4987067" lon="0.7670983"><ele>353.5</ele><time>2026-04-19T06:02:50.962Z</time></trkpt><trkpt lat="41.4986567" lon="0.7669583"><ele>355.25</ele><time>2026-04-19T06:02:51.962Z</time></trkpt><trkpt lat="41.4986083" lon="0.76681"><ele>357.0</ele><time>2026-04-19T06:02:52.963Z</time></trkpt><trkpt lat="41.49856" lon="0.7666583"><ele>357.0</ele><time>2026-04-19T06:02:53.963Z</time></trkpt><trkpt lat="41.4985167" lon="0.7665217"><ele>357.0</ele><time>2026-04-19T06:02:54.962Z</time></trkpt><trkpt lat="41.49846" lon="0.7663883"><ele>357.0</ele><time>2026-04-19T06:02:55.963Z</time></trkpt><trkpt lat="41.4984033" lon="0.7662533"><ele>357.0</ele><time>2026-04-19T06:02:56.963Z</time></trkpt><trkpt lat="41.4983517" lon="0.7661233"><ele>356.8</ele><time>2026-04-19T06:02:57.963Z</time></trkpt><trkpt lat="41.4983033" lon="0.76599"><ele>356.6</ele><time>2026-04-19T06:02:58.962Z</time></trkpt><trkpt lat="41.4982567" lon="0.7658733"><ele>356.40000000000003</ele><time>2026-04-19T06:02:59.963Z</time></trkpt><trkpt lat="41.4982" lon="0.7657567"><ele>356.20000000000005</ele><time>2026-04-19T06:03:00.962Z</time></trkpt><trkpt lat="41.4981467" lon="0.7656383"><ele>356.0</ele><time>2026-04-19T06:03:01.962Z</time></trkpt><trkpt lat="41.4981133" lon="0.76552"><ele>356.0</ele><time>2026-04-19T06:03:02.962Z</time></trkpt><trkpt lat="41.498045" lon="0.7654"><ele>356.0</ele><time>2026-04-19T06:03:03.962Z</time></trkpt><trkpt lat="41.4979733" lon="0.7652917"><ele>356.0</ele><time>2026-04-19T06:03:04.962Z</time></trkpt><trkpt lat="41.4979033" lon="0.7652117"><ele>356.0</ele><time>2026-04-19T06:03:05.962Z</time></trkpt><trkpt lat="41.497825" lon="0.7651567"><ele>356.0</ele><time>2026-04-19T06:03:06.962Z</time></trkpt><trkpt lat="41.497725" lon="0.7651167"><ele>355.4</ele><time>2026-04-19T06:03:07.963Z</time></trkpt><trkpt lat="41.4976283" lon="0.7650733"><ele>354.8</ele><time>2026-04-19T06:03:08.962Z</time></trkpt><trkpt lat="41.4975283" lon="0.7650333"><ele>354.2</ele><time>2026-04-19T06:03:09.963Z</time></trkpt><trkpt lat="41.497435" lon="0.764985"><ele>353.59999999999997</ele><time>2026-04-19T06:03:10.962Z</time></trkpt><trkpt lat="41.4973467" lon="0.7649317"><ele>353.0</ele><time>2026-04-19T06:03:11.963Z</time></trkpt><trkpt lat="41.497265" lon="0.7648667"><ele>353.0</ele><time>2026-04-19T06:03:12.963Z</time></trkpt><trkpt lat="41.4971867" lon="0.7647767"><ele>353.0</ele><time>2026-04-19T06:03:13.963Z</time></trkpt><trkpt lat="41.497115" lon="0.7646717"><ele>353.0</ele><time>2026-04-19T06:03:14.962Z</time></trkpt><trkpt lat="41.4970483" lon="0.76455"><ele>353.0</ele><time>2026-04-19T06:03:15.962Z</time></trkpt><trkpt lat="41.4969867" lon="0.7644317"><ele>353.0</ele><time>2026-04-19T06:03:16.963Z</time></trkpt><trkpt lat="41.49691" lon="0.764305"><ele>352.5</ele><time>2026-04-19T06:03:17.962Z</time></trkpt><trkpt lat="41.49684" lon="0.764175"><ele>352.0</ele><time>2026-04-19T06:03:18.962Z</time></trkpt><trkpt lat="41.496755" lon="0.7640467"><ele>351.5</ele><time>2026-04-19T06:03:19.963Z</time></trkpt><trkpt lat="41.496685" lon="0.7639217"><ele>351.0</ele><time>2026-04-19T06:03:20.962Z</time></trkpt><trkpt lat="41.496615" lon="0.7637917"><ele>351.0</ele><time>2026-04-19T06:03:21.963Z</time></trkpt><trkpt lat="41.4965467" lon="0.763655"><ele>351.0</ele><time>2026-04-19T06:03:22.963Z</time></trkpt><trkpt lat="41.49649" lon="0.7634983"><ele>351.0</ele><time>2026-04-19T06:03:23.963Z</time></trkpt><trkpt lat="41.4964317" lon="0.76333"><ele>351.0</ele><time>2026-04-19T06:03:24.963Z</time></trkpt><trkpt lat="41.4963833" lon="0.763165"><ele>351.0</ele><time>2026-04-19T06:03:25.962Z</time></trkpt><trkpt lat="41.4963467" lon="0.7629917"><ele>351.0</ele><time>2026-04-19T06:03:26.962Z</time></trkpt><trkpt lat="41.4963183" lon="0.7628183"><ele>351.0</ele><time>2026-04-19T06:03:27.963Z</time></trkpt><trkpt lat="41.4962867" lon="0.7626467"><ele>351.0</ele><time>2026-04-19T06:03:28.963Z</time></trkpt><trkpt lat="41.4962533" lon="0.7624733"><ele>348.3333333333333</ele><time>2026-04-19T06:03:29.962Z</time></trkpt><trkpt lat="41.4962133" lon="0.7622867"><ele>345.66666666666663</ele><time>2026-04-19T06:03:30.963Z</time></trkpt><trkpt lat="41.4961633" lon="0.7620867"><ele>343.0</ele><time>2026-04-19T06:03:31.962Z</time></trkpt><trkpt lat="41.4961133" lon="0.761875"><ele>343.3333333333333</ele><time>2026-04-19T06:03:32.963Z</time></trkpt><trkpt lat="41.496055" lon="0.761655"><ele>343.6666666666667</ele><time>2026-04-19T06:03:33.962Z</time></trkpt><trkpt lat="41.4960017" lon="0.7614367"><ele>344.0</ele><time>2026-04-19T06:03:34.963Z</time></trkpt><trkpt lat="41.49595" lon="0.7612083"><ele>343.33333333333337</ele><time>2026-04-19T06:03:35.963Z</time></trkpt><trkpt lat="41.4958983" lon="0.7609767"><ele>342.6666666666667</ele><time>2026-04-19T06:03:36.963Z</time></trkpt><trkpt lat="41.49584" lon="0.7607433"><ele>342.0</ele><time>2026-04-19T06:03:37.962Z</time></trkpt><trkpt lat="41.4957867" lon="0.7605033"><ele>342.0</ele><time>2026-04-19T06:03:38.963Z</time></trkpt><trkpt lat="41.4957317" lon="0.7602733"><ele>342.0</ele><time>2026-04-19T06:03:39.962Z</time></trkpt><trkpt lat="41.4956783" lon="0.76002"><ele>342.0</ele><time>2026-04-19T06:03:40.963Z</time></trkpt><trkpt lat="41.49562" lon="0.7597733"><ele>342.0</ele><time>2026-04-19T06:03:41.963Z</time></trkpt><trkpt lat="41.49556" lon="0.7595217"><ele>342.0</ele><time>2026-04-19T06:03:42.962Z</time></trkpt><trkpt lat="41.495505" lon="0.7592733"><ele>342.0</ele><time>2026-04-19T06:03:43.963Z</time></trkpt><trkpt lat="41.4954417" lon="0.759015"><ele>341.0</ele><time>2026-04-19T06:03:44.962Z</time></trkpt><trkpt lat="41.4953767" lon="0.7587567"><ele>340.0</ele><time>2026-04-19T06:03:45.963Z</time></trkpt><trkpt lat="41.4953183" lon="0.7584983"><ele>339.0</ele><time>2026-04-19T06:03:46.962Z</time></trkpt><trkpt lat="41.4952583" lon="0.7582333"><ele>339.0</ele><time>2026-04-19T06:03:47.962Z</time></trkpt><trkpt lat="41.4951967" lon="0.7579817"><ele>339.0</ele><time>2026-04-19T06:03:48.963Z</time></trkpt><trkpt lat="41.4951383" lon="0.757715"><ele>339.0</ele><time>2026-04-19T06:03:49.962Z</time></trkpt><trkpt lat="41.4950767" lon="0.7574533"><ele>338.3333333333333</ele><time>2026-04-19T06:03:50.962Z</time></trkpt><trkpt lat="41.4950183" lon="0.7571883"><ele>337.66666666666663</ele><time>2026-04-19T06:03:51.962Z</time></trkpt><trkpt lat="41.4949567" lon="0.7569233"><ele>337.0</ele><time>2026-04-19T06:03:52.963Z</time></trkpt><trkpt lat="41.49489" lon="0.7566567"><ele>336.66666666666663</ele><time>2026-04-19T06:03:53.962Z</time></trkpt><trkpt lat="41.494825" lon="0.75639"><ele>336.3333333333333</ele><time>2026-04-19T06:03:54.963Z</time></trkpt><trkpt lat="41.49476" lon="0.7561267"><ele>336.0</ele><time>2026-04-19T06:03:55.962Z</time></trkpt><trkpt lat="41.4946967" lon="0.755865"><ele>337.0</ele><time>2026-04-19T06:03:56.963Z</time></trkpt><trkpt lat="41.4946333" lon="0.7555983"><ele>338.0</ele><time>2026-04-19T06:03:57.963Z</time></trkpt><trkpt lat="41.4945567" lon="0.755335"><ele>339.0</ele><time>2026-04-19T06:03:58.963Z</time></trkpt><trkpt lat="41.49448" lon="0.755085"><ele>336.0</ele><time>2026-04-19T06:03:59.962Z</time></trkpt><trkpt lat="41.4943867" lon="0.7548433"><ele>333.0</ele><time>2026-04-19T06:04:00.962Z</time></trkpt><trkpt lat="41.4942833" lon="0.7546117"><ele>330.0</ele><time>2026-04-19T06:04:01.963Z</time></trkpt><trkpt lat="41.4941783" lon="0.7543883"><ele>330.0</ele><time>2026-04-19T06:04:02.963Z</time></trkpt><trkpt lat="41.4940683" lon="0.754165"><ele>330.0</ele><time>2026-04-19T06:04:03.962Z</time></trkpt><trkpt lat="41.493945" lon="0.7539367"><ele>330.0</ele><time>2026-04-19T06:04:04.962Z</time></trkpt><trkpt lat="41.4938167" lon="0.7537133"><ele>331.0</ele><time>2026-04-19T06:04:05.963Z</time></trkpt><trkpt lat="41.4936917" lon="0.7535017"><ele>332.0</ele><time>2026-04-19T06:04:06.963Z</time></trkpt><trkpt lat="41.493575" lon="0.7532767"><ele>333.0</ele><time>2026-04-19T06:04:07.962Z</time></trkpt><trkpt lat="41.493465" lon="0.75305"><ele>333.0</ele><time>2026-04-19T06:04:08.962Z</time></trkpt><trkpt lat="41.49336" lon="0.7528167"><ele>333.0</ele><time>2026-04-19T06:04:09.962Z</time></trkpt><trkpt lat="41.4932683" lon="0.7525783"><ele>333.0</ele><time>2026-04-19T06:04:10.962Z</time></trkpt><trkpt lat="41.493175" lon="0.75234"><ele>331.3333333333333</ele><time>2026-04-19T06:04:11.963Z</time></trkpt><trkpt lat="41.4930967" lon="0.7520983"><ele>329.66666666666663</ele><time>2026-04-19T06:04:12.963Z</time></trkpt><trkpt lat="41.493025" lon="0.7518467"><ele>328.0</ele><time>2026-04-19T06:04:13.962Z</time></trkpt><trkpt lat="41.4929533" lon="0.751595"><ele>328.66666666666663</ele><time>2026-04-19T06:04:14.962Z</time></trkpt><trkpt lat="41.4928833" lon="0.7513467"><ele>329.3333333333333</ele><time>2026-04-19T06:04:15.963Z</time></trkpt><trkpt lat="41.4928067" lon="0.75111"><ele>330.0</ele><time>2026-04-19T06:04:16.963Z</time></trkpt><trkpt lat="41.492735" lon="0.7508717"><ele>331.0</ele><time>2026-04-19T06:04:17.962Z</time></trkpt><trkpt lat="41.4926533" lon="0.7506417"><ele>332.0</ele><time>2026-04-19T06:04:18.962Z</time></trkpt><trkpt lat="41.4925533" lon="0.750425"><ele>333.0</ele><time>2026-04-19T06:04:19.963Z</time></trkpt><trkpt lat="41.4924433" lon="0.7502133"><ele>334.6666666666667</ele><time>2026-04-19T06:04:20.963Z</time></trkpt><trkpt lat="41.4923183" lon="0.7500183"><ele>336.33333333333337</ele><time>2026-04-19T06:04:21.963Z</time></trkpt><trkpt lat="41.4921867" lon="0.7498383"><ele>338.0</ele><time>2026-04-19T06:04:22.963Z</time></trkpt><trkpt lat="41.4920383" lon="0.7496833"><ele>338.33333333333337</ele><time>2026-04-19T06:04:23.963Z</time></trkpt><trkpt lat="41.491895" lon="0.749535"><ele>338.6666666666667</ele><time>2026-04-19T06:04:24.964Z</time></trkpt><trkpt lat="41.491745" lon="0.749385"><ele>339.0</ele><time>2026-04-19T06:04:25.963Z</time></trkpt><trkpt lat="41.4915917" lon="0.7492367"><ele>339.6666666666667</ele><time>2026-04-19T06:04:26.963Z</time></trkpt><trkpt lat="41.4914417" lon="0.7490917"><ele>340.33333333333337</ele><time>2026-04-19T06:04:27.964Z</time></trkpt><trkpt lat="41.4913017" lon="0.7489467"><ele>341.0</ele><time>2026-04-19T06:04:28.964Z</time></trkpt><trkpt lat="41.49116" lon="0.7488067"><ele>341.0</ele><time>2026-04-19T06:04:29.964Z</time></trkpt><trkpt lat="41.4910183" lon="0.7486633"><ele>341.0</ele><time>2026-04-19T06:04:30.964Z</time></trkpt><trkpt lat="41.4908817" lon="0.74852"><ele>341.0</ele><time>2026-04-19T06:04:31.964Z</time></trkpt><trkpt lat="41.49074" lon="0.7483767"><ele>341.6666666666667</ele><time>2026-04-19T06:04:32.964Z</time></trkpt><trkpt lat="41.4906" lon="0.74824"><ele>342.3333333333333</ele><time>2026-04-19T06:04:33.964Z</time></trkpt><trkpt lat="41.4904667" lon="0.7480983"><ele>343.0</ele><time>2026-04-19T06:04:34.963Z</time></trkpt><trkpt lat="41.490335" lon="0.747955"><ele>343.3333333333333</ele><time>2026-04-19T06:04:35.964Z</time></trkpt><trkpt lat="41.4901933" lon="0.747815"><ele>343.6666666666667</ele><time>2026-04-19T06:04:36.964Z</time></trkpt><trkpt lat="41.4900583" lon="0.74767"><ele>344.0</ele><time>2026-04-19T06:04:37.964Z</time></trkpt><trkpt lat="41.489935" lon="0.747515"><ele>345.33333333333337</ele><time>2026-04-19T06:04:38.963Z</time></trkpt><trkpt lat="41.4898217" lon="0.74734"><ele>346.6666666666667</ele><time>2026-04-19T06:04:39.964Z</time></trkpt><trkpt lat="41.48972" lon="0.7471567"><ele>348.0</ele><time>2026-04-19T06:04:40.964Z</time></trkpt><trkpt lat="41.4896317" lon="0.74696"><ele>349.3333333333333</ele><time>2026-04-19T06:04:41.963Z</time></trkpt><trkpt lat="41.4895433" lon="0.7467683"><ele>350.66666666666663</ele><time>2026-04-19T06:04:42.963Z</time></trkpt><trkpt lat="41.48946" lon="0.746575"><ele>352.0</ele><time>2026-04-19T06:04:43.964Z</time></trkpt><trkpt lat="41.4893683" lon="0.74639"><ele>352.0</ele><time>2026-04-19T06:04:44.964Z</time></trkpt><trkpt lat="41.489265" lon="0.7462133"><ele>352.0</ele><time>2026-04-19T06:04:45.964Z</time></trkpt><trkpt lat="41.4891533" lon="0.7460433"><ele>352.0</ele><time>2026-04-19T06:04:46.964Z</time></trkpt><trkpt lat="41.4890333" lon="0.7458867"><ele>354.3333333333333</ele><time>2026-04-19T06:04:47.963Z</time></trkpt><trkpt lat="41.4889083" lon="0.745755"><ele>356.6666666666667</ele><time>2026-04-19T06:04:48.963Z</time></trkpt><trkpt lat="41.4887733" lon="0.7456267"><ele>359.0</ele><time>2026-04-19T06:04:49.964Z</time></trkpt><trkpt lat="41.4886383" lon="0.7455183"><ele>359.0</ele><time>2026-04-19T06:04:50.963Z</time></trkpt><trkpt lat="41.48849" lon="0.74541"><ele>359.0</ele><time>2026-04-19T06:04:51.963Z</time></trkpt><trkpt lat="41.488335" lon="0.745315"><ele>359.0</ele><time>2026-04-19T06:04:52.964Z</time></trkpt><trkpt lat="41.4881833" lon="0.7452267"><ele>361.6666666666667</ele><time>2026-04-19T06:04:53.964Z</time></trkpt><trkpt lat="41.4880383" lon="0.74513"><ele>364.3333333333333</ele><time>2026-04-19T06:04:54.964Z</time></trkpt><trkpt lat="41.4878933" lon="0.7450283"><ele>367.0</ele><time>2026-04-19T06:04:55.964Z</time></trkpt><trkpt lat="41.487755" lon="0.7449117"><ele>367.0</ele><time>2026-04-19T06:04:56.964Z</time></trkpt><trkpt lat="41.4876283" lon="0.744775"><ele>367.0</ele><time>2026-04-19T06:04:57.963Z</time></trkpt><trkpt lat="41.487515" lon="0.7446267"><ele>367.0</ele><time>2026-04-19T06:04:58.963Z</time></trkpt><trkpt lat="41.4874133" lon="0.7444767"><ele>368.3333333333333</ele><time>2026-04-19T06:04:59.963Z</time></trkpt><trkpt lat="41.4873017" lon="0.7443217"><ele>369.6666666666667</ele><time>2026-04-19T06:05:00.963Z</time></trkpt><trkpt lat="41.4871817" lon="0.74417"><ele>371.0</ele><time>2026-04-19T06:05:01.964Z</time></trkpt><trkpt lat="41.4870633" lon="0.7440183"><ele>371.0</ele><time>2026-04-19T06:05:02.964Z</time></trkpt><trkpt lat="41.48695" lon="0.7438817"><ele>371.0</ele><time>2026-04-19T06:05:03.964Z</time></trkpt><trkpt lat="41.4868317" lon="0.743765"><ele>371.0</ele><time>2026-04-19T06:05:04.963Z</time></trkpt><trkpt lat="41.486715" lon="0.7436683"><ele>371.0</ele><time>2026-04-19T06:05:05.964Z</time></trkpt><trkpt lat="41.4865833" lon="0.7435717"><ele>372.25</ele><time>2026-04-19T06:05:06.963Z</time></trkpt><trkpt lat="41.4864583" lon="0.7434867"><ele>373.5</ele><time>2026-04-19T06:05:07.963Z</time></trkpt><trkpt lat="41.4863167" lon="0.74342"><ele>374.75</ele><time>2026-04-19T06:05:08.964Z</time></trkpt><trkpt lat="41.4861667" lon="0.7433617"><ele>376.0</ele><time>2026-04-19T06:05:09.963Z</time></trkpt><trkpt lat="41.486015" lon="0.743315"><ele>377.3333333333333</ele><time>2026-04-19T06:05:10.964Z</time></trkpt><trkpt lat="41.4858567" lon="0.743275"><ele>378.6666666666667</ele><time>2026-04-19T06:05:11.964Z</time></trkpt><trkpt lat="41.4856867" lon="0.7432267"><ele>380.0</ele><time>2026-04-19T06:05:12.964Z</time></trkpt><trkpt lat="41.48552" lon="0.74318"><ele>380.6666666666667</ele><time>2026-04-19T06:05:13.963Z</time></trkpt><trkpt lat="41.48536" lon="0.7431367"><ele>381.3333333333333</ele><time>2026-04-19T06:05:14.964Z</time></trkpt><trkpt lat="41.48519" lon="0.743095"><ele>382.0</ele><time>2026-04-19T06:05:15.963Z</time></trkpt><trkpt lat="41.4850217" lon="0.7430483"><ele>382.0</ele><time>2026-04-19T06:05:16.964Z</time></trkpt><trkpt lat="41.48485" lon="0.7430017"><ele>382.0</ele><time>2026-04-19T06:05:17.964Z</time></trkpt><trkpt lat="41.4846733" lon="0.7429567"><ele>382.0</ele><time>2026-04-19T06:05:18.964Z</time></trkpt><trkpt lat="41.4844933" lon="0.7429133"><ele>382.66666666666663</ele><time>2026-04-19T06:05:19.963Z</time></trkpt><trkpt lat="41.484315" lon="0.7428633"><ele>383.3333333333333</ele><time>2026-04-19T06:05:20.963Z</time></trkpt><trkpt lat="41.48414" lon="0.7428117"><ele>384.0</ele><time>2026-04-19T06:05:21.964Z</time></trkpt><trkpt lat="41.483955" lon="0.742745"><ele>383.3333333333333</ele><time>2026-04-19T06:05:22.964Z</time></trkpt><trkpt lat="41.483775" lon="0.7426583"><ele>382.66666666666663</ele><time>2026-04-19T06:05:23.964Z</time></trkpt><trkpt lat="41.4835917" lon="0.7425533"><ele>382.0</ele><time>2026-04-19T06:05:24.964Z</time></trkpt><trkpt lat="41.483425" lon="0.7424083"><ele>381.0</ele><time>2026-04-19T06:05:25.963Z</time></trkpt><trkpt lat="41.48326" lon="0.7422567"><ele>380.0</ele><time>2026-04-19T06:05:26.963Z</time></trkpt><trkpt lat="41.4831017" lon="0.7420817"><ele>379.0</ele><time>2026-04-19T06:05:27.964Z</time></trkpt><trkpt lat="41.4829583" lon="0.7418883"><ele>375.0</ele><time>2026-04-19T06:05:28.963Z</time></trkpt><trkpt lat="41.4828367" lon="0.7416817"><ele>371.0</ele><time>2026-04-19T06:05:29.963Z</time></trkpt><trkpt lat="41.482725" lon="0.7414467"><ele>367.0</ele><time>2026-04-19T06:05:30.964Z</time></trkpt><trkpt lat="41.4826183" lon="0.741205"><ele>366.3333333333333</ele><time>2026-04-19T06:05:31.964Z</time></trkpt><trkpt lat="41.4825233" lon="0.740945"><ele>365.6666666666667</ele><time>2026-04-19T06:05:32.964Z</time></trkpt><trkpt lat="41.48243" lon="0.7406883"><ele>365.0</ele><time>2026-04-19T06:05:33.964Z</time></trkpt><trkpt lat="41.4823367" lon="0.740435"><ele>365.33333333333337</ele><time>2026-04-19T06:05:34.963Z</time></trkpt><trkpt lat="41.48225" lon="0.7401833"><ele>365.6666666666667</ele><time>2026-04-19T06:05:35.964Z</time></trkpt><trkpt lat="41.48216" lon="0.7399217"><ele>366.0</ele><time>2026-04-19T06:05:36.964Z</time></trkpt><trkpt lat="41.4820767" lon="0.7396567"><ele>361.6666666666667</ele><time>2026-04-19T06:05:37.963Z</time></trkpt><trkpt lat="41.4819783" lon="0.7394"><ele>357.33333333333337</ele><time>2026-04-19T06:05:38.964Z</time></trkpt><trkpt lat="41.481885" lon="0.7391417"><ele>353.0</ele><time>2026-04-19T06:05:39.963Z</time></trkpt><trkpt lat="41.48179" lon="0.73888"><ele>352.33333333333337</ele><time>2026-04-19T06:05:40.964Z</time></trkpt><trkpt lat="41.4817033" lon="0.73862"><ele>351.6666666666667</ele><time>2026-04-19T06:05:41.963Z</time></trkpt><trkpt lat="41.481615" lon="0.738355"><ele>351.0</ele><time>2026-04-19T06:05:42.963Z</time></trkpt><trkpt lat="41.48152" lon="0.738085"><ele>351.0</ele><time>2026-04-19T06:05:43.964Z</time></trkpt><trkpt lat="41.4814267" lon="0.7378283"><ele>351.0</ele><time>2026-04-19T06:05:44.964Z</time></trkpt><trkpt lat="41.4813367" lon="0.73756"><ele>351.0</ele><time>2026-04-19T06:05:45.964Z</time></trkpt><trkpt lat="41.481245" lon="0.7372933"><ele>347.6666666666667</ele><time>2026-04-19T06:05:46.963Z</time></trkpt><trkpt lat="41.4811567" lon="0.737035"><ele>344.33333333333337</ele><time>2026-04-19T06:05:47.964Z</time></trkpt><trkpt lat="41.4810733" lon="0.7367767"><ele>341.0</ele><time>2026-04-19T06:05:48.963Z</time></trkpt><trkpt lat="41.480985" lon="0.7365283"><ele>340.6666666666667</ele><time>2026-04-19T06:05:49.963Z</time></trkpt><trkpt lat="41.4808983" lon="0.7362817"><ele>340.3333333333333</ele><time>2026-04-19T06:05:50.964Z</time></trkpt><trkpt lat="41.4808117" lon="0.736025"><ele>340.0</ele><time>2026-04-19T06:05:51.964Z</time></trkpt><trkpt lat="41.480715" lon="0.7357917"><ele>339.66666666666663</ele><time>2026-04-19T06:05:52.963Z</time></trkpt><trkpt lat="41.4806033" lon="0.7355633"><ele>339.3333333333333</ele><time>2026-04-19T06:05:53.963Z</time></trkpt><trkpt lat="41.4804767" lon="0.73535"><ele>339.0</ele><time>2026-04-19T06:05:54.963Z</time></trkpt><trkpt lat="41.48033" lon="0.7351567"><ele>336.3333333333333</ele><time>2026-04-19T06:05:55.963Z</time></trkpt><trkpt lat="41.480165" lon="0.7349817"><ele>333.66666666666663</ele><time>2026-04-19T06:05:56.964Z</time></trkpt><trkpt lat="41.4799883" lon="0.7348433"><ele>331.0</ele><time>2026-04-19T06:05:57.964Z</time></trkpt><trkpt lat="41.4797933" lon="0.7347383"><ele>330.66666666666663</ele><time>2026-04-19T06:05:58.964Z</time></trkpt><trkpt lat="41.4795933" lon="0.7346717"><ele>330.3333333333333</ele><time>2026-04-19T06:05:59.963Z</time></trkpt><trkpt lat="41.479395" lon="0.7346333"><ele>330.0</ele><time>2026-04-19T06:06:00.963Z</time></trkpt><trkpt lat="41.4791833" lon="0.734625"><ele>330.0</ele><time>2026-04-19T06:06:01.963Z</time></trkpt><trkpt lat="41.4789817" lon="0.7346433"><ele>330.0</ele><time>2026-04-19T06:06:02.964Z</time></trkpt><trkpt lat="41.4787917" lon="0.7346767"><ele>330.0</ele><time>2026-04-19T06:06:03.964Z</time></trkpt><trkpt lat="41.4785983" lon="0.7347467"><ele>333.6666666666667</ele><time>2026-04-19T06:06:04.964Z</time></trkpt><trkpt lat="41.4784167" lon="0.73486"><ele>337.33333333333337</ele><time>2026-04-19T06:06:05.964Z</time></trkpt><trkpt lat="41.4782533" lon="0.7350017"><ele>341.0</ele><time>2026-04-19T06:06:06.964Z</time></trkpt><trkpt lat="41.4780933" lon="0.7351617"><ele>341.0</ele><time>2026-04-19T06:06:07.963Z</time></trkpt><trkpt lat="41.477955" lon="0.73534"><ele>341.0</ele><time>2026-04-19T06:06:08.964Z</time></trkpt><trkpt lat="41.4778217" lon="0.7355283"><ele>341.0</ele><time>2026-04-19T06:06:09.964Z</time></trkpt><trkpt lat="41.47769" lon="0.7357283"><ele>341.0</ele><time>2026-04-19T06:06:10.964Z</time></trkpt><trkpt lat="41.477575" lon="0.7359283"><ele>341.0</ele><time>2026-04-19T06:06:11.964Z</time></trkpt><trkpt lat="41.4774567" lon="0.7361233"><ele>341.0</ele><time>2026-04-19T06:06:12.964Z</time></trkpt><trkpt lat="41.47734" lon="0.73631"><ele>339.33333333333337</ele><time>2026-04-19T06:06:13.964Z</time></trkpt><trkpt lat="41.4772133" lon="0.7364883"><ele>337.6666666666667</ele><time>2026-04-19T06:06:14.964Z</time></trkpt><trkpt lat="41.4770833" lon="0.7366667"><ele>336.0</ele><time>2026-04-19T06:06:15.963Z</time></trkpt><trkpt lat="41.476955" lon="0.73684"><ele>338.6666666666667</ele><time>2026-04-19T06:06:16.963Z</time></trkpt><trkpt lat="41.4768183" lon="0.737"><ele>341.33333333333337</ele><time>2026-04-19T06:06:17.964Z</time></trkpt><trkpt lat="41.4766817" lon="0.7371583"><ele>344.0</ele><time>2026-04-19T06:06:18.963Z</time></trkpt><trkpt lat="41.4765333" lon="0.7373017"><ele>344.0</ele><time>2026-04-19T06:06:19.963Z</time></trkpt><trkpt lat="41.4763867" lon="0.7374433"><ele>344.0</ele><time>2026-04-19T06:06:20.963Z</time></trkpt><trkpt lat="41.4762367" lon="0.73757"><ele>344.0</ele><time>2026-04-19T06:06:21.964Z</time></trkpt><trkpt lat="41.4760867" lon="0.737695"><ele>343.6666666666667</ele><time>2026-04-19T06:06:22.964Z</time></trkpt><trkpt lat="41.47593" lon="0.7378133"><ele>343.3333333333333</ele><time>2026-04-19T06:06:23.963Z</time></trkpt><trkpt lat="41.475775" lon="0.7379217"><ele>343.0</ele><time>2026-04-19T06:06:24.963Z</time></trkpt><trkpt lat="41.4756233" lon="0.7380317"><ele>343.0</ele><time>2026-04-19T06:06:25.964Z</time></trkpt><trkpt lat="41.4754667" lon="0.7381283"><ele>343.0</ele><time>2026-04-19T06:06:26.964Z</time></trkpt><trkpt lat="41.4753133" lon="0.7382283"><ele>343.0</ele><time>2026-04-19T06:06:27.964Z</time></trkpt><trkpt lat="41.4751583" lon="0.73832"><ele>344.66666666666663</ele><time>2026-04-19T06:06:28.963Z</time></trkpt><trkpt lat="41.4750067" lon="0.7384267"><ele>346.3333333333333</ele><time>2026-04-19T06:06:29.963Z</time></trkpt><trkpt lat="41.4748633" lon="0.738545"><ele>348.0</ele><time>2026-04-19T06:06:30.964Z</time></trkpt><trkpt lat="41.4747233" lon="0.738675"><ele>350.6666666666667</ele><time>2026-04-19T06:06:31.963Z</time></trkpt><trkpt lat="41.4745883" lon="0.7388167"><ele>353.33333333333337</ele><time>2026-04-19T06:06:32.963Z</time></trkpt><trkpt lat="41.47446" lon="0.7389767"><ele>356.0</ele><time>2026-04-19T06:06:33.963Z</time></trkpt><trkpt lat="41.4743417" lon="0.7391367"><ele>356.0</ele><time>2026-04-19T06:06:34.964Z</time></trkpt><trkpt lat="41.4742267" lon="0.739305"><ele>356.0</ele><time>2026-04-19T06:06:35.963Z</time></trkpt><trkpt lat="41.474115" lon="0.7394717"><ele>356.0</ele><time>2026-04-19T06:06:36.963Z</time></trkpt><trkpt lat="41.474" lon="0.7396283"><ele>355.0</ele><time>2026-04-19T06:06:37.964Z</time></trkpt><trkpt lat="41.4738733" lon="0.73978"><ele>354.0</ele><time>2026-04-19T06:06:38.964Z</time></trkpt><trkpt lat="41.47374" lon="0.7399333"><ele>353.0</ele><time>2026-04-19T06:06:39.964Z</time></trkpt><trkpt lat="41.4736033" lon="0.7400683"><ele>354.6666666666667</ele><time>2026-04-19T06:06:40.963Z</time></trkpt><trkpt lat="41.4734633" lon="0.7401867"><ele>356.3333333333333</ele><time>2026-04-19T06:06:41.964Z</time></trkpt><trkpt lat="41.4733117" lon="0.7402967"><ele>358.0</ele><time>2026-04-19T06:06:42.963Z</time></trkpt><trkpt lat="41.4731683" lon="0.7404017"><ele>358.0</ele><time>2026-04-19T06:06:43.964Z</time></trkpt><trkpt lat="41.4730217" lon="0.74051"><ele>358.0</ele><time>2026-04-19T06:06:44.963Z</time></trkpt><trkpt lat="41.4728683" lon="0.7406117"><ele>358.0</ele><time>2026-04-19T06:06:45.963Z</time></trkpt><trkpt lat="41.47272" lon="0.7407167"><ele>359.66666666666663</ele><time>2026-04-19T06:06:46.964Z</time></trkpt><trkpt lat="41.4725783" lon="0.740815"><ele>361.3333333333333</ele><time>2026-04-19T06:06:47.964Z</time></trkpt><trkpt lat="41.472445" lon="0.74091"><ele>363.0</ele><time>2026-04-19T06:06:48.964Z</time></trkpt><trkpt lat="41.47231" lon="0.7410083"><ele>363.3333333333333</ele><time>2026-04-19T06:06:49.963Z</time></trkpt><trkpt lat="41.4721683" lon="0.7410983"><ele>363.66666666666663</ele><time>2026-04-19T06:06:50.963Z</time></trkpt><trkpt lat="41.472035" lon="0.7411933"><ele>364.0</ele><time>2026-04-19T06:06:51.963Z</time></trkpt><trkpt lat="41.47189" lon="0.741295"><ele>364.0</ele><time>2026-04-19T06:06:52.963Z</time></trkpt><trkpt lat="41.47175" lon="0.7414017"><ele>364.0</ele><time>2026-04-19T06:06:53.963Z</time></trkpt><trkpt lat="41.47161" lon="0.7415"><ele>364.0</ele><time>2026-04-19T06:06:54.963Z</time></trkpt><trkpt lat="41.47146" lon="0.7416017"><ele>364.0</ele><time>2026-04-19T06:06:55.963Z</time></trkpt><trkpt lat="41.4713083" lon="0.7417033"><ele>364.0</ele><time>2026-04-19T06:06:56.963Z</time></trkpt><trkpt lat="41.47116" lon="0.741805"><ele>364.0</ele><time>2026-04-19T06:06:57.964Z</time></trkpt><trkpt lat="41.4710117" lon="0.74191"><ele>365.66666666666663</ele><time>2026-04-19T06:06:58.963Z</time></trkpt><trkpt lat="41.470865" lon="0.7420083"><ele>367.3333333333333</ele><time>2026-04-19T06:06:59.963Z</time></trkpt><trkpt lat="41.4707133" lon="0.7421017"><ele>369.0</ele><time>2026-04-19T06:07:00.964Z</time></trkpt><trkpt lat="41.4705567" lon="0.74218"><ele>370.3333333333333</ele><time>2026-04-19T06:07:01.963Z</time></trkpt><trkpt lat="41.4703983" lon="0.74224"><ele>371.66666666666663</ele><time>2026-04-19T06:07:02.964Z</time></trkpt><trkpt lat="41.47023" lon="0.742275"><ele>373.0</ele><time>2026-04-19T06:07:03.964Z</time></trkpt><trkpt lat="41.470055" lon="0.7422917"><ele>373.0</ele><time>2026-04-19T06:07:04.963Z</time></trkpt><trkpt lat="41.46988" lon="0.7422783"><ele>373.0</ele><time>2026-04-19T06:07:05.964Z</time></trkpt><trkpt lat="41.4697233" lon="0.7422467"><ele>373.0</ele><time>2026-04-19T06:07:06.964Z</time></trkpt><trkpt lat="41.46956" lon="0.7421883"><ele>374.3333333333333</ele><time>2026-04-19T06:07:07.963Z</time></trkpt><trkpt lat="41.4694" lon="0.7421167"><ele>375.6666666666667</ele><time>2026-04-19T06:07:08.964Z</time></trkpt><trkpt lat="41.4692467" lon="0.742025"><ele>377.0</ele><time>2026-04-19T06:07:09.963Z</time></trkpt><trkpt lat="41.4691033" lon="0.74192"><ele>379.33333333333337</ele><time>2026-04-19T06:07:10.964Z</time></trkpt><trkpt lat="41.468955" lon="0.7418117"><ele>381.6666666666667</ele><time>2026-04-19T06:07:11.964Z</time></trkpt><trkpt lat="41.4688017" lon="0.7417033"><ele>384.0</ele><time>2026-04-19T06:07:12.964Z</time></trkpt><trkpt lat="41.4686467" lon="0.741615"><ele>385.33333333333337</ele><time>2026-04-19T06:07:13.963Z</time></trkpt><trkpt lat="41.46849" lon="0.741535"><ele>386.6666666666667</ele><time>2026-04-19T06:07:14.964Z</time></trkpt><trkpt lat="41.46833" lon="0.7414767"><ele>388.0</ele><time>2026-04-19T06:07:15.963Z</time></trkpt><trkpt lat="41.4681767" lon="0.7414317"><ele>388.0</ele><time>2026-04-19T06:07:16.964Z</time></trkpt><trkpt lat="41.4680283" lon="0.74141"><ele>388.0</ele><time>2026-04-19T06:07:17.963Z</time></trkpt><trkpt lat="41.467875" lon="0.7413983"><ele>388.0</ele><time>2026-04-19T06:07:18.964Z</time></trkpt><trkpt lat="41.46772" lon="0.74142"><ele>390.0</ele><time>2026-04-19T06:07:19.964Z</time></trkpt><trkpt lat="41.4675683" lon="0.7414533"><ele>392.0</ele><time>2026-04-19T06:07:20.964Z</time></trkpt><trkpt lat="41.46741" lon="0.7415133"><ele>394.0</ele><time>2026-04-19T06:07:21.963Z</time></trkpt><trkpt lat="41.4672683" lon="0.7415833"><ele>394.0</ele><time>2026-04-19T06:07:22.963Z</time></trkpt><trkpt lat="41.4671333" lon="0.7416717"><ele>394.0</ele><time>2026-04-19T06:07:23.964Z</time></trkpt><trkpt lat="41.4669967" lon="0.741775"><ele>394.0</ele><time>2026-04-19T06:07:24.964Z</time></trkpt><trkpt lat="41.466865" lon="0.7419083"><ele>396.6666666666667</ele><time>2026-04-19T06:07:25.963Z</time></trkpt><trkpt lat="41.46673" lon="0.7420533"><ele>399.33333333333337</ele><time>2026-04-19T06:07:26.964Z</time></trkpt><trkpt lat="41.466615" lon="0.74222"><ele>402.0</ele><time>2026-04-19T06:07:27.964Z</time></trkpt><trkpt lat="41.4665233" lon="0.7424133"><ele>402.0</ele><time>2026-04-19T06:07:28.964Z</time></trkpt><trkpt lat="41.46644" lon="0.7426067"><ele>402.0</ele><time>2026-04-19T06:07:29.964Z</time></trkpt><trkpt lat="41.4663633" lon="0.742805"><ele>402.0</ele><time>2026-04-19T06:07:30.964Z</time></trkpt><trkpt lat="41.466295" lon="0.7430117"><ele>402.0</ele><time>2026-04-19T06:07:31.963Z</time></trkpt><trkpt lat="41.46623" lon="0.7432317"><ele>402.0</ele><time>2026-04-19T06:07:32.963Z</time></trkpt><trkpt lat="41.466165" lon="0.743445"><ele>402.0</ele><time>2026-04-19T06:07:33.964Z</time></trkpt><trkpt lat="41.4660883" lon="0.7436467"><ele>401.66666666666663</ele><time>2026-04-19T06:07:34.963Z</time></trkpt><trkpt lat="41.4659933" lon="0.7438467"><ele>401.3333333333333</ele><time>2026-04-19T06:07:35.963Z</time></trkpt><trkpt lat="41.4658767" lon="0.7440417"><ele>401.0</ele><time>2026-04-19T06:07:36.964Z</time></trkpt><trkpt lat="41.4657517" lon="0.7442233"><ele>401.0</ele><time>2026-04-19T06:07:37.963Z</time></trkpt><trkpt lat="41.4656183" lon="0.7443867"><ele>401.0</ele><time>2026-04-19T06:07:38.964Z</time></trkpt><trkpt lat="41.46547" lon="0.7445367"><ele>401.0</ele><time>2026-04-19T06:07:39.963Z</time></trkpt><trkpt lat="41.4653117" lon="0.7446717"><ele>400.66666666666663</ele><time>2026-04-19T06:07:40.963Z</time></trkpt><trkpt lat="41.46514" lon="0.7447767"><ele>400.33333333333337</ele><time>2026-04-19T06:07:41.963Z</time></trkpt><trkpt lat="41.4649417" lon="0.7448583"><ele>400.0</ele><time>2026-04-19T06:07:42.963Z</time></trkpt><trkpt lat="41.4647367" lon="0.744905"><ele>397.33333333333337</ele><time>2026-04-19T06:07:43.964Z</time></trkpt><trkpt lat="41.4645283" lon="0.744925"><ele>394.66666666666663</ele><time>2026-04-19T06:07:44.963Z</time></trkpt><trkpt lat="41.4643217" lon="0.7448967"><ele>392.0</ele><time>2026-04-19T06:07:45.964Z</time></trkpt><trkpt lat="41.4641183" lon="0.744845"><ele>392.0</ele><time>2026-04-19T06:07:46.963Z</time></trkpt><trkpt lat="41.4639483" lon="0.744775"><ele>392.0</ele><time>2026-04-19T06:07:47.964Z</time></trkpt><trkpt lat="41.463785" lon="0.7446883"><ele>392.0</ele><time>2026-04-19T06:07:48.964Z</time></trkpt><trkpt lat="41.4636267" lon="0.744595"><ele>389.66666666666663</ele><time>2026-04-19T06:07:49.964Z</time></trkpt><trkpt lat="41.46347" lon="0.7444967"><ele>387.33333333333337</ele><time>2026-04-19T06:07:50.963Z</time></trkpt><trkpt lat="41.4632967" lon="0.7443983"><ele>385.0</ele><time>2026-04-19T06:07:51.964Z</time></trkpt><trkpt lat="41.4631133" lon="0.74431"><ele>381.0</ele><time>2026-04-19T06:07:52.963Z</time></trkpt><trkpt lat="41.4629183" lon="0.7442267"><ele>377.0</ele><time>2026-04-19T06:07:53.963Z</time></trkpt><trkpt lat="41.46273" lon="0.7441817"><ele>373.0</ele><time>2026-04-19T06:07:54.964Z</time></trkpt><trkpt lat="41.462535" lon="0.7441733"><ele>373.0</ele><time>2026-04-19T06:07:55.963Z</time></trkpt><trkpt lat="41.4623367" lon="0.7441933"><ele>373.0</ele><time>2026-04-19T06:07:56.964Z</time></trkpt><trkpt lat="41.462145" lon="0.74424"><ele>373.0</ele><time>2026-04-19T06:07:57.964Z</time></trkpt><trkpt lat="41.4619567" lon="0.7443267"><ele>375.0</ele><time>2026-04-19T06:07:58.963Z</time></trkpt><trkpt lat="41.4617733" lon="0.7444367"><ele>377.0</ele><time>2026-04-19T06:07:59.964Z</time></trkpt><trkpt lat="41.461605" lon="0.74458"><ele>379.0</ele><time>2026-04-19T06:08:00.963Z</time></trkpt><trkpt lat="41.4614467" lon="0.744745"><ele>379.0</ele><time>2026-04-19T06:08:01.963Z</time></trkpt><trkpt lat="41.461305" lon="0.7449233"><ele>379.0</ele><time>2026-04-19T06:08:02.964Z</time></trkpt><trkpt lat="41.4611633" lon="0.7451033"><ele>379.0</ele><time>2026-04-19T06:08:03.963Z</time></trkpt><trkpt lat="41.46103" lon="0.74528"><ele>375.0</ele><time>2026-04-19T06:08:04.963Z</time></trkpt><trkpt lat="41.460895" lon="0.7454467"><ele>371.0</ele><time>2026-04-19T06:08:05.964Z</time></trkpt><trkpt lat="41.460745" lon="0.7455917"><ele>367.0</ele><time>2026-04-19T06:08:06.963Z</time></trkpt><trkpt lat="41.4605783" lon="0.745715"><ele>362.66666666666663</ele><time>2026-04-19T06:08:07.963Z</time></trkpt><trkpt lat="41.4604" lon="0.7458233"><ele>358.3333333333333</ele><time>2026-04-19T06:08:08.964Z</time></trkpt><trkpt lat="41.46022" lon="0.7459"><ele>354.0</ele><time>2026-04-19T06:08:09.963Z</time></trkpt><trkpt lat="41.460035" lon="0.745955"><ele>354.0</ele><time>2026-04-19T06:08:10.964Z</time></trkpt><trkpt lat="41.45984" lon="0.7459867"><ele>354.0</ele><time>2026-04-19T06:08:11.964Z</time></trkpt><trkpt lat="41.4596467" lon="0.7459867"><ele>354.0</ele><time>2026-04-19T06:08:12.963Z</time></trkpt><trkpt lat="41.4594517" lon="0.74595"><ele>352.6666666666667</ele><time>2026-04-19T06:08:13.963Z</time></trkpt><trkpt lat="41.4592633" lon="0.745885"><ele>351.33333333333337</ele><time>2026-04-19T06:08:14.963Z</time></trkpt><trkpt lat="41.4590833" lon="0.7457983"><ele>350.0</ele><time>2026-04-19T06:08:15.963Z</time></trkpt><trkpt lat="41.4589083" lon="0.7456817"><ele>352.33333333333337</ele><time>2026-04-19T06:08:16.964Z</time></trkpt><trkpt lat="41.4587533" lon="0.745545"><ele>354.6666666666667</ele><time>2026-04-19T06:08:17.963Z</time></trkpt><trkpt lat="41.4586017" lon="0.7453933"><ele>357.0</ele><time>2026-04-19T06:08:18.963Z</time></trkpt><trkpt lat="41.4584633" lon="0.74523"><ele>354.0</ele><time>2026-04-19T06:08:19.963Z</time></trkpt><trkpt lat="41.458335" lon="0.74507"><ele>351.0</ele><time>2026-04-19T06:08:20.964Z</time></trkpt><trkpt lat="41.4581983" lon="0.7448967"><ele>348.0</ele><time>2026-04-19T06:08:21.964Z</time></trkpt><trkpt lat="41.4580533" lon="0.7447217"><ele>349.6666666666667</ele><time>2026-04-19T06:08:22.964Z</time></trkpt><trkpt lat="41.4579083" lon="0.7445383"><ele>351.33333333333337</ele><time>2026-04-19T06:08:23.964Z</time></trkpt><trkpt lat="41.4577667" lon="0.74435"><ele>353.0</ele><time>2026-04-19T06:08:24.964Z</time></trkpt><trkpt lat="41.4576283" lon="0.7441667"><ele>349.33333333333337</ele><time>2026-04-19T06:08:25.963Z</time></trkpt><trkpt lat="41.4574883" lon="0.743975"><ele>345.6666666666667</ele><time>2026-04-19T06:08:26.963Z</time></trkpt><trkpt lat="41.45735" lon="0.743785"><ele>342.0</ele><time>2026-04-19T06:08:27.963Z</time></trkpt><trkpt lat="41.457215" lon="0.7435933"><ele>340.0</ele><time>2026-04-19T06:08:28.964Z</time></trkpt><trkpt lat="41.45708" lon="0.7434117"><ele>338.0</ele><time>2026-04-19T06:08:29.963Z</time></trkpt><trkpt lat="41.456945" lon="0.7432283"><ele>336.0</ele><time>2026-04-19T06:08:30.964Z</time></trkpt><trkpt lat="41.4568183" lon="0.7430483"><ele>336.0</ele><time>2026-04-19T06:08:31.964Z</time></trkpt><trkpt lat="41.4566933" lon="0.7428633"><ele>336.0</ele><time>2026-04-19T06:08:32.964Z</time></trkpt><trkpt lat="41.45656" lon="0.742675"><ele>336.0</ele><time>2026-04-19T06:08:33.964Z</time></trkpt><trkpt lat="41.45643" lon="0.742485"><ele>337.3333333333333</ele><time>2026-04-19T06:08:34.963Z</time></trkpt><trkpt lat="41.4562983" lon="0.7422933"><ele>338.66666666666663</ele><time>2026-04-19T06:08:35.963Z</time></trkpt><trkpt lat="41.45616" lon="0.7421067"><ele>340.0</ele><time>2026-04-19T06:08:36.964Z</time></trkpt><trkpt lat="41.4560283" lon="0.7419167"><ele>337.3333333333333</ele><time>2026-04-19T06:08:37.964Z</time></trkpt><trkpt lat="41.4558983" lon="0.741735"><ele>334.6666666666667</ele><time>2026-04-19T06:08:38.964Z</time></trkpt><trkpt lat="41.4557633" lon="0.7415533"><ele>332.0</ele><time>2026-04-19T06:08:39.963Z</time></trkpt><trkpt lat="41.45563" lon="0.7413717"><ele>332.0</ele><time>2026-04-19T06:08:40.963Z</time></trkpt><trkpt lat="41.4555" lon="0.7411967"><ele>332.0</ele><time>2026-04-19T06:08:41.963Z</time></trkpt><trkpt lat="41.455365" lon="0.7410283"><ele>332.0</ele><time>2026-04-19T06:08:42.963Z</time></trkpt><trkpt lat="41.4552433" lon="0.7408817"><ele>330.5</ele><time>2026-04-19T06:08:43.963Z</time></trkpt><trkpt lat="41.4551267" lon="0.74075"><ele>329.0</ele><time>2026-04-19T06:08:44.964Z</time></trkpt><trkpt lat="41.45502" lon="0.740635"><ele>327.5</ele><time>2026-04-19T06:08:45.964Z</time></trkpt><trkpt lat="41.4549017" lon="0.740545"><ele>326.0</ele><time>2026-04-19T06:08:46.964Z</time></trkpt><trkpt lat="41.4547767" lon="0.7404933"><ele>326.0</ele><time>2026-04-19T06:08:47.963Z</time></trkpt><trkpt lat="41.454635" lon="0.740495"><ele>326.0</ele><time>2026-04-19T06:08:48.964Z</time></trkpt><trkpt lat="41.454515" lon="0.7405483"><ele>326.0</ele><time>2026-04-19T06:08:49.963Z</time></trkpt><trkpt lat="41.4544083" lon="0.740645"><ele>326.0</ele><time>2026-04-19T06:08:50.963Z</time></trkpt><trkpt lat="41.4543333" lon="0.7407867"><ele>324.0</ele><time>2026-04-19T06:08:51.964Z</time></trkpt><trkpt lat="41.4542717" lon="0.7409633"><ele>322.0</ele><time>2026-04-19T06:08:52.963Z</time></trkpt><trkpt lat="41.4542267" lon="0.74116"><ele>320.0</ele><time>2026-04-19T06:08:53.964Z</time></trkpt><trkpt lat="41.45419" lon="0.74137"><ele>320.0</ele><time>2026-04-19T06:08:54.964Z</time></trkpt><trkpt lat="41.4541583" lon="0.74157"><ele>320.0</ele><time>2026-04-19T06:08:55.964Z</time></trkpt><trkpt lat="41.4541217" lon="0.741765"><ele>320.0</ele><time>2026-04-19T06:08:56.964Z</time></trkpt><trkpt lat="41.4540867" lon="0.7419567"><ele>320.75</ele><time>2026-04-19T06:08:57.964Z</time></trkpt><trkpt lat="41.4540567" lon="0.7421517"><ele>321.5</ele><time>2026-04-19T06:08:58.964Z</time></trkpt><trkpt lat="41.4540017" lon="0.7423283"><ele>322.25</ele><time>2026-04-19T06:08:59.964Z</time></trkpt><trkpt lat="41.453915" lon="0.7424783"><ele>323.0</ele><time>2026-04-19T06:09:00.963Z</time></trkpt><trkpt lat="41.4538017" lon="0.742585"><ele>322.0</ele><time>2026-04-19T06:09:01.963Z</time></trkpt><trkpt lat="41.4536683" lon="0.7426633"><ele>321.0</ele><time>2026-04-19T06:09:02.963Z</time></trkpt><trkpt lat="41.4535417" lon="0.7427067"><ele>320.0</ele><time>2026-04-19T06:09:03.964Z</time></trkpt><trkpt lat="41.4534017" lon="0.742745"><ele>319.0</ele><time>2026-04-19T06:09:04.963Z</time></trkpt><trkpt lat="41.4532767" lon="0.7428133"><ele>319.0</ele><time>2026-04-19T06:09:05.964Z</time></trkpt><trkpt lat="41.45317" lon="0.7429233"><ele>319.0</ele><time>2026-04-19T06:09:06.964Z</time></trkpt><trkpt lat="41.453085" lon="0.7430717"><ele>319.0</ele><time>2026-04-19T06:09:07.963Z</time></trkpt><trkpt lat="41.4530133" lon="0.7432533"><ele>319.0</ele><time>2026-04-19T06:09:08.964Z</time></trkpt><trkpt lat="41.4529567" lon="0.7434483"><ele>315.66666666666663</ele><time>2026-04-19T06:09:09.964Z</time></trkpt><trkpt lat="41.4528983" lon="0.743655"><ele>312.3333333333333</ele><time>2026-04-19T06:09:10.963Z</time></trkpt><trkpt lat="41.4528417" lon="0.7438667"><ele>309.0</ele><time>2026-04-19T06:09:11.963Z</time></trkpt><trkpt lat="41.4527833" lon="0.7440767"><ele>309.0</ele><time>2026-04-19T06:09:12.964Z</time></trkpt><trkpt lat="41.4527267" lon="0.7442917"><ele>309.0</ele><time>2026-04-19T06:09:13.964Z</time></trkpt><trkpt lat="41.4526683" lon="0.7445033"><ele>309.0</ele><time>2026-04-19T06:09:14.964Z</time></trkpt><trkpt lat="41.4526117" lon="0.7447217"><ele>309.6666666666667</ele><time>2026-04-19T06:09:15.963Z</time></trkpt><trkpt lat="41.45256" lon="0.7449333"><ele>310.33333333333337</ele><time>2026-04-19T06:09:16.964Z</time></trkpt><trkpt lat="41.4524983" lon="0.7451483"><ele>311.0</ele><time>2026-04-19T06:09:17.963Z</time></trkpt><trkpt lat="41.4524433" lon="0.7453717"><ele>313.0</ele><time>2026-04-19T06:09:18.963Z</time></trkpt><trkpt lat="41.452385" lon="0.74559"><ele>315.0</ele><time>2026-04-19T06:09:19.963Z</time></trkpt><trkpt lat="41.4523217" lon="0.7458017"><ele>317.0</ele><time>2026-04-19T06:09:20.964Z</time></trkpt><trkpt lat="41.4522467" lon="0.7459983"><ele>319.33333333333337</ele><time>2026-04-19T06:09:21.963Z</time></trkpt><trkpt lat="41.4521483" lon="0.7461567"><ele>321.6666666666667</ele><time>2026-04-19T06:09:22.964Z</time></trkpt><trkpt lat="41.452035" lon="0.7462967"><ele>324.0</ele><time>2026-04-19T06:09:23.964Z</time></trkpt><trkpt lat="41.45191" lon="0.7464067"><ele>317.6666666666667</ele><time>2026-04-19T06:09:24.964Z</time></trkpt><trkpt lat="41.4517717" lon="0.74649"><ele>311.33333333333337</ele><time>2026-04-19T06:09:25.964Z</time></trkpt><trkpt lat="41.4516217" lon="0.7465367"><ele>305.0</ele><time>2026-04-19T06:09:26.963Z</time></trkpt><trkpt lat="41.4514733" lon="0.74653"><ele>305.0</ele><time>2026-04-19T06:09:27.963Z</time></trkpt><trkpt lat="41.4513333" lon="0.7464483"><ele>305.0</ele><time>2026-04-19T06:09:28.963Z</time></trkpt><trkpt lat="41.4512133" lon="0.7463317"><ele>305.0</ele><time>2026-04-19T06:09:29.963Z</time></trkpt><trkpt lat="41.45112" lon="0.7461783"><ele>305.0</ele><time>2026-04-19T06:09:30.964Z</time></trkpt><trkpt lat="41.4510633" lon="0.7459883"><ele>308.33333333333337</ele><time>2026-04-19T06:09:31.963Z</time></trkpt><trkpt lat="41.4510467" lon="0.745785"><ele>311.6666666666667</ele><time>2026-04-19T06:09:32.964Z</time></trkpt><trkpt lat="41.4510733" lon="0.745565"><ele>315.0</ele><time>2026-04-19T06:09:33.964Z</time></trkpt><trkpt lat="41.4511333" lon="0.7453767"><ele>312.6666666666667</ele><time>2026-04-19T06:09:34.963Z</time></trkpt><trkpt lat="41.4512217" lon="0.7451917"><ele>310.33333333333337</ele><time>2026-04-19T06:09:35.964Z</time></trkpt><trkpt lat="41.45132" lon="0.7450033"><ele>308.0</ele><time>2026-04-19T06:09:36.964Z</time></trkpt><trkpt lat="41.451415" lon="0.7448217"><ele>308.0</ele><time>2026-04-19T06:09:37.964Z</time></trkpt><trkpt lat="41.4515117" lon="0.7446417"><ele>308.0</ele><time>2026-04-19T06:09:38.964Z</time></trkpt><trkpt lat="41.4516017" lon="0.7444583"><ele>308.0</ele><time>2026-04-19T06:09:39.964Z</time></trkpt><trkpt lat="41.4516767" lon="0.7442833"><ele>311.0</ele><time>2026-04-19T06:09:40.964Z</time></trkpt><trkpt lat="41.4517233" lon="0.744095"><ele>314.0</ele><time>2026-04-19T06:09:41.963Z</time></trkpt><trkpt lat="41.45174" lon="0.7439"><ele>317.0</ele><time>2026-04-19T06:09:42.964Z</time></trkpt><trkpt lat="41.45173" lon="0.7436883"><ele>316.75</ele><time>2026-04-19T06:09:43.964Z</time></trkpt><trkpt lat="41.4516817" lon="0.743505"><ele>316.5</ele><time>2026-04-19T06:09:44.963Z</time></trkpt><trkpt lat="41.451605" lon="0.7433317"><ele>316.25</ele><time>2026-04-19T06:09:45.963Z</time></trkpt><trkpt lat="41.4514917" lon="0.743195"><ele>316.0</ele><time>2026-04-19T06:09:46.963Z</time></trkpt><trkpt lat="41.4513633" lon="0.7430833"><ele>318.66666666666663</ele><time>2026-04-19T06:09:47.964Z</time></trkpt><trkpt lat="41.4512133" lon="0.7430117"><ele>321.3333333333333</ele><time>2026-04-19T06:09:48.964Z</time></trkpt><trkpt lat="41.4510583" lon="0.743"><ele>324.0</ele><time>2026-04-19T06:09:49.963Z</time></trkpt><trkpt lat="41.4509117" lon="0.7430367"><ele>324.0</ele><time>2026-04-19T06:09:50.964Z</time></trkpt><trkpt lat="41.4507683" lon="0.7431133"><ele>324.0</ele><time>2026-04-19T06:09:51.964Z</time></trkpt><trkpt lat="41.4506533" lon="0.743235"><ele>324.0</ele><time>2026-04-19T06:09:52.964Z</time></trkpt><trkpt lat="41.4505583" lon="0.7433833"><ele>324.0</ele><time>2026-04-19T06:09:53.963Z</time></trkpt><trkpt lat="41.4504617" lon="0.74354"><ele>327.6666666666667</ele><time>2026-04-19T06:09:54.964Z</time></trkpt><trkpt lat="41.4503667" lon="0.743695"><ele>331.33333333333337</ele><time>2026-04-19T06:09:55.963Z</time></trkpt><trkpt lat="41.45027" lon="0.743865"><ele>335.0</ele><time>2026-04-19T06:09:56.963Z</time></trkpt><trkpt lat="41.4501883" lon="0.7440333"><ele>335.0</ele><time>2026-04-19T06:09:57.963Z</time></trkpt><trkpt lat="41.45012" lon="0.7442183"><ele>335.0</ele><time>2026-04-19T06:09:58.964Z</time></trkpt><trkpt lat="41.4500717" lon="0.74442"><ele>335.0</ele><time>2026-04-19T06:09:59.964Z</time></trkpt><trkpt lat="41.450045" lon="0.74462"><ele>335.33333333333337</ele><time>2026-04-19T06:10:00.963Z</time></trkpt><trkpt lat="41.45004" lon="0.7448383"><ele>335.6666666666667</ele><time>2026-04-19T06:10:01.964Z</time></trkpt><trkpt lat="41.4500633" lon="0.74506"><ele>336.0</ele><time>2026-04-19T06:10:02.963Z</time></trkpt><trkpt lat="41.4501033" lon="0.74526"><ele>336.0</ele><time>2026-04-19T06:10:03.964Z</time></trkpt><trkpt lat="41.45012" lon="0.74547"><ele>336.0</ele><time>2026-04-19T06:10:04.964Z</time></trkpt><trkpt lat="41.450105" lon="0.7456783"><ele>336.0</ele><time>2026-04-19T06:10:05.964Z</time></trkpt><trkpt lat="41.4500567" lon="0.7458917"><ele>333.3333333333333</ele><time>2026-04-19T06:10:06.964Z</time></trkpt><trkpt lat="41.449975" lon="0.7460733"><ele>330.66666666666663</ele><time>2026-04-19T06:10:07.963Z</time></trkpt><trkpt lat="41.4498683" lon="0.7462367"><ele>328.0</ele><time>2026-04-19T06:10:08.964Z</time></trkpt><trkpt lat="41.4497333" lon="0.7463667"><ele>331.3333333333333</ele><time>2026-04-19T06:10:09.963Z</time></trkpt><trkpt lat="41.4495833" lon="0.74648"><ele>334.6666666666667</ele><time>2026-04-19T06:10:10.963Z</time></trkpt><trkpt lat="41.4494267" lon="0.7465333"><ele>338.0</ele><time>2026-04-19T06:10:11.963Z</time></trkpt><trkpt lat="41.449255" lon="0.7465617"><ele>338.0</ele><time>2026-04-19T06:10:12.964Z</time></trkpt><trkpt lat="41.4490867" lon="0.7465433"><ele>338.0</ele><time>2026-04-19T06:10:13.964Z</time></trkpt><trkpt lat="41.4489233" lon="0.74646"><ele>338.0</ele><time>2026-04-19T06:10:14.964Z</time></trkpt><trkpt lat="41.4487617" lon="0.7463433"><ele>339.33333333333337</ele><time>2026-04-19T06:10:15.964Z</time></trkpt><trkpt lat="41.44863" lon="0.746175"><ele>340.6666666666667</ele><time>2026-04-19T06:10:16.964Z</time></trkpt><trkpt lat="41.4485267" lon="0.7459833"><ele>342.0</ele><time>2026-04-19T06:10:17.964Z</time></trkpt><trkpt lat="41.4484617" lon="0.7457733"><ele>342.0</ele><time>2026-04-19T06:10:18.963Z</time></trkpt><trkpt lat="41.4484283" lon="0.7455483"><ele>342.0</ele><time>2026-04-19T06:10:19.963Z</time></trkpt><trkpt lat="41.4484283" lon="0.7453017"><ele>342.0</ele><time>2026-04-19T06:10:20.963Z</time></trkpt><trkpt lat="41.44844" lon="0.7450717"><ele>344.0</ele><time>2026-04-19T06:10:21.964Z</time></trkpt><trkpt lat="41.4484583" lon="0.744835"><ele>346.0</ele><time>2026-04-19T06:10:22.964Z</time></trkpt><trkpt lat="41.4484683" lon="0.7446017"><ele>348.0</ele><time>2026-04-19T06:10:23.964Z</time></trkpt><trkpt lat="41.44848" lon="0.74437"><ele>349.0</ele><time>2026-04-19T06:10:24.964Z</time></trkpt><trkpt lat="41.448495" lon="0.744135"><ele>350.0</ele><time>2026-04-19T06:10:25.963Z</time></trkpt><trkpt lat="41.4485183" lon="0.7439033"><ele>351.0</ele><time>2026-04-19T06:10:26.964Z</time></trkpt><trkpt lat="41.448555" lon="0.7436733"><ele>352.6666666666667</ele><time>2026-04-19T06:10:27.963Z</time></trkpt><trkpt lat="41.4485917" lon="0.7434617"><ele>354.33333333333337</ele><time>2026-04-19T06:10:28.964Z</time></trkpt><trkpt lat="41.4486217" lon="0.7432583"><ele>356.0</ele><time>2026-04-19T06:10:29.964Z</time></trkpt><trkpt lat="41.4486433" lon="0.74306"><ele>356.0</ele><time>2026-04-19T06:10:30.964Z</time></trkpt><trkpt lat="41.4486467" lon="0.7428667"><ele>356.0</ele><time>2026-04-19T06:10:31.963Z</time></trkpt><trkpt lat="41.4486383" lon="0.7426867"><ele>356.0</ele><time>2026-04-19T06:10:32.963Z</time></trkpt><trkpt lat="41.4486117" lon="0.7425283"><ele>356.0</ele><time>2026-04-19T06:10:33.963Z</time></trkpt><trkpt lat="41.4485783" lon="0.7423767"><ele>356.6</ele><time>2026-04-19T06:10:34.964Z</time></trkpt><trkpt lat="41.4485533" lon="0.7422317"><ele>357.20000000000005</ele><time>2026-04-19T06:10:35.963Z</time></trkpt><trkpt lat="41.4485317" lon="0.742105"><ele>357.79999999999995</ele><time>2026-04-19T06:10:36.963Z</time></trkpt><trkpt lat="41.4485167" lon="0.7419633"><ele>358.4</ele><time>2026-04-19T06:10:37.963Z</time></trkpt><trkpt lat="41.4485017" lon="0.741825"><ele>359.0</ele><time>2026-04-19T06:10:38.963Z</time></trkpt><trkpt lat="41.4484933" lon="0.7417017"><ele>359.0</ele><time>2026-04-19T06:10:39.963Z</time></trkpt><trkpt lat="41.4484883" lon="0.74157"><ele>359.0</ele><time>2026-04-19T06:10:40.963Z</time></trkpt><trkpt lat="41.4484833" lon="0.7414367"><ele>359.0</ele><time>2026-04-19T06:10:41.964Z</time></trkpt><trkpt lat="41.4484783" lon="0.7413183"><ele>359.0</ele><time>2026-04-19T06:10:42.964Z</time></trkpt><trkpt lat="41.4484717" lon="0.741195"><ele>359.0</ele><time>2026-04-19T06:10:43.963Z</time></trkpt><trkpt lat="41.4484483" lon="0.7410833"><ele>359.79999999999995</ele><time>2026-04-19T06:10:44.964Z</time></trkpt><trkpt lat="41.4484217" lon="0.74096"><ele>360.59999999999997</ele><time>2026-04-19T06:10:45.964Z</time></trkpt><trkpt lat="41.448375" lon="0.7408533"><ele>361.4</ele><time>2026-04-19T06:10:46.964Z</time></trkpt><trkpt lat="41.4483217" lon="0.74075"><ele>362.2</ele><time>2026-04-19T06:10:47.963Z</time></trkpt><trkpt lat="41.4482733" lon="0.74063"><ele>363.0</ele><time>2026-04-19T06:10:48.964Z</time></trkpt><trkpt lat="41.4482317" lon="0.74053"><ele>363.0</ele><time>2026-04-19T06:10:49.963Z</time></trkpt><trkpt lat="41.4482083" lon="0.7404167"><ele>363.0</ele><time>2026-04-19T06:10:50.963Z</time></trkpt><trkpt lat="41.4482017" lon="0.74029"><ele>363.0</ele><time>2026-04-19T06:10:51.964Z</time></trkpt><trkpt lat="41.448205" lon="0.7401633"><ele>363.0</ele><time>2026-04-19T06:10:52.963Z</time></trkpt><trkpt lat="41.448225" lon="0.7400367"><ele>363.0</ele><time>2026-04-19T06:10:53.963Z</time></trkpt><trkpt lat="41.4482483" lon="0.739915"><ele>363.59999999999997</ele><time>2026-04-19T06:10:54.964Z</time></trkpt><trkpt lat="41.44826" lon="0.7397967"><ele>364.2</ele><time>2026-04-19T06:10:55.964Z</time></trkpt><trkpt lat="41.4482717" lon="0.73968"><ele>364.8</ele><time>2026-04-19T06:10:56.963Z</time></trkpt><trkpt lat="41.44829" lon="0.739585"><ele>365.4</ele><time>2026-04-19T06:10:57.963Z</time></trkpt><trkpt lat="41.4483017" lon="0.739445"><ele>366.0</ele><time>2026-04-19T06:10:59.964Z</time></trkpt><trkpt lat="41.4482867" lon="0.7393133"><ele>366.8333333333333</ele><time>2026-04-19T06:11:01.963Z</time></trkpt><trkpt lat="41.448265" lon="0.73922"><ele>367.6666666666667</ele><time>2026-04-19T06:11:03.963Z</time></trkpt><trkpt lat="41.4482417" lon="0.73911"><ele>368.5</ele><time>2026-04-19T06:11:06.964Z</time></trkpt><trkpt lat="41.448295" lon="0.73904"><ele>369.33333333333337</ele><time>2026-04-19T06:11:09.963Z</time></trkpt><trkpt lat="41.4483717" lon="0.73906"><ele>370.1666666666667</ele><time>2026-04-19T06:11:12.964Z</time></trkpt><trkpt lat="41.4484533" lon="0.7391217"><ele>371.0</ele><time>2026-04-19T06:11:14.963Z</time></trkpt><trkpt lat="41.44854" lon="0.7391833"><ele>371.0</ele><time>2026-04-19T06:11:16.963Z</time></trkpt><trkpt lat="41.4486183" lon="0.7392333"><ele>371.0</ele><time>2026-04-19T06:11:18.964Z</time></trkpt><trkpt lat="41.448685" lon="0.7392683"><ele>371.0</ele><time>2026-04-19T06:11:20.964Z</time></trkpt><trkpt lat="41.4487617" lon="0.7393267"><ele>371.0</ele><time>2026-04-19T06:11:23.964Z</time></trkpt><trkpt lat="41.448825" lon="0.739365"><ele>369.0</ele><time>2026-04-19T06:11:26.964Z</time></trkpt></trkseg><trkseg><trkpt lat="41.4477894" lon="0.7392056"><ele>373.0</ele><time>2026-04-19T06:36:08.246Z</time></trkpt><trkpt lat="41.4477264" lon="0.7392071"><ele>373.0</ele><time>2026-04-19T06:36:26.245Z</time></trkpt><trkpt lat="41.4476634" lon="0.7392564"><ele>373.0</ele><time>2026-04-19T06:36:28.965Z</time></trkpt><trkpt lat="41.4476077" lon="0.7393518"><ele>373.0</ele><time>2026-04-19T06:36:30.966Z</time></trkpt><trkpt lat="41.4475681" lon="0.7394224"><ele>373.0</ele><time>2026-04-19T06:36:31.965Z</time></trkpt><trkpt lat="41.4475078" lon="0.7394865"><ele>373.0</ele><time>2026-04-19T06:36:32.965Z</time></trkpt><trkpt lat="41.4474452" lon="0.739546"><ele>373.0</ele><time>2026-04-19T06:36:33.966Z</time></trkpt><trkpt lat="41.4473797" lon="0.739605"><ele>373.2</ele><time>2026-04-19T06:36:34.966Z</time></trkpt><trkpt lat="41.4473135" lon="0.7396633"><ele>373.4</ele><time>2026-04-19T06:36:35.965Z</time></trkpt><trkpt lat="41.4472347" lon="0.7397535"><ele>373.59999999999997</ele><time>2026-04-19T06:36:36.966Z</time></trkpt><trkpt lat="41.4471573" lon="0.7398554"><ele>373.79999999999995</ele><time>2026-04-19T06:36:37.965Z</time></trkpt><trkpt lat="41.4470818" lon="0.7399815"><ele>374.0</ele><time>2026-04-19T06:36:38.965Z</time></trkpt><trkpt lat="41.447021" lon="0.7401403"><ele>376.75</ele><time>2026-04-19T06:36:39.965Z</time></trkpt><trkpt lat="41.4469731" lon="0.7402992"><ele>379.5</ele><time>2026-04-19T06:36:40.966Z</time></trkpt><trkpt lat="41.4469383" lon="0.7404371"><ele>382.25</ele><time>2026-04-19T06:36:41.965Z</time></trkpt><trkpt lat="41.4469009" lon="0.740583"><ele>385.0</ele><time>2026-04-19T06:36:42.965Z</time></trkpt><trkpt lat="41.4468855" lon="0.7407549"><ele>385.0</ele><time>2026-04-19T06:36:43.966Z</time></trkpt><trkpt lat="41.4468783" lon="0.7409266"><ele>385.0</ele><time>2026-04-19T06:36:44.965Z</time></trkpt><trkpt lat="41.4468831" lon="0.7411168"><ele>385.0</ele><time>2026-04-19T06:36:45.966Z</time></trkpt><trkpt lat="41.4468755" lon="0.7413067"><ele>385.0</ele><time>2026-04-19T06:36:46.965Z</time></trkpt><trkpt lat="41.4468487" lon="0.7414901"><ele>385.75</ele><time>2026-04-19T06:36:47.966Z</time></trkpt><trkpt lat="41.4468082" lon="0.7416685"><ele>386.5</ele><time>2026-04-19T06:36:48.966Z</time></trkpt><trkpt lat="41.4467696" lon="0.7418367"><ele>387.25</ele><time>2026-04-19T06:36:49.966Z</time></trkpt><trkpt lat="41.4467177" lon="0.7419781"><ele>388.0</ele><time>2026-04-19T06:36:50.966Z</time></trkpt><trkpt lat="41.4466541" lon="0.7420996"><ele>388.0</ele><time>2026-04-19T06:36:51.965Z</time></trkpt><trkpt lat="41.4465665" lon="0.7421921"><ele>388.0</ele><time>2026-04-19T06:36:52.965Z</time></trkpt><trkpt lat="41.4464642" lon="0.7422442"><ele>388.0</ele><time>2026-04-19T06:36:53.965Z</time></trkpt><trkpt lat="41.4463552" lon="0.7423179"><ele>388.0</ele><time>2026-04-19T06:36:54.966Z</time></trkpt><trkpt lat="41.4462378" lon="0.7424069"><ele>390.0</ele><time>2026-04-19T06:36:55.966Z</time></trkpt><trkpt lat="41.4461204" lon="0.7424862"><ele>392.0</ele><time>2026-04-19T06:36:56.966Z</time></trkpt><trkpt lat="41.4459944" lon="0.7425655"><ele>394.0</ele><time>2026-04-19T06:36:57.966Z</time></trkpt><trkpt lat="41.4458632" lon="0.7426308"><ele>396.0</ele><time>2026-04-19T06:36:58.966Z</time></trkpt><trkpt lat="41.4457345" lon="0.7426982"><ele>395.75</ele><time>2026-04-19T06:36:59.965Z</time></trkpt><trkpt lat="41.4456162" lon="0.7427814"><ele>395.5</ele><time>2026-04-19T06:37:00.966Z</time></trkpt><trkpt lat="41.44551" lon="0.7428917"><ele>395.25</ele><time>2026-04-19T06:37:01.966Z</time></trkpt><trkpt lat="41.4454" lon="0.7430217"><ele>395.0</ele><time>2026-04-19T06:37:02.965Z</time></trkpt><trkpt lat="41.4452767" lon="0.743135"><ele>395.0</ele><time>2026-04-19T06:37:03.966Z</time></trkpt><trkpt lat="41.4451467" lon="0.7432367"><ele>395.0</ele><time>2026-04-19T06:37:04.965Z</time></trkpt><trkpt lat="41.44501" lon="0.743325"><ele>395.0</ele><time>2026-04-19T06:37:05.966Z</time></trkpt><trkpt lat="41.44486" lon="0.7434067"><ele>395.0</ele><time>2026-04-19T06:37:06.966Z</time></trkpt><trkpt lat="41.44471" lon="0.743495"><ele>395.0</ele><time>2026-04-19T06:37:07.965Z</time></trkpt><trkpt lat="41.4445533" lon="0.7435883"><ele>395.0</ele><time>2026-04-19T06:37:08.965Z</time></trkpt><trkpt lat="41.4443967" lon="0.743685"><ele>395.66666666666663</ele><time>2026-04-19T06:37:09.966Z</time></trkpt><trkpt lat="41.444235" lon="0.74377"><ele>396.33333333333337</ele><time>2026-04-19T06:37:10.966Z</time></trkpt><trkpt lat="41.4440717" lon="0.7438767"><ele>397.0</ele><time>2026-04-19T06:37:11.965Z</time></trkpt><trkpt lat="41.4439117" lon="0.74398"><ele>397.0</ele><time>2026-04-19T06:37:12.965Z</time></trkpt><trkpt lat="41.4437517" lon="0.7440683"><ele>397.0</ele><time>2026-04-19T06:37:13.965Z</time></trkpt><trkpt lat="41.4435917" lon="0.7441633"><ele>397.0</ele><time>2026-04-19T06:37:14.966Z</time></trkpt><trkpt lat="41.443425" lon="0.744265"><ele>397.0</ele><time>2026-04-19T06:37:15.965Z</time></trkpt><trkpt lat="41.4432667" lon="0.744365"><ele>397.0</ele><time>2026-04-19T06:37:16.966Z</time></trkpt><trkpt lat="41.4431133" lon="0.7444617"><ele>397.0</ele><time>2026-04-19T06:37:17.966Z</time></trkpt><trkpt lat="41.44296" lon="0.7445767"><ele>399.6666666666667</ele><time>2026-04-19T06:37:18.965Z</time></trkpt><trkpt lat="41.4428083" lon="0.7447083"><ele>402.33333333333337</ele><time>2026-04-19T06:37:19.966Z</time></trkpt><trkpt lat="41.442675" lon="0.7448433"><ele>405.0</ele><time>2026-04-19T06:37:20.966Z</time></trkpt><trkpt lat="41.4425533" lon="0.74497"><ele>405.0</ele><time>2026-04-19T06:37:21.966Z</time></trkpt><trkpt lat="41.4424383" lon="0.74509"><ele>405.0</ele><time>2026-04-19T06:37:22.966Z</time></trkpt><trkpt lat="41.44231" lon="0.7451867"><ele>405.0</ele><time>2026-04-19T06:37:23.965Z</time></trkpt><trkpt lat="41.4421717" lon="0.745265"><ele>405.0</ele><time>2026-04-19T06:37:24.965Z</time></trkpt><trkpt lat="41.442035" lon="0.7453533"><ele>405.75</ele><time>2026-04-19T06:37:25.965Z</time></trkpt><trkpt lat="41.4419033" lon="0.7454683"><ele>406.5</ele><time>2026-04-19T06:37:26.965Z</time></trkpt><trkpt lat="41.4417833" lon="0.7455833"><ele>407.25</ele><time>2026-04-19T06:37:27.965Z</time></trkpt><trkpt lat="41.441685" lon="0.7457133"><ele>408.0</ele><time>2026-04-19T06:37:28.966Z</time></trkpt><trkpt lat="41.4415867" lon="0.7458633"><ele>408.0</ele><time>2026-04-19T06:37:29.965Z</time></trkpt><trkpt lat="41.4414983" lon="0.7460367"><ele>408.0</ele><time>2026-04-19T06:37:30.966Z</time></trkpt><trkpt lat="41.4414233" lon="0.7462167"><ele>408.0</ele><time>2026-04-19T06:37:31.965Z</time></trkpt><trkpt lat="41.441345" lon="0.7463883"><ele>409.5</ele><time>2026-04-19T06:37:32.966Z</time></trkpt><trkpt lat="41.44126" lon="0.746565"><ele>411.0</ele><time>2026-04-19T06:37:33.966Z</time></trkpt><trkpt lat="41.4411683" lon="0.7466883"><ele>412.5</ele><time>2026-04-19T06:37:34.965Z</time></trkpt><trkpt lat="41.4410733" lon="0.7467817"><ele>414.0</ele><time>2026-04-19T06:37:35.965Z</time></trkpt><trkpt lat="41.440965" lon="0.74684"><ele>414.0</ele><time>2026-04-19T06:37:36.966Z</time></trkpt><trkpt lat="41.4408667" lon="0.7468333"><ele>414.0</ele><time>2026-04-19T06:37:37.965Z</time></trkpt><trkpt lat="41.4407617" lon="0.7468083"><ele>414.0</ele><time>2026-04-19T06:37:38.966Z</time></trkpt><trkpt lat="41.440655" lon="0.7467433"><ele>414.0</ele><time>2026-04-19T06:37:39.966Z</time></trkpt><trkpt lat="41.440535" lon="0.7466833"><ele>414.75</ele><time>2026-04-19T06:37:40.966Z</time></trkpt><trkpt lat="41.4403983" lon="0.74665"><ele>415.5</ele><time>2026-04-19T06:37:41.965Z</time></trkpt><trkpt lat="41.4402483" lon="0.7466217"><ele>416.25</ele><time>2026-04-19T06:37:42.965Z</time></trkpt><trkpt lat="41.44009" lon="0.7466017"><ele>417.0</ele><time>2026-04-19T06:37:43.966Z</time></trkpt><trkpt lat="41.4399333" lon="0.74659"><ele>417.0</ele><time>2026-04-19T06:37:44.965Z</time></trkpt><trkpt lat="41.4397533" lon="0.7465867"><ele>417.0</ele><time>2026-04-19T06:37:45.966Z</time></trkpt><trkpt lat="41.4396133" lon="0.746545"><ele>417.0</ele><time>2026-04-19T06:37:46.966Z</time></trkpt><trkpt lat="41.4394783" lon="0.7464983"><ele>416.5</ele><time>2026-04-19T06:37:47.965Z</time></trkpt><trkpt lat="41.4393567" lon="0.7464167"><ele>416.0</ele><time>2026-04-19T06:37:48.965Z</time></trkpt><trkpt lat="41.4392283" lon="0.7463433"><ele>415.5</ele><time>2026-04-19T06:37:49.965Z</time></trkpt><trkpt lat="41.439095" lon="0.7462817"><ele>415.0</ele><time>2026-04-19T06:37:50.966Z</time></trkpt><trkpt lat="41.4389667" lon="0.7462533"><ele>415.0</ele><time>2026-04-19T06:37:51.966Z</time></trkpt><trkpt lat="41.4388183" lon="0.7462467"><ele>415.0</ele><time>2026-04-19T06:37:52.966Z</time></trkpt><trkpt lat="41.4386717" lon="0.7462533"><ele>415.0</ele><time>2026-04-19T06:37:53.966Z</time></trkpt><trkpt lat="41.4385367" lon="0.7462633"><ele>415.0</ele><time>2026-04-19T06:37:54.966Z</time></trkpt><trkpt lat="41.43842" lon="0.746265"><ele>414.5</ele><time>2026-04-19T06:37:55.966Z</time></trkpt><trkpt lat="41.4382983" lon="0.746255"><ele>414.0</ele><time>2026-04-19T06:37:56.965Z</time></trkpt><trkpt lat="41.4381667" lon="0.7462383"><ele>413.5</ele><time>2026-04-19T06:37:57.966Z</time></trkpt><trkpt lat="41.4380333" lon="0.746215"><ele>413.0</ele><time>2026-04-19T06:37:58.966Z</time></trkpt><trkpt lat="41.43792" lon="0.746175"><ele>414.25</ele><time>2026-04-19T06:37:59.966Z</time></trkpt><trkpt lat="41.4378067" lon="0.74618"><ele>415.5</ele><time>2026-04-19T06:38:00.966Z</time></trkpt><trkpt lat="41.4376967" lon="0.7462317"><ele>416.75</ele><time>2026-04-19T06:38:01.966Z</time></trkpt><trkpt lat="41.4376" lon="0.7463167"><ele>418.0</ele><time>2026-04-19T06:38:02.966Z</time></trkpt><trkpt lat="41.4375033" lon="0.7464317"><ele>418.0</ele><time>2026-04-19T06:38:03.965Z</time></trkpt><trkpt lat="41.4373933" lon="0.7465217"><ele>418.0</ele><time>2026-04-19T06:38:04.965Z</time></trkpt><trkpt lat="41.4372467" lon="0.7466083"><ele>418.0</ele><time>2026-04-19T06:38:05.965Z</time></trkpt><trkpt lat="41.4371033" lon="0.746645"><ele>418.0</ele><time>2026-04-19T06:38:06.966Z</time></trkpt><trkpt lat="41.4369583" lon="0.7466517"><ele>419.5</ele><time>2026-04-19T06:38:07.965Z</time></trkpt><trkpt lat="41.43682" lon="0.7466483"><ele>421.0</ele><time>2026-04-19T06:38:08.966Z</time></trkpt><trkpt lat="41.4366783" lon="0.7466383"><ele>422.5</ele><time>2026-04-19T06:38:09.966Z</time></trkpt><trkpt lat="41.4365267" lon="0.7466417"><ele>424.0</ele><time>2026-04-19T06:38:10.966Z</time></trkpt><trkpt lat="41.4363783" lon="0.74664"><ele>425.0</ele><time>2026-04-19T06:38:11.965Z</time></trkpt><trkpt lat="41.4362217" lon="0.746655"><ele>426.0</ele><time>2026-04-19T06:38:12.966Z</time></trkpt><trkpt lat="41.4360817" lon="0.7466767"><ele>427.0</ele><time>2026-04-19T06:38:13.965Z</time></trkpt><trkpt lat="41.4359067" lon="0.746705"><ele>427.0</ele><time>2026-04-19T06:38:14.965Z</time></trkpt><trkpt lat="41.4357333" lon="0.7467333"><ele>427.0</ele><time>2026-04-19T06:38:15.965Z</time></trkpt><trkpt lat="41.43557" lon="0.7467567"><ele>427.0</ele><time>2026-04-19T06:38:16.966Z</time></trkpt><trkpt lat="41.4353967" lon="0.7468083"><ele>427.0</ele><time>2026-04-19T06:38:17.965Z</time></trkpt><trkpt lat="41.435235" lon="0.7468617"><ele>427.0</ele><time>2026-04-19T06:38:18.965Z</time></trkpt><trkpt lat="41.43508" lon="0.74691"><ele>427.0</ele><time>2026-04-19T06:38:19.966Z</time></trkpt><trkpt lat="41.43493" lon="0.7469567"><ele>427.0</ele><time>2026-04-19T06:38:20.965Z</time></trkpt><trkpt lat="41.4347817" lon="0.746995"><ele>427.0</ele><time>2026-04-19T06:38:21.965Z</time></trkpt><trkpt lat="41.43464" lon="0.74704"><ele>427.0</ele><time>2026-04-19T06:38:22.965Z</time></trkpt><trkpt lat="41.4344933" lon="0.747125"><ele>429.0</ele><time>2026-04-19T06:38:23.966Z</time></trkpt><trkpt lat="41.4343517" lon="0.7472133"><ele>431.0</ele><time>2026-04-19T06:38:24.965Z</time></trkpt><trkpt lat="41.434215" lon="0.747305"><ele>433.0</ele><time>2026-04-19T06:38:25.966Z</time></trkpt><trkpt lat="41.4340783" lon="0.747435"><ele>433.0</ele><time>2026-04-19T06:38:26.966Z</time></trkpt><trkpt lat="41.43397" lon="0.7475867"><ele>433.0</ele><time>2026-04-19T06:38:27.965Z</time></trkpt><trkpt lat="41.4338717" lon="0.74775"><ele>433.0</ele><time>2026-04-19T06:38:28.965Z</time></trkpt><trkpt lat="41.43378" lon="0.7479383"><ele>433.5</ele><time>2026-04-19T06:38:29.966Z</time></trkpt><trkpt lat="41.4336783" lon="0.7481"><ele>434.0</ele><time>2026-04-19T06:38:30.966Z</time></trkpt><trkpt lat="41.4335833" lon="0.748245"><ele>434.5</ele><time>2026-04-19T06:38:31.965Z</time></trkpt><trkpt lat="41.433495" lon="0.7483667"><ele>435.0</ele><time>2026-04-19T06:38:32.966Z</time></trkpt><trkpt lat="41.4334017" lon="0.748475"><ele>435.0</ele><time>2026-04-19T06:38:33.965Z</time></trkpt><trkpt lat="41.4333067" lon="0.7485783"><ele>435.0</ele><time>2026-04-19T06:38:34.965Z</time></trkpt><trkpt lat="41.43319" lon="0.748695"><ele>435.0</ele><time>2026-04-19T06:38:35.966Z</time></trkpt><trkpt lat="41.43307" lon="0.7487917"><ele>435.0</ele><time>2026-04-19T06:38:36.965Z</time></trkpt><trkpt lat="41.4329533" lon="0.7488983"><ele>435.8</ele><time>2026-04-19T06:38:37.966Z</time></trkpt><trkpt lat="41.4328517" lon="0.7489833"><ele>436.6</ele><time>2026-04-19T06:38:38.966Z</time></trkpt><trkpt lat="41.4327667" lon="0.7490767"><ele>437.4</ele><time>2026-04-19T06:38:39.966Z</time></trkpt><trkpt lat="41.4326967" lon="0.7491767"><ele>438.2</ele><time>2026-04-19T06:38:40.965Z</time></trkpt><trkpt lat="41.43263" lon="0.7492733"><ele>439.0</ele><time>2026-04-19T06:38:41.966Z</time></trkpt><trkpt lat="41.432555" lon="0.7493583"><ele>439.2</ele><time>2026-04-19T06:38:42.966Z</time></trkpt><trkpt lat="41.4324817" lon="0.749465"><ele>439.4</ele><time>2026-04-19T06:38:43.965Z</time></trkpt><trkpt lat="41.4324117" lon="0.7495717"><ele>439.6</ele><time>2026-04-19T06:38:44.965Z</time></trkpt><trkpt lat="41.4323467" lon="0.7496717"><ele>439.8</ele><time>2026-04-19T06:38:45.965Z</time></trkpt><trkpt lat="41.432285" lon="0.7497667"><ele>440.0</ele><time>2026-04-19T06:38:46.966Z</time></trkpt><trkpt lat="41.4322233" lon="0.749865"><ele>440.0</ele><time>2026-04-19T06:38:47.965Z</time></trkpt><trkpt lat="41.4321617" lon="0.7499583"><ele>440.0</ele><time>2026-04-19T06:38:48.965Z</time></trkpt><trkpt lat="41.432095" lon="0.750055"><ele>440.0</ele><time>2026-04-19T06:38:49.966Z</time></trkpt><trkpt lat="41.4320283" lon="0.7501533"><ele>440.0</ele><time>2026-04-19T06:38:50.966Z</time></trkpt><trkpt lat="41.431955" lon="0.75024"><ele>440.0</ele><time>2026-04-19T06:38:51.965Z</time></trkpt><trkpt lat="41.4318733" lon="0.750335"><ele>441.25</ele><time>2026-04-19T06:38:52.965Z</time></trkpt><trkpt lat="41.43178" lon="0.7504283"><ele>442.5</ele><time>2026-04-19T06:38:53.965Z</time></trkpt><trkpt lat="41.431685" lon="0.7505"><ele>443.75</ele><time>2026-04-19T06:38:54.965Z</time></trkpt><trkpt lat="41.4315817" lon="0.7505717"><ele>445.0</ele><time>2026-04-19T06:38:55.965Z</time></trkpt><trkpt lat="41.4314733" lon="0.750625"><ele>445.0</ele><time>2026-04-19T06:38:56.966Z</time></trkpt><trkpt lat="41.431375" lon="0.7506717"><ele>445.0</ele><time>2026-04-19T06:38:57.966Z</time></trkpt><trkpt lat="41.4312783" lon="0.7507233"><ele>445.0</ele><time>2026-04-19T06:38:58.966Z</time></trkpt><trkpt lat="41.4311833" lon="0.750775"><ele>445.0</ele><time>2026-04-19T06:38:59.966Z</time></trkpt><trkpt lat="41.4311033" lon="0.7508"><ele>445.0</ele><time>2026-04-19T06:39:00.965Z</time></trkpt><trkpt lat="41.43102" lon="0.7508267"><ele>445.6</ele><time>2026-04-19T06:39:01.965Z</time></trkpt><trkpt lat="41.4309267" lon="0.7508617"><ele>446.2</ele><time>2026-04-19T06:39:02.965Z</time></trkpt><trkpt lat="41.4308183" lon="0.7508967"><ele>446.79999999999995</ele><time>2026-04-19T06:39:03.965Z</time></trkpt><trkpt lat="41.430725" lon="0.7509067"><ele>447.4</ele><time>2026-04-19T06:39:04.966Z</time></trkpt><trkpt lat="41.4306183" lon="0.750945"><ele>448.0</ele><time>2026-04-19T06:39:05.966Z</time></trkpt><trkpt lat="41.43051" lon="0.7510133"><ele>447.75</ele><time>2026-04-19T06:39:06.965Z</time></trkpt><trkpt lat="41.430415" lon="0.7510967"><ele>447.5</ele><time>2026-04-19T06:39:07.965Z</time></trkpt><trkpt lat="41.4303283" lon="0.7512117"><ele>447.25</ele><time>2026-04-19T06:39:08.966Z</time></trkpt><trkpt lat="41.430245" lon="0.7513167"><ele>447.0</ele><time>2026-04-19T06:39:09.965Z</time></trkpt><trkpt lat="41.4301717" lon="0.7514167"><ele>447.0</ele><time>2026-04-19T06:39:10.966Z</time></trkpt><trkpt lat="41.4301083" lon="0.7515433"><ele>447.0</ele><time>2026-04-19T06:39:11.965Z</time></trkpt><trkpt lat="41.430055" lon="0.7516967"><ele>447.0</ele><time>2026-04-19T06:39:12.965Z</time></trkpt><trkpt lat="41.4300167" lon="0.7518583"><ele>447.0</ele><time>2026-04-19T06:39:13.965Z</time></trkpt><trkpt lat="41.4299983" lon="0.7520283"><ele>447.25</ele><time>2026-04-19T06:39:14.966Z</time></trkpt><trkpt lat="41.4299867" lon="0.7521983"><ele>447.5</ele><time>2026-04-19T06:39:15.965Z</time></trkpt><trkpt lat="41.4299733" lon="0.7523567"><ele>447.75</ele><time>2026-04-19T06:39:16.966Z</time></trkpt><trkpt lat="41.42997" lon="0.7525083"><ele>448.0</ele><time>2026-04-19T06:39:17.966Z</time></trkpt><trkpt lat="41.4299533" lon="0.75267"><ele>448.25</ele><time>2026-04-19T06:39:18.966Z</time></trkpt><trkpt lat="41.4299367" lon="0.7528233"><ele>448.5</ele><time>2026-04-19T06:39:19.966Z</time></trkpt><trkpt lat="41.4299" lon="0.752985"><ele>448.75</ele><time>2026-04-19T06:39:20.966Z</time></trkpt><trkpt lat="41.429855" lon="0.7531367"><ele>449.0</ele><time>2026-04-19T06:39:21.966Z</time></trkpt><trkpt lat="41.429785" lon="0.7532683"><ele>449.0</ele><time>2026-04-19T06:39:22.966Z</time></trkpt><trkpt lat="41.4297" lon="0.7534033"><ele>449.0</ele><time>2026-04-19T06:39:23.965Z</time></trkpt><trkpt lat="41.4296" lon="0.7535167"><ele>449.0</ele><time>2026-04-19T06:39:24.965Z</time></trkpt><trkpt lat="41.4295017" lon="0.7536283"><ele>449.0</ele><time>2026-04-19T06:39:25.966Z</time></trkpt><trkpt lat="41.4294017" lon="0.7537333"><ele>449.5</ele><time>2026-04-19T06:39:26.966Z</time></trkpt><trkpt lat="41.4293117" lon="0.7538367"><ele>450.0</ele><time>2026-04-19T06:39:27.966Z</time></trkpt><trkpt lat="41.4292267" lon="0.7539433"><ele>450.5</ele><time>2026-04-19T06:39:28.965Z</time></trkpt><trkpt lat="41.4291417" lon="0.7540483"><ele>451.0</ele><time>2026-04-19T06:39:29.965Z</time></trkpt><trkpt lat="41.4290483" lon="0.754155"><ele>451.0</ele><time>2026-04-19T06:39:30.966Z</time></trkpt><trkpt lat="41.42896" lon="0.7542683"><ele>451.0</ele><time>2026-04-19T06:39:31.966Z</time></trkpt><trkpt lat="41.428885" lon="0.7543967"><ele>451.0</ele><time>2026-04-19T06:39:32.966Z</time></trkpt><trkpt lat="41.4288233" lon="0.7545483"><ele>451.0</ele><time>2026-04-19T06:39:33.966Z</time></trkpt><trkpt lat="41.428795" lon="0.754725"><ele>450.75</ele><time>2026-04-19T06:39:34.965Z</time></trkpt><trkpt lat="41.4287933" lon="0.754895"><ele>450.5</ele><time>2026-04-19T06:39:35.966Z</time></trkpt><trkpt lat="41.4287833" lon="0.7550667"><ele>450.25</ele><time>2026-04-19T06:39:36.966Z</time></trkpt><trkpt lat="41.4287733" lon="0.7552383"><ele>450.0</ele><time>2026-04-19T06:39:37.966Z</time></trkpt><trkpt lat="41.428745" lon="0.75541"><ele>450.0</ele><time>2026-04-19T06:39:38.966Z</time></trkpt><trkpt lat="41.4287267" lon="0.75558"><ele>450.0</ele><time>2026-04-19T06:39:39.966Z</time></trkpt><trkpt lat="41.4287083" lon="0.7557417"><ele>450.0</ele><time>2026-04-19T06:39:40.965Z</time></trkpt><trkpt lat="41.4286867" lon="0.7559017"><ele>450.0</ele><time>2026-04-19T06:39:41.966Z</time></trkpt><trkpt lat="41.4286783" lon="0.75605"><ele>451.0</ele><time>2026-04-19T06:39:42.966Z</time></trkpt><trkpt lat="41.4286533" lon="0.7561983"><ele>452.0</ele><time>2026-04-19T06:39:43.966Z</time></trkpt><trkpt lat="41.428625" lon="0.7563567"><ele>453.0</ele><time>2026-04-19T06:39:44.966Z</time></trkpt><trkpt lat="41.4285567" lon="0.756515"><ele>454.0</ele><time>2026-04-19T06:39:45.965Z</time></trkpt><trkpt lat="41.4284833" lon="0.7566633"><ele>454.0</ele><time>2026-04-19T06:39:46.966Z</time></trkpt><trkpt lat="41.4284033" lon="0.7567883"><ele>454.0</ele><time>2026-04-19T06:39:47.965Z</time></trkpt><trkpt lat="41.4283183" lon="0.7569067"><ele>454.0</ele><time>2026-04-19T06:39:48.965Z</time></trkpt><trkpt lat="41.428235" lon="0.7570233"><ele>454.0</ele><time>2026-04-19T06:39:49.966Z</time></trkpt><trkpt lat="41.42815" lon="0.7571567"><ele>454.0</ele><time>2026-04-19T06:39:50.965Z</time></trkpt><trkpt lat="41.4280683" lon="0.7573083"><ele>454.0</ele><time>2026-04-19T06:39:51.965Z</time></trkpt><trkpt lat="41.42799" lon="0.7574617"><ele>454.0</ele><time>2026-04-19T06:39:52.966Z</time></trkpt><trkpt lat="41.4279167" lon="0.7576033"><ele>454.0</ele><time>2026-04-19T06:39:53.965Z</time></trkpt><trkpt lat="41.4278517" lon="0.7577383"><ele>455.25</ele><time>2026-04-19T06:39:54.966Z</time></trkpt><trkpt lat="41.4277833" lon="0.757875"><ele>456.5</ele><time>2026-04-19T06:39:55.966Z</time></trkpt><trkpt lat="41.4277267" lon="0.7580283"><ele>457.75</ele><time>2026-04-19T06:39:56.965Z</time></trkpt><trkpt lat="41.4276817" lon="0.7581817"><ele>459.0</ele><time>2026-04-19T06:39:57.965Z</time></trkpt><trkpt lat="41.4276317" lon="0.75833"><ele>459.0</ele><time>2026-04-19T06:39:58.965Z</time></trkpt><trkpt lat="41.4275783" lon="0.7584717"><ele>459.0</ele><time>2026-04-19T06:39:59.965Z</time></trkpt><trkpt lat="41.4274967" lon="0.7585983"><ele>459.0</ele><time>2026-04-19T06:40:00.966Z</time></trkpt><trkpt lat="41.4273983" lon="0.7587033"><ele>459.0</ele><time>2026-04-19T06:40:01.966Z</time></trkpt><trkpt lat="41.427285" lon="0.7587767"><ele>459.75</ele><time>2026-04-19T06:40:02.966Z</time></trkpt><trkpt lat="41.427185" lon="0.7588867"><ele>460.5</ele><time>2026-04-19T06:40:03.966Z</time></trkpt><trkpt lat="41.4270983" lon="0.7590083"><ele>461.25</ele><time>2026-04-19T06:40:04.966Z</time></trkpt><trkpt lat="41.4270233" lon="0.75915"><ele>462.0</ele><time>2026-04-19T06:40:05.966Z</time></trkpt><trkpt lat="41.42696" lon="0.7592783"><ele>462.6</ele><time>2026-04-19T06:40:06.965Z</time></trkpt><trkpt lat="41.4269217" lon="0.759415"><ele>463.20000000000005</ele><time>2026-04-19T06:40:07.966Z</time></trkpt><trkpt lat="41.4268917" lon="0.7595367"><ele>463.8</ele><time>2026-04-19T06:40:08.965Z</time></trkpt><trkpt lat="41.42685" lon="0.7596683"><ele>464.4</ele><time>2026-04-19T06:40:09.965Z</time></trkpt><trkpt lat="41.4267967" lon="0.7597917"><ele>465.0</ele><time>2026-04-19T06:40:10.965Z</time></trkpt><trkpt lat="41.4267233" lon="0.759895"><ele>465.0</ele><time>2026-04-19T06:40:11.966Z</time></trkpt><trkpt lat="41.4266433" lon="0.760005"><ele>465.0</ele><time>2026-04-19T06:40:12.966Z</time></trkpt><trkpt lat="41.42657" lon="0.7601117"><ele>465.0</ele><time>2026-04-19T06:40:13.966Z</time></trkpt><trkpt lat="41.4264967" lon="0.76021"><ele>465.0</ele><time>2026-04-19T06:40:14.966Z</time></trkpt><trkpt lat="41.4264183" lon="0.7603117"><ele>465.0</ele><time>2026-04-19T06:40:15.966Z</time></trkpt><trkpt lat="41.4263367" lon="0.7604217"><ele>465.5</ele><time>2026-04-19T06:40:16.966Z</time></trkpt><trkpt lat="41.42625" lon="0.7605383"><ele>466.0</ele><time>2026-04-19T06:40:17.966Z</time></trkpt><trkpt lat="41.42617" lon="0.7606533"><ele>466.5</ele><time>2026-04-19T06:40:18.965Z</time></trkpt><trkpt lat="41.42609" lon="0.76077"><ele>467.0</ele><time>2026-04-19T06:40:19.966Z</time></trkpt><trkpt lat="41.4260167" lon="0.7608833"><ele>467.0</ele><time>2026-04-19T06:40:20.966Z</time></trkpt><trkpt lat="41.4259483" lon="0.760995"><ele>467.00000000000006</ele><time>2026-04-19T06:40:21.966Z</time></trkpt><trkpt lat="41.4258783" lon="0.7611067"><ele>467.00000000000006</ele><time>2026-04-19T06:40:22.966Z</time></trkpt><trkpt lat="41.4258033" lon="0.7612233"><ele>467.0</ele><time>2026-04-19T06:40:23.965Z</time></trkpt><trkpt lat="41.4257333" lon="0.7613383"><ele>467.0</ele><time>2026-04-19T06:40:24.966Z</time></trkpt><trkpt lat="41.4256683" lon="0.76146"><ele>467.8</ele><time>2026-04-19T06:40:25.965Z</time></trkpt><trkpt lat="41.4256083" lon="0.7615783"><ele>468.6</ele><time>2026-04-19T06:40:26.965Z</time></trkpt><trkpt lat="41.42555" lon="0.7617067"><ele>469.40000000000003</ele><time>2026-04-19T06:40:27.965Z</time></trkpt><trkpt lat="41.42549" lon="0.7618367"><ele>470.20000000000005</ele><time>2026-04-19T06:40:28.966Z</time></trkpt><trkpt lat="41.4254367" lon="0.761955"><ele>471.0</ele><time>2026-04-19T06:40:29.966Z</time></trkpt><trkpt lat="41.4253833" lon="0.7620717"><ele>471.8</ele><time>2026-04-19T06:40:30.965Z</time></trkpt><trkpt lat="41.425315" lon="0.762175"><ele>472.6</ele><time>2026-04-19T06:40:31.965Z</time></trkpt><trkpt lat="41.4252367" lon="0.76227"><ele>473.4</ele><time>2026-04-19T06:40:32.966Z</time></trkpt><trkpt lat="41.4251483" lon="0.7623433"><ele>474.2</ele><time>2026-04-19T06:40:33.966Z</time></trkpt><trkpt lat="41.4250483" lon="0.7624083"><ele>475.0</ele><time>2026-04-19T06:40:34.966Z</time></trkpt><trkpt lat="41.4249333" lon="0.7624667"><ele>475.0</ele><time>2026-04-19T06:40:35.965Z</time></trkpt><trkpt lat="41.4248283" lon="0.762495"><ele>475.0</ele><time>2026-04-19T06:40:36.966Z</time></trkpt><trkpt lat="41.4247167" lon="0.76252"><ele>475.0</ele><time>2026-04-19T06:40:37.966Z</time></trkpt><trkpt lat="41.42462" lon="0.762565"><ele>475.0</ele><time>2026-04-19T06:40:38.965Z</time></trkpt><trkpt lat="41.4245267" lon="0.7626183"><ele>475.0</ele><time>2026-04-19T06:40:39.965Z</time></trkpt><trkpt lat="41.4244433" lon="0.7626633"><ele>475.8</ele><time>2026-04-19T06:40:40.965Z</time></trkpt><trkpt lat="41.42435" lon="0.7627033"><ele>476.6</ele><time>2026-04-19T06:40:41.965Z</time></trkpt><trkpt lat="41.424255" lon="0.762695"><ele>477.4</ele><time>2026-04-19T06:40:42.965Z</time></trkpt><trkpt lat="41.4241467" lon="0.7626633"><ele>478.2</ele><time>2026-04-19T06:40:43.966Z</time></trkpt><trkpt lat="41.4240567" lon="0.7625917"><ele>479.0</ele><time>2026-04-19T06:40:44.965Z</time></trkpt><trkpt lat="41.423985" lon="0.7624833"><ele>479.0</ele><time>2026-04-19T06:40:45.965Z</time></trkpt><trkpt lat="41.42392" lon="0.7623783"><ele>479.0</ele><time>2026-04-19T06:40:46.965Z</time></trkpt><trkpt lat="41.4238617" lon="0.7622767"><ele>479.0</ele><time>2026-04-19T06:40:47.965Z</time></trkpt><trkpt lat="41.4238" lon="0.7621933"><ele>479.0</ele><time>2026-04-19T06:40:48.965Z</time></trkpt><trkpt lat="41.4237267" lon="0.7621233"><ele>479.0</ele><time>2026-04-19T06:40:49.966Z</time></trkpt><trkpt lat="41.4236433" lon="0.7620983"><ele>479.99999999999994</ele><time>2026-04-19T06:40:50.965Z</time></trkpt><trkpt lat="41.4235567" lon="0.76211"><ele>481.0</ele><time>2026-04-19T06:40:51.965Z</time></trkpt><trkpt lat="41.4234917" lon="0.7621683"><ele>482.0</ele><time>2026-04-19T06:40:52.966Z</time></trkpt><trkpt lat="41.4234467" lon="0.7622667"><ele>483.0</ele><time>2026-04-19T06:40:53.965Z</time></trkpt><trkpt lat="41.4234017" lon="0.7623833"><ele>483.99999999999994</ele><time>2026-04-19T06:40:54.966Z</time></trkpt><trkpt lat="41.4233583" lon="0.7624983"><ele>485.0</ele><time>2026-04-19T06:40:55.965Z</time></trkpt><trkpt lat="41.423305" lon="0.762605"><ele>485.4</ele><time>2026-04-19T06:40:56.966Z</time></trkpt><trkpt lat="41.423235" lon="0.7627"><ele>485.8</ele><time>2026-04-19T06:40:57.965Z</time></trkpt><trkpt lat="41.4231683" lon="0.7627817"><ele>486.20000000000005</ele><time>2026-04-19T06:40:58.966Z</time></trkpt><trkpt lat="41.423105" lon="0.7628617"><ele>486.6</ele><time>2026-04-19T06:40:59.965Z</time></trkpt><trkpt lat="41.4230367" lon="0.76293"><ele>487.0</ele><time>2026-04-19T06:41:00.966Z</time></trkpt><trkpt lat="41.4229633" lon="0.7630017"><ele>487.40000000000003</ele><time>2026-04-19T06:41:01.966Z</time></trkpt><trkpt lat="41.4228717" lon="0.763045"><ele>487.80000000000007</ele><time>2026-04-19T06:41:02.965Z</time></trkpt><trkpt lat="41.4227683" lon="0.7630517"><ele>488.2</ele><time>2026-04-19T06:41:03.965Z</time></trkpt><trkpt lat="41.4226817" lon="0.7630233"><ele>488.6</ele><time>2026-04-19T06:41:04.966Z</time></trkpt><trkpt lat="41.4225867" lon="0.762975"><ele>489.0</ele><time>2026-04-19T06:41:05.965Z</time></trkpt><trkpt lat="41.4225033" lon="0.7628983"><ele>489.0</ele><time>2026-04-19T06:41:06.965Z</time></trkpt><trkpt lat="41.422435" lon="0.7628233"><ele>489.0</ele><time>2026-04-19T06:41:07.966Z</time></trkpt><trkpt lat="41.4223517" lon="0.7627633"><ele>489.0</ele><time>2026-04-19T06:41:08.965Z</time></trkpt><trkpt lat="41.4222783" lon="0.7627033"><ele>489.0</ele><time>2026-04-19T06:41:09.966Z</time></trkpt><trkpt lat="41.4221967" lon="0.7626533"><ele>489.0</ele><time>2026-04-19T06:41:10.965Z</time></trkpt><trkpt lat="41.4221083" lon="0.762625"><ele>489.6</ele><time>2026-04-19T06:41:11.965Z</time></trkpt><trkpt lat="41.42202" lon="0.7626267"><ele>490.2</ele><time>2026-04-19T06:41:12.965Z</time></trkpt><trkpt lat="41.421915" lon="0.762645"><ele>490.80000000000007</ele><time>2026-04-19T06:41:13.965Z</time></trkpt><trkpt lat="41.4218167" lon="0.7626767"><ele>491.40000000000003</ele><time>2026-04-19T06:41:14.965Z</time></trkpt><trkpt lat="41.4217217" lon="0.7627183"><ele>492.0</ele><time>2026-04-19T06:41:15.965Z</time></trkpt><trkpt lat="41.42163" lon="0.7627533"><ele>492.0</ele><time>2026-04-19T06:41:16.966Z</time></trkpt><trkpt lat="41.4215333" lon="0.762785"><ele>492.00000000000006</ele><time>2026-04-19T06:41:17.966Z</time></trkpt><trkpt lat="41.421445" lon="0.7628083"><ele>492.00000000000006</ele><time>2026-04-19T06:41:18.966Z</time></trkpt><trkpt lat="41.421345" lon="0.7628467"><ele>492.0</ele><time>2026-04-19T06:41:19.966Z</time></trkpt><trkpt lat="41.4212533" lon="0.7628967"><ele>492.0</ele><time>2026-04-19T06:41:20.965Z</time></trkpt><trkpt lat="41.4211733" lon="0.7629383"><ele>492.8</ele><time>2026-04-19T06:41:21.966Z</time></trkpt><trkpt lat="41.4210867" lon="0.7629917"><ele>493.6</ele><time>2026-04-19T06:41:22.966Z</time></trkpt><trkpt lat="41.420995" lon="0.76305"><ele>494.40000000000003</ele><time>2026-04-19T06:41:23.966Z</time></trkpt><trkpt lat="41.420895" lon="0.7630983"><ele>495.20000000000005</ele><time>2026-04-19T06:41:24.966Z</time></trkpt><trkpt lat="41.42079" lon="0.76314"><ele>496.0</ele><time>2026-04-19T06:41:25.966Z</time></trkpt><trkpt lat="41.42068" lon="0.763175"><ele>496.0</ele><time>2026-04-19T06:41:26.966Z</time></trkpt><trkpt lat="41.420565" lon="0.7632083"><ele>496.0</ele><time>2026-04-19T06:41:27.966Z</time></trkpt><trkpt lat="41.420455" lon="0.7632333"><ele>496.0</ele><time>2026-04-19T06:41:28.965Z</time></trkpt><trkpt lat="41.420335" lon="0.7632633"><ele>496.0</ele><time>2026-04-19T06:41:29.965Z</time></trkpt><trkpt lat="41.4202133" lon="0.7633"><ele>496.25</ele><time>2026-04-19T06:41:30.965Z</time></trkpt><trkpt lat="41.420055" lon="0.7633433"><ele>496.5</ele><time>2026-04-19T06:41:31.966Z</time></trkpt><trkpt lat="41.419925" lon="0.7633733"><ele>496.75</ele><time>2026-04-19T06:41:32.965Z</time></trkpt><trkpt lat="41.4198133" lon="0.7633867"><ele>497.0</ele><time>2026-04-19T06:41:33.965Z</time></trkpt><trkpt lat="41.4196983" lon="0.7634017"><ele>498.0</ele><time>2026-04-19T06:41:34.966Z</time></trkpt><trkpt lat="41.4195933" lon="0.76342"><ele>499.00000000000006</ele><time>2026-04-19T06:41:35.966Z</time></trkpt><trkpt lat="41.41949" lon="0.7634367"><ele>500.00000000000006</ele><time>2026-04-19T06:41:36.966Z</time></trkpt><trkpt lat="41.4194" lon="0.763445"><ele>501.0</ele><time>2026-04-19T06:41:37.965Z</time></trkpt><trkpt lat="41.4192933" lon="0.7634417"><ele>502.0</ele><time>2026-04-19T06:41:38.965Z</time></trkpt><trkpt lat="41.4191767" lon="0.7634333"><ele>502.0</ele><time>2026-04-19T06:41:39.966Z</time></trkpt><trkpt lat="41.4190667" lon="0.7633967"><ele>502.00000000000006</ele><time>2026-04-19T06:41:40.966Z</time></trkpt><trkpt lat="41.418975" lon="0.7633167"><ele>502.00000000000006</ele><time>2026-04-19T06:41:41.966Z</time></trkpt><trkpt lat="41.41889" lon="0.7632367"><ele>502.0</ele><time>2026-04-19T06:41:42.965Z</time></trkpt><trkpt lat="41.418805" lon="0.763145"><ele>502.0</ele><time>2026-04-19T06:41:43.965Z</time></trkpt><trkpt lat="41.41872" lon="0.7630617"><ele>502.6</ele><time>2026-04-19T06:41:44.966Z</time></trkpt><trkpt lat="41.4186367" lon="0.7629883"><ele>503.20000000000005</ele><time>2026-04-19T06:41:45.966Z</time></trkpt><trkpt lat="41.4185567" lon="0.762915"><ele>503.8</ele><time>2026-04-19T06:41:46.966Z</time></trkpt><trkpt lat="41.4184667" lon="0.7628367"><ele>504.4</ele><time>2026-04-19T06:41:47.966Z</time></trkpt><trkpt lat="41.418365" lon="0.7627683"><ele>505.0</ele><time>2026-04-19T06:41:48.965Z</time></trkpt><trkpt lat="41.4182667" lon="0.7627217"><ele>504.25</ele><time>2026-04-19T06:41:49.965Z</time></trkpt><trkpt lat="41.4181717" lon="0.7626783"><ele>503.5</ele><time>2026-04-19T06:41:50.965Z</time></trkpt><trkpt lat="41.41805" lon="0.7626667"><ele>502.75</ele><time>2026-04-19T06:41:51.965Z</time></trkpt><trkpt lat="41.417905" lon="0.762675"><ele>502.0</ele><time>2026-04-19T06:41:52.966Z</time></trkpt><trkpt lat="41.4177783" lon="0.7626783"><ele>502.0</ele><time>2026-04-19T06:41:53.965Z</time></trkpt><trkpt lat="41.4176683" lon="0.7626683"><ele>502.00000000000006</ele><time>2026-04-19T06:41:54.966Z</time></trkpt><trkpt lat="41.4175633" lon="0.7626583"><ele>502.00000000000006</ele><time>2026-04-19T06:41:55.966Z</time></trkpt><trkpt lat="41.4174567" lon="0.7626533"><ele>502.0</ele><time>2026-04-19T06:41:56.965Z</time></trkpt><trkpt lat="41.4173533" lon="0.7626633"><ele>502.0</ele><time>2026-04-19T06:41:57.965Z</time></trkpt><trkpt lat="41.4172433" lon="0.762705"><ele>503.0</ele><time>2026-04-19T06:41:58.965Z</time></trkpt><trkpt lat="41.4171283" lon="0.7627867"><ele>504.0</ele><time>2026-04-19T06:41:59.966Z</time></trkpt><trkpt lat="41.41701" lon="0.76289"><ele>505.0</ele><time>2026-04-19T06:42:00.966Z</time></trkpt><trkpt lat="41.4169117" lon="0.7629833"><ele>506.0</ele><time>2026-04-19T06:42:01.965Z</time></trkpt><trkpt lat="41.416815" lon="0.7630733"><ele>506.0</ele><time>2026-04-19T06:42:02.965Z</time></trkpt><trkpt lat="41.416725" lon="0.7631517"><ele>506.0</ele><time>2026-04-19T06:42:03.965Z</time></trkpt><trkpt lat="41.41662" lon="0.76326"><ele>506.0</ele><time>2026-04-19T06:42:04.965Z</time></trkpt><trkpt lat="41.4165267" lon="0.7633667"><ele>506.0</ele><time>2026-04-19T06:42:05.965Z</time></trkpt><trkpt lat="41.416425" lon="0.763475"><ele>506.75</ele><time>2026-04-19T06:42:06.966Z</time></trkpt><trkpt lat="41.416335" lon="0.763555"><ele>507.5</ele><time>2026-04-19T06:42:07.966Z</time></trkpt><trkpt lat="41.4162467" lon="0.76364"><ele>508.25</ele><time>2026-04-19T06:42:08.965Z</time></trkpt><trkpt lat="41.4161583" lon="0.7637233"><ele>509.0</ele><time>2026-04-19T06:42:09.966Z</time></trkpt><trkpt lat="41.4160567" lon="0.7638333"><ele>509.2</ele><time>2026-04-19T06:42:10.965Z</time></trkpt><trkpt lat="41.4159717" lon="0.7639133"><ele>509.4</ele><time>2026-04-19T06:42:11.966Z</time></trkpt><trkpt lat="41.4158867" lon="0.7639917"><ele>509.6</ele><time>2026-04-19T06:42:12.966Z</time></trkpt><trkpt lat="41.4157967" lon="0.764085"><ele>509.8</ele><time>2026-04-19T06:42:13.966Z</time></trkpt><trkpt lat="41.4157133" lon="0.7641683"><ele>510.0</ele><time>2026-04-19T06:42:14.965Z</time></trkpt><trkpt lat="41.4156133" lon="0.764265"><ele>510.0</ele><time>2026-04-19T06:42:15.966Z</time></trkpt><trkpt lat="41.4155183" lon="0.76436"><ele>510.0</ele><time>2026-04-19T06:42:16.966Z</time></trkpt><trkpt lat="41.415425" lon="0.7644617"><ele>510.0</ele><time>2026-04-19T06:42:17.966Z</time></trkpt><trkpt lat="41.4153267" lon="0.76456"><ele>510.0</ele><time>2026-04-19T06:42:18.966Z</time></trkpt><trkpt lat="41.4152433" lon="0.7646417"><ele>510.75</ele><time>2026-04-19T06:42:19.965Z</time></trkpt><trkpt lat="41.4151533" lon="0.76474"><ele>511.5</ele><time>2026-04-19T06:42:20.965Z</time></trkpt><trkpt lat="41.415065" lon="0.7648367"><ele>512.25</ele><time>2026-04-19T06:42:21.965Z</time></trkpt><trkpt lat="41.414975" lon="0.7649317"><ele>513.0</ele><time>2026-04-19T06:42:22.966Z</time></trkpt><trkpt lat="41.4148917" lon="0.7650367"><ele>513.0</ele><time>2026-04-19T06:42:23.966Z</time></trkpt><trkpt lat="41.414805" lon="0.7651483"><ele>513.0</ele><time>2026-04-19T06:42:24.966Z</time></trkpt><trkpt lat="41.4147217" lon="0.765235"><ele>513.0</ele><time>2026-04-19T06:42:25.965Z</time></trkpt><trkpt lat="41.4146217" lon="0.76533"><ele>513.0</ele><time>2026-04-19T06:42:26.966Z</time></trkpt><trkpt lat="41.4145217" lon="0.7654283"><ele>513.75</ele><time>2026-04-19T06:42:27.965Z</time></trkpt><trkpt lat="41.414425" lon="0.7655283"><ele>514.5</ele><time>2026-04-19T06:42:28.965Z</time></trkpt><trkpt lat="41.41434" lon="0.7656183"><ele>515.25</ele><time>2026-04-19T06:42:29.966Z</time></trkpt><trkpt lat="41.41425" lon="0.7657133"><ele>516.0</ele><time>2026-04-19T06:42:30.965Z</time></trkpt><trkpt lat="41.4141583" lon="0.7658133"><ele>516.0</ele><time>2026-04-19T06:42:31.966Z</time></trkpt><trkpt lat="41.4140667" lon="0.76592"><ele>516.0</ele><time>2026-04-19T06:42:32.965Z</time></trkpt><trkpt lat="41.4139783" lon="0.7660167"><ele>516.0</ele><time>2026-04-19T06:42:33.965Z</time></trkpt><trkpt lat="41.413895" lon="0.766115"><ele>516.0</ele><time>2026-04-19T06:42:34.966Z</time></trkpt><trkpt lat="41.4138133" lon="0.766215"><ele>517.0</ele><time>2026-04-19T06:42:35.965Z</time></trkpt><trkpt lat="41.4137167" lon="0.7663333"><ele>518.0</ele><time>2026-04-19T06:42:36.965Z</time></trkpt><trkpt lat="41.4136283" lon="0.7664417"><ele>519.0</ele><time>2026-04-19T06:42:37.965Z</time></trkpt><trkpt lat="41.4135467" lon="0.76654"><ele>520.0</ele><time>2026-04-19T06:42:38.966Z</time></trkpt><trkpt lat="41.4134533" lon="0.7666233"><ele>520.0</ele><time>2026-04-19T06:42:39.966Z</time></trkpt><trkpt lat="41.4133483" lon="0.7666933"><ele>520.0</ele><time>2026-04-19T06:42:40.966Z</time></trkpt><trkpt lat="41.4132517" lon="0.766735"><ele>520.0</ele><time>2026-04-19T06:42:41.965Z</time></trkpt><trkpt lat="41.4131483" lon="0.7667667"><ele>520.0</ele><time>2026-04-19T06:42:42.965Z</time></trkpt><trkpt lat="41.4130433" lon="0.766795"><ele>520.0</ele><time>2026-04-19T06:42:43.966Z</time></trkpt><trkpt lat="41.4129383" lon="0.7668283"><ele>520.5</ele><time>2026-04-19T06:42:44.966Z</time></trkpt><trkpt lat="41.4128267" lon="0.76685"><ele>521.0</ele><time>2026-04-19T06:42:45.966Z</time></trkpt><trkpt lat="41.4127133" lon="0.766875"><ele>521.5</ele><time>2026-04-19T06:42:46.965Z</time></trkpt><trkpt lat="41.4125967" lon="0.7669067"><ele>522.0</ele><time>2026-04-19T06:42:47.965Z</time></trkpt><trkpt lat="41.4124767" lon="0.7669333"><ele>522.0</ele><time>2026-04-19T06:42:48.965Z</time></trkpt><trkpt lat="41.4123633" lon="0.7669617"><ele>522.0</ele><time>2026-04-19T06:42:49.966Z</time></trkpt><trkpt lat="41.41225" lon="0.7669967"><ele>522.0</ele><time>2026-04-19T06:42:50.966Z</time></trkpt><trkpt lat="41.4121483" lon="0.7670317"><ele>522.0</ele><time>2026-04-19T06:42:51.965Z</time></trkpt><trkpt lat="41.4120433" lon="0.767075"><ele>522.0</ele><time>2026-04-19T06:42:52.966Z</time></trkpt><trkpt lat="41.41195" lon="0.7671067"><ele>522.4</ele><time>2026-04-19T06:42:53.965Z</time></trkpt><trkpt lat="41.4118533" lon="0.7671567"><ele>522.8000000000001</ele><time>2026-04-19T06:42:54.966Z</time></trkpt><trkpt lat="41.4117567" lon="0.7672083"><ele>523.2</ele><time>2026-04-19T06:42:55.965Z</time></trkpt><trkpt lat="41.411655" lon="0.7672367"><ele>523.6</ele><time>2026-04-19T06:42:56.966Z</time></trkpt><trkpt lat="41.41155" lon="0.7672883"><ele>524.0</ele><time>2026-04-19T06:42:57.966Z</time></trkpt><trkpt lat="41.4114467" lon="0.7673267"><ele>524.0</ele><time>2026-04-19T06:42:58.965Z</time></trkpt><trkpt lat="41.4113317" lon="0.7673433"><ele>524.0</ele><time>2026-04-19T06:42:59.965Z</time></trkpt><trkpt lat="41.4112117" lon="0.7673467"><ele>524.0</ele><time>2026-04-19T06:43:00.965Z</time></trkpt><trkpt lat="41.4111" lon="0.7673167"><ele>524.0</ele><time>2026-04-19T06:43:01.965Z</time></trkpt><trkpt lat="41.4109933" lon="0.7672617"><ele>524.25</ele><time>2026-04-19T06:43:02.965Z</time></trkpt><trkpt lat="41.4108917" lon="0.7672033"><ele>524.5</ele><time>2026-04-19T06:43:03.966Z</time></trkpt><trkpt lat="41.4107783" lon="0.7671583"><ele>524.75</ele><time>2026-04-19T06:43:04.965Z</time></trkpt><trkpt lat="41.4106633" lon="0.767125"><ele>525.0</ele><time>2026-04-19T06:43:05.965Z</time></trkpt><trkpt lat="41.4105483" lon="0.7671283"><ele>526.25</ele><time>2026-04-19T06:43:06.965Z</time></trkpt><trkpt lat="41.41043" lon="0.767165"><ele>527.5</ele><time>2026-04-19T06:43:07.966Z</time></trkpt><trkpt lat="41.4103217" lon="0.76725"><ele>528.75</ele><time>2026-04-19T06:43:08.966Z</time></trkpt><trkpt lat="41.4102283" lon="0.767355"><ele>530.0</ele><time>2026-04-19T06:43:09.965Z</time></trkpt><trkpt lat="41.4101533" lon="0.7674817"><ele>530.0</ele><time>2026-04-19T06:43:10.965Z</time></trkpt><trkpt lat="41.4100833" lon="0.7675917"><ele>530.0</ele><time>2026-04-19T06:43:11.965Z</time></trkpt><trkpt lat="41.4100133" lon="0.7676983"><ele>530.0</ele><time>2026-04-19T06:43:12.965Z</time></trkpt><trkpt lat="41.4099333" lon="0.7678033"><ele>530.0</ele><time>2026-04-19T06:43:13.965Z</time></trkpt><trkpt lat="41.40985" lon="0.767895"><ele>530.0</ele><time>2026-04-19T06:43:14.966Z</time></trkpt><trkpt lat="41.40975" lon="0.767965"><ele>530.25</ele><time>2026-04-19T06:43:15.965Z</time></trkpt><trkpt lat="41.4096483" lon="0.7680367"><ele>530.5</ele><time>2026-04-19T06:43:16.966Z</time></trkpt><trkpt lat="41.4095517" lon="0.76809"><ele>530.75</ele><time>2026-04-19T06:43:17.965Z</time></trkpt><trkpt lat="41.4094433" lon="0.7681533"><ele>531.0</ele><time>2026-04-19T06:43:18.966Z</time></trkpt><trkpt lat="41.40933" lon="0.7682033"><ele>531.0</ele><time>2026-04-19T06:43:19.966Z</time></trkpt><trkpt lat="41.40922" lon="0.7682467"><ele>531.0</ele><time>2026-04-19T06:43:20.966Z</time></trkpt><trkpt lat="41.4091167" lon="0.7682867"><ele>531.0</ele><time>2026-04-19T06:43:21.966Z</time></trkpt><trkpt lat="41.40901" lon="0.7683283"><ele>531.0</ele><time>2026-04-19T06:43:22.965Z</time></trkpt><trkpt lat="41.408905" lon="0.7683733"><ele>531.0</ele><time>2026-04-19T06:43:23.966Z</time></trkpt><trkpt lat="41.4088" lon="0.7684183"><ele>531.6</ele><time>2026-04-19T06:43:24.966Z</time></trkpt><trkpt lat="41.4087" lon="0.768465"><ele>532.2</ele><time>2026-04-19T06:43:25.966Z</time></trkpt><trkpt lat="41.4085967" lon="0.7685083"><ele>532.8</ele><time>2026-04-19T06:43:26.965Z</time></trkpt><trkpt lat="41.40849" lon="0.7685533"><ele>533.4</ele><time>2026-04-19T06:43:27.965Z</time></trkpt><trkpt lat="41.4083833" lon="0.768595"><ele>534.0</ele><time>2026-04-19T06:43:28.966Z</time></trkpt><trkpt lat="41.40828" lon="0.768635"><ele>534.2</ele><time>2026-04-19T06:43:29.966Z</time></trkpt><trkpt lat="41.40817" lon="0.768675"><ele>534.4</ele><time>2026-04-19T06:43:30.966Z</time></trkpt><trkpt lat="41.4080667" lon="0.768705"><ele>534.6</ele><time>2026-04-19T06:43:31.966Z</time></trkpt><trkpt lat="41.4079617" lon="0.7687383"><ele>534.8</ele><time>2026-04-19T06:43:32.965Z</time></trkpt><trkpt lat="41.4078583" lon="0.768775"><ele>535.0</ele><time>2026-04-19T06:43:33.966Z</time></trkpt><trkpt lat="41.4077483" lon="0.7688"><ele>533.25</ele><time>2026-04-19T06:43:34.965Z</time></trkpt><trkpt lat="41.407625" lon="0.76883"><ele>531.5</ele><time>2026-04-19T06:43:35.966Z</time></trkpt><trkpt lat="41.407505" lon="0.7688433"><ele>529.75</ele><time>2026-04-19T06:43:36.965Z</time></trkpt><trkpt lat="41.407385" lon="0.7688417"><ele>528.0</ele><time>2026-04-19T06:43:37.966Z</time></trkpt><trkpt lat="41.4072483" lon="0.76885"><ele>528.0</ele><time>2026-04-19T06:43:38.966Z</time></trkpt><trkpt lat="41.4071433" lon="0.768835"><ele>528.0</ele><time>2026-04-19T06:43:39.966Z</time></trkpt><trkpt lat="41.4069967" lon="0.7688567"><ele>528.0</ele><time>2026-04-19T06:43:40.965Z</time></trkpt><trkpt lat="41.4068683" lon="0.768865"><ele>528.0</ele><time>2026-04-19T06:43:41.965Z</time></trkpt><trkpt lat="41.406745" lon="0.7688683"><ele>528.0</ele><time>2026-04-19T06:43:42.965Z</time></trkpt><trkpt lat="41.4066233" lon="0.76885"><ele>528.0</ele><time>2026-04-19T06:43:43.965Z</time></trkpt><trkpt lat="41.4065133" lon="0.768815"><ele>528.0</ele><time>2026-04-19T06:43:44.966Z</time></trkpt><trkpt lat="41.4064" lon="0.768775"><ele>528.0</ele><time>2026-04-19T06:43:45.966Z</time></trkpt><trkpt lat="41.4063083" lon="0.7687083"><ele>527.0</ele><time>2026-04-19T06:43:46.965Z</time></trkpt><trkpt lat="41.4062017" lon="0.76864"><ele>526.0</ele><time>2026-04-19T06:43:47.965Z</time></trkpt><trkpt lat="41.4061017" lon="0.7685517"><ele>525.0</ele><time>2026-04-19T06:43:48.965Z</time></trkpt><trkpt lat="41.4059917" lon="0.7684667"><ele>524.0</ele><time>2026-04-19T06:43:49.966Z</time></trkpt><trkpt lat="41.40588" lon="0.7683917"><ele>526.75</ele><time>2026-04-19T06:43:50.966Z</time></trkpt><trkpt lat="41.40575" lon="0.7683217"><ele>529.5</ele><time>2026-04-19T06:43:51.965Z</time></trkpt><trkpt lat="41.4056417" lon="0.76826"><ele>532.25</ele><time>2026-04-19T06:43:52.965Z</time></trkpt><trkpt lat="41.4055217" lon="0.7682083"><ele>535.0</ele><time>2026-04-19T06:43:53.966Z</time></trkpt><trkpt lat="41.4054117" lon="0.7681783"><ele>535.8</ele><time>2026-04-19T06:43:54.965Z</time></trkpt><trkpt lat="41.405295" lon="0.7681967"><ele>536.6</ele><time>2026-04-19T06:43:55.965Z</time></trkpt><trkpt lat="41.4052" lon="0.7682517"><ele>537.4</ele><time>2026-04-19T06:43:56.966Z</time></trkpt><trkpt lat="41.4051183" lon="0.76834"><ele>538.2</ele><time>2026-04-19T06:43:57.965Z</time></trkpt><trkpt lat="41.40505" lon="0.7684667"><ele>539.0</ele><time>2026-04-19T06:43:58.966Z</time></trkpt><trkpt lat="41.4050017" lon="0.7686083"><ele>539.5</ele><time>2026-04-19T06:43:59.966Z</time></trkpt><trkpt lat="41.4049433" lon="0.768735"><ele>540.0</ele><time>2026-04-19T06:44:00.965Z</time></trkpt><trkpt lat="41.4048717" lon="0.7688417"><ele>540.5</ele><time>2026-04-19T06:44:01.966Z</time></trkpt><trkpt lat="41.404775" lon="0.7689183"><ele>541.0</ele><time>2026-04-19T06:44:02.966Z</time></trkpt><trkpt lat="41.4046517" lon="0.76898"><ele>541.0</ele><time>2026-04-19T06:44:03.966Z</time></trkpt><trkpt lat="41.4045183" lon="0.7690083"><ele>541.0</ele><time>2026-04-19T06:44:04.965Z</time></trkpt><trkpt lat="41.4043983" lon="0.7690383"><ele>541.0</ele><time>2026-04-19T06:44:05.966Z</time></trkpt><trkpt lat="41.40427" lon="0.7690833"><ele>541.0</ele><time>2026-04-19T06:44:06.966Z</time></trkpt><trkpt lat="41.40418" lon="0.7691483"><ele>541.0</ele><time>2026-04-19T06:44:07.966Z</time></trkpt><trkpt lat="41.4040967" lon="0.7692417"><ele>541.0</ele><time>2026-04-19T06:44:08.966Z</time></trkpt><trkpt lat="41.4040133" lon="0.769335"><ele>541.0</ele><time>2026-04-19T06:44:09.965Z</time></trkpt><trkpt lat="41.40392" lon="0.76943"><ele>541.0</ele><time>2026-04-19T06:44:10.966Z</time></trkpt><trkpt lat="41.40381" lon="0.7694833"><ele>539.75</ele><time>2026-04-19T06:44:11.965Z</time></trkpt><trkpt lat="41.40369" lon="0.7695367"><ele>538.5</ele><time>2026-04-19T06:44:12.966Z</time></trkpt><trkpt lat="41.4035517" lon="0.7695967"><ele>537.25</ele><time>2026-04-19T06:44:13.965Z</time></trkpt><trkpt lat="41.403435" lon="0.7696167"><ele>536.0</ele><time>2026-04-19T06:44:14.965Z</time></trkpt><trkpt lat="41.4033183" lon="0.769655"><ele>536.0</ele><time>2026-04-19T06:44:15.966Z</time></trkpt><trkpt lat="41.4032117" lon="0.7697267"><ele>536.0</ele><time>2026-04-19T06:44:16.965Z</time></trkpt><trkpt lat="41.4031233" lon="0.7698217"><ele>536.0</ele><time>2026-04-19T06:44:17.965Z</time></trkpt><trkpt lat="41.4030383" lon="0.76993"><ele>536.0</ele><time>2026-04-19T06:44:18.966Z</time></trkpt><trkpt lat="41.402955" lon="0.77004"><ele>534.75</ele><time>2026-04-19T06:44:19.966Z</time></trkpt><trkpt lat="41.402855" lon="0.7701283"><ele>533.5</ele><time>2026-04-19T06:44:20.966Z</time></trkpt><trkpt lat="41.4027467" lon="0.7702"><ele>532.25</ele><time>2026-04-19T06:44:21.966Z</time></trkpt><trkpt lat="41.402625" lon="0.770255"><ele>531.0</ele><time>2026-04-19T06:44:22.966Z</time></trkpt><trkpt lat="41.4024967" lon="0.7703133"><ele>531.0</ele><time>2026-04-19T06:44:23.965Z</time></trkpt><trkpt lat="41.40237" lon="0.7703733"><ele>531.0</ele><time>2026-04-19T06:44:24.965Z</time></trkpt><trkpt lat="41.4022467" lon="0.77043"><ele>531.0</ele><time>2026-04-19T06:44:25.965Z</time></trkpt><trkpt lat="41.4021367" lon="0.7704917"><ele>531.0</ele><time>2026-04-19T06:44:26.966Z</time></trkpt><trkpt lat="41.40203" lon="0.7705583"><ele>533.25</ele><time>2026-04-19T06:44:27.965Z</time></trkpt><trkpt lat="41.40192" lon="0.7706283"><ele>535.5</ele><time>2026-04-19T06:44:28.966Z</time></trkpt><trkpt lat="41.4018017" lon="0.7707033"><ele>537.75</ele><time>2026-04-19T06:44:29.966Z</time></trkpt><trkpt lat="41.4016833" lon="0.7707733"><ele>540.0</ele><time>2026-04-19T06:44:30.965Z</time></trkpt><trkpt lat="41.4015683" lon="0.7708367"><ele>540.0</ele><time>2026-04-19T06:44:31.965Z</time></trkpt><trkpt lat="41.4014483" lon="0.7709"><ele>540.0</ele><time>2026-04-19T06:44:32.966Z</time></trkpt><trkpt lat="41.40133" lon="0.77096"><ele>540.0</ele><time>2026-04-19T06:44:33.966Z</time></trkpt><trkpt lat="41.40121" lon="0.7710333"><ele>540.0</ele><time>2026-04-19T06:44:34.966Z</time></trkpt><trkpt lat="41.40108" lon="0.7711217"><ele>539.25</ele><time>2026-04-19T06:44:35.965Z</time></trkpt><trkpt lat="41.4009783" lon="0.7712167"><ele>538.5</ele><time>2026-04-19T06:44:36.966Z</time></trkpt><trkpt lat="41.400895" lon="0.771325"><ele>537.75</ele><time>2026-04-19T06:44:37.966Z</time></trkpt><trkpt lat="41.4008117" lon="0.771455"><ele>537.0</ele><time>2026-04-19T06:44:38.965Z</time></trkpt><trkpt lat="41.4007283" lon="0.7716067"><ele>537.0</ele><time>2026-04-19T06:44:39.966Z</time></trkpt><trkpt lat="41.4006467" lon="0.77174"><ele>537.0</ele><time>2026-04-19T06:44:40.965Z</time></trkpt><trkpt lat="41.4005517" lon="0.7718517"><ele>537.0</ele><time>2026-04-19T06:44:41.965Z</time></trkpt><trkpt lat="41.40045" lon="0.7719533"><ele>537.0</ele><time>2026-04-19T06:44:42.966Z</time></trkpt><trkpt lat="41.4003367" lon="0.7720417"><ele>536.5</ele><time>2026-04-19T06:44:43.966Z</time></trkpt><trkpt lat="41.400225" lon="0.7721017"><ele>536.0</ele><time>2026-04-19T06:44:44.965Z</time></trkpt><trkpt lat="41.400115" lon="0.7721333"><ele>535.5</ele><time>2026-04-19T06:44:45.965Z</time></trkpt><trkpt lat="41.3999883" lon="0.7721583"><ele>535.0</ele><time>2026-04-19T06:44:46.966Z</time></trkpt><trkpt lat="41.39985" lon="0.7721783"><ele>535.0</ele><time>2026-04-19T06:44:47.965Z</time></trkpt><trkpt lat="41.3997083" lon="0.7721717"><ele>535.0</ele><time>2026-04-19T06:44:48.966Z</time></trkpt><trkpt lat="41.3995517" lon="0.77218"><ele>535.0</ele><time>2026-04-19T06:44:49.966Z</time></trkpt><trkpt lat="41.3994017" lon="0.7721983"><ele>535.0</ele><time>2026-04-19T06:44:50.965Z</time></trkpt><trkpt lat="41.39927" lon="0.7722133"><ele>535.25</ele><time>2026-04-19T06:44:51.966Z</time></trkpt><trkpt lat="41.399135" lon="0.7722117"><ele>535.5</ele><time>2026-04-19T06:44:52.965Z</time></trkpt><trkpt lat="41.3989983" lon="0.7722333"><ele>535.75</ele><time>2026-04-19T06:44:53.966Z</time></trkpt><trkpt lat="41.39887" lon="0.7722433"><ele>536.0</ele><time>2026-04-19T06:44:54.965Z</time></trkpt><trkpt lat="41.398755" lon="0.7722533"><ele>537.5</ele><time>2026-04-19T06:44:55.965Z</time></trkpt><trkpt lat="41.39865" lon="0.7722833"><ele>539.0</ele><time>2026-04-19T06:44:56.965Z</time></trkpt><trkpt lat="41.3985533" lon="0.7723567"><ele>540.5</ele><time>2026-04-19T06:44:57.965Z</time></trkpt><trkpt lat="41.3984567" lon="0.77245"><ele>542.0</ele><time>2026-04-19T06:44:58.965Z</time></trkpt><trkpt lat="41.3983833" lon="0.77257"><ele>542.0</ele><time>2026-04-19T06:44:59.965Z</time></trkpt><trkpt lat="41.39833" lon="0.7726867"><ele>542.0</ele><time>2026-04-19T06:45:00.966Z</time></trkpt><trkpt lat="41.3982833" lon="0.7728283"><ele>542.0</ele><time>2026-04-19T06:45:01.965Z</time></trkpt><trkpt lat="41.3982367" lon="0.7729617"><ele>542.0</ele><time>2026-04-19T06:45:02.966Z</time></trkpt><trkpt lat="41.3982033" lon="0.7731067"><ele>542.0</ele><time>2026-04-19T06:45:03.965Z</time></trkpt><trkpt lat="41.3981833" lon="0.7732583"><ele>541.2</ele><time>2026-04-19T06:45:04.966Z</time></trkpt><trkpt lat="41.39817" lon="0.7734017"><ele>540.4000000000001</ele><time>2026-04-19T06:45:05.966Z</time></trkpt><trkpt lat="41.3981417" lon="0.7735417"><ele>539.5999999999999</ele><time>2026-04-19T06:45:06.965Z</time></trkpt><trkpt lat="41.3980867" lon="0.773665"><ele>538.8</ele><time>2026-04-19T06:45:07.966Z</time></trkpt><trkpt lat="41.39801" lon="0.7737633"><ele>538.0</ele><time>2026-04-19T06:45:08.965Z</time></trkpt><trkpt lat="41.397915" lon="0.7738283"><ele>537.75</ele><time>2026-04-19T06:45:09.965Z</time></trkpt><trkpt lat="41.397805" lon="0.7738533"><ele>537.5</ele><time>2026-04-19T06:45:10.965Z</time></trkpt><trkpt lat="41.397685" lon="0.773855"><ele>537.25</ele><time>2026-04-19T06:45:11.966Z</time></trkpt><trkpt lat="41.397565" lon="0.77384"><ele>537.0</ele><time>2026-04-19T06:45:12.966Z</time></trkpt><trkpt lat="41.3974517" lon="0.7738233"><ele>537.0</ele><time>2026-04-19T06:45:13.966Z</time></trkpt><trkpt lat="41.3973467" lon="0.773815"><ele>537.0</ele><time>2026-04-19T06:45:14.965Z</time></trkpt><trkpt lat="41.3972417" lon="0.773815"><ele>537.0</ele><time>2026-04-19T06:45:15.965Z</time></trkpt><trkpt lat="41.3971367" lon="0.7738383"><ele>537.0</ele><time>2026-04-19T06:45:16.965Z</time></trkpt><trkpt lat="41.3970367" lon="0.7738883"><ele>537.0</ele><time>2026-04-19T06:45:17.966Z</time></trkpt><trkpt lat="41.3969433" lon="0.77397"><ele>537.6</ele><time>2026-04-19T06:45:18.965Z</time></trkpt><trkpt lat="41.396855" lon="0.774065"><ele>538.2</ele><time>2026-04-19T06:45:19.966Z</time></trkpt><trkpt lat="41.396775" lon="0.7741783"><ele>538.8</ele><time>2026-04-19T06:45:20.966Z</time></trkpt><trkpt lat="41.3967067" lon="0.7742717"><ele>539.4</ele><time>2026-04-19T06:45:21.965Z</time></trkpt><trkpt lat="41.3966467" lon="0.7743683"><ele>540.0</ele><time>2026-04-19T06:45:22.966Z</time></trkpt><trkpt lat="41.3965967" lon="0.774465"><ele>540.0</ele><time>2026-04-19T06:45:23.965Z</time></trkpt><trkpt lat="41.3965383" lon="0.7745717"><ele>540.0</ele><time>2026-04-19T06:45:24.966Z</time></trkpt><trkpt lat="41.3964733" lon="0.7746817"><ele>540.0</ele><time>2026-04-19T06:45:25.966Z</time></trkpt><trkpt lat="41.39639" lon="0.774785"><ele>540.0</ele><time>2026-04-19T06:45:26.965Z</time></trkpt><trkpt lat="41.396305" lon="0.7748783"><ele>540.0</ele><time>2026-04-19T06:45:27.966Z</time></trkpt><trkpt lat="41.3962133" lon="0.7749617"><ele>541.2</ele><time>2026-04-19T06:45:28.965Z</time></trkpt><trkpt lat="41.3961167" lon="0.775045"><ele>542.4</ele><time>2026-04-19T06:45:29.966Z</time></trkpt><trkpt lat="41.3960267" lon="0.7751333"><ele>543.6</ele><time>2026-04-19T06:45:30.965Z</time></trkpt><trkpt lat="41.3959417" lon="0.7752133"><ele>544.8</ele><time>2026-04-19T06:45:31.966Z</time></trkpt><trkpt lat="41.3958583" lon="0.7752783"><ele>546.0</ele><time>2026-04-19T06:45:32.965Z</time></trkpt><trkpt lat="41.395775" lon="0.7753317"><ele>546.0</ele><time>2026-04-19T06:45:33.965Z</time></trkpt><trkpt lat="41.3956767" lon="0.77539"><ele>546.0</ele><time>2026-04-19T06:45:34.965Z</time></trkpt><trkpt lat="41.3955783" lon="0.7754283"><ele>546.0</ele><time>2026-04-19T06:45:35.966Z</time></trkpt><trkpt lat="41.395485" lon="0.77546"><ele>546.0</ele><time>2026-04-19T06:45:36.966Z</time></trkpt><trkpt lat="41.39538" lon="0.775485"><ele>546.0</ele><time>2026-04-19T06:45:37.965Z</time></trkpt><trkpt lat="41.39527" lon="0.7754967"><ele>546.6</ele><time>2026-04-19T06:45:38.965Z</time></trkpt><trkpt lat="41.3951517" lon="0.7755017"><ele>547.2</ele><time>2026-04-19T06:45:39.966Z</time></trkpt><trkpt lat="41.3950417" lon="0.7755067"><ele>547.8</ele><time>2026-04-19T06:45:40.966Z</time></trkpt><trkpt lat="41.39495" lon="0.7755"><ele>548.4</ele><time>2026-04-19T06:45:41.966Z</time></trkpt><trkpt lat="41.3948483" lon="0.7755383"><ele>549.0</ele><time>2026-04-19T06:45:42.966Z</time></trkpt><trkpt lat="41.394755" lon="0.775605"><ele>548.75</ele><time>2026-04-19T06:45:43.966Z</time></trkpt><trkpt lat="41.39467" lon="0.7757167"><ele>548.5</ele><time>2026-04-19T06:45:44.965Z</time></trkpt><trkpt lat="41.3946133" lon="0.7758483"><ele>548.25</ele><time>2026-04-19T06:45:45.965Z</time></trkpt><trkpt lat="41.3945883" lon="0.775995"><ele>548.0</ele><time>2026-04-19T06:45:46.965Z</time></trkpt><trkpt lat="41.3945933" lon="0.7761333"><ele>548.0</ele><time>2026-04-19T06:45:47.965Z</time></trkpt><trkpt lat="41.39458" lon="0.7762867"><ele>548.0</ele><time>2026-04-19T06:45:48.966Z</time></trkpt><trkpt lat="41.3945633" lon="0.776425"><ele>548.0</ele><time>2026-04-19T06:45:49.966Z</time></trkpt><trkpt lat="41.3945183" lon="0.7765533"><ele>548.0</ele><time>2026-04-19T06:45:50.965Z</time></trkpt><trkpt lat="41.3944517" lon="0.77666"><ele>548.0</ele><time>2026-04-19T06:45:51.965Z</time></trkpt><trkpt lat="41.394375" lon="0.7767433"><ele>548.0</ele><time>2026-04-19T06:45:52.966Z</time></trkpt><trkpt lat="41.3942867" lon="0.7767967"><ele>548.0</ele><time>2026-04-19T06:45:53.965Z</time></trkpt><trkpt lat="41.394205" lon="0.77681"><ele>548.0</ele><time>2026-04-19T06:45:54.966Z</time></trkpt><trkpt lat="41.39412" lon="0.77683"><ele>548.0</ele><time>2026-04-19T06:45:55.966Z</time></trkpt><trkpt lat="41.394045" lon="0.776855"><ele>548.0</ele><time>2026-04-19T06:45:56.966Z</time></trkpt><trkpt lat="41.3939867" lon="0.7768883"><ele>548.0</ele><time>2026-04-19T06:45:57.966Z</time></trkpt><trkpt lat="41.393925" lon="0.77694"><ele>548.3333333333333</ele><time>2026-04-19T06:45:59.966Z</time></trkpt><trkpt lat="41.3938917" lon="0.7770267"><ele>548.6666666666666</ele><time>2026-04-19T06:46:27.965Z</time></trkpt><trkpt lat="41.393815" lon="0.7771517"><ele>549.0</ele><time>2026-04-19T06:46:29.966Z</time></trkpt><trkpt lat="41.3937717" lon="0.7772317"><ele>549.3333333333334</ele><time>2026-04-19T06:46:30.966Z</time></trkpt><trkpt lat="41.3937183" lon="0.7773117"><ele>549.6666666666667</ele><time>2026-04-19T06:46:31.965Z</time></trkpt><trkpt lat="41.3936567" lon="0.777385"><ele>550.0</ele><time>2026-04-19T06:46:32.965Z</time></trkpt><trkpt lat="41.3935967" lon="0.7774517"><ele>550.0</ele><time>2026-04-19T06:46:33.966Z</time></trkpt><trkpt lat="41.3935267" lon="0.777515"><ele>550.0</ele><time>2026-04-19T06:46:34.966Z</time></trkpt><trkpt lat="41.39346" lon="0.7775883"><ele>550.0</ele><time>2026-04-19T06:46:35.966Z</time></trkpt><trkpt lat="41.3933917" lon="0.7776633"><ele>550.0</ele><time>2026-04-19T06:46:36.965Z</time></trkpt><trkpt lat="41.3933317" lon="0.7777217"><ele>550.0</ele><time>2026-04-19T06:46:37.965Z</time></trkpt><trkpt lat="41.3932533" lon="0.777795"><ele>550.0</ele><time>2026-04-19T06:46:38.965Z</time></trkpt><trkpt lat="41.39317" lon="0.7778667"><ele>551.0</ele><time>2026-04-19T06:46:39.965Z</time></trkpt><trkpt lat="41.3930767" lon="0.7779533"><ele>552.0</ele><time>2026-04-19T06:46:40.965Z</time></trkpt><trkpt lat="41.3929967" lon="0.77804"><ele>553.0</ele><time>2026-04-19T06:46:41.965Z</time></trkpt><trkpt lat="41.3929167" lon="0.7781267"><ele>554.0</ele><time>2026-04-19T06:46:42.965Z</time></trkpt><trkpt lat="41.3928417" lon="0.77822"><ele>555.0</ele><time>2026-04-19T06:46:43.965Z</time></trkpt><trkpt lat="41.3927733" lon="0.77833"><ele>555.0</ele><time>2026-04-19T06:46:44.966Z</time></trkpt><trkpt lat="41.39272" lon="0.7784517"><ele>555.0</ele><time>2026-04-19T06:46:45.965Z</time></trkpt><trkpt lat="41.3926683" lon="0.7785767"><ele>555.0</ele><time>2026-04-19T06:46:46.966Z</time></trkpt><trkpt lat="41.39262" lon="0.7787067"><ele>555.0</ele><time>2026-04-19T06:46:47.965Z</time></trkpt><trkpt lat="41.3925667" lon="0.7788483"><ele>555.0</ele><time>2026-04-19T06:46:48.966Z</time></trkpt><trkpt lat="41.3925283" lon="0.7789783"><ele>556.0</ele><time>2026-04-19T06:46:49.966Z</time></trkpt><trkpt lat="41.3924783" lon="0.7791"><ele>557.0</ele><time>2026-04-19T06:46:50.966Z</time></trkpt><trkpt lat="41.39243" lon="0.7792167"><ele>558.0</ele><time>2026-04-19T06:46:51.966Z</time></trkpt><trkpt lat="41.39239" lon="0.77934"><ele>559.0</ele><time>2026-04-19T06:46:52.966Z</time></trkpt><trkpt lat="41.392345" lon="0.7794683"><ele>560.0</ele><time>2026-04-19T06:46:53.966Z</time></trkpt><trkpt lat="41.3923017" lon="0.7796067"><ele>560.4</ele><time>2026-04-19T06:46:54.966Z</time></trkpt><trkpt lat="41.3922567" lon="0.7797417"><ele>560.8</ele><time>2026-04-19T06:46:55.965Z</time></trkpt><trkpt lat="41.3922067" lon="0.7798617"><ele>561.2</ele><time>2026-04-19T06:46:56.965Z</time></trkpt><trkpt lat="41.3921433" lon="0.7799783"><ele>561.6</ele><time>2026-04-19T06:46:57.966Z</time></trkpt><trkpt lat="41.39206" lon="0.7800817"><ele>562.0</ele><time>2026-04-19T06:46:58.966Z</time></trkpt><trkpt lat="41.39198" lon="0.7801767"><ele>562.8333333333334</ele><time>2026-04-19T06:46:59.966Z</time></trkpt><trkpt lat="41.3919067" lon="0.7802617"><ele>563.6666666666667</ele><time>2026-04-19T06:47:00.965Z</time></trkpt><trkpt lat="41.3918367" lon="0.780335"><ele>564.5</ele><time>2026-04-19T06:47:01.965Z</time></trkpt><trkpt lat="41.3917717" lon="0.7804117"><ele>565.3333333333334</ele><time>2026-04-19T06:47:02.965Z</time></trkpt><trkpt lat="41.39171" lon="0.78049"><ele>566.1666666666666</ele><time>2026-04-19T06:47:03.965Z</time></trkpt><trkpt lat="41.39166" lon="0.7805733"><ele>567.0</ele><time>2026-04-19T06:47:04.965Z</time></trkpt><trkpt lat="41.3915933" lon="0.78067"><ele>567.0</ele><time>2026-04-19T06:47:05.966Z</time></trkpt><trkpt lat="41.3915333" lon="0.7807683"><ele>567.0</ele><time>2026-04-19T06:47:06.965Z</time></trkpt><trkpt lat="41.3914767" lon="0.7808617"><ele>567.0</ele><time>2026-04-19T06:47:07.965Z</time></trkpt><trkpt lat="41.3914167" lon="0.7809533"><ele>567.0</ele><time>2026-04-19T06:47:08.965Z</time></trkpt><trkpt lat="41.39137" lon="0.7810333"><ele>567.0</ele><time>2026-04-19T06:47:09.966Z</time></trkpt><trkpt lat="41.3913067" lon="0.7811267"><ele>567.0</ele><time>2026-04-19T06:47:10.965Z</time></trkpt><trkpt lat="41.391235" lon="0.7812083"><ele>567.1666666666666</ele><time>2026-04-19T06:47:11.965Z</time></trkpt><trkpt lat="41.3911633" lon="0.78129"><ele>567.3333333333334</ele><time>2026-04-19T06:47:12.966Z</time></trkpt><trkpt lat="41.39109" lon="0.7813667"><ele>567.5</ele><time>2026-04-19T06:47:13.966Z</time></trkpt><trkpt lat="41.3910217" lon="0.7814417"><ele>567.6666666666667</ele><time>2026-04-19T06:47:14.965Z</time></trkpt><trkpt lat="41.3909633" lon="0.781515"><ele>567.8333333333334</ele><time>2026-04-19T06:47:15.965Z</time></trkpt><trkpt lat="41.3908983" lon="0.781585"><ele>568.0</ele><time>2026-04-19T06:47:16.966Z</time></trkpt><trkpt lat="41.3908217" lon="0.7816583"><ele>568.0</ele><time>2026-04-19T06:47:17.966Z</time></trkpt><trkpt lat="41.3907433" lon="0.7817167"><ele>568.0</ele><time>2026-04-19T06:47:18.966Z</time></trkpt><trkpt lat="41.39067" lon="0.781775"><ele>568.0</ele><time>2026-04-19T06:47:19.966Z</time></trkpt><trkpt lat="41.3905917" lon="0.7818333"><ele>568.0</ele><time>2026-04-19T06:47:20.965Z</time></trkpt><trkpt lat="41.3905033" lon="0.7818833"><ele>568.0</ele><time>2026-04-19T06:47:21.965Z</time></trkpt><trkpt lat="41.3904183" lon="0.7819383"><ele>568.1999999999999</ele><time>2026-04-19T06:47:22.965Z</time></trkpt><trkpt lat="41.3903383" lon="0.78199"><ele>568.4</ele><time>2026-04-19T06:47:23.966Z</time></trkpt><trkpt lat="41.3902567" lon="0.7820433"><ele>568.5999999999999</ele><time>2026-04-19T06:47:24.965Z</time></trkpt><trkpt lat="41.39018" lon="0.7820983"><ele>568.8</ele><time>2026-04-19T06:47:25.965Z</time></trkpt><trkpt lat="41.3900967" lon="0.7821683"><ele>569.0</ele><time>2026-04-19T06:47:26.965Z</time></trkpt><trkpt lat="41.390015" lon="0.7822417"><ele>569.0</ele><time>2026-04-19T06:47:27.966Z</time></trkpt><trkpt lat="41.3899383" lon="0.7823067"><ele>569.0</ele><time>2026-04-19T06:47:28.965Z</time></trkpt><trkpt lat="41.3898533" lon="0.782365"><ele>569.0</ele><time>2026-04-19T06:47:29.966Z</time></trkpt><trkpt lat="41.3897617" lon="0.78239"><ele>569.0</ele><time>2026-04-19T06:47:30.966Z</time></trkpt><trkpt lat="41.3896683" lon="0.7823833"><ele>569.0</ele><time>2026-04-19T06:47:31.966Z</time></trkpt><trkpt lat="41.38959" lon="0.7823217"><ele>569.2</ele><time>2026-04-19T06:47:32.966Z</time></trkpt><trkpt lat="41.389525" lon="0.7822233"><ele>569.4</ele><time>2026-04-19T06:47:33.966Z</time></trkpt><trkpt lat="41.3894717" lon="0.7821183"><ele>569.6</ele><time>2026-04-19T06:47:34.966Z</time></trkpt><trkpt lat="41.389445" lon="0.7819933"><ele>569.8</ele><time>2026-04-19T06:47:35.966Z</time></trkpt><trkpt lat="41.389455" lon="0.781855"><ele>570.0</ele><time>2026-04-19T06:47:36.965Z</time></trkpt><trkpt lat="41.3894617" lon="0.78172"><ele>570.0</ele><time>2026-04-19T06:47:37.965Z</time></trkpt><trkpt lat="41.3894483" lon="0.7815917"><ele>570.0</ele><time>2026-04-19T06:47:38.965Z</time></trkpt><trkpt lat="41.389415" lon="0.78149"><ele>570.0</ele><time>2026-04-19T06:47:39.965Z</time></trkpt><trkpt lat="41.389365" lon="0.78139"><ele>570.0</ele><time>2026-04-19T06:47:40.966Z</time></trkpt><trkpt lat="41.3893067" lon="0.781295"><ele>570.0</ele><time>2026-04-19T06:47:41.965Z</time></trkpt><trkpt lat="41.3892433" lon="0.78119"><ele>570.0</ele><time>2026-04-19T06:47:42.966Z</time></trkpt><trkpt lat="41.3891783" lon="0.7810783"><ele>570.0</ele><time>2026-04-19T06:47:43.966Z</time></trkpt><trkpt lat="41.38912" lon="0.7809667"><ele>570.0</ele><time>2026-04-19T06:47:44.966Z</time></trkpt><trkpt lat="41.38906" lon="0.7808617"><ele>570.0</ele><time>2026-04-19T06:47:45.966Z</time></trkpt><trkpt lat="41.389005" lon="0.7807583"><ele>570.0</ele><time>2026-04-19T06:47:46.966Z</time></trkpt><trkpt lat="41.3889517" lon="0.78065"><ele>570.6</ele><time>2026-04-19T06:47:47.966Z</time></trkpt><trkpt lat="41.3888933" lon="0.7805483"><ele>571.2</ele><time>2026-04-19T06:47:48.965Z</time></trkpt><trkpt lat="41.3888267" lon="0.7804583"><ele>571.8</ele><time>2026-04-19T06:47:49.965Z</time></trkpt><trkpt lat="41.3887533" lon="0.7803717"><ele>572.4</ele><time>2026-04-19T06:47:50.966Z</time></trkpt><trkpt lat="41.3886733" lon="0.7802883"><ele>573.0</ele><time>2026-04-19T06:47:51.965Z</time></trkpt><trkpt lat="41.3885817" lon="0.7802167"><ele>573.0</ele><time>2026-04-19T06:47:52.965Z</time></trkpt><trkpt lat="41.38849" lon="0.7801383"><ele>573.0</ele><time>2026-04-19T06:47:53.966Z</time></trkpt><trkpt lat="41.3883983" lon="0.7800533"><ele>573.0</ele><time>2026-04-19T06:47:54.965Z</time></trkpt><trkpt lat="41.3883167" lon="0.7799683"><ele>573.0</ele><time>2026-04-19T06:47:55.965Z</time></trkpt><trkpt lat="41.3882417" lon="0.77988"><ele>573.0</ele><time>2026-04-19T06:47:56.966Z</time></trkpt><trkpt lat="41.3881667" lon="0.7797983"><ele>573.0</ele><time>2026-04-19T06:47:57.966Z</time></trkpt><trkpt lat="41.388095" lon="0.77973"><ele>573.0</ele><time>2026-04-19T06:47:58.965Z</time></trkpt><trkpt lat="41.3880233" lon="0.7796933"><ele>573.0</ele><time>2026-04-19T06:47:59.965Z</time></trkpt><trkpt lat="41.3879483" lon="0.77967"><ele>573.0</ele><time>2026-04-19T06:48:00.966Z</time></trkpt><trkpt lat="41.3878733" lon="0.7796683"><ele>573.0</ele><time>2026-04-19T06:48:01.965Z</time></trkpt><trkpt lat="41.3877917" lon="0.779675"><ele>573.0</ele><time>2026-04-19T06:48:02.966Z</time></trkpt><trkpt lat="41.38772" lon="0.77974"><ele>573.5</ele><time>2026-04-19T06:48:03.966Z</time></trkpt><trkpt lat="41.3876333" lon="0.77985"><ele>574.0</ele><time>2026-04-19T06:48:04.966Z</time></trkpt><trkpt lat="41.387525" lon="0.779955"><ele>574.5</ele><time>2026-04-19T06:48:05.966Z</time></trkpt><trkpt lat="41.3874167" lon="0.7800317"><ele>575.0</ele><time>2026-04-19T06:48:06.965Z</time></trkpt><trkpt lat="41.3873083" lon="0.780075"><ele>575.0</ele><time>2026-04-19T06:48:07.966Z</time></trkpt><trkpt lat="41.38719" lon="0.780085"><ele>575.0</ele><time>2026-04-19T06:48:08.966Z</time></trkpt><trkpt lat="41.387065" lon="0.780065"><ele>575.0</ele><time>2026-04-19T06:48:09.965Z</time></trkpt><trkpt lat="41.3869583" lon="0.7800267"><ele>575.0</ele><time>2026-04-19T06:48:10.966Z</time></trkpt><trkpt lat="41.3868583" lon="0.77999"><ele>574.25</ele><time>2026-04-19T06:48:11.966Z</time></trkpt><trkpt lat="41.3867467" lon="0.7799567"><ele>573.5</ele><time>2026-04-19T06:48:12.965Z</time></trkpt><trkpt lat="41.386635" lon="0.7799267"><ele>572.75</ele><time>2026-04-19T06:48:13.966Z</time></trkpt><trkpt lat="41.38652" lon="0.7799417"><ele>572.0</ele><time>2026-04-19T06:48:14.966Z</time></trkpt><trkpt lat="41.38641" lon="0.7799533"><ele>571.0</ele><time>2026-04-19T06:48:15.965Z</time></trkpt><trkpt lat="41.3862983" lon="0.779975"><ele>570.0</ele><time>2026-04-19T06:48:16.966Z</time></trkpt><trkpt lat="41.3861883" lon="0.7800267"><ele>569.0</ele><time>2026-04-19T06:48:17.965Z</time></trkpt><trkpt lat="41.386105" lon="0.7801333"><ele>568.0</ele><time>2026-04-19T06:48:18.966Z</time></trkpt><trkpt lat="41.386025" lon="0.7802417"><ele>568.0</ele><time>2026-04-19T06:48:19.966Z</time></trkpt><trkpt lat="41.3859517" lon="0.7803583"><ele>568.0</ele><time>2026-04-19T06:48:20.965Z</time></trkpt><trkpt lat="41.3858683" lon="0.780455"><ele>568.0</ele><time>2026-04-19T06:48:21.965Z</time></trkpt><trkpt lat="41.3857817" lon="0.780515"><ele>568.0</ele><time>2026-04-19T06:48:22.966Z</time></trkpt><trkpt lat="41.38569" lon="0.780545"><ele>568.0</ele><time>2026-04-19T06:48:23.965Z</time></trkpt><trkpt lat="41.38559" lon="0.7805383"><ele>567.8</ele><time>2026-04-19T06:48:24.966Z</time></trkpt><trkpt lat="41.3854933" lon="0.78049"><ele>567.5999999999999</ele><time>2026-04-19T06:48:25.965Z</time></trkpt><trkpt lat="41.3853967" lon="0.78044"><ele>567.4000000000001</ele><time>2026-04-19T06:48:26.965Z</time></trkpt><trkpt lat="41.38531" lon="0.7803733"><ele>567.2</ele><time>2026-04-19T06:48:27.965Z</time></trkpt><trkpt lat="41.38522" lon="0.7803083"><ele>567.0</ele><time>2026-04-19T06:48:28.965Z</time></trkpt><trkpt lat="41.3851517" lon="0.7802117"><ele>569.0</ele><time>2026-04-19T06:48:29.966Z</time></trkpt><trkpt lat="41.38509" lon="0.7801133"><ele>571.0</ele><time>2026-04-19T06:48:30.966Z</time></trkpt><trkpt lat="41.38504" lon="0.780005"><ele>573.0</ele><time>2026-04-19T06:48:31.965Z</time></trkpt><trkpt lat="41.3849967" lon="0.7799"><ele>575.0</ele><time>2026-04-19T06:48:32.965Z</time></trkpt><trkpt lat="41.3849583" lon="0.7798033"><ele>577.0</ele><time>2026-04-19T06:48:33.965Z</time></trkpt><trkpt lat="41.3849367" lon="0.7797033"><ele>579.0</ele><time>2026-04-19T06:48:34.965Z</time></trkpt><trkpt lat="41.38491" lon="0.7796083"><ele>579.0</ele><time>2026-04-19T06:48:35.965Z</time></trkpt><trkpt lat="41.3848533" lon="0.7795283"><ele>579.0</ele><time>2026-04-19T06:48:36.966Z</time></trkpt><trkpt lat="41.384785" lon="0.7794467"><ele>579.0</ele><time>2026-04-19T06:48:37.966Z</time></trkpt><trkpt lat="41.3846983" lon="0.7793767"><ele>579.0</ele><time>2026-04-19T06:48:38.966Z</time></trkpt><trkpt lat="41.384605" lon="0.77934"><ele>579.0</ele><time>2026-04-19T06:48:39.965Z</time></trkpt><trkpt lat="41.3845067" lon="0.779345"><ele>578.6</ele><time>2026-04-19T06:48:40.965Z</time></trkpt><trkpt lat="41.3844017" lon="0.7793817"><ele>578.2</ele><time>2026-04-19T06:48:41.965Z</time></trkpt><trkpt lat="41.3843" lon="0.7794217"><ele>577.8000000000001</ele><time>2026-04-19T06:48:42.966Z</time></trkpt><trkpt lat="41.3841967" lon="0.7794667"><ele>577.4</ele><time>2026-04-19T06:48:43.966Z</time></trkpt><trkpt lat="41.3841083" lon="0.7795117"><ele>577.0</ele><time>2026-04-19T06:48:44.965Z</time></trkpt><trkpt lat="41.3840133" lon="0.77955"><ele>577.0</ele><time>2026-04-19T06:48:45.965Z</time></trkpt><trkpt lat="41.383915" lon="0.7795917"><ele>577.0</ele><time>2026-04-19T06:48:46.966Z</time></trkpt><trkpt lat="41.3838133" lon="0.77963"><ele>577.0</ele><time>2026-04-19T06:48:47.965Z</time></trkpt><trkpt lat="41.3837183" lon="0.779675"><ele>577.0</ele><time>2026-04-19T06:48:48.966Z</time></trkpt><trkpt lat="41.3836233" lon="0.7797117"><ele>577.0</ele><time>2026-04-19T06:48:49.966Z</time></trkpt><trkpt lat="41.3835267" lon="0.7797417"><ele>578.8000000000001</ele><time>2026-04-19T06:48:50.965Z</time></trkpt><trkpt lat="41.383425" lon="0.7797683"><ele>580.6</ele><time>2026-04-19T06:48:51.966Z</time></trkpt><trkpt lat="41.383325" lon="0.7797833"><ele>582.4000000000001</ele><time>2026-04-19T06:48:52.966Z</time></trkpt><trkpt lat="41.38323" lon="0.7797883"><ele>584.2</ele><time>2026-04-19T06:48:53.966Z</time></trkpt><trkpt lat="41.38314" lon="0.7797783"><ele>586.0</ele><time>2026-04-19T06:48:54.967Z</time></trkpt><trkpt lat="41.3830517" lon="0.77978"><ele>586.6666666666667</ele><time>2026-04-19T06:48:55.967Z</time></trkpt><trkpt lat="41.3829617" lon="0.7797867"><ele>587.3333333333334</ele><time>2026-04-19T06:48:56.967Z</time></trkpt><trkpt lat="41.38288" lon="0.77981"><ele>588.0</ele><time>2026-04-19T06:48:57.967Z</time></trkpt><trkpt lat="41.382795" lon="0.7798433"><ele>588.6666666666666</ele><time>2026-04-19T06:48:58.967Z</time></trkpt><trkpt lat="41.3827183" lon="0.7799017"><ele>589.3333333333333</ele><time>2026-04-19T06:48:59.966Z</time></trkpt><trkpt lat="41.382645" lon="0.7799667"><ele>590.0</ele><time>2026-04-19T06:49:00.967Z</time></trkpt><trkpt lat="41.38257" lon="0.7800467"><ele>590.0</ele><time>2026-04-19T06:49:01.967Z</time></trkpt><trkpt lat="41.3825117" lon="0.7801517"><ele>590.0</ele><time>2026-04-19T06:49:02.966Z</time></trkpt><trkpt lat="41.3824567" lon="0.7802733"><ele>590.0</ele><time>2026-04-19T06:49:03.967Z</time></trkpt><trkpt lat="41.3824067" lon="0.780355"><ele>590.0</ele><time>2026-04-19T06:49:04.966Z</time></trkpt><trkpt lat="41.3823467" lon="0.780435"><ele>590.0</ele><time>2026-04-19T06:49:05.967Z</time></trkpt><trkpt lat="41.3822717" lon="0.7804967"><ele>590.5</ele><time>2026-04-19T06:49:06.966Z</time></trkpt><trkpt lat="41.38221" lon="0.7805217"><ele>591.0</ele><time>2026-04-19T06:49:07.967Z</time></trkpt><trkpt lat="41.38213" lon="0.7805567"><ele>591.5</ele><time>2026-04-19T06:49:08.966Z</time></trkpt><trkpt lat="41.3820533" lon="0.78059"><ele>592.0</ele><time>2026-04-19T06:49:09.967Z</time></trkpt><trkpt lat="41.3819783" lon="0.7806217"><ele>592.5</ele><time>2026-04-19T06:49:10.966Z</time></trkpt><trkpt lat="41.3819083" lon="0.7806633"><ele>593.0</ele><time>2026-04-19T06:49:11.966Z</time></trkpt><trkpt lat="41.3818317" lon="0.7807117"><ele>594.0</ele><time>2026-04-19T06:49:12.966Z</time></trkpt><trkpt lat="41.3817567" lon="0.7807767"><ele>595.0</ele><time>2026-04-19T06:49:13.966Z</time></trkpt><trkpt lat="41.3816833" lon="0.7808517"><ele>596.0</ele><time>2026-04-19T06:49:14.967Z</time></trkpt><trkpt lat="41.3816083" lon="0.78093"><ele>597.0</ele><time>2026-04-19T06:49:15.966Z</time></trkpt><trkpt lat="41.381535" lon="0.781"><ele>598.0</ele><time>2026-04-19T06:49:16.966Z</time></trkpt><trkpt lat="41.3814617" lon="0.781055"><ele>598.8333333333334</ele><time>2026-04-19T06:49:17.966Z</time></trkpt><trkpt lat="41.3814" lon="0.7810817"><ele>599.6666666666667</ele><time>2026-04-19T06:49:18.966Z</time></trkpt><trkpt lat="41.38132" lon="0.7811133"><ele>600.5</ele><time>2026-04-19T06:49:19.966Z</time></trkpt><trkpt lat="41.3812317" lon="0.781125"><ele>601.3333333333334</ele><time>2026-04-19T06:49:20.966Z</time></trkpt><trkpt lat="41.3811433" lon="0.7811333"><ele>602.1666666666666</ele><time>2026-04-19T06:49:21.966Z</time></trkpt><trkpt lat="41.381055" lon="0.7811467"><ele>603.0</ele><time>2026-04-19T06:49:22.967Z</time></trkpt><trkpt lat="41.3809767" lon="0.7811733"><ele>604.3333333333334</ele><time>2026-04-19T06:49:23.967Z</time></trkpt><trkpt lat="41.3808883" lon="0.7812067"><ele>605.6666666666666</ele><time>2026-04-19T06:49:24.967Z</time></trkpt><trkpt lat="41.38081" lon="0.7812517"><ele>607.0</ele><time>2026-04-19T06:49:25.967Z</time></trkpt><trkpt lat="41.3807333" lon="0.7813117"><ele>608.3333333333333</ele><time>2026-04-19T06:49:26.967Z</time></trkpt><trkpt lat="41.3806583" lon="0.7813767"><ele>609.6666666666666</ele><time>2026-04-19T06:49:27.967Z</time></trkpt><trkpt lat="41.3805883" lon="0.7814333"><ele>611.0</ele><time>2026-04-19T06:49:28.967Z</time></trkpt><trkpt lat="41.3805333" lon="0.7814867"><ele>611.3333333333333</ele><time>2026-04-19T06:49:29.967Z</time></trkpt><trkpt lat="41.3804617" lon="0.7815417"><ele>611.6666666666666</ele><time>2026-04-19T06:49:30.967Z</time></trkpt><trkpt lat="41.3803933" lon="0.7815967"><ele>612.0</ele><time>2026-04-19T06:49:31.967Z</time></trkpt><trkpt lat="41.3803417" lon="0.7816717"><ele>612.3333333333334</ele><time>2026-04-19T06:49:32.967Z</time></trkpt><trkpt lat="41.3802883" lon="0.7817883"><ele>612.6666666666667</ele><time>2026-04-19T06:49:33.967Z</time></trkpt><trkpt lat="41.3802383" lon="0.7819017"><ele>613.0</ele><time>2026-04-19T06:49:34.966Z</time></trkpt><trkpt lat="41.3802017" lon="0.7820133"><ele>613.1999999999999</ele><time>2026-04-19T06:49:35.966Z</time></trkpt><trkpt lat="41.3801767" lon="0.7821217"><ele>613.4</ele><time>2026-04-19T06:49:36.966Z</time></trkpt><trkpt lat="41.3801467" lon="0.782235"><ele>613.5999999999999</ele><time>2026-04-19T06:49:37.967Z</time></trkpt><trkpt lat="41.3801167" lon="0.7823733"><ele>613.8</ele><time>2026-04-19T06:49:38.967Z</time></trkpt><trkpt lat="41.3800567" lon="0.7825083"><ele>614.0</ele><time>2026-04-19T06:49:39.966Z</time></trkpt><trkpt lat="41.3799717" lon="0.7826333"><ele>613.8</ele><time>2026-04-19T06:49:40.967Z</time></trkpt><trkpt lat="41.37988" lon="0.782745"><ele>613.5999999999999</ele><time>2026-04-19T06:49:41.966Z</time></trkpt><trkpt lat="41.3797867" lon="0.7828467"><ele>613.4</ele><time>2026-04-19T06:49:42.966Z</time></trkpt><trkpt lat="41.379705" lon="0.782915"><ele>613.1999999999999</ele><time>2026-04-19T06:49:43.966Z</time></trkpt><trkpt lat="41.379625" lon="0.78298"><ele>613.0</ele><time>2026-04-19T06:49:44.967Z</time></trkpt><trkpt lat="41.379555" lon="0.7830417"><ele>613.0</ele><time>2026-04-19T06:49:45.966Z</time></trkpt><trkpt lat="41.3794733" lon="0.7830983"><ele>613.0</ele><time>2026-04-19T06:49:46.967Z</time></trkpt><trkpt lat="41.3793817" lon="0.7831617"><ele>613.0</ele><time>2026-04-19T06:49:47.967Z</time></trkpt><trkpt lat="41.37929" lon="0.7832267"><ele>613.0</ele><time>2026-04-19T06:49:48.966Z</time></trkpt><trkpt lat="41.3792" lon="0.7832917"><ele>613.0</ele><time>2026-04-19T06:49:49.967Z</time></trkpt><trkpt lat="41.3791133" lon="0.78335"><ele>613.0</ele><time>2026-04-19T06:49:50.966Z</time></trkpt><trkpt lat="41.3790217" lon="0.78341"><ele>613.0</ele><time>2026-04-19T06:49:51.966Z</time></trkpt><trkpt lat="41.37893" lon="0.7834633"><ele>613.0</ele><time>2026-04-19T06:49:52.967Z</time></trkpt><trkpt lat="41.3788283" lon="0.7834917"><ele>613.0</ele><time>2026-04-19T06:49:53.967Z</time></trkpt><trkpt lat="41.3787233" lon="0.7834817"><ele>613.0</ele><time>2026-04-19T06:49:54.967Z</time></trkpt><trkpt lat="41.37862" lon="0.78346"><ele>613.4</ele><time>2026-04-19T06:49:55.966Z</time></trkpt><trkpt lat="41.3785117" lon="0.7834467"><ele>613.8</ele><time>2026-04-19T06:49:56.967Z</time></trkpt><trkpt lat="41.3783967" lon="0.7834483"><ele>614.2</ele><time>2026-04-19T06:49:57.966Z</time></trkpt><trkpt lat="41.3782967" lon="0.7834783"><ele>614.6</ele><time>2026-04-19T06:49:58.967Z</time></trkpt><trkpt lat="41.3782033" lon="0.7835367"><ele>615.0</ele><time>2026-04-19T06:49:59.966Z</time></trkpt><trkpt lat="41.3781117" lon="0.78361"><ele>614.5</ele><time>2026-04-19T06:50:00.967Z</time></trkpt><trkpt lat="41.378015" lon="0.7836917"><ele>614.0</ele><time>2026-04-19T06:50:01.966Z</time></trkpt><trkpt lat="41.377905" lon="0.7837733"><ele>613.5</ele><time>2026-04-19T06:50:02.967Z</time></trkpt><trkpt lat="41.3777917" lon="0.78385"><ele>613.0</ele><time>2026-04-19T06:50:03.966Z</time></trkpt><trkpt lat="41.3776817" lon="0.78391"><ele>613.0</ele><time>2026-04-19T06:50:04.967Z</time></trkpt><trkpt lat="41.3775667" lon="0.783955"><ele>613.0</ele><time>2026-04-19T06:50:05.966Z</time></trkpt><trkpt lat="41.3774667" lon="0.784025"><ele>613.0</ele><time>2026-04-19T06:50:06.967Z</time></trkpt><trkpt lat="41.377355" lon="0.7840717"><ele>613.0</ele><time>2026-04-19T06:50:07.966Z</time></trkpt><trkpt lat="41.37725" lon="0.784135"><ele>611.75</ele><time>2026-04-19T06:50:08.967Z</time></trkpt><trkpt lat="41.37714" lon="0.78418"><ele>610.5</ele><time>2026-04-19T06:50:09.966Z</time></trkpt><trkpt lat="41.3770167" lon="0.7842183"><ele>609.25</ele><time>2026-04-19T06:50:10.966Z</time></trkpt><trkpt lat="41.3768917" lon="0.7842"><ele>608.0</ele><time>2026-04-19T06:50:11.965Z</time></trkpt><trkpt lat="41.3767633" lon="0.78417"><ele>608.0</ele><time>2026-04-19T06:50:12.966Z</time></trkpt><trkpt lat="41.376635" lon="0.7841283"><ele>608.0</ele><time>2026-04-19T06:50:13.966Z</time></trkpt><trkpt lat="41.3765183" lon="0.784075"><ele>608.0</ele><time>2026-04-19T06:50:14.966Z</time></trkpt><trkpt lat="41.3764167" lon="0.7839917"><ele>608.0</ele><time>2026-04-19T06:50:15.966Z</time></trkpt><trkpt lat="41.3763233" lon="0.7839033"><ele>608.0</ele><time>2026-04-19T06:50:16.966Z</time></trkpt><trkpt lat="41.3762583" lon="0.783785"><ele>608.0</ele><time>2026-04-19T06:50:17.966Z</time></trkpt><trkpt lat="41.3761917" lon="0.7836567"><ele>608.0</ele><time>2026-04-19T06:50:18.967Z</time></trkpt><trkpt lat="41.3761583" lon="0.7835017"><ele>608.0</ele><time>2026-04-19T06:50:19.966Z</time></trkpt><trkpt lat="41.3761433" lon="0.7833367"><ele>607.5</ele><time>2026-04-19T06:50:20.967Z</time></trkpt><trkpt lat="41.3762" lon="0.7831583"><ele>607.0</ele><time>2026-04-19T06:50:21.966Z</time></trkpt><trkpt lat="41.3762733" lon="0.7829917"><ele>606.5</ele><time>2026-04-19T06:50:22.966Z</time></trkpt><trkpt lat="41.3763417" lon="0.7828267"><ele>606.0</ele><time>2026-04-19T06:50:23.967Z</time></trkpt><trkpt lat="41.37641" lon="0.7826833"><ele>604.5</ele><time>2026-04-19T06:50:24.966Z</time></trkpt><trkpt lat="41.3764633" lon="0.7825333"><ele>603.0</ele><time>2026-04-19T06:50:25.966Z</time></trkpt><trkpt lat="41.3764833" lon="0.7823567"><ele>601.5</ele><time>2026-04-19T06:50:26.966Z</time></trkpt><trkpt lat="41.3764917" lon="0.7821733"><ele>600.0</ele><time>2026-04-19T06:50:27.966Z</time></trkpt><trkpt lat="41.3764617" lon="0.7819767"><ele>598.6666666666666</ele><time>2026-04-19T06:50:28.966Z</time></trkpt><trkpt lat="41.3764483" lon="0.7817867"><ele>597.3333333333333</ele><time>2026-04-19T06:50:29.967Z</time></trkpt><trkpt lat="41.37644" lon="0.7815817"><ele>596.0</ele><time>2026-04-19T06:50:30.966Z</time></trkpt><trkpt lat="41.376475" lon="0.78138"><ele>596.0</ele><time>2026-04-19T06:50:31.966Z</time></trkpt><trkpt lat="41.37654" lon="0.78121"><ele>596.0</ele><time>2026-04-19T06:50:32.966Z</time></trkpt><trkpt lat="41.3766383" lon="0.781075"><ele>596.0</ele><time>2026-04-19T06:50:33.966Z</time></trkpt><trkpt lat="41.37672" lon="0.7809383"><ele>596.0</ele><time>2026-04-19T06:50:34.966Z</time></trkpt><trkpt lat="41.376785" lon="0.7808017"><ele>596.25</ele><time>2026-04-19T06:50:35.967Z</time></trkpt><trkpt lat="41.376845" lon="0.7806683"><ele>596.5</ele><time>2026-04-19T06:50:36.967Z</time></trkpt><trkpt lat="41.3768683" lon="0.7804967"><ele>596.75</ele><time>2026-04-19T06:50:37.966Z</time></trkpt><trkpt lat="41.37687" lon="0.7803283"><ele>597.0</ele><time>2026-04-19T06:50:38.967Z</time></trkpt><trkpt lat="41.3768617" lon="0.7801667"><ele>596.0</ele><time>2026-04-19T06:50:39.966Z</time></trkpt><trkpt lat="41.3768483" lon="0.78001"><ele>595.0</ele><time>2026-04-19T06:50:40.967Z</time></trkpt><trkpt lat="41.37685" lon="0.7798483"><ele>594.0</ele><time>2026-04-19T06:50:41.966Z</time></trkpt><trkpt lat="41.3768717" lon="0.779695"><ele>593.0</ele><time>2026-04-19T06:50:42.967Z</time></trkpt><trkpt lat="41.376885" lon="0.7795417"><ele>593.0</ele><time>2026-04-19T06:50:43.966Z</time></trkpt><trkpt lat="41.3768733" lon="0.7794033"><ele>593.0</ele><time>2026-04-19T06:50:44.967Z</time></trkpt><trkpt lat="41.3768317" lon="0.779255"><ele>593.0</ele><time>2026-04-19T06:50:45.966Z</time></trkpt><trkpt lat="41.3767567" lon="0.77911"><ele>593.0</ele><time>2026-04-19T06:50:46.967Z</time></trkpt><trkpt lat="41.37666" lon="0.7789883"><ele>592.25</ele><time>2026-04-19T06:50:47.967Z</time></trkpt><trkpt lat="41.3765467" lon="0.7789"><ele>591.5</ele><time>2026-04-19T06:50:48.966Z</time></trkpt><trkpt lat="41.3764367" lon="0.7788467"><ele>590.75</ele><time>2026-04-19T06:50:49.966Z</time></trkpt><trkpt lat="41.3762967" lon="0.7788167"><ele>590.0</ele><time>2026-04-19T06:50:50.967Z</time></trkpt><trkpt lat="41.376195" lon="0.7787667"><ele>587.8</ele><time>2026-04-19T06:50:51.967Z</time></trkpt><trkpt lat="41.3761167" lon="0.7786983"><ele>585.6</ele><time>2026-04-19T06:50:52.966Z</time></trkpt><trkpt lat="41.3760583" lon="0.7785983"><ele>583.4</ele><time>2026-04-19T06:50:53.967Z</time></trkpt><trkpt lat="41.3760267" lon="0.7784767"><ele>581.2</ele><time>2026-04-19T06:50:54.967Z</time></trkpt><trkpt lat="41.376025" lon="0.77834"><ele>579.0</ele><time>2026-04-19T06:50:55.967Z</time></trkpt><trkpt lat="41.376045" lon="0.7782117"><ele>578.3333333333334</ele><time>2026-04-19T06:50:56.966Z</time></trkpt><trkpt lat="41.3760867" lon="0.7781"><ele>577.6666666666666</ele><time>2026-04-19T06:50:57.966Z</time></trkpt><trkpt lat="41.3761517" lon="0.7779917"><ele>577.0</ele><time>2026-04-19T06:50:58.966Z</time></trkpt><trkpt lat="41.3762233" lon="0.7778967"><ele>576.3333333333333</ele><time>2026-04-19T06:50:59.967Z</time></trkpt><trkpt lat="41.376275" lon="0.7778167"><ele>575.6666666666666</ele><time>2026-04-19T06:51:00.967Z</time></trkpt><trkpt lat="41.3763117" lon="0.7777367"><ele>575.0</ele><time>2026-04-19T06:51:01.966Z</time></trkpt><trkpt lat="41.3763317" lon="0.7776367"><ele>575.0</ele><time>2026-04-19T06:51:02.966Z</time></trkpt><trkpt lat="41.3763217" lon="0.777545"><ele>575.0</ele><time>2026-04-19T06:51:03.967Z</time></trkpt><trkpt lat="41.3762133" lon="0.77748"><ele>575.0</ele><time>2026-04-19T06:51:05.967Z</time></trkpt><trkpt lat="41.37611" lon="0.7775133"><ele>575.0</ele><time>2026-04-19T06:51:06.966Z</time></trkpt><trkpt lat="41.375985" lon="0.7776117"><ele>575.0</ele><time>2026-04-19T06:51:07.966Z</time></trkpt><trkpt lat="41.3758583" lon="0.77774"><ele>575.0</ele><time>2026-04-19T06:51:08.967Z</time></trkpt><trkpt lat="41.3757467" lon="0.7778533"><ele>575.0</ele><time>2026-04-19T06:51:09.966Z</time></trkpt><trkpt lat="41.3756417" lon="0.7779517"><ele>575.0</ele><time>2026-04-19T06:51:10.967Z</time></trkpt><trkpt lat="41.3755467" lon="0.7780383"><ele>575.0</ele><time>2026-04-19T06:51:11.966Z</time></trkpt><trkpt lat="41.375465" lon="0.7781217"><ele>574.0</ele><time>2026-04-19T06:51:12.966Z</time></trkpt><trkpt lat="41.375395" lon="0.7782117"><ele>573.0</ele><time>2026-04-19T06:51:13.967Z</time></trkpt><trkpt lat="41.3753333" lon="0.77833"><ele>572.0</ele><time>2026-04-19T06:51:14.967Z</time></trkpt><trkpt lat="41.375295" lon="0.7784517"><ele>571.0</ele><time>2026-04-19T06:51:15.967Z</time></trkpt><trkpt lat="41.3752733" lon="0.77859"><ele>570.0</ele><time>2026-04-19T06:51:16.967Z</time></trkpt><trkpt lat="41.3752683" lon="0.7787483"><ele>569.0</ele><time>2026-04-19T06:51:17.967Z</time></trkpt><trkpt lat="41.3752667" lon="0.77892"><ele>568.0</ele><time>2026-04-19T06:51:18.966Z</time></trkpt><trkpt lat="41.3752633" lon="0.77908"><ele>567.0</ele><time>2026-04-19T06:51:19.967Z</time></trkpt><trkpt lat="41.375245" lon="0.7792333"><ele>566.0</ele><time>2026-04-19T06:51:20.966Z</time></trkpt><trkpt lat="41.3751983" lon="0.7793633"><ele>567.6</ele><time>2026-04-19T06:51:21.966Z</time></trkpt><trkpt lat="41.3751267" lon="0.7794667"><ele>569.2</ele><time>2026-04-19T06:51:22.967Z</time></trkpt><trkpt lat="41.37505" lon="0.7795583"><ele>570.8</ele><time>2026-04-19T06:51:23.966Z</time></trkpt><trkpt lat="41.3749633" lon="0.779635"><ele>572.4</ele><time>2026-04-19T06:51:24.967Z</time></trkpt><trkpt lat="41.3748817" lon="0.7796967"><ele>574.0</ele><time>2026-04-19T06:51:25.967Z</time></trkpt><trkpt lat="41.3747967" lon="0.77975"><ele>574.0</ele><time>2026-04-19T06:51:26.967Z</time></trkpt><trkpt lat="41.374715" lon="0.7797917"><ele>574.0</ele><time>2026-04-19T06:51:27.967Z</time></trkpt><trkpt lat="41.3746383" lon="0.7798217"><ele>574.0</ele><time>2026-04-19T06:51:28.966Z</time></trkpt><trkpt lat="41.37456" lon="0.7798267"><ele>574.0</ele><time>2026-04-19T06:51:29.967Z</time></trkpt><trkpt lat="41.374475" lon="0.779815"><ele>574.0</ele><time>2026-04-19T06:51:30.966Z</time></trkpt><trkpt lat="41.37439" lon="0.7797767"><ele>574.0</ele><time>2026-04-19T06:51:31.967Z</time></trkpt><trkpt lat="41.3743117" lon="0.7797233"><ele>573.0</ele><time>2026-04-19T06:51:32.967Z</time></trkpt><trkpt lat="41.3742533" lon="0.779625"><ele>572.0</ele><time>2026-04-19T06:51:33.966Z</time></trkpt><trkpt lat="41.37419" lon="0.77949"><ele>571.0</ele><time>2026-04-19T06:51:34.966Z</time></trkpt><trkpt lat="41.37413" lon="0.77938"><ele>570.0</ele><time>2026-04-19T06:51:35.967Z</time></trkpt><trkpt lat="41.3740583" lon="0.7793017"><ele>569.0</ele><time>2026-04-19T06:51:36.966Z</time></trkpt><trkpt lat="41.3739833" lon="0.7792417"><ele>568.1666666666666</ele><time>2026-04-19T06:51:37.966Z</time></trkpt><trkpt lat="41.3739" lon="0.7792283"><ele>567.3333333333333</ele><time>2026-04-19T06:51:38.967Z</time></trkpt><trkpt lat="41.373815" lon="0.7792367"><ele>566.5</ele><time>2026-04-19T06:51:39.967Z</time></trkpt><trkpt lat="41.373735" lon="0.7792617"><ele>565.6666666666666</ele><time>2026-04-19T06:51:40.967Z</time></trkpt><trkpt lat="41.3736617" lon="0.7792617"><ele>564.8333333333334</ele><time>2026-04-19T06:51:41.966Z</time></trkpt><trkpt lat="41.3735667" lon="0.7791883"><ele>564.0</ele><time>2026-04-19T06:51:43.967Z</time></trkpt><trkpt lat="41.37353" lon="0.7790683"><ele>564.0</ele><time>2026-04-19T06:51:45.967Z</time></trkpt><trkpt lat="41.3734883" lon="0.7789833"><ele>564.0</ele><time>2026-04-19T06:51:47.967Z</time></trkpt><trkpt lat="41.3734283" lon="0.7789167"><ele>564.0</ele><time>2026-04-19T06:51:50.966Z</time></trkpt><trkpt lat="41.37339" lon="0.778805"><ele>564.0</ele><time>2026-04-19T06:51:53.967Z</time></trkpt><trkpt lat="41.37337" lon="0.7787167"><ele>564.0</ele><time>2026-04-19T06:51:55.967Z</time></trkpt><trkpt lat="41.37334" lon="0.7786"><ele>564.0</ele><time>2026-04-19T06:51:57.967Z</time></trkpt><trkpt lat="41.3732983" lon="0.77845"><ele>563.0</ele><time>2026-04-19T06:51:59.966Z</time></trkpt><trkpt lat="41.3732617" lon="0.7783733"><ele>562.0</ele><time>2026-04-19T06:52:00.967Z</time></trkpt><trkpt lat="41.37321" lon="0.7782817"><ele>561.0</ele><time>2026-04-19T06:52:01.966Z</time></trkpt><trkpt lat="41.3731533" lon="0.7781867"><ele>560.0</ele><time>2026-04-19T06:52:02.967Z</time></trkpt><trkpt lat="41.3731067" lon="0.7780983"><ele>559.0</ele><time>2026-04-19T06:52:03.966Z</time></trkpt><trkpt lat="41.37304" lon="0.7780017"><ele>558.0</ele><time>2026-04-19T06:52:05.966Z</time></trkpt><trkpt lat="41.37299" lon="0.77792"><ele>557.6666666666666</ele><time>2026-04-19T06:52:08.966Z</time></trkpt><trkpt lat="41.37294" lon="0.7778117"><ele>557.3333333333334</ele><time>2026-04-19T06:52:11.966Z</time></trkpt><trkpt lat="41.3728733" lon="0.77772"><ele>557.0</ele><time>2026-04-19T06:52:13.966Z</time></trkpt><trkpt lat="41.37281" lon="0.7776767"><ele>556.6666666666667</ele><time>2026-04-19T06:52:15.966Z</time></trkpt><trkpt lat="41.37273" lon="0.7776417"><ele>556.3333333333334</ele><time>2026-04-19T06:52:17.966Z</time></trkpt><trkpt lat="41.37263" lon="0.77761"><ele>556.0</ele><time>2026-04-19T06:52:19.967Z</time></trkpt><trkpt lat="41.3725667" lon="0.777595"><ele>556.0</ele><time>2026-04-19T06:52:20.966Z</time></trkpt><trkpt lat="41.3725" lon="0.7775783"><ele>556.0</ele><time>2026-04-19T06:52:21.967Z</time></trkpt><trkpt lat="41.3724117" lon="0.7775783"><ele>556.0</ele><time>2026-04-19T06:52:22.967Z</time></trkpt><trkpt lat="41.3723117" lon="0.7775833"><ele>556.0</ele><time>2026-04-19T06:52:23.967Z</time></trkpt><trkpt lat="41.3721983" lon="0.7776017"><ele>556.0</ele><time>2026-04-19T06:52:24.966Z</time></trkpt><trkpt lat="41.3720883" lon="0.777645"><ele>557.25</ele><time>2026-04-19T06:52:25.967Z</time></trkpt><trkpt lat="41.371975" lon="0.7777267"><ele>558.5</ele><time>2026-04-19T06:52:26.967Z</time></trkpt><trkpt lat="41.3718683" lon="0.7778317"><ele>559.75</ele><time>2026-04-19T06:52:27.966Z</time></trkpt><trkpt lat="41.371775" lon="0.7779617"><ele>561.0</ele><time>2026-04-19T06:52:28.967Z</time></trkpt><trkpt lat="41.371675" lon="0.7780983"><ele>561.0</ele><time>2026-04-19T06:52:29.967Z</time></trkpt><trkpt lat="41.3715317" lon="0.77822"><ele>561.0</ele><time>2026-04-19T06:52:30.967Z</time></trkpt><trkpt lat="41.3714183" lon="0.7783233"><ele>561.0</ele><time>2026-04-19T06:52:31.967Z</time></trkpt><trkpt lat="41.3713167" lon="0.7784283"><ele>561.0</ele><time>2026-04-19T06:52:32.966Z</time></trkpt><trkpt lat="41.3712233" lon="0.7785533"><ele>560.25</ele><time>2026-04-19T06:52:33.966Z</time></trkpt><trkpt lat="41.3711867" lon="0.7787117"><ele>559.5</ele><time>2026-04-19T06:52:34.967Z</time></trkpt><trkpt lat="41.3711683" lon="0.7788867"><ele>558.75</ele><time>2026-04-19T06:52:35.966Z</time></trkpt><trkpt lat="41.37113" lon="0.779065"><ele>558.0</ele><time>2026-04-19T06:52:36.967Z</time></trkpt><trkpt lat="41.3710883" lon="0.779225"><ele>559.5</ele><time>2026-04-19T06:52:37.967Z</time></trkpt><trkpt lat="41.3710233" lon="0.7793683"><ele>561.0</ele><time>2026-04-19T06:52:38.967Z</time></trkpt><trkpt lat="41.3709517" lon="0.779475"><ele>562.5</ele><time>2026-04-19T06:52:39.966Z</time></trkpt><trkpt lat="41.3708633" lon="0.77957"><ele>564.0</ele><time>2026-04-19T06:52:40.967Z</time></trkpt><trkpt lat="41.37075" lon="0.77961"><ele>564.0</ele><time>2026-04-19T06:52:41.967Z</time></trkpt><trkpt lat="41.3706317" lon="0.779615"><ele>564.0</ele><time>2026-04-19T06:52:42.966Z</time></trkpt><trkpt lat="41.37054" lon="0.7795583"><ele>564.0</ele><time>2026-04-19T06:52:43.967Z</time></trkpt><trkpt lat="41.3705317" lon="0.77927"><ele>564.0</ele><time>2026-04-19T06:52:44.967Z</time></trkpt><trkpt lat="41.370535" lon="0.7790017"><ele>562.5</ele><time>2026-04-19T06:52:45.966Z</time></trkpt><trkpt lat="41.3705633" lon="0.77879"><ele>561.0</ele><time>2026-04-19T06:52:46.967Z</time></trkpt><trkpt lat="41.3705733" lon="0.7786233"><ele>559.5</ele><time>2026-04-19T06:52:47.966Z</time></trkpt><trkpt lat="41.3705783" lon="0.7784683"><ele>558.0</ele><time>2026-04-19T06:52:48.967Z</time></trkpt><trkpt lat="41.3705833" lon="0.778315"><ele>557.6</ele><time>2026-04-19T06:52:49.966Z</time></trkpt><trkpt lat="41.3706283" lon="0.7781783"><ele>557.1999999999999</ele><time>2026-04-19T06:52:50.966Z</time></trkpt><trkpt lat="41.3707033" lon="0.7780767"><ele>556.8</ele><time>2026-04-19T06:52:51.967Z</time></trkpt><trkpt lat="41.37076" lon="0.7779733"><ele>556.4</ele><time>2026-04-19T06:52:52.967Z</time></trkpt><trkpt lat="41.3708017" lon="0.77789"><ele>556.0</ele><time>2026-04-19T06:52:53.966Z</time></trkpt><trkpt lat="41.3708433" lon="0.7777883"><ele>556.0</ele><time>2026-04-19T06:52:55.967Z</time></trkpt><trkpt lat="41.370785" lon="0.7779067"><ele>556.0</ele><time>2026-04-19T06:53:32.967Z</time></trkpt><trkpt lat="41.3707067" lon="0.7780617"><ele>556.0</ele><time>2026-04-19T06:53:34.966Z</time></trkpt><trkpt lat="41.37065" lon="0.7781783"><ele>556.0</ele><time>2026-04-19T06:53:35.967Z</time></trkpt><trkpt lat="41.370595" lon="0.7783117"><ele>556.0</ele><time>2026-04-19T06:53:36.967Z</time></trkpt><trkpt lat="41.3705583" lon="0.778455"><ele>556.0</ele><time>2026-04-19T06:53:37.967Z</time></trkpt><trkpt lat="41.3705417" lon="0.77862"><ele>556.0</ele><time>2026-04-19T06:53:38.966Z</time></trkpt><trkpt lat="41.3705417" lon="0.7787983"><ele>556.0</ele><time>2026-04-19T06:53:39.967Z</time></trkpt><trkpt lat="41.3705483" lon="0.7789667"><ele>556.4</ele><time>2026-04-19T06:53:40.966Z</time></trkpt><trkpt lat="41.37054" lon="0.7791133"><ele>556.8</ele><time>2026-04-19T06:53:41.967Z</time></trkpt><trkpt lat="41.370545" lon="0.7792517"><ele>557.1999999999999</ele><time>2026-04-19T06:53:42.966Z</time></trkpt><trkpt lat="41.37058" lon="0.77938"><ele>557.6</ele><time>2026-04-19T06:53:43.967Z</time></trkpt><trkpt lat="41.3706283" lon="0.7794767"><ele>558.0</ele><time>2026-04-19T06:53:44.967Z</time></trkpt><trkpt lat="41.370675" lon="0.77955"><ele>559.1999999999999</ele><time>2026-04-19T06:53:45.966Z</time></trkpt><trkpt lat="41.3707417" lon="0.779605"><ele>560.4</ele><time>2026-04-19T06:53:46.967Z</time></trkpt><trkpt lat="41.3708233" lon="0.7796367"><ele>561.5999999999999</ele><time>2026-04-19T06:53:47.967Z</time></trkpt><trkpt lat="41.3709183" lon="0.7796117"><ele>562.8</ele><time>2026-04-19T06:53:48.967Z</time></trkpt><trkpt lat="41.3710317" lon="0.7795167"><ele>564.0</ele><time>2026-04-19T06:53:49.966Z</time></trkpt><trkpt lat="41.37113" lon="0.7793683"><ele>562.0</ele><time>2026-04-19T06:53:50.967Z</time></trkpt><trkpt lat="41.3711933" lon="0.779135"><ele>560.0</ele><time>2026-04-19T06:53:51.967Z</time></trkpt><trkpt lat="41.3712383" lon="0.77887"><ele>558.0</ele><time>2026-04-19T06:53:52.966Z</time></trkpt><trkpt lat="41.371315" lon="0.77869"><ele>558.75</ele><time>2026-04-19T06:53:53.966Z</time></trkpt><trkpt lat="41.371375" lon="0.7785333"><ele>559.5</ele><time>2026-04-19T06:53:54.967Z</time></trkpt><trkpt lat="41.3714533" lon="0.7783817"><ele>560.25</ele><time>2026-04-19T06:53:55.967Z</time></trkpt><trkpt lat="41.371565" lon="0.77826"><ele>561.0</ele><time>2026-04-19T06:53:56.967Z</time></trkpt><trkpt lat="41.3716833" lon="0.7781467"><ele>561.0</ele><time>2026-04-19T06:53:57.967Z</time></trkpt><trkpt lat="41.3717983" lon="0.778015"><ele>561.0</ele><time>2026-04-19T06:53:58.967Z</time></trkpt><trkpt lat="41.3719067" lon="0.77785"><ele>561.0</ele><time>2026-04-19T06:53:59.966Z</time></trkpt><trkpt lat="41.3720083" lon="0.7777317"><ele>559.75</ele><time>2026-04-19T06:54:00.967Z</time></trkpt><trkpt lat="41.3721067" lon="0.777625"><ele>558.5</ele><time>2026-04-19T06:54:01.966Z</time></trkpt><trkpt lat="41.3722133" lon="0.7775367"><ele>557.25</ele><time>2026-04-19T06:54:02.967Z</time></trkpt><trkpt lat="41.3723467" lon="0.7774933"><ele>556.0</ele><time>2026-04-19T06:54:03.966Z</time></trkpt><trkpt lat="41.3724867" lon="0.777505"><ele>556.0</ele><time>2026-04-19T06:54:04.966Z</time></trkpt><trkpt lat="41.3726217" lon="0.7775517"><ele>556.0</ele><time>2026-04-19T06:54:05.967Z</time></trkpt><trkpt lat="41.372745" lon="0.7776133"><ele>556.0</ele><time>2026-04-19T06:54:06.967Z</time></trkpt><trkpt lat="41.372855" lon="0.7777"><ele>556.0</ele><time>2026-04-19T06:54:07.966Z</time></trkpt><trkpt lat="41.3729633" lon="0.7778267"><ele>556.6666666666667</ele><time>2026-04-19T06:54:08.967Z</time></trkpt><trkpt lat="41.3730667" lon="0.7779883"><ele>557.3333333333334</ele><time>2026-04-19T06:54:09.967Z</time></trkpt><trkpt lat="41.3731583" lon="0.7781667"><ele>558.0</ele><time>2026-04-19T06:54:10.967Z</time></trkpt><trkpt lat="41.373235" lon="0.7783417"><ele>558.0</ele><time>2026-04-19T06:54:11.967Z</time></trkpt><trkpt lat="41.3733" lon="0.7785033"><ele>558.0</ele><time>2026-04-19T06:54:12.967Z</time></trkpt><trkpt lat="41.3733467" lon="0.77866"><ele>558.0</ele><time>2026-04-19T06:54:13.967Z</time></trkpt><trkpt lat="41.373385" lon="0.7788067"><ele>558.0</ele><time>2026-04-19T06:54:14.966Z</time></trkpt><trkpt lat="41.3733967" lon="0.778925"><ele>559.1999999999999</ele><time>2026-04-19T06:54:15.967Z</time></trkpt><trkpt lat="41.37342" lon="0.7790167"><ele>560.4</ele><time>2026-04-19T06:54:16.967Z</time></trkpt><trkpt lat="41.373495" lon="0.7791317"><ele>561.5999999999999</ele><time>2026-04-19T06:54:18.966Z</time></trkpt><trkpt lat="41.3736" lon="0.7790733"><ele>562.8</ele><time>2026-04-19T06:54:20.967Z</time></trkpt><trkpt lat="41.3736617" lon="0.7789833"><ele>564.0</ele><time>2026-04-19T06:54:21.967Z</time></trkpt><trkpt lat="41.3737383" lon="0.7788567"><ele>564.0</ele><time>2026-04-19T06:54:22.966Z</time></trkpt><trkpt lat="41.3738217" lon="0.7787133"><ele>564.0</ele><time>2026-04-19T06:54:23.966Z</time></trkpt><trkpt lat="41.3739033" lon="0.7785333"><ele>564.0</ele><time>2026-04-19T06:54:24.967Z</time></trkpt><trkpt lat="41.373985" lon="0.77837"><ele>564.0</ele><time>2026-04-19T06:54:25.967Z</time></trkpt><trkpt lat="41.3740567" lon="0.7782283"><ele>563.8</ele><time>2026-04-19T06:54:26.966Z</time></trkpt><trkpt lat="41.3741033" lon="0.778105"><ele>563.5999999999999</ele><time>2026-04-19T06:54:27.967Z</time></trkpt><trkpt lat="41.37411" lon="0.7779783"><ele>563.4</ele><time>2026-04-19T06:54:28.967Z</time></trkpt><trkpt lat="41.3740867" lon="0.7778617"><ele>563.1999999999999</ele><time>2026-04-19T06:54:29.966Z</time></trkpt><trkpt lat="41.374045" lon="0.7777567"><ele>563.0</ele><time>2026-04-19T06:54:30.966Z</time></trkpt><trkpt lat="41.37398" lon="0.7776633"><ele>563.0</ele><time>2026-04-19T06:54:31.966Z</time></trkpt><trkpt lat="41.373885" lon="0.7775667"><ele>563.0</ele><time>2026-04-19T06:54:32.967Z</time></trkpt><trkpt lat="41.3737883" lon="0.777465"><ele>563.0</ele><time>2026-04-19T06:54:33.967Z</time></trkpt><trkpt lat="41.3736783" lon="0.777335"><ele>563.0</ele><time>2026-04-19T06:54:34.966Z</time></trkpt><trkpt lat="41.3735667" lon="0.77722"><ele>560.5</ele><time>2026-04-19T06:54:35.967Z</time></trkpt><trkpt lat="41.3734667" lon="0.777115"><ele>558.0</ele><time>2026-04-19T06:54:36.967Z</time></trkpt><trkpt lat="41.3733717" lon="0.7770217"><ele>555.5</ele><time>2026-04-19T06:54:37.966Z</time></trkpt><trkpt lat="41.3732783" lon="0.7769267"><ele>553.0</ele><time>2026-04-19T06:54:38.966Z</time></trkpt><trkpt lat="41.3732183" lon="0.7768117"><ele>552.8333333333334</ele><time>2026-04-19T06:54:39.966Z</time></trkpt><trkpt lat="41.3731833" lon="0.776705"><ele>552.6666666666667</ele><time>2026-04-19T06:54:40.967Z</time></trkpt><trkpt lat="41.3731733" lon="0.77661"><ele>552.5</ele><time>2026-04-19T06:54:41.967Z</time></trkpt><trkpt lat="41.3731783" lon="0.7764983"><ele>552.3333333333334</ele><time>2026-04-19T06:54:43.967Z</time></trkpt><trkpt lat="41.3731783" lon="0.7764133"><ele>552.1666666666666</ele><time>2026-04-19T06:54:58.967Z</time></trkpt><trkpt lat="41.3731883" lon="0.7762833"><ele>552.0</ele><time>2026-04-19T06:55:01.967Z</time></trkpt><trkpt lat="41.3731267" lon="0.776155"><ele>552.0</ele><time>2026-04-19T06:55:03.966Z</time></trkpt><trkpt lat="41.3730783" lon="0.7760933"><ele>552.0</ele><time>2026-04-19T06:55:04.966Z</time></trkpt><trkpt lat="41.37303" lon="0.776025"><ele>552.0</ele><time>2026-04-19T06:55:05.966Z</time></trkpt><trkpt lat="41.37299" lon="0.77595"><ele>552.0</ele><time>2026-04-19T06:55:06.967Z</time></trkpt><trkpt lat="41.3729567" lon="0.7758583"><ele>552.0</ele><time>2026-04-19T06:55:07.966Z</time></trkpt><trkpt lat="41.372925" lon="0.7757683"><ele>552.0</ele><time>2026-04-19T06:55:08.966Z</time></trkpt><trkpt lat="41.372905" lon="0.7756667"><ele>552.0</ele><time>2026-04-19T06:55:09.966Z</time></trkpt><trkpt lat="41.3728983" lon="0.7755533"><ele>552.7142857142858</ele><time>2026-04-19T06:55:10.967Z</time></trkpt><trkpt lat="41.37291" lon="0.7754483"><ele>553.4285714285714</ele><time>2026-04-19T06:55:11.967Z</time></trkpt><trkpt lat="41.3729317" lon="0.7753467"><ele>554.1428571428571</ele><time>2026-04-19T06:55:12.966Z</time></trkpt><trkpt lat="41.372955" lon="0.775255"><ele>554.8571428571429</ele><time>2026-04-19T06:55:13.966Z</time></trkpt><trkpt lat="41.3729767" lon="0.7751617"><ele>555.5714285714286</ele><time>2026-04-19T06:55:14.967Z</time></trkpt><trkpt lat="41.3730117" lon="0.7750883"><ele>556.2857142857143</ele><time>2026-04-19T06:55:15.966Z</time></trkpt><trkpt lat="41.37303" lon="0.7749867"><ele>557.0</ele><time>2026-04-19T06:55:16.967Z</time></trkpt><trkpt lat="41.37304" lon="0.7748683"><ele>555.6</ele><time>2026-04-19T06:55:17.966Z</time></trkpt><trkpt lat="41.3730583" lon="0.77475"><ele>554.2</ele><time>2026-04-19T06:55:18.967Z</time></trkpt><trkpt lat="41.373065" lon="0.7746267"><ele>552.8</ele><time>2026-04-19T06:55:19.966Z</time></trkpt><trkpt lat="41.3730583" lon="0.7745017"><ele>551.4</ele><time>2026-04-19T06:55:20.967Z</time></trkpt><trkpt lat="41.3730383" lon="0.7743733"><ele>550.0</ele><time>2026-04-19T06:55:21.966Z</time></trkpt><trkpt lat="41.373035" lon="0.774255"><ele>550.0</ele><time>2026-04-19T06:55:22.966Z</time></trkpt><trkpt lat="41.3730333" lon="0.77414"><ele>550.0</ele><time>2026-04-19T06:55:23.967Z</time></trkpt><trkpt lat="41.373035" lon="0.7740433"><ele>550.0</ele><time>2026-04-19T06:55:24.967Z</time></trkpt><trkpt lat="41.3730433" lon="0.7739583"><ele>550.0</ele><time>2026-04-19T06:55:25.967Z</time></trkpt><trkpt lat="41.3730283" lon="0.7738"><ele>550.0</ele><time>2026-04-19T06:55:27.967Z</time></trkpt><trkpt lat="41.3730167" lon="0.7737067"><ele>550.0</ele><time>2026-04-19T06:55:28.967Z</time></trkpt><trkpt lat="41.3729867" lon="0.7736167"><ele>549.3333333333334</ele><time>2026-04-19T06:55:29.967Z</time></trkpt><trkpt lat="41.3729383" lon="0.77353"><ele>548.6666666666667</ele><time>2026-04-19T06:55:30.966Z</time></trkpt><trkpt lat="41.3728783" lon="0.7734633"><ele>548.0</ele><time>2026-04-19T06:55:31.967Z</time></trkpt><trkpt lat="41.3728" lon="0.7734183"><ele>547.3333333333334</ele><time>2026-04-19T06:55:32.966Z</time></trkpt><trkpt lat="41.3727117" lon="0.7734067"><ele>546.6666666666666</ele><time>2026-04-19T06:55:33.967Z</time></trkpt><trkpt lat="41.3726183" lon="0.7734567"><ele>546.0</ele><time>2026-04-19T06:55:34.966Z</time></trkpt><trkpt lat="41.3725133" lon="0.7735283"><ele>549.25</ele><time>2026-04-19T06:55:35.966Z</time></trkpt><trkpt lat="41.3724067" lon="0.773585"><ele>552.5</ele><time>2026-04-19T06:55:36.966Z</time></trkpt><trkpt lat="41.37229" lon="0.7736317"><ele>555.75</ele><time>2026-04-19T06:55:37.966Z</time></trkpt><trkpt lat="41.37218" lon="0.7736833"><ele>559.0</ele><time>2026-04-19T06:55:38.967Z</time></trkpt><trkpt lat="41.3720733" lon="0.773745"><ele>559.0</ele><time>2026-04-19T06:55:39.966Z</time></trkpt><trkpt lat="41.37197" lon="0.7737933"><ele>559.0</ele><time>2026-04-19T06:55:40.967Z</time></trkpt><trkpt lat="41.3718733" lon="0.7738383"><ele>559.0</ele><time>2026-04-19T06:55:41.966Z</time></trkpt><trkpt lat="41.3717883" lon="0.7738917"><ele>559.0</ele><time>2026-04-19T06:55:42.967Z</time></trkpt><trkpt lat="41.3716867" lon="0.7739117"><ele>559.0</ele><time>2026-04-19T06:55:43.967Z</time></trkpt><trkpt lat="41.3715967" lon="0.77394"><ele>559.0</ele><time>2026-04-19T06:55:44.966Z</time></trkpt><trkpt lat="41.3715117" lon="0.7739667"><ele>559.0</ele><time>2026-04-19T06:55:45.966Z</time></trkpt><trkpt lat="41.3714267" lon="0.7740017"><ele>559.0</ele><time>2026-04-19T06:55:46.966Z</time></trkpt><trkpt lat="41.3713367" lon="0.7740383"><ele>559.0</ele><time>2026-04-19T06:55:47.966Z</time></trkpt><trkpt lat="41.3712233" lon="0.7740867"><ele>559.0</ele><time>2026-04-19T06:55:48.967Z</time></trkpt><trkpt lat="41.3711117" lon="0.7741333"><ele>558.25</ele><time>2026-04-19T06:55:49.967Z</time></trkpt><trkpt lat="41.3709983" lon="0.77418"><ele>557.5</ele><time>2026-04-19T06:55:50.967Z</time></trkpt><trkpt lat="41.37089" lon="0.7742233"><ele>556.75</ele><time>2026-04-19T06:55:51.966Z</time></trkpt><trkpt lat="41.3707783" lon="0.7742633"><ele>556.0</ele><time>2026-04-19T06:55:52.967Z</time></trkpt><trkpt lat="41.3706667" lon="0.7742917"><ele>556.0</ele><time>2026-04-19T06:55:53.966Z</time></trkpt><trkpt lat="41.3705683" lon="0.774325"><ele>556.0</ele><time>2026-04-19T06:55:54.966Z</time></trkpt><trkpt lat="41.3704767" lon="0.7743483"><ele>556.0</ele><time>2026-04-19T06:55:55.966Z</time></trkpt><trkpt lat="41.3703983" lon="0.7743783"><ele>556.0</ele><time>2026-04-19T06:55:56.966Z</time></trkpt><trkpt lat="41.3703233" lon="0.7744133"><ele>556.0</ele><time>2026-04-19T06:55:57.966Z</time></trkpt><trkpt lat="41.3702467" lon="0.774475"><ele>556.0</ele><time>2026-04-19T06:55:58.966Z</time></trkpt><trkpt lat="41.370175" lon="0.774555"><ele>558.6</ele><time>2026-04-19T06:55:59.966Z</time></trkpt><trkpt lat="41.3700933" lon="0.77465"><ele>561.2</ele><time>2026-04-19T06:56:00.967Z</time></trkpt><trkpt lat="41.370015" lon="0.7747317"><ele>563.8</ele><time>2026-04-19T06:56:01.966Z</time></trkpt><trkpt lat="41.3699367" lon="0.7748167"><ele>566.4</ele><time>2026-04-19T06:56:02.966Z</time></trkpt><trkpt lat="41.3698567" lon="0.7749017"><ele>569.0</ele><time>2026-04-19T06:56:03.967Z</time></trkpt><trkpt lat="41.3697783" lon="0.7749867"><ele>569.0</ele><time>2026-04-19T06:56:04.967Z</time></trkpt><trkpt lat="41.369705" lon="0.77507"><ele>569.0</ele><time>2026-04-19T06:56:05.966Z</time></trkpt><trkpt lat="41.3696317" lon="0.775145"><ele>569.0</ele><time>2026-04-19T06:56:06.966Z</time></trkpt><trkpt lat="41.3695567" lon="0.775205"><ele>569.0</ele><time>2026-04-19T06:56:07.967Z</time></trkpt><trkpt lat="41.36948" lon="0.7752533"><ele>569.0</ele><time>2026-04-19T06:56:08.966Z</time></trkpt><trkpt lat="41.3694033" lon="0.7753017"><ele>569.0</ele><time>2026-04-19T06:56:09.966Z</time></trkpt><trkpt lat="41.36933" lon="0.775325"><ele>569.6666666666666</ele><time>2026-04-19T06:56:10.966Z</time></trkpt><trkpt lat="41.3692633" lon="0.7753517"><ele>570.3333333333333</ele><time>2026-04-19T06:56:11.966Z</time></trkpt><trkpt lat="41.3691917" lon="0.7753867"><ele>571.0</ele><time>2026-04-19T06:56:12.967Z</time></trkpt><trkpt lat="41.3691167" lon="0.77544"><ele>571.6666666666666</ele><time>2026-04-19T06:56:13.967Z</time></trkpt><trkpt lat="41.3690317" lon="0.7755033"><ele>572.3333333333334</ele><time>2026-04-19T06:56:14.967Z</time></trkpt><trkpt lat="41.3689517" lon="0.7756"><ele>573.0</ele><time>2026-04-19T06:56:15.966Z</time></trkpt><trkpt lat="41.3688733" lon="0.7757233"><ele>571.25</ele><time>2026-04-19T06:56:16.967Z</time></trkpt><trkpt lat="41.3688" lon="0.775855"><ele>569.5</ele><time>2026-04-19T06:56:17.967Z</time></trkpt><trkpt lat="41.36873" lon="0.77598"><ele>567.75</ele><time>2026-04-19T06:56:18.966Z</time></trkpt><trkpt lat="41.3686517" lon="0.7761217"><ele>566.0</ele><time>2026-04-19T06:56:19.966Z</time></trkpt><trkpt lat="41.368575" lon="0.7762683"><ele>566.0</ele><time>2026-04-19T06:56:20.967Z</time></trkpt><trkpt lat="41.3685017" lon="0.7764067"><ele>566.0</ele><time>2026-04-19T06:56:21.966Z</time></trkpt><trkpt lat="41.368405" lon="0.7765233"><ele>566.0</ele><time>2026-04-19T06:56:22.966Z</time></trkpt><trkpt lat="41.368305" lon="0.776625"><ele>566.0</ele><time>2026-04-19T06:56:23.966Z</time></trkpt><trkpt lat="41.3682083" lon="0.7767117"><ele>566.0</ele><time>2026-04-19T06:56:24.966Z</time></trkpt><trkpt lat="41.3680933" lon="0.7767983"><ele>566.0</ele><time>2026-04-19T06:56:25.967Z</time></trkpt><trkpt lat="41.3679933" lon="0.7768917"><ele>566.0</ele><time>2026-04-19T06:56:26.966Z</time></trkpt><trkpt lat="41.3679033" lon="0.776985"><ele>566.0</ele><time>2026-04-19T06:56:27.966Z</time></trkpt><trkpt lat="41.3678267" lon="0.7771"><ele>566.0</ele><time>2026-04-19T06:56:28.966Z</time></trkpt><trkpt lat="41.36775" lon="0.7772"><ele>566.0</ele><time>2026-04-19T06:56:29.967Z</time></trkpt><trkpt lat="41.3676817" lon="0.77731"><ele>566.0</ele><time>2026-04-19T06:56:30.966Z</time></trkpt><trkpt lat="41.3676167" lon="0.7774133"><ele>566.0</ele><time>2026-04-19T06:56:31.967Z</time></trkpt><trkpt lat="41.3675583" lon="0.7775"><ele>566.0</ele><time>2026-04-19T06:56:32.966Z</time></trkpt><trkpt lat="41.3674917" lon="0.7776117"><ele>566.0</ele><time>2026-04-19T06:56:33.967Z</time></trkpt><trkpt lat="41.367425" lon="0.7777267"><ele>566.0</ele><time>2026-04-19T06:56:34.966Z</time></trkpt><trkpt lat="41.3673583" lon="0.777835"><ele>566.0</ele><time>2026-04-19T06:56:35.967Z</time></trkpt><trkpt lat="41.3673017" lon="0.77794"><ele>566.0</ele><time>2026-04-19T06:56:36.966Z</time></trkpt><trkpt lat="41.3672483" lon="0.778055"><ele>566.0</ele><time>2026-04-19T06:56:37.966Z</time></trkpt><trkpt lat="41.3671867" lon="0.7781633"><ele>566.0</ele><time>2026-04-19T06:56:38.967Z</time></trkpt><trkpt lat="41.367125" lon="0.7782867"><ele>566.0</ele><time>2026-04-19T06:56:39.966Z</time></trkpt><trkpt lat="41.367065" lon="0.7784133"><ele>566.0</ele><time>2026-04-19T06:56:40.967Z</time></trkpt><trkpt lat="41.36701" lon="0.7785283"><ele>566.0</ele><time>2026-04-19T06:56:41.967Z</time></trkpt><trkpt lat="41.3669667" lon="0.77863"><ele>566.0</ele><time>2026-04-19T06:56:42.966Z</time></trkpt><trkpt lat="41.366915" lon="0.7787367"><ele>569.0</ele><time>2026-04-19T06:56:43.967Z</time></trkpt><trkpt lat="41.3668767" lon="0.7788367"><ele>572.0</ele><time>2026-04-19T06:56:44.966Z</time></trkpt><trkpt lat="41.3668367" lon="0.7789283"><ele>575.0</ele><time>2026-04-19T06:56:45.967Z</time></trkpt><trkpt lat="41.3667833" lon="0.7790167"><ele>578.0</ele><time>2026-04-19T06:56:46.966Z</time></trkpt><trkpt lat="41.366715" lon="0.7790933"><ele>581.0</ele><time>2026-04-19T06:56:47.967Z</time></trkpt><trkpt lat="41.3666333" lon="0.7791417"><ele>584.0</ele><time>2026-04-19T06:56:48.966Z</time></trkpt><trkpt lat="41.3665417" lon="0.7791533"><ele>584.0</ele><time>2026-04-19T06:56:49.966Z</time></trkpt><trkpt lat="41.366455" lon="0.7791283"><ele>584.0</ele><time>2026-04-19T06:56:50.966Z</time></trkpt><trkpt lat="41.3663517" lon="0.7790567"><ele>584.0</ele><time>2026-04-19T06:56:51.966Z</time></trkpt><trkpt lat="41.3662533" lon="0.77902"><ele>584.0</ele><time>2026-04-19T06:56:52.966Z</time></trkpt><trkpt lat="41.366165" lon="0.7790117"><ele>584.0</ele><time>2026-04-19T06:56:53.967Z</time></trkpt><trkpt lat="41.36607" lon="0.77905"><ele>582.4</ele><time>2026-04-19T06:56:54.967Z</time></trkpt><trkpt lat="41.3659867" lon="0.7791083"><ele>580.8</ele><time>2026-04-19T06:56:55.967Z</time></trkpt><trkpt lat="41.365925" lon="0.77921"><ele>579.2</ele><time>2026-04-19T06:56:56.966Z</time></trkpt><trkpt lat="41.365855" lon="0.7792833"><ele>577.6</ele><time>2026-04-19T06:56:57.966Z</time></trkpt><trkpt lat="41.3657783" lon="0.7793167"><ele>576.0</ele><time>2026-04-19T06:56:58.966Z</time></trkpt><trkpt lat="41.3656817" lon="0.7793267"><ele>576.0</ele><time>2026-04-19T06:56:59.966Z</time></trkpt><trkpt lat="41.36558" lon="0.779345"><ele>576.0</ele><time>2026-04-19T06:57:00.967Z</time></trkpt><trkpt lat="41.3654967" lon="0.779375"><ele>576.0</ele><time>2026-04-19T06:57:01.967Z</time></trkpt><trkpt lat="41.3654283" lon="0.7794283"><ele>576.0</ele><time>2026-04-19T06:57:02.966Z</time></trkpt><trkpt lat="41.3653833" lon="0.7795133"><ele>576.0</ele><time>2026-04-19T06:57:03.966Z</time></trkpt><trkpt lat="41.36536" lon="0.779605"><ele>576.0</ele><time>2026-04-19T06:57:04.966Z</time></trkpt><trkpt lat="41.3653583" lon="0.7797083"><ele>576.3333333333334</ele><time>2026-04-19T06:57:05.967Z</time></trkpt><trkpt lat="41.3653967" lon="0.7798383"><ele>576.6666666666666</ele><time>2026-04-19T06:57:06.967Z</time></trkpt><trkpt lat="41.3654117" lon="0.77994"><ele>577.0</ele><time>2026-04-19T06:57:07.967Z</time></trkpt><trkpt lat="41.3654167" lon="0.7800317"><ele>577.3333333333333</ele><time>2026-04-19T06:57:08.967Z</time></trkpt><trkpt lat="41.3653983" lon="0.7801167"><ele>577.6666666666666</ele><time>2026-04-19T06:57:09.966Z</time></trkpt><trkpt lat="41.3653683" lon="0.780225"><ele>578.0</ele><time>2026-04-19T06:57:10.966Z</time></trkpt><trkpt lat="41.3653117" lon="0.7803167"><ele>582.0</ele><time>2026-04-19T06:57:11.966Z</time></trkpt><trkpt lat="41.3652367" lon="0.7804"><ele>586.0</ele><time>2026-04-19T06:57:12.967Z</time></trkpt><trkpt lat="41.36515" lon="0.7804617"><ele>590.0</ele><time>2026-04-19T06:57:13.967Z</time></trkpt><trkpt lat="41.365055" lon="0.7805183"><ele>594.0</ele><time>2026-04-19T06:57:14.967Z</time></trkpt><trkpt lat="41.3649717" lon="0.7805667"><ele>598.0</ele><time>2026-04-19T06:57:15.967Z</time></trkpt><trkpt lat="41.3649" lon="0.7806083"><ele>598.0</ele><time>2026-04-19T06:57:16.966Z</time></trkpt><trkpt lat="41.36482" lon="0.7806517"><ele>598.0</ele><time>2026-04-19T06:57:17.966Z</time></trkpt><trkpt lat="41.3647433" lon="0.7806983"><ele>598.0</ele><time>2026-04-19T06:57:18.966Z</time></trkpt><trkpt lat="41.3646667" lon="0.78075"><ele>598.0</ele><time>2026-04-19T06:57:19.967Z</time></trkpt><trkpt lat="41.3645967" lon="0.7808117"><ele>598.0</ele><time>2026-04-19T06:57:20.967Z</time></trkpt><trkpt lat="41.36453" lon="0.7808833"><ele>598.0</ele><time>2026-04-19T06:57:21.966Z</time></trkpt><trkpt lat="41.3644733" lon="0.7809617"><ele>599.6666666666667</ele><time>2026-04-19T06:57:22.966Z</time></trkpt><trkpt lat="41.3644183" lon="0.7810417"><ele>601.3333333333334</ele><time>2026-04-19T06:57:23.967Z</time></trkpt><trkpt lat="41.3643667" lon="0.7811133"><ele>603.0</ele><time>2026-04-19T06:57:24.967Z</time></trkpt><trkpt lat="41.3643017" lon="0.7811667"><ele>604.6666666666666</ele><time>2026-04-19T06:57:25.966Z</time></trkpt><trkpt lat="41.36424" lon="0.781215"><ele>606.3333333333333</ele><time>2026-04-19T06:57:26.966Z</time></trkpt><trkpt lat="41.36417" lon="0.7812417"><ele>608.0</ele><time>2026-04-19T06:57:27.967Z</time></trkpt><trkpt lat="41.364085" lon="0.781245"><ele>608.0</ele><time>2026-04-19T06:57:28.967Z</time></trkpt><trkpt lat="41.3639967" lon="0.78122"><ele>608.0</ele><time>2026-04-19T06:57:29.966Z</time></trkpt><trkpt lat="41.3639133" lon="0.7811817"><ele>608.0</ele><time>2026-04-19T06:57:30.967Z</time></trkpt><trkpt lat="41.363845" lon="0.7811017"><ele>608.0</ele><time>2026-04-19T06:57:31.966Z</time></trkpt><trkpt lat="41.3637933" lon="0.7810317"><ele>608.0</ele><time>2026-04-19T06:57:32.966Z</time></trkpt><trkpt lat="41.363725" lon="0.7810133"><ele>608.0</ele><time>2026-04-19T06:57:33.966Z</time></trkpt><trkpt lat="41.3636517" lon="0.7810217"><ele>606.6666666666666</ele><time>2026-04-19T06:57:34.967Z</time></trkpt><trkpt lat="41.3635817" lon="0.7810617"><ele>605.3333333333333</ele><time>2026-04-19T06:57:35.966Z</time></trkpt><trkpt lat="41.3635133" lon="0.781125"><ele>604.0</ele><time>2026-04-19T06:57:36.966Z</time></trkpt><trkpt lat="41.3634517" lon="0.7812"><ele>602.6666666666666</ele><time>2026-04-19T06:57:37.966Z</time></trkpt><trkpt lat="41.3633967" lon="0.781275"><ele>601.3333333333334</ele><time>2026-04-19T06:57:38.967Z</time></trkpt><trkpt lat="41.3633517" lon="0.7813533"><ele>600.0</ele><time>2026-04-19T06:57:39.967Z</time></trkpt><trkpt lat="41.3633233" lon="0.781435"><ele>600.0</ele><time>2026-04-19T06:57:40.966Z</time></trkpt><trkpt lat="41.3632983" lon="0.7815267"><ele>600.0</ele><time>2026-04-19T06:57:41.967Z</time></trkpt><trkpt lat="41.3632833" lon="0.781625"><ele>600.0</ele><time>2026-04-19T06:57:42.966Z</time></trkpt><trkpt lat="41.3632733" lon="0.781725"><ele>600.0</ele><time>2026-04-19T06:57:43.966Z</time></trkpt><trkpt lat="41.3632567" lon="0.7818817"><ele>600.0</ele><time>2026-04-19T06:57:45.966Z</time></trkpt><trkpt lat="41.3632467" lon="0.7819667"><ele>600.0</ele><time>2026-04-19T06:57:46.967Z</time></trkpt><trkpt lat="41.3632367" lon="0.782055"><ele>600.3333333333334</ele><time>2026-04-19T06:57:47.967Z</time></trkpt><trkpt lat="41.3632383" lon="0.7821417"><ele>600.6666666666666</ele><time>2026-04-19T06:57:48.967Z</time></trkpt><trkpt lat="41.3632633" lon="0.782235"><ele>601.0</ele><time>2026-04-19T06:57:49.966Z</time></trkpt><trkpt lat="41.3633" lon="0.7823233"><ele>601.3333333333333</ele><time>2026-04-19T06:57:50.966Z</time></trkpt><trkpt lat="41.3633583" lon="0.7823917"><ele>601.6666666666666</ele><time>2026-04-19T06:57:51.966Z</time></trkpt><trkpt lat="41.36342" lon="0.7824733"><ele>602.0</ele><time>2026-04-19T06:57:52.967Z</time></trkpt><trkpt lat="41.3634817" lon="0.7825517"><ele>602.0</ele><time>2026-04-19T06:57:53.967Z</time></trkpt><trkpt lat="41.3635283" lon="0.782655"><ele>602.0</ele><time>2026-04-19T06:57:54.966Z</time></trkpt><trkpt lat="41.363545" lon="0.7827733"><ele>602.0</ele><time>2026-04-19T06:57:55.966Z</time></trkpt><trkpt lat="41.363555" lon="0.78291"><ele>602.0</ele><time>2026-04-19T06:57:56.966Z</time></trkpt><trkpt lat="41.3635133" lon="0.7830367"><ele>602.0</ele><time>2026-04-19T06:57:57.966Z</time></trkpt><trkpt lat="41.3634633" lon="0.783165"><ele>603.2</ele><time>2026-04-19T06:57:58.967Z</time></trkpt><trkpt lat="41.3634233" lon="0.78329"><ele>604.4000000000001</ele><time>2026-04-19T06:57:59.967Z</time></trkpt><trkpt lat="41.3633833" lon="0.783405"><ele>605.5999999999999</ele><time>2026-04-19T06:58:00.967Z</time></trkpt><trkpt lat="41.36334" lon="0.7835167"><ele>606.8</ele><time>2026-04-19T06:58:01.967Z</time></trkpt><trkpt lat="41.3633133" lon="0.7836267"><ele>608.0</ele><time>2026-04-19T06:58:02.966Z</time></trkpt><trkpt lat="41.3632867" lon="0.783735"><ele>609.6</ele><time>2026-04-19T06:58:03.967Z</time></trkpt><trkpt lat="41.363255" lon="0.783845"><ele>611.1999999999999</ele><time>2026-04-19T06:58:04.967Z</time></trkpt><trkpt lat="41.363215" lon="0.7839567"><ele>612.8</ele><time>2026-04-19T06:58:05.966Z</time></trkpt><trkpt lat="41.36318" lon="0.78407"><ele>614.4</ele><time>2026-04-19T06:58:06.966Z</time></trkpt><trkpt lat="41.3631583" lon="0.78418"><ele>616.0</ele><time>2026-04-19T06:58:07.967Z</time></trkpt><trkpt lat="41.3631183" lon="0.7842983"><ele>616.0</ele><time>2026-04-19T06:58:08.966Z</time></trkpt><trkpt lat="41.3630833" lon="0.7844167"><ele>616.0</ele><time>2026-04-19T06:58:09.967Z</time></trkpt><trkpt lat="41.3630517" lon="0.7845283"><ele>616.0</ele><time>2026-04-19T06:58:10.966Z</time></trkpt><trkpt lat="41.3630333" lon="0.7846383"><ele>616.0</ele><time>2026-04-19T06:58:11.967Z</time></trkpt><trkpt lat="41.363005" lon="0.7847433"><ele>616.0</ele><time>2026-04-19T06:58:12.967Z</time></trkpt><trkpt lat="41.362985" lon="0.784845"><ele>616.0</ele><time>2026-04-19T06:58:13.967Z</time></trkpt><trkpt lat="41.3629583" lon="0.784935"><ele>616.0</ele><time>2026-04-19T06:58:14.966Z</time></trkpt><trkpt lat="41.3629267" lon="0.7850183"><ele>616.0</ele><time>2026-04-19T06:58:15.967Z</time></trkpt><trkpt lat="41.36289" lon="0.785115"><ele>616.0</ele><time>2026-04-19T06:58:16.967Z</time></trkpt><trkpt lat="41.3628533" lon="0.78522"><ele>616.0</ele><time>2026-04-19T06:58:17.966Z</time></trkpt><trkpt lat="41.362825" lon="0.7853317"><ele>616.0</ele><time>2026-04-19T06:58:18.966Z</time></trkpt><trkpt lat="41.3627917" lon="0.78545"><ele>616.0</ele><time>2026-04-19T06:58:19.967Z</time></trkpt><trkpt lat="41.362755" lon="0.785565"><ele>617.5</ele><time>2026-04-19T06:58:20.966Z</time></trkpt><trkpt lat="41.3627217" lon="0.785665"><ele>619.0</ele><time>2026-04-19T06:58:21.966Z</time></trkpt><trkpt lat="41.36269" lon="0.7857783"><ele>620.5</ele><time>2026-04-19T06:58:22.967Z</time></trkpt><trkpt lat="41.3626583" lon="0.7858883"><ele>622.0</ele><time>2026-04-19T06:58:23.967Z</time></trkpt><trkpt lat="41.3626233" lon="0.7859933"><ele>623.5</ele><time>2026-04-19T06:58:24.967Z</time></trkpt><trkpt lat="41.3625817" lon="0.786095"><ele>625.0</ele><time>2026-04-19T06:58:25.966Z</time></trkpt><trkpt lat="41.3625283" lon="0.786205"><ele>626.0</ele><time>2026-04-19T06:58:26.966Z</time></trkpt><trkpt lat="41.3624767" lon="0.7863083"><ele>627.0</ele><time>2026-04-19T06:58:27.967Z</time></trkpt><trkpt lat="41.3624133" lon="0.78642"><ele>628.0</ele><time>2026-04-19T06:58:28.966Z</time></trkpt><trkpt lat="41.3623517" lon="0.7865317"><ele>629.0</ele><time>2026-04-19T06:58:29.966Z</time></trkpt><trkpt lat="41.3622933" lon="0.7866417"><ele>630.0</ele><time>2026-04-19T06:58:30.967Z</time></trkpt><trkpt lat="41.362235" lon="0.786745"><ele>630.2</ele><time>2026-04-19T06:58:31.966Z</time></trkpt><trkpt lat="41.3621783" lon="0.7868417"><ele>630.4</ele><time>2026-04-19T06:58:32.967Z</time></trkpt><trkpt lat="41.3621183" lon="0.7869383"><ele>630.6</ele><time>2026-04-19T06:58:33.966Z</time></trkpt><trkpt lat="41.362065" lon="0.787035"><ele>630.8</ele><time>2026-04-19T06:58:34.966Z</time></trkpt><trkpt lat="41.36201" lon="0.7871433"><ele>631.0</ele><time>2026-04-19T06:58:35.967Z</time></trkpt><trkpt lat="41.3619467" lon="0.7872667"><ele>631.0</ele><time>2026-04-19T06:58:36.966Z</time></trkpt><trkpt lat="41.3618817" lon="0.7873867"><ele>631.0</ele><time>2026-04-19T06:58:37.967Z</time></trkpt><trkpt lat="41.3618167" lon="0.78751"><ele>631.0</ele><time>2026-04-19T06:58:38.967Z</time></trkpt><trkpt lat="41.36176" lon="0.7876183"><ele>631.0</ele><time>2026-04-19T06:58:39.967Z</time></trkpt><trkpt lat="41.3617" lon="0.7877183"><ele>631.0</ele><time>2026-04-19T06:58:40.967Z</time></trkpt><trkpt lat="41.3616417" lon="0.7878233"><ele>631.2</ele><time>2026-04-19T06:58:41.967Z</time></trkpt><trkpt lat="41.3615833" lon="0.7879317"><ele>631.4000000000001</ele><time>2026-04-19T06:58:42.966Z</time></trkpt><trkpt lat="41.361525" lon="0.7880567"><ele>631.6</ele><time>2026-04-19T06:58:43.966Z</time></trkpt><trkpt lat="41.3614683" lon="0.7881817"><ele>631.8000000000001</ele><time>2026-04-19T06:58:44.967Z</time></trkpt><trkpt lat="41.3614217" lon="0.7883067"><ele>632.0</ele><time>2026-04-19T06:58:45.967Z</time></trkpt><trkpt lat="41.36138" lon="0.788435"><ele>630.75</ele><time>2026-04-19T06:58:46.967Z</time></trkpt><trkpt lat="41.3613333" lon="0.7885733"><ele>629.5</ele><time>2026-04-19T06:58:47.966Z</time></trkpt><trkpt lat="41.36128" lon="0.78872"><ele>628.25</ele><time>2026-04-19T06:58:48.966Z</time></trkpt><trkpt lat="41.36123" lon="0.7888833"><ele>627.0</ele><time>2026-04-19T06:58:49.967Z</time></trkpt><trkpt lat="41.3611817" lon="0.7890483"><ele>627.0</ele><time>2026-04-19T06:58:50.967Z</time></trkpt><trkpt lat="41.36114" lon="0.7892083"><ele>627.0</ele><time>2026-04-19T06:58:51.966Z</time></trkpt><trkpt lat="41.3610967" lon="0.7893717"><ele>627.0</ele><time>2026-04-19T06:58:52.967Z</time></trkpt><trkpt lat="41.361055" lon="0.7895417"><ele>627.0</ele><time>2026-04-19T06:58:53.966Z</time></trkpt><trkpt lat="41.3610133" lon="0.7897017"><ele>627.75</ele><time>2026-04-19T06:58:54.967Z</time></trkpt><trkpt lat="41.3609683" lon="0.7898567"><ele>628.5</ele><time>2026-04-19T06:58:55.966Z</time></trkpt><trkpt lat="41.3609217" lon="0.7900083"><ele>629.25</ele><time>2026-04-19T06:58:56.966Z</time></trkpt><trkpt lat="41.360885" lon="0.79016"><ele>630.0</ele><time>2026-04-19T06:58:57.967Z</time></trkpt><trkpt lat="41.3608433" lon="0.7903117"><ele>630.75</ele><time>2026-04-19T06:58:58.967Z</time></trkpt><trkpt lat="41.360775" lon="0.7904517"><ele>631.5</ele><time>2026-04-19T06:58:59.966Z</time></trkpt><trkpt lat="41.3606867" lon="0.7905683"><ele>632.25</ele><time>2026-04-19T06:59:00.967Z</time></trkpt><trkpt lat="41.3605783" lon="0.79066"><ele>633.0</ele><time>2026-04-19T06:59:01.966Z</time></trkpt><trkpt lat="41.3604517" lon="0.790715"><ele>633.0</ele><time>2026-04-19T06:59:02.967Z</time></trkpt><trkpt lat="41.360335" lon="0.7907483"><ele>633.0</ele><time>2026-04-19T06:59:03.967Z</time></trkpt><trkpt lat="41.3602133" lon="0.7907817"><ele>633.0</ele><time>2026-04-19T06:59:04.967Z</time></trkpt><trkpt lat="41.3600933" lon="0.7908333"><ele>633.0</ele><time>2026-04-19T06:59:05.967Z</time></trkpt><trkpt lat="41.3599833" lon="0.7908917"><ele>633.0</ele><time>2026-04-19T06:59:06.967Z</time></trkpt><trkpt lat="41.3598733" lon="0.7909383"><ele>633.0</ele><time>2026-04-19T06:59:07.966Z</time></trkpt><trkpt lat="41.3597583" lon="0.7909783"><ele>633.0</ele><time>2026-04-19T06:59:08.967Z</time></trkpt><trkpt lat="41.3596383" lon="0.7910317"><ele>633.0</ele><time>2026-04-19T06:59:09.967Z</time></trkpt><trkpt lat="41.3595217" lon="0.7910917"><ele>635.5</ele><time>2026-04-19T06:59:10.967Z</time></trkpt><trkpt lat="41.359405" lon="0.7911483"><ele>638.0</ele><time>2026-04-19T06:59:11.967Z</time></trkpt><trkpt lat="41.359295" lon="0.7911933"><ele>640.5</ele><time>2026-04-19T06:59:12.967Z</time></trkpt><trkpt lat="41.359185" lon="0.7912383"><ele>643.0</ele><time>2026-04-19T06:59:13.966Z</time></trkpt><trkpt lat="41.3590733" lon="0.7912833"><ele>643.0</ele><time>2026-04-19T06:59:14.966Z</time></trkpt><trkpt lat="41.358975" lon="0.79132"><ele>643.0</ele><time>2026-04-19T06:59:15.967Z</time></trkpt><trkpt lat="41.3588817" lon="0.791355"><ele>643.0</ele><time>2026-04-19T06:59:16.966Z</time></trkpt><trkpt lat="41.3587917" lon="0.7913917"><ele>643.0</ele><time>2026-04-19T06:59:17.966Z</time></trkpt><trkpt lat="41.3587017" lon="0.791435"><ele>643.0</ele><time>2026-04-19T06:59:18.966Z</time></trkpt><trkpt lat="41.3586017" lon="0.791485"><ele>642.8</ele><time>2026-04-19T06:59:19.967Z</time></trkpt><trkpt lat="41.3585133" lon="0.7915267"><ele>642.5999999999999</ele><time>2026-04-19T06:59:20.967Z</time></trkpt><trkpt lat="41.3584283" lon="0.7915733"><ele>642.4000000000001</ele><time>2026-04-19T06:59:21.966Z</time></trkpt><trkpt lat="41.3583467" lon="0.7916217"><ele>642.2</ele><time>2026-04-19T06:59:22.966Z</time></trkpt><trkpt lat="41.358265" lon="0.7916767"><ele>642.0</ele><time>2026-04-19T06:59:23.966Z</time></trkpt><trkpt lat="41.3581883" lon="0.7917367"><ele>642.0</ele><time>2026-04-19T06:59:24.966Z</time></trkpt><trkpt lat="41.3581083" lon="0.7917917"><ele>642.0</ele><time>2026-04-19T06:59:25.967Z</time></trkpt><trkpt lat="41.358025" lon="0.7918433"><ele>642.0</ele><time>2026-04-19T06:59:26.967Z</time></trkpt><trkpt lat="41.3579333" lon="0.7919"><ele>642.0</ele><time>2026-04-19T06:59:27.967Z</time></trkpt><trkpt lat="41.3578417" lon="0.791975"><ele>642.0</ele><time>2026-04-19T06:59:28.966Z</time></trkpt><trkpt lat="41.3577333" lon="0.7920583"><ele>643.75</ele><time>2026-04-19T06:59:29.967Z</time></trkpt><trkpt lat="41.3576133" lon="0.792135"><ele>645.5</ele><time>2026-04-19T06:59:30.967Z</time></trkpt><trkpt lat="41.3574983" lon="0.792225"><ele>647.25</ele><time>2026-04-19T06:59:31.966Z</time></trkpt><trkpt lat="41.3573717" lon="0.7923117"><ele>649.0</ele><time>2026-04-19T06:59:32.966Z</time></trkpt><trkpt lat="41.3572417" lon="0.7924067"><ele>648.75</ele><time>2026-04-19T06:59:33.966Z</time></trkpt><trkpt lat="41.3571167" lon="0.7925033"><ele>648.5</ele><time>2026-04-19T06:59:34.966Z</time></trkpt><trkpt lat="41.35698" lon="0.7926"><ele>648.25</ele><time>2026-04-19T06:59:35.967Z</time></trkpt><trkpt lat="41.35685" lon="0.7926867"><ele>648.0</ele><time>2026-04-19T06:59:36.967Z</time></trkpt><trkpt lat="41.35671" lon="0.792775"><ele>649.3333333333334</ele><time>2026-04-19T06:59:37.967Z</time></trkpt><trkpt lat="41.356565" lon="0.7928683"><ele>650.6666666666667</ele><time>2026-04-19T06:59:38.966Z</time></trkpt><trkpt lat="41.35642" lon="0.792965"><ele>652.0</ele><time>2026-04-19T06:59:39.967Z</time></trkpt><trkpt lat="41.3562817" lon="0.79306"><ele>652.0</ele><time>2026-04-19T06:59:40.967Z</time></trkpt><trkpt lat="41.356135" lon="0.79316"><ele>652.0</ele><time>2026-04-19T06:59:41.967Z</time></trkpt><trkpt lat="41.3559883" lon="0.7932617"><ele>652.0</ele><time>2026-04-19T06:59:42.966Z</time></trkpt><trkpt lat="41.3558467" lon="0.7933633"><ele>652.0</ele><time>2026-04-19T06:59:43.966Z</time></trkpt><trkpt lat="41.3557067" lon="0.7934617"><ele>652.0</ele><time>2026-04-19T06:59:44.967Z</time></trkpt><trkpt lat="41.3555483" lon="0.79357"><ele>652.0</ele><time>2026-04-19T06:59:45.966Z</time></trkpt><trkpt lat="41.3553917" lon="0.79368"><ele>653.6666666666667</ele><time>2026-04-19T06:59:46.967Z</time></trkpt><trkpt lat="41.3552467" lon="0.7937733"><ele>655.3333333333334</ele><time>2026-04-19T06:59:47.966Z</time></trkpt><trkpt lat="41.3550967" lon="0.7938883"><ele>657.0</ele><time>2026-04-19T06:59:48.967Z</time></trkpt><trkpt lat="41.35496" lon="0.794"><ele>657.0</ele><time>2026-04-19T06:59:49.966Z</time></trkpt><trkpt lat="41.3547967" lon="0.794095"><ele>657.0</ele><time>2026-04-19T06:59:50.967Z</time></trkpt><trkpt lat="41.354645" lon="0.79419"><ele>657.0</ele><time>2026-04-19T06:59:51.967Z</time></trkpt><trkpt lat="41.3544883" lon="0.7943017"><ele>655.3333333333334</ele><time>2026-04-19T06:59:52.966Z</time></trkpt><trkpt lat="41.3543417" lon="0.794405"><ele>653.6666666666667</ele><time>2026-04-19T06:59:53.966Z</time></trkpt><trkpt lat="41.354195" lon="0.7945117"><ele>652.0</ele><time>2026-04-19T06:59:54.967Z</time></trkpt><trkpt lat="41.35405" lon="0.7946133"><ele>652.0</ele><time>2026-04-19T06:59:55.966Z</time></trkpt><trkpt lat="41.3538883" lon="0.7947267"><ele>652.0</ele><time>2026-04-19T06:59:56.967Z</time></trkpt><trkpt lat="41.3537433" lon="0.7948417"><ele>652.0</ele><time>2026-04-19T06:59:57.967Z</time></trkpt><trkpt lat="41.35359" lon="0.7949467"><ele>654.6666666666667</ele><time>2026-04-19T06:59:58.966Z</time></trkpt><trkpt lat="41.3534483" lon="0.7950333"><ele>657.3333333333334</ele><time>2026-04-19T06:59:59.966Z</time></trkpt><trkpt lat="41.3533" lon="0.7951167"><ele>660.0</ele><time>2026-04-19T07:00:00.967Z</time></trkpt><trkpt lat="41.3531533" lon="0.7952083"><ele>663.6666666666666</ele><time>2026-04-19T07:00:01.966Z</time></trkpt><trkpt lat="41.3530067" lon="0.7953167"><ele>667.3333333333333</ele><time>2026-04-19T07:00:02.967Z</time></trkpt><trkpt lat="41.35286" lon="0.7954217"><ele>671.0</ele><time>2026-04-19T07:00:03.967Z</time></trkpt><trkpt lat="41.352715" lon="0.795525"><ele>671.0</ele><time>2026-04-19T07:00:04.967Z</time></trkpt><trkpt lat="41.352575" lon="0.7956067"><ele>671.0</ele><time>2026-04-19T07:00:05.967Z</time></trkpt><trkpt lat="41.3524417" lon="0.7956967"><ele>671.0</ele><time>2026-04-19T07:00:06.966Z</time></trkpt><trkpt lat="41.352305" lon="0.79579"><ele>671.6666666666666</ele><time>2026-04-19T07:00:07.966Z</time></trkpt><trkpt lat="41.3521717" lon="0.7958867"><ele>672.3333333333334</ele><time>2026-04-19T07:00:08.967Z</time></trkpt><trkpt lat="41.3520433" lon="0.7959933"><ele>673.0</ele><time>2026-04-19T07:00:09.967Z</time></trkpt><trkpt lat="41.3519067" lon="0.79611"><ele>673.0</ele><time>2026-04-19T07:00:10.967Z</time></trkpt><trkpt lat="41.351775" lon="0.7962283"><ele>673.0</ele><time>2026-04-19T07:00:11.966Z</time></trkpt><trkpt lat="41.35164" lon="0.79634"><ele>673.0</ele><time>2026-04-19T07:00:12.967Z</time></trkpt><trkpt lat="41.3515117" lon="0.7964533"><ele>673.0</ele><time>2026-04-19T07:00:13.967Z</time></trkpt><trkpt lat="41.3513833" lon="0.7965767"><ele>673.0</ele><time>2026-04-19T07:00:14.966Z</time></trkpt><trkpt lat="41.3512517" lon="0.7967017"><ele>673.0</ele><time>2026-04-19T07:00:15.967Z</time></trkpt><trkpt lat="41.3511267" lon="0.796815"><ele>672.0</ele><time>2026-04-19T07:00:16.966Z</time></trkpt><trkpt lat="41.3509967" lon="0.7969083"><ele>671.0</ele><time>2026-04-19T07:00:17.967Z</time></trkpt><trkpt lat="41.35083" lon="0.797005"><ele>670.0</ele><time>2026-04-19T07:00:18.966Z</time></trkpt><trkpt lat="41.35066" lon="0.797075"><ele>670.3333333333334</ele><time>2026-04-19T07:00:19.966Z</time></trkpt><trkpt lat="41.3504917" lon="0.7971183"><ele>670.6666666666666</ele><time>2026-04-19T07:00:20.967Z</time></trkpt><trkpt lat="41.3503383" lon="0.7971367"><ele>671.0</ele><time>2026-04-19T07:00:21.966Z</time></trkpt><trkpt lat="41.3501917" lon="0.7971617"><ele>671.0</ele><time>2026-04-19T07:00:22.966Z</time></trkpt><trkpt lat="41.3500633" lon="0.7971917"><ele>671.0</ele><time>2026-04-19T07:00:23.967Z</time></trkpt><trkpt lat="41.3499283" lon="0.7972317"><ele>671.0</ele><time>2026-04-19T07:00:24.967Z</time></trkpt><trkpt lat="41.3498117" lon="0.7972667"><ele>671.0</ele><time>2026-04-19T07:00:25.967Z</time></trkpt><trkpt lat="41.3496783" lon="0.7973"><ele>671.0</ele><time>2026-04-19T07:00:26.967Z</time></trkpt><trkpt lat="41.349535" lon="0.7973367"><ele>671.0</ele><time>2026-04-19T07:00:27.967Z</time></trkpt><trkpt lat="41.3493867" lon="0.7973733"><ele>671.0</ele><time>2026-04-19T07:00:28.966Z</time></trkpt><trkpt lat="41.349245" lon="0.7973883"><ele>671.0</ele><time>2026-04-19T07:00:29.966Z</time></trkpt><trkpt lat="41.34911" lon="0.7973517"><ele>671.0</ele><time>2026-04-19T07:00:30.966Z</time></trkpt><trkpt lat="41.3489717" lon="0.797305"><ele>671.0</ele><time>2026-04-19T07:00:31.966Z</time></trkpt><trkpt lat="41.3488217" lon="0.7972717"><ele>671.0</ele><time>2026-04-19T07:00:32.967Z</time></trkpt><trkpt lat="41.3486683" lon="0.7972383"><ele>672.25</ele><time>2026-04-19T07:00:33.967Z</time></trkpt><trkpt lat="41.3485367" lon="0.7972067"><ele>673.5</ele><time>2026-04-19T07:00:34.966Z</time></trkpt><trkpt lat="41.348415" lon="0.79719"><ele>674.75</ele><time>2026-04-19T07:00:35.966Z</time></trkpt><trkpt lat="41.348285" lon="0.7972133"><ele>676.0</ele><time>2026-04-19T07:00:36.967Z</time></trkpt><trkpt lat="41.3481583" lon="0.7972733"><ele>676.0</ele><time>2026-04-19T07:00:37.966Z</time></trkpt><trkpt lat="41.3480567" lon="0.797355"><ele>676.0</ele><time>2026-04-19T07:00:38.966Z</time></trkpt><trkpt lat="41.3479567" lon="0.7974617"><ele>676.0</ele><time>2026-04-19T07:00:39.967Z</time></trkpt><trkpt lat="41.34784" lon="0.7975967"><ele>676.0</ele><time>2026-04-19T07:00:40.966Z</time></trkpt><trkpt lat="41.3477317" lon="0.7977133"><ele>677.0</ele><time>2026-04-19T07:00:41.966Z</time></trkpt><trkpt lat="41.3476183" lon="0.7978317"><ele>678.0</ele><time>2026-04-19T07:00:42.967Z</time></trkpt><trkpt lat="41.34751" lon="0.7979383"><ele>679.0</ele><time>2026-04-19T07:00:43.967Z</time></trkpt><trkpt lat="41.347405" lon="0.79805"><ele>680.0</ele><time>2026-04-19T07:00:44.966Z</time></trkpt><trkpt lat="41.3472933" lon="0.7981733"><ele>680.75</ele><time>2026-04-19T07:00:45.966Z</time></trkpt><trkpt lat="41.3471917" lon="0.7982883"><ele>681.5</ele><time>2026-04-19T07:00:46.967Z</time></trkpt><trkpt lat="41.3470683" lon="0.7984083"><ele>682.25</ele><time>2026-04-19T07:00:47.967Z</time></trkpt><trkpt lat="41.3469517" lon="0.7985267"><ele>683.0</ele><time>2026-04-19T07:00:48.967Z</time></trkpt><trkpt lat="41.3468367" lon="0.79864"><ele>684.5</ele><time>2026-04-19T07:00:49.967Z</time></trkpt><trkpt lat="41.34673" lon="0.7987483"><ele>686.0</ele><time>2026-04-19T07:00:50.966Z</time></trkpt><trkpt lat="41.3466267" lon="0.7988417"><ele>687.5</ele><time>2026-04-19T07:00:51.966Z</time></trkpt><trkpt lat="41.3465283" lon="0.79895"><ele>689.0</ele><time>2026-04-19T07:00:52.967Z</time></trkpt><trkpt lat="41.3464567" lon="0.7990733"><ele>689.0</ele><time>2026-04-19T07:00:53.966Z</time></trkpt><trkpt lat="41.3463967" lon="0.7992317"><ele>689.0</ele><time>2026-04-19T07:00:54.966Z</time></trkpt><trkpt lat="41.346365" lon="0.7993733"><ele>689.0</ele><time>2026-04-19T07:00:55.966Z</time></trkpt><trkpt lat="41.3463383" lon="0.7995233"><ele>689.0</ele><time>2026-04-19T07:00:56.967Z</time></trkpt><trkpt lat="41.346325" lon="0.7996467"><ele>688.0</ele><time>2026-04-19T07:00:57.966Z</time></trkpt><trkpt lat="41.3463083" lon="0.7997917"><ele>687.0</ele><time>2026-04-19T07:00:58.967Z</time></trkpt><trkpt lat="41.346295" lon="0.7999567"><ele>686.0</ele><time>2026-04-19T07:00:59.967Z</time></trkpt><trkpt lat="41.346275" lon="0.8001267"><ele>685.0</ele><time>2026-04-19T07:01:00.967Z</time></trkpt><trkpt lat="41.3462483" lon="0.8003033"><ele>685.0</ele><time>2026-04-19T07:01:01.966Z</time></trkpt><trkpt lat="41.3462317" lon="0.8004733"><ele>685.0</ele><time>2026-04-19T07:01:02.966Z</time></trkpt><trkpt lat="41.3462183" lon="0.80064"><ele>685.0</ele><time>2026-04-19T07:01:03.967Z</time></trkpt><trkpt lat="41.3461917" lon="0.8008033"><ele>685.0</ele><time>2026-04-19T07:01:04.967Z</time></trkpt><trkpt lat="41.346155" lon="0.80096"><ele>686.5</ele><time>2026-04-19T07:01:05.966Z</time></trkpt><trkpt lat="41.3460917" lon="0.8011033"><ele>688.0</ele><time>2026-04-19T07:01:06.967Z</time></trkpt><trkpt lat="41.3460033" lon="0.8012233"><ele>689.5</ele><time>2026-04-19T07:01:07.966Z</time></trkpt><trkpt lat="41.3458883" lon="0.8013217"><ele>691.0</ele><time>2026-04-19T07:01:08.967Z</time></trkpt><trkpt lat="41.345765" lon="0.8014167"><ele>691.0</ele><time>2026-04-19T07:01:09.966Z</time></trkpt><trkpt lat="41.34564" lon="0.801495"><ele>691.0</ele><time>2026-04-19T07:01:10.967Z</time></trkpt><trkpt lat="41.3455233" lon="0.8015717"><ele>691.0</ele><time>2026-04-19T07:01:11.966Z</time></trkpt><trkpt lat="41.3454117" lon="0.80165"><ele>691.0</ele><time>2026-04-19T07:01:12.966Z</time></trkpt><trkpt lat="41.345305" lon="0.8017317"><ele>689.75</ele><time>2026-04-19T07:01:13.966Z</time></trkpt><trkpt lat="41.3452033" lon="0.8018383"><ele>688.5</ele><time>2026-04-19T07:01:14.966Z</time></trkpt><trkpt lat="41.3450967" lon="0.8019433"><ele>687.25</ele><time>2026-04-19T07:01:15.967Z</time></trkpt><trkpt lat="41.3449917" lon="0.8020483"><ele>686.0</ele><time>2026-04-19T07:01:16.966Z</time></trkpt><trkpt lat="41.3448833" lon="0.8021517"><ele>686.0</ele><time>2026-04-19T07:01:17.966Z</time></trkpt><trkpt lat="41.344775" lon="0.80226"><ele>686.0</ele><time>2026-04-19T07:01:18.967Z</time></trkpt><trkpt lat="41.3446733" lon="0.802365"><ele>686.0</ele><time>2026-04-19T07:01:19.967Z</time></trkpt><trkpt lat="41.3445717" lon="0.8024733"><ele>686.0</ele><time>2026-04-19T07:01:20.967Z</time></trkpt><trkpt lat="41.344465" lon="0.802575"><ele>686.25</ele><time>2026-04-19T07:01:21.967Z</time></trkpt><trkpt lat="41.344365" lon="0.8026833"><ele>686.5</ele><time>2026-04-19T07:01:22.967Z</time></trkpt><trkpt lat="41.3442667" lon="0.8027867"><ele>686.75</ele><time>2026-04-19T07:01:23.966Z</time></trkpt><trkpt lat="41.34416" lon="0.8028967"><ele>687.0</ele><time>2026-04-19T07:01:24.966Z</time></trkpt><trkpt lat="41.3440617" lon="0.80299"><ele>687.0</ele><time>2026-04-19T07:01:25.967Z</time></trkpt><trkpt lat="41.34396" lon="0.8030817"><ele>687.0</ele><time>2026-04-19T07:01:26.966Z</time></trkpt><trkpt lat="41.3438583" lon="0.8032083"><ele>687.0</ele><time>2026-04-19T07:01:27.966Z</time></trkpt><trkpt lat="41.343765" lon="0.8033417"><ele>687.0</ele><time>2026-04-19T07:01:28.966Z</time></trkpt><trkpt lat="41.3436767" lon="0.803485"><ele>690.5</ele><time>2026-04-19T07:01:29.967Z</time></trkpt><trkpt lat="41.34359" lon="0.803625"><ele>694.0</ele><time>2026-04-19T07:01:30.966Z</time></trkpt><trkpt lat="41.34349" lon="0.8037533"><ele>697.5</ele><time>2026-04-19T07:01:31.966Z</time></trkpt><trkpt lat="41.3433967" lon="0.803875"><ele>701.0</ele><time>2026-04-19T07:01:32.966Z</time></trkpt><trkpt lat="41.3433333" lon="0.8039833"><ele>701.0</ele><time>2026-04-19T07:01:33.967Z</time></trkpt><trkpt lat="41.3432583" lon="0.804085"><ele>701.0</ele><time>2026-04-19T07:01:34.966Z</time></trkpt><trkpt lat="41.343175" lon="0.8041717"><ele>701.0</ele><time>2026-04-19T07:01:35.967Z</time></trkpt><trkpt lat="41.343085" lon="0.804245"><ele>701.0</ele><time>2026-04-19T07:01:36.966Z</time></trkpt><trkpt lat="41.3429783" lon="0.8043267"><ele>701.0</ele><time>2026-04-19T07:01:37.967Z</time></trkpt><trkpt lat="41.3428783" lon="0.8043883"><ele>700.8</ele><time>2026-04-19T07:01:38.967Z</time></trkpt><trkpt lat="41.3427817" lon="0.804455"><ele>700.5999999999999</ele><time>2026-04-19T07:01:39.967Z</time></trkpt><trkpt lat="41.3426867" lon="0.8045033"><ele>700.4</ele><time>2026-04-19T07:01:40.967Z</time></trkpt><trkpt lat="41.342575" lon="0.804525"><ele>700.2</ele><time>2026-04-19T07:01:41.967Z</time></trkpt><trkpt lat="41.3424633" lon="0.8045317"><ele>700.0</ele><time>2026-04-19T07:01:42.966Z</time></trkpt><trkpt lat="41.342345" lon="0.8045233"><ele>700.0</ele><time>2026-04-19T07:01:43.967Z</time></trkpt><trkpt lat="41.342245" lon="0.8045183"><ele>700.0</ele><time>2026-04-19T07:01:44.967Z</time></trkpt><trkpt lat="41.3421467" lon="0.8045483"><ele>700.0</ele><time>2026-04-19T07:01:45.966Z</time></trkpt><trkpt lat="41.3420533" lon="0.8046"><ele>700.0</ele><time>2026-04-19T07:01:46.966Z</time></trkpt><trkpt lat="41.3419583" lon="0.80468"><ele>700.0</ele><time>2026-04-19T07:01:47.966Z</time></trkpt><trkpt lat="41.3418833" lon="0.804775"><ele>702.0</ele><time>2026-04-19T07:01:48.967Z</time></trkpt><trkpt lat="41.3418217" lon="0.8049"><ele>704.0</ele><time>2026-04-19T07:01:49.966Z</time></trkpt><trkpt lat="41.341785" lon="0.8050283"><ele>706.0</ele><time>2026-04-19T07:01:50.967Z</time></trkpt><trkpt lat="41.3417667" lon="0.8051833"><ele>708.0</ele><time>2026-04-19T07:01:51.966Z</time></trkpt><trkpt lat="41.3417617" lon="0.8053467"><ele>708.0</ele><time>2026-04-19T07:01:52.966Z</time></trkpt><trkpt lat="41.3417567" lon="0.8055117"><ele>708.0</ele><time>2026-04-19T07:01:53.966Z</time></trkpt><trkpt lat="41.3417267" lon="0.8056533"><ele>708.0</ele><time>2026-04-19T07:01:54.966Z</time></trkpt><trkpt lat="41.3416717" lon="0.8057633"><ele>708.0</ele><time>2026-04-19T07:01:55.967Z</time></trkpt><trkpt lat="41.3416" lon="0.80583"><ele>708.0</ele><time>2026-04-19T07:01:56.966Z</time></trkpt><trkpt lat="41.3415217" lon="0.8058667"><ele>708.0</ele><time>2026-04-19T07:01:57.967Z</time></trkpt><trkpt lat="41.341435" lon="0.80587"><ele>708.0</ele><time>2026-04-19T07:01:58.966Z</time></trkpt><trkpt lat="41.3413467" lon="0.8058267"><ele>708.0</ele><time>2026-04-19T07:01:59.966Z</time></trkpt><trkpt lat="41.3412633" lon="0.8057583"><ele>708.0</ele><time>2026-04-19T07:02:00.966Z</time></trkpt><trkpt lat="41.3411567" lon="0.80574"><ele>708.0</ele><time>2026-04-19T07:02:01.966Z</time></trkpt><trkpt lat="41.3410433" lon="0.8057267"><ele>706.75</ele><time>2026-04-19T07:02:02.967Z</time></trkpt><trkpt lat="41.34093" lon="0.8057517"><ele>705.5</ele><time>2026-04-19T07:02:03.967Z</time></trkpt><trkpt lat="41.340815" lon="0.8058033"><ele>704.25</ele><time>2026-04-19T07:02:04.967Z</time></trkpt><trkpt lat="41.3407" lon="0.80585"><ele>703.0</ele><time>2026-04-19T07:02:05.967Z</time></trkpt><trkpt lat="41.3405883" lon="0.8058967"><ele>702.8</ele><time>2026-04-19T07:02:06.967Z</time></trkpt><trkpt lat="41.3404867" lon="0.80595"><ele>702.5999999999999</ele><time>2026-04-19T07:02:07.966Z</time></trkpt><trkpt lat="41.3403917" lon="0.80603"><ele>702.4000000000001</ele><time>2026-04-19T07:02:08.967Z</time></trkpt><trkpt lat="41.3403117" lon="0.80609"><ele>702.2</ele><time>2026-04-19T07:02:09.967Z</time></trkpt><trkpt lat="41.3402283" lon="0.806155"><ele>702.0</ele><time>2026-04-19T07:02:10.967Z</time></trkpt><trkpt lat="41.3401517" lon="0.806215"><ele>702.0</ele><time>2026-04-19T07:02:11.967Z</time></trkpt><trkpt lat="41.3400767" lon="0.8062733"><ele>702.0</ele><time>2026-04-19T07:02:12.967Z</time></trkpt><trkpt lat="41.3399933" lon="0.80633"><ele>702.0</ele><time>2026-04-19T07:02:13.966Z</time></trkpt><trkpt lat="41.3399217" lon="0.8063833"><ele>702.0</ele><time>2026-04-19T07:02:14.966Z</time></trkpt><trkpt lat="41.3398333" lon="0.80642"><ele>702.0</ele><time>2026-04-19T07:02:15.967Z</time></trkpt><trkpt lat="41.3397567" lon="0.8064467"><ele>702.0</ele><time>2026-04-19T07:02:16.967Z</time></trkpt><trkpt lat="41.3396767" lon="0.8064933"><ele>702.0</ele><time>2026-04-19T07:02:17.967Z</time></trkpt><trkpt lat="41.3395967" lon="0.806525"><ele>702.0</ele><time>2026-04-19T07:02:18.966Z</time></trkpt><trkpt lat="41.3395117" lon="0.8065367"><ele>702.0</ele><time>2026-04-19T07:02:19.967Z</time></trkpt><trkpt lat="41.33942" lon="0.8065617"><ele>702.0</ele><time>2026-04-19T07:02:20.967Z</time></trkpt><trkpt lat="41.3393333" lon="0.8065933"><ele>702.0</ele><time>2026-04-19T07:02:21.967Z</time></trkpt><trkpt lat="41.3392633" lon="0.8066417"><ele>702.0</ele><time>2026-04-19T07:02:22.966Z</time></trkpt><trkpt lat="41.3391883" lon="0.8066983"><ele>702.0</ele><time>2026-04-19T07:02:23.966Z</time></trkpt><trkpt lat="41.3391233" lon="0.8067783"><ele>702.0</ele><time>2026-04-19T07:02:24.966Z</time></trkpt><trkpt lat="41.339065" lon="0.8068867"><ele>702.0</ele><time>2026-04-19T07:02:25.966Z</time></trkpt><trkpt lat="41.3390033" lon="0.8070117"><ele>702.0</ele><time>2026-04-19T07:02:26.967Z</time></trkpt><trkpt lat="41.3389433" lon="0.8071217"><ele>702.0</ele><time>2026-04-19T07:02:27.966Z</time></trkpt><trkpt lat="41.3388767" lon="0.8072283"><ele>701.0</ele><time>2026-04-19T07:02:28.966Z</time></trkpt><trkpt lat="41.3388033" lon="0.8073083"><ele>700.0</ele><time>2026-04-19T07:02:29.966Z</time></trkpt><trkpt lat="41.3387267" lon="0.8073867"><ele>699.0</ele><time>2026-04-19T07:02:30.967Z</time></trkpt><trkpt lat="41.3386283" lon="0.8074617"><ele>698.0</ele><time>2026-04-19T07:02:31.966Z</time></trkpt><trkpt lat="41.3385383" lon="0.8075283"><ele>697.0</ele><time>2026-04-19T07:02:32.966Z</time></trkpt><trkpt lat="41.3384417" lon="0.807595"><ele>697.0</ele><time>2026-04-19T07:02:33.967Z</time></trkpt><trkpt lat="41.338355" lon="0.8076483"><ele>697.0</ele><time>2026-04-19T07:02:34.967Z</time></trkpt><trkpt lat="41.33826" lon="0.8076967"><ele>697.0</ele><time>2026-04-19T07:02:35.966Z</time></trkpt><trkpt lat="41.33817" lon="0.807735"><ele>697.0</ele><time>2026-04-19T07:02:36.967Z</time></trkpt><trkpt lat="41.3380883" lon="0.8077383"><ele>697.0</ele><time>2026-04-19T07:02:37.967Z</time></trkpt><trkpt lat="41.3379867" lon="0.8077383"><ele>698.6</ele><time>2026-04-19T07:02:38.966Z</time></trkpt><trkpt lat="41.3378883" lon="0.80771"><ele>700.2</ele><time>2026-04-19T07:02:39.966Z</time></trkpt><trkpt lat="41.3378017" lon="0.8076367"><ele>701.8</ele><time>2026-04-19T07:02:40.966Z</time></trkpt><trkpt lat="41.337725" lon="0.8075467"><ele>703.4</ele><time>2026-04-19T07:02:41.967Z</time></trkpt><trkpt lat="41.3376483" lon="0.8074767"><ele>705.0</ele><time>2026-04-19T07:02:42.966Z</time></trkpt><trkpt lat="41.3375617" lon="0.80742"><ele>705.0</ele><time>2026-04-19T07:02:43.967Z</time></trkpt><trkpt lat="41.3374633" lon="0.807375"><ele>705.0</ele><time>2026-04-19T07:02:44.966Z</time></trkpt><trkpt lat="41.337375" lon="0.80735"><ele>705.0</ele><time>2026-04-19T07:02:45.966Z</time></trkpt><trkpt lat="41.3372817" lon="0.8073317"><ele>705.0</ele><time>2026-04-19T07:02:46.967Z</time></trkpt><trkpt lat="41.3371733" lon="0.8073267"><ele>705.0</ele><time>2026-04-19T07:02:47.966Z</time></trkpt><trkpt lat="41.3370717" lon="0.8073417"><ele>705.2</ele><time>2026-04-19T07:02:48.966Z</time></trkpt><trkpt lat="41.3369817" lon="0.80738"><ele>705.4</ele><time>2026-04-19T07:02:49.967Z</time></trkpt><trkpt lat="41.336895" lon="0.8074367"><ele>705.5999999999999</ele><time>2026-04-19T07:02:50.966Z</time></trkpt><trkpt lat="41.336815" lon="0.80751"><ele>705.8</ele><time>2026-04-19T07:02:51.966Z</time></trkpt><trkpt lat="41.336705" lon="0.8075917"><ele>706.0</ele><time>2026-04-19T07:02:52.967Z</time></trkpt><trkpt lat="41.3365933" lon="0.807675"><ele>709.8</ele><time>2026-04-19T07:02:53.968Z</time></trkpt><trkpt lat="41.3364867" lon="0.807755"><ele>713.5999999999999</ele><time>2026-04-19T07:02:54.967Z</time></trkpt><trkpt lat="41.336395" lon="0.8078367"><ele>717.4</ele><time>2026-04-19T07:02:55.967Z</time></trkpt><trkpt lat="41.3363" lon="0.8078983"><ele>721.2</ele><time>2026-04-19T07:02:56.968Z</time></trkpt><trkpt lat="41.3361983" lon="0.8079183"><ele>725.0</ele><time>2026-04-19T07:02:57.967Z</time></trkpt><trkpt lat="41.33609" lon="0.8078817"><ele>725.25</ele><time>2026-04-19T07:02:58.967Z</time></trkpt><trkpt lat="41.3359767" lon="0.807845"><ele>725.5</ele><time>2026-04-19T07:02:59.968Z</time></trkpt><trkpt lat="41.3358667" lon="0.8078333"><ele>725.75</ele><time>2026-04-19T07:03:00.968Z</time></trkpt><trkpt lat="41.3357417" lon="0.8078417"><ele>726.0</ele><time>2026-04-19T07:03:01.968Z</time></trkpt><trkpt lat="41.33561" lon="0.807825"><ele>726.3333333333334</ele><time>2026-04-19T07:03:02.968Z</time></trkpt><trkpt lat="41.3355033" lon="0.8078417"><ele>726.6666666666666</ele><time>2026-04-19T07:03:03.967Z</time></trkpt><trkpt lat="41.335415" lon="0.80786"><ele>727.0</ele><time>2026-04-19T07:03:04.968Z</time></trkpt><trkpt lat="41.3353367" lon="0.80789"><ele>727.3333333333333</ele><time>2026-04-19T07:03:05.968Z</time></trkpt><trkpt lat="41.3352683" lon="0.8079317"><ele>727.6666666666666</ele><time>2026-04-19T07:03:06.968Z</time></trkpt><trkpt lat="41.3352033" lon="0.807985"><ele>728.0</ele><time>2026-04-19T07:03:07.967Z</time></trkpt><trkpt lat="41.3351317" lon="0.8080383"><ele>728.0</ele><time>2026-04-19T07:03:08.967Z</time></trkpt><trkpt lat="41.3350567" lon="0.8080817"><ele>728.0</ele><time>2026-04-19T07:03:09.968Z</time></trkpt><trkpt lat="41.334975" lon="0.8081167"><ele>728.0</ele><time>2026-04-19T07:03:10.967Z</time></trkpt><trkpt lat="41.3349017" lon="0.8081067"><ele>728.0</ele><time>2026-04-19T07:03:11.967Z</time></trkpt><trkpt lat="41.3348233" lon="0.8080433"><ele>728.0</ele><time>2026-04-19T07:03:12.968Z</time></trkpt><trkpt lat="41.334765" lon="0.8079483"><ele>728.0</ele><time>2026-04-19T07:03:13.968Z</time></trkpt><trkpt lat="41.334715" lon="0.807865"><ele>727.4</ele><time>2026-04-19T07:03:14.967Z</time></trkpt><trkpt lat="41.334645" lon="0.8078417"><ele>726.8</ele><time>2026-04-19T07:03:15.967Z</time></trkpt><trkpt lat="41.3345283" lon="0.8078833"><ele>726.2</ele><time>2026-04-19T07:03:17.967Z</time></trkpt><trkpt lat="41.3344517" lon="0.8079433"><ele>725.6</ele><time>2026-04-19T07:03:18.968Z</time></trkpt><trkpt lat="41.334375" lon="0.808015"><ele>725.0</ele><time>2026-04-19T07:03:19.968Z</time></trkpt><trkpt lat="41.3343" lon="0.8080917"><ele>725.0</ele><time>2026-04-19T07:03:20.967Z</time></trkpt><trkpt lat="41.33423" lon="0.8081633"><ele>725.0</ele><time>2026-04-19T07:03:21.967Z</time></trkpt><trkpt lat="41.334185" lon="0.8082383"><ele>725.0</ele><time>2026-04-19T07:03:22.967Z</time></trkpt><trkpt lat="41.3341517" lon="0.808315"><ele>725.0</ele><time>2026-04-19T07:03:23.968Z</time></trkpt><trkpt lat="41.3341417" lon="0.8084067"><ele>725.0</ele><time>2026-04-19T07:03:24.968Z</time></trkpt><trkpt lat="41.3341367" lon="0.8085067"><ele>725.0</ele><time>2026-04-19T07:03:25.968Z</time></trkpt><trkpt lat="41.3341333" lon="0.8086"><ele>725.0</ele><time>2026-04-19T07:03:26.967Z</time></trkpt><trkpt lat="41.33414" lon="0.80872"><ele>724.8333333333333</ele><time>2026-04-19T07:03:27.968Z</time></trkpt><trkpt lat="41.3341433" lon="0.8088367"><ele>724.6666666666666</ele><time>2026-04-19T07:03:28.968Z</time></trkpt><trkpt lat="41.3341433" lon="0.8089583"><ele>724.5</ele><time>2026-04-19T07:03:29.968Z</time></trkpt><trkpt lat="41.334145" lon="0.8090767"><ele>724.3333333333334</ele><time>2026-04-19T07:03:30.967Z</time></trkpt><trkpt lat="41.334145" lon="0.8091933"><ele>724.1666666666667</ele><time>2026-04-19T07:03:31.968Z</time></trkpt><trkpt lat="41.33413" lon="0.8093083"><ele>724.0</ele><time>2026-04-19T07:03:32.967Z</time></trkpt><trkpt lat="41.3340983" lon="0.8094133"><ele>724.0</ele><time>2026-04-19T07:03:33.968Z</time></trkpt><trkpt lat="41.334035" lon="0.809505"><ele>724.0</ele><time>2026-04-19T07:03:34.968Z</time></trkpt><trkpt lat="41.3339617" lon="0.8095867"><ele>724.0</ele><time>2026-04-19T07:03:35.967Z</time></trkpt><trkpt lat="41.333885" lon="0.8096683"><ele>724.0</ele><time>2026-04-19T07:03:36.968Z</time></trkpt><trkpt lat="41.333795" lon="0.80975"><ele>724.0</ele><time>2026-04-19T07:03:37.967Z</time></trkpt><trkpt lat="41.3337133" lon="0.8098133"><ele>725.4000000000001</ele><time>2026-04-19T07:03:38.967Z</time></trkpt><trkpt lat="41.33363" lon="0.8098733"><ele>726.8</ele><time>2026-04-19T07:03:39.968Z</time></trkpt><trkpt lat="41.33355" lon="0.8099383"><ele>728.2</ele><time>2026-04-19T07:03:40.967Z</time></trkpt><trkpt lat="41.33348" lon="0.810005"><ele>729.5999999999999</ele><time>2026-04-19T07:03:41.968Z</time></trkpt><trkpt lat="41.3334017" lon="0.8100733"><ele>731.0</ele><time>2026-04-19T07:03:42.967Z</time></trkpt><trkpt lat="41.333325" lon="0.810145"><ele>732.8</ele><time>2026-04-19T07:03:43.968Z</time></trkpt><trkpt lat="41.3332517" lon="0.8102267"><ele>734.5999999999999</ele><time>2026-04-19T07:03:44.967Z</time></trkpt><trkpt lat="41.33317" lon="0.81032"><ele>736.4</ele><time>2026-04-19T07:03:45.968Z</time></trkpt><trkpt lat="41.3330867" lon="0.8104117"><ele>738.2</ele><time>2026-04-19T07:03:46.968Z</time></trkpt><trkpt lat="41.3329967" lon="0.8104867"><ele>740.0</ele><time>2026-04-19T07:03:47.968Z</time></trkpt><trkpt lat="41.3329033" lon="0.8105567"><ele>741.4</ele><time>2026-04-19T07:03:48.968Z</time></trkpt><trkpt lat="41.3328017" lon="0.8106183"><ele>742.8</ele><time>2026-04-19T07:03:49.967Z</time></trkpt><trkpt lat="41.3326933" lon="0.8106583"><ele>744.2</ele><time>2026-04-19T07:03:50.967Z</time></trkpt><trkpt lat="41.3325833" lon="0.8106767"><ele>745.6</ele><time>2026-04-19T07:03:51.968Z</time></trkpt><trkpt lat="41.332475" lon="0.8106783"><ele>747.0</ele><time>2026-04-19T07:03:52.967Z</time></trkpt><trkpt lat="41.3323583" lon="0.810645"><ele>747.0</ele><time>2026-04-19T07:03:53.967Z</time></trkpt><trkpt lat="41.332255" lon="0.810585"><ele>747.0</ele><time>2026-04-19T07:03:54.967Z</time></trkpt><trkpt lat="41.332165" lon="0.81052"><ele>747.0</ele><time>2026-04-19T07:03:55.967Z</time></trkpt><trkpt lat="41.3320783" lon="0.810465"><ele>747.0</ele><time>2026-04-19T07:03:56.968Z</time></trkpt><trkpt lat="41.3320033" lon="0.8104317"><ele>747.0</ele><time>2026-04-19T07:03:57.967Z</time></trkpt><trkpt lat="41.331925" lon="0.8104317"><ele>747.5</ele><time>2026-04-19T07:03:58.967Z</time></trkpt><trkpt lat="41.331845" lon="0.8104483"><ele>748.0</ele><time>2026-04-19T07:03:59.968Z</time></trkpt><trkpt lat="41.331765" lon="0.8104817"><ele>748.5</ele><time>2026-04-19T07:04:00.967Z</time></trkpt><trkpt lat="41.3316817" lon="0.8105317"><ele>749.0</ele><time>2026-04-19T07:04:01.968Z</time></trkpt><trkpt lat="41.3315983" lon="0.81058"><ele>749.5</ele><time>2026-04-19T07:04:02.968Z</time></trkpt><trkpt lat="41.3315117" lon="0.81063"><ele>750.0</ele><time>2026-04-19T07:04:03.967Z</time></trkpt><trkpt lat="41.3314217" lon="0.8106817"><ele>750.4</ele><time>2026-04-19T07:04:04.967Z</time></trkpt><trkpt lat="41.3313267" lon="0.810745"><ele>750.8</ele><time>2026-04-19T07:04:05.968Z</time></trkpt><trkpt lat="41.3312317" lon="0.8108067"><ele>751.2</ele><time>2026-04-19T07:04:06.968Z</time></trkpt><trkpt lat="41.3311367" lon="0.8108683"><ele>751.6</ele><time>2026-04-19T07:04:07.967Z</time></trkpt><trkpt lat="41.33104" lon="0.8109383"><ele>752.0</ele><time>2026-04-19T07:04:08.968Z</time></trkpt><trkpt lat="41.330955" lon="0.8110233"><ele>752.0</ele><time>2026-04-19T07:04:09.968Z</time></trkpt><trkpt lat="41.33088" lon="0.8111183"><ele>752.0</ele><time>2026-04-19T07:04:10.967Z</time></trkpt><trkpt lat="41.3307983" lon="0.811225"><ele>752.0</ele><time>2026-04-19T07:04:11.968Z</time></trkpt><trkpt lat="41.3307133" lon="0.8113367"><ele>752.0</ele><time>2026-04-19T07:04:12.968Z</time></trkpt><trkpt lat="41.330635" lon="0.8114483"><ele>752.0</ele><time>2026-04-19T07:04:13.968Z</time></trkpt><trkpt lat="41.330565" lon="0.8115517"><ele>752.0</ele><time>2026-04-19T07:04:14.967Z</time></trkpt><trkpt lat="41.3305" lon="0.8116283"><ele>752.0</ele><time>2026-04-19T07:04:15.968Z</time></trkpt><trkpt lat="41.3304217" lon="0.8116867"><ele>752.0</ele><time>2026-04-19T07:04:16.968Z</time></trkpt><trkpt lat="41.3303333" lon="0.8117217"><ele>752.0</ele><time>2026-04-19T07:04:17.967Z</time></trkpt><trkpt lat="41.3302367" lon="0.8117317"><ele>754.0</ele><time>2026-04-19T07:04:18.967Z</time></trkpt><trkpt lat="41.3301433" lon="0.8117217"><ele>756.0</ele><time>2026-04-19T07:04:19.968Z</time></trkpt><trkpt lat="41.330055" lon="0.8117233"><ele>758.0</ele><time>2026-04-19T07:04:20.967Z</time></trkpt><trkpt lat="41.32996" lon="0.8117133"><ele>760.0</ele><time>2026-04-19T07:04:21.967Z</time></trkpt><trkpt lat="41.32987" lon="0.811705"><ele>762.0</ele><time>2026-04-19T07:04:22.968Z</time></trkpt><trkpt lat="41.3297883" lon="0.811705"><ele>764.0</ele><time>2026-04-19T07:04:23.967Z</time></trkpt><trkpt lat="41.3297133" lon="0.8117067"><ele>765.1666666666666</ele><time>2026-04-19T07:04:24.967Z</time></trkpt><trkpt lat="41.3296467" lon="0.8117083"><ele>766.3333333333333</ele><time>2026-04-19T07:04:25.967Z</time></trkpt><trkpt lat="41.3295733" lon="0.81172"><ele>767.5</ele><time>2026-04-19T07:04:26.968Z</time></trkpt><trkpt lat="41.3294717" lon="0.811745"><ele>768.6666666666666</ele><time>2026-04-19T07:04:28.968Z</time></trkpt><trkpt lat="41.3294083" lon="0.811775"><ele>769.8333333333334</ele><time>2026-04-19T07:04:32.968Z</time></trkpt><trkpt lat="41.32934" lon="0.8117917"><ele>771.0</ele><time>2026-04-19T07:04:34.968Z</time></trkpt><trkpt lat="41.3292717" lon="0.8118083"><ele>771.0</ele><time>2026-04-19T07:04:37.968Z</time></trkpt><trkpt lat="41.329185" lon="0.8117933"><ele>771.0</ele><time>2026-04-19T07:05:36.968Z</time></trkpt><trkpt lat="41.3291333" lon="0.81173"><ele>771.0</ele><time>2026-04-19T07:05:38.967Z</time></trkpt><trkpt lat="41.3290867" lon="0.811615"><ele>771.0</ele><time>2026-04-19T07:05:40.968Z</time></trkpt><trkpt lat="41.3290467" lon="0.811465"><ele>771.0</ele><time>2026-04-19T07:05:42.967Z</time></trkpt><trkpt lat="41.3289717" lon="0.8113183"><ele>771.0</ele><time>2026-04-19T07:05:44.967Z</time></trkpt><trkpt lat="41.3289033" lon="0.8112533"><ele>771.0</ele><time>2026-04-19T07:05:45.968Z</time></trkpt><trkpt lat="41.3288183" lon="0.81119"><ele>771.0</ele><time>2026-04-19T07:05:46.967Z</time></trkpt><trkpt lat="41.3287333" lon="0.81114"><ele>771.0</ele><time>2026-04-19T07:05:47.967Z</time></trkpt><trkpt lat="41.3286517" lon="0.811065"><ele>771.0</ele><time>2026-04-19T07:05:48.967Z</time></trkpt><trkpt lat="41.32859" lon="0.8109783"><ele>771.1999999999999</ele><time>2026-04-19T07:05:49.967Z</time></trkpt><trkpt lat="41.3285617" lon="0.8108617"><ele>771.4</ele><time>2026-04-19T07:05:50.968Z</time></trkpt><trkpt lat="41.3285433" lon="0.8107433"><ele>771.6</ele><time>2026-04-19T07:05:51.968Z</time></trkpt><trkpt lat="41.328535" lon="0.8106083"><ele>771.8</ele><time>2026-04-19T07:05:52.967Z</time></trkpt><trkpt lat="41.3285333" lon="0.8104667"><ele>772.0</ele><time>2026-04-19T07:05:53.968Z</time></trkpt><trkpt lat="41.32854" lon="0.8103333"><ele>772.0</ele><time>2026-04-19T07:05:54.967Z</time></trkpt><trkpt lat="41.3285517" lon="0.8101933"><ele>772.0</ele><time>2026-04-19T07:05:55.967Z</time></trkpt><trkpt lat="41.3285533" lon="0.8100617"><ele>772.0</ele><time>2026-04-19T07:05:56.968Z</time></trkpt><trkpt lat="41.3285433" lon="0.809935"><ele>772.0</ele><time>2026-04-19T07:05:57.967Z</time></trkpt><trkpt lat="41.3285217" lon="0.80983"><ele>772.0</ele><time>2026-04-19T07:05:58.968Z</time></trkpt><trkpt lat="41.3284767" lon="0.8097217"><ele>771.4000000000001</ele><time>2026-04-19T07:05:59.968Z</time></trkpt><trkpt lat="41.3284233" lon="0.809615"><ele>770.8000000000001</ele><time>2026-04-19T07:06:00.968Z</time></trkpt><trkpt lat="41.328365" lon="0.8094967"><ele>770.2</ele><time>2026-04-19T07:06:01.968Z</time></trkpt><trkpt lat="41.3283117" lon="0.809365"><ele>769.6</ele><time>2026-04-19T07:06:02.968Z</time></trkpt><trkpt lat="41.3282583" lon="0.809255"><ele>769.0</ele><time>2026-04-19T07:06:03.967Z</time></trkpt><trkpt lat="41.3282167" lon="0.80913"><ele>767.2</ele><time>2026-04-19T07:06:04.968Z</time></trkpt><trkpt lat="41.3281983" lon="0.80899"><ele>765.4000000000001</ele><time>2026-04-19T07:06:05.967Z</time></trkpt><trkpt lat="41.3282017" lon="0.808855"><ele>763.6</ele><time>2026-04-19T07:06:06.967Z</time></trkpt><trkpt lat="41.328225" lon="0.8087233"><ele>761.8</ele><time>2026-04-19T07:06:07.967Z</time></trkpt><trkpt lat="41.3282667" lon="0.8086083"><ele>760.0</ele><time>2026-04-19T07:06:08.967Z</time></trkpt><trkpt lat="41.328325" lon="0.8085267"><ele>758.5</ele><time>2026-04-19T07:06:09.967Z</time></trkpt><trkpt lat="41.3283983" lon="0.8084333"><ele>757.0</ele><time>2026-04-19T07:06:10.968Z</time></trkpt><trkpt lat="41.3284833" lon="0.808335"><ele>755.5</ele><time>2026-04-19T07:06:11.967Z</time></trkpt><trkpt lat="41.3285617" lon="0.8082167"><ele>754.0</ele><time>2026-04-19T07:06:12.968Z</time></trkpt><trkpt lat="41.328655" lon="0.8080933"><ele>754.0</ele><time>2026-04-19T07:06:13.967Z</time></trkpt><trkpt lat="41.328735" lon="0.8079867"><ele>754.0</ele><time>2026-04-19T07:06:14.967Z</time></trkpt><trkpt lat="41.3288133" lon="0.8078617"><ele>754.0</ele><time>2026-04-19T07:06:15.967Z</time></trkpt><trkpt lat="41.3288883" lon="0.8077417"><ele>754.0</ele><time>2026-04-19T07:06:16.968Z</time></trkpt><trkpt lat="41.3289633" lon="0.80764"><ele>753.4000000000001</ele><time>2026-04-19T07:06:17.967Z</time></trkpt><trkpt lat="41.3290333" lon="0.8075267"><ele>752.8</ele><time>2026-04-19T07:06:18.967Z</time></trkpt><trkpt lat="41.3290917" lon="0.80742"><ele>752.2</ele><time>2026-04-19T07:06:19.967Z</time></trkpt><trkpt lat="41.3291333" lon="0.8073017"><ele>751.5999999999999</ele><time>2026-04-19T07:06:20.968Z</time></trkpt><trkpt lat="41.3291817" lon="0.8071783"><ele>751.0</ele><time>2026-04-19T07:06:21.967Z</time></trkpt><trkpt lat="41.3292267" lon="0.8070467"><ele>751.0</ele><time>2026-04-19T07:06:22.967Z</time></trkpt><trkpt lat="41.3292667" lon="0.8069067"><ele>751.0</ele><time>2026-04-19T07:06:23.967Z</time></trkpt><trkpt lat="41.3293067" lon="0.8067783"><ele>751.0</ele><time>2026-04-19T07:06:24.968Z</time></trkpt><trkpt lat="41.3293417" lon="0.8066483"><ele>751.0</ele><time>2026-04-19T07:06:25.967Z</time></trkpt><trkpt lat="41.3293583" lon="0.806525"><ele>751.0</ele><time>2026-04-19T07:06:26.968Z</time></trkpt><trkpt lat="41.3293533" lon="0.8063767"><ele>750.1666666666667</ele><time>2026-04-19T07:06:27.967Z</time></trkpt><trkpt lat="41.32933" lon="0.80623"><ele>749.3333333333334</ele><time>2026-04-19T07:06:28.968Z</time></trkpt><trkpt lat="41.329305" lon="0.806105"><ele>748.5</ele><time>2026-04-19T07:06:29.968Z</time></trkpt><trkpt lat="41.3292883" lon="0.805995"><ele>747.6666666666666</ele><time>2026-04-19T07:06:30.967Z</time></trkpt><trkpt lat="41.32929" lon="0.8058917"><ele>746.8333333333333</ele><time>2026-04-19T07:06:31.968Z</time></trkpt><trkpt lat="41.3293233" lon="0.8057983"><ele>746.0</ele><time>2026-04-19T07:06:32.967Z</time></trkpt><trkpt lat="41.329385" lon="0.8057183"><ele>745.1666666666666</ele><time>2026-04-19T07:06:33.967Z</time></trkpt><trkpt lat="41.32947" lon="0.8056483"><ele>744.3333333333333</ele><time>2026-04-19T07:06:34.968Z</time></trkpt><trkpt lat="41.3295233" lon="0.805575"><ele>743.5</ele><time>2026-04-19T07:06:35.968Z</time></trkpt><trkpt lat="41.3295667" lon="0.805475"><ele>742.6666666666666</ele><time>2026-04-19T07:06:36.968Z</time></trkpt><trkpt lat="41.3296033" lon="0.8053767"><ele>741.8333333333334</ele><time>2026-04-19T07:06:37.967Z</time></trkpt><trkpt lat="41.3296233" lon="0.8052583"><ele>741.0</ele><time>2026-04-19T07:06:38.967Z</time></trkpt><trkpt lat="41.3296183" lon="0.805125"><ele>739.1999999999999</ele><time>2026-04-19T07:06:39.967Z</time></trkpt><trkpt lat="41.329595" lon="0.8049883"><ele>737.4</ele><time>2026-04-19T07:06:40.968Z</time></trkpt><trkpt lat="41.3295617" lon="0.8048617"><ele>735.6</ele><time>2026-04-19T07:06:41.967Z</time></trkpt><trkpt lat="41.3295383" lon="0.8047117"><ele>733.8</ele><time>2026-04-19T07:06:42.967Z</time></trkpt><trkpt lat="41.3295217" lon="0.8045633"><ele>732.0</ele><time>2026-04-19T07:06:43.968Z</time></trkpt><trkpt lat="41.3295233" lon="0.8044167"><ele>732.25</ele><time>2026-04-19T07:06:44.967Z</time></trkpt><trkpt lat="41.329555" lon="0.80428"><ele>732.5</ele><time>2026-04-19T07:06:45.968Z</time></trkpt><trkpt lat="41.3296" lon="0.80414"><ele>732.75</ele><time>2026-04-19T07:06:46.968Z</time></trkpt><trkpt lat="41.3296717" lon="0.8040067"><ele>733.0</ele><time>2026-04-19T07:06:47.968Z</time></trkpt><trkpt lat="41.329745" lon="0.803875"><ele>733.75</ele><time>2026-04-19T07:06:48.968Z</time></trkpt><trkpt lat="41.3298233" lon="0.8037483"><ele>734.5</ele><time>2026-04-19T07:06:49.967Z</time></trkpt><trkpt lat="41.32991" lon="0.803605"><ele>735.25</ele><time>2026-04-19T07:06:50.968Z</time></trkpt><trkpt lat="41.3300017" lon="0.80345"><ele>736.0</ele><time>2026-04-19T07:06:51.967Z</time></trkpt><trkpt lat="41.3300867" lon="0.8032917"><ele>736.5</ele><time>2026-04-19T07:06:52.968Z</time></trkpt><trkpt lat="41.33017" lon="0.8031583"><ele>737.0</ele><time>2026-04-19T07:06:53.967Z</time></trkpt><trkpt lat="41.3302467" lon="0.8030117"><ele>737.5</ele><time>2026-04-19T07:06:54.967Z</time></trkpt><trkpt lat="41.3303083" lon="0.8028733"><ele>738.0</ele><time>2026-04-19T07:06:55.968Z</time></trkpt><trkpt lat="41.33036" lon="0.8027433"><ele>736.75</ele><time>2026-04-19T07:06:56.968Z</time></trkpt><trkpt lat="41.3303933" lon="0.8026"><ele>735.5</ele><time>2026-04-19T07:06:57.968Z</time></trkpt><trkpt lat="41.33042" lon="0.80244"><ele>734.25</ele><time>2026-04-19T07:06:58.968Z</time></trkpt><trkpt lat="41.3304267" lon="0.80227"><ele>733.0</ele><time>2026-04-19T07:06:59.968Z</time></trkpt><trkpt lat="41.33042" lon="0.802095"><ele>733.0</ele><time>2026-04-19T07:07:00.967Z</time></trkpt><trkpt lat="41.330395" lon="0.8019217"><ele>733.0</ele><time>2026-04-19T07:07:01.968Z</time></trkpt><trkpt lat="41.33038" lon="0.80175"><ele>733.0</ele><time>2026-04-19T07:07:02.967Z</time></trkpt><trkpt lat="41.33036" lon="0.80157"><ele>733.0</ele><time>2026-04-19T07:07:03.967Z</time></trkpt><trkpt lat="41.3303417" lon="0.8013767"><ele>733.25</ele><time>2026-04-19T07:07:04.968Z</time></trkpt><trkpt lat="41.3303167" lon="0.8012067"><ele>733.5</ele><time>2026-04-19T07:07:05.968Z</time></trkpt><trkpt lat="41.33029" lon="0.80105"><ele>733.75</ele><time>2026-04-19T07:07:06.968Z</time></trkpt><trkpt lat="41.3302383" lon="0.8008767"><ele>734.0</ele><time>2026-04-19T07:07:07.967Z</time></trkpt><trkpt lat="41.330175" lon="0.80071"><ele>734.25</ele><time>2026-04-19T07:07:08.967Z</time></trkpt><trkpt lat="41.330105" lon="0.800555"><ele>734.5</ele><time>2026-04-19T07:07:09.967Z</time></trkpt><trkpt lat="41.33002" lon="0.80041"><ele>734.75</ele><time>2026-04-19T07:07:10.968Z</time></trkpt><trkpt lat="41.32994" lon="0.8002583"><ele>735.0</ele><time>2026-04-19T07:07:11.967Z</time></trkpt><trkpt lat="41.32986" lon="0.8001233"><ele>735.0</ele><time>2026-04-19T07:07:12.968Z</time></trkpt><trkpt lat="41.3297967" lon="0.8"><ele>735.0</ele><time>2026-04-19T07:07:13.967Z</time></trkpt><trkpt lat="41.3297267" lon="0.7998767"><ele>735.0</ele><time>2026-04-19T07:07:14.968Z</time></trkpt><trkpt lat="41.3296567" lon="0.799735"><ele>735.0</ele><time>2026-04-19T07:07:15.967Z</time></trkpt><trkpt lat="41.3295983" lon="0.79959"><ele>735.0</ele><time>2026-04-19T07:07:16.968Z</time></trkpt><trkpt lat="41.32956" lon="0.7994167"><ele>735.0</ele><time>2026-04-19T07:07:17.967Z</time></trkpt><trkpt lat="41.3295483" lon="0.7992483"><ele>735.0</ele><time>2026-04-19T07:07:18.968Z</time></trkpt><trkpt lat="41.3295767" lon="0.7990667"><ele>735.0</ele><time>2026-04-19T07:07:19.967Z</time></trkpt><trkpt lat="41.3296267" lon="0.79892"><ele>734.2</ele><time>2026-04-19T07:07:20.968Z</time></trkpt><trkpt lat="41.3296667" lon="0.7987767"><ele>733.4</ele><time>2026-04-19T07:07:21.968Z</time></trkpt><trkpt lat="41.3297183" lon="0.7986483"><ele>732.5999999999999</ele><time>2026-04-19T07:07:22.968Z</time></trkpt><trkpt lat="41.3297667" lon="0.7985167"><ele>731.8</ele><time>2026-04-19T07:07:23.968Z</time></trkpt><trkpt lat="41.3298117" lon="0.7983783"><ele>731.0</ele><time>2026-04-19T07:07:24.968Z</time></trkpt><trkpt lat="41.329855" lon="0.7982383"><ele>730.0</ele><time>2026-04-19T07:07:25.968Z</time></trkpt><trkpt lat="41.3299017" lon="0.798075"><ele>729.0</ele><time>2026-04-19T07:07:26.968Z</time></trkpt><trkpt lat="41.3299517" lon="0.7979067"><ele>728.0</ele><time>2026-04-19T07:07:27.967Z</time></trkpt><trkpt lat="41.3300017" lon="0.7977367"><ele>727.0</ele><time>2026-04-19T07:07:28.968Z</time></trkpt><trkpt lat="41.3300383" lon="0.7975767"><ele>726.75</ele><time>2026-04-19T07:07:29.967Z</time></trkpt><trkpt lat="41.330065" lon="0.7974217"><ele>726.5</ele><time>2026-04-19T07:07:30.967Z</time></trkpt><trkpt lat="41.3300867" lon="0.7972617"><ele>726.25</ele><time>2026-04-19T07:07:31.967Z</time></trkpt><trkpt lat="41.3300833" lon="0.797095"><ele>726.0</ele><time>2026-04-19T07:07:32.967Z</time></trkpt><trkpt lat="41.3300567" lon="0.796955"><ele>724.75</ele><time>2026-04-19T07:07:33.968Z</time></trkpt><trkpt lat="41.3300083" lon="0.7968"><ele>723.5</ele><time>2026-04-19T07:07:34.968Z</time></trkpt><trkpt lat="41.3299533" lon="0.796635"><ele>722.25</ele><time>2026-04-19T07:07:35.968Z</time></trkpt><trkpt lat="41.3299067" lon="0.7964817"><ele>721.0</ele><time>2026-04-19T07:07:36.967Z</time></trkpt><trkpt lat="41.32985" lon="0.7963267"><ele>721.0</ele><time>2026-04-19T07:07:37.968Z</time></trkpt><trkpt lat="41.3298017" lon="0.7961783"><ele>721.0</ele><time>2026-04-19T07:07:38.968Z</time></trkpt><trkpt lat="41.3297567" lon="0.796025"><ele>721.0</ele><time>2026-04-19T07:07:39.967Z</time></trkpt><trkpt lat="41.3297233" lon="0.7958617"><ele>721.0</ele><time>2026-04-19T07:07:40.967Z</time></trkpt><trkpt lat="41.3297167" lon="0.7956917"><ele>720.0</ele><time>2026-04-19T07:07:41.968Z</time></trkpt><trkpt lat="41.32974" lon="0.79554"><ele>719.0</ele><time>2026-04-19T07:07:42.967Z</time></trkpt><trkpt lat="41.329795" lon="0.79539"><ele>718.0</ele><time>2026-04-19T07:07:43.967Z</time></trkpt><trkpt lat="41.329875" lon="0.7952667"><ele>717.0</ele><time>2026-04-19T07:07:44.968Z</time></trkpt><trkpt lat="41.3299683" lon="0.7951567"><ele>717.0</ele><time>2026-04-19T07:07:45.968Z</time></trkpt><trkpt lat="41.3300583" lon="0.79505"><ele>717.0</ele><time>2026-04-19T07:07:46.968Z</time></trkpt><trkpt lat="41.3301617" lon="0.7949417"><ele>717.0</ele><time>2026-04-19T07:07:47.967Z</time></trkpt><trkpt lat="41.3302667" lon="0.7948267"><ele>717.0</ele><time>2026-04-19T07:07:48.967Z</time></trkpt><trkpt lat="41.3303667" lon="0.79471"><ele>717.0</ele><time>2026-04-19T07:07:49.968Z</time></trkpt><trkpt lat="41.3304533" lon="0.7945683"><ele>717.0</ele><time>2026-04-19T07:07:50.967Z</time></trkpt><trkpt lat="41.33054" lon="0.79441"><ele>717.0</ele><time>2026-04-19T07:07:51.968Z</time></trkpt><trkpt lat="41.3306217" lon="0.79423"><ele>717.0</ele><time>2026-04-19T07:07:52.967Z</time></trkpt><trkpt lat="41.3307033" lon="0.79406"><ele>714.0</ele><time>2026-04-19T07:07:53.967Z</time></trkpt><trkpt lat="41.3307933" lon="0.79388"><ele>711.0</ele><time>2026-04-19T07:07:54.968Z</time></trkpt><trkpt lat="41.33087" lon="0.7936933"><ele>708.0</ele><time>2026-04-19T07:07:55.968Z</time></trkpt><trkpt lat="41.3309417" lon="0.7935067"><ele>709.3333333333334</ele><time>2026-04-19T07:07:56.967Z</time></trkpt><trkpt lat="41.3310167" lon="0.79332"><ele>710.6666666666667</ele><time>2026-04-19T07:07:57.968Z</time></trkpt><trkpt lat="41.33109" lon="0.7931417"><ele>712.0</ele><time>2026-04-19T07:07:58.968Z</time></trkpt><trkpt lat="41.3311517" lon="0.7929383"><ele>712.0</ele><time>2026-04-19T07:07:59.968Z</time></trkpt><trkpt lat="41.3312283" lon="0.7927483"><ele>712.0</ele><time>2026-04-19T07:08:00.968Z</time></trkpt><trkpt lat="41.3313067" lon="0.7925633"><ele>712.0</ele><time>2026-04-19T07:08:01.968Z</time></trkpt><trkpt lat="41.3313817" lon="0.7923883"><ele>710.5</ele><time>2026-04-19T07:08:02.968Z</time></trkpt><trkpt lat="41.3314517" lon="0.7922117"><ele>709.0</ele><time>2026-04-19T07:08:03.967Z</time></trkpt><trkpt lat="41.3315217" lon="0.7920383"><ele>707.5</ele><time>2026-04-19T07:08:04.968Z</time></trkpt><trkpt lat="41.331595" lon="0.791865"><ele>706.0</ele><time>2026-04-19T07:08:05.968Z</time></trkpt><trkpt lat="41.3316683" lon="0.7916983"><ele>705.6666666666667</ele><time>2026-04-19T07:08:06.968Z</time></trkpt><trkpt lat="41.33175" lon="0.7915133"><ele>705.3333333333334</ele><time>2026-04-19T07:08:07.968Z</time></trkpt><trkpt lat="41.33181" lon="0.7913367"><ele>705.0</ele><time>2026-04-19T07:08:08.968Z</time></trkpt><trkpt lat="41.3318617" lon="0.79115"><ele>704.0</ele><time>2026-04-19T07:08:09.968Z</time></trkpt><trkpt lat="41.3319033" lon="0.79095"><ele>703.0</ele><time>2026-04-19T07:08:10.968Z</time></trkpt><trkpt lat="41.3319317" lon="0.7907567"><ele>702.0</ele><time>2026-04-19T07:08:11.968Z</time></trkpt><trkpt lat="41.33197" lon="0.79056"><ele>702.0</ele><time>2026-04-19T07:08:12.967Z</time></trkpt><trkpt lat="41.332" lon="0.790365"><ele>702.0</ele><time>2026-04-19T07:08:13.968Z</time></trkpt><trkpt lat="41.3320183" lon="0.790185"><ele>702.0</ele><time>2026-04-19T07:08:14.967Z</time></trkpt><trkpt lat="41.3320467" lon="0.7900133"><ele>702.0</ele><time>2026-04-19T07:08:15.968Z</time></trkpt><trkpt lat="41.33206" lon="0.789845"><ele>701.0</ele><time>2026-04-19T07:08:16.967Z</time></trkpt><trkpt lat="41.3320683" lon="0.7896733"><ele>700.0</ele><time>2026-04-19T07:08:17.967Z</time></trkpt><trkpt lat="41.3320833" lon="0.7894883"><ele>699.0</ele><time>2026-04-19T07:08:18.967Z</time></trkpt><trkpt lat="41.332085" lon="0.7892983"><ele>698.0</ele><time>2026-04-19T07:08:19.967Z</time></trkpt><trkpt lat="41.3320917" lon="0.7890983"><ele>698.3333333333333</ele><time>2026-04-19T07:08:20.967Z</time></trkpt><trkpt lat="41.3320883" lon="0.7888867"><ele>698.6666666666666</ele><time>2026-04-19T07:08:21.967Z</time></trkpt><trkpt lat="41.3320817" lon="0.7886717"><ele>699.0</ele><time>2026-04-19T07:08:22.967Z</time></trkpt><trkpt lat="41.33208" lon="0.7884483"><ele>699.0</ele><time>2026-04-19T07:08:23.968Z</time></trkpt><trkpt lat="41.332075" lon="0.7882367"><ele>699.0</ele><time>2026-04-19T07:08:24.968Z</time></trkpt><trkpt lat="41.3320767" lon="0.7880167"><ele>699.0</ele><time>2026-04-19T07:08:25.967Z</time></trkpt><trkpt lat="41.33207" lon="0.7878283"><ele>698.0</ele><time>2026-04-19T07:08:26.967Z</time></trkpt><trkpt lat="41.3320667" lon="0.787645"><ele>697.0</ele><time>2026-04-19T07:08:27.968Z</time></trkpt><trkpt lat="41.3320583" lon="0.7874583"><ele>696.0</ele><time>2026-04-19T07:08:28.967Z</time></trkpt><trkpt lat="41.3320533" lon="0.7872733"><ele>695.0</ele><time>2026-04-19T07:08:29.967Z</time></trkpt><trkpt lat="41.3320517" lon="0.7870983"><ele>695.0</ele><time>2026-04-19T07:08:30.967Z</time></trkpt><trkpt lat="41.3320583" lon="0.7869333"><ele>695.0</ele><time>2026-04-19T07:08:31.967Z</time></trkpt><trkpt lat="41.332075" lon="0.7867933"><ele>695.0</ele><time>2026-04-19T07:08:32.967Z</time></trkpt><trkpt lat="41.3320983" lon="0.786655"><ele>695.0</ele><time>2026-04-19T07:08:33.967Z</time></trkpt><trkpt lat="41.3321417" lon="0.7865183"><ele>695.0</ele><time>2026-04-19T07:08:34.968Z</time></trkpt><trkpt lat="41.33221" lon="0.7863917"><ele>695.25</ele><time>2026-04-19T07:08:35.967Z</time></trkpt><trkpt lat="41.3322933" lon="0.786265"><ele>695.5</ele><time>2026-04-19T07:08:36.967Z</time></trkpt><trkpt lat="41.3323817" lon="0.7861317"><ele>695.75</ele><time>2026-04-19T07:08:37.968Z</time></trkpt><trkpt lat="41.3324733" lon="0.7860033"><ele>696.0</ele><time>2026-04-19T07:08:38.967Z</time></trkpt><trkpt lat="41.3325533" lon="0.785855"><ele>694.0</ele><time>2026-04-19T07:08:39.967Z</time></trkpt><trkpt lat="41.3326267" lon="0.78571"><ele>692.0</ele><time>2026-04-19T07:08:40.967Z</time></trkpt><trkpt lat="41.33267" lon="0.785545"><ele>690.0</ele><time>2026-04-19T07:08:41.968Z</time></trkpt><trkpt lat="41.3326783" lon="0.7853683"><ele>688.0</ele><time>2026-04-19T07:08:42.968Z</time></trkpt><trkpt lat="41.332665" lon="0.785185"><ele>686.0</ele><time>2026-04-19T07:08:43.967Z</time></trkpt><trkpt lat="41.33265" lon="0.7850083"><ele>684.0</ele><time>2026-04-19T07:08:44.968Z</time></trkpt><trkpt lat="41.33264" lon="0.7848333"><ele>682.0</ele><time>2026-04-19T07:08:45.968Z</time></trkpt><trkpt lat="41.332625" lon="0.784655"><ele>680.0</ele><time>2026-04-19T07:08:46.968Z</time></trkpt><trkpt lat="41.332605" lon="0.7844683"><ele>680.0</ele><time>2026-04-19T07:08:47.968Z</time></trkpt><trkpt lat="41.33257" lon="0.78431"><ele>680.0</ele><time>2026-04-19T07:08:48.968Z</time></trkpt><trkpt lat="41.3325167" lon="0.784155"><ele>680.0</ele><time>2026-04-19T07:08:49.968Z</time></trkpt><trkpt lat="41.3324483" lon="0.7840033"><ele>680.0</ele><time>2026-04-19T07:08:50.967Z</time></trkpt><trkpt lat="41.33238" lon="0.7838467"><ele>680.0</ele><time>2026-04-19T07:08:51.968Z</time></trkpt><trkpt lat="41.33231" lon="0.7836933"><ele>680.0</ele><time>2026-04-19T07:08:52.968Z</time></trkpt><trkpt lat="41.3322517" lon="0.7835283"><ele>680.0</ele><time>2026-04-19T07:08:53.968Z</time></trkpt><trkpt lat="41.3322233" lon="0.7833767"><ele>680.0</ele><time>2026-04-19T07:08:54.968Z</time></trkpt><trkpt lat="41.3322117" lon="0.78321"><ele>679.25</ele><time>2026-04-19T07:08:55.967Z</time></trkpt><trkpt lat="41.3322267" lon="0.783035"><ele>678.5</ele><time>2026-04-19T07:08:56.967Z</time></trkpt><trkpt lat="41.3322733" lon="0.7828683"><ele>677.75</ele><time>2026-04-19T07:08:57.967Z</time></trkpt><trkpt lat="41.3323467" lon="0.7827183"><ele>677.0</ele><time>2026-04-19T07:08:58.968Z</time></trkpt><trkpt lat="41.332435" lon="0.7825933"><ele>676.0</ele><time>2026-04-19T07:08:59.967Z</time></trkpt><trkpt lat="41.3324833" lon="0.7824567"><ele>675.0</ele><time>2026-04-19T07:09:00.967Z</time></trkpt><trkpt lat="41.332505" lon="0.7823"><ele>674.0</ele><time>2026-04-19T07:09:01.968Z</time></trkpt><trkpt lat="41.3325" lon="0.7821383"><ele>673.0</ele><time>2026-04-19T07:09:02.968Z</time></trkpt><trkpt lat="41.3324767" lon="0.7819783"><ele>672.75</ele><time>2026-04-19T07:09:03.968Z</time></trkpt><trkpt lat="41.3324633" lon="0.7818167"><ele>672.5</ele><time>2026-04-19T07:09:04.968Z</time></trkpt><trkpt lat="41.3324533" lon="0.7816583"><ele>672.25</ele><time>2026-04-19T07:09:05.968Z</time></trkpt><trkpt lat="41.33244" lon="0.7815"><ele>672.0</ele><time>2026-04-19T07:09:06.967Z</time></trkpt><trkpt lat="41.3324383" lon="0.7813533"><ele>672.0</ele><time>2026-04-19T07:09:07.967Z</time></trkpt><trkpt lat="41.3324267" lon="0.7811933"><ele>672.0</ele><time>2026-04-19T07:09:08.968Z</time></trkpt><trkpt lat="41.3324183" lon="0.7810483"><ele>672.0</ele><time>2026-04-19T07:09:09.968Z</time></trkpt><trkpt lat="41.332405" lon="0.7808917"><ele>672.0</ele><time>2026-04-19T07:09:10.967Z</time></trkpt><trkpt lat="41.33241" lon="0.7807067"><ele>672.5</ele><time>2026-04-19T07:09:11.968Z</time></trkpt><trkpt lat="41.3324367" lon="0.7805317"><ele>673.0</ele><time>2026-04-19T07:09:12.968Z</time></trkpt><trkpt lat="41.33249" lon="0.78036"><ele>673.5</ele><time>2026-04-19T07:09:13.968Z</time></trkpt><trkpt lat="41.3325683" lon="0.7801933"><ele>674.0</ele><time>2026-04-19T07:09:14.967Z</time></trkpt><trkpt lat="41.33264" lon="0.78004"><ele>675.25</ele><time>2026-04-19T07:09:15.968Z</time></trkpt><trkpt lat="41.3327083" lon="0.7798917"><ele>676.5</ele><time>2026-04-19T07:09:16.967Z</time></trkpt><trkpt lat="41.332765" lon="0.779735"><ele>677.75</ele><time>2026-04-19T07:09:17.968Z</time></trkpt><trkpt lat="41.33282" lon="0.7795717"><ele>679.0</ele><time>2026-04-19T07:09:18.967Z</time></trkpt><trkpt lat="41.3328867" lon="0.7794117"><ele>679.4000000000001</ele><time>2026-04-19T07:09:19.967Z</time></trkpt><trkpt lat="41.3329383" lon="0.77926"><ele>679.8</ele><time>2026-04-19T07:09:20.968Z</time></trkpt><trkpt lat="41.3329833" lon="0.77913"><ele>680.2</ele><time>2026-04-19T07:09:21.968Z</time></trkpt><trkpt lat="41.3330283" lon="0.7790017"><ele>680.5999999999999</ele><time>2026-04-19T07:09:22.967Z</time></trkpt><trkpt lat="41.3330283" lon="0.77888"><ele>681.0</ele><time>2026-04-19T07:09:23.968Z</time></trkpt><trkpt lat="41.33301" lon="0.7787683"><ele>681.0</ele><time>2026-04-19T07:09:24.967Z</time></trkpt><trkpt lat="41.33296" lon="0.77867"><ele>681.0</ele><time>2026-04-19T07:09:25.967Z</time></trkpt><trkpt lat="41.3329117" lon="0.7785817"><ele>681.0</ele><time>2026-04-19T07:09:26.968Z</time></trkpt><trkpt lat="41.3328267" lon="0.7785117"><ele>681.0</ele><time>2026-04-19T07:09:27.968Z</time></trkpt><trkpt lat="41.3327283" lon="0.7784283"><ele>681.0</ele><time>2026-04-19T07:09:28.968Z</time></trkpt><trkpt lat="41.3326267" lon="0.7783633"><ele>679.5999999999999</ele><time>2026-04-19T07:09:29.968Z</time></trkpt><trkpt lat="41.332545" lon="0.7782717"><ele>678.2</ele><time>2026-04-19T07:09:30.967Z</time></trkpt><trkpt lat="41.332475" lon="0.7781633"><ele>676.8</ele><time>2026-04-19T07:09:31.968Z</time></trkpt><trkpt lat="41.332435" lon="0.778025"><ele>675.4000000000001</ele><time>2026-04-19T07:09:32.967Z</time></trkpt><trkpt lat="41.3324233" lon="0.7778783"><ele>674.0</ele><time>2026-04-19T07:09:33.967Z</time></trkpt><trkpt lat="41.332455" lon="0.7777317"><ele>673.5</ele><time>2026-04-19T07:09:34.968Z</time></trkpt><trkpt lat="41.3325167" lon="0.7776067"><ele>673.0</ele><time>2026-04-19T07:09:35.967Z</time></trkpt><trkpt lat="41.332565" lon="0.7774683"><ele>672.5</ele><time>2026-04-19T07:09:36.968Z</time></trkpt><trkpt lat="41.33262" lon="0.7773283"><ele>672.0</ele><time>2026-04-19T07:09:37.968Z</time></trkpt><trkpt lat="41.3326633" lon="0.7771767"><ele>672.0</ele><time>2026-04-19T07:09:38.968Z</time></trkpt><trkpt lat="41.3327217" lon="0.77702"><ele>672.0</ele><time>2026-04-19T07:09:39.967Z</time></trkpt><trkpt lat="41.3327767" lon="0.77687"><ele>672.0</ele><time>2026-04-19T07:09:40.968Z</time></trkpt><trkpt lat="41.332835" lon="0.7767117"><ele>672.0</ele><time>2026-04-19T07:09:41.968Z</time></trkpt><trkpt lat="41.332905" lon="0.77656"><ele>671.5</ele><time>2026-04-19T07:09:42.967Z</time></trkpt><trkpt lat="41.3329733" lon="0.7764033"><ele>671.0</ele><time>2026-04-19T07:09:43.967Z</time></trkpt><trkpt lat="41.3330583" lon="0.7762567"><ele>670.5</ele><time>2026-04-19T07:09:44.968Z</time></trkpt><trkpt lat="41.33315" lon="0.7761283"><ele>670.0</ele><time>2026-04-19T07:09:45.968Z</time></trkpt><trkpt lat="41.3332467" lon="0.7760083"><ele>668.5</ele><time>2026-04-19T07:09:46.968Z</time></trkpt><trkpt lat="41.333345" lon="0.7758617"><ele>667.0</ele><time>2026-04-19T07:09:47.967Z</time></trkpt><trkpt lat="41.3334367" lon="0.7757317"><ele>665.5</ele><time>2026-04-19T07:09:48.968Z</time></trkpt><trkpt lat="41.3335283" lon="0.7755883"><ele>664.0</ele><time>2026-04-19T07:09:49.967Z</time></trkpt><trkpt lat="41.3336317" lon="0.7754517"><ele>664.0</ele><time>2026-04-19T07:09:50.968Z</time></trkpt><trkpt lat="41.3337283" lon="0.7753"><ele>664.0</ele><time>2026-04-19T07:09:51.968Z</time></trkpt><trkpt lat="41.333825" lon="0.77514"><ele>664.0</ele><time>2026-04-19T07:09:52.967Z</time></trkpt><trkpt lat="41.333915" lon="0.7749767"><ele>663.25</ele><time>2026-04-19T07:09:53.967Z</time></trkpt><trkpt lat="41.334" lon="0.774825"><ele>662.5</ele><time>2026-04-19T07:09:54.968Z</time></trkpt><trkpt lat="41.3340867" lon="0.7746783"><ele>661.75</ele><time>2026-04-19T07:09:55.967Z</time></trkpt><trkpt lat="41.3341817" lon="0.7745283"><ele>661.0</ele><time>2026-04-19T07:09:56.968Z</time></trkpt><trkpt lat="41.3342583" lon="0.774385"><ele>661.5</ele><time>2026-04-19T07:09:57.967Z</time></trkpt><trkpt lat="41.3343433" lon="0.7742567"><ele>662.0</ele><time>2026-04-19T07:09:58.968Z</time></trkpt><trkpt lat="41.334425" lon="0.774135"><ele>662.5</ele><time>2026-04-19T07:09:59.968Z</time></trkpt><trkpt lat="41.3344817" lon="0.77398"><ele>663.0</ele><time>2026-04-19T07:10:00.967Z</time></trkpt><trkpt lat="41.334505" lon="0.773825"><ele>663.0</ele><time>2026-04-19T07:10:01.967Z</time></trkpt><trkpt lat="41.334515" lon="0.77368"><ele>663.0</ele><time>2026-04-19T07:10:02.968Z</time></trkpt><trkpt lat="41.334505" lon="0.7735267"><ele>663.0</ele><time>2026-04-19T07:10:03.968Z</time></trkpt><trkpt lat="41.3344867" lon="0.773375"><ele>663.0</ele><time>2026-04-19T07:10:04.967Z</time></trkpt><trkpt lat="41.3344567" lon="0.77321"><ele>661.25</ele><time>2026-04-19T07:10:05.967Z</time></trkpt><trkpt lat="41.3344333" lon="0.7730367"><ele>659.5</ele><time>2026-04-19T07:10:06.968Z</time></trkpt><trkpt lat="41.3344167" lon="0.7728633"><ele>657.75</ele><time>2026-04-19T07:10:07.967Z</time></trkpt><trkpt lat="41.3344" lon="0.7726983"><ele>656.0</ele><time>2026-04-19T07:10:08.968Z</time></trkpt><trkpt lat="41.334395" lon="0.7725167"><ele>656.0</ele><time>2026-04-19T07:10:09.968Z</time></trkpt><trkpt lat="41.3343783" lon="0.772335"><ele>656.0</ele><time>2026-04-19T07:10:10.968Z</time></trkpt><trkpt lat="41.3343767" lon="0.7721433"><ele>656.0</ele><time>2026-04-19T07:10:11.968Z</time></trkpt><trkpt lat="41.334375" lon="0.771955"><ele>656.0</ele><time>2026-04-19T07:10:12.968Z</time></trkpt><trkpt lat="41.3343717" lon="0.7717667"><ele>656.75</ele><time>2026-04-19T07:10:13.967Z</time></trkpt><trkpt lat="41.3343617" lon="0.7715617"><ele>657.5</ele><time>2026-04-19T07:10:14.968Z</time></trkpt><trkpt lat="41.33437" lon="0.7713883"><ele>658.25</ele><time>2026-04-19T07:10:15.967Z</time></trkpt><trkpt lat="41.334375" lon="0.7712217"><ele>659.0</ele><time>2026-04-19T07:10:16.968Z</time></trkpt><trkpt lat="41.334375" lon="0.7710633"><ele>660.2</ele><time>2026-04-19T07:10:17.968Z</time></trkpt><trkpt lat="41.334345" lon="0.7709033"><ele>661.4000000000001</ele><time>2026-04-19T07:10:18.967Z</time></trkpt><trkpt lat="41.33429" lon="0.770775"><ele>662.6</ele><time>2026-04-19T07:10:19.968Z</time></trkpt><trkpt lat="41.3342183" lon="0.7706733"><ele>663.8</ele><time>2026-04-19T07:10:20.967Z</time></trkpt><trkpt lat="41.334145" lon="0.7706"><ele>665.0</ele><time>2026-04-19T07:10:21.968Z</time></trkpt><trkpt lat="41.3340467" lon="0.77055"><ele>665.0</ele><time>2026-04-19T07:10:22.967Z</time></trkpt><trkpt lat="41.3339417" lon="0.7705217"><ele>665.0</ele><time>2026-04-19T07:10:23.967Z</time></trkpt><trkpt lat="41.3338433" lon="0.77052"><ele>665.0</ele><time>2026-04-19T07:10:24.968Z</time></trkpt><trkpt lat="41.3337583" lon="0.770515"><ele>665.0</ele><time>2026-04-19T07:10:25.967Z</time></trkpt><trkpt lat="41.3336717" lon="0.77052"><ele>665.0</ele><time>2026-04-19T07:10:26.967Z</time></trkpt><trkpt lat="41.3335733" lon="0.7705067"><ele>664.4</ele><time>2026-04-19T07:10:27.967Z</time></trkpt><trkpt lat="41.3334833" lon="0.7704533"><ele>663.8</ele><time>2026-04-19T07:10:28.967Z</time></trkpt><trkpt lat="41.3333983" lon="0.7703667"><ele>663.2</ele><time>2026-04-19T07:10:29.968Z</time></trkpt><trkpt lat="41.33333" lon="0.7702517"><ele>662.6</ele><time>2026-04-19T07:10:30.968Z</time></trkpt><trkpt lat="41.3332833" lon="0.7701133"><ele>662.0</ele><time>2026-04-19T07:10:31.968Z</time></trkpt><trkpt lat="41.33324" lon="0.7699767"><ele>660.5</ele><time>2026-04-19T07:10:32.968Z</time></trkpt><trkpt lat="41.3331967" lon="0.769835"><ele>659.0</ele><time>2026-04-19T07:10:33.968Z</time></trkpt><trkpt lat="41.3331517" lon="0.7696917"><ele>657.5</ele><time>2026-04-19T07:10:34.968Z</time></trkpt><trkpt lat="41.3330933" lon="0.76956"><ele>656.0</ele><time>2026-04-19T07:10:35.968Z</time></trkpt><trkpt lat="41.3330167" lon="0.76944"><ele>657.0</ele><time>2026-04-19T07:10:36.968Z</time></trkpt><trkpt lat="41.3329267" lon="0.769345"><ele>658.0</ele><time>2026-04-19T07:10:37.967Z</time></trkpt><trkpt lat="41.3328267" lon="0.7692767"><ele>659.0</ele><time>2026-04-19T07:10:38.967Z</time></trkpt><trkpt lat="41.33272" lon="0.7692283"><ele>660.0</ele><time>2026-04-19T07:10:39.967Z</time></trkpt><trkpt lat="41.3326317" lon="0.7691717"><ele>661.0</ele><time>2026-04-19T07:10:40.967Z</time></trkpt><trkpt lat="41.332565" lon="0.7690967"><ele>661.0</ele><time>2026-04-19T07:10:41.968Z</time></trkpt><trkpt lat="41.3325233" lon="0.769005"><ele>661.0</ele><time>2026-04-19T07:10:42.968Z</time></trkpt><trkpt lat="41.3325067" lon="0.7688867"><ele>661.0</ele><time>2026-04-19T07:10:43.967Z</time></trkpt><trkpt lat="41.33251" lon="0.7687567"><ele>661.0</ele><time>2026-04-19T07:10:44.967Z</time></trkpt><trkpt lat="41.3325383" lon="0.76862"><ele>661.0</ele><time>2026-04-19T07:10:45.968Z</time></trkpt><trkpt lat="41.3325867" lon="0.7684733"><ele>661.25</ele><time>2026-04-19T07:10:46.967Z</time></trkpt><trkpt lat="41.332685" lon="0.7683533"><ele>661.5</ele><time>2026-04-19T07:10:47.968Z</time></trkpt><trkpt lat="41.332805" lon="0.7682717"><ele>661.75</ele><time>2026-04-19T07:10:48.968Z</time></trkpt><trkpt lat="41.3328883" lon="0.76816"><ele>662.0</ele><time>2026-04-19T07:10:49.967Z</time></trkpt><trkpt lat="41.3329567" lon="0.76804"><ele>662.0</ele><time>2026-04-19T07:10:50.967Z</time></trkpt><trkpt lat="41.3329883" lon="0.7678967"><ele>662.0</ele><time>2026-04-19T07:10:51.968Z</time></trkpt><trkpt lat="41.332985" lon="0.7677683"><ele>662.0</ele><time>2026-04-19T07:10:52.967Z</time></trkpt><trkpt lat="41.3329517" lon="0.7676417"><ele>662.0</ele><time>2026-04-19T07:10:53.967Z</time></trkpt><trkpt lat="41.3329067" lon="0.7675483"><ele>662.0</ele><time>2026-04-19T07:10:54.967Z</time></trkpt><trkpt lat="41.3328283" lon="0.767465"><ele>663.25</ele><time>2026-04-19T07:10:55.968Z</time></trkpt><trkpt lat="41.3327317" lon="0.7673733"><ele>664.5</ele><time>2026-04-19T07:10:56.968Z</time></trkpt><trkpt lat="41.33265" lon="0.7672683"><ele>665.75</ele><time>2026-04-19T07:10:57.967Z</time></trkpt><trkpt lat="41.3326017" lon="0.7671367"><ele>667.0</ele><time>2026-04-19T07:10:58.967Z</time></trkpt><trkpt lat="41.3325567" lon="0.767005"><ele>667.0</ele><time>2026-04-19T07:10:59.967Z</time></trkpt><trkpt lat="41.33251" lon="0.766885"><ele>667.0</ele><time>2026-04-19T07:11:00.967Z</time></trkpt><trkpt lat="41.3324733" lon="0.7667683"><ele>667.0</ele><time>2026-04-19T07:11:01.968Z</time></trkpt><trkpt lat="41.3324483" lon="0.76665"><ele>667.0</ele><time>2026-04-19T07:11:02.967Z</time></trkpt><trkpt lat="41.3324367" lon="0.7665317"><ele>667.0</ele><time>2026-04-19T07:11:03.968Z</time></trkpt><trkpt lat="41.3324367" lon="0.7664217"><ele>668.0</ele><time>2026-04-19T07:11:04.967Z</time></trkpt><trkpt lat="41.3324817" lon="0.76632"><ele>669.0</ele><time>2026-04-19T07:11:05.967Z</time></trkpt><trkpt lat="41.332545" lon="0.766245"><ele>670.0</ele><time>2026-04-19T07:11:06.967Z</time></trkpt><trkpt lat="41.332635" lon="0.7661917"><ele>671.0</ele><time>2026-04-19T07:11:07.968Z</time></trkpt><trkpt lat="41.3327383" lon="0.7661917"><ele>672.0</ele><time>2026-04-19T07:11:08.968Z</time></trkpt><trkpt lat="41.3328533" lon="0.7661967"><ele>672.0</ele><time>2026-04-19T07:11:09.967Z</time></trkpt><trkpt lat="41.3329483" lon="0.7661817"><ele>672.0</ele><time>2026-04-19T07:11:10.968Z</time></trkpt><trkpt lat="41.33303" lon="0.76617"><ele>672.0</ele><time>2026-04-19T07:11:11.967Z</time></trkpt><trkpt lat="41.3330967" lon="0.7661417"><ele>672.0</ele><time>2026-04-19T07:11:12.968Z</time></trkpt><trkpt lat="41.3331633" lon="0.7660883"><ele>672.0</ele><time>2026-04-19T07:11:13.968Z</time></trkpt><trkpt lat="41.3332167" lon="0.7660033"><ele>672.0</ele><time>2026-04-19T07:11:14.967Z</time></trkpt><trkpt lat="41.333265" lon="0.7659217"><ele>672.6666666666666</ele><time>2026-04-19T07:11:15.967Z</time></trkpt><trkpt lat="41.3333217" lon="0.7658483"><ele>673.3333333333334</ele><time>2026-04-19T07:11:16.967Z</time></trkpt><trkpt lat="41.333395" lon="0.7657917"><ele>674.0</ele><time>2026-04-19T07:11:17.968Z</time></trkpt><trkpt lat="41.3334667" lon="0.76574"><ele>674.6666666666667</ele><time>2026-04-19T07:11:18.968Z</time></trkpt><trkpt lat="41.3335267" lon="0.7656667"><ele>675.3333333333334</ele><time>2026-04-19T07:11:19.968Z</time></trkpt><trkpt lat="41.3335583" lon="0.7655617"><ele>676.0</ele><time>2026-04-19T07:11:20.967Z</time></trkpt><trkpt lat="41.333565" lon="0.7654367"><ele>676.0</ele><time>2026-04-19T07:11:21.968Z</time></trkpt><trkpt lat="41.3335583" lon="0.7652983"><ele>676.0</ele><time>2026-04-19T07:11:22.967Z</time></trkpt><trkpt lat="41.3335283" lon="0.7651533"><ele>676.0</ele><time>2026-04-19T07:11:23.968Z</time></trkpt><trkpt lat="41.3335017" lon="0.7650183"><ele>676.0</ele><time>2026-04-19T07:11:24.967Z</time></trkpt><trkpt lat="41.3334833" lon="0.764865"><ele>676.0</ele><time>2026-04-19T07:11:25.968Z</time></trkpt><trkpt lat="41.3334917" lon="0.7647117"><ele>675.0</ele><time>2026-04-19T07:11:26.968Z</time></trkpt><trkpt lat="41.3334983" lon="0.76457"><ele>674.0</ele><time>2026-04-19T07:11:27.968Z</time></trkpt><trkpt lat="41.333505" lon="0.76443"><ele>673.0</ele><time>2026-04-19T07:11:28.968Z</time></trkpt><trkpt lat="41.3335367" lon="0.7643083"><ele>672.0</ele><time>2026-04-19T07:11:29.967Z</time></trkpt><trkpt lat="41.333595" lon="0.76419"><ele>671.0</ele><time>2026-04-19T07:11:30.967Z</time></trkpt><trkpt lat="41.3336733" lon="0.7640917"><ele>669.5999999999999</ele><time>2026-04-19T07:11:31.968Z</time></trkpt><trkpt lat="41.3337467" lon="0.7640033"><ele>668.2</ele><time>2026-04-19T07:11:32.967Z</time></trkpt><trkpt lat="41.3338183" lon="0.7639017"><ele>666.8</ele><time>2026-04-19T07:11:33.967Z</time></trkpt><trkpt lat="41.333895" lon="0.763795"><ele>665.4000000000001</ele><time>2026-04-19T07:11:34.967Z</time></trkpt><trkpt lat="41.33397" lon="0.7637017"><ele>664.0</ele><time>2026-04-19T07:11:35.968Z</time></trkpt><trkpt lat="41.3340433" lon="0.7636167"><ele>666.1666666666667</ele><time>2026-04-19T07:11:36.968Z</time></trkpt><trkpt lat="41.33411" lon="0.76353"><ele>668.3333333333334</ele><time>2026-04-19T07:11:37.968Z</time></trkpt><trkpt lat="41.334185" lon="0.7634583"><ele>670.5</ele><time>2026-04-19T07:11:38.967Z</time></trkpt><trkpt lat="41.33425" lon="0.7633967"><ele>672.6666666666666</ele><time>2026-04-19T07:11:39.968Z</time></trkpt><trkpt lat="41.3343" lon="0.7633433"><ele>674.8333333333333</ele><time>2026-04-19T07:11:40.967Z</time></trkpt><trkpt lat="41.334375" lon="0.7632617"><ele>677.0</ele><time>2026-04-19T07:11:42.967Z</time></trkpt><trkpt lat="41.3344517" lon="0.76319"><ele>677.0</ele><time>2026-04-19T07:11:44.967Z</time></trkpt><trkpt lat="41.3345283" lon="0.7631233"><ele>677.0</ele><time>2026-04-19T07:11:46.967Z</time></trkpt><trkpt lat="41.3345683" lon="0.76305"><ele>677.0</ele><time>2026-04-19T07:11:48.968Z</time></trkpt><trkpt lat="41.3345883" lon="0.7629667"><ele>677.0</ele><time>2026-04-19T07:11:51.968Z</time></trkpt><trkpt lat="41.3345917" lon="0.7628717"><ele>677.0</ele><time>2026-04-19T07:11:54.968Z</time></trkpt><trkpt lat="41.3345717" lon="0.762785"><ele>677.0</ele><time>2026-04-19T07:11:56.967Z</time></trkpt><trkpt lat="41.3344833" lon="0.762775"><ele>677.0</ele><time>2026-04-19T07:11:59.967Z</time></trkpt><trkpt lat="41.3344033" lon="0.7627383"><ele>677.0</ele><time>2026-04-19T07:12:02.968Z</time></trkpt><trkpt lat="41.334345" lon="0.7626133"><ele>677.0</ele><time>2026-04-19T07:12:04.968Z</time></trkpt><trkpt lat="41.334315" lon="0.7625183"><ele>677.0</ele><time>2026-04-19T07:12:05.967Z</time></trkpt><trkpt lat="41.3342783" lon="0.76243"><ele>677.0</ele><time>2026-04-19T07:12:06.968Z</time></trkpt><trkpt lat="41.33422" lon="0.76234"><ele>677.0</ele><time>2026-04-19T07:12:07.968Z</time></trkpt><trkpt lat="41.33415" lon="0.7622567"><ele>676.8</ele><time>2026-04-19T07:12:08.967Z</time></trkpt><trkpt lat="41.334075" lon="0.7621917"><ele>676.6</ele><time>2026-04-19T07:12:09.968Z</time></trkpt><trkpt lat="41.333995" lon="0.7621217"><ele>676.4</ele><time>2026-04-19T07:12:10.968Z</time></trkpt><trkpt lat="41.33392" lon="0.7620467"><ele>676.1999999999999</ele><time>2026-04-19T07:12:11.967Z</time></trkpt><trkpt lat="41.33385" lon="0.7619483"><ele>676.0</ele><time>2026-04-19T07:12:12.968Z</time></trkpt><trkpt lat="41.3337967" lon="0.7618433"><ele>674.0</ele><time>2026-04-19T07:12:13.967Z</time></trkpt><trkpt lat="41.3337317" lon="0.76174"><ele>672.0</ele><time>2026-04-19T07:12:14.968Z</time></trkpt><trkpt lat="41.33366" lon="0.76165"><ele>670.0</ele><time>2026-04-19T07:12:15.968Z</time></trkpt><trkpt lat="41.333575" lon="0.7615667"><ele>668.0</ele><time>2026-04-19T07:12:16.967Z</time></trkpt><trkpt lat="41.3334667" lon="0.7615167"><ele>666.0</ele><time>2026-04-19T07:12:17.968Z</time></trkpt><trkpt lat="41.33335" lon="0.7614817"><ele>666.0</ele><time>2026-04-19T07:12:18.968Z</time></trkpt><trkpt lat="41.33323" lon="0.76145"><ele>666.0</ele><time>2026-04-19T07:12:19.968Z</time></trkpt><trkpt lat="41.3330933" lon="0.761405"><ele>666.0</ele><time>2026-04-19T07:12:20.968Z</time></trkpt><trkpt lat="41.3329583" lon="0.761375"><ele>666.0</ele><time>2026-04-19T07:12:21.968Z</time></trkpt><trkpt lat="41.3328267" lon="0.7613317"><ele>662.0</ele><time>2026-04-19T07:12:22.967Z</time></trkpt><trkpt lat="41.332695" lon="0.7612867"><ele>658.0</ele><time>2026-04-19T07:12:23.967Z</time></trkpt><trkpt lat="41.332565" lon="0.7612333"><ele>654.0</ele><time>2026-04-19T07:12:24.967Z</time></trkpt><trkpt lat="41.3324267" lon="0.7611617"><ele>650.0</ele><time>2026-04-19T07:12:25.968Z</time></trkpt><trkpt lat="41.3323117" lon="0.7610967"><ele>651.25</ele><time>2026-04-19T07:12:26.968Z</time></trkpt><trkpt lat="41.3321983" lon="0.7609983"><ele>652.5</ele><time>2026-04-19T07:12:27.968Z</time></trkpt><trkpt lat="41.3320867" lon="0.760905"><ele>653.75</ele><time>2026-04-19T07:12:28.968Z</time></trkpt><trkpt lat="41.3319767" lon="0.76082"><ele>655.0</ele><time>2026-04-19T07:12:29.967Z</time></trkpt><trkpt lat="41.3318717" lon="0.760715"><ele>655.0</ele><time>2026-04-19T07:12:30.967Z</time></trkpt><trkpt lat="41.3317667" lon="0.7606233"><ele>655.0</ele><time>2026-04-19T07:12:31.968Z</time></trkpt><trkpt lat="41.3316617" lon="0.76057"><ele>655.0</ele><time>2026-04-19T07:12:32.968Z</time></trkpt><trkpt lat="41.3315483" lon="0.760545"><ele>655.0</ele><time>2026-04-19T07:12:33.967Z</time></trkpt><trkpt lat="41.3314233" lon="0.7605283"><ele>651.5</ele><time>2026-04-19T07:12:34.967Z</time></trkpt><trkpt lat="41.3312967" lon="0.7604983"><ele>648.0</ele><time>2026-04-19T07:12:35.967Z</time></trkpt><trkpt lat="41.331165" lon="0.7604917"><ele>644.5</ele><time>2026-04-19T07:12:36.968Z</time></trkpt><trkpt lat="41.3310433" lon="0.760475"><ele>641.0</ele><time>2026-04-19T07:12:37.967Z</time></trkpt><trkpt lat="41.330925" lon="0.7604617"><ele>641.0</ele><time>2026-04-19T07:12:38.968Z</time></trkpt><trkpt lat="41.33081" lon="0.76045"><ele>641.0</ele><time>2026-04-19T07:12:39.968Z</time></trkpt><trkpt lat="41.3307017" lon="0.7604467"><ele>641.0</ele><time>2026-04-19T07:12:40.968Z</time></trkpt><trkpt lat="41.3306033" lon="0.7604683"><ele>641.0</ele><time>2026-04-19T07:12:41.968Z</time></trkpt><trkpt lat="41.3305133" lon="0.7604583"><ele>641.0</ele><time>2026-04-19T07:12:42.968Z</time></trkpt><trkpt lat="41.3304233" lon="0.76046"><ele>640.3333333333333</ele><time>2026-04-19T07:12:43.968Z</time></trkpt><trkpt lat="41.3303383" lon="0.7604867"><ele>639.6666666666666</ele><time>2026-04-19T07:12:44.968Z</time></trkpt><trkpt lat="41.3302517" lon="0.7605417"><ele>639.0</ele><time>2026-04-19T07:12:45.967Z</time></trkpt><trkpt lat="41.3301833" lon="0.76061"><ele>638.3333333333334</ele><time>2026-04-19T07:12:46.967Z</time></trkpt><trkpt lat="41.33011" lon="0.76066"><ele>637.6666666666667</ele><time>2026-04-19T07:12:47.967Z</time></trkpt><trkpt lat="41.3300317" lon="0.7607067"><ele>637.0</ele><time>2026-04-19T07:12:48.967Z</time></trkpt><trkpt lat="41.3299367" lon="0.7607217"><ele>637.0</ele><time>2026-04-19T07:12:49.968Z</time></trkpt><trkpt lat="41.32984" lon="0.7607"><ele>637.0</ele><time>2026-04-19T07:12:50.967Z</time></trkpt><trkpt lat="41.3297433" lon="0.76069"><ele>637.0</ele><time>2026-04-19T07:12:51.967Z</time></trkpt><trkpt lat="41.3296417" lon="0.76069"><ele>637.0</ele><time>2026-04-19T07:12:52.967Z</time></trkpt><trkpt lat="41.329535" lon="0.7607317"><ele>637.0</ele><time>2026-04-19T07:12:53.967Z</time></trkpt><trkpt lat="41.3294367" lon="0.7608"><ele>636.5</ele><time>2026-04-19T07:12:54.968Z</time></trkpt><trkpt lat="41.3293533" lon="0.76086"><ele>636.0</ele><time>2026-04-19T07:12:55.967Z</time></trkpt><trkpt lat="41.3292733" lon="0.7609183"><ele>635.5</ele><time>2026-04-19T07:12:56.968Z</time></trkpt><trkpt lat="41.329195" lon="0.760965"><ele>635.0</ele><time>2026-04-19T07:12:57.967Z</time></trkpt><trkpt lat="41.329115" lon="0.7609967"><ele>634.5</ele><time>2026-04-19T07:12:58.968Z</time></trkpt><trkpt lat="41.329035" lon="0.7610117"><ele>634.0</ele><time>2026-04-19T07:12:59.967Z</time></trkpt><trkpt lat="41.32896" lon="0.7609983"><ele>634.0</ele><time>2026-04-19T07:13:00.967Z</time></trkpt><trkpt lat="41.3288983" lon="0.7609367"><ele>634.0</ele><time>2026-04-19T07:13:01.968Z</time></trkpt><trkpt lat="41.3288233" lon="0.760855"><ele>634.0</ele><time>2026-04-19T07:13:02.967Z</time></trkpt><trkpt lat="41.3287533" lon="0.7607417"><ele>634.0</ele><time>2026-04-19T07:13:03.968Z</time></trkpt><trkpt lat="41.3286633" lon="0.7606167"><ele>634.0</ele><time>2026-04-19T07:13:04.967Z</time></trkpt><trkpt lat="41.3285867" lon="0.7605083"><ele>632.6</ele><time>2026-04-19T07:13:05.968Z</time></trkpt><trkpt lat="41.32853" lon="0.7603983"><ele>631.2</ele><time>2026-04-19T07:13:06.968Z</time></trkpt><trkpt lat="41.3285083" lon="0.7602767"><ele>629.8000000000001</ele><time>2026-04-19T07:13:07.968Z</time></trkpt><trkpt lat="41.3285033" lon="0.76015"><ele>628.4</ele><time>2026-04-19T07:13:08.967Z</time></trkpt><trkpt lat="41.3285083" lon="0.7600433"><ele>627.0</ele><time>2026-04-19T07:13:09.968Z</time></trkpt><trkpt lat="41.3285233" lon="0.75991"><ele>625.0</ele><time>2026-04-19T07:13:10.968Z</time></trkpt><trkpt lat="41.3285467" lon="0.7597667"><ele>623.0</ele><time>2026-04-19T07:13:11.968Z</time></trkpt><trkpt lat="41.3285833" lon="0.7596583"><ele>621.0</ele><time>2026-04-19T07:13:12.967Z</time></trkpt><trkpt lat="41.328645" lon="0.759565"><ele>619.0</ele><time>2026-04-19T07:13:13.968Z</time></trkpt><trkpt lat="41.328715" lon="0.7594783"><ele>617.0</ele><time>2026-04-19T07:13:14.967Z</time></trkpt><trkpt lat="41.3287867" lon="0.75939"><ele>615.0</ele><time>2026-04-19T07:13:15.967Z</time></trkpt><trkpt lat="41.3288433" lon="0.7592883"><ele>613.0</ele><time>2026-04-19T07:13:16.968Z</time></trkpt><trkpt lat="41.328865" lon="0.7591833"><ele>611.0</ele><time>2026-04-19T07:13:17.968Z</time></trkpt><trkpt lat="41.328875" lon="0.7590667"><ele>609.0</ele><time>2026-04-19T07:13:18.967Z</time></trkpt><trkpt lat="41.3288733" lon="0.7589433"><ele>607.0</ele><time>2026-04-19T07:13:19.967Z</time></trkpt><trkpt lat="41.32885" lon="0.7588467"><ele>605.0</ele><time>2026-04-19T07:13:20.968Z</time></trkpt><trkpt lat="41.3288233" lon="0.75877"><ele>605.0</ele><time>2026-04-19T07:13:21.967Z</time></trkpt><trkpt lat="41.3288033" lon="0.7586883"><ele>605.0</ele><time>2026-04-19T07:13:22.967Z</time></trkpt><trkpt lat="41.3288083" lon="0.7586"><ele>605.0</ele><time>2026-04-19T07:13:23.968Z</time></trkpt><trkpt lat="41.328835" lon="0.7585133"><ele>605.0</ele><time>2026-04-19T07:13:24.967Z</time></trkpt><trkpt lat="41.3288833" lon="0.7584367"><ele>605.0</ele><time>2026-04-19T07:13:25.967Z</time></trkpt><trkpt lat="41.3289233" lon="0.7583533"><ele>605.0</ele><time>2026-04-19T07:13:26.968Z</time></trkpt><trkpt lat="41.3289683" lon="0.7582533"><ele>605.0</ele><time>2026-04-19T07:13:27.967Z</time></trkpt><trkpt lat="41.3289967" lon="0.7581483"><ele>605.4</ele><time>2026-04-19T07:13:28.968Z</time></trkpt><trkpt lat="41.3290033" lon="0.75803"><ele>605.8</ele><time>2026-04-19T07:13:29.968Z</time></trkpt><trkpt lat="41.3289733" lon="0.757905"><ele>606.2</ele><time>2026-04-19T07:13:30.968Z</time></trkpt><trkpt lat="41.328915" lon="0.7577817"><ele>606.6</ele><time>2026-04-19T07:13:31.967Z</time></trkpt><trkpt lat="41.32885" lon="0.7576883"><ele>607.0</ele><time>2026-04-19T07:13:32.968Z</time></trkpt><trkpt lat="41.328775" lon="0.7576167"><ele>607.0</ele><time>2026-04-19T07:13:33.967Z</time></trkpt><trkpt lat="41.3286933" lon="0.7575717"><ele>607.0</ele><time>2026-04-19T07:13:34.968Z</time></trkpt><trkpt lat="41.3285917" lon="0.7575417"><ele>607.0</ele><time>2026-04-19T07:13:35.967Z</time></trkpt><trkpt lat="41.3284817" lon="0.7575367"><ele>607.0</ele><time>2026-04-19T07:13:36.968Z</time></trkpt><trkpt lat="41.32836" lon="0.7575533"><ele>607.0</ele><time>2026-04-19T07:13:37.967Z</time></trkpt><trkpt lat="41.3282533" lon="0.7575783"><ele>607.0</ele><time>2026-04-19T07:13:38.967Z</time></trkpt><trkpt lat="41.3281617" lon="0.7576217"><ele>607.0</ele><time>2026-04-19T07:13:39.968Z</time></trkpt><trkpt lat="41.328055" lon="0.7576883"><ele>607.0</ele><time>2026-04-19T07:13:40.967Z</time></trkpt><trkpt lat="41.32794" lon="0.7577567"><ele>607.0</ele><time>2026-04-19T07:13:41.968Z</time></trkpt><trkpt lat="41.3278417" lon="0.75783"><ele>604.4</ele><time>2026-04-19T07:13:42.968Z</time></trkpt><trkpt lat="41.327745" lon="0.7579117"><ele>601.8000000000001</ele><time>2026-04-19T07:13:43.967Z</time></trkpt><trkpt lat="41.3276733" lon="0.7579917"><ele>599.2</ele><time>2026-04-19T07:13:44.967Z</time></trkpt><trkpt lat="41.3275967" lon="0.75806"><ele>596.6</ele><time>2026-04-19T07:13:45.968Z</time></trkpt><trkpt lat="41.327505" lon="0.7581167"><ele>594.0</ele><time>2026-04-19T07:13:46.967Z</time></trkpt><trkpt lat="41.3274067" lon="0.7581483"><ele>594.0</ele><time>2026-04-19T07:13:47.968Z</time></trkpt><trkpt lat="41.327305" lon="0.7581567"><ele>594.0</ele><time>2026-04-19T07:13:48.968Z</time></trkpt><trkpt lat="41.3272033" lon="0.7581483"><ele>594.0</ele><time>2026-04-19T07:13:49.967Z</time></trkpt><trkpt lat="41.3271067" lon="0.7581267"><ele>594.0</ele><time>2026-04-19T07:13:50.968Z</time></trkpt><trkpt lat="41.3270183" lon="0.7580883"><ele>594.0</ele><time>2026-04-19T07:13:51.968Z</time></trkpt><trkpt lat="41.326935" lon="0.7580017"><ele>594.6</ele><time>2026-04-19T07:13:52.968Z</time></trkpt><trkpt lat="41.3268633" lon="0.7579033"><ele>595.2</ele><time>2026-04-19T07:13:53.967Z</time></trkpt><trkpt lat="41.3268117" lon="0.7577817"><ele>595.8000000000001</ele><time>2026-04-19T07:13:54.968Z</time></trkpt><trkpt lat="41.3267517" lon="0.7576767"><ele>596.4</ele><time>2026-04-19T07:13:55.968Z</time></trkpt><trkpt lat="41.32671" lon="0.75758"><ele>597.0</ele><time>2026-04-19T07:13:56.967Z</time></trkpt><trkpt lat="41.326645" lon="0.7575233"><ele>597.0</ele><time>2026-04-19T07:13:57.967Z</time></trkpt><trkpt lat="41.3265717" lon="0.7574983"><ele>597.0</ele><time>2026-04-19T07:13:58.968Z</time></trkpt><trkpt lat="41.3264983" lon="0.7574833"><ele>597.0</ele><time>2026-04-19T07:13:59.968Z</time></trkpt><trkpt lat="41.3264117" lon="0.7575167"><ele>597.0</ele><time>2026-04-19T07:14:00.967Z</time></trkpt><trkpt lat="41.3263233" lon="0.7576"><ele>597.0</ele><time>2026-04-19T07:14:01.967Z</time></trkpt><trkpt lat="41.326225" lon="0.757715"><ele>591.75</ele><time>2026-04-19T07:14:02.968Z</time></trkpt><trkpt lat="41.3261317" lon="0.7577833"><ele>586.5</ele><time>2026-04-19T07:14:03.968Z</time></trkpt><trkpt lat="41.326025" lon="0.7578267"><ele>581.25</ele><time>2026-04-19T07:14:04.968Z</time></trkpt><trkpt lat="41.3259033" lon="0.757855"><ele>576.0</ele><time>2026-04-19T07:14:05.968Z</time></trkpt><trkpt lat="41.32579" lon="0.7578717"><ele>576.0</ele><time>2026-04-19T07:14:06.967Z</time></trkpt><trkpt lat="41.32567" lon="0.7578733"><ele>576.0</ele><time>2026-04-19T07:14:07.968Z</time></trkpt><trkpt lat="41.3255533" lon="0.7578567"><ele>576.0</ele><time>2026-04-19T07:14:08.968Z</time></trkpt><trkpt lat="41.3254383" lon="0.7578333"><ele>576.0</ele><time>2026-04-19T07:14:09.967Z</time></trkpt><trkpt lat="41.325315" lon="0.7578117"><ele>573.5</ele><time>2026-04-19T07:14:10.967Z</time></trkpt><trkpt lat="41.3251917" lon="0.7578133"><ele>571.0</ele><time>2026-04-19T07:14:11.967Z</time></trkpt><trkpt lat="41.325065" lon="0.7578233"><ele>568.5</ele><time>2026-04-19T07:14:12.967Z</time></trkpt><trkpt lat="41.3249617" lon="0.7578517"><ele>566.0</ele><time>2026-04-19T07:14:13.967Z</time></trkpt><trkpt lat="41.3248617" lon="0.75786"><ele>566.0</ele><time>2026-04-19T07:14:14.967Z</time></trkpt><trkpt lat="41.32476" lon="0.7578333"><ele>566.0</ele><time>2026-04-19T07:14:15.967Z</time></trkpt><trkpt lat="41.324655" lon="0.757765"><ele>566.0</ele><time>2026-04-19T07:14:16.968Z</time></trkpt><trkpt lat="41.32457" lon="0.7576817"><ele>566.0</ele><time>2026-04-19T07:14:17.967Z</time></trkpt><trkpt lat="41.3245017" lon="0.757575"><ele>566.0</ele><time>2026-04-19T07:14:18.968Z</time></trkpt><trkpt lat="41.3244533" lon="0.7574333"><ele>566.4</ele><time>2026-04-19T07:14:19.967Z</time></trkpt><trkpt lat="41.3244467" lon="0.7572767"><ele>566.8</ele><time>2026-04-19T07:14:20.968Z</time></trkpt><trkpt lat="41.3244667" lon="0.7571167"><ele>567.1999999999999</ele><time>2026-04-19T07:14:21.967Z</time></trkpt><trkpt lat="41.324485" lon="0.7569883"><ele>567.6</ele><time>2026-04-19T07:14:22.968Z</time></trkpt><trkpt lat="41.3244783" lon="0.756845"><ele>568.0</ele><time>2026-04-19T07:14:23.968Z</time></trkpt><trkpt lat="41.3244533" lon="0.7567017"><ele>568.0</ele><time>2026-04-19T07:14:24.967Z</time></trkpt><trkpt lat="41.3244133" lon="0.7565733"><ele>568.0</ele><time>2026-04-19T07:14:25.968Z</time></trkpt><trkpt lat="41.3243483" lon="0.75644"><ele>568.0</ele><time>2026-04-19T07:14:26.967Z</time></trkpt><trkpt lat="41.32429" lon="0.75636"><ele>568.0</ele><time>2026-04-19T07:14:27.968Z</time></trkpt><trkpt lat="41.32422" lon="0.7562617"><ele>568.0</ele><time>2026-04-19T07:14:28.967Z</time></trkpt><trkpt lat="41.3241383" lon="0.7562067"><ele>568.0</ele><time>2026-04-19T07:14:29.967Z</time></trkpt><trkpt lat="41.32404" lon="0.7561967"><ele>568.0</ele><time>2026-04-19T07:14:30.968Z</time></trkpt><trkpt lat="41.3239433" lon="0.7562317"><ele>568.0</ele><time>2026-04-19T07:14:31.968Z</time></trkpt><trkpt lat="41.3238533" lon="0.75631"><ele>568.0</ele><time>2026-04-19T07:14:32.967Z</time></trkpt><trkpt lat="41.3237867" lon="0.7564267"><ele>568.0</ele><time>2026-04-19T07:14:33.967Z</time></trkpt><trkpt lat="41.3237483" lon="0.7565717"><ele>567.4</ele><time>2026-04-19T07:14:34.968Z</time></trkpt><trkpt lat="41.323725" lon="0.7567167"><ele>566.8</ele><time>2026-04-19T07:14:35.968Z</time></trkpt><trkpt lat="41.323685" lon="0.7568483"><ele>566.2</ele><time>2026-04-19T07:14:36.968Z</time></trkpt><trkpt lat="41.3236583" lon="0.7569717"><ele>565.6</ele><time>2026-04-19T07:14:37.968Z</time></trkpt><trkpt lat="41.32361" lon="0.75708"><ele>565.0</ele><time>2026-04-19T07:14:38.968Z</time></trkpt><trkpt lat="41.323545" lon="0.7571633"><ele>562.2</ele><time>2026-04-19T07:14:39.967Z</time></trkpt><trkpt lat="41.3234783" lon="0.7572233"><ele>559.4</ele><time>2026-04-19T07:14:40.968Z</time></trkpt><trkpt lat="41.3234033" lon="0.7572667"><ele>556.6</ele><time>2026-04-19T07:14:41.968Z</time></trkpt><trkpt lat="41.3233333" lon="0.7572567"><ele>553.8</ele><time>2026-04-19T07:14:42.968Z</time></trkpt><trkpt lat="41.3232567" lon="0.757125"><ele>551.0</ele><time>2026-04-19T07:14:44.968Z</time></trkpt><trkpt lat="41.3232417" lon="0.7569933"><ele>554.5</ele><time>2026-04-19T07:14:45.967Z</time></trkpt><trkpt lat="41.323245" lon="0.756835"><ele>558.0</ele><time>2026-04-19T07:14:46.967Z</time></trkpt><trkpt lat="41.32326" lon="0.7566667"><ele>561.5</ele><time>2026-04-19T07:14:47.967Z</time></trkpt><trkpt lat="41.323285" lon="0.75652"><ele>565.0</ele><time>2026-04-19T07:14:48.968Z</time></trkpt><trkpt lat="41.323295" lon="0.7563917"><ele>565.0</ele><time>2026-04-19T07:14:49.968Z</time></trkpt><trkpt lat="41.32328" lon="0.7562817"><ele>565.0</ele><time>2026-04-19T07:14:50.968Z</time></trkpt><trkpt lat="41.32326" lon="0.7561683"><ele>565.0</ele><time>2026-04-19T07:14:51.967Z</time></trkpt><trkpt lat="41.323235" lon="0.7560767"><ele>565.0</ele><time>2026-04-19T07:14:52.967Z</time></trkpt><trkpt lat="41.3231867" lon="0.755995"><ele>565.0</ele><time>2026-04-19T07:14:53.967Z</time></trkpt><trkpt lat="41.3231083" lon="0.7559483"><ele>565.0</ele><time>2026-04-19T07:14:54.968Z</time></trkpt><trkpt lat="41.3230133" lon="0.7559567"><ele>564.0</ele><time>2026-04-19T07:14:55.967Z</time></trkpt><trkpt lat="41.3229117" lon="0.755995"><ele>563.0</ele><time>2026-04-19T07:14:56.967Z</time></trkpt><trkpt lat="41.32282" lon="0.75606"><ele>562.0</ele><time>2026-04-19T07:14:57.968Z</time></trkpt><trkpt lat="41.3227317" lon="0.7561517"><ele>561.0</ele><time>2026-04-19T07:14:58.968Z</time></trkpt><trkpt lat="41.3226517" lon="0.7562817"><ele>560.0</ele><time>2026-04-19T07:14:59.968Z</time></trkpt><trkpt lat="41.32259" lon="0.7564567"><ele>560.0</ele><time>2026-04-19T07:15:00.967Z</time></trkpt><trkpt lat="41.3225417" lon="0.7565933"><ele>560.0</ele><time>2026-04-19T07:15:01.968Z</time></trkpt><trkpt lat="41.3224983" lon="0.75671"><ele>560.0</ele><time>2026-04-19T07:15:02.967Z</time></trkpt><trkpt lat="41.3224383" lon="0.7567917"><ele>560.0</ele><time>2026-04-19T07:15:03.967Z</time></trkpt><trkpt lat="41.3223617" lon="0.7568417"><ele>560.0</ele><time>2026-04-19T07:15:04.968Z</time></trkpt><trkpt lat="41.3222867" lon="0.756875"><ele>559.1666666666666</ele><time>2026-04-19T07:15:05.967Z</time></trkpt><trkpt lat="41.3221933" lon="0.75687"><ele>558.3333333333333</ele><time>2026-04-19T07:15:06.967Z</time></trkpt><trkpt lat="41.322095" lon="0.75683"><ele>557.5</ele><time>2026-04-19T07:15:07.967Z</time></trkpt><trkpt lat="41.3220083" lon="0.7567767"><ele>556.6666666666666</ele><time>2026-04-19T07:15:08.968Z</time></trkpt><trkpt lat="41.321935" lon="0.7567567"><ele>555.8333333333334</ele><time>2026-04-19T07:15:09.967Z</time></trkpt><trkpt lat="41.321865" lon="0.7567517"><ele>555.0</ele><time>2026-04-19T07:15:10.968Z</time></trkpt><trkpt lat="41.321795" lon="0.7567633"><ele>555.0</ele><time>2026-04-19T07:15:11.968Z</time></trkpt><trkpt lat="41.3216983" lon="0.7568633"><ele>555.0</ele><time>2026-04-19T07:15:13.968Z</time></trkpt><trkpt lat="41.321655" lon="0.7569367"><ele>555.0</ele><time>2026-04-19T07:15:14.968Z</time></trkpt><trkpt lat="41.3216217" lon="0.757065"><ele>555.0</ele><time>2026-04-19T07:15:15.967Z</time></trkpt><trkpt lat="41.3216083" lon="0.7572283"><ele>555.0</ele><time>2026-04-19T07:15:16.968Z</time></trkpt><trkpt lat="41.3216167" lon="0.7573933"><ele>555.0</ele><time>2026-04-19T07:15:17.967Z</time></trkpt><trkpt lat="41.3216383" lon="0.75756"><ele>555.0</ele><time>2026-04-19T07:15:18.968Z</time></trkpt><trkpt lat="41.3216483" lon="0.757725"><ele>555.0</ele><time>2026-04-19T07:15:19.968Z</time></trkpt><trkpt lat="41.32167" lon="0.7578917"><ele>555.0</ele><time>2026-04-19T07:15:20.967Z</time></trkpt><trkpt lat="41.3217033" lon="0.75801"><ele>554.2</ele><time>2026-04-19T07:15:21.968Z</time></trkpt><trkpt lat="41.3217433" lon="0.75812"><ele>553.4</ele><time>2026-04-19T07:15:22.968Z</time></trkpt><trkpt lat="41.32178" lon="0.7582267"><ele>552.6</ele><time>2026-04-19T07:15:23.968Z</time></trkpt><trkpt lat="41.3218017" lon="0.758355"><ele>551.8</ele><time>2026-04-19T07:15:24.968Z</time></trkpt><trkpt lat="41.3218217" lon="0.7585033"><ele>551.0</ele><time>2026-04-19T07:15:25.967Z</time></trkpt><trkpt lat="41.3217883" lon="0.7586667"><ele>549.25</ele><time>2026-04-19T07:15:26.967Z</time></trkpt><trkpt lat="41.321755" lon="0.7588233"><ele>547.5</ele><time>2026-04-19T07:15:27.968Z</time></trkpt><trkpt lat="41.3217217" lon="0.7589633"><ele>545.75</ele><time>2026-04-19T07:15:28.968Z</time></trkpt><trkpt lat="41.3216833" lon="0.759105"><ele>544.0</ele><time>2026-04-19T07:15:29.967Z</time></trkpt><trkpt lat="41.3216483" lon="0.7592417"><ele>544.0</ele><time>2026-04-19T07:15:30.968Z</time></trkpt><trkpt lat="41.321615" lon="0.7593667"><ele>544.0</ele><time>2026-04-19T07:15:31.968Z</time></trkpt><trkpt lat="41.3215817" lon="0.7594683"><ele>544.0</ele><time>2026-04-19T07:15:32.968Z</time></trkpt><trkpt lat="41.3215283" lon="0.7595633"><ele>544.0</ele><time>2026-04-19T07:15:33.967Z</time></trkpt><trkpt lat="41.3214517" lon="0.759645"><ele>544.0</ele><time>2026-04-19T07:15:34.968Z</time></trkpt><trkpt lat="41.3213683" lon="0.7597183"><ele>545.2</ele><time>2026-04-19T07:15:35.967Z</time></trkpt><trkpt lat="41.3212817" lon="0.759785"><ele>546.4</ele><time>2026-04-19T07:15:36.968Z</time></trkpt><trkpt lat="41.321195" lon="0.7598533"><ele>547.6</ele><time>2026-04-19T07:15:37.967Z</time></trkpt><trkpt lat="41.3211217" lon="0.7599483"><ele>548.8</ele><time>2026-04-19T07:15:38.967Z</time></trkpt><trkpt lat="41.321065" lon="0.7600567"><ele>550.0</ele><time>2026-04-19T07:15:39.967Z</time></trkpt><trkpt lat="41.32102" lon="0.760175"><ele>546.4</ele><time>2026-04-19T07:15:40.968Z</time></trkpt><trkpt lat="41.3209783" lon="0.7602883"><ele>542.8</ele><time>2026-04-19T07:15:41.968Z</time></trkpt><trkpt lat="41.3209283" lon="0.7603817"><ele>539.2</ele><time>2026-04-19T07:15:42.968Z</time></trkpt><trkpt lat="41.3208733" lon="0.7604733"><ele>535.6</ele><time>2026-04-19T07:15:43.967Z</time></trkpt><trkpt lat="41.3208183" lon="0.7605483"><ele>532.0</ele><time>2026-04-19T07:15:44.968Z</time></trkpt><trkpt lat="41.3206783" lon="0.76062"><ele>532.0</ele><time>2026-04-19T07:15:46.967Z</time></trkpt><trkpt lat="41.3205733" lon="0.7606433"><ele>532.0</ele><time>2026-04-19T07:15:47.967Z</time></trkpt><trkpt lat="41.3204683" lon="0.76065"><ele>532.0</ele><time>2026-04-19T07:15:48.967Z</time></trkpt><trkpt lat="41.3203683" lon="0.7606633"><ele>532.0</ele><time>2026-04-19T07:15:49.968Z</time></trkpt><trkpt lat="41.32028" lon="0.7606783"><ele>532.0</ele><time>2026-04-19T07:15:50.968Z</time></trkpt><trkpt lat="41.3201783" lon="0.76068"><ele>530.8000000000001</ele><time>2026-04-19T07:15:51.968Z</time></trkpt><trkpt lat="41.32008" lon="0.76066"><ele>529.6</ele><time>2026-04-19T07:15:52.967Z</time></trkpt><trkpt lat="41.3199833" lon="0.7606317"><ele>528.4000000000001</ele><time>2026-04-19T07:15:53.968Z</time></trkpt><trkpt lat="41.3199033" lon="0.7605633"><ele>527.2</ele><time>2026-04-19T07:15:54.967Z</time></trkpt><trkpt lat="41.3198417" lon="0.7604633"><ele>526.0</ele><time>2026-04-19T07:15:55.967Z</time></trkpt><trkpt lat="41.3197867" lon="0.76038"><ele>528.2</ele><time>2026-04-19T07:15:56.968Z</time></trkpt><trkpt lat="41.3197217" lon="0.7603117"><ele>530.4000000000001</ele><time>2026-04-19T07:15:57.968Z</time></trkpt><trkpt lat="41.31961" lon="0.760245"><ele>532.6</ele><time>2026-04-19T07:15:59.968Z</time></trkpt><trkpt lat="41.3194783" lon="0.7603067"><ele>534.8000000000001</ele><time>2026-04-19T07:16:01.967Z</time></trkpt><trkpt lat="41.3194317" lon="0.7603917"><ele>537.0</ele><time>2026-04-19T07:16:02.967Z</time></trkpt><trkpt lat="41.3194033" lon="0.7604983"><ele>537.0</ele><time>2026-04-19T07:16:03.968Z</time></trkpt><trkpt lat="41.3193833" lon="0.7606567"><ele>537.0</ele><time>2026-04-19T07:16:04.968Z</time></trkpt><trkpt lat="41.3193533" lon="0.760785"><ele>537.0</ele><time>2026-04-19T07:16:05.968Z</time></trkpt><trkpt lat="41.3193267" lon="0.7609"><ele>537.0</ele><time>2026-04-19T07:16:06.967Z</time></trkpt><trkpt lat="41.3192683" lon="0.7610117"><ele>537.0</ele><time>2026-04-19T07:16:07.967Z</time></trkpt><trkpt lat="41.3191867" lon="0.761115"><ele>540.0</ele><time>2026-04-19T07:16:08.967Z</time></trkpt><trkpt lat="41.3191067" lon="0.7612217"><ele>543.0</ele><time>2026-04-19T07:16:09.967Z</time></trkpt><trkpt lat="41.319025" lon="0.7613233"><ele>546.0</ele><time>2026-04-19T07:16:10.967Z</time></trkpt><trkpt lat="41.31894" lon="0.7614267"><ele>549.0</ele><time>2026-04-19T07:16:11.968Z</time></trkpt><trkpt lat="41.3188533" lon="0.76155"><ele>549.0</ele><time>2026-04-19T07:16:12.968Z</time></trkpt><trkpt lat="41.3187817" lon="0.7616833"><ele>549.0</ele><time>2026-04-19T07:16:13.968Z</time></trkpt><trkpt lat="41.3187283" lon="0.761825"><ele>549.0</ele><time>2026-04-19T07:16:14.968Z</time></trkpt><trkpt lat="41.31869" lon="0.7619567"><ele>549.0</ele><time>2026-04-19T07:16:15.968Z</time></trkpt><trkpt lat="41.31866" lon="0.7620933"><ele>543.8</ele><time>2026-04-19T07:16:16.967Z</time></trkpt><trkpt lat="41.318635" lon="0.7622117"><ele>538.5999999999999</ele><time>2026-04-19T07:16:17.968Z</time></trkpt><trkpt lat="41.3185833" lon="0.7623117"><ele>533.4</ele><time>2026-04-19T07:16:18.968Z</time></trkpt><trkpt lat="41.3185067" lon="0.7624"><ele>528.1999999999999</ele><time>2026-04-19T07:16:19.967Z</time></trkpt><trkpt lat="41.31842" lon="0.7624833"><ele>523.0</ele><time>2026-04-19T07:16:20.967Z</time></trkpt><trkpt lat="41.3183183" lon="0.762565"><ele>523.0</ele><time>2026-04-19T07:16:21.967Z</time></trkpt><trkpt lat="41.31821" lon="0.762635"><ele>523.0</ele><time>2026-04-19T07:16:22.967Z</time></trkpt><trkpt lat="41.3180867" lon="0.762695"><ele>523.0</ele><time>2026-04-19T07:16:23.968Z</time></trkpt><trkpt lat="41.3179483" lon="0.7627567"><ele>523.0</ele><time>2026-04-19T07:16:24.968Z</time></trkpt><trkpt lat="41.3178183" lon="0.76282"><ele>519.0</ele><time>2026-04-19T07:16:25.967Z</time></trkpt><trkpt lat="41.3177" lon="0.7628733"><ele>515.0</ele><time>2026-04-19T07:16:26.968Z</time></trkpt><trkpt lat="41.3175967" lon="0.7629117"><ele>510.99999999999994</ele><time>2026-04-19T07:16:27.968Z</time></trkpt><trkpt lat="41.3174933" lon="0.7629233"><ele>507.0</ele><time>2026-04-19T07:16:28.968Z</time></trkpt><trkpt lat="41.317385" lon="0.7629267"><ele>503.0</ele><time>2026-04-19T07:16:29.967Z</time></trkpt><trkpt lat="41.317285" lon="0.7629017"><ele>504.2</ele><time>2026-04-19T07:16:30.967Z</time></trkpt><trkpt lat="41.3172083" lon="0.7628467"><ele>505.4</ele><time>2026-04-19T07:16:31.967Z</time></trkpt><trkpt lat="41.31718" lon="0.76273"><ele>506.59999999999997</ele><time>2026-04-19T07:16:32.968Z</time></trkpt><trkpt lat="41.3171633" lon="0.7625867"><ele>507.79999999999995</ele><time>2026-04-19T07:16:33.968Z</time></trkpt><trkpt lat="41.3171233" lon="0.7624467"><ele>509.0</ele><time>2026-04-19T07:16:34.967Z</time></trkpt><trkpt lat="41.31708" lon="0.7623483"><ele>509.8333333333333</ele><time>2026-04-19T07:16:35.967Z</time></trkpt><trkpt lat="41.3170133" lon="0.7622833"><ele>510.66666666666663</ele><time>2026-04-19T07:16:36.968Z</time></trkpt><trkpt lat="41.3169233" lon="0.76225"><ele>511.5</ele><time>2026-04-19T07:16:37.967Z</time></trkpt><trkpt lat="41.3168433" lon="0.7622417"><ele>512.3333333333334</ele><time>2026-04-19T07:16:38.968Z</time></trkpt><trkpt lat="41.31676" lon="0.7622517"><ele>513.1666666666667</ele><time>2026-04-19T07:16:39.968Z</time></trkpt><trkpt lat="41.3166733" lon="0.7622933"><ele>514.0</ele><time>2026-04-19T07:16:40.968Z</time></trkpt><trkpt lat="41.3166067" lon="0.7623783"><ele>514.0</ele><time>2026-04-19T07:16:41.967Z</time></trkpt><trkpt lat="41.3165867" lon="0.7624967"><ele>514.0</ele><time>2026-04-19T07:16:42.968Z</time></trkpt><trkpt lat="41.3165833" lon="0.762645"><ele>514.0</ele><time>2026-04-19T07:16:43.967Z</time></trkpt><trkpt lat="41.316645" lon="0.7628283"><ele>514.0</ele><time>2026-04-19T07:16:44.968Z</time></trkpt><trkpt lat="41.3166683" lon="0.7629967"><ele>513.0</ele><time>2026-04-19T07:16:45.968Z</time></trkpt><trkpt lat="41.3166867" lon="0.7631517"><ele>512.0</ele><time>2026-04-19T07:16:46.967Z</time></trkpt><trkpt lat="41.31666" lon="0.7632767"><ele>511.0</ele><time>2026-04-19T07:16:47.968Z</time></trkpt><trkpt lat="41.3166317" lon="0.7633783"><ele>510.0</ele><time>2026-04-19T07:16:48.968Z</time></trkpt><trkpt lat="41.3165817" lon="0.763495"><ele>509.0</ele><time>2026-04-19T07:16:49.967Z</time></trkpt><trkpt lat="41.3165117" lon="0.7635883"><ele>508.0</ele><time>2026-04-19T07:16:50.967Z</time></trkpt><trkpt lat="41.316445" lon="0.7636867"><ele>507.0</ele><time>2026-04-19T07:16:51.968Z</time></trkpt><trkpt lat="41.31638" lon="0.7637867"><ele>506.0</ele><time>2026-04-19T07:16:52.968Z</time></trkpt><trkpt lat="41.3163167" lon="0.763885"><ele>505.0</ele><time>2026-04-19T07:16:53.968Z</time></trkpt><trkpt lat="41.316245" lon="0.7639833"><ele>504.0</ele><time>2026-04-19T07:16:54.967Z</time></trkpt><trkpt lat="41.31619" lon="0.764075"><ele>504.0</ele><time>2026-04-19T07:16:55.967Z</time></trkpt><trkpt lat="41.3161283" lon="0.7641333"><ele>504.0</ele><time>2026-04-19T07:16:56.969Z</time></trkpt><trkpt lat="41.316065" lon="0.7641583"><ele>504.0</ele><time>2026-04-19T07:16:57.969Z</time></trkpt><trkpt lat="41.31599" lon="0.76417"><ele>504.0</ele><time>2026-04-19T07:16:58.968Z</time></trkpt><trkpt lat="41.3158933" lon="0.7641783"><ele>504.0</ele><time>2026-04-19T07:16:59.969Z</time></trkpt><trkpt lat="41.3157933" lon="0.7641733"><ele>504.0</ele><time>2026-04-19T07:17:00.968Z</time></trkpt><trkpt lat="41.3156983" lon="0.76418"><ele>504.0</ele><time>2026-04-19T07:17:01.969Z</time></trkpt><trkpt lat="41.31563" lon="0.76422"><ele>504.0</ele><time>2026-04-19T07:17:02.969Z</time></trkpt><trkpt lat="41.31557" lon="0.7642883"><ele>504.0</ele><time>2026-04-19T07:17:03.968Z</time></trkpt><trkpt lat="41.3155217" lon="0.76436"><ele>504.0</ele><time>2026-04-19T07:17:04.968Z</time></trkpt><trkpt lat="41.315495" lon="0.7644533"><ele>504.0</ele><time>2026-04-19T07:17:05.968Z</time></trkpt><trkpt lat="41.3154867" lon="0.7645517"><ele>504.0</ele><time>2026-04-19T07:17:06.968Z</time></trkpt><trkpt lat="41.3154967" lon="0.7646383"><ele>504.0</ele><time>2026-04-19T07:17:07.968Z</time></trkpt><trkpt lat="41.31555" lon="0.7648183"><ele>502.8333333333333</ele><time>2026-04-19T07:17:09.968Z</time></trkpt><trkpt lat="41.31557" lon="0.7649233"><ele>501.66666666666663</ele><time>2026-04-19T07:17:10.968Z</time></trkpt><trkpt lat="41.3155783" lon="0.7650367"><ele>500.5</ele><time>2026-04-19T07:17:11.968Z</time></trkpt><trkpt lat="41.3155717" lon="0.765145"><ele>499.3333333333333</ele><time>2026-04-19T07:17:12.969Z</time></trkpt><trkpt lat="41.315565" lon="0.7652517"><ele>498.16666666666663</ele><time>2026-04-19T07:17:13.969Z</time></trkpt><trkpt lat="41.3155667" lon="0.7653533"><ele>497.0</ele><time>2026-04-19T07:17:14.969Z</time></trkpt><trkpt lat="41.3155683" lon="0.76547"><ele>496.66666666666663</ele><time>2026-04-19T07:17:15.969Z</time></trkpt><trkpt lat="41.3155617" lon="0.7655817"><ele>496.3333333333333</ele><time>2026-04-19T07:17:16.969Z</time></trkpt><trkpt lat="41.315555" lon="0.7656883"><ele>496.0</ele><time>2026-04-19T07:17:17.968Z</time></trkpt><trkpt lat="41.3155617" lon="0.7657933"><ele>495.66666666666663</ele><time>2026-04-19T07:17:18.969Z</time></trkpt><trkpt lat="41.3155933" lon="0.7658917"><ele>495.3333333333333</ele><time>2026-04-19T07:17:19.968Z</time></trkpt><trkpt lat="41.3156133" lon="0.765985"><ele>495.0</ele><time>2026-04-19T07:17:20.969Z</time></trkpt><trkpt lat="41.3156083" lon="0.76609"><ele>494.6</ele><time>2026-04-19T07:17:21.969Z</time></trkpt><trkpt lat="41.3156317" lon="0.76621"><ele>494.2</ele><time>2026-04-19T07:17:22.968Z</time></trkpt><trkpt lat="41.315595" lon="0.7662917"><ele>493.79999999999995</ele><time>2026-04-19T07:17:23.969Z</time></trkpt><trkpt lat="41.3155433" lon="0.76638"><ele>493.4</ele><time>2026-04-19T07:17:24.969Z</time></trkpt><trkpt lat="41.31547" lon="0.766455"><ele>493.0</ele><time>2026-04-19T07:17:25.968Z</time></trkpt><trkpt lat="41.3153733" lon="0.7665217"><ele>493.0</ele><time>2026-04-19T07:17:26.969Z</time></trkpt><trkpt lat="41.3152517" lon="0.7665783"><ele>493.0</ele><time>2026-04-19T07:17:27.969Z</time></trkpt><trkpt lat="41.3151317" lon="0.766625"><ele>493.0</ele><time>2026-04-19T07:17:28.968Z</time></trkpt><trkpt lat="41.3150367" lon="0.7666683"><ele>493.0</ele><time>2026-04-19T07:17:29.969Z</time></trkpt><trkpt lat="41.31494" lon="0.7667067"><ele>493.0</ele><time>2026-04-19T07:17:30.968Z</time></trkpt><trkpt lat="41.3148567" lon="0.76675"><ele>492.99999999999994</ele><time>2026-04-19T07:17:31.968Z</time></trkpt><trkpt lat="41.3147717" lon="0.7668567"><ele>492.99999999999994</ele><time>2026-04-19T07:17:32.968Z</time></trkpt><trkpt lat="41.314695" lon="0.7669783"><ele>493.0</ele><time>2026-04-19T07:17:33.969Z</time></trkpt><trkpt lat="41.3146317" lon="0.7670983"><ele>493.0</ele><time>2026-04-19T07:17:34.968Z</time></trkpt><trkpt lat="41.3145833" lon="0.76722"><ele>492.79999999999995</ele><time>2026-04-19T07:17:35.969Z</time></trkpt><trkpt lat="41.3145367" lon="0.7673483"><ele>492.59999999999997</ele><time>2026-04-19T07:17:36.969Z</time></trkpt><trkpt lat="41.314505" lon="0.767465"><ele>492.40000000000003</ele><time>2026-04-19T07:17:37.968Z</time></trkpt><trkpt lat="41.3144667" lon="0.7675783"><ele>492.20000000000005</ele><time>2026-04-19T07:17:38.969Z</time></trkpt><trkpt lat="41.31445" lon="0.7677033"><ele>492.0</ele><time>2026-04-19T07:17:39.969Z</time></trkpt><trkpt lat="41.3143983" lon="0.767815"><ele>492.0</ele><time>2026-04-19T07:17:40.968Z</time></trkpt><trkpt lat="41.3143283" lon="0.7679117"><ele>492.00000000000006</ele><time>2026-04-19T07:17:41.969Z</time></trkpt><trkpt lat="41.31426" lon="0.7680133"><ele>492.00000000000006</ele><time>2026-04-19T07:17:42.968Z</time></trkpt><trkpt lat="41.3141917" lon="0.76813"><ele>492.0</ele><time>2026-04-19T07:17:43.969Z</time></trkpt><trkpt lat="41.3141283" lon="0.7682533"><ele>492.0</ele><time>2026-04-19T07:17:44.969Z</time></trkpt><trkpt lat="41.31407" lon="0.768375"><ele>492.0</ele><time>2026-04-19T07:17:45.969Z</time></trkpt><trkpt lat="41.3140367" lon="0.76848"><ele>492.00000000000006</ele><time>2026-04-19T07:17:46.968Z</time></trkpt><trkpt lat="41.314" lon="0.76859"><ele>492.00000000000006</ele><time>2026-04-19T07:17:47.969Z</time></trkpt><trkpt lat="41.3139367" lon="0.7686817"><ele>492.0</ele><time>2026-04-19T07:17:48.968Z</time></trkpt><trkpt lat="41.313855" lon="0.7687483"><ele>492.0</ele><time>2026-04-19T07:17:49.969Z</time></trkpt><trkpt lat="41.3137533" lon="0.7687867"><ele>488.5</ele><time>2026-04-19T07:17:50.968Z</time></trkpt><trkpt lat="41.3136483" lon="0.7688117"><ele>485.0</ele><time>2026-04-19T07:17:51.968Z</time></trkpt><trkpt lat="41.3135333" lon="0.7688383"><ele>481.5</ele><time>2026-04-19T07:17:52.968Z</time></trkpt><trkpt lat="41.3134117" lon="0.76888"><ele>478.0</ele><time>2026-04-19T07:17:53.968Z</time></trkpt><trkpt lat="41.31328" lon="0.7689333"><ele>478.0</ele><time>2026-04-19T07:17:54.968Z</time></trkpt><trkpt lat="41.31316" lon="0.7689983"><ele>478.0</ele><time>2026-04-19T07:17:55.968Z</time></trkpt><trkpt lat="41.3130483" lon="0.7690533"><ele>478.0</ele><time>2026-04-19T07:17:56.969Z</time></trkpt><trkpt lat="41.312925" lon="0.7691233"><ele>478.0</ele><time>2026-04-19T07:17:57.968Z</time></trkpt><trkpt lat="41.312805" lon="0.7692267"><ele>481.0</ele><time>2026-04-19T07:17:58.969Z</time></trkpt><trkpt lat="41.3126833" lon="0.76935"><ele>484.0</ele><time>2026-04-19T07:17:59.969Z</time></trkpt><trkpt lat="41.3125617" lon="0.7694583"><ele>487.0</ele><time>2026-04-19T07:18:00.969Z</time></trkpt><trkpt lat="41.3124567" lon="0.7695567"><ele>490.0</ele><time>2026-04-19T07:18:01.969Z</time></trkpt><trkpt lat="41.3123433" lon="0.7696383"><ele>485.0</ele><time>2026-04-19T07:18:02.968Z</time></trkpt><trkpt lat="41.31223" lon="0.7697"><ele>480.0</ele><time>2026-04-19T07:18:03.969Z</time></trkpt><trkpt lat="41.3121183" lon="0.769745"><ele>475.0</ele><time>2026-04-19T07:18:04.968Z</time></trkpt><trkpt lat="41.3120167" lon="0.7697767"><ele>470.0</ele><time>2026-04-19T07:18:05.968Z</time></trkpt><trkpt lat="41.3119133" lon="0.7697717"><ele>465.0</ele><time>2026-04-19T07:18:06.968Z</time></trkpt><trkpt lat="41.3118217" lon="0.76973"><ele>465.0</ele><time>2026-04-19T07:18:07.969Z</time></trkpt><trkpt lat="41.3117233" lon="0.7696617"><ele>465.0</ele><time>2026-04-19T07:18:08.969Z</time></trkpt><trkpt lat="41.3116433" lon="0.7695667"><ele>465.0</ele><time>2026-04-19T07:18:09.968Z</time></trkpt><trkpt lat="41.3115567" lon="0.7694683"><ele>465.0</ele><time>2026-04-19T07:18:10.968Z</time></trkpt><trkpt lat="41.311455" lon="0.76941"><ele>465.0</ele><time>2026-04-19T07:18:11.968Z</time></trkpt><trkpt lat="41.3113417" lon="0.76941"><ele>466.5</ele><time>2026-04-19T07:18:12.968Z</time></trkpt><trkpt lat="41.31123" lon="0.769395"><ele>468.0</ele><time>2026-04-19T07:18:13.969Z</time></trkpt><trkpt lat="41.31112" lon="0.7693617"><ele>469.5</ele><time>2026-04-19T07:18:14.968Z</time></trkpt><trkpt lat="41.311015" lon="0.7693033"><ele>471.0</ele><time>2026-04-19T07:18:15.968Z</time></trkpt><trkpt lat="41.3109167" lon="0.769235"><ele>471.0</ele><time>2026-04-19T07:18:16.968Z</time></trkpt><trkpt lat="41.310815" lon="0.7691733"><ele>471.0</ele><time>2026-04-19T07:18:17.969Z</time></trkpt><trkpt lat="41.310715" lon="0.769095"><ele>471.0</ele><time>2026-04-19T07:18:18.968Z</time></trkpt><trkpt lat="41.310635" lon="0.7689917"><ele>471.0</ele><time>2026-04-19T07:18:19.969Z</time></trkpt><trkpt lat="41.310575" lon="0.768875"><ele>471.0</ele><time>2026-04-19T07:18:20.968Z</time></trkpt><trkpt lat="41.3105367" lon="0.7687483"><ele>469.5</ele><time>2026-04-19T07:18:21.969Z</time></trkpt><trkpt lat="41.310515" lon="0.7686117"><ele>468.0</ele><time>2026-04-19T07:18:22.968Z</time></trkpt><trkpt lat="41.3105117" lon="0.76849"><ele>466.5</ele><time>2026-04-19T07:18:23.968Z</time></trkpt><trkpt lat="41.3105167" lon="0.7683917"><ele>465.0</ele><time>2026-04-19T07:18:24.968Z</time></trkpt><trkpt lat="41.310515" lon="0.7683017"><ele>463.5</ele><time>2026-04-19T07:18:25.968Z</time></trkpt><trkpt lat="41.3104717" lon="0.76818"><ele>462.0</ele><time>2026-04-19T07:18:27.969Z</time></trkpt><trkpt lat="41.3104" lon="0.7681717"><ele>462.0</ele><time>2026-04-19T07:18:28.968Z</time></trkpt><trkpt lat="41.3103183" lon="0.7682"><ele>462.00000000000006</ele><time>2026-04-19T07:18:29.969Z</time></trkpt><trkpt lat="41.310255" lon="0.76826"><ele>462.00000000000006</ele><time>2026-04-19T07:18:30.968Z</time></trkpt><trkpt lat="41.310175" lon="0.7683533"><ele>462.0</ele><time>2026-04-19T07:18:31.968Z</time></trkpt><trkpt lat="41.3101067" lon="0.76848"><ele>462.0</ele><time>2026-04-19T07:18:32.969Z</time></trkpt><trkpt lat="41.310045" lon="0.7686"><ele>462.0</ele><time>2026-04-19T07:18:33.969Z</time></trkpt><trkpt lat="41.3099867" lon="0.76869"><ele>462.0</ele><time>2026-04-19T07:18:34.969Z</time></trkpt><trkpt lat="41.3099217" lon="0.768755"><ele>462.0</ele><time>2026-04-19T07:18:35.968Z</time></trkpt><trkpt lat="41.3098483" lon="0.76879"><ele>462.0</ele><time>2026-04-19T07:18:36.969Z</time></trkpt><trkpt lat="41.3097833" lon="0.7687817"><ele>462.0</ele><time>2026-04-19T07:18:37.969Z</time></trkpt><trkpt lat="41.3096967" lon="0.76876"><ele>462.0</ele><time>2026-04-19T07:18:38.969Z</time></trkpt><trkpt lat="41.3096117" lon="0.7687617"><ele>463.40000000000003</ele><time>2026-04-19T07:18:39.968Z</time></trkpt><trkpt lat="41.30951" lon="0.768805"><ele>464.80000000000007</ele><time>2026-04-19T07:18:40.969Z</time></trkpt><trkpt lat="41.3094083" lon="0.7688717"><ele>466.2</ele><time>2026-04-19T07:18:41.968Z</time></trkpt><trkpt lat="41.3093133" lon="0.7689283"><ele>467.6</ele><time>2026-04-19T07:18:42.969Z</time></trkpt><trkpt lat="41.3092217" lon="0.7689917"><ele>469.0</ele><time>2026-04-19T07:18:43.969Z</time></trkpt><trkpt lat="41.3091433" lon="0.76906"><ele>469.00000000000006</ele><time>2026-04-19T07:18:44.968Z</time></trkpt><trkpt lat="41.3090717" lon="0.76911"><ele>469.0</ele><time>2026-04-19T07:18:45.968Z</time></trkpt><trkpt lat="41.3089983" lon="0.7691533"><ele>469.0</ele><time>2026-04-19T07:18:46.969Z</time></trkpt><trkpt lat="41.3089167" lon="0.76919"><ele>469.0</ele><time>2026-04-19T07:18:47.968Z</time></trkpt><trkpt lat="41.3088367" lon="0.7691983"><ele>469.00000000000006</ele><time>2026-04-19T07:18:48.969Z</time></trkpt><trkpt lat="41.3087467" lon="0.7691983"><ele>469.0</ele><time>2026-04-19T07:18:49.969Z</time></trkpt><trkpt lat="41.308655" lon="0.7691667"><ele>466.6</ele><time>2026-04-19T07:18:50.969Z</time></trkpt><trkpt lat="41.3085733" lon="0.7691317"><ele>464.2</ele><time>2026-04-19T07:18:51.968Z</time></trkpt><trkpt lat="41.3084967" lon="0.7690717"><ele>461.80000000000007</ele><time>2026-04-19T07:18:52.969Z</time></trkpt><trkpt lat="41.3084083" lon="0.768995"><ele>459.40000000000003</ele><time>2026-04-19T07:18:53.969Z</time></trkpt><trkpt lat="41.3083183" lon="0.7689167"><ele>457.0</ele><time>2026-04-19T07:18:54.968Z</time></trkpt><trkpt lat="41.30823" lon="0.7688333"><ele>457.0</ele><time>2026-04-19T07:18:55.968Z</time></trkpt><trkpt lat="41.30815" lon="0.7687333"><ele>457.0</ele><time>2026-04-19T07:18:56.968Z</time></trkpt><trkpt lat="41.308075" lon="0.76862"><ele>457.0</ele><time>2026-04-19T07:18:57.968Z</time></trkpt><trkpt lat="41.308" lon="0.7684917"><ele>457.0</ele><time>2026-04-19T07:18:58.968Z</time></trkpt><trkpt lat="41.3079217" lon="0.7683417"><ele>454.75</ele><time>2026-04-19T07:18:59.969Z</time></trkpt><trkpt lat="41.3078367" lon="0.7681883"><ele>452.5</ele><time>2026-04-19T07:19:00.969Z</time></trkpt><trkpt lat="41.307765" lon="0.768065"><ele>450.25</ele><time>2026-04-19T07:19:01.968Z</time></trkpt><trkpt lat="41.3077" lon="0.7679533"><ele>448.0</ele><time>2026-04-19T07:19:02.969Z</time></trkpt><trkpt lat="41.3076467" lon="0.7678567"><ele>448.00000000000006</ele><time>2026-04-19T07:19:03.968Z</time></trkpt><trkpt lat="41.3075883" lon="0.7677633"><ele>448.0</ele><time>2026-04-19T07:19:04.968Z</time></trkpt><trkpt lat="41.3075283" lon="0.7676883"><ele>448.0</ele><time>2026-04-19T07:19:05.968Z</time></trkpt><trkpt lat="41.3074733" lon="0.7676033"><ele>448.0</ele><time>2026-04-19T07:19:06.969Z</time></trkpt><trkpt lat="41.3074083" lon="0.7675383"><ele>448.00000000000006</ele><time>2026-04-19T07:19:07.969Z</time></trkpt><trkpt lat="41.3073467" lon="0.767495"><ele>448.0</ele><time>2026-04-19T07:19:08.968Z</time></trkpt><trkpt lat="41.3072667" lon="0.76748"><ele>450.4</ele><time>2026-04-19T07:19:09.969Z</time></trkpt><trkpt lat="41.3071883" lon="0.767505"><ele>452.79999999999995</ele><time>2026-04-19T07:19:10.969Z</time></trkpt><trkpt lat="41.3070983" lon="0.7675783"><ele>455.2</ele><time>2026-04-19T07:19:11.969Z</time></trkpt><trkpt lat="41.307015" lon="0.7676417"><ele>457.6</ele><time>2026-04-19T07:19:12.968Z</time></trkpt><trkpt lat="41.306915" lon="0.7676817"><ele>460.0</ele><time>2026-04-19T07:19:13.969Z</time></trkpt><trkpt lat="41.3068083" lon="0.7676817"><ele>460.0</ele><time>2026-04-19T07:19:14.969Z</time></trkpt><trkpt lat="41.306685" lon="0.7676717"><ele>460.0</ele><time>2026-04-19T07:19:15.968Z</time></trkpt><trkpt lat="41.3065667" lon="0.7676617"><ele>460.0</ele><time>2026-04-19T07:19:16.968Z</time></trkpt><trkpt lat="41.3064467" lon="0.7676417"><ele>460.0</ele><time>2026-04-19T07:19:17.968Z</time></trkpt><trkpt lat="41.3063067" lon="0.76767"><ele>455.5</ele><time>2026-04-19T07:19:18.969Z</time></trkpt><trkpt lat="41.306195" lon="0.7676967"><ele>451.0</ele><time>2026-04-19T07:19:19.969Z</time></trkpt><trkpt lat="41.3060767" lon="0.7677417"><ele>446.5</ele><time>2026-04-19T07:19:20.969Z</time></trkpt><trkpt lat="41.3059633" lon="0.7677767"><ele>442.0</ele><time>2026-04-19T07:19:21.968Z</time></trkpt><trkpt lat="41.3058583" lon="0.7678167"><ele>442.0</ele><time>2026-04-19T07:19:22.969Z</time></trkpt><trkpt lat="41.305755" lon="0.76786"><ele>442.00000000000006</ele><time>2026-04-19T07:19:23.968Z</time></trkpt><trkpt lat="41.3056567" lon="0.7679"><ele>442.00000000000006</ele><time>2026-04-19T07:19:24.969Z</time></trkpt><trkpt lat="41.3055567" lon="0.767955"><ele>442.0</ele><time>2026-04-19T07:19:25.969Z</time></trkpt><trkpt lat="41.30546" lon="0.76801"><ele>442.0</ele><time>2026-04-19T07:19:26.968Z</time></trkpt><trkpt lat="41.3053583" lon="0.7680867"><ele>443.0</ele><time>2026-04-19T07:19:27.968Z</time></trkpt><trkpt lat="41.3052567" lon="0.7681717"><ele>444.00000000000006</ele><time>2026-04-19T07:19:28.969Z</time></trkpt><trkpt lat="41.30516" lon="0.7682483"><ele>445.00000000000006</ele><time>2026-04-19T07:19:29.969Z</time></trkpt><trkpt lat="41.30507" lon="0.76832"><ele>446.0</ele><time>2026-04-19T07:19:30.968Z</time></trkpt><trkpt lat="41.3049833" lon="0.768375"><ele>447.0</ele><time>2026-04-19T07:19:31.969Z</time></trkpt><trkpt lat="41.3049133" lon="0.7684217"><ele>447.0</ele><time>2026-04-19T07:19:32.968Z</time></trkpt><trkpt lat="41.3048417" lon="0.7684533"><ele>447.00000000000006</ele><time>2026-04-19T07:19:33.968Z</time></trkpt><trkpt lat="41.3047517" lon="0.76847"><ele>447.00000000000006</ele><time>2026-04-19T07:19:34.969Z</time></trkpt><trkpt lat="41.3046533" lon="0.7684617"><ele>447.0</ele><time>2026-04-19T07:19:35.968Z</time></trkpt><trkpt lat="41.30455" lon="0.7684433"><ele>447.0</ele><time>2026-04-19T07:19:36.968Z</time></trkpt><trkpt lat="41.304455" lon="0.7684033"><ele>445.6</ele><time>2026-04-19T07:19:37.969Z</time></trkpt><trkpt lat="41.30434" lon="0.7683617"><ele>444.20000000000005</ele><time>2026-04-19T07:19:38.968Z</time></trkpt><trkpt lat="41.30424" lon="0.7683283"><ele>442.8</ele><time>2026-04-19T07:19:39.969Z</time></trkpt><trkpt lat="41.3041417" lon="0.7682733"><ele>441.4</ele><time>2026-04-19T07:19:40.969Z</time></trkpt><trkpt lat="41.30405" lon="0.7682117"><ele>440.0</ele><time>2026-04-19T07:19:41.969Z</time></trkpt><trkpt lat="41.30397" lon="0.7681067"><ele>439.8</ele><time>2026-04-19T07:19:42.968Z</time></trkpt><trkpt lat="41.303905" lon="0.767985"><ele>439.6</ele><time>2026-04-19T07:19:43.968Z</time></trkpt><trkpt lat="41.30386" lon="0.7678533"><ele>439.4</ele><time>2026-04-19T07:19:44.969Z</time></trkpt><trkpt lat="41.303825" lon="0.7677317"><ele>439.2</ele><time>2026-04-19T07:19:45.969Z</time></trkpt><trkpt lat="41.3038033" lon="0.7676"><ele>439.0</ele><time>2026-04-19T07:19:46.969Z</time></trkpt><trkpt lat="41.3038183" lon="0.76749"><ele>439.00000000000006</ele><time>2026-04-19T07:19:47.968Z</time></trkpt><trkpt lat="41.30384" lon="0.7674"><ele>439.0</ele><time>2026-04-19T07:19:48.969Z</time></trkpt><trkpt lat="41.3038867" lon="0.7673267"><ele>439.0</ele><time>2026-04-19T07:19:49.968Z</time></trkpt><trkpt lat="41.303925" lon="0.76724"><ele>439.0</ele><time>2026-04-19T07:19:50.969Z</time></trkpt><trkpt lat="41.3039733" lon="0.7671033"><ele>439.00000000000006</ele><time>2026-04-19T07:19:52.969Z</time></trkpt><trkpt lat="41.3039367" lon="0.76698"><ele>439.0</ele><time>2026-04-19T07:19:54.969Z</time></trkpt><trkpt lat="41.3038183" lon="0.7668967"><ele>438.0</ele><time>2026-04-19T07:19:56.968Z</time></trkpt><trkpt lat="41.30373" lon="0.7668433"><ele>437.0</ele><time>2026-04-19T07:19:57.969Z</time></trkpt><trkpt lat="41.30361" lon="0.7667767"><ele>436.0</ele><time>2026-04-19T07:19:58.968Z</time></trkpt><trkpt lat="41.303495" lon="0.7666683"><ele>435.0</ele><time>2026-04-19T07:19:59.968Z</time></trkpt><trkpt lat="41.3033967" lon="0.7665783"><ele>435.0</ele><time>2026-04-19T07:20:00.969Z</time></trkpt><trkpt lat="41.3033017" lon="0.766495"><ele>435.0</ele><time>2026-04-19T07:20:01.969Z</time></trkpt><trkpt lat="41.3032133" lon="0.7664017"><ele>435.0</ele><time>2026-04-19T07:20:02.969Z</time></trkpt><trkpt lat="41.303125" lon="0.7663133"><ele>435.0</ele><time>2026-04-19T07:20:03.969Z</time></trkpt><trkpt lat="41.303025" lon="0.766235"><ele>432.5</ele><time>2026-04-19T07:20:04.968Z</time></trkpt><trkpt lat="41.3029267" lon="0.7661633"><ele>430.0</ele><time>2026-04-19T07:20:05.968Z</time></trkpt><trkpt lat="41.3028117" lon="0.7661217"><ele>427.5</ele><time>2026-04-19T07:20:06.969Z</time></trkpt><trkpt lat="41.30268" lon="0.7661067"><ele>425.0</ele><time>2026-04-19T07:20:07.969Z</time></trkpt><trkpt lat="41.30253" lon="0.7661267"><ele>425.0</ele><time>2026-04-19T07:20:08.968Z</time></trkpt><trkpt lat="41.302415" lon="0.7661283"><ele>425.0</ele><time>2026-04-19T07:20:09.969Z</time></trkpt><trkpt lat="41.3022783" lon="0.766165"><ele>425.0</ele><time>2026-04-19T07:20:10.968Z</time></trkpt><trkpt lat="41.30215" lon="0.7662017"><ele>425.0</ele><time>2026-04-19T07:20:11.968Z</time></trkpt><trkpt lat="41.3020283" lon="0.7662417"><ele>425.0</ele><time>2026-04-19T07:20:12.968Z</time></trkpt><trkpt lat="41.3019017" lon="0.7662683"><ele>425.0</ele><time>2026-04-19T07:20:13.968Z</time></trkpt><trkpt lat="41.30177" lon="0.7662967"><ele>425.0</ele><time>2026-04-19T07:20:14.968Z</time></trkpt><trkpt lat="41.3016383" lon="0.7663233"><ele>425.0</ele><time>2026-04-19T07:20:15.968Z</time></trkpt><trkpt lat="41.3015167" lon="0.7663467"><ele>424.5</ele><time>2026-04-19T07:20:16.969Z</time></trkpt><trkpt lat="41.3014" lon="0.7663733"><ele>424.0</ele><time>2026-04-19T07:20:17.969Z</time></trkpt><trkpt lat="41.301275" lon="0.7663933"><ele>423.5</ele><time>2026-04-19T07:20:18.969Z</time></trkpt><trkpt lat="41.301155" lon="0.766405"><ele>423.0</ele><time>2026-04-19T07:20:19.968Z</time></trkpt><trkpt lat="41.301035" lon="0.7664217"><ele>423.0</ele><time>2026-04-19T07:20:20.969Z</time></trkpt><trkpt lat="41.3009267" lon="0.7664433"><ele>423.0</ele><time>2026-04-19T07:20:21.968Z</time></trkpt><trkpt lat="41.3008317" lon="0.7664583"><ele>423.0</ele><time>2026-04-19T07:20:22.968Z</time></trkpt><trkpt lat="41.3007233" lon="0.76644"><ele>423.0</ele><time>2026-04-19T07:20:23.968Z</time></trkpt><trkpt lat="41.3006167" lon="0.76642"><ele>423.0</ele><time>2026-04-19T07:20:24.969Z</time></trkpt><trkpt lat="41.3005017" lon="0.766375"><ele>421.5</ele><time>2026-04-19T07:20:25.969Z</time></trkpt><trkpt lat="41.3003817" lon="0.7663233"><ele>420.0</ele><time>2026-04-19T07:20:26.969Z</time></trkpt><trkpt lat="41.3002467" lon="0.76628"><ele>418.5</ele><time>2026-04-19T07:20:27.969Z</time></trkpt><trkpt lat="41.3001283" lon="0.7662317"><ele>417.0</ele><time>2026-04-19T07:20:28.969Z</time></trkpt><trkpt lat="41.3000317" lon="0.7661767"><ele>417.0</ele><time>2026-04-19T07:20:29.969Z</time></trkpt><trkpt lat="41.299935" lon="0.766105"><ele>417.0</ele><time>2026-04-19T07:20:30.968Z</time></trkpt><trkpt lat="41.29983" lon="0.7660183"><ele>417.0</ele><time>2026-04-19T07:20:31.968Z</time></trkpt><trkpt lat="41.299715" lon="0.7659283"><ele>417.0</ele><time>2026-04-19T07:20:32.969Z</time></trkpt><trkpt lat="41.2996" lon="0.7658433"><ele>417.0</ele><time>2026-04-19T07:20:33.968Z</time></trkpt><trkpt lat="41.2994783" lon="0.7657733"><ele>417.0</ele><time>2026-04-19T07:20:34.969Z</time></trkpt><trkpt lat="41.29935" lon="0.7657083"><ele>417.0</ele><time>2026-04-19T07:20:35.968Z</time></trkpt><trkpt lat="41.2992283" lon="0.7656467"><ele>417.0</ele><time>2026-04-19T07:20:36.969Z</time></trkpt><trkpt lat="41.2990883" lon="0.7655833"><ele>417.0</ele><time>2026-04-19T07:20:37.969Z</time></trkpt><trkpt lat="41.29895" lon="0.7655283"><ele>417.0</ele><time>2026-04-19T07:20:38.969Z</time></trkpt><trkpt lat="41.2988383" lon="0.765495"><ele>417.0</ele><time>2026-04-19T07:20:39.968Z</time></trkpt><trkpt lat="41.2987117" lon="0.7654967"><ele>417.0</ele><time>2026-04-19T07:20:40.969Z</time></trkpt><trkpt lat="41.2985883" lon="0.7654883"><ele>415.8</ele><time>2026-04-19T07:20:41.969Z</time></trkpt><trkpt lat="41.2984817" lon="0.7654633"><ele>414.6</ele><time>2026-04-19T07:20:42.969Z</time></trkpt><trkpt lat="41.2983883" lon="0.7654283"><ele>413.40000000000003</ele><time>2026-04-19T07:20:43.969Z</time></trkpt><trkpt lat="41.2983017" lon="0.7653917"><ele>412.20000000000005</ele><time>2026-04-19T07:20:44.968Z</time></trkpt><trkpt lat="41.29823" lon="0.76533"><ele>411.0</ele><time>2026-04-19T07:20:45.969Z</time></trkpt><trkpt lat="41.2981667" lon="0.765265"><ele>411.0</ele><time>2026-04-19T07:20:46.968Z</time></trkpt><trkpt lat="41.2981083" lon="0.7651983"><ele>411.0</ele><time>2026-04-19T07:20:47.968Z</time></trkpt><trkpt lat="41.2980317" lon="0.765175"><ele>411.0</ele><time>2026-04-19T07:20:48.969Z</time></trkpt><trkpt lat="41.2979367" lon="0.7651517"><ele>411.0</ele><time>2026-04-19T07:20:49.968Z</time></trkpt><trkpt lat="41.2978383" lon="0.765155"><ele>411.0</ele><time>2026-04-19T07:20:50.969Z</time></trkpt><trkpt lat="41.297745" lon="0.76517"><ele>411.0</ele><time>2026-04-19T07:20:51.968Z</time></trkpt><trkpt lat="41.2976467" lon="0.7652017"><ele>410.75</ele><time>2026-04-19T07:20:52.968Z</time></trkpt><trkpt lat="41.2975367" lon="0.7652467"><ele>410.5</ele><time>2026-04-19T07:20:53.968Z</time></trkpt><trkpt lat="41.2974283" lon="0.7652967"><ele>410.25</ele><time>2026-04-19T07:20:54.969Z</time></trkpt><trkpt lat="41.2973233" lon="0.765335"><ele>410.0</ele><time>2026-04-19T07:20:55.969Z</time></trkpt><trkpt lat="41.2972033" lon="0.7654083"><ele>413.25</ele><time>2026-04-19T07:20:56.968Z</time></trkpt><trkpt lat="41.2970883" lon="0.7654667"><ele>416.5</ele><time>2026-04-19T07:20:57.969Z</time></trkpt><trkpt lat="41.2969817" lon="0.7655317"><ele>419.75</ele><time>2026-04-19T07:20:58.968Z</time></trkpt><trkpt lat="41.29688" lon="0.7656"><ele>423.0</ele><time>2026-04-19T07:20:59.968Z</time></trkpt><trkpt lat="41.2967733" lon="0.7656917"><ele>423.0</ele><time>2026-04-19T07:21:00.969Z</time></trkpt><trkpt lat="41.2966733" lon="0.7657733"><ele>423.0</ele><time>2026-04-19T07:21:01.969Z</time></trkpt><trkpt lat="41.2965833" lon="0.765855"><ele>423.0</ele><time>2026-04-19T07:21:02.969Z</time></trkpt><trkpt lat="41.2965033" lon="0.76593"><ele>423.0</ele><time>2026-04-19T07:21:03.969Z</time></trkpt><trkpt lat="41.2964217" lon="0.7660117"><ele>423.0</ele><time>2026-04-19T07:21:04.968Z</time></trkpt><trkpt lat="41.2963633" lon="0.766105"><ele>423.79999999999995</ele><time>2026-04-19T07:21:05.968Z</time></trkpt><trkpt lat="41.2963167" lon="0.7662183"><ele>424.6</ele><time>2026-04-19T07:21:06.969Z</time></trkpt><trkpt lat="41.2962783" lon="0.766325"><ele>425.40000000000003</ele><time>2026-04-19T07:21:07.968Z</time></trkpt><trkpt lat="41.2962483" lon="0.7664483"><ele>426.20000000000005</ele><time>2026-04-19T07:21:08.969Z</time></trkpt><trkpt lat="41.29622" lon="0.76657"><ele>427.0</ele><time>2026-04-19T07:21:09.969Z</time></trkpt><trkpt lat="41.2961917" lon="0.766695"><ele>427.00000000000006</ele><time>2026-04-19T07:21:10.968Z</time></trkpt><trkpt lat="41.2961617" lon="0.7668033"><ele>427.0</ele><time>2026-04-19T07:21:11.969Z</time></trkpt><trkpt lat="41.29613" lon="0.766915"><ele>427.0</ele><time>2026-04-19T07:21:12.968Z</time></trkpt><trkpt lat="41.2961033" lon="0.7670217"><ele>427.0</ele><time>2026-04-19T07:21:13.969Z</time></trkpt><trkpt lat="41.2960683" lon="0.7671117"><ele>427.00000000000006</ele><time>2026-04-19T07:21:14.968Z</time></trkpt><trkpt lat="41.2960083" lon="0.76718"><ele>427.0</ele><time>2026-04-19T07:21:15.969Z</time></trkpt><trkpt lat="41.2959333" lon="0.7672267"><ele>422.0</ele><time>2026-04-19T07:21:16.969Z</time></trkpt><trkpt lat="41.29585" lon="0.76724"><ele>417.00000000000006</ele><time>2026-04-19T07:21:17.968Z</time></trkpt><trkpt lat="41.29576" lon="0.7672283"><ele>412.0</ele><time>2026-04-19T07:21:18.968Z</time></trkpt><trkpt lat="41.295655" lon="0.7671917"><ele>407.0</ele><time>2026-04-19T07:21:19.969Z</time></trkpt><trkpt lat="41.2955433" lon="0.7671433"><ele>402.0</ele><time>2026-04-19T07:21:20.968Z</time></trkpt><trkpt lat="41.29544" lon="0.767095"><ele>399.5</ele><time>2026-04-19T07:21:21.968Z</time></trkpt><trkpt lat="41.2953367" lon="0.7670467"><ele>397.0</ele><time>2026-04-19T07:21:22.968Z</time></trkpt><trkpt lat="41.2952417" lon="0.766965"><ele>394.5</ele><time>2026-04-19T07:21:23.969Z</time></trkpt><trkpt lat="41.2951467" lon="0.7668833"><ele>392.0</ele><time>2026-04-19T07:21:24.968Z</time></trkpt><trkpt lat="41.295045" lon="0.7667883"><ele>392.40000000000003</ele><time>2026-04-19T07:21:25.969Z</time></trkpt><trkpt lat="41.2949533" lon="0.76669"><ele>392.8</ele><time>2026-04-19T07:21:26.968Z</time></trkpt><trkpt lat="41.294865" lon="0.7665833"><ele>393.2</ele><time>2026-04-19T07:21:27.968Z</time></trkpt><trkpt lat="41.2947933" lon="0.7664867"><ele>393.6</ele><time>2026-04-19T07:21:28.968Z</time></trkpt><trkpt lat="41.2947183" lon="0.7664217"><ele>394.0</ele><time>2026-04-19T07:21:29.969Z</time></trkpt><trkpt lat="41.294625" lon="0.7663717"><ele>394.0</ele><time>2026-04-19T07:21:30.968Z</time></trkpt><trkpt lat="41.2945167" lon="0.76632"><ele>394.0</ele><time>2026-04-19T07:21:31.968Z</time></trkpt><trkpt lat="41.294425" lon="0.76626"><ele>394.0</ele><time>2026-04-19T07:21:32.968Z</time></trkpt><trkpt lat="41.294335" lon="0.76617"><ele>394.0</ele><time>2026-04-19T07:21:33.968Z</time></trkpt><trkpt lat="41.2942433" lon="0.7660717"><ele>394.0</ele><time>2026-04-19T07:21:34.969Z</time></trkpt><trkpt lat="41.2941467" lon="0.7659617"><ele>396.0</ele><time>2026-04-19T07:21:35.968Z</time></trkpt><trkpt lat="41.29404" lon="0.765865"><ele>398.0</ele><time>2026-04-19T07:21:36.968Z</time></trkpt><trkpt lat="41.2939283" lon="0.7657867"><ele>400.0</ele><time>2026-04-19T07:21:37.968Z</time></trkpt><trkpt lat="41.2938" lon="0.76572"><ele>402.0</ele><time>2026-04-19T07:21:38.968Z</time></trkpt><trkpt lat="41.2936633" lon="0.7656583"><ele>402.0</ele><time>2026-04-19T07:21:39.968Z</time></trkpt><trkpt lat="41.2935233" lon="0.7655883"><ele>402.0</ele><time>2026-04-19T07:21:40.968Z</time></trkpt><trkpt lat="41.29339" lon="0.7655233"><ele>402.0</ele><time>2026-04-19T07:21:41.968Z</time></trkpt><trkpt lat="41.2932583" lon="0.7654733"><ele>402.0</ele><time>2026-04-19T07:21:42.968Z</time></trkpt><trkpt lat="41.2931317" lon="0.7654117"><ele>398.75</ele><time>2026-04-19T07:21:43.969Z</time></trkpt><trkpt lat="41.2930083" lon="0.7653583"><ele>395.5</ele><time>2026-04-19T07:21:44.968Z</time></trkpt><trkpt lat="41.2928883" lon="0.7653083"><ele>392.25</ele><time>2026-04-19T07:21:45.969Z</time></trkpt><trkpt lat="41.29277" lon="0.7652683"><ele>389.0</ele><time>2026-04-19T07:21:46.969Z</time></trkpt><trkpt lat="41.29265" lon="0.7652267"><ele>391.25</ele><time>2026-04-19T07:21:47.968Z</time></trkpt><trkpt lat="41.292525" lon="0.76517"><ele>393.5</ele><time>2026-04-19T07:21:48.969Z</time></trkpt><trkpt lat="41.2924083" lon="0.76511"><ele>395.75</ele><time>2026-04-19T07:21:49.968Z</time></trkpt><trkpt lat="41.2923" lon="0.7650517"><ele>398.0</ele><time>2026-04-19T07:21:50.969Z</time></trkpt><trkpt lat="41.2921933" lon="0.7650033"><ele>398.0</ele><time>2026-04-19T07:21:51.968Z</time></trkpt><trkpt lat="41.2920867" lon="0.7649533"><ele>398.0</ele><time>2026-04-19T07:21:52.969Z</time></trkpt><trkpt lat="41.2919917" lon="0.764895"><ele>398.0</ele><time>2026-04-19T07:21:53.968Z</time></trkpt><trkpt lat="41.2919017" lon="0.7648167"><ele>398.0</ele><time>2026-04-19T07:21:54.968Z</time></trkpt><trkpt lat="41.2918117" lon="0.7647183"><ele>398.0</ele><time>2026-04-19T07:21:55.968Z</time></trkpt><trkpt lat="41.2917233" lon="0.7646083"><ele>398.0</ele><time>2026-04-19T07:21:56.969Z</time></trkpt><trkpt lat="41.2916683" lon="0.7644867"><ele>398.0</ele><time>2026-04-19T07:21:57.968Z</time></trkpt><trkpt lat="41.2916267" lon="0.7643433"><ele>398.0</ele><time>2026-04-19T07:21:58.968Z</time></trkpt><trkpt lat="41.29159" lon="0.7642217"><ele>398.0</ele><time>2026-04-19T07:21:59.969Z</time></trkpt><trkpt lat="41.2915317" lon="0.76409"><ele>398.0</ele><time>2026-04-19T07:22:00.968Z</time></trkpt><trkpt lat="41.2914633" lon="0.763975"><ele>396.75</ele><time>2026-04-19T07:22:01.969Z</time></trkpt><trkpt lat="41.291375" lon="0.7638867"><ele>395.5</ele><time>2026-04-19T07:22:02.969Z</time></trkpt><trkpt lat="41.2912783" lon="0.763815"><ele>394.25</ele><time>2026-04-19T07:22:03.969Z</time></trkpt><trkpt lat="41.2911783" lon="0.76373"><ele>393.0</ele><time>2026-04-19T07:22:04.968Z</time></trkpt><trkpt lat="41.29109" lon="0.7636117"><ele>393.75</ele><time>2026-04-19T07:22:05.968Z</time></trkpt><trkpt lat="41.29102" lon="0.7634817"><ele>394.5</ele><time>2026-04-19T07:22:06.969Z</time></trkpt><trkpt lat="41.290955" lon="0.7633483"><ele>395.25</ele><time>2026-04-19T07:22:07.968Z</time></trkpt><trkpt lat="41.2909017" lon="0.7632067"><ele>396.0</ele><time>2026-04-19T07:22:08.968Z</time></trkpt><trkpt lat="41.290845" lon="0.7630867"><ele>396.0</ele><time>2026-04-19T07:22:09.969Z</time></trkpt><trkpt lat="41.2907767" lon="0.7629617"><ele>396.0</ele><time>2026-04-19T07:22:10.969Z</time></trkpt><trkpt lat="41.2906967" lon="0.7628167"><ele>396.0</ele><time>2026-04-19T07:22:11.969Z</time></trkpt><trkpt lat="41.2906217" lon="0.762665"><ele>396.0</ele><time>2026-04-19T07:22:12.968Z</time></trkpt><trkpt lat="41.2905383" lon="0.76253"><ele>393.75</ele><time>2026-04-19T07:22:13.969Z</time></trkpt><trkpt lat="41.29045" lon="0.7624083"><ele>391.5</ele><time>2026-04-19T07:22:14.968Z</time></trkpt><trkpt lat="41.29034" lon="0.7622933"><ele>389.25</ele><time>2026-04-19T07:22:15.969Z</time></trkpt><trkpt lat="41.29023" lon="0.7621733"><ele>387.0</ele><time>2026-04-19T07:22:16.968Z</time></trkpt><trkpt lat="41.290095" lon="0.7620317"><ele>387.0</ele><time>2026-04-19T07:22:17.969Z</time></trkpt><trkpt lat="41.2899567" lon="0.76189"><ele>387.0</ele><time>2026-04-19T07:22:18.969Z</time></trkpt><trkpt lat="41.2898333" lon="0.7617467"><ele>387.0</ele><time>2026-04-19T07:22:19.969Z</time></trkpt><trkpt lat="41.28971" lon="0.7616183"><ele>386.75</ele><time>2026-04-19T07:22:20.968Z</time></trkpt><trkpt lat="41.2895933" lon="0.76149"><ele>386.5</ele><time>2026-04-19T07:22:21.968Z</time></trkpt><trkpt lat="41.2894867" lon="0.761375"><ele>386.25</ele><time>2026-04-19T07:22:22.969Z</time></trkpt><trkpt lat="41.2893817" lon="0.76128"><ele>386.0</ele><time>2026-04-19T07:22:23.968Z</time></trkpt><trkpt lat="41.2892917" lon="0.7611983"><ele>386.0</ele><time>2026-04-19T07:22:24.968Z</time></trkpt><trkpt lat="41.2892167" lon="0.7611083"><ele>386.0</ele><time>2026-04-19T07:22:25.968Z</time></trkpt><trkpt lat="41.28917" lon="0.760985"><ele>386.0</ele><time>2026-04-19T07:22:26.969Z</time></trkpt><trkpt lat="41.2891133" lon="0.7608733"><ele>386.0</ele><time>2026-04-19T07:22:27.968Z</time></trkpt><trkpt lat="41.2890883" lon="0.7607567"><ele>386.0</ele><time>2026-04-19T07:22:28.969Z</time></trkpt><trkpt lat="41.2891067" lon="0.7606267"><ele>385.8</ele><time>2026-04-19T07:22:29.968Z</time></trkpt><trkpt lat="41.289155" lon="0.7605017"><ele>385.6</ele><time>2026-04-19T07:22:30.968Z</time></trkpt><trkpt lat="41.289195" lon="0.76038"><ele>385.4</ele><time>2026-04-19T07:22:31.969Z</time></trkpt><trkpt lat="41.2892333" lon="0.76024"><ele>385.2</ele><time>2026-04-19T07:22:32.968Z</time></trkpt><trkpt lat="41.2892617" lon="0.7600867"><ele>385.0</ele><time>2026-04-19T07:22:33.968Z</time></trkpt><trkpt lat="41.2892833" lon="0.7599267"><ele>385.0</ele><time>2026-04-19T07:22:34.969Z</time></trkpt><trkpt lat="41.2892933" lon="0.759785"><ele>385.0</ele><time>2026-04-19T07:22:35.968Z</time></trkpt><trkpt lat="41.2893117" lon="0.7596633"><ele>385.0</ele><time>2026-04-19T07:22:36.969Z</time></trkpt><trkpt lat="41.2893183" lon="0.75954"><ele>385.0</ele><time>2026-04-19T07:22:37.969Z</time></trkpt><trkpt lat="41.2893517" lon="0.7594167"><ele>385.0</ele><time>2026-04-19T07:22:38.968Z</time></trkpt><trkpt lat="41.2894333" lon="0.759345"><ele>384.33333333333337</ele><time>2026-04-19T07:22:39.969Z</time></trkpt><trkpt lat="41.289495" lon="0.7592517"><ele>383.6666666666667</ele><time>2026-04-19T07:22:40.969Z</time></trkpt><trkpt lat="41.2895517" lon="0.75917"><ele>383.0</ele><time>2026-04-19T07:22:41.968Z</time></trkpt><trkpt lat="41.289615" lon="0.75908"><ele>382.33333333333337</ele><time>2026-04-19T07:22:42.969Z</time></trkpt><trkpt lat="41.2896633" lon="0.7589967"><ele>381.6666666666667</ele><time>2026-04-19T07:22:43.969Z</time></trkpt><trkpt lat="41.2896783" lon="0.7588683"><ele>381.0</ele><time>2026-04-19T07:22:44.969Z</time></trkpt><trkpt lat="41.2896733" lon="0.7587267"><ele>381.0</ele><time>2026-04-19T07:22:45.968Z</time></trkpt><trkpt lat="41.2896367" lon="0.758565"><ele>381.0</ele><time>2026-04-19T07:22:46.968Z</time></trkpt><trkpt lat="41.2895883" lon="0.7584033"><ele>381.0</ele><time>2026-04-19T07:22:47.969Z</time></trkpt><trkpt lat="41.2895283" lon="0.7582433"><ele>381.0</ele><time>2026-04-19T07:22:48.969Z</time></trkpt><trkpt lat="41.2894283" lon="0.75809"><ele>381.0</ele><time>2026-04-19T07:22:49.969Z</time></trkpt><trkpt lat="41.2893383" lon="0.75794"><ele>381.0</ele><time>2026-04-19T07:22:50.969Z</time></trkpt><trkpt lat="41.2892617" lon="0.7577917"><ele>381.0</ele><time>2026-04-19T07:22:51.968Z</time></trkpt><trkpt lat="41.2891867" lon="0.7576433"><ele>381.0</ele><time>2026-04-19T07:22:52.969Z</time></trkpt><trkpt lat="41.2891133" lon="0.7575017"><ele>381.0</ele><time>2026-04-19T07:22:53.969Z</time></trkpt><trkpt lat="41.28906" lon="0.7573533"><ele>381.0</ele><time>2026-04-19T07:22:54.969Z</time></trkpt><trkpt lat="41.289005" lon="0.7571833"><ele>381.0</ele><time>2026-04-19T07:22:55.968Z</time></trkpt><trkpt lat="41.2889567" lon="0.7570183"><ele>381.0</ele><time>2026-04-19T07:22:56.968Z</time></trkpt><trkpt lat="41.28889" lon="0.75684"><ele>381.0</ele><time>2026-04-19T07:22:57.968Z</time></trkpt><trkpt lat="41.2888383" lon="0.7566783"><ele>381.0</ele><time>2026-04-19T07:22:58.969Z</time></trkpt><trkpt lat="41.2887783" lon="0.7565283"><ele>381.0</ele><time>2026-04-19T07:22:59.968Z</time></trkpt><trkpt lat="41.2887567" lon="0.75637"><ele>381.0</ele><time>2026-04-19T07:23:00.968Z</time></trkpt><trkpt lat="41.28873" lon="0.7562183"><ele>381.0</ele><time>2026-04-19T07:23:01.968Z</time></trkpt><trkpt lat="41.288675" lon="0.7560633"><ele>381.0</ele><time>2026-04-19T07:23:02.968Z</time></trkpt><trkpt lat="41.2886267" lon="0.7559367"><ele>381.0</ele><time>2026-04-19T07:23:03.968Z</time></trkpt><trkpt lat="41.2885583" lon="0.7557917"><ele>381.0</ele><time>2026-04-19T07:23:04.968Z</time></trkpt><trkpt lat="41.28852" lon="0.7556583"><ele>380.6</ele><time>2026-04-19T07:23:05.969Z</time></trkpt><trkpt lat="41.28846" lon="0.7555433"><ele>380.20000000000005</ele><time>2026-04-19T07:23:06.968Z</time></trkpt><trkpt lat="41.2884283" lon="0.755415"><ele>379.79999999999995</ele><time>2026-04-19T07:23:07.969Z</time></trkpt><trkpt lat="41.288385" lon="0.755285"><ele>379.4</ele><time>2026-04-19T07:23:08.969Z</time></trkpt><trkpt lat="41.288335" lon="0.7551567"><ele>379.0</ele><time>2026-04-19T07:23:09.969Z</time></trkpt><trkpt lat="41.28824" lon="0.7550667"><ele>378.5</ele><time>2026-04-19T07:23:10.969Z</time></trkpt><trkpt lat="41.2881833" lon="0.7549817"><ele>378.0</ele><time>2026-04-19T07:23:11.968Z</time></trkpt><trkpt lat="41.2881467" lon="0.7548933"><ele>377.5</ele><time>2026-04-19T07:23:12.969Z</time></trkpt><trkpt lat="41.2881083" lon="0.7548033"><ele>377.0</ele><time>2026-04-19T07:23:13.969Z</time></trkpt><trkpt lat="41.28806" lon="0.7547183"><ele>376.5</ele><time>2026-04-19T07:23:14.969Z</time></trkpt><trkpt lat="41.2879833" lon="0.7546417"><ele>376.0</ele><time>2026-04-19T07:23:15.968Z</time></trkpt><trkpt lat="41.287905" lon="0.7545683"><ele>376.0</ele><time>2026-04-19T07:23:16.968Z</time></trkpt><trkpt lat="41.28782" lon="0.7544917"><ele>376.0</ele><time>2026-04-19T07:23:17.969Z</time></trkpt><trkpt lat="41.2877383" lon="0.7544117"><ele>376.0</ele><time>2026-04-19T07:23:18.969Z</time></trkpt><trkpt lat="41.2876533" lon="0.7543367"><ele>376.0</ele><time>2026-04-19T07:23:19.969Z</time></trkpt><trkpt lat="41.2875683" lon="0.7542733"><ele>376.0</ele><time>2026-04-19T07:23:20.969Z</time></trkpt><trkpt lat="41.2874783" lon="0.7542267"><ele>377.0</ele><time>2026-04-19T07:23:21.968Z</time></trkpt><trkpt lat="41.2873867" lon="0.7541933"><ele>378.0</ele><time>2026-04-19T07:23:22.968Z</time></trkpt><trkpt lat="41.2872933" lon="0.7541867"><ele>379.0</ele><time>2026-04-19T07:23:23.969Z</time></trkpt><trkpt lat="41.2872167" lon="0.7541833"><ele>380.0</ele><time>2026-04-19T07:23:24.969Z</time></trkpt><trkpt lat="41.2871433" lon="0.7541917"><ele>381.0</ele><time>2026-04-19T07:23:25.968Z</time></trkpt><trkpt lat="41.287075" lon="0.7541967"><ele>382.0</ele><time>2026-04-19T07:23:26.969Z</time></trkpt><trkpt lat="41.2869767" lon="0.7542067"><ele>382.0</ele><time>2026-04-19T07:23:28.968Z</time></trkpt><trkpt lat="41.28691" lon="0.75422"><ele>382.0</ele><time>2026-04-19T07:23:30.968Z</time></trkpt><trkpt lat="41.2868283" lon="0.7542233"><ele>382.0</ele><time>2026-04-19T07:23:33.969Z</time></trkpt><trkpt lat="41.2867633" lon="0.7542367"><ele>382.0</ele><time>2026-04-19T07:23:36.968Z</time></trkpt><trkpt lat="41.286675" lon="0.7542483"><ele>382.0</ele><time>2026-04-19T07:23:45.969Z</time></trkpt><trkpt lat="41.2865883" lon="0.75426"><ele>382.0</ele><time>2026-04-19T07:23:47.968Z</time></trkpt><trkpt lat="41.2864767" lon="0.75427"><ele>382.8</ele><time>2026-04-19T07:23:49.968Z</time></trkpt><trkpt lat="41.2863783" lon="0.7542517"><ele>383.6</ele><time>2026-04-19T07:23:51.968Z</time></trkpt><trkpt lat="41.2863133" lon="0.7542367"><ele>384.40000000000003</ele><time>2026-04-19T07:23:52.969Z</time></trkpt><trkpt lat="41.2861983" lon="0.7541967"><ele>385.20000000000005</ele><time>2026-04-19T07:23:54.969Z</time></trkpt><trkpt lat="41.2861067" lon="0.754205"><ele>386.0</ele><time>2026-04-19T07:23:56.968Z</time></trkpt><trkpt lat="41.286005" lon="0.7541967"><ele>386.0</ele><time>2026-04-19T07:23:58.968Z</time></trkpt><trkpt lat="41.2859" lon="0.7542067"><ele>386.0</ele><time>2026-04-19T07:24:00.969Z</time></trkpt><trkpt lat="41.28581" lon="0.7542083"><ele>386.0</ele><time>2026-04-19T07:24:02.969Z</time></trkpt><trkpt lat="41.2857267" lon="0.7542433"><ele>386.0</ele><time>2026-04-19T07:24:04.968Z</time></trkpt><trkpt lat="41.2856433" lon="0.754295"><ele>386.0</ele><time>2026-04-19T07:24:06.968Z</time></trkpt><trkpt lat="41.28556" lon="0.7543283"><ele>386.66666666666663</ele><time>2026-04-19T07:24:08.968Z</time></trkpt><trkpt lat="41.2854867" lon="0.7543533"><ele>387.3333333333333</ele><time>2026-04-19T07:24:10.968Z</time></trkpt><trkpt lat="41.2854117" lon="0.7543717"><ele>388.0</ele><time>2026-04-19T07:24:12.968Z</time></trkpt><trkpt lat="41.2853217" lon="0.7544133"><ele>388.66666666666663</ele><time>2026-04-19T07:24:14.969Z</time></trkpt><trkpt lat="41.2852383" lon="0.7544583"><ele>389.3333333333333</ele><time>2026-04-19T07:24:16.968Z</time></trkpt><trkpt lat="41.28516" lon="0.7544717"><ele>390.0</ele><time>2026-04-19T07:24:18.969Z</time></trkpt><trkpt lat="41.2850917" lon="0.7545033"><ele>387.5</ele><time>2026-04-19T07:24:20.968Z</time></trkpt><trkpt lat="41.284995" lon="0.7545283"><ele>385.0</ele><time>2026-04-19T07:24:22.969Z</time></trkpt><trkpt lat="41.2849217" lon="0.7545467"><ele>382.5</ele><time>2026-04-19T07:24:24.968Z</time></trkpt><trkpt lat="41.2848617" lon="0.754515"><ele>380.0</ele><time>2026-04-19T07:24:26.969Z</time></trkpt><trkpt lat="41.2847633" lon="0.754525"><ele>377.5</ele><time>2026-04-19T07:24:28.969Z</time></trkpt><trkpt lat="41.28467" lon="0.7545517"><ele>375.0</ele><time>2026-04-19T07:24:30.969Z</time></trkpt><trkpt lat="41.28458" lon="0.7546017"><ele>374.8571428571429</ele><time>2026-04-19T07:24:32.969Z</time></trkpt><trkpt lat="41.2844967" lon="0.7546233"><ele>374.71428571428567</ele><time>2026-04-19T07:24:35.969Z</time></trkpt><trkpt lat="41.2844383" lon="0.75458"><ele>374.57142857142856</ele><time>2026-04-19T07:24:37.968Z</time></trkpt><trkpt lat="41.2843817" lon="0.7545283"><ele>374.42857142857144</ele><time>2026-04-19T07:24:39.969Z</time></trkpt><trkpt lat="41.2843217" lon="0.7544867"><ele>374.28571428571433</ele><time>2026-04-19T07:24:41.969Z</time></trkpt><trkpt lat="41.2843183" lon="0.7544"><ele>374.1428571428571</ele><time>2026-04-19T07:24:43.968Z</time></trkpt><trkpt lat="41.2843333" lon="0.7543083"><ele>374.0</ele><time>2026-04-19T07:24:46.969Z</time></trkpt><trkpt lat="41.2843617" lon="0.7542283"><ele>374.79999999999995</ele><time>2026-04-19T07:24:48.969Z</time></trkpt><trkpt lat="41.2843783" lon="0.75413"><ele>375.59999999999997</ele><time>2026-04-19T07:24:52.968Z</time></trkpt><trkpt lat="41.2844417" lon="0.75402"><ele>376.4</ele><time>2026-04-19T07:26:27.969Z</time></trkpt><trkpt lat="41.2843794" lon="0.7541166"><ele>377.2</ele><time>2026-04-19T07:26:33.975Z</time></trkpt><trkpt lat="41.2844081" lon="0.7540391"><ele>378.0</ele><time>2026-04-19T07:26:47.054Z</time></trkpt><trkpt lat="41.284506" lon="0.7539087"><ele>378.0</ele><time>2026-04-19T07:29:49.002Z</time></trkpt></trkseg><trkseg><trkpt lat="41.2845186" lon="0.7540504"><ele>378.0</ele><time>2026-04-19T08:37:12.33Z</time></trkpt><trkpt lat="41.2844436" lon="0.7540608"><ele>378.0</ele><time>2026-04-19T08:37:18.412Z</time></trkpt><trkpt lat="41.284381" lon="0.754046"><ele>378.0</ele><time>2026-04-19T08:38:08.981Z</time></trkpt><trkpt lat="41.284385" lon="0.7541667"><ele>378.0</ele><time>2026-04-19T08:39:18.963Z</time></trkpt><trkpt lat="41.284355" lon="0.7542633"><ele>378.0</ele><time>2026-04-19T08:39:20.962Z</time></trkpt><trkpt lat="41.28433" lon="0.7543583"><ele>378.0</ele><time>2026-04-19T08:39:22.962Z</time></trkpt><trkpt lat="41.2843333" lon="0.7544467"><ele>377.3333333333333</ele><time>2026-04-19T08:39:24.963Z</time></trkpt><trkpt lat="41.2843233" lon="0.75457"><ele>376.6666666666667</ele><time>2026-04-19T08:39:26.963Z</time></trkpt><trkpt lat="41.2843333" lon="0.7546933"><ele>376.0</ele><time>2026-04-19T08:39:28.963Z</time></trkpt><trkpt lat="41.2843367" lon="0.7547933"><ele>375.33333333333337</ele><time>2026-04-19T08:39:30.962Z</time></trkpt><trkpt lat="41.2843483" lon="0.7548767"><ele>374.6666666666667</ele><time>2026-04-19T08:39:32.962Z</time></trkpt><trkpt lat="41.284375" lon="0.7549783"><ele>374.0</ele><time>2026-04-19T08:39:35.962Z</time></trkpt><trkpt lat="41.28444" lon="0.75501"><ele>374.0</ele><time>2026-04-19T08:39:38.962Z</time></trkpt><trkpt lat="41.2845067" lon="0.7550233"><ele>374.0</ele><time>2026-04-19T08:39:43.963Z</time></trkpt><trkpt lat="41.2845717" lon="0.75509"><ele>374.0</ele><time>2026-04-19T08:39:46.963Z</time></trkpt><trkpt lat="41.2844933" lon="0.755105"><ele>374.0</ele><time>2026-04-19T08:39:49.963Z</time></trkpt><trkpt lat="41.2843817" lon="0.7550567"><ele>374.0</ele><time>2026-04-19T08:39:51.963Z</time></trkpt><trkpt lat="41.284295" lon="0.7549483"><ele>374.0</ele><time>2026-04-19T08:39:53.962Z</time></trkpt><trkpt lat="41.2841967" lon="0.75485"><ele>374.0</ele><time>2026-04-19T08:39:55.963Z</time></trkpt><trkpt lat="41.2841067" lon="0.75479"><ele>374.0</ele><time>2026-04-19T08:39:57.962Z</time></trkpt><trkpt lat="41.2840083" lon="0.7547067"><ele>374.0</ele><time>2026-04-19T08:39:59.962Z</time></trkpt><trkpt lat="41.2839467" lon="0.7546567"><ele>374.0</ele><time>2026-04-19T08:40:00.962Z</time></trkpt><trkpt lat="41.2838833" lon="0.7545783"><ele>374.0</ele><time>2026-04-19T08:40:01.963Z</time></trkpt><trkpt lat="41.2838283" lon="0.7545017"><ele>374.0</ele><time>2026-04-19T08:40:02.962Z</time></trkpt><trkpt lat="41.2837717" lon="0.7544183"><ele>374.0</ele><time>2026-04-19T08:40:03.963Z</time></trkpt><trkpt lat="41.2837233" lon="0.7543467"><ele>374.0</ele><time>2026-04-19T08:40:04.963Z</time></trkpt><trkpt lat="41.283705" lon="0.7542483"><ele>374.0</ele><time>2026-04-19T08:40:05.962Z</time></trkpt><trkpt lat="41.2837167" lon="0.754145"><ele>374.0</ele><time>2026-04-19T08:40:06.963Z</time></trkpt><trkpt lat="41.2837433" lon="0.7540617"><ele>373.6</ele><time>2026-04-19T08:40:07.961Z</time></trkpt><trkpt lat="41.2837717" lon="0.7539467"><ele>373.2</ele><time>2026-04-19T08:40:08.963Z</time></trkpt><trkpt lat="41.2838317" lon="0.753875"><ele>372.8</ele><time>2026-04-19T08:40:09.962Z</time></trkpt><trkpt lat="41.2839017" lon="0.7537967"><ele>372.40000000000003</ele><time>2026-04-19T08:40:10.962Z</time></trkpt><trkpt lat="41.28399" lon="0.7537067"><ele>372.0</ele><time>2026-04-19T08:40:11.963Z</time></trkpt><trkpt lat="41.284075" lon="0.753615"><ele>371.8</ele><time>2026-04-19T08:40:12.963Z</time></trkpt><trkpt lat="41.2841567" lon="0.75352"><ele>371.6</ele><time>2026-04-19T08:40:13.963Z</time></trkpt><trkpt lat="41.2842433" lon="0.7534267"><ele>371.40000000000003</ele><time>2026-04-19T08:40:14.963Z</time></trkpt><trkpt lat="41.2843183" lon="0.75335"><ele>371.20000000000005</ele><time>2026-04-19T08:40:15.962Z</time></trkpt><trkpt lat="41.2843833" lon="0.75327"><ele>371.0</ele><time>2026-04-19T08:40:16.962Z</time></trkpt><trkpt lat="41.2844533" lon="0.7531717"><ele>371.0</ele><time>2026-04-19T08:40:17.962Z</time></trkpt><trkpt lat="41.2845167" lon="0.7530717"><ele>371.0</ele><time>2026-04-19T08:40:18.962Z</time></trkpt><trkpt lat="41.2845817" lon="0.7529933"><ele>371.0</ele><time>2026-04-19T08:40:19.963Z</time></trkpt><trkpt lat="41.2846433" lon="0.7529083"><ele>371.0</ele><time>2026-04-19T08:40:20.962Z</time></trkpt><trkpt lat="41.2847117" lon="0.7528267"><ele>371.0</ele><time>2026-04-19T08:40:21.962Z</time></trkpt><trkpt lat="41.28479" lon="0.7527583"><ele>372.20000000000005</ele><time>2026-04-19T08:40:22.962Z</time></trkpt><trkpt lat="41.2848683" lon="0.7526533"><ele>373.40000000000003</ele><time>2026-04-19T08:40:23.962Z</time></trkpt><trkpt lat="41.2849383" lon="0.7525383"><ele>374.6</ele><time>2026-04-19T08:40:24.962Z</time></trkpt><trkpt lat="41.2850033" lon="0.7524267"><ele>375.8</ele><time>2026-04-19T08:40:25.963Z</time></trkpt><trkpt lat="41.2850717" lon="0.752325"><ele>377.0</ele><time>2026-04-19T08:40:26.962Z</time></trkpt><trkpt lat="41.2851483" lon="0.752215"><ele>377.0</ele><time>2026-04-19T08:40:27.962Z</time></trkpt><trkpt lat="41.2852067" lon="0.752105"><ele>377.0</ele><time>2026-04-19T08:40:28.962Z</time></trkpt><trkpt lat="41.2852717" lon="0.7519883"><ele>377.0</ele><time>2026-04-19T08:40:29.963Z</time></trkpt><trkpt lat="41.2853383" lon="0.7518767"><ele>377.0</ele><time>2026-04-19T08:40:30.963Z</time></trkpt><trkpt lat="41.2853933" lon="0.75176"><ele>377.0</ele><time>2026-04-19T08:40:31.962Z</time></trkpt><trkpt lat="41.2854467" lon="0.7516467"><ele>375.6666666666667</ele><time>2026-04-19T08:40:32.963Z</time></trkpt><trkpt lat="41.28551" lon="0.7515483"><ele>374.33333333333337</ele><time>2026-04-19T08:40:33.963Z</time></trkpt><trkpt lat="41.2855583" lon="0.751465"><ele>373.0</ele><time>2026-04-19T08:40:34.962Z</time></trkpt><trkpt lat="41.2856" lon="0.7513717"><ele>371.6666666666667</ele><time>2026-04-19T08:40:35.962Z</time></trkpt><trkpt lat="41.28564" lon="0.7512583"><ele>370.3333333333333</ele><time>2026-04-19T08:40:36.963Z</time></trkpt><trkpt lat="41.2856633" lon="0.7511533"><ele>369.0</ele><time>2026-04-19T08:40:37.963Z</time></trkpt><trkpt lat="41.2856717" lon="0.751045"><ele>373.2</ele><time>2026-04-19T08:40:38.963Z</time></trkpt><trkpt lat="41.2856817" lon="0.7509467"><ele>377.4</ele><time>2026-04-19T08:40:39.963Z</time></trkpt><trkpt lat="41.2857017" lon="0.7507867"><ele>381.6</ele><time>2026-04-19T08:40:41.962Z</time></trkpt><trkpt lat="41.285705" lon="0.7506183"><ele>385.8</ele><time>2026-04-19T08:40:43.963Z</time></trkpt><trkpt lat="41.2857167" lon="0.7505167"><ele>390.0</ele><time>2026-04-19T08:40:44.962Z</time></trkpt><trkpt lat="41.2857283" lon="0.7504133"><ele>390.0</ele><time>2026-04-19T08:40:45.962Z</time></trkpt><trkpt lat="41.2857383" lon="0.7502933"><ele>390.0</ele><time>2026-04-19T08:40:46.962Z</time></trkpt><trkpt lat="41.28573" lon="0.7501583"><ele>390.0</ele><time>2026-04-19T08:40:47.962Z</time></trkpt><trkpt lat="41.2857117" lon="0.75002"><ele>390.0</ele><time>2026-04-19T08:40:48.963Z</time></trkpt><trkpt lat="41.2856967" lon="0.7498883"><ele>390.0</ele><time>2026-04-19T08:40:49.963Z</time></trkpt><trkpt lat="41.2856683" lon="0.74977"><ele>390.8</ele><time>2026-04-19T08:40:50.962Z</time></trkpt><trkpt lat="41.2856433" lon="0.7496467"><ele>391.6</ele><time>2026-04-19T08:40:51.962Z</time></trkpt><trkpt lat="41.2856217" lon="0.749535"><ele>392.4</ele><time>2026-04-19T08:40:52.962Z</time></trkpt><trkpt lat="41.285605" lon="0.749415"><ele>393.2</ele><time>2026-04-19T08:40:53.962Z</time></trkpt><trkpt lat="41.285575" lon="0.74929"><ele>394.0</ele><time>2026-04-19T08:40:54.962Z</time></trkpt><trkpt lat="41.2855383" lon="0.7491633"><ele>388.79999999999995</ele><time>2026-04-19T08:40:55.962Z</time></trkpt><trkpt lat="41.2854883" lon="0.749045"><ele>383.59999999999997</ele><time>2026-04-19T08:40:56.962Z</time></trkpt><trkpt lat="41.2854417" lon="0.74892"><ele>378.4</ele><time>2026-04-19T08:40:57.962Z</time></trkpt><trkpt lat="41.2853933" lon="0.7488033"><ele>373.2</ele><time>2026-04-19T08:40:58.962Z</time></trkpt><trkpt lat="41.2853267" lon="0.748695"><ele>368.0</ele><time>2026-04-19T08:40:59.962Z</time></trkpt><trkpt lat="41.28526" lon="0.748585"><ele>371.59999999999997</ele><time>2026-04-19T08:41:00.962Z</time></trkpt><trkpt lat="41.285195" lon="0.7484883"><ele>375.2</ele><time>2026-04-19T08:41:01.962Z</time></trkpt><trkpt lat="41.285105" lon="0.7483983"><ele>378.8</ele><time>2026-04-19T08:41:02.963Z</time></trkpt><trkpt lat="41.285025" lon="0.74833"><ele>382.4</ele><time>2026-04-19T08:41:03.962Z</time></trkpt><trkpt lat="41.284945" lon="0.74827"><ele>386.0</ele><time>2026-04-19T08:41:04.963Z</time></trkpt><trkpt lat="41.2848567" lon="0.7482083"><ele>386.0</ele><time>2026-04-19T08:41:05.962Z</time></trkpt><trkpt lat="41.28478" lon="0.7481567"><ele>386.0</ele><time>2026-04-19T08:41:06.962Z</time></trkpt><trkpt lat="41.284695" lon="0.748105"><ele>386.0</ele><time>2026-04-19T08:41:07.962Z</time></trkpt><trkpt lat="41.2846033" lon="0.7480433"><ele>386.0</ele><time>2026-04-19T08:41:08.963Z</time></trkpt><trkpt lat="41.2845067" lon="0.7479867"><ele>386.0</ele><time>2026-04-19T08:41:09.962Z</time></trkpt><trkpt lat="41.2844" lon="0.7479433"><ele>381.75</ele><time>2026-04-19T08:41:10.962Z</time></trkpt><trkpt lat="41.28429" lon="0.7479167"><ele>377.5</ele><time>2026-04-19T08:41:11.963Z</time></trkpt><trkpt lat="41.2841683" lon="0.74786"><ele>373.25</ele><time>2026-04-19T08:41:12.962Z</time></trkpt><trkpt lat="41.28406" lon="0.7478133"><ele>369.0</ele><time>2026-04-19T08:41:13.962Z</time></trkpt><trkpt lat="41.2839783" lon="0.7477367"><ele>369.8333333333333</ele><time>2026-04-19T08:41:14.963Z</time></trkpt><trkpt lat="41.283905" lon="0.74767"><ele>370.6666666666667</ele><time>2026-04-19T08:41:15.962Z</time></trkpt><trkpt lat="41.2838583" lon="0.74758"><ele>371.5</ele><time>2026-04-19T08:41:16.962Z</time></trkpt><trkpt lat="41.283815" lon="0.747495"><ele>372.33333333333337</ele><time>2026-04-19T08:41:17.963Z</time></trkpt><trkpt lat="41.2838067" lon="0.7473933"><ele>373.1666666666667</ele><time>2026-04-19T08:41:18.963Z</time></trkpt><trkpt lat="41.28386" lon="0.7473317"><ele>374.0</ele><time>2026-04-19T08:41:19.963Z</time></trkpt><trkpt lat="41.2839333" lon="0.7472967"><ele>374.0</ele><time>2026-04-19T08:41:20.963Z</time></trkpt><trkpt lat="41.2840167" lon="0.7472867"><ele>374.0</ele><time>2026-04-19T08:41:21.962Z</time></trkpt><trkpt lat="41.2841133" lon="0.7472817"><ele>374.0</ele><time>2026-04-19T08:41:22.963Z</time></trkpt><trkpt lat="41.2842183" lon="0.7472717"><ele>374.0</ele><time>2026-04-19T08:41:23.963Z</time></trkpt><trkpt lat="41.2843217" lon="0.7472433"><ele>374.0</ele><time>2026-04-19T08:41:24.963Z</time></trkpt><trkpt lat="41.2844283" lon="0.7471767"><ele>374.0</ele><time>2026-04-19T08:41:25.962Z</time></trkpt><trkpt lat="41.284555" lon="0.747135"><ele>374.0</ele><time>2026-04-19T08:41:26.963Z</time></trkpt><trkpt lat="41.2846733" lon="0.7470767"><ele>374.0</ele><time>2026-04-19T08:41:27.963Z</time></trkpt><trkpt lat="41.2848117" lon="0.7469983"><ele>374.0</ele><time>2026-04-19T08:41:28.963Z</time></trkpt><trkpt lat="41.2849683" lon="0.7469217"><ele>370.75</ele><time>2026-04-19T08:41:29.963Z</time></trkpt><trkpt lat="41.2851" lon="0.7468433"><ele>367.5</ele><time>2026-04-19T08:41:30.962Z</time></trkpt><trkpt lat="41.2852133" lon="0.746745"><ele>364.25</ele><time>2026-04-19T08:41:31.962Z</time></trkpt><trkpt lat="41.2853567" lon="0.7467217"><ele>361.0</ele><time>2026-04-19T08:41:32.962Z</time></trkpt><trkpt lat="41.2854833" lon="0.7466267"><ele>365.75</ele><time>2026-04-19T08:41:33.963Z</time></trkpt><trkpt lat="41.2856017" lon="0.7465317"><ele>370.5</ele><time>2026-04-19T08:41:34.962Z</time></trkpt><trkpt lat="41.2857133" lon="0.746425"><ele>375.25</ele><time>2026-04-19T08:41:35.963Z</time></trkpt><trkpt lat="41.285815" lon="0.7463333"><ele>380.0</ele><time>2026-04-19T08:41:36.963Z</time></trkpt><trkpt lat="41.2859067" lon="0.7462433"><ele>380.0</ele><time>2026-04-19T08:41:37.963Z</time></trkpt><trkpt lat="41.2859983" lon="0.7461633"><ele>380.0</ele><time>2026-04-19T08:41:38.963Z</time></trkpt><trkpt lat="41.2860967" lon="0.7461017"><ele>380.0</ele><time>2026-04-19T08:41:39.962Z</time></trkpt><trkpt lat="41.2861883" lon="0.7460467"><ele>380.0</ele><time>2026-04-19T08:41:40.962Z</time></trkpt><trkpt lat="41.286275" lon="0.7460083"><ele>380.0</ele><time>2026-04-19T08:41:41.962Z</time></trkpt><trkpt lat="41.28635" lon="0.7459833"><ele>380.4</ele><time>2026-04-19T08:41:42.963Z</time></trkpt><trkpt lat="41.2864433" lon="0.7460467"><ele>380.8</ele><time>2026-04-19T08:41:43.963Z</time></trkpt><trkpt lat="41.2865267" lon="0.746075"><ele>381.20000000000005</ele><time>2026-04-19T08:41:44.962Z</time></trkpt><trkpt lat="41.2865967" lon="0.7460833"><ele>381.6</ele><time>2026-04-19T08:41:45.963Z</time></trkpt><trkpt lat="41.2867117" lon="0.7460817"><ele>382.0</ele><time>2026-04-19T08:41:47.962Z</time></trkpt><trkpt lat="41.2867983" lon="0.7459817"><ele>379.66666666666663</ele><time>2026-04-19T08:41:49.962Z</time></trkpt><trkpt lat="41.2868167" lon="0.745895"><ele>377.3333333333333</ele><time>2026-04-19T08:41:50.962Z</time></trkpt><trkpt lat="41.2868133" lon="0.7457883"><ele>375.0</ele><time>2026-04-19T08:41:51.962Z</time></trkpt><trkpt lat="41.2867883" lon="0.7456667"><ele>372.6666666666667</ele><time>2026-04-19T08:41:52.963Z</time></trkpt><trkpt lat="41.2867633" lon="0.745525"><ele>370.33333333333337</ele><time>2026-04-19T08:41:53.962Z</time></trkpt><trkpt lat="41.2867617" lon="0.7453967"><ele>368.0</ele><time>2026-04-19T08:41:54.962Z</time></trkpt><trkpt lat="41.2867733" lon="0.7452833"><ele>368.0</ele><time>2026-04-19T08:41:55.963Z</time></trkpt><trkpt lat="41.286805" lon="0.7451867"><ele>368.0</ele><time>2026-04-19T08:41:56.962Z</time></trkpt><trkpt lat="41.286845" lon="0.7450733"><ele>368.0</ele><time>2026-04-19T08:41:57.962Z</time></trkpt><trkpt lat="41.28689" lon="0.7449483"><ele>368.0</ele><time>2026-04-19T08:41:58.962Z</time></trkpt><trkpt lat="41.2869433" lon="0.7448467"><ele>368.0</ele><time>2026-04-19T08:41:59.963Z</time></trkpt><trkpt lat="41.2869867" lon="0.744715"><ele>368.0</ele><time>2026-04-19T08:42:00.963Z</time></trkpt><trkpt lat="41.2870367" lon="0.744575"><ele>368.0</ele><time>2026-04-19T08:42:01.962Z</time></trkpt><trkpt lat="41.2870817" lon="0.7444367"><ele>368.0</ele><time>2026-04-19T08:42:02.963Z</time></trkpt><trkpt lat="41.28713" lon="0.7442917"><ele>368.0</ele><time>2026-04-19T08:42:03.963Z</time></trkpt><trkpt lat="41.2871633" lon="0.7441267"><ele>366.75</ele><time>2026-04-19T08:42:04.962Z</time></trkpt><trkpt lat="41.2871833" lon="0.7439533"><ele>365.5</ele><time>2026-04-19T08:42:05.962Z</time></trkpt><trkpt lat="41.287195" lon="0.7437767"><ele>364.25</ele><time>2026-04-19T08:42:06.963Z</time></trkpt><trkpt lat="41.2871917" lon="0.7436067"><ele>363.0</ele><time>2026-04-19T08:42:07.963Z</time></trkpt><trkpt lat="41.28719" lon="0.7434567"><ele>362.5</ele><time>2026-04-19T08:42:08.962Z</time></trkpt><trkpt lat="41.28716" lon="0.7432967"><ele>362.0</ele><time>2026-04-19T08:42:09.962Z</time></trkpt><trkpt lat="41.287145" lon="0.74314"><ele>361.5</ele><time>2026-04-19T08:42:10.963Z</time></trkpt><trkpt lat="41.287125" lon="0.7429817"><ele>361.0</ele><time>2026-04-19T08:42:11.962Z</time></trkpt><trkpt lat="41.2871217" lon="0.742825"><ele>361.25</ele><time>2026-04-19T08:42:12.963Z</time></trkpt><trkpt lat="41.28711" lon="0.74266"><ele>361.5</ele><time>2026-04-19T08:42:13.962Z</time></trkpt><trkpt lat="41.2870833" lon="0.7424983"><ele>361.75</ele><time>2026-04-19T08:42:14.963Z</time></trkpt><trkpt lat="41.2870483" lon="0.7423467"><ele>362.0</ele><time>2026-04-19T08:42:15.963Z</time></trkpt><trkpt lat="41.2869983" lon="0.7422017"><ele>362.0</ele><time>2026-04-19T08:42:16.962Z</time></trkpt><trkpt lat="41.2869267" lon="0.7420783"><ele>362.0</ele><time>2026-04-19T08:42:17.963Z</time></trkpt><trkpt lat="41.2868517" lon="0.741965"><ele>362.0</ele><time>2026-04-19T08:42:18.963Z</time></trkpt><trkpt lat="41.2867833" lon="0.7418483"><ele>362.0</ele><time>2026-04-19T08:42:19.963Z</time></trkpt><trkpt lat="41.28673" lon="0.741725"><ele>362.0</ele><time>2026-04-19T08:42:20.962Z</time></trkpt><trkpt lat="41.286685" lon="0.7415783"><ele>365.20000000000005</ele><time>2026-04-19T08:42:21.962Z</time></trkpt><trkpt lat="41.2866367" lon="0.741445"><ele>368.4</ele><time>2026-04-19T08:42:22.963Z</time></trkpt><trkpt lat="41.286575" lon="0.7413167"><ele>371.6</ele><time>2026-04-19T08:42:23.962Z</time></trkpt><trkpt lat="41.286505" lon="0.7412067"><ele>374.79999999999995</ele><time>2026-04-19T08:42:24.962Z</time></trkpt><trkpt lat="41.28643" lon="0.741105"><ele>378.0</ele><time>2026-04-19T08:42:25.963Z</time></trkpt><trkpt lat="41.2863433" lon="0.7410167"><ele>379.25</ele><time>2026-04-19T08:42:26.962Z</time></trkpt><trkpt lat="41.286255" lon="0.7409117"><ele>380.5</ele><time>2026-04-19T08:42:27.962Z</time></trkpt><trkpt lat="41.2861667" lon="0.7408267"><ele>381.75</ele><time>2026-04-19T08:42:28.963Z</time></trkpt><trkpt lat="41.286065" lon="0.7407617"><ele>383.0</ele><time>2026-04-19T08:42:29.963Z</time></trkpt><trkpt lat="41.28595" lon="0.7406933"><ele>383.0</ele><time>2026-04-19T08:42:30.963Z</time></trkpt><trkpt lat="41.285825" lon="0.7406583"><ele>383.0</ele><time>2026-04-19T08:42:31.963Z</time></trkpt><trkpt lat="41.2856967" lon="0.74065"><ele>383.0</ele><time>2026-04-19T08:42:32.963Z</time></trkpt><trkpt lat="41.2855817" lon="0.74063"><ele>383.0</ele><time>2026-04-19T08:42:33.963Z</time></trkpt><trkpt lat="41.28547" lon="0.7406133"><ele>380.59999999999997</ele><time>2026-04-19T08:42:34.963Z</time></trkpt><trkpt lat="41.2853617" lon="0.740585"><ele>378.2</ele><time>2026-04-19T08:42:35.962Z</time></trkpt><trkpt lat="41.2852583" lon="0.7405583"><ele>375.8</ele><time>2026-04-19T08:42:36.962Z</time></trkpt><trkpt lat="41.2851633" lon="0.7405283"><ele>373.4</ele><time>2026-04-19T08:42:37.962Z</time></trkpt><trkpt lat="41.2850833" lon="0.7404967"><ele>371.0</ele><time>2026-04-19T08:42:38.963Z</time></trkpt><trkpt lat="41.2849867" lon="0.74047"><ele>371.0</ele><time>2026-04-19T08:42:39.962Z</time></trkpt><trkpt lat="41.2848817" lon="0.7404733"><ele>371.0</ele><time>2026-04-19T08:42:40.962Z</time></trkpt><trkpt lat="41.284775" lon="0.7404817"><ele>371.0</ele><time>2026-04-19T08:42:41.962Z</time></trkpt><trkpt lat="41.2846567" lon="0.7405"><ele>371.0</ele><time>2026-04-19T08:42:42.962Z</time></trkpt><trkpt lat="41.2845367" lon="0.7405183"><ele>370.8</ele><time>2026-04-19T08:42:43.963Z</time></trkpt><trkpt lat="41.2844267" lon="0.740535"><ele>370.6</ele><time>2026-04-19T08:42:44.962Z</time></trkpt><trkpt lat="41.284315" lon="0.740545"><ele>370.4</ele><time>2026-04-19T08:42:45.962Z</time></trkpt><trkpt lat="41.2842017" lon="0.7405533"><ele>370.2</ele><time>2026-04-19T08:42:46.962Z</time></trkpt><trkpt lat="41.2841017" lon="0.740575"><ele>370.0</ele><time>2026-04-19T08:42:47.962Z</time></trkpt><trkpt lat="41.28399" lon="0.74059"><ele>365.75</ele><time>2026-04-19T08:42:48.963Z</time></trkpt><trkpt lat="41.2838717" lon="0.74059"><ele>361.5</ele><time>2026-04-19T08:42:49.963Z</time></trkpt><trkpt lat="41.28376" lon="0.7405533"><ele>357.25</ele><time>2026-04-19T08:42:50.962Z</time></trkpt><trkpt lat="41.2836617" lon="0.7404867"><ele>353.0</ele><time>2026-04-19T08:42:51.963Z</time></trkpt><trkpt lat="41.2835733" lon="0.7403917"><ele>353.0</ele><time>2026-04-19T08:42:52.963Z</time></trkpt><trkpt lat="41.2834883" lon="0.74031"><ele>353.0</ele><time>2026-04-19T08:42:53.962Z</time></trkpt><trkpt lat="41.2834167" lon="0.7402083"><ele>353.0</ele><time>2026-04-19T08:42:54.962Z</time></trkpt><trkpt lat="41.28334" lon="0.7401067"><ele>353.0</ele><time>2026-04-19T08:42:55.962Z</time></trkpt><trkpt lat="41.283285" lon="0.73999"><ele>353.0</ele><time>2026-04-19T08:42:56.962Z</time></trkpt><trkpt lat="41.2832433" lon="0.7398717"><ele>355.79999999999995</ele><time>2026-04-19T08:42:57.963Z</time></trkpt><trkpt lat="41.283215" lon="0.73975"><ele>358.6</ele><time>2026-04-19T08:42:58.963Z</time></trkpt><trkpt lat="41.28321" lon="0.7396183"><ele>361.4</ele><time>2026-04-19T08:42:59.962Z</time></trkpt><trkpt lat="41.2832333" lon="0.739495"><ele>364.20000000000005</ele><time>2026-04-19T08:43:00.962Z</time></trkpt><trkpt lat="41.2832467" lon="0.7393567"><ele>367.0</ele><time>2026-04-19T08:43:01.963Z</time></trkpt><trkpt lat="41.28325" lon="0.7392167"><ele>367.0</ele><time>2026-04-19T08:43:02.962Z</time></trkpt><trkpt lat="41.28324" lon="0.7390517"><ele>367.0</ele><time>2026-04-19T08:43:03.962Z</time></trkpt><trkpt lat="41.2832317" lon="0.738885"><ele>367.0</ele><time>2026-04-19T08:43:04.962Z</time></trkpt><trkpt lat="41.2832183" lon="0.7387"><ele>367.0</ele><time>2026-04-19T08:43:05.962Z</time></trkpt><trkpt lat="41.28321" lon="0.7385183"><ele>367.0</ele><time>2026-04-19T08:43:06.963Z</time></trkpt><trkpt lat="41.2831967" lon="0.7383417"><ele>367.0</ele><time>2026-04-19T08:43:07.963Z</time></trkpt><trkpt lat="41.2831817" lon="0.73816"><ele>367.0</ele><time>2026-04-19T08:43:08.962Z</time></trkpt><trkpt lat="41.28317" lon="0.7379717"><ele>367.0</ele><time>2026-04-19T08:43:09.963Z</time></trkpt><trkpt lat="41.2831467" lon="0.7377833"><ele>366.25</ele><time>2026-04-19T08:43:10.962Z</time></trkpt><trkpt lat="41.2831217" lon="0.7375967"><ele>365.5</ele><time>2026-04-19T08:43:11.963Z</time></trkpt><trkpt lat="41.28309" lon="0.7374333"><ele>364.75</ele><time>2026-04-19T08:43:12.962Z</time></trkpt><trkpt lat="41.2830583" lon="0.7372667"><ele>364.0</ele><time>2026-04-19T08:43:13.962Z</time></trkpt><trkpt lat="41.28302" lon="0.7371067"><ele>359.5</ele><time>2026-04-19T08:43:14.962Z</time></trkpt><trkpt lat="41.2829817" lon="0.7369483"><ele>355.0</ele><time>2026-04-19T08:43:15.962Z</time></trkpt><trkpt lat="41.2829517" lon="0.736785"><ele>350.5</ele><time>2026-04-19T08:43:16.963Z</time></trkpt><trkpt lat="41.2829317" lon="0.7366167"><ele>346.0</ele><time>2026-04-19T08:43:17.962Z</time></trkpt><trkpt lat="41.282925" lon="0.73643"><ele>345.75</ele><time>2026-04-19T08:43:18.963Z</time></trkpt><trkpt lat="41.2829217" lon="0.73626"><ele>345.5</ele><time>2026-04-19T08:43:19.963Z</time></trkpt><trkpt lat="41.2829217" lon="0.7360767"><ele>345.25</ele><time>2026-04-19T08:43:20.963Z</time></trkpt><trkpt lat="41.2829167" lon="0.7359167"><ele>345.0</ele><time>2026-04-19T08:43:21.963Z</time></trkpt><trkpt lat="41.282905" lon="0.735765"><ele>344.5</ele><time>2026-04-19T08:43:22.963Z</time></trkpt><trkpt lat="41.2828817" lon="0.7356167"><ele>344.0</ele><time>2026-04-19T08:43:23.962Z</time></trkpt><trkpt lat="41.282845" lon="0.73546"><ele>343.5</ele><time>2026-04-19T08:43:24.963Z</time></trkpt><trkpt lat="41.2827967" lon="0.7353067"><ele>343.0</ele><time>2026-04-19T08:43:25.962Z</time></trkpt><trkpt lat="41.2827517" lon="0.73515"><ele>344.75</ele><time>2026-04-19T08:43:26.962Z</time></trkpt><trkpt lat="41.2827067" lon="0.7349967"><ele>346.5</ele><time>2026-04-19T08:43:27.962Z</time></trkpt><trkpt lat="41.2826533" lon="0.7348517"><ele>348.25</ele><time>2026-04-19T08:43:28.962Z</time></trkpt><trkpt lat="41.2826017" lon="0.7347083"><ele>350.0</ele><time>2026-04-19T08:43:29.963Z</time></trkpt><trkpt lat="41.2825533" lon="0.7345783"><ele>350.0</ele><time>2026-04-19T08:43:30.962Z</time></trkpt><trkpt lat="41.282505" lon="0.7344367"><ele>350.0</ele><time>2026-04-19T08:43:31.963Z</time></trkpt><trkpt lat="41.2824633" lon="0.734295"><ele>350.0</ele><time>2026-04-19T08:43:32.962Z</time></trkpt><trkpt lat="41.282425" lon="0.7341617"><ele>350.0</ele><time>2026-04-19T08:43:33.962Z</time></trkpt><trkpt lat="41.28238" lon="0.7340183"><ele>347.5</ele><time>2026-04-19T08:43:34.963Z</time></trkpt><trkpt lat="41.282315" lon="0.7338883"><ele>345.0</ele><time>2026-04-19T08:43:35.963Z</time></trkpt><trkpt lat="41.2822383" lon="0.7337583"><ele>342.5</ele><time>2026-04-19T08:43:36.962Z</time></trkpt><trkpt lat="41.282145" lon="0.7336467"><ele>340.0</ele><time>2026-04-19T08:43:37.962Z</time></trkpt><trkpt lat="41.2820483" lon="0.73354"><ele>344.8</ele><time>2026-04-19T08:43:38.962Z</time></trkpt><trkpt lat="41.281955" lon="0.7334517"><ele>349.6</ele><time>2026-04-19T08:43:39.963Z</time></trkpt><trkpt lat="41.2818517" lon="0.73341"><ele>354.4</ele><time>2026-04-19T08:43:40.962Z</time></trkpt><trkpt lat="41.2817417" lon="0.733405"><ele>359.2</ele><time>2026-04-19T08:43:41.962Z</time></trkpt><trkpt lat="41.2816333" lon="0.7333867"><ele>364.0</ele><time>2026-04-19T08:43:42.963Z</time></trkpt><trkpt lat="41.281525" lon="0.733375"><ele>364.2</ele><time>2026-04-19T08:43:43.962Z</time></trkpt><trkpt lat="41.28142" lon="0.7333583"><ele>364.4</ele><time>2026-04-19T08:43:44.963Z</time></trkpt><trkpt lat="41.2813167" lon="0.7333383"><ele>364.6</ele><time>2026-04-19T08:43:45.962Z</time></trkpt><trkpt lat="41.28121" lon="0.7333233"><ele>364.8</ele><time>2026-04-19T08:43:46.963Z</time></trkpt><trkpt lat="41.2811017" lon="0.7333167"><ele>365.0</ele><time>2026-04-19T08:43:47.962Z</time></trkpt><trkpt lat="41.2809867" lon="0.73334"><ele>365.0</ele><time>2026-04-19T08:43:48.963Z</time></trkpt><trkpt lat="41.2808667" lon="0.7333817"><ele>365.0</ele><time>2026-04-19T08:43:49.962Z</time></trkpt><trkpt lat="41.2807517" lon="0.7334233"><ele>365.0</ele><time>2026-04-19T08:43:50.962Z</time></trkpt><trkpt lat="41.2806333" lon="0.7334717"><ele>365.0</ele><time>2026-04-19T08:43:51.963Z</time></trkpt><trkpt lat="41.28052" lon="0.7335183"><ele>360.75</ele><time>2026-04-19T08:43:52.962Z</time></trkpt><trkpt lat="41.280405" lon="0.7335667"><ele>356.5</ele><time>2026-04-19T08:43:53.962Z</time></trkpt><trkpt lat="41.2802983" lon="0.7336167"><ele>352.25</ele><time>2026-04-19T08:43:54.963Z</time></trkpt><trkpt lat="41.2801983" lon="0.7336667"><ele>348.0</ele><time>2026-04-19T08:43:55.963Z</time></trkpt><trkpt lat="41.2800967" lon="0.7337233"><ele>348.0</ele><time>2026-04-19T08:43:56.962Z</time></trkpt><trkpt lat="41.2799833" lon="0.733765"><ele>348.0</ele><time>2026-04-19T08:43:57.962Z</time></trkpt><trkpt lat="41.2798667" lon="0.7337983"><ele>348.0</ele><time>2026-04-19T08:43:58.963Z</time></trkpt><trkpt lat="41.2797417" lon="0.7338083"><ele>348.0</ele><time>2026-04-19T08:43:59.963Z</time></trkpt><trkpt lat="41.279625" lon="0.7338"><ele>348.79999999999995</ele><time>2026-04-19T08:44:00.962Z</time></trkpt><trkpt lat="41.279515" lon="0.7337917"><ele>349.6</ele><time>2026-04-19T08:44:01.962Z</time></trkpt><trkpt lat="41.279405" lon="0.7337883"><ele>350.4</ele><time>2026-04-19T08:44:02.963Z</time></trkpt><trkpt lat="41.279295" lon="0.7337867"><ele>351.20000000000005</ele><time>2026-04-19T08:44:03.962Z</time></trkpt><trkpt lat="41.2791917" lon="0.7337883"><ele>352.0</ele><time>2026-04-19T08:44:04.962Z</time></trkpt><trkpt lat="41.279085" lon="0.7338"><ele>352.0</ele><time>2026-04-19T08:44:05.962Z</time></trkpt><trkpt lat="41.2789717" lon="0.7337917"><ele>352.0</ele><time>2026-04-19T08:44:06.962Z</time></trkpt><trkpt lat="41.2788617" lon="0.73377"><ele>352.0</ele><time>2026-04-19T08:44:07.962Z</time></trkpt><trkpt lat="41.2787533" lon="0.73375"><ele>352.0</ele><time>2026-04-19T08:44:08.963Z</time></trkpt><trkpt lat="41.2786517" lon="0.7337233"><ele>352.0</ele><time>2026-04-19T08:44:09.963Z</time></trkpt><trkpt lat="41.2785483" lon="0.7336933"><ele>352.8</ele><time>2026-04-19T08:44:10.962Z</time></trkpt><trkpt lat="41.2784533" lon="0.7336433"><ele>353.6</ele><time>2026-04-19T08:44:11.963Z</time></trkpt><trkpt lat="41.2783667" lon="0.733565"><ele>354.40000000000003</ele><time>2026-04-19T08:44:12.963Z</time></trkpt><trkpt lat="41.278285" lon="0.7334533"><ele>355.20000000000005</ele><time>2026-04-19T08:44:13.962Z</time></trkpt><trkpt lat="41.278215" lon="0.7333233"><ele>356.0</ele><time>2026-04-19T08:44:14.962Z</time></trkpt><trkpt lat="41.2781583" lon="0.7332"><ele>353.6</ele><time>2026-04-19T08:44:15.962Z</time></trkpt><trkpt lat="41.2781" lon="0.7330867"><ele>351.20000000000005</ele><time>2026-04-19T08:44:16.963Z</time></trkpt><trkpt lat="41.2780517" lon="0.7329717"><ele>348.79999999999995</ele><time>2026-04-19T08:44:17.963Z</time></trkpt><trkpt lat="41.278015" lon="0.7328467"><ele>346.4</ele><time>2026-04-19T08:44:18.962Z</time></trkpt><trkpt lat="41.2779933" lon="0.7327033"><ele>344.0</ele><time>2026-04-19T08:44:19.963Z</time></trkpt><trkpt lat="41.278" lon="0.7325567"><ele>343.75</ele><time>2026-04-19T08:44:20.962Z</time></trkpt><trkpt lat="41.2780267" lon="0.7323983"><ele>343.5</ele><time>2026-04-19T08:44:21.962Z</time></trkpt><trkpt lat="41.2780733" lon="0.7322467"><ele>343.25</ele><time>2026-04-19T08:44:22.962Z</time></trkpt><trkpt lat="41.2781517" lon="0.7321083"><ele>343.0</ele><time>2026-04-19T08:44:23.963Z</time></trkpt><trkpt lat="41.2782317" lon="0.73197"><ele>343.75</ele><time>2026-04-19T08:44:24.963Z</time></trkpt><trkpt lat="41.27833" lon="0.731845"><ele>344.5</ele><time>2026-04-19T08:44:25.963Z</time></trkpt><trkpt lat="41.278455" lon="0.73175"><ele>345.25</ele><time>2026-04-19T08:44:26.963Z</time></trkpt><trkpt lat="41.27859" lon="0.7316633"><ele>346.0</ele><time>2026-04-19T08:44:27.962Z</time></trkpt><trkpt lat="41.2787067" lon="0.7315667"><ele>346.0</ele><time>2026-04-19T08:44:28.962Z</time></trkpt><trkpt lat="41.2788133" lon="0.7314683"><ele>346.0</ele><time>2026-04-19T08:44:29.962Z</time></trkpt><trkpt lat="41.27891" lon="0.7313583"><ele>346.0</ele><time>2026-04-19T08:44:30.962Z</time></trkpt><trkpt lat="41.2790017" lon="0.73124"><ele>346.0</ele><time>2026-04-19T08:44:31.962Z</time></trkpt><trkpt lat="41.2790867" lon="0.73111"><ele>346.5</ele><time>2026-04-19T08:44:32.963Z</time></trkpt><trkpt lat="41.2791683" lon="0.7309667"><ele>347.0</ele><time>2026-04-19T08:44:33.962Z</time></trkpt><trkpt lat="41.279245" lon="0.7308167"><ele>347.5</ele><time>2026-04-19T08:44:34.963Z</time></trkpt><trkpt lat="41.27932" lon="0.73067"><ele>348.0</ele><time>2026-04-19T08:44:35.962Z</time></trkpt><trkpt lat="41.2793917" lon="0.7305267"><ele>348.0</ele><time>2026-04-19T08:44:36.962Z</time></trkpt><trkpt lat="41.2794617" lon="0.7303883"><ele>348.0</ele><time>2026-04-19T08:44:37.963Z</time></trkpt><trkpt lat="41.2795333" lon="0.7302467"><ele>348.0</ele><time>2026-04-19T08:44:38.963Z</time></trkpt><trkpt lat="41.279605" lon="0.73011"><ele>348.0</ele><time>2026-04-19T08:44:39.962Z</time></trkpt><trkpt lat="41.279675" lon="0.72998"><ele>349.5</ele><time>2026-04-19T08:44:40.962Z</time></trkpt><trkpt lat="41.27974" lon="0.729855"><ele>351.0</ele><time>2026-04-19T08:44:41.963Z</time></trkpt><trkpt lat="41.2798033" lon="0.7297317"><ele>352.5</ele><time>2026-04-19T08:44:42.963Z</time></trkpt><trkpt lat="41.2798733" lon="0.7296117"><ele>354.0</ele><time>2026-04-19T08:44:43.962Z</time></trkpt><trkpt lat="41.279945" lon="0.7294967"><ele>352.0</ele><time>2026-04-19T08:44:44.962Z</time></trkpt><trkpt lat="41.2800217" lon="0.7293867"><ele>350.0</ele><time>2026-04-19T08:44:45.962Z</time></trkpt><trkpt lat="41.2800967" lon="0.7292783"><ele>348.0</ele><time>2026-04-19T08:44:46.962Z</time></trkpt><trkpt lat="41.2801733" lon="0.7291683"><ele>346.0</ele><time>2026-04-19T08:44:47.963Z</time></trkpt><trkpt lat="41.2802517" lon="0.7290683"><ele>344.0</ele><time>2026-04-19T08:44:48.962Z</time></trkpt><trkpt lat="41.2803317" lon="0.7289517"><ele>344.0</ele><time>2026-04-19T08:44:49.963Z</time></trkpt><trkpt lat="41.2804033" lon="0.7288317"><ele>344.0</ele><time>2026-04-19T08:44:50.963Z</time></trkpt><trkpt lat="41.2804683" lon="0.728715"><ele>344.0</ele><time>2026-04-19T08:44:51.963Z</time></trkpt><trkpt lat="41.2805233" lon="0.72859"><ele>344.0</ele><time>2026-04-19T08:44:52.963Z</time></trkpt><trkpt lat="41.28055" lon="0.7284533"><ele>344.0</ele><time>2026-04-19T08:44:53.963Z</time></trkpt><trkpt lat="41.2805533" lon="0.72829"><ele>342.5</ele><time>2026-04-19T08:44:54.963Z</time></trkpt><trkpt lat="41.2805433" lon="0.7281317"><ele>341.0</ele><time>2026-04-19T08:44:55.963Z</time></trkpt><trkpt lat="41.28053" lon="0.7279733"><ele>339.5</ele><time>2026-04-19T08:44:56.963Z</time></trkpt><trkpt lat="41.2805283" lon="0.7278083"><ele>338.0</ele><time>2026-04-19T08:44:57.962Z</time></trkpt><trkpt lat="41.2805333" lon="0.7276483"><ele>337.5</ele><time>2026-04-19T08:44:58.962Z</time></trkpt><trkpt lat="41.2805333" lon="0.7274733"><ele>337.0</ele><time>2026-04-19T08:44:59.962Z</time></trkpt><trkpt lat="41.2805317" lon="0.7272967"><ele>336.5</ele><time>2026-04-19T08:45:00.963Z</time></trkpt><trkpt lat="41.2805317" lon="0.7271117"><ele>336.0</ele><time>2026-04-19T08:45:01.962Z</time></trkpt><trkpt lat="41.2805317" lon="0.726925"><ele>335.5</ele><time>2026-04-19T08:45:02.962Z</time></trkpt><trkpt lat="41.28053" lon="0.72674"><ele>335.0</ele><time>2026-04-19T08:45:03.962Z</time></trkpt><trkpt lat="41.2805333" lon="0.7265717"><ele>334.5</ele><time>2026-04-19T08:45:04.963Z</time></trkpt><trkpt lat="41.2805317" lon="0.7264083"><ele>334.0</ele><time>2026-04-19T08:45:05.962Z</time></trkpt><trkpt lat="41.280535" lon="0.7262683"><ele>334.0</ele><time>2026-04-19T08:45:06.962Z</time></trkpt><trkpt lat="41.28054" lon="0.7261233"><ele>334.0</ele><time>2026-04-19T08:45:07.962Z</time></trkpt><trkpt lat="41.2805483" lon="0.725975"><ele>334.0</ele><time>2026-04-19T08:45:08.962Z</time></trkpt><trkpt lat="41.2805533" lon="0.7258267"><ele>334.0</ele><time>2026-04-19T08:45:09.963Z</time></trkpt><trkpt lat="41.280545" lon="0.7256883"><ele>334.0</ele><time>2026-04-19T08:45:10.963Z</time></trkpt><trkpt lat="41.2805433" lon="0.7255317"><ele>334.2</ele><time>2026-04-19T08:45:11.962Z</time></trkpt><trkpt lat="41.2805383" lon="0.7253867"><ele>334.4</ele><time>2026-04-19T08:45:12.963Z</time></trkpt><trkpt lat="41.2805317" lon="0.725255"><ele>334.6</ele><time>2026-04-19T08:45:13.963Z</time></trkpt><trkpt lat="41.2805183" lon="0.7251267"><ele>334.8</ele><time>2026-04-19T08:45:14.963Z</time></trkpt><trkpt lat="41.2805083" lon="0.725"><ele>335.0</ele><time>2026-04-19T08:45:15.962Z</time></trkpt><trkpt lat="41.280495" lon="0.7248867"><ele>335.6</ele><time>2026-04-19T08:45:16.962Z</time></trkpt><trkpt lat="41.2804733" lon="0.72477"><ele>336.2</ele><time>2026-04-19T08:45:17.963Z</time></trkpt><trkpt lat="41.280445" lon="0.7246533"><ele>336.79999999999995</ele><time>2026-04-19T08:45:18.962Z</time></trkpt><trkpt lat="41.2804067" lon="0.72454"><ele>337.4</ele><time>2026-04-19T08:45:19.963Z</time></trkpt><trkpt lat="41.2803617" lon="0.7244267"><ele>338.0</ele><time>2026-04-19T08:45:20.963Z</time></trkpt><trkpt lat="41.28032" lon="0.72432"><ele>339.83333333333337</ele><time>2026-04-19T08:45:21.962Z</time></trkpt><trkpt lat="41.2802833" lon="0.7242283"><ele>341.6666666666667</ele><time>2026-04-19T08:45:22.963Z</time></trkpt><trkpt lat="41.280245" lon="0.7241383"><ele>343.5</ele><time>2026-04-19T08:45:23.963Z</time></trkpt><trkpt lat="41.28021" lon="0.7240483"><ele>345.3333333333333</ele><time>2026-04-19T08:45:24.963Z</time></trkpt><trkpt lat="41.2801717" lon="0.723955"><ele>347.16666666666663</ele><time>2026-04-19T08:45:25.963Z</time></trkpt><trkpt lat="41.2801233" lon="0.7238533"><ele>349.0</ele><time>2026-04-19T08:45:26.963Z</time></trkpt><trkpt lat="41.2800667" lon="0.7237567"><ele>349.0</ele><time>2026-04-19T08:45:27.962Z</time></trkpt><trkpt lat="41.2800067" lon="0.7236633"><ele>349.0</ele><time>2026-04-19T08:45:28.962Z</time></trkpt><trkpt lat="41.2799367" lon="0.72358"><ele>349.0</ele><time>2026-04-19T08:45:29.962Z</time></trkpt><trkpt lat="41.2798633" lon="0.723505"><ele>349.0</ele><time>2026-04-19T08:45:30.962Z</time></trkpt><trkpt lat="41.2797983" lon="0.7234333"><ele>349.0</ele><time>2026-04-19T08:45:31.962Z</time></trkpt><trkpt lat="41.279725" lon="0.7233567"><ele>347.3333333333333</ele><time>2026-04-19T08:45:32.963Z</time></trkpt><trkpt lat="41.2796533" lon="0.72328"><ele>345.66666666666663</ele><time>2026-04-19T08:45:33.962Z</time></trkpt><trkpt lat="41.2795883" lon="0.7232117"><ele>344.0</ele><time>2026-04-19T08:45:34.962Z</time></trkpt><trkpt lat="41.27953" lon="0.72315"><ele>342.3333333333333</ele><time>2026-04-19T08:45:35.962Z</time></trkpt><trkpt lat="41.2794733" lon="0.7230967"><ele>340.6666666666667</ele><time>2026-04-19T08:45:36.962Z</time></trkpt><trkpt lat="41.2794217" lon="0.7230433"><ele>339.0</ele><time>2026-04-19T08:45:37.962Z</time></trkpt><trkpt lat="41.2793667" lon="0.7229883"><ele>339.0</ele><time>2026-04-19T08:45:38.962Z</time></trkpt><trkpt lat="41.2793167" lon="0.7229317"><ele>339.0</ele><time>2026-04-19T08:45:39.962Z</time></trkpt><trkpt lat="41.2792633" lon="0.7228667"><ele>339.0</ele><time>2026-04-19T08:45:40.963Z</time></trkpt><trkpt lat="41.2792033" lon="0.7228"><ele>339.0</ele><time>2026-04-19T08:45:41.962Z</time></trkpt><trkpt lat="41.2791383" lon="0.72273"><ele>339.0</ele><time>2026-04-19T08:45:42.963Z</time></trkpt><trkpt lat="41.2790783" lon="0.7226717"><ele>339.0</ele><time>2026-04-19T08:45:43.963Z</time></trkpt><trkpt lat="41.2790183" lon="0.7226083"><ele>341.2</ele><time>2026-04-19T08:45:44.962Z</time></trkpt><trkpt lat="41.2789417" lon="0.72247"><ele>343.4</ele><time>2026-04-19T08:45:46.962Z</time></trkpt><trkpt lat="41.2789483" lon="0.7223183"><ele>345.6</ele><time>2026-04-19T08:45:48.962Z</time></trkpt><trkpt lat="41.278985" lon="0.72223"><ele>347.8</ele><time>2026-04-19T08:45:49.963Z</time></trkpt><trkpt lat="41.2790517" lon="0.7221967"><ele>350.0</ele><time>2026-04-19T08:45:50.962Z</time></trkpt><trkpt lat="41.2791217" lon="0.72218"><ele>350.0</ele><time>2026-04-19T08:45:51.963Z</time></trkpt><trkpt lat="41.2791983" lon="0.7221717"><ele>350.0</ele><time>2026-04-19T08:45:52.962Z</time></trkpt><trkpt lat="41.2792717" lon="0.7221583"><ele>350.0</ele><time>2026-04-19T08:45:53.963Z</time></trkpt><trkpt lat="41.2793517" lon="0.7221417"><ele>350.0</ele><time>2026-04-19T08:45:54.963Z</time></trkpt><trkpt lat="41.279425" lon="0.7221167"><ele>350.0</ele><time>2026-04-19T08:45:55.962Z</time></trkpt><trkpt lat="41.27949" lon="0.7220983"><ele>350.0</ele><time>2026-04-19T08:45:56.962Z</time></trkpt><trkpt lat="41.2795717" lon="0.7220817"><ele>350.0</ele><time>2026-04-19T08:45:58.963Z</time></trkpt><trkpt lat="41.2796667" lon="0.7220467"><ele>350.0</ele><time>2026-04-19T08:46:01.963Z</time></trkpt><trkpt lat="41.2797517" lon="0.72198"><ele>350.0</ele><time>2026-04-19T08:46:03.962Z</time></trkpt><trkpt lat="41.2798333" lon="0.7218433"><ele>350.0</ele><time>2026-04-19T08:46:05.963Z</time></trkpt><trkpt lat="41.27988" lon="0.721755"><ele>350.0</ele><time>2026-04-19T08:46:06.962Z</time></trkpt><trkpt lat="41.2799233" lon="0.72168"><ele>351.57142857142856</ele><time>2026-04-19T08:46:07.963Z</time></trkpt><trkpt lat="41.2799683" lon="0.7215883"><ele>353.1428571428571</ele><time>2026-04-19T08:46:08.962Z</time></trkpt><trkpt lat="41.2800117" lon="0.7215"><ele>354.7142857142857</ele><time>2026-04-19T08:46:09.963Z</time></trkpt><trkpt lat="41.2800517" lon="0.721425"><ele>356.2857142857143</ele><time>2026-04-19T08:46:10.963Z</time></trkpt><trkpt lat="41.2800917" lon="0.7213533"><ele>357.85714285714283</ele><time>2026-04-19T08:46:11.962Z</time></trkpt><trkpt lat="41.2801333" lon="0.721275"><ele>359.42857142857144</ele><time>2026-04-19T08:46:12.963Z</time></trkpt><trkpt lat="41.2801733" lon="0.7212"><ele>361.0</ele><time>2026-04-19T08:46:13.962Z</time></trkpt><trkpt lat="41.2802183" lon="0.721115"><ele>359.3333333333333</ele><time>2026-04-19T08:46:14.962Z</time></trkpt><trkpt lat="41.28025" lon="0.7210067"><ele>357.66666666666663</ele><time>2026-04-19T08:46:15.962Z</time></trkpt><trkpt lat="41.2802833" lon="0.7208967"><ele>356.0</ele><time>2026-04-19T08:46:16.963Z</time></trkpt><trkpt lat="41.2803133" lon="0.7207933"><ele>354.3333333333333</ele><time>2026-04-19T08:46:17.962Z</time></trkpt><trkpt lat="41.2803383" lon="0.7206933"><ele>352.6666666666667</ele><time>2026-04-19T08:46:18.962Z</time></trkpt><trkpt lat="41.280365" lon="0.7205933"><ele>351.0</ele><time>2026-04-19T08:46:19.962Z</time></trkpt><trkpt lat="41.280395" lon="0.7204767"><ele>351.0</ele><time>2026-04-19T08:46:20.963Z</time></trkpt><trkpt lat="41.2804283" lon="0.7203533"><ele>351.0</ele><time>2026-04-19T08:46:21.962Z</time></trkpt><trkpt lat="41.2804733" lon="0.7202417"><ele>351.0</ele><time>2026-04-19T08:46:22.963Z</time></trkpt><trkpt lat="41.2805283" lon="0.7201617"><ele>351.0</ele><time>2026-04-19T08:46:23.962Z</time></trkpt><trkpt lat="41.2805917" lon="0.72011"><ele>351.0</ele><time>2026-04-19T08:46:24.963Z</time></trkpt><trkpt lat="41.2806617" lon="0.720095"><ele>351.0</ele><time>2026-04-19T08:46:25.963Z</time></trkpt><trkpt lat="41.280755" lon="0.720125"><ele>351.5</ele><time>2026-04-19T08:46:26.962Z</time></trkpt><trkpt lat="41.2808467" lon="0.720185"><ele>352.0</ele><time>2026-04-19T08:46:27.962Z</time></trkpt><trkpt lat="41.28098" lon="0.7203033"><ele>352.5</ele><time>2026-04-19T08:46:29.962Z</time></trkpt><trkpt lat="41.28107" lon="0.7203567"><ele>353.0</ele><time>2026-04-19T08:46:30.963Z</time></trkpt><trkpt lat="41.28116" lon="0.72043"><ele>355.4</ele><time>2026-04-19T08:46:31.962Z</time></trkpt><trkpt lat="41.2812517" lon="0.720485"><ele>357.79999999999995</ele><time>2026-04-19T08:46:32.962Z</time></trkpt><trkpt lat="41.28136" lon="0.7205317"><ele>360.2</ele><time>2026-04-19T08:46:33.963Z</time></trkpt><trkpt lat="41.2814717" lon="0.7205667"><ele>362.6</ele><time>2026-04-19T08:46:34.963Z</time></trkpt><trkpt lat="41.2815883" lon="0.7205933"><ele>365.0</ele><time>2026-04-19T08:46:35.961Z</time></trkpt><trkpt lat="41.2816917" lon="0.7206183"><ele>366.2</ele><time>2026-04-19T08:46:36.962Z</time></trkpt><trkpt lat="41.281795" lon="0.72064"><ele>367.4</ele><time>2026-04-19T08:46:37.963Z</time></trkpt><trkpt lat="41.28189" lon="0.72065"><ele>368.6</ele><time>2026-04-19T08:46:38.962Z</time></trkpt><trkpt lat="41.2819833" lon="0.720675"><ele>369.8</ele><time>2026-04-19T08:46:39.962Z</time></trkpt><trkpt lat="41.2820683" lon="0.72069"><ele>371.0</ele><time>2026-04-19T08:46:40.963Z</time></trkpt><trkpt lat="41.282155" lon="0.7206983"><ele>371.0</ele><time>2026-04-19T08:46:41.963Z</time></trkpt><trkpt lat="41.28224" lon="0.7207083"><ele>371.0</ele><time>2026-04-19T08:46:42.962Z</time></trkpt><trkpt lat="41.2823267" lon="0.7207217"><ele>371.0</ele><time>2026-04-19T08:46:43.963Z</time></trkpt><trkpt lat="41.2824067" lon="0.7207483"><ele>371.0</ele><time>2026-04-19T08:46:44.962Z</time></trkpt><trkpt lat="41.2824917" lon="0.72079"><ele>371.0</ele><time>2026-04-19T08:46:45.962Z</time></trkpt><trkpt lat="41.2825733" lon="0.7208517"><ele>371.0</ele><time>2026-04-19T08:46:46.963Z</time></trkpt><trkpt lat="41.28265" lon="0.7209167"><ele>369.6</ele><time>2026-04-19T08:46:47.963Z</time></trkpt><trkpt lat="41.2827233" lon="0.7209817"><ele>368.20000000000005</ele><time>2026-04-19T08:46:48.962Z</time></trkpt><trkpt lat="41.2828033" lon="0.7210283"><ele>366.79999999999995</ele><time>2026-04-19T08:46:49.962Z</time></trkpt><trkpt lat="41.2828767" lon="0.7210917"><ele>365.4</ele><time>2026-04-19T08:46:50.962Z</time></trkpt><trkpt lat="41.2829567" lon="0.7211633"><ele>364.0</ele><time>2026-04-19T08:46:51.962Z</time></trkpt><trkpt lat="41.28304" lon="0.7212317"><ele>365.6</ele><time>2026-04-19T08:46:52.962Z</time></trkpt><trkpt lat="41.2831217" lon="0.721295"><ele>367.2</ele><time>2026-04-19T08:46:53.962Z</time></trkpt><trkpt lat="41.28321" lon="0.7213633"><ele>368.8</ele><time>2026-04-19T08:46:54.963Z</time></trkpt><trkpt lat="41.2832933" lon="0.7214367"><ele>370.40000000000003</ele><time>2026-04-19T08:46:55.963Z</time></trkpt><trkpt lat="41.2833783" lon="0.7215033"><ele>372.0</ele><time>2026-04-19T08:46:56.962Z</time></trkpt><trkpt lat="41.2834617" lon="0.7215567"><ele>372.0</ele><time>2026-04-19T08:46:57.963Z</time></trkpt><trkpt lat="41.2835367" lon="0.721615"><ele>372.0</ele><time>2026-04-19T08:46:58.963Z</time></trkpt><trkpt lat="41.2835933" lon="0.721675"><ele>372.0</ele><time>2026-04-19T08:46:59.963Z</time></trkpt><trkpt lat="41.28367" lon="0.7217483"><ele>372.0</ele><time>2026-04-19T08:47:00.963Z</time></trkpt><trkpt lat="41.2837533" lon="0.7218183"><ele>372.0</ele><time>2026-04-19T08:47:01.963Z</time></trkpt><trkpt lat="41.28383" lon="0.7218917"><ele>372.0</ele><time>2026-04-19T08:47:02.963Z</time></trkpt><trkpt lat="41.283915" lon="0.7219383"><ele>370.8</ele><time>2026-04-19T08:47:03.963Z</time></trkpt><trkpt lat="41.2840033" lon="0.72195"><ele>369.6</ele><time>2026-04-19T08:47:04.962Z</time></trkpt><trkpt lat="41.2840917" lon="0.7219367"><ele>368.40000000000003</ele><time>2026-04-19T08:47:05.962Z</time></trkpt><trkpt lat="41.28419" lon="0.7218917"><ele>367.20000000000005</ele><time>2026-04-19T08:47:06.963Z</time></trkpt><trkpt lat="41.2843" lon="0.72184"><ele>366.0</ele><time>2026-04-19T08:47:07.962Z</time></trkpt><trkpt lat="41.2844033" lon="0.7218017"><ele>366.0</ele><time>2026-04-19T08:47:08.963Z</time></trkpt><trkpt lat="41.2844983" lon="0.7217467"><ele>366.0</ele><time>2026-04-19T08:47:09.962Z</time></trkpt><trkpt lat="41.2845883" lon="0.7216783"><ele>366.0</ele><time>2026-04-19T08:47:10.962Z</time></trkpt><trkpt lat="41.28468" lon="0.721595"><ele>366.0</ele><time>2026-04-19T08:47:11.962Z</time></trkpt><trkpt lat="41.2847733" lon="0.7215"><ele>366.0</ele><time>2026-04-19T08:47:12.963Z</time></trkpt><trkpt lat="41.28487" lon="0.7214083"><ele>366.6</ele><time>2026-04-19T08:47:13.962Z</time></trkpt><trkpt lat="41.284955" lon="0.72131"><ele>367.20000000000005</ele><time>2026-04-19T08:47:14.963Z</time></trkpt><trkpt lat="41.2850283" lon="0.7211983"><ele>367.79999999999995</ele><time>2026-04-19T08:47:15.962Z</time></trkpt><trkpt lat="41.2850883" lon="0.7210717"><ele>368.4</ele><time>2026-04-19T08:47:16.963Z</time></trkpt><trkpt lat="41.2851333" lon="0.7209417"><ele>369.0</ele><time>2026-04-19T08:47:17.963Z</time></trkpt><trkpt lat="41.2851733" lon="0.7208017"><ele>369.0</ele><time>2026-04-19T08:47:18.963Z</time></trkpt><trkpt lat="41.2852083" lon="0.720665"><ele>369.0</ele><time>2026-04-19T08:47:19.963Z</time></trkpt><trkpt lat="41.2852617" lon="0.7205433"><ele>369.0</ele><time>2026-04-19T08:47:20.962Z</time></trkpt><trkpt lat="41.2853267" lon="0.72042"><ele>369.0</ele><time>2026-04-19T08:47:21.963Z</time></trkpt><trkpt lat="41.2853933" lon="0.7203033"><ele>369.0</ele><time>2026-04-19T08:47:22.962Z</time></trkpt><trkpt lat="41.2854617" lon="0.720175"><ele>368.6</ele><time>2026-04-19T08:47:23.962Z</time></trkpt><trkpt lat="41.2855267" lon="0.720045"><ele>368.2</ele><time>2026-04-19T08:47:24.963Z</time></trkpt><trkpt lat="41.28558" lon="0.71991"><ele>367.8</ele><time>2026-04-19T08:47:25.962Z</time></trkpt><trkpt lat="41.2856283" lon="0.71978"><ele>367.40000000000003</ele><time>2026-04-19T08:47:26.963Z</time></trkpt><trkpt lat="41.2856667" lon="0.719665"><ele>367.0</ele><time>2026-04-19T08:47:27.962Z</time></trkpt><trkpt lat="41.2856983" lon="0.7195683"><ele>367.3333333333333</ele><time>2026-04-19T08:47:28.962Z</time></trkpt><trkpt lat="41.2857567" lon="0.7194917"><ele>367.66666666666663</ele><time>2026-04-19T08:47:29.963Z</time></trkpt><trkpt lat="41.285835" lon="0.7194667"><ele>368.0</ele><time>2026-04-19T08:47:30.962Z</time></trkpt><trkpt lat="41.2859033" lon="0.7194167"><ele>368.3333333333333</ele><time>2026-04-19T08:47:31.962Z</time></trkpt><trkpt lat="41.2859767" lon="0.7193817"><ele>368.6666666666667</ele><time>2026-04-19T08:47:32.963Z</time></trkpt><trkpt lat="41.2860617" lon="0.7193717"><ele>369.0</ele><time>2026-04-19T08:47:33.963Z</time></trkpt><trkpt lat="41.2861517" lon="0.719375"><ele>372.0</ele><time>2026-04-19T08:47:34.963Z</time></trkpt><trkpt lat="41.2862467" lon="0.719425"><ele>375.0</ele><time>2026-04-19T08:47:35.963Z</time></trkpt><trkpt lat="41.2863433" lon="0.7195117"><ele>378.0</ele><time>2026-04-19T08:47:36.962Z</time></trkpt><trkpt lat="41.2864317" lon="0.71961"><ele>381.0</ele><time>2026-04-19T08:47:37.962Z</time></trkpt><trkpt lat="41.2865117" lon="0.71972"><ele>384.0</ele><time>2026-04-19T08:47:38.963Z</time></trkpt><trkpt lat="41.2865967" lon="0.7198183"><ele>384.0</ele><time>2026-04-19T08:47:39.962Z</time></trkpt><trkpt lat="41.2866817" lon="0.7199017"><ele>384.0</ele><time>2026-04-19T08:47:40.963Z</time></trkpt><trkpt lat="41.2867617" lon="0.7199683"><ele>384.0</ele><time>2026-04-19T08:47:41.963Z</time></trkpt><trkpt lat="41.2868433" lon="0.7200217"><ele>384.0</ele><time>2026-04-19T08:47:42.963Z</time></trkpt><trkpt lat="41.2869267" lon="0.72007"><ele>384.0</ele><time>2026-04-19T08:47:43.963Z</time></trkpt><trkpt lat="41.2870067" lon="0.720115"><ele>384.0</ele><time>2026-04-19T08:47:44.963Z</time></trkpt><trkpt lat="41.2870883" lon="0.7201617"><ele>384.0</ele><time>2026-04-19T08:47:45.963Z</time></trkpt><trkpt lat="41.2871683" lon="0.72022"><ele>384.0</ele><time>2026-04-19T08:47:46.962Z</time></trkpt><trkpt lat="41.2872483" lon="0.72027"><ele>384.0</ele><time>2026-04-19T08:47:47.962Z</time></trkpt><trkpt lat="41.2873417" lon="0.7203233"><ele>384.0</ele><time>2026-04-19T08:47:48.963Z</time></trkpt><trkpt lat="41.2874317" lon="0.7203683"><ele>387.0</ele><time>2026-04-19T08:47:49.962Z</time></trkpt><trkpt lat="41.28752" lon="0.7204017"><ele>390.0</ele><time>2026-04-19T08:47:50.963Z</time></trkpt><trkpt lat="41.2876017" lon="0.72044"><ele>393.0</ele><time>2026-04-19T08:47:51.963Z</time></trkpt><trkpt lat="41.2876767" lon="0.7204783"><ele>396.0</ele><time>2026-04-19T08:47:52.962Z</time></trkpt><trkpt lat="41.2878183" lon="0.7205417"><ele>399.0</ele><time>2026-04-19T08:47:54.962Z</time></trkpt><trkpt lat="41.287905" lon="0.72056"><ele>399.0</ele><time>2026-04-19T08:47:55.962Z</time></trkpt><trkpt lat="41.2879983" lon="0.7205417"><ele>399.0</ele><time>2026-04-19T08:47:56.962Z</time></trkpt><trkpt lat="41.2880767" lon="0.7205083"><ele>399.0</ele><time>2026-04-19T08:47:57.962Z</time></trkpt><trkpt lat="41.28817" lon="0.7204617"><ele>399.0</ele><time>2026-04-19T08:47:58.963Z</time></trkpt><trkpt lat="41.288265" lon="0.7204117"><ele>399.0</ele><time>2026-04-19T08:47:59.963Z</time></trkpt><trkpt lat="41.2883617" lon="0.7203733"><ele>397.4</ele><time>2026-04-19T08:48:00.963Z</time></trkpt><trkpt lat="41.2884533" lon="0.7203467"><ele>395.79999999999995</ele><time>2026-04-19T08:48:01.963Z</time></trkpt><trkpt lat="41.28855" lon="0.72034"><ele>394.20000000000005</ele><time>2026-04-19T08:48:02.962Z</time></trkpt><trkpt lat="41.2886483" lon="0.7203683"><ele>392.6</ele><time>2026-04-19T08:48:03.962Z</time></trkpt><trkpt lat="41.288745" lon="0.7204067"><ele>391.0</ele><time>2026-04-19T08:48:04.962Z</time></trkpt><trkpt lat="41.28884" lon="0.7204533"><ele>390.6</ele><time>2026-04-19T08:48:05.963Z</time></trkpt><trkpt lat="41.2889317" lon="0.72048"><ele>390.20000000000005</ele><time>2026-04-19T08:48:06.962Z</time></trkpt><trkpt lat="41.2890217" lon="0.7204833"><ele>389.79999999999995</ele><time>2026-04-19T08:48:07.963Z</time></trkpt><trkpt lat="41.2891133" lon="0.7204633"><ele>389.4</ele><time>2026-04-19T08:48:08.963Z</time></trkpt><trkpt lat="41.2891933" lon="0.7204117"><ele>389.0</ele><time>2026-04-19T08:48:09.963Z</time></trkpt><trkpt lat="41.289255" lon="0.7203267"><ele>388.16666666666663</ele><time>2026-04-19T08:48:10.962Z</time></trkpt><trkpt lat="41.289295" lon="0.7202217"><ele>387.3333333333333</ele><time>2026-04-19T08:48:11.963Z</time></trkpt><trkpt lat="41.2893117" lon="0.7201083"><ele>386.5</ele><time>2026-04-19T08:48:12.963Z</time></trkpt><trkpt lat="41.2893117" lon="0.7199933"><ele>385.66666666666663</ele><time>2026-04-19T08:48:13.962Z</time></trkpt><trkpt lat="41.2892867" lon="0.71987"><ele>384.8333333333333</ele><time>2026-04-19T08:48:14.962Z</time></trkpt><trkpt lat="41.28924" lon="0.7197683"><ele>384.0</ele><time>2026-04-19T08:48:15.962Z</time></trkpt><trkpt lat="41.28916" lon="0.7196733"><ele>384.0</ele><time>2026-04-19T08:48:16.963Z</time></trkpt><trkpt lat="41.28906" lon="0.7195783"><ele>384.0</ele><time>2026-04-19T08:48:17.963Z</time></trkpt><trkpt lat="41.28895" lon="0.7195033"><ele>384.0</ele><time>2026-04-19T08:48:18.963Z</time></trkpt><trkpt lat="41.2888367" lon="0.7194317"><ele>384.0</ele><time>2026-04-19T08:48:19.962Z</time></trkpt><trkpt lat="41.2887167" lon="0.7193967"><ele>387.0</ele><time>2026-04-19T08:48:20.963Z</time></trkpt><trkpt lat="41.2885983" lon="0.7193767"><ele>390.0</ele><time>2026-04-19T08:48:21.962Z</time></trkpt><trkpt lat="41.28848" lon="0.71936"><ele>393.0</ele><time>2026-04-19T08:48:22.963Z</time></trkpt><trkpt lat="41.28836" lon="0.7193417"><ele>396.0</ele><time>2026-04-19T08:48:23.963Z</time></trkpt><trkpt lat="41.2882383" lon="0.7193517"><ele>396.0</ele><time>2026-04-19T08:48:24.963Z</time></trkpt><trkpt lat="41.2881183" lon="0.719375"><ele>396.0</ele><time>2026-04-19T08:48:25.963Z</time></trkpt><trkpt lat="41.2880033" lon="0.719405"><ele>396.0</ele><time>2026-04-19T08:48:26.962Z</time></trkpt><trkpt lat="41.2879133" lon="0.71943"><ele>396.0</ele><time>2026-04-19T08:48:27.963Z</time></trkpt><trkpt lat="41.28783" lon="0.719425"><ele>396.0</ele><time>2026-04-19T08:48:28.963Z</time></trkpt><trkpt lat="41.287735" lon="0.7194217"><ele>395.4</ele><time>2026-04-19T08:48:29.962Z</time></trkpt><trkpt lat="41.28764" lon="0.7194267"><ele>394.8</ele><time>2026-04-19T08:48:30.963Z</time></trkpt><trkpt lat="41.28756" lon="0.7193933"><ele>394.2</ele><time>2026-04-19T08:48:31.963Z</time></trkpt><trkpt lat="41.2874833" lon="0.7193367"><ele>393.59999999999997</ele><time>2026-04-19T08:48:32.962Z</time></trkpt><trkpt lat="41.287415" lon="0.7192617"><ele>393.0</ele><time>2026-04-19T08:48:33.962Z</time></trkpt><trkpt lat="41.2873367" lon="0.719185"><ele>393.0</ele><time>2026-04-19T08:48:34.962Z</time></trkpt><trkpt lat="41.2872717" lon="0.7191183"><ele>393.0</ele><time>2026-04-19T08:48:35.963Z</time></trkpt><trkpt lat="41.2872167" lon="0.71907"><ele>393.0</ele><time>2026-04-19T08:48:36.962Z</time></trkpt><trkpt lat="41.2871717" lon="0.719"><ele>393.0</ele><time>2026-04-19T08:48:38.963Z</time></trkpt><trkpt lat="41.28712" lon="0.7189133"><ele>393.0</ele><time>2026-04-19T08:48:41.962Z</time></trkpt><trkpt lat="41.2870567" lon="0.7188333"><ele>393.0</ele><time>2026-04-19T08:48:44.962Z</time></trkpt><trkpt lat="41.2870033" lon="0.7187667"><ele>391.1666666666667</ele><time>2026-04-19T08:48:59.962Z</time></trkpt><trkpt lat="41.2869633" lon="0.7186833"><ele>389.3333333333333</ele><time>2026-04-19T08:49:02.962Z</time></trkpt><trkpt lat="41.2869667" lon="0.718565"><ele>387.5</ele><time>2026-04-19T08:49:05.963Z</time></trkpt><trkpt lat="41.2870033" lon="0.718485"><ele>385.66666666666663</ele><time>2026-04-19T08:49:07.962Z</time></trkpt><trkpt lat="41.2870667" lon="0.7183867"><ele>383.8333333333333</ele><time>2026-04-19T08:49:09.963Z</time></trkpt><trkpt lat="41.28712" lon="0.7183083"><ele>382.0</ele><time>2026-04-19T08:49:11.963Z</time></trkpt><trkpt lat="41.2871717" lon="0.7182367"><ele>382.0</ele><time>2026-04-19T08:49:13.963Z</time></trkpt><trkpt lat="41.287225" lon="0.7181783"><ele>382.0</ele><time>2026-04-19T08:49:15.962Z</time></trkpt><trkpt lat="41.2872867" lon="0.7181017"><ele>382.0</ele><time>2026-04-19T08:49:18.963Z</time></trkpt><trkpt lat="41.2873367" lon="0.7180017"><ele>382.0</ele><time>2026-04-19T08:49:20.962Z</time></trkpt><trkpt lat="41.28737" lon="0.7179067"><ele>382.0</ele><time>2026-04-19T08:49:22.963Z</time></trkpt><trkpt lat="41.287405" lon="0.717825"><ele>382.0</ele><time>2026-04-19T08:49:24.963Z</time></trkpt><trkpt lat="41.2874217" lon="0.7177417"><ele>383.66666666666663</ele><time>2026-04-19T08:49:26.963Z</time></trkpt><trkpt lat="41.287445" lon="0.7176467"><ele>385.3333333333333</ele><time>2026-04-19T08:49:28.963Z</time></trkpt><trkpt lat="41.2874617" lon="0.71756"><ele>387.0</ele><time>2026-04-19T08:49:30.963Z</time></trkpt><trkpt lat="41.28748" lon="0.7174517"><ele>388.66666666666663</ele><time>2026-04-19T08:49:33.962Z</time></trkpt><trkpt lat="41.28751" lon="0.7173517"><ele>390.3333333333333</ele><time>2026-04-19T08:49:36.962Z</time></trkpt><trkpt lat="41.2875167" lon="0.7172567"><ele>392.0</ele><time>2026-04-19T08:49:38.963Z</time></trkpt><trkpt lat="41.2874817" lon="0.7171517"><ele>391.99999999999994</ele><time>2026-04-19T08:49:40.963Z</time></trkpt><trkpt lat="41.2874167" lon="0.7170617"><ele>392.0</ele><time>2026-04-19T08:49:43.963Z</time></trkpt><trkpt lat="41.2873683" lon="0.7170033"><ele>392.0</ele><time>2026-04-19T08:49:45.963Z</time></trkpt><trkpt lat="41.2873083" lon="0.716975"><ele>392.0</ele><time>2026-04-19T08:49:47.963Z</time></trkpt><trkpt lat="41.287235" lon="0.7169567"><ele>391.99999999999994</ele><time>2026-04-19T08:49:51.962Z</time></trkpt><trkpt lat="41.2871217" lon="0.71687"><ele>392.0</ele><time>2026-04-19T08:50:18.962Z</time></trkpt><trkpt lat="41.2870225" lon="0.7169908"><ele>394.5</ele><time>2026-04-19T08:53:25.992Z</time></trkpt><trkpt lat="41.2870233" lon="0.7171383"><ele>397.0</ele><time>2026-04-19T08:54:21.963Z</time></trkpt><trkpt lat="41.2870621" lon="0.7172672"><ele>399.5</ele><time>2026-04-19T08:54:35.032Z</time></trkpt><trkpt lat="41.2870827" lon="0.7174126"><ele>402.0</ele><time>2026-04-19T08:54:35.962Z</time></trkpt><trkpt lat="41.2870524" lon="0.717167"><ele>402.0</ele><time>2026-04-19T08:55:02.021Z</time></trkpt><trkpt lat="41.2870392" lon="0.7170774"><ele>402.0</ele><time>2026-04-19T08:55:03.982Z</time></trkpt><trkpt lat="41.2870717" lon="0.7170051"><ele>402.0</ele><time>2026-04-19T08:56:07.001Z</time></trkpt><trkpt lat="41.287088" lon="0.7169074"><ele>402.0</ele><time>2026-04-19T08:56:38.051Z</time></trkpt><trkpt lat="41.2870762" lon="0.7168037"><ele>402.0</ele><time>2026-04-19T08:56:48.962Z</time></trkpt><trkpt lat="41.2870371" lon="0.7167299"><ele>402.0</ele><time>2026-04-19T08:56:58.022Z</time></trkpt><trkpt lat="41.2869699" lon="0.7166832"><ele>402.0</ele><time>2026-04-19T08:57:01.022Z</time></trkpt><trkpt lat="41.2869043" lon="0.7166762"><ele>399.5</ele><time>2026-04-19T08:57:16.062Z</time></trkpt><trkpt lat="41.2869238" lon="0.7167621"><ele>397.0</ele><time>2026-04-19T08:57:22.031Z</time></trkpt><trkpt lat="41.2871026" lon="0.7168514"><ele>394.5</ele><time>2026-04-19T08:57:52.022Z</time></trkpt><trkpt lat="41.2872735" lon="0.7169483"><ele>392.0</ele><time>2026-04-19T08:57:53.052Z</time></trkpt><trkpt lat="41.2873386" lon="0.7170015"><ele>391.99999999999994</ele><time>2026-04-19T08:57:55.002Z</time></trkpt><trkpt lat="41.2873519" lon="0.7170877"><ele>392.0</ele><time>2026-04-19T08:58:00.981Z</time></trkpt><trkpt lat="41.2873218" lon="0.7171629"><ele>392.0</ele><time>2026-04-19T08:58:04.992Z</time></trkpt><trkpt lat="41.2871535" lon="0.7171951"><ele>392.0</ele><time>2026-04-19T08:58:13.002Z</time></trkpt><trkpt lat="41.2870908" lon="0.7171853"><ele>391.99999999999994</ele><time>2026-04-19T08:58:14.963Z</time></trkpt><trkpt lat="41.28703" lon="0.7171483"><ele>392.0</ele><time>2026-04-19T08:59:32.962Z</time></trkpt><trkpt lat="41.2871" lon="0.7170317"><ele>391.99999999999994</ele><time>2026-04-19T08:59:45.963Z</time></trkpt><trkpt lat="41.2871" lon="0.7169417"><ele>392.0</ele><time>2026-04-19T08:59:46.963Z</time></trkpt><trkpt lat="41.2871404" lon="0.7170567"><ele>392.0</ele><time>2026-04-19T09:02:38.001Z</time></trkpt><trkpt lat="41.2872094" lon="0.717063"><ele>392.0</ele><time>2026-04-19T09:02:41.001Z</time></trkpt><trkpt lat="41.2872851" lon="0.7170915"><ele>391.99999999999994</ele><time>2026-04-19T09:02:44.002Z</time></trkpt><trkpt lat="41.2873551" lon="0.7171375"><ele>392.0</ele><time>2026-04-19T09:02:46.992Z</time></trkpt><trkpt lat="41.2874221" lon="0.7171986"><ele>392.0</ele><time>2026-04-19T09:02:49.018Z</time></trkpt><trkpt lat="41.2874894" lon="0.7172883"><ele>392.0</ele><time>2026-04-19T09:02:49.981Z</time></trkpt><trkpt lat="41.2874878" lon="0.7174459"><ele>392.0</ele><time>2026-04-19T09:02:51.963Z</time></trkpt><trkpt lat="41.2874754" lon="0.7175282"><ele>392.0</ele><time>2026-04-19T09:02:52.963Z</time></trkpt><trkpt lat="41.287427" lon="0.7176907"><ele>392.0</ele><time>2026-04-19T09:02:54.962Z</time></trkpt><trkpt lat="41.2873991" lon="0.7177728"><ele>392.85714285714283</ele><time>2026-04-19T09:02:55.962Z</time></trkpt><trkpt lat="41.2873697" lon="0.7178543"><ele>393.7142857142857</ele><time>2026-04-19T09:02:56.963Z</time></trkpt><trkpt lat="41.2873441" lon="0.7179364"><ele>394.57142857142856</ele><time>2026-04-19T09:02:57.963Z</time></trkpt><trkpt lat="41.2873096" lon="0.7180158"><ele>395.42857142857144</ele><time>2026-04-19T09:02:58.962Z</time></trkpt><trkpt lat="41.2872725" lon="0.7180941"><ele>396.2857142857143</ele><time>2026-04-19T09:02:59.963Z</time></trkpt><trkpt lat="41.2872328" lon="0.7181696"><ele>397.1428571428571</ele><time>2026-04-19T09:03:00.962Z</time></trkpt><trkpt lat="41.2871922" lon="0.71824"><ele>398.0</ele><time>2026-04-19T09:03:01.963Z</time></trkpt><trkpt lat="41.2871436" lon="0.7183125"><ele>394.79999999999995</ele><time>2026-04-19T09:03:02.963Z</time></trkpt><trkpt lat="41.2870855" lon="0.7183755"><ele>391.6</ele><time>2026-04-19T09:03:03.963Z</time></trkpt><trkpt lat="41.2870328" lon="0.7184318"><ele>388.4</ele><time>2026-04-19T09:03:04.962Z</time></trkpt><trkpt lat="41.2869428" lon="0.718529"><ele>385.20000000000005</ele><time>2026-04-19T09:03:06.962Z</time></trkpt><trkpt lat="41.2869032" lon="0.7186071"><ele>382.0</ele><time>2026-04-19T09:03:08.963Z</time></trkpt><trkpt lat="41.2869567" lon="0.7187633"><ele>382.0</ele><time>2026-04-19T09:04:04.963Z</time></trkpt><trkpt lat="41.2870233" lon="0.718735"><ele>382.0</ele><time>2026-04-19T09:04:07.963Z</time></trkpt><trkpt lat="41.2871183" lon="0.718625"><ele>382.0</ele><time>2026-04-19T09:04:09.962Z</time></trkpt><trkpt lat="41.2871683" lon="0.7185467"><ele>382.0</ele><time>2026-04-19T09:04:10.963Z</time></trkpt><trkpt lat="41.2872367" lon="0.7184733"><ele>382.0</ele><time>2026-04-19T09:04:11.963Z</time></trkpt><trkpt lat="41.2873117" lon="0.7183883"><ele>385.20000000000005</ele><time>2026-04-19T09:04:12.963Z</time></trkpt><trkpt lat="41.28739" lon="0.7182967"><ele>388.4</ele><time>2026-04-19T09:04:13.962Z</time></trkpt><trkpt lat="41.2874617" lon="0.7181933"><ele>391.6</ele><time>2026-04-19T09:04:14.962Z</time></trkpt><trkpt lat="41.2875267" lon="0.7180783"><ele>394.79999999999995</ele><time>2026-04-19T09:04:15.963Z</time></trkpt><trkpt lat="41.2875717" lon="0.7179233"><ele>398.0</ele><time>2026-04-19T09:04:16.963Z</time></trkpt><trkpt lat="41.2876033" lon="0.7177833"><ele>396.79999999999995</ele><time>2026-04-19T09:04:17.962Z</time></trkpt><trkpt lat="41.2876483" lon="0.7176583"><ele>395.6</ele><time>2026-04-19T09:04:18.963Z</time></trkpt><trkpt lat="41.2877067" lon="0.717545"><ele>394.4</ele><time>2026-04-19T09:04:19.962Z</time></trkpt><trkpt lat="41.2877917" lon="0.7174667"><ele>393.20000000000005</ele><time>2026-04-19T09:04:20.962Z</time></trkpt><trkpt lat="41.2878933" lon="0.7174"><ele>392.0</ele><time>2026-04-19T09:04:21.962Z</time></trkpt><trkpt lat="41.2880033" lon="0.717335"><ele>396.25</ele><time>2026-04-19T09:04:22.963Z</time></trkpt><trkpt lat="41.288125" lon="0.7172683"><ele>400.5</ele><time>2026-04-19T09:04:23.963Z</time></trkpt><trkpt lat="41.2882433" lon="0.7171967"><ele>404.75</ele><time>2026-04-19T09:04:24.963Z</time></trkpt><trkpt lat="41.2883583" lon="0.7171183"><ele>409.0</ele><time>2026-04-19T09:04:25.962Z</time></trkpt><trkpt lat="41.2884733" lon="0.7170467"><ele>409.0</ele><time>2026-04-19T09:04:26.962Z</time></trkpt><trkpt lat="41.2885833" lon="0.7169767"><ele>409.0</ele><time>2026-04-19T09:04:27.962Z</time></trkpt><trkpt lat="41.2886917" lon="0.7169033"><ele>409.0</ele><time>2026-04-19T09:04:28.963Z</time></trkpt><trkpt lat="41.2887933" lon="0.71684"><ele>409.0</ele><time>2026-04-19T09:04:29.962Z</time></trkpt><trkpt lat="41.288895" lon="0.716785"><ele>409.4</ele><time>2026-04-19T09:04:30.963Z</time></trkpt><trkpt lat="41.288985" lon="0.71671"><ele>409.79999999999995</ele><time>2026-04-19T09:04:31.963Z</time></trkpt><trkpt lat="41.2890733" lon="0.71662"><ele>410.20000000000005</ele><time>2026-04-19T09:04:32.962Z</time></trkpt><trkpt lat="41.2891483" lon="0.716515"><ele>410.6</ele><time>2026-04-19T09:04:33.963Z</time></trkpt><trkpt lat="41.2892033" lon="0.7164067"><ele>411.0</ele><time>2026-04-19T09:04:34.963Z</time></trkpt><trkpt lat="41.2892583" lon="0.7163217"><ele>411.0</ele><time>2026-04-19T09:04:35.963Z</time></trkpt><trkpt lat="41.2893183" lon="0.71625"><ele>411.0</ele><time>2026-04-19T09:04:36.963Z</time></trkpt><trkpt lat="41.2893767" lon="0.71618"><ele>411.0</ele><time>2026-04-19T09:04:37.962Z</time></trkpt><trkpt lat="41.2894367" lon="0.7161333"><ele>411.0</ele><time>2026-04-19T09:04:38.962Z</time></trkpt><trkpt lat="41.2895" lon="0.71613"><ele>411.0</ele><time>2026-04-19T09:04:39.962Z</time></trkpt><trkpt lat="41.2895733" lon="0.71617"><ele>411.0</ele><time>2026-04-19T09:04:40.962Z</time></trkpt><trkpt lat="41.289675" lon="0.7162333"><ele>411.0</ele><time>2026-04-19T09:04:41.962Z</time></trkpt><trkpt lat="41.2897583" lon="0.7162617"><ele>411.0</ele><time>2026-04-19T09:04:42.963Z</time></trkpt><trkpt lat="41.289845" lon="0.7162483"><ele>411.0</ele><time>2026-04-19T09:04:43.962Z</time></trkpt><trkpt lat="41.2899333" lon="0.716225"><ele>411.0</ele><time>2026-04-19T09:04:44.963Z</time></trkpt><trkpt lat="41.2900133" lon="0.7161933"><ele>411.0</ele><time>2026-04-19T09:04:45.962Z</time></trkpt><trkpt lat="41.2900833" lon="0.716145"><ele>411.0</ele><time>2026-04-19T09:04:46.962Z</time></trkpt><trkpt lat="41.2901517" lon="0.7160983"><ele>410.8</ele><time>2026-04-19T09:04:47.963Z</time></trkpt><trkpt lat="41.2902" lon="0.7160033"><ele>410.6</ele><time>2026-04-19T09:04:48.962Z</time></trkpt><trkpt lat="41.2902233" lon="0.7158933"><ele>410.4</ele><time>2026-04-19T09:04:49.962Z</time></trkpt><trkpt lat="41.2901983" lon="0.715755"><ele>410.2</ele><time>2026-04-19T09:04:50.963Z</time></trkpt><trkpt lat="41.2901417" lon="0.7156"><ele>410.0</ele><time>2026-04-19T09:04:51.963Z</time></trkpt><trkpt lat="41.290075" lon="0.71545"><ele>410.0</ele><time>2026-04-19T09:04:52.962Z</time></trkpt><trkpt lat="41.2900067" lon="0.7153433"><ele>410.0</ele><time>2026-04-19T09:04:53.962Z</time></trkpt><trkpt lat="41.2899083" lon="0.7152983"><ele>410.0</ele><time>2026-04-19T09:04:54.962Z</time></trkpt><trkpt lat="41.2897833" lon="0.71529"><ele>410.0</ele><time>2026-04-19T09:04:55.962Z</time></trkpt><trkpt lat="41.2896683" lon="0.7152767"><ele>411.2</ele><time>2026-04-19T09:04:56.963Z</time></trkpt><trkpt lat="41.2895817" lon="0.7152217"><ele>412.4</ele><time>2026-04-19T09:04:57.962Z</time></trkpt><trkpt lat="41.2894883" lon="0.715165"><ele>413.6</ele><time>2026-04-19T09:04:58.963Z</time></trkpt><trkpt lat="41.2894283" lon="0.7150767"><ele>414.8</ele><time>2026-04-19T09:04:59.962Z</time></trkpt><trkpt lat="41.2893933" lon="0.7149633"><ele>416.0</ele><time>2026-04-19T09:05:00.963Z</time></trkpt><trkpt lat="41.289355" lon="0.7148533"><ele>416.0</ele><time>2026-04-19T09:05:01.963Z</time></trkpt><trkpt lat="41.28932" lon="0.714745"><ele>416.0</ele><time>2026-04-19T09:05:02.963Z</time></trkpt><trkpt lat="41.2892833" lon="0.714645"><ele>416.0</ele><time>2026-04-19T09:05:03.963Z</time></trkpt><trkpt lat="41.289255" lon="0.7145317"><ele>416.0</ele><time>2026-04-19T09:05:04.963Z</time></trkpt><trkpt lat="41.2892233" lon="0.71441"><ele>416.0</ele><time>2026-04-19T09:05:05.963Z</time></trkpt><trkpt lat="41.2891867" lon="0.7142867"><ele>417.8</ele><time>2026-04-19T09:05:06.963Z</time></trkpt><trkpt lat="41.2891483" lon="0.7141567"><ele>419.6</ele><time>2026-04-19T09:05:07.963Z</time></trkpt><trkpt lat="41.2891117" lon="0.7140233"><ele>421.4</ele><time>2026-04-19T09:05:08.963Z</time></trkpt><trkpt lat="41.2890717" lon="0.7138983"><ele>423.2</ele><time>2026-04-19T09:05:09.962Z</time></trkpt><trkpt lat="41.2890333" lon="0.7137833"><ele>425.0</ele><time>2026-04-19T09:05:10.962Z</time></trkpt><trkpt lat="41.2889917" lon="0.7136767"><ele>425.0</ele><time>2026-04-19T09:05:11.963Z</time></trkpt><trkpt lat="41.2889367" lon="0.7135733"><ele>425.0</ele><time>2026-04-19T09:05:12.962Z</time></trkpt><trkpt lat="41.2888733" lon="0.7134733"><ele>425.0</ele><time>2026-04-19T09:05:13.963Z</time></trkpt><trkpt lat="41.28881" lon="0.71338"><ele>425.0</ele><time>2026-04-19T09:05:14.963Z</time></trkpt><trkpt lat="41.288745" lon="0.7132967"><ele>425.0</ele><time>2026-04-19T09:05:15.962Z</time></trkpt><trkpt lat="41.288685" lon="0.71323"><ele>425.49999999999994</ele><time>2026-04-19T09:05:16.962Z</time></trkpt><trkpt lat="41.28862" lon="0.713175"><ele>426.0</ele><time>2026-04-19T09:05:17.963Z</time></trkpt><trkpt lat="41.2885383" lon="0.7131383"><ele>426.5</ele><time>2026-04-19T09:05:18.962Z</time></trkpt><trkpt lat="41.2884583" lon="0.7131283"><ele>427.0</ele><time>2026-04-19T09:05:19.962Z</time></trkpt><trkpt lat="41.28837" lon="0.7131517"><ele>427.49999999999994</ele><time>2026-04-19T09:05:20.963Z</time></trkpt><trkpt lat="41.2882767" lon="0.71322"><ele>428.0</ele><time>2026-04-19T09:05:21.962Z</time></trkpt><trkpt lat="41.2882067" lon="0.7133333"><ele>428.0</ele><time>2026-04-19T09:05:22.962Z</time></trkpt><trkpt lat="41.2881667" lon="0.7134733"><ele>428.0</ele><time>2026-04-19T09:05:23.962Z</time></trkpt><trkpt lat="41.2881667" lon="0.7136417"><ele>428.0</ele><time>2026-04-19T09:05:24.963Z</time></trkpt><trkpt lat="41.2882067" lon="0.713785"><ele>428.0</ele><time>2026-04-19T09:05:25.963Z</time></trkpt><trkpt lat="41.28826" lon="0.7139367"><ele>428.4</ele><time>2026-04-19T09:05:26.963Z</time></trkpt><trkpt lat="41.2883183" lon="0.7140717"><ele>428.79999999999995</ele><time>2026-04-19T09:05:27.963Z</time></trkpt><trkpt lat="41.2883667" lon="0.7142067"><ele>429.2</ele><time>2026-04-19T09:05:28.963Z</time></trkpt><trkpt lat="41.2883933" lon="0.71433"><ele>429.6</ele><time>2026-04-19T09:05:29.963Z</time></trkpt><trkpt lat="41.2884117" lon="0.7144533"><ele>430.0</ele><time>2026-04-19T09:05:30.962Z</time></trkpt><trkpt lat="41.2884217" lon="0.7145767"><ele>430.1666666666667</ele><time>2026-04-19T09:05:31.962Z</time></trkpt><trkpt lat="41.2884267" lon="0.7146967"><ele>430.33333333333337</ele><time>2026-04-19T09:05:32.962Z</time></trkpt><trkpt lat="41.288435" lon="0.7148117"><ele>430.5</ele><time>2026-04-19T09:05:33.962Z</time></trkpt><trkpt lat="41.2884417" lon="0.7149283"><ele>430.66666666666663</ele><time>2026-04-19T09:05:34.962Z</time></trkpt><trkpt lat="41.2884433" lon="0.71505"><ele>430.8333333333333</ele><time>2026-04-19T09:05:35.962Z</time></trkpt><trkpt lat="41.2884317" lon="0.7151717"><ele>431.0</ele><time>2026-04-19T09:05:36.962Z</time></trkpt><trkpt lat="41.28841" lon="0.715285"><ele>429.8333333333333</ele><time>2026-04-19T09:05:37.962Z</time></trkpt><trkpt lat="41.288375" lon="0.7153867"><ele>428.66666666666663</ele><time>2026-04-19T09:05:38.963Z</time></trkpt><trkpt lat="41.28831" lon="0.7154517"><ele>427.5</ele><time>2026-04-19T09:05:39.962Z</time></trkpt><trkpt lat="41.288225" lon="0.715465"><ele>426.33333333333337</ele><time>2026-04-19T09:05:40.962Z</time></trkpt><trkpt lat="41.2881333" lon="0.7154367"><ele>425.1666666666667</ele><time>2026-04-19T09:05:41.963Z</time></trkpt><trkpt lat="41.2880483" lon="0.7153667"><ele>424.0</ele><time>2026-04-19T09:05:42.962Z</time></trkpt><trkpt lat="41.28796" lon="0.7152817"><ele>425.6</ele><time>2026-04-19T09:05:43.962Z</time></trkpt><trkpt lat="41.2878917" lon="0.7151833"><ele>427.2</ele><time>2026-04-19T09:05:44.963Z</time></trkpt><trkpt lat="41.2878133" lon="0.7151133"><ele>428.80000000000007</ele><time>2026-04-19T09:05:45.962Z</time></trkpt><trkpt lat="41.2877367" lon="0.7150367"><ele>430.40000000000003</ele><time>2026-04-19T09:05:46.962Z</time></trkpt><trkpt lat="41.2876633" lon="0.714945"><ele>432.0</ele><time>2026-04-19T09:05:47.962Z</time></trkpt><trkpt lat="41.2876033" lon="0.7148483"><ele>432.0</ele><time>2026-04-19T09:05:48.962Z</time></trkpt><trkpt lat="41.28755" lon="0.7147267"><ele>432.00000000000006</ele><time>2026-04-19T09:05:49.962Z</time></trkpt><trkpt lat="41.2875083" lon="0.7146017"><ele>432.00000000000006</ele><time>2026-04-19T09:05:50.962Z</time></trkpt><trkpt lat="41.2874683" lon="0.7144783"><ele>432.0</ele><time>2026-04-19T09:05:51.962Z</time></trkpt><trkpt lat="41.2874267" lon="0.7143617"><ele>432.0</ele><time>2026-04-19T09:05:52.962Z</time></trkpt><trkpt lat="41.28739" lon="0.7142317"><ele>433.8</ele><time>2026-04-19T09:05:53.962Z</time></trkpt><trkpt lat="41.287345" lon="0.7141233"><ele>435.6</ele><time>2026-04-19T09:05:54.962Z</time></trkpt><trkpt lat="41.2872817" lon="0.7140283"><ele>437.40000000000003</ele><time>2026-04-19T09:05:55.963Z</time></trkpt><trkpt lat="41.2871983" lon="0.7139583"><ele>439.20000000000005</ele><time>2026-04-19T09:05:56.962Z</time></trkpt><trkpt lat="41.2870967" lon="0.7139167"><ele>441.0</ele><time>2026-04-19T09:05:57.962Z</time></trkpt><trkpt lat="41.2870017" lon="0.7138983"><ele>441.0</ele><time>2026-04-19T09:05:58.963Z</time></trkpt><trkpt lat="41.2869083" lon="0.7138767"><ele>441.0</ele><time>2026-04-19T09:05:59.963Z</time></trkpt><trkpt lat="41.2868233" lon="0.7138417"><ele>441.0</ele><time>2026-04-19T09:06:00.962Z</time></trkpt><trkpt lat="41.2867383" lon="0.7137983"><ele>441.0</ele><time>2026-04-19T09:06:01.963Z</time></trkpt><trkpt lat="41.2866517" lon="0.7137633"><ele>441.0</ele><time>2026-04-19T09:06:02.962Z</time></trkpt><trkpt lat="41.2865617" lon="0.7137717"><ele>441.0</ele><time>2026-04-19T09:06:03.962Z</time></trkpt><trkpt lat="41.286475" lon="0.71381"><ele>441.0</ele><time>2026-04-19T09:06:04.962Z</time></trkpt><trkpt lat="41.2864" lon="0.713895"><ele>441.0</ele><time>2026-04-19T09:06:05.962Z</time></trkpt><trkpt lat="41.2863417" lon="0.7139933"><ele>441.0</ele><time>2026-04-19T09:06:06.963Z</time></trkpt><trkpt lat="41.28629" lon="0.7141033"><ele>441.0</ele><time>2026-04-19T09:06:07.963Z</time></trkpt><trkpt lat="41.286255" lon="0.714205"><ele>441.8333333333333</ele><time>2026-04-19T09:06:08.962Z</time></trkpt><trkpt lat="41.28623" lon="0.7143083"><ele>442.66666666666663</ele><time>2026-04-19T09:06:09.962Z</time></trkpt><trkpt lat="41.286215" lon="0.71441"><ele>443.5</ele><time>2026-04-19T09:06:10.962Z</time></trkpt><trkpt lat="41.2862183" lon="0.7145017"><ele>444.3333333333333</ele><time>2026-04-19T09:06:11.962Z</time></trkpt><trkpt lat="41.28621" lon="0.71462"><ele>445.16666666666663</ele><time>2026-04-19T09:06:13.962Z</time></trkpt><trkpt lat="41.2861867" lon="0.7147133"><ele>446.0</ele><time>2026-04-19T09:06:15.963Z</time></trkpt><trkpt lat="41.2861183" lon="0.71479"><ele>445.99999999999994</ele><time>2026-04-19T09:06:17.963Z</time></trkpt><trkpt lat="41.2860033" lon="0.714815"><ele>446.0</ele><time>2026-04-19T09:06:19.962Z</time></trkpt><trkpt lat="41.285925" lon="0.7148033"><ele>446.0</ele><time>2026-04-19T09:06:20.962Z</time></trkpt><trkpt lat="41.2858467" lon="0.7147783"><ele>446.0</ele><time>2026-04-19T09:06:21.962Z</time></trkpt><trkpt lat="41.2857667" lon="0.7147467"><ele>445.99999999999994</ele><time>2026-04-19T09:06:22.963Z</time></trkpt><trkpt lat="41.2857" lon="0.7147033"><ele>446.0</ele><time>2026-04-19T09:06:23.962Z</time></trkpt><trkpt lat="41.2856483" lon="0.7146467"><ele>446.0</ele><time>2026-04-19T09:06:24.962Z</time></trkpt><trkpt lat="41.2856033" lon="0.7145867"><ele>446.0</ele><time>2026-04-19T09:06:25.962Z</time></trkpt><trkpt lat="41.28553" lon="0.71446"><ele>446.0</ele><time>2026-04-19T09:06:27.962Z</time></trkpt><trkpt lat="41.2854717" lon="0.7143283"><ele>446.0</ele><time>2026-04-19T09:06:29.963Z</time></trkpt><trkpt lat="41.28546" lon="0.71415"><ele>446.0</ele><time>2026-04-19T09:06:31.963Z</time></trkpt><trkpt lat="41.2854667" lon="0.7140583"><ele>445.6</ele><time>2026-04-19T09:06:32.963Z</time></trkpt><trkpt lat="41.2854967" lon="0.7139583"><ele>445.20000000000005</ele><time>2026-04-19T09:06:33.963Z</time></trkpt><trkpt lat="41.2855483" lon="0.713835"><ele>444.79999999999995</ele><time>2026-04-19T09:06:34.963Z</time></trkpt><trkpt lat="41.2856" lon="0.7137117"><ele>444.4</ele><time>2026-04-19T09:06:35.962Z</time></trkpt><trkpt lat="41.28565" lon="0.7136033"><ele>444.0</ele><time>2026-04-19T09:06:36.962Z</time></trkpt><trkpt lat="41.2857017" lon="0.7135033"><ele>446.0</ele><time>2026-04-19T09:06:37.962Z</time></trkpt><trkpt lat="41.2857717" lon="0.713415"><ele>448.0</ele><time>2026-04-19T09:06:38.963Z</time></trkpt><trkpt lat="41.2858517" lon="0.7133217"><ele>450.0</ele><time>2026-04-19T09:06:39.963Z</time></trkpt><trkpt lat="41.28595" lon="0.7132267"><ele>452.0</ele><time>2026-04-19T09:06:40.962Z</time></trkpt><trkpt lat="41.2860533" lon="0.7131233"><ele>452.0</ele><time>2026-04-19T09:06:41.962Z</time></trkpt><trkpt lat="41.28616" lon="0.71302"><ele>452.0</ele><time>2026-04-19T09:06:42.963Z</time></trkpt><trkpt lat="41.2862617" lon="0.712915"><ele>452.0</ele><time>2026-04-19T09:06:43.963Z</time></trkpt><trkpt lat="41.2863667" lon="0.71282"><ele>452.0</ele><time>2026-04-19T09:06:44.963Z</time></trkpt><trkpt lat="41.2864617" lon="0.7127017"><ele>451.5</ele><time>2026-04-19T09:06:45.962Z</time></trkpt><trkpt lat="41.28655" lon="0.7125733"><ele>451.0</ele><time>2026-04-19T09:06:46.962Z</time></trkpt><trkpt lat="41.2866417" lon="0.7124483"><ele>450.5</ele><time>2026-04-19T09:06:47.963Z</time></trkpt><trkpt lat="41.286735" lon="0.7123217"><ele>450.0</ele><time>2026-04-19T09:06:48.962Z</time></trkpt><trkpt lat="41.2868267" lon="0.712195"><ele>450.0</ele><time>2026-04-19T09:06:49.963Z</time></trkpt><trkpt lat="41.2869167" lon="0.7120667"><ele>450.0</ele><time>2026-04-19T09:06:50.962Z</time></trkpt><trkpt lat="41.287005" lon="0.7119417"><ele>450.0</ele><time>2026-04-19T09:06:51.962Z</time></trkpt><trkpt lat="41.2870917" lon="0.7118117"><ele>450.0</ele><time>2026-04-19T09:06:52.963Z</time></trkpt><trkpt lat="41.287175" lon="0.7116683"><ele>450.0</ele><time>2026-04-19T09:06:53.962Z</time></trkpt><trkpt lat="41.287245" lon="0.711515"><ele>450.0</ele><time>2026-04-19T09:06:54.963Z</time></trkpt><trkpt lat="41.2873067" lon="0.7113633"><ele>450.0</ele><time>2026-04-19T09:06:55.962Z</time></trkpt><trkpt lat="41.28737" lon="0.711215"><ele>450.0</ele><time>2026-04-19T09:06:56.963Z</time></trkpt><trkpt lat="41.287425" lon="0.711075"><ele>448.8</ele><time>2026-04-19T09:06:57.962Z</time></trkpt><trkpt lat="41.2874733" lon="0.7109483"><ele>447.6</ele><time>2026-04-19T09:06:58.963Z</time></trkpt><trkpt lat="41.2875183" lon="0.7108317"><ele>446.4</ele><time>2026-04-19T09:06:59.962Z</time></trkpt><trkpt lat="41.287565" lon="0.7107267"><ele>445.2</ele><time>2026-04-19T09:07:00.963Z</time></trkpt><trkpt lat="41.2876167" lon="0.7106383"><ele>444.0</ele><time>2026-04-19T09:07:01.962Z</time></trkpt><trkpt lat="41.2876717" lon="0.7105633"><ele>444.0</ele><time>2026-04-19T09:07:02.963Z</time></trkpt><trkpt lat="41.2877433" lon="0.710515"><ele>444.0</ele><time>2026-04-19T09:07:03.962Z</time></trkpt><trkpt lat="41.2878217" lon="0.710465"><ele>444.0</ele><time>2026-04-19T09:07:04.963Z</time></trkpt><trkpt lat="41.2878967" lon="0.7104067"><ele>444.0</ele><time>2026-04-19T09:07:05.963Z</time></trkpt><trkpt lat="41.2879633" lon="0.7103417"><ele>444.0</ele><time>2026-04-19T09:07:06.963Z</time></trkpt><trkpt lat="41.2880067" lon="0.7102517"><ele>444.0</ele><time>2026-04-19T09:07:07.962Z</time></trkpt><trkpt lat="41.2880217" lon="0.71015"><ele>443.4</ele><time>2026-04-19T09:07:08.963Z</time></trkpt><trkpt lat="41.288005" lon="0.71003"><ele>442.79999999999995</ele><time>2026-04-19T09:07:09.962Z</time></trkpt><trkpt lat="41.2879583" lon="0.7099183"><ele>442.20000000000005</ele><time>2026-04-19T09:07:10.963Z</time></trkpt><trkpt lat="41.2878833" lon="0.7098517"><ele>441.6</ele><time>2026-04-19T09:07:11.962Z</time></trkpt><trkpt lat="41.2877867" lon="0.7098217"><ele>441.0</ele><time>2026-04-19T09:07:12.963Z</time></trkpt><trkpt lat="41.28772" lon="0.709765"><ele>441.0</ele><time>2026-04-19T09:07:13.963Z</time></trkpt><trkpt lat="41.2876467" lon="0.7097183"><ele>441.0</ele><time>2026-04-19T09:07:14.963Z</time></trkpt><trkpt lat="41.2876" lon="0.709655"><ele>441.0</ele><time>2026-04-19T09:07:15.963Z</time></trkpt><trkpt lat="41.2875917" lon="0.709485"><ele>441.0</ele><time>2026-04-19T09:07:17.962Z</time></trkpt><trkpt lat="41.28762" lon="0.7093933"><ele>441.0</ele><time>2026-04-19T09:07:18.963Z</time></trkpt><trkpt lat="41.2876833" lon="0.7093117"><ele>441.0</ele><time>2026-04-19T09:07:19.962Z</time></trkpt><trkpt lat="41.287775" lon="0.709265"><ele>441.4</ele><time>2026-04-19T09:07:20.962Z</time></trkpt><trkpt lat="41.2878817" lon="0.7092517"><ele>441.8</ele><time>2026-04-19T09:07:21.963Z</time></trkpt><trkpt lat="41.28798" lon="0.7092367"><ele>442.19999999999993</ele><time>2026-04-19T09:07:22.962Z</time></trkpt><trkpt lat="41.2880917" lon="0.7092233"><ele>442.59999999999997</ele><time>2026-04-19T09:07:23.963Z</time></trkpt><trkpt lat="41.2881967" lon="0.7092117"><ele>443.0</ele><time>2026-04-19T09:07:24.963Z</time></trkpt><trkpt lat="41.288295" lon="0.7091833"><ele>445.59999999999997</ele><time>2026-04-19T09:07:25.962Z</time></trkpt><trkpt lat="41.2883783" lon="0.7091683"><ele>448.19999999999993</ele><time>2026-04-19T09:07:26.963Z</time></trkpt><trkpt lat="41.2884583" lon="0.7091383"><ele>450.8</ele><time>2026-04-19T09:07:27.963Z</time></trkpt><trkpt lat="41.28854" lon="0.7090817"><ele>453.4</ele><time>2026-04-19T09:07:28.962Z</time></trkpt><trkpt lat="41.2886083" lon="0.70899"><ele>456.0</ele><time>2026-04-19T09:07:29.963Z</time></trkpt><trkpt lat="41.2886517" lon="0.7088683"><ele>456.0</ele><time>2026-04-19T09:07:30.962Z</time></trkpt><trkpt lat="41.288665" lon="0.70873"><ele>456.0</ele><time>2026-04-19T09:07:31.962Z</time></trkpt><trkpt lat="41.2886617" lon="0.7085633"><ele>456.0</ele><time>2026-04-19T09:07:32.963Z</time></trkpt><trkpt lat="41.288625" lon="0.7083967"><ele>456.0</ele><time>2026-04-19T09:07:33.963Z</time></trkpt><trkpt lat="41.288615" lon="0.70824"><ele>455.8</ele><time>2026-04-19T09:07:34.963Z</time></trkpt><trkpt lat="41.2886033" lon="0.7080983"><ele>455.6</ele><time>2026-04-19T09:07:35.963Z</time></trkpt><trkpt lat="41.2885983" lon="0.7079617"><ele>455.4</ele><time>2026-04-19T09:07:36.962Z</time></trkpt><trkpt lat="41.28859" lon="0.7078217"><ele>455.2</ele><time>2026-04-19T09:07:37.962Z</time></trkpt><trkpt lat="41.2885817" lon="0.7076867"><ele>455.0</ele><time>2026-04-19T09:07:38.962Z</time></trkpt><trkpt lat="41.2885717" lon="0.7075617"><ele>456.3333333333333</ele><time>2026-04-19T09:07:39.963Z</time></trkpt><trkpt lat="41.2885633" lon="0.707445"><ele>457.66666666666663</ele><time>2026-04-19T09:07:40.962Z</time></trkpt><trkpt lat="41.28858" lon="0.7073267"><ele>459.0</ele><time>2026-04-19T09:07:41.962Z</time></trkpt><trkpt lat="41.28862" lon="0.7072133"><ele>460.33333333333337</ele><time>2026-04-19T09:07:42.963Z</time></trkpt><trkpt lat="41.2886683" lon="0.707115"><ele>461.6666666666667</ele><time>2026-04-19T09:07:43.963Z</time></trkpt><trkpt lat="41.2886933" lon="0.7070117"><ele>463.0</ele><time>2026-04-19T09:07:44.963Z</time></trkpt><trkpt lat="41.2887033" lon="0.7068983"><ele>463.4</ele><time>2026-04-19T09:07:45.962Z</time></trkpt><trkpt lat="41.288695" lon="0.70677"><ele>463.79999999999995</ele><time>2026-04-19T09:07:46.963Z</time></trkpt><trkpt lat="41.2886833" lon="0.7066517"><ele>464.2</ele><time>2026-04-19T09:07:47.962Z</time></trkpt><trkpt lat="41.2886867" lon="0.7065367"><ele>464.6</ele><time>2026-04-19T09:07:48.962Z</time></trkpt><trkpt lat="41.2887033" lon="0.706395"><ele>465.0</ele><time>2026-04-19T09:07:49.963Z</time></trkpt><trkpt lat="41.2887317" lon="0.70627"><ele>465.0</ele><time>2026-04-19T09:07:50.963Z</time></trkpt><trkpt lat="41.28875" lon="0.7061583"><ele>465.0</ele><time>2026-04-19T09:07:51.963Z</time></trkpt><trkpt lat="41.28875" lon="0.7060483"><ele>465.0</ele><time>2026-04-19T09:07:52.962Z</time></trkpt><trkpt lat="41.2887483" lon="0.7059467"><ele>465.0</ele><time>2026-04-19T09:07:53.963Z</time></trkpt><trkpt lat="41.28873" lon="0.7058417"><ele>465.0</ele><time>2026-04-19T09:07:54.963Z</time></trkpt><trkpt lat="41.288685" lon="0.7057567"><ele>465.0</ele><time>2026-04-19T09:07:55.962Z</time></trkpt><trkpt lat="41.2886333" lon="0.7056717"><ele>464.2</ele><time>2026-04-19T09:07:56.963Z</time></trkpt><trkpt lat="41.2885733" lon="0.7055817"><ele>463.4</ele><time>2026-04-19T09:07:57.963Z</time></trkpt><trkpt lat="41.288525" lon="0.7054817"><ele>462.6</ele><time>2026-04-19T09:07:58.963Z</time></trkpt><trkpt lat="41.2885133" lon="0.7053617"><ele>461.8</ele><time>2026-04-19T09:07:59.962Z</time></trkpt><trkpt lat="41.2885183" lon="0.7052367"><ele>461.0</ele><time>2026-04-19T09:08:00.962Z</time></trkpt><trkpt lat="41.2885317" lon="0.7051017"><ele>459.8</ele><time>2026-04-19T09:08:01.962Z</time></trkpt><trkpt lat="41.2885433" lon="0.7049667"><ele>458.6</ele><time>2026-04-19T09:08:02.963Z</time></trkpt><trkpt lat="41.28856" lon="0.7048317"><ele>457.4</ele><time>2026-04-19T09:08:03.963Z</time></trkpt><trkpt lat="41.2885783" lon="0.7047"><ele>456.2</ele><time>2026-04-19T09:08:04.963Z</time></trkpt><trkpt lat="41.2886" lon="0.704575"><ele>455.0</ele><time>2026-04-19T09:08:05.963Z</time></trkpt><trkpt lat="41.2886383" lon="0.7044583"><ele>454.25</ele><time>2026-04-19T09:08:06.963Z</time></trkpt><trkpt lat="41.2887067" lon="0.70436"><ele>453.5</ele><time>2026-04-19T09:08:07.962Z</time></trkpt><trkpt lat="41.2888133" lon="0.7043117"><ele>452.75</ele><time>2026-04-19T09:08:08.962Z</time></trkpt><trkpt lat="41.28894" lon="0.704285"><ele>452.0</ele><time>2026-04-19T09:08:09.963Z</time></trkpt><trkpt lat="41.2890767" lon="0.70428"><ele>451.0</ele><time>2026-04-19T09:08:10.963Z</time></trkpt><trkpt lat="41.2892033" lon="0.70427"><ele>450.00000000000006</ele><time>2026-04-19T09:08:11.963Z</time></trkpt><trkpt lat="41.28931" lon="0.7042467"><ele>449.00000000000006</ele><time>2026-04-19T09:08:12.963Z</time></trkpt><trkpt lat="41.2894083" lon="0.70421"><ele>448.0</ele><time>2026-04-19T09:08:13.962Z</time></trkpt><trkpt lat="41.289495" lon="0.704155"><ele>447.0</ele><time>2026-04-19T09:08:14.963Z</time></trkpt><trkpt lat="41.2895767" lon="0.704075"><ele>447.0</ele><time>2026-04-19T09:08:15.963Z</time></trkpt><trkpt lat="41.289645" lon="0.70398"><ele>447.00000000000006</ele><time>2026-04-19T09:08:16.963Z</time></trkpt><trkpt lat="41.289695" lon="0.7038733"><ele>447.00000000000006</ele><time>2026-04-19T09:08:17.962Z</time></trkpt><trkpt lat="41.2897117" lon="0.703745"><ele>447.0</ele><time>2026-04-19T09:08:18.962Z</time></trkpt><trkpt lat="41.289705" lon="0.7036067"><ele>447.0</ele><time>2026-04-19T09:08:19.963Z</time></trkpt><trkpt lat="41.2897" lon="0.70345"><ele>445.8</ele><time>2026-04-19T09:08:20.962Z</time></trkpt><trkpt lat="41.2897033" lon="0.70331"><ele>444.6</ele><time>2026-04-19T09:08:21.962Z</time></trkpt><trkpt lat="41.2897167" lon="0.703165"><ele>443.40000000000003</ele><time>2026-04-19T09:08:22.963Z</time></trkpt><trkpt lat="41.28973" lon="0.7030183"><ele>442.20000000000005</ele><time>2026-04-19T09:08:23.962Z</time></trkpt><trkpt lat="41.289745" lon="0.702875"><ele>441.0</ele><time>2026-04-19T09:08:24.962Z</time></trkpt><trkpt lat="41.2897617" lon="0.7027367"><ele>441.0</ele><time>2026-04-19T09:08:25.963Z</time></trkpt><trkpt lat="41.2897817" lon="0.7025967"><ele>441.0</ele><time>2026-04-19T09:08:26.962Z</time></trkpt><trkpt lat="41.289805" lon="0.70246"><ele>441.0</ele><time>2026-04-19T09:08:27.963Z</time></trkpt><trkpt lat="41.2898317" lon="0.7023283"><ele>441.0</ele><time>2026-04-19T09:08:28.962Z</time></trkpt><trkpt lat="41.289875" lon="0.7022083"><ele>441.0</ele><time>2026-04-19T09:08:29.962Z</time></trkpt><trkpt lat="41.2899333" lon="0.7020967"><ele>441.0</ele><time>2026-04-19T09:08:30.963Z</time></trkpt><trkpt lat="41.29" lon="0.7020083"><ele>441.0</ele><time>2026-04-19T09:08:31.962Z</time></trkpt><trkpt lat="41.2900867" lon="0.7019533"><ele>441.0</ele><time>2026-04-19T09:08:32.962Z</time></trkpt><trkpt lat="41.2901783" lon="0.7019317"><ele>441.0</ele><time>2026-04-19T09:08:33.963Z</time></trkpt><trkpt lat="41.2902683" lon="0.7018833"><ele>441.0</ele><time>2026-04-19T09:08:34.962Z</time></trkpt><trkpt lat="41.2903567" lon="0.701815"><ele>438.20000000000005</ele><time>2026-04-19T09:08:35.963Z</time></trkpt><trkpt lat="41.2904417" lon="0.701725"><ele>435.40000000000003</ele><time>2026-04-19T09:08:36.962Z</time></trkpt><trkpt lat="41.2905133" lon="0.7016333"><ele>432.6</ele><time>2026-04-19T09:08:37.962Z</time></trkpt><trkpt lat="41.2905883" lon="0.701565"><ele>429.8</ele><time>2026-04-19T09:08:38.962Z</time></trkpt><trkpt lat="41.2906633" lon="0.7015183"><ele>427.0</ele><time>2026-04-19T09:08:39.962Z</time></trkpt><trkpt lat="41.2907433" lon="0.701505"><ele>427.0</ele><time>2026-04-19T09:08:40.963Z</time></trkpt><trkpt lat="41.2908317" lon="0.7015617"><ele>427.0</ele><time>2026-04-19T09:08:41.962Z</time></trkpt><trkpt lat="41.2909283" lon="0.7016733"><ele>427.0</ele><time>2026-04-19T09:08:42.962Z</time></trkpt><trkpt lat="41.2910333" lon="0.7017983"><ele>427.0</ele><time>2026-04-19T09:08:43.962Z</time></trkpt><trkpt lat="41.29111" lon="0.7019183"><ele>429.0</ele><time>2026-04-19T09:08:44.962Z</time></trkpt><trkpt lat="41.291165" lon="0.7020333"><ele>431.00000000000006</ele><time>2026-04-19T09:08:45.963Z</time></trkpt><trkpt lat="41.2911733" lon="0.70218"><ele>433.00000000000006</ele><time>2026-04-19T09:08:46.963Z</time></trkpt><trkpt lat="41.2911817" lon="0.7023283"><ele>435.0</ele><time>2026-04-19T09:08:47.963Z</time></trkpt><trkpt lat="41.29119" lon="0.702445"><ele>437.0</ele><time>2026-04-19T09:08:48.963Z</time></trkpt><trkpt lat="41.2911767" lon="0.7025633"><ele>437.0</ele><time>2026-04-19T09:08:49.963Z</time></trkpt><trkpt lat="41.29114" lon="0.7026883"><ele>437.00000000000006</ele><time>2026-04-19T09:08:50.963Z</time></trkpt><trkpt lat="41.2910733" lon="0.7028083"><ele>437.00000000000006</ele><time>2026-04-19T09:08:51.962Z</time></trkpt><trkpt lat="41.291005" lon="0.7029117"><ele>437.0</ele><time>2026-04-19T09:08:52.962Z</time></trkpt><trkpt lat="41.29095" lon="0.703005"><ele>437.0</ele><time>2026-04-19T09:08:53.962Z</time></trkpt><trkpt lat="41.2909067" lon="0.7030967"><ele>435.16666666666663</ele><time>2026-04-19T09:08:54.962Z</time></trkpt><trkpt lat="41.2908767" lon="0.7031967"><ele>433.3333333333333</ele><time>2026-04-19T09:08:55.963Z</time></trkpt><trkpt lat="41.2908583" lon="0.7033083"><ele>431.5</ele><time>2026-04-19T09:08:56.962Z</time></trkpt><trkpt lat="41.290845" lon="0.70342"><ele>429.66666666666663</ele><time>2026-04-19T09:08:57.963Z</time></trkpt><trkpt lat="41.2908267" lon="0.703535"><ele>427.8333333333333</ele><time>2026-04-19T09:08:58.963Z</time></trkpt><trkpt lat="41.2908033" lon="0.70364"><ele>426.0</ele><time>2026-04-19T09:08:59.963Z</time></trkpt><trkpt lat="41.2907683" lon="0.7037483"><ele>426.0</ele><time>2026-04-19T09:09:00.962Z</time></trkpt><trkpt lat="41.29074" lon="0.7038417"><ele>426.0</ele><time>2026-04-19T09:09:01.963Z</time></trkpt><trkpt lat="41.2907317" lon="0.7039383"><ele>426.0</ele><time>2026-04-19T09:09:02.962Z</time></trkpt><trkpt lat="41.2907517" lon="0.7040217"><ele>426.0</ele><time>2026-04-19T09:09:03.962Z</time></trkpt><trkpt lat="41.290855" lon="0.7040983"><ele>426.0</ele><time>2026-04-19T09:09:05.963Z</time></trkpt><trkpt lat="41.2909267" lon="0.7040917"><ele>426.0</ele><time>2026-04-19T09:09:06.962Z</time></trkpt><trkpt lat="41.2910067" lon="0.70405"><ele>426.0</ele><time>2026-04-19T09:09:07.962Z</time></trkpt><trkpt lat="41.2910883" lon="0.7039617"><ele>426.0</ele><time>2026-04-19T09:09:08.962Z</time></trkpt><trkpt lat="41.2911467" lon="0.7038667"><ele>426.0</ele><time>2026-04-19T09:09:09.962Z</time></trkpt><trkpt lat="41.2912017" lon="0.7037717"><ele>426.0</ele><time>2026-04-19T09:09:10.962Z</time></trkpt><trkpt lat="41.291265" lon="0.7036833"><ele>426.0</ele><time>2026-04-19T09:09:11.963Z</time></trkpt><trkpt lat="41.29134" lon="0.703615"><ele>423.0</ele><time>2026-04-19T09:09:12.962Z</time></trkpt><trkpt lat="41.291425" lon="0.7035567"><ele>420.0</ele><time>2026-04-19T09:09:13.962Z</time></trkpt><trkpt lat="41.2915133" lon="0.7035117"><ele>417.0</ele><time>2026-04-19T09:09:14.962Z</time></trkpt><trkpt lat="41.291605" lon="0.7034867"><ele>414.0</ele><time>2026-04-19T09:09:15.962Z</time></trkpt><trkpt lat="41.2916967" lon="0.7034967"><ele>411.0</ele><time>2026-04-19T09:09:16.962Z</time></trkpt><trkpt lat="41.291795" lon="0.7035133"><ele>411.0</ele><time>2026-04-19T09:09:17.962Z</time></trkpt><trkpt lat="41.2918983" lon="0.703545"><ele>411.0</ele><time>2026-04-19T09:09:18.963Z</time></trkpt><trkpt lat="41.292005" lon="0.703585"><ele>411.0</ele><time>2026-04-19T09:09:19.962Z</time></trkpt><trkpt lat="41.2921117" lon="0.70363"><ele>411.0</ele><time>2026-04-19T09:09:20.962Z</time></trkpt><trkpt lat="41.2922233" lon="0.7036783"><ele>411.0</ele><time>2026-04-19T09:09:21.962Z</time></trkpt><trkpt lat="41.2923317" lon="0.7037267"><ele>412.0</ele><time>2026-04-19T09:09:22.963Z</time></trkpt><trkpt lat="41.2924417" lon="0.7037683"><ele>413.0</ele><time>2026-04-19T09:09:23.962Z</time></trkpt><trkpt lat="41.29255" lon="0.70381"><ele>414.0</ele><time>2026-04-19T09:09:24.963Z</time></trkpt><trkpt lat="41.2926717" lon="0.70382"><ele>415.0</ele><time>2026-04-19T09:09:25.963Z</time></trkpt><trkpt lat="41.2927667" lon="0.7038167"><ele>416.0</ele><time>2026-04-19T09:09:26.962Z</time></trkpt><trkpt lat="41.2928533" lon="0.7038"><ele>415.99999999999994</ele><time>2026-04-19T09:09:27.962Z</time></trkpt><trkpt lat="41.2929367" lon="0.7037483"><ele>416.0</ele><time>2026-04-19T09:09:28.962Z</time></trkpt><trkpt lat="41.2929917" lon="0.7036533"><ele>416.0</ele><time>2026-04-19T09:09:29.963Z</time></trkpt><trkpt lat="41.2930467" lon="0.7035583"><ele>416.0</ele><time>2026-04-19T09:09:30.963Z</time></trkpt><trkpt lat="41.2930817" lon="0.703465"><ele>415.99999999999994</ele><time>2026-04-19T09:09:31.962Z</time></trkpt><trkpt lat="41.2931" lon="0.703365"><ele>416.0</ele><time>2026-04-19T09:09:32.962Z</time></trkpt><trkpt lat="41.2931033" lon="0.7032483"><ele>412.75</ele><time>2026-04-19T09:09:33.963Z</time></trkpt><trkpt lat="41.2930783" lon="0.7031283"><ele>409.5</ele><time>2026-04-19T09:09:34.963Z</time></trkpt><trkpt lat="41.2930317" lon="0.7029967"><ele>406.25</ele><time>2026-04-19T09:09:35.962Z</time></trkpt><trkpt lat="41.292935" lon="0.7029283"><ele>403.0</ele><time>2026-04-19T09:09:36.962Z</time></trkpt><trkpt lat="41.292795" lon="0.702885"><ele>403.0</ele><time>2026-04-19T09:09:37.963Z</time></trkpt><trkpt lat="41.29265" lon="0.702845"><ele>403.0</ele><time>2026-04-19T09:09:38.963Z</time></trkpt><trkpt lat="41.2925417" lon="0.702785"><ele>403.0</ele><time>2026-04-19T09:09:39.963Z</time></trkpt><trkpt lat="41.29245" lon="0.702715"><ele>403.0</ele><time>2026-04-19T09:09:40.963Z</time></trkpt><trkpt lat="41.292395" lon="0.7026167"><ele>402.79999999999995</ele><time>2026-04-19T09:09:41.963Z</time></trkpt><trkpt lat="41.2923933" lon="0.7024983"><ele>402.6</ele><time>2026-04-19T09:09:42.963Z</time></trkpt><trkpt lat="41.2924233" lon="0.7023733"><ele>402.4</ele><time>2026-04-19T09:09:43.962Z</time></trkpt><trkpt lat="41.2924567" lon="0.7022383"><ele>402.20000000000005</ele><time>2026-04-19T09:09:44.962Z</time></trkpt><trkpt lat="41.2924967" lon="0.702105"><ele>402.0</ele><time>2026-04-19T09:09:45.963Z</time></trkpt><trkpt lat="41.2925317" lon="0.7019583"><ele>401.20000000000005</ele><time>2026-04-19T09:09:46.963Z</time></trkpt><trkpt lat="41.292565" lon="0.7018267"><ele>400.4</ele><time>2026-04-19T09:09:47.962Z</time></trkpt><trkpt lat="41.2925983" lon="0.70168"><ele>399.6</ele><time>2026-04-19T09:09:48.963Z</time></trkpt><trkpt lat="41.2926317" lon="0.7015367"><ele>398.79999999999995</ele><time>2026-04-19T09:09:49.963Z</time></trkpt><trkpt lat="41.2926483" lon="0.7013933"><ele>398.0</ele><time>2026-04-19T09:09:50.963Z</time></trkpt><trkpt lat="41.2926417" lon="0.7012317"><ele>397.25</ele><time>2026-04-19T09:09:51.962Z</time></trkpt><trkpt lat="41.2926083" lon="0.7010717"><ele>396.5</ele><time>2026-04-19T09:09:52.963Z</time></trkpt><trkpt lat="41.2925517" lon="0.7009117"><ele>395.75</ele><time>2026-04-19T09:09:53.962Z</time></trkpt><trkpt lat="41.2924633" lon="0.7007283"><ele>395.0</ele><time>2026-04-19T09:09:54.963Z</time></trkpt><trkpt lat="41.2923667" lon="0.7005583"><ele>395.0</ele><time>2026-04-19T09:09:55.963Z</time></trkpt><trkpt lat="41.2922783" lon="0.70036"><ele>395.0</ele><time>2026-04-19T09:09:56.962Z</time></trkpt><trkpt lat="41.292185" lon="0.700155"><ele>395.0</ele><time>2026-04-19T09:09:57.963Z</time></trkpt><trkpt lat="41.2920967" lon="0.6999633"><ele>394.3333333333333</ele><time>2026-04-19T09:09:58.962Z</time></trkpt><trkpt lat="41.2919983" lon="0.6997683"><ele>393.66666666666663</ele><time>2026-04-19T09:09:59.963Z</time></trkpt><trkpt lat="41.2918833" lon="0.6995883"><ele>393.0</ele><time>2026-04-19T09:10:00.963Z</time></trkpt><trkpt lat="41.2917717" lon="0.6994433"><ele>391.75</ele><time>2026-04-19T09:10:01.963Z</time></trkpt><trkpt lat="41.2916617" lon="0.6993117"><ele>390.5</ele><time>2026-04-19T09:10:02.963Z</time></trkpt><trkpt lat="41.2915667" lon="0.69921"><ele>389.25</ele><time>2026-04-19T09:10:03.963Z</time></trkpt><trkpt lat="41.2914767" lon="0.699125"><ele>388.0</ele><time>2026-04-19T09:10:04.962Z</time></trkpt><trkpt lat="41.2913867" lon="0.69905"><ele>388.0</ele><time>2026-04-19T09:10:05.963Z</time></trkpt><trkpt lat="41.291285" lon="0.6989967"><ele>388.0</ele><time>2026-04-19T09:10:06.963Z</time></trkpt><trkpt lat="41.29117" lon="0.6989917"><ele>388.0</ele><time>2026-04-19T09:10:07.962Z</time></trkpt><trkpt lat="41.2910533" lon="0.69902"><ele>388.0</ele><time>2026-04-19T09:10:08.962Z</time></trkpt><trkpt lat="41.290955" lon="0.699055"><ele>388.0</ele><time>2026-04-19T09:10:09.962Z</time></trkpt><trkpt lat="41.2908583" lon="0.6990967"><ele>388.00000000000006</ele><time>2026-04-19T09:10:10.963Z</time></trkpt><trkpt lat="41.2907733" lon="0.6991383"><ele>388.0</ele><time>2026-04-19T09:10:11.962Z</time></trkpt><trkpt lat="41.29069" lon="0.69914"><ele>388.0</ele><time>2026-04-19T09:10:12.963Z</time></trkpt><trkpt lat="41.29061" lon="0.69912"><ele>388.0</ele><time>2026-04-19T09:10:13.962Z</time></trkpt><trkpt lat="41.2905283" lon="0.6990817"><ele>388.00000000000006</ele><time>2026-04-19T09:10:14.962Z</time></trkpt><trkpt lat="41.290455" lon="0.6989983"><ele>388.0</ele><time>2026-04-19T09:10:15.962Z</time></trkpt><trkpt lat="41.2904017" lon="0.69888"><ele>387.0</ele><time>2026-04-19T09:10:16.963Z</time></trkpt><trkpt lat="41.2903467" lon="0.6987383"><ele>386.0</ele><time>2026-04-19T09:10:17.962Z</time></trkpt><trkpt lat="41.2902917" lon="0.6985867"><ele>385.0</ele><time>2026-04-19T09:10:18.963Z</time></trkpt><trkpt lat="41.2902367" lon="0.698435"><ele>384.0</ele><time>2026-04-19T09:10:19.962Z</time></trkpt><trkpt lat="41.2901783" lon="0.6982783"><ele>383.75</ele><time>2026-04-19T09:10:20.962Z</time></trkpt><trkpt lat="41.2901117" lon="0.6981283"><ele>383.5</ele><time>2026-04-19T09:10:21.963Z</time></trkpt><trkpt lat="41.29004" lon="0.69797"><ele>383.25</ele><time>2026-04-19T09:10:22.962Z</time></trkpt><trkpt lat="41.2899767" lon="0.697815"><ele>383.0</ele><time>2026-04-19T09:10:23.962Z</time></trkpt><trkpt lat="41.2899033" lon="0.697665"><ele>384.0</ele><time>2026-04-19T09:10:24.962Z</time></trkpt><trkpt lat="41.2898417" lon="0.69752"><ele>385.0</ele><time>2026-04-19T09:10:25.962Z</time></trkpt><trkpt lat="41.2897833" lon="0.6973833"><ele>386.0</ele><time>2026-04-19T09:10:26.963Z</time></trkpt><trkpt lat="41.28972" lon="0.6972517"><ele>387.0</ele><time>2026-04-19T09:10:27.962Z</time></trkpt><trkpt lat="41.2896717" lon="0.6971067"><ele>384.75</ele><time>2026-04-19T09:10:28.962Z</time></trkpt><trkpt lat="41.289635" lon="0.6969467"><ele>382.5</ele><time>2026-04-19T09:10:29.963Z</time></trkpt><trkpt lat="41.2895983" lon="0.6967833"><ele>380.25</ele><time>2026-04-19T09:10:30.962Z</time></trkpt><trkpt lat="41.2895617" lon="0.6966333"><ele>378.0</ele><time>2026-04-19T09:10:31.962Z</time></trkpt><trkpt lat="41.2895283" lon="0.6964817"><ele>377.5</ele><time>2026-04-19T09:10:32.963Z</time></trkpt><trkpt lat="41.289495" lon="0.6963317"><ele>377.0</ele><time>2026-04-19T09:10:33.962Z</time></trkpt><trkpt lat="41.289465" lon="0.6961883"><ele>376.5</ele><time>2026-04-19T09:10:34.963Z</time></trkpt><trkpt lat="41.28944" lon="0.6960383"><ele>376.0</ele><time>2026-04-19T09:10:35.962Z</time></trkpt><trkpt lat="41.289405" lon="0.6958933"><ele>375.25</ele><time>2026-04-19T09:10:36.962Z</time></trkpt><trkpt lat="41.2893617" lon="0.69576"><ele>374.5</ele><time>2026-04-19T09:10:37.962Z</time></trkpt><trkpt lat="41.2893033" lon="0.6956283"><ele>373.75</ele><time>2026-04-19T09:10:38.963Z</time></trkpt><trkpt lat="41.289235" lon="0.69551"><ele>373.0</ele><time>2026-04-19T09:10:39.963Z</time></trkpt><trkpt lat="41.28916" lon="0.695385"><ele>373.0</ele><time>2026-04-19T09:10:40.963Z</time></trkpt><trkpt lat="41.28908" lon="0.6952633"><ele>373.0</ele><time>2026-04-19T09:10:41.962Z</time></trkpt><trkpt lat="41.28899" lon="0.695135"><ele>373.0</ele><time>2026-04-19T09:10:42.963Z</time></trkpt><trkpt lat="41.2889083" lon="0.6950217"><ele>373.0</ele><time>2026-04-19T09:10:43.962Z</time></trkpt><trkpt lat="41.2888317" lon="0.6949233"><ele>373.0</ele><time>2026-04-19T09:10:44.962Z</time></trkpt><trkpt lat="41.2887517" lon="0.6948417"><ele>373.0</ele><time>2026-04-19T09:10:45.962Z</time></trkpt><trkpt lat="41.2886667" lon="0.6947783"><ele>373.0</ele><time>2026-04-19T09:10:46.962Z</time></trkpt><trkpt lat="41.2885733" lon="0.69472"><ele>373.0</ele><time>2026-04-19T09:10:47.962Z</time></trkpt><trkpt lat="41.2884917" lon="0.6946517"><ele>373.0</ele><time>2026-04-19T09:10:48.962Z</time></trkpt><trkpt lat="41.2884117" lon="0.6945583"><ele>373.0</ele><time>2026-04-19T09:10:49.963Z</time></trkpt><trkpt lat="41.2883583" lon="0.6944517"><ele>373.0</ele><time>2026-04-19T09:10:50.962Z</time></trkpt><trkpt lat="41.288325" lon="0.6943367"><ele>373.0</ele><time>2026-04-19T09:10:51.962Z</time></trkpt><trkpt lat="41.2883367" lon="0.694205"><ele>373.0</ele><time>2026-04-19T09:10:52.962Z</time></trkpt><trkpt lat="41.2883867" lon="0.69406"><ele>373.0</ele><time>2026-04-19T09:10:53.963Z</time></trkpt><trkpt lat="41.2884117" lon="0.69392"><ele>372.25</ele><time>2026-04-19T09:10:54.963Z</time></trkpt><trkpt lat="41.2884217" lon="0.6937683"><ele>371.5</ele><time>2026-04-19T09:10:55.962Z</time></trkpt><trkpt lat="41.2884183" lon="0.6936033"><ele>370.75</ele><time>2026-04-19T09:10:56.963Z</time></trkpt><trkpt lat="41.2884183" lon="0.6934183"><ele>370.0</ele><time>2026-04-19T09:10:57.963Z</time></trkpt><trkpt lat="41.2883983" lon="0.6932367"><ele>368.25</ele><time>2026-04-19T09:10:58.962Z</time></trkpt><trkpt lat="41.28838" lon="0.6930533"><ele>366.5</ele><time>2026-04-19T09:10:59.963Z</time></trkpt><trkpt lat="41.2883567" lon="0.69287"><ele>364.75</ele><time>2026-04-19T09:11:00.962Z</time></trkpt><trkpt lat="41.288335" lon="0.6926933"><ele>363.0</ele><time>2026-04-19T09:11:01.962Z</time></trkpt><trkpt lat="41.2883183" lon="0.6925167"><ele>363.0</ele><time>2026-04-19T09:11:02.963Z</time></trkpt><trkpt lat="41.2883033" lon="0.69235"><ele>363.0</ele><time>2026-04-19T09:11:03.962Z</time></trkpt><trkpt lat="41.2882867" lon="0.6921867"><ele>363.0</ele><time>2026-04-19T09:11:04.963Z</time></trkpt><trkpt lat="41.2882667" lon="0.6920233"><ele>363.0</ele><time>2026-04-19T09:11:05.962Z</time></trkpt><trkpt lat="41.2882433" lon="0.6918683"><ele>363.0</ele><time>2026-04-19T09:11:06.963Z</time></trkpt><trkpt lat="41.288205" lon="0.691725"><ele>363.0</ele><time>2026-04-19T09:11:07.963Z</time></trkpt><trkpt lat="41.2881483" lon="0.6915967"><ele>363.0</ele><time>2026-04-19T09:11:08.963Z</time></trkpt><trkpt lat="41.2880667" lon="0.6914917"><ele>363.0</ele><time>2026-04-19T09:11:09.962Z</time></trkpt><trkpt lat="41.2879617" lon="0.691395"><ele>362.25</ele><time>2026-04-19T09:11:10.962Z</time></trkpt><trkpt lat="41.2878567" lon="0.6913117"><ele>361.5</ele><time>2026-04-19T09:11:11.963Z</time></trkpt><trkpt lat="41.28776" lon="0.6912267"><ele>360.75</ele><time>2026-04-19T09:11:12.962Z</time></trkpt><trkpt lat="41.2876717" lon="0.6911333"><ele>360.0</ele><time>2026-04-19T09:11:13.963Z</time></trkpt><trkpt lat="41.287595" lon="0.691025"><ele>360.0</ele><time>2026-04-19T09:11:14.963Z</time></trkpt><trkpt lat="41.2875233" lon="0.6909117"><ele>360.0</ele><time>2026-04-19T09:11:15.963Z</time></trkpt><trkpt lat="41.28746" lon="0.6907883"><ele>360.0</ele><time>2026-04-19T09:11:16.962Z</time></trkpt><trkpt lat="41.2874017" lon="0.6906633"><ele>360.0</ele><time>2026-04-19T09:11:17.963Z</time></trkpt><trkpt lat="41.2873383" lon="0.6905383"><ele>360.0</ele><time>2026-04-19T09:11:18.962Z</time></trkpt><trkpt lat="41.2872717" lon="0.6904183"><ele>358.25</ele><time>2026-04-19T09:11:19.963Z</time></trkpt><trkpt lat="41.2872117" lon="0.6902983"><ele>356.5</ele><time>2026-04-19T09:11:20.962Z</time></trkpt><trkpt lat="41.2871583" lon="0.6901733"><ele>354.75</ele><time>2026-04-19T09:11:21.962Z</time></trkpt><trkpt lat="41.287115" lon="0.6900267"><ele>353.0</ele><time>2026-04-19T09:11:22.963Z</time></trkpt><trkpt lat="41.28708" lon="0.68988"><ele>353.0</ele><time>2026-04-19T09:11:23.963Z</time></trkpt><trkpt lat="41.2870533" lon="0.68974"><ele>353.0</ele><time>2026-04-19T09:11:24.962Z</time></trkpt><trkpt lat="41.287035" lon="0.68961"><ele>353.0</ele><time>2026-04-19T09:11:25.962Z</time></trkpt><trkpt lat="41.2870367" lon="0.68948"><ele>353.0</ele><time>2026-04-19T09:11:26.962Z</time></trkpt><trkpt lat="41.28706" lon="0.6893483"><ele>353.0</ele><time>2026-04-19T09:11:27.963Z</time></trkpt><trkpt lat="41.2871117" lon="0.68922"><ele>353.75</ele><time>2026-04-19T09:11:28.962Z</time></trkpt><trkpt lat="41.2871983" lon="0.68911"><ele>354.5</ele><time>2026-04-19T09:11:29.962Z</time></trkpt><trkpt lat="41.2872833" lon="0.6890083"><ele>355.25</ele><time>2026-04-19T09:11:30.963Z</time></trkpt><trkpt lat="41.2873717" lon="0.6889067"><ele>356.0</ele><time>2026-04-19T09:11:31.963Z</time></trkpt><trkpt lat="41.2874583" lon="0.6887983"><ele>358.0</ele><time>2026-04-19T09:11:32.963Z</time></trkpt><trkpt lat="41.28753" lon="0.68868"><ele>360.0</ele><time>2026-04-19T09:11:33.963Z</time></trkpt><trkpt lat="41.2875983" lon="0.688575"><ele>362.0</ele><time>2026-04-19T09:11:34.963Z</time></trkpt><trkpt lat="41.287655" lon="0.6884833"><ele>364.0</ele><time>2026-04-19T09:11:35.962Z</time></trkpt><trkpt lat="41.2877" lon="0.68841"><ele>366.0</ele><time>2026-04-19T09:11:36.962Z</time></trkpt><trkpt lat="41.2877433" lon="0.688345"><ele>368.0</ele><time>2026-04-19T09:11:37.963Z</time></trkpt><trkpt lat="41.287785" lon="0.6882817"><ele>368.0</ele><time>2026-04-19T09:11:38.963Z</time></trkpt><trkpt lat="41.2878667" lon="0.6881633"><ele>368.0</ele><time>2026-04-19T09:11:40.963Z</time></trkpt><trkpt lat="41.2879283" lon="0.6881217"><ele>368.0</ele><time>2026-04-19T09:11:41.962Z</time></trkpt><trkpt lat="41.2880033" lon="0.6880733"><ele>368.0</ele><time>2026-04-19T09:11:42.963Z</time></trkpt><trkpt lat="41.288085" lon="0.6880383"><ele>368.0</ele><time>2026-04-19T09:11:43.963Z</time></trkpt><trkpt lat="41.28816" lon="0.687985"><ele>368.0</ele><time>2026-04-19T09:11:44.963Z</time></trkpt><trkpt lat="41.28823" lon="0.6879167"><ele>369.79999999999995</ele><time>2026-04-19T09:11:45.963Z</time></trkpt><trkpt lat="41.2882817" lon="0.6878183"><ele>371.6</ele><time>2026-04-19T09:11:46.962Z</time></trkpt><trkpt lat="41.2883017" lon="0.6877033"><ele>373.4</ele><time>2026-04-19T09:11:47.963Z</time></trkpt><trkpt lat="41.2882933" lon="0.687565"><ele>375.20000000000005</ele><time>2026-04-19T09:11:48.963Z</time></trkpt><trkpt lat="41.2882417" lon="0.68742"><ele>377.0</ele><time>2026-04-19T09:11:49.962Z</time></trkpt><trkpt lat="41.288165" lon="0.6872883"><ele>377.0</ele><time>2026-04-19T09:11:50.963Z</time></trkpt><trkpt lat="41.2881" lon="0.6871917"><ele>377.0</ele><time>2026-04-19T09:11:51.963Z</time></trkpt><trkpt lat="41.2880583" lon="0.68708"><ele>377.0</ele><time>2026-04-19T09:11:52.963Z</time></trkpt><trkpt lat="41.288045" lon="0.686965"><ele>377.0</ele><time>2026-04-19T09:11:53.963Z</time></trkpt><trkpt lat="41.2880417" lon="0.6868367"><ele>377.0</ele><time>2026-04-19T09:11:54.963Z</time></trkpt><trkpt lat="41.2880433" lon="0.686695"><ele>377.20000000000005</ele><time>2026-04-19T09:11:55.963Z</time></trkpt><trkpt lat="41.2880467" lon="0.686555"><ele>377.4</ele><time>2026-04-19T09:11:56.962Z</time></trkpt><trkpt lat="41.2880567" lon="0.6864167"><ele>377.6</ele><time>2026-04-19T09:11:57.963Z</time></trkpt><trkpt lat="41.2880783" lon="0.686275"><ele>377.79999999999995</ele><time>2026-04-19T09:11:58.963Z</time></trkpt><trkpt lat="41.28811" lon="0.6861383"><ele>378.0</ele><time>2026-04-19T09:11:59.962Z</time></trkpt><trkpt lat="41.2881433" lon="0.686005"><ele>379.4</ele><time>2026-04-19T09:12:00.963Z</time></trkpt><trkpt lat="41.288175" lon="0.6858783"><ele>380.79999999999995</ele><time>2026-04-19T09:12:01.963Z</time></trkpt><trkpt lat="41.28821" lon="0.685775"><ele>382.2</ele><time>2026-04-19T09:12:02.963Z</time></trkpt><trkpt lat="41.2882417" lon="0.6856633"><ele>383.6</ele><time>2026-04-19T09:12:03.963Z</time></trkpt><trkpt lat="41.288275" lon="0.6855467"><ele>385.0</ele><time>2026-04-19T09:12:04.962Z</time></trkpt><trkpt lat="41.2883033" lon="0.6854267"><ele>385.0</ele><time>2026-04-19T09:12:05.962Z</time></trkpt><trkpt lat="41.28834" lon="0.68529"><ele>385.0</ele><time>2026-04-19T09:12:06.962Z</time></trkpt><trkpt lat="41.2883767" lon="0.6851417"><ele>385.0</ele><time>2026-04-19T09:12:07.963Z</time></trkpt><trkpt lat="41.2884167" lon="0.684995"><ele>385.0</ele><time>2026-04-19T09:12:08.963Z</time></trkpt><trkpt lat="41.2884567" lon="0.6848517"><ele>384.6</ele><time>2026-04-19T09:12:09.963Z</time></trkpt><trkpt lat="41.2884933" lon="0.6847217"><ele>384.2</ele><time>2026-04-19T09:12:10.962Z</time></trkpt><trkpt lat="41.2885367" lon="0.6846017"><ele>383.79999999999995</ele><time>2026-04-19T09:12:11.962Z</time></trkpt><trkpt lat="41.2885917" lon="0.6845033"><ele>383.4</ele><time>2026-04-19T09:12:12.963Z</time></trkpt><trkpt lat="41.2886783" lon="0.684435"><ele>383.0</ele><time>2026-04-19T09:12:13.962Z</time></trkpt><trkpt lat="41.288785" lon="0.684405"><ele>382.5</ele><time>2026-04-19T09:12:14.963Z</time></trkpt><trkpt lat="41.2888983" lon="0.6843933"><ele>382.0</ele><time>2026-04-19T09:12:15.963Z</time></trkpt><trkpt lat="41.289015" lon="0.68441"><ele>381.5</ele><time>2026-04-19T09:12:16.962Z</time></trkpt><trkpt lat="41.2891333" lon="0.684455"><ele>381.0</ele><time>2026-04-19T09:12:17.963Z</time></trkpt><trkpt lat="41.2892483" lon="0.6845083"><ele>381.0</ele><time>2026-04-19T09:12:18.963Z</time></trkpt><trkpt lat="41.289355" lon="0.68455"><ele>381.0</ele><time>2026-04-19T09:12:19.963Z</time></trkpt><trkpt lat="41.28946" lon="0.68457"><ele>381.0</ele><time>2026-04-19T09:12:20.963Z</time></trkpt><trkpt lat="41.2895567" lon="0.6845683"><ele>381.0</ele><time>2026-04-19T09:12:21.963Z</time></trkpt><trkpt lat="41.28964" lon="0.68454"><ele>381.0</ele><time>2026-04-19T09:12:22.963Z</time></trkpt><trkpt lat="41.2897133" lon="0.6844717"><ele>381.4</ele><time>2026-04-19T09:12:23.962Z</time></trkpt><trkpt lat="41.2897767" lon="0.6843733"><ele>381.8</ele><time>2026-04-19T09:12:24.962Z</time></trkpt><trkpt lat="41.2898117" lon="0.6842417"><ele>382.2</ele><time>2026-04-19T09:12:25.962Z</time></trkpt><trkpt lat="41.28981" lon="0.6841267"><ele>382.59999999999997</ele><time>2026-04-19T09:12:26.962Z</time></trkpt><trkpt lat="41.289775" lon="0.6839733"><ele>383.0</ele><time>2026-04-19T09:12:27.962Z</time></trkpt><trkpt lat="41.2897" lon="0.6838167"><ele>378.6666666666667</ele><time>2026-04-19T09:12:28.962Z</time></trkpt><trkpt lat="41.289565" lon="0.6836467"><ele>374.3333333333333</ele><time>2026-04-19T09:12:29.963Z</time></trkpt><trkpt lat="41.289435" lon="0.6834833"><ele>370.0</ele><time>2026-04-19T09:12:30.963Z</time></trkpt><trkpt lat="41.289335" lon="0.683345"><ele>369.25</ele><time>2026-04-19T09:12:31.963Z</time></trkpt><trkpt lat="41.2892317" lon="0.68322"><ele>368.5</ele><time>2026-04-19T09:12:32.963Z</time></trkpt><trkpt lat="41.2891467" lon="0.683095"><ele>367.75</ele><time>2026-04-19T09:12:33.962Z</time></trkpt><trkpt lat="41.28907" lon="0.6829833"><ele>367.0</ele><time>2026-04-19T09:12:34.963Z</time></trkpt><trkpt lat="41.2890183" lon="0.68285"><ele>367.0</ele><time>2026-04-19T09:12:35.962Z</time></trkpt><trkpt lat="41.2889867" lon="0.6826967"><ele>367.0</ele><time>2026-04-19T09:12:36.963Z</time></trkpt><trkpt lat="41.2889783" lon="0.682515"><ele>367.0</ele><time>2026-04-19T09:12:37.962Z</time></trkpt><trkpt lat="41.288985" lon="0.6823417"><ele>367.0</ele><time>2026-04-19T09:12:38.962Z</time></trkpt><trkpt lat="41.28899" lon="0.6821767"><ele>367.0</ele><time>2026-04-19T09:12:39.963Z</time></trkpt><trkpt lat="41.2889933" lon="0.68203"><ele>367.0</ele><time>2026-04-19T09:12:40.962Z</time></trkpt><trkpt lat="41.2889767" lon="0.6818767"><ele>367.0</ele><time>2026-04-19T09:12:41.962Z</time></trkpt><trkpt lat="41.2889283" lon="0.681735"><ele>367.0</ele><time>2026-04-19T09:12:42.962Z</time></trkpt><trkpt lat="41.2888367" lon="0.6816167"><ele>365.75</ele><time>2026-04-19T09:12:43.962Z</time></trkpt><trkpt lat="41.2887267" lon="0.6815133"><ele>364.5</ele><time>2026-04-19T09:12:44.962Z</time></trkpt><trkpt lat="41.2886133" lon="0.6814167"><ele>363.25</ele><time>2026-04-19T09:12:45.963Z</time></trkpt><trkpt lat="41.2885067" lon="0.6813233"><ele>362.0</ele><time>2026-04-19T09:12:46.962Z</time></trkpt><trkpt lat="41.2884117" lon="0.6812283"><ele>362.0</ele><time>2026-04-19T09:12:47.963Z</time></trkpt><trkpt lat="41.2883217" lon="0.68113"><ele>362.0</ele><time>2026-04-19T09:12:48.963Z</time></trkpt><trkpt lat="41.2882383" lon="0.6810517"><ele>362.0</ele><time>2026-04-19T09:12:49.962Z</time></trkpt><trkpt lat="41.2881733" lon="0.6809533"><ele>362.0</ele><time>2026-04-19T09:12:50.962Z</time></trkpt><trkpt lat="41.2881233" lon="0.6808467"><ele>362.0</ele><time>2026-04-19T09:12:51.962Z</time></trkpt><trkpt lat="41.2881083" lon="0.68073"><ele>362.0</ele><time>2026-04-19T09:12:52.962Z</time></trkpt><trkpt lat="41.288135" lon="0.680585"><ele>362.0</ele><time>2026-04-19T09:12:53.962Z</time></trkpt><trkpt lat="41.288165" lon="0.6804283"><ele>362.0</ele><time>2026-04-19T09:12:54.963Z</time></trkpt><trkpt lat="41.2882017" lon="0.6802517"><ele>362.0</ele><time>2026-04-19T09:12:55.962Z</time></trkpt><trkpt lat="41.2882283" lon="0.6800883"><ele>360.75</ele><time>2026-04-19T09:12:56.963Z</time></trkpt><trkpt lat="41.288245" lon="0.6799217"><ele>359.5</ele><time>2026-04-19T09:12:57.963Z</time></trkpt><trkpt lat="41.28827" lon="0.6797683"><ele>358.25</ele><time>2026-04-19T09:12:58.962Z</time></trkpt><trkpt lat="41.288295" lon="0.679615"><ele>357.0</ele><time>2026-04-19T09:12:59.963Z</time></trkpt><trkpt lat="41.2883167" lon="0.6794533"><ele>355.5</ele><time>2026-04-19T09:13:00.963Z</time></trkpt><trkpt lat="41.2883367" lon="0.67929"><ele>354.0</ele><time>2026-04-19T09:13:01.962Z</time></trkpt><trkpt lat="41.2883633" lon="0.6791333"><ele>352.5</ele><time>2026-04-19T09:13:02.963Z</time></trkpt><trkpt lat="41.2883883" lon="0.6789667"><ele>351.0</ele><time>2026-04-19T09:13:03.963Z</time></trkpt><trkpt lat="41.2884183" lon="0.678805"><ele>351.0</ele><time>2026-04-19T09:13:04.963Z</time></trkpt><trkpt lat="41.2884483" lon="0.6786417"><ele>351.0</ele><time>2026-04-19T09:13:05.962Z</time></trkpt><trkpt lat="41.288475" lon="0.6784733"><ele>351.0</ele><time>2026-04-19T09:13:06.963Z</time></trkpt><trkpt lat="41.2885" lon="0.678305"><ele>351.0</ele><time>2026-04-19T09:13:07.963Z</time></trkpt><trkpt lat="41.2885233" lon="0.6781333"><ele>349.75</ele><time>2026-04-19T09:13:08.962Z</time></trkpt><trkpt lat="41.2885383" lon="0.6779567"><ele>348.5</ele><time>2026-04-19T09:13:09.963Z</time></trkpt><trkpt lat="41.2885417" lon="0.6777767"><ele>347.25</ele><time>2026-04-19T09:13:10.962Z</time></trkpt><trkpt lat="41.2885417" lon="0.6775983"><ele>346.0</ele><time>2026-04-19T09:13:11.962Z</time></trkpt><trkpt lat="41.2885367" lon="0.6774083"><ele>346.0</ele><time>2026-04-19T09:13:12.962Z</time></trkpt><trkpt lat="41.2885267" lon="0.6772217"><ele>346.0</ele><time>2026-04-19T09:13:13.962Z</time></trkpt><trkpt lat="41.2885233" lon="0.67704"><ele>346.0</ele><time>2026-04-19T09:13:14.963Z</time></trkpt><trkpt lat="41.288535" lon="0.6768533"><ele>346.0</ele><time>2026-04-19T09:13:15.963Z</time></trkpt><trkpt lat="41.2885583" lon="0.67667"><ele>346.0</ele><time>2026-04-19T09:13:16.963Z</time></trkpt><trkpt lat="41.2885833" lon="0.6764933"><ele>346.0</ele><time>2026-04-19T09:13:17.962Z</time></trkpt><trkpt lat="41.2886083" lon="0.6763217"><ele>346.0</ele><time>2026-04-19T09:13:18.962Z</time></trkpt><trkpt lat="41.28863" lon="0.6761633"><ele>346.0</ele><time>2026-04-19T09:13:19.963Z</time></trkpt><trkpt lat="41.28865" lon="0.6760283"><ele>344.8333333333333</ele><time>2026-04-19T09:13:20.963Z</time></trkpt><trkpt lat="41.2886633" lon="0.6759083"><ele>343.66666666666663</ele><time>2026-04-19T09:13:21.963Z</time></trkpt><trkpt lat="41.2886733" lon="0.6758"><ele>342.5</ele><time>2026-04-19T09:13:22.962Z</time></trkpt><trkpt lat="41.2886783" lon="0.6756917"><ele>341.3333333333333</ele><time>2026-04-19T09:13:23.963Z</time></trkpt><trkpt lat="41.2886817" lon="0.6755833"><ele>340.1666666666667</ele><time>2026-04-19T09:13:24.962Z</time></trkpt><trkpt lat="41.2886767" lon="0.6754917"><ele>339.0</ele><time>2026-04-19T09:13:25.962Z</time></trkpt><trkpt lat="41.2886533" lon="0.6753783"><ele>339.0</ele><time>2026-04-19T09:13:26.962Z</time></trkpt><trkpt lat="41.2886017" lon="0.6752783"><ele>339.0</ele><time>2026-04-19T09:13:27.962Z</time></trkpt><trkpt lat="41.2885267" lon="0.6752167"><ele>339.0</ele><time>2026-04-19T09:13:28.963Z</time></trkpt><trkpt lat="41.2884183" lon="0.6751983"><ele>339.0</ele><time>2026-04-19T09:13:29.962Z</time></trkpt><trkpt lat="41.2882933" lon="0.6752"><ele>339.0</ele><time>2026-04-19T09:13:30.962Z</time></trkpt><trkpt lat="41.2881667" lon="0.6751983"><ele>338.0</ele><time>2026-04-19T09:13:31.962Z</time></trkpt><trkpt lat="41.28804" lon="0.6752017"><ele>337.0</ele><time>2026-04-19T09:13:32.962Z</time></trkpt><trkpt lat="41.28793" lon="0.675195"><ele>336.0</ele><time>2026-04-19T09:13:33.962Z</time></trkpt><trkpt lat="41.287825" lon="0.675185"><ele>335.0</ele><time>2026-04-19T09:13:34.963Z</time></trkpt><trkpt lat="41.2877267" lon="0.6751667"><ele>334.0</ele><time>2026-04-19T09:13:35.963Z</time></trkpt><trkpt lat="41.2876533" lon="0.6751033"><ele>334.0</ele><time>2026-04-19T09:13:36.962Z</time></trkpt><trkpt lat="41.2875867" lon="0.675005"><ele>334.0</ele><time>2026-04-19T09:13:37.962Z</time></trkpt><trkpt lat="41.287545" lon="0.6748783"><ele>334.0</ele><time>2026-04-19T09:13:38.963Z</time></trkpt><trkpt lat="41.2875483" lon="0.6747117"><ele>334.0</ele><time>2026-04-19T09:13:39.962Z</time></trkpt><trkpt lat="41.2875633" lon="0.6745467"><ele>333.79999999999995</ele><time>2026-04-19T09:13:40.962Z</time></trkpt><trkpt lat="41.287565" lon="0.6743967"><ele>333.59999999999997</ele><time>2026-04-19T09:13:41.963Z</time></trkpt><trkpt lat="41.2875717" lon="0.6742567"><ele>333.4</ele><time>2026-04-19T09:13:42.962Z</time></trkpt><trkpt lat="41.2875733" lon="0.6741217"><ele>333.2</ele><time>2026-04-19T09:13:43.962Z</time></trkpt><trkpt lat="41.287575" lon="0.6739917"><ele>333.0</ele><time>2026-04-19T09:13:44.963Z</time></trkpt><trkpt lat="41.2875717" lon="0.6738667"><ele>333.0</ele><time>2026-04-19T09:13:45.963Z</time></trkpt><trkpt lat="41.28756" lon="0.6737367"><ele>333.0</ele><time>2026-04-19T09:13:46.963Z</time></trkpt><trkpt lat="41.2875333" lon="0.6735967"><ele>333.0</ele><time>2026-04-19T09:13:47.962Z</time></trkpt><trkpt lat="41.28748" lon="0.6734517"><ele>333.0</ele><time>2026-04-19T09:13:48.963Z</time></trkpt><trkpt lat="41.287415" lon="0.6733117"><ele>333.0</ele><time>2026-04-19T09:13:49.962Z</time></trkpt><trkpt lat="41.287345" lon="0.6731817"><ele>333.0</ele><time>2026-04-19T09:13:50.963Z</time></trkpt><trkpt lat="41.2872767" lon="0.6730567"><ele>333.0</ele><time>2026-04-19T09:13:51.962Z</time></trkpt><trkpt lat="41.28721" lon="0.672935"><ele>333.0</ele><time>2026-04-19T09:13:52.963Z</time></trkpt><trkpt lat="41.28714" lon="0.6728133"><ele>330.75</ele><time>2026-04-19T09:13:53.963Z</time></trkpt><trkpt lat="41.2870667" lon="0.6726733"><ele>328.5</ele><time>2026-04-19T09:13:54.962Z</time></trkpt><trkpt lat="41.286995" lon="0.6725467"><ele>326.25</ele><time>2026-04-19T09:13:55.963Z</time></trkpt><trkpt lat="41.28693" lon="0.6724233"><ele>324.0</ele><time>2026-04-19T09:13:56.963Z</time></trkpt><trkpt lat="41.286875" lon="0.6723167"><ele>324.0</ele><time>2026-04-19T09:13:57.963Z</time></trkpt><trkpt lat="41.2868267" lon="0.6721983"><ele>324.0</ele><time>2026-04-19T09:13:58.962Z</time></trkpt><trkpt lat="41.2868017" lon="0.67206"><ele>324.0</ele><time>2026-04-19T09:13:59.962Z</time></trkpt><trkpt lat="41.2868017" lon="0.6719083"><ele>324.0</ele><time>2026-04-19T09:14:00.963Z</time></trkpt><trkpt lat="41.2868117" lon="0.6717617"><ele>324.0</ele><time>2026-04-19T09:14:01.963Z</time></trkpt><trkpt lat="41.28682" lon="0.671625"><ele>323.79999999999995</ele><time>2026-04-19T09:14:02.962Z</time></trkpt><trkpt lat="41.2868267" lon="0.6715017"><ele>323.59999999999997</ele><time>2026-04-19T09:14:03.963Z</time></trkpt><trkpt lat="41.2868317" lon="0.67138"><ele>323.4</ele><time>2026-04-19T09:14:04.962Z</time></trkpt><trkpt lat="41.2868583" lon="0.6712567"><ele>323.2</ele><time>2026-04-19T09:14:05.963Z</time></trkpt><trkpt lat="41.2869083" lon="0.6711333"><ele>323.0</ele><time>2026-04-19T09:14:06.963Z</time></trkpt><trkpt lat="41.2869833" lon="0.6710383"><ele>323.5</ele><time>2026-04-19T09:14:07.963Z</time></trkpt><trkpt lat="41.2870733" lon="0.67096"><ele>324.0</ele><time>2026-04-19T09:14:08.963Z</time></trkpt><trkpt lat="41.287175" lon="0.6708883"><ele>324.5</ele><time>2026-04-19T09:14:09.962Z</time></trkpt><trkpt lat="41.287275" lon="0.67081"><ele>325.0</ele><time>2026-04-19T09:14:10.963Z</time></trkpt><trkpt lat="41.2873733" lon="0.6707367"><ele>325.0</ele><time>2026-04-19T09:14:11.963Z</time></trkpt><trkpt lat="41.2874533" lon="0.67065"><ele>325.0</ele><time>2026-04-19T09:14:12.963Z</time></trkpt><trkpt lat="41.2875017" lon="0.6705383"><ele>325.0</ele><time>2026-04-19T09:14:13.963Z</time></trkpt><trkpt lat="41.2875267" lon="0.6704117"><ele>325.0</ele><time>2026-04-19T09:14:14.962Z</time></trkpt><trkpt lat="41.2875267" lon="0.6702833"><ele>325.0</ele><time>2026-04-19T09:14:15.962Z</time></trkpt><trkpt lat="41.2875083" lon="0.67017"><ele>325.2</ele><time>2026-04-19T09:14:16.962Z</time></trkpt><trkpt lat="41.2874583" lon="0.670075"><ele>325.4</ele><time>2026-04-19T09:14:17.963Z</time></trkpt><trkpt lat="41.28737" lon="0.67"><ele>325.6</ele><time>2026-04-19T09:14:18.962Z</time></trkpt><trkpt lat="41.2872567" lon="0.66996"><ele>325.8</ele><time>2026-04-19T09:14:19.963Z</time></trkpt><trkpt lat="41.2871517" lon="0.66993"><ele>326.0</ele><time>2026-04-19T09:14:20.962Z</time></trkpt><trkpt lat="41.2870483" lon="0.6698867"><ele>326.4</ele><time>2026-04-19T09:14:21.963Z</time></trkpt><trkpt lat="41.286985" lon="0.6697867"><ele>326.8</ele><time>2026-04-19T09:14:22.962Z</time></trkpt><trkpt lat="41.2868983" lon="0.669705"><ele>327.2</ele><time>2026-04-19T09:14:23.962Z</time></trkpt><trkpt lat="41.2868483" lon="0.669605"><ele>327.59999999999997</ele><time>2026-04-19T09:14:24.962Z</time></trkpt><trkpt lat="41.28682" lon="0.6694967"><ele>328.0</ele><time>2026-04-19T09:14:25.963Z</time></trkpt><trkpt lat="41.2868017" lon="0.6693817"><ele>328.0</ele><time>2026-04-19T09:14:26.963Z</time></trkpt><trkpt lat="41.2867917" lon="0.6692567"><ele>328.0</ele><time>2026-04-19T09:14:27.963Z</time></trkpt><trkpt lat="41.2867717" lon="0.669145"><ele>328.0</ele><time>2026-04-19T09:14:28.962Z</time></trkpt><trkpt lat="41.2867417" lon="0.669045"><ele>328.0</ele><time>2026-04-19T09:14:29.962Z</time></trkpt><trkpt lat="41.2867117" lon="0.6689467"><ele>328.0</ele><time>2026-04-19T09:14:30.963Z</time></trkpt><trkpt lat="41.2866617" lon="0.6688567"><ele>328.0</ele><time>2026-04-19T09:14:31.962Z</time></trkpt><trkpt lat="41.2865933" lon="0.6687817"><ele>328.0</ele><time>2026-04-19T09:14:32.963Z</time></trkpt><trkpt lat="41.286505" lon="0.6687333"><ele>328.0</ele><time>2026-04-19T09:14:33.963Z</time></trkpt><trkpt lat="41.2864" lon="0.6687167"><ele>328.0</ele><time>2026-04-19T09:14:34.963Z</time></trkpt><trkpt lat="41.286295" lon="0.6687"><ele>328.0</ele><time>2026-04-19T09:14:35.963Z</time></trkpt><trkpt lat="41.2862033" lon="0.6686767"><ele>328.0</ele><time>2026-04-19T09:14:36.963Z</time></trkpt><trkpt lat="41.2861233" lon="0.6686383"><ele>328.8333333333333</ele><time>2026-04-19T09:14:37.963Z</time></trkpt><trkpt lat="41.286065" lon="0.6685583"><ele>329.66666666666663</ele><time>2026-04-19T09:14:38.963Z</time></trkpt><trkpt lat="41.2860067" lon="0.6684783"><ele>330.5</ele><time>2026-04-19T09:14:39.962Z</time></trkpt><trkpt lat="41.2859633" lon="0.6683833"><ele>331.3333333333333</ele><time>2026-04-19T09:14:40.963Z</time></trkpt><trkpt lat="41.2859333" lon="0.6682717"><ele>332.1666666666667</ele><time>2026-04-19T09:14:41.963Z</time></trkpt><trkpt lat="41.2859133" lon="0.66814"><ele>333.0</ele><time>2026-04-19T09:14:42.963Z</time></trkpt><trkpt lat="41.28589" lon="0.6679933"><ele>333.0</ele><time>2026-04-19T09:14:43.963Z</time></trkpt><trkpt lat="41.2858667" lon="0.6678567"><ele>333.0</ele><time>2026-04-19T09:14:44.963Z</time></trkpt><trkpt lat="41.285845" lon="0.6677317"><ele>333.0</ele><time>2026-04-19T09:14:45.963Z</time></trkpt><trkpt lat="41.2858267" lon="0.66761"><ele>333.0</ele><time>2026-04-19T09:14:46.963Z</time></trkpt><trkpt lat="41.285805" lon="0.6674983"><ele>333.0</ele><time>2026-04-19T09:14:47.963Z</time></trkpt><trkpt lat="41.2857733" lon="0.6673817"><ele>333.2</ele><time>2026-04-19T09:14:48.963Z</time></trkpt><trkpt lat="41.2857267" lon="0.6672617"><ele>333.4</ele><time>2026-04-19T09:14:49.963Z</time></trkpt><trkpt lat="41.2856683" lon="0.6671533"><ele>333.59999999999997</ele><time>2026-04-19T09:14:50.962Z</time></trkpt><trkpt lat="41.2855967" lon="0.667055"><ele>333.79999999999995</ele><time>2026-04-19T09:14:51.962Z</time></trkpt><trkpt lat="41.285525" lon="0.6669667"><ele>334.0</ele><time>2026-04-19T09:14:52.963Z</time></trkpt><trkpt lat="41.285445" lon="0.6668867"><ele>334.0</ele><time>2026-04-19T09:14:53.962Z</time></trkpt><trkpt lat="41.2853683" lon="0.6668033"><ele>334.0</ele><time>2026-04-19T09:14:54.963Z</time></trkpt><trkpt lat="41.2852983" lon="0.666725"><ele>334.0</ele><time>2026-04-19T09:14:55.962Z</time></trkpt><trkpt lat="41.28523" lon="0.6666467"><ele>334.0</ele><time>2026-04-19T09:14:56.962Z</time></trkpt><trkpt lat="41.2851583" lon="0.6665767"><ele>334.0</ele><time>2026-04-19T09:14:57.963Z</time></trkpt><trkpt lat="41.28509" lon="0.6665017"><ele>334.0</ele><time>2026-04-19T09:14:58.963Z</time></trkpt><trkpt lat="41.28502" lon="0.6664267"><ele>334.0</ele><time>2026-04-19T09:14:59.963Z</time></trkpt><trkpt lat="41.284935" lon="0.66636"><ele>334.0</ele><time>2026-04-19T09:15:00.962Z</time></trkpt><trkpt lat="41.2848583" lon="0.6662767"><ele>334.0</ele><time>2026-04-19T09:15:01.963Z</time></trkpt><trkpt lat="41.2847867" lon="0.6662033"><ele>334.0</ele><time>2026-04-19T09:15:02.962Z</time></trkpt><trkpt lat="41.2847267" lon="0.6661367"><ele>334.85714285714283</ele><time>2026-04-19T09:15:03.963Z</time></trkpt><trkpt lat="41.2846767" lon="0.66607"><ele>335.7142857142857</ele><time>2026-04-19T09:15:04.962Z</time></trkpt><trkpt lat="41.2846217" lon="0.6660183"><ele>336.57142857142856</ele><time>2026-04-19T09:15:05.963Z</time></trkpt><trkpt lat="41.2845683" lon="0.6659683"><ele>337.42857142857144</ele><time>2026-04-19T09:15:06.963Z</time></trkpt><trkpt lat="41.28451" lon="0.665915"><ele>338.2857142857143</ele><time>2026-04-19T09:15:07.962Z</time></trkpt><trkpt lat="41.2844583" lon="0.66586"><ele>339.14285714285717</ele><time>2026-04-19T09:15:08.962Z</time></trkpt><trkpt lat="41.2844083" lon="0.6658033"><ele>340.0</ele><time>2026-04-19T09:15:09.962Z</time></trkpt><trkpt lat="41.2843267" lon="0.6657083"><ele>340.0</ele><time>2026-04-19T09:15:11.963Z</time></trkpt><trkpt lat="41.2842867" lon="0.6656367"><ele>340.0</ele><time>2026-04-19T09:15:13.962Z</time></trkpt><trkpt lat="41.2843117" lon="0.6655383"><ele>340.0</ele><time>2026-04-19T09:15:16.962Z</time></trkpt><trkpt lat="41.2844067" lon="0.665535"><ele>340.0</ele><time>2026-04-19T09:15:19.962Z</time></trkpt><trkpt lat="41.2844933" lon="0.6655217"><ele>340.0</ele><time>2026-04-19T09:15:21.963Z</time></trkpt><trkpt lat="41.284565" lon="0.6655067"><ele>340.0</ele><time>2026-04-19T09:15:22.962Z</time></trkpt><trkpt lat="41.28464" lon="0.6655017"><ele>340.0</ele><time>2026-04-19T09:15:23.963Z</time></trkpt><trkpt lat="41.2847083" lon="0.665485"><ele>340.0</ele><time>2026-04-19T09:15:24.963Z</time></trkpt><trkpt lat="41.284775" lon="0.6655"><ele>340.0</ele><time>2026-04-19T09:15:25.962Z</time></trkpt><trkpt lat="41.2848733" lon="0.665555"><ele>340.0</ele><time>2026-04-19T09:15:27.963Z</time></trkpt><trkpt lat="41.2849867" lon="0.6656"><ele>340.0</ele><time>2026-04-19T09:15:29.962Z</time></trkpt><trkpt lat="41.2850983" lon="0.6656667"><ele>339.7142857142857</ele><time>2026-04-19T09:15:31.962Z</time></trkpt><trkpt lat="41.2851583" lon="0.6657017"><ele>339.4285714285714</ele><time>2026-04-19T09:15:32.962Z</time></trkpt><trkpt lat="41.2852217" lon="0.665735"><ele>339.1428571428571</ele><time>2026-04-19T09:15:33.963Z</time></trkpt><trkpt lat="41.2852817" lon="0.66577"><ele>338.8571428571429</ele><time>2026-04-19T09:15:34.962Z</time></trkpt><trkpt lat="41.2853467" lon="0.66581"><ele>338.57142857142856</ele><time>2026-04-19T09:15:35.962Z</time></trkpt><trkpt lat="41.2854233" lon="0.6658383"><ele>338.2857142857143</ele><time>2026-04-19T09:15:36.962Z</time></trkpt><trkpt lat="41.2855067" lon="0.6658517"><ele>338.0</ele><time>2026-04-19T09:15:37.962Z</time></trkpt><trkpt lat="41.2855983" lon="0.6658417"><ele>338.6666666666667</ele><time>2026-04-19T09:15:38.962Z</time></trkpt><trkpt lat="41.2856917" lon="0.6658083"><ele>339.33333333333337</ele><time>2026-04-19T09:15:39.963Z</time></trkpt><trkpt lat="41.2857833" lon="0.6657567"><ele>340.0</ele><time>2026-04-19T09:15:40.962Z</time></trkpt><trkpt lat="41.28586" lon="0.6657167"><ele>340.6666666666667</ele><time>2026-04-19T09:15:41.963Z</time></trkpt><trkpt lat="41.285935" lon="0.665675"><ele>341.3333333333333</ele><time>2026-04-19T09:15:42.963Z</time></trkpt><trkpt lat="41.2860167" lon="0.66565"><ele>342.0</ele><time>2026-04-19T09:15:43.962Z</time></trkpt><trkpt lat="41.286095" lon="0.665625"><ele>342.0</ele><time>2026-04-19T09:15:44.962Z</time></trkpt><trkpt lat="41.286175" lon="0.6656133"><ele>342.0</ele><time>2026-04-19T09:15:45.962Z</time></trkpt><trkpt lat="41.2862617" lon="0.66563"><ele>342.0</ele><time>2026-04-19T09:15:46.962Z</time></trkpt><trkpt lat="41.2863417" lon="0.6656783"><ele>342.0</ele><time>2026-04-19T09:15:47.963Z</time></trkpt><trkpt lat="41.2864267" lon="0.6657417"><ele>342.0</ele><time>2026-04-19T09:15:48.962Z</time></trkpt><trkpt lat="41.28648" lon="0.665845"><ele>342.0</ele><time>2026-04-19T09:15:49.963Z</time></trkpt><trkpt lat="41.2865017" lon="0.6659733"><ele>343.0</ele><time>2026-04-19T09:15:50.962Z</time></trkpt><trkpt lat="41.2865267" lon="0.6660733"><ele>344.0</ele><time>2026-04-19T09:15:51.963Z</time></trkpt><trkpt lat="41.2865633" lon="0.6661567"><ele>345.0</ele><time>2026-04-19T09:15:52.963Z</time></trkpt><trkpt lat="41.286615" lon="0.666225"><ele>346.0</ele><time>2026-04-19T09:15:53.963Z</time></trkpt><trkpt lat="41.2866783" lon="0.6662783"><ele>347.0</ele><time>2026-04-19T09:15:54.962Z</time></trkpt><trkpt lat="41.2867533" lon="0.6663067"><ele>348.0</ele><time>2026-04-19T09:15:55.963Z</time></trkpt><trkpt lat="41.28684" lon="0.6663433"><ele>348.0</ele><time>2026-04-19T09:15:56.962Z</time></trkpt><trkpt lat="41.2869167" lon="0.6663867"><ele>348.0</ele><time>2026-04-19T09:15:57.963Z</time></trkpt><trkpt lat="41.28699" lon="0.66644"><ele>348.0</ele><time>2026-04-19T09:15:58.963Z</time></trkpt><trkpt lat="41.2870433" lon="0.6665167"><ele>348.0</ele><time>2026-04-19T09:15:59.962Z</time></trkpt><trkpt lat="41.28709" lon="0.6666"><ele>348.0</ele><time>2026-04-19T09:16:00.963Z</time></trkpt><trkpt lat="41.2871317" lon="0.6666833"><ele>348.0</ele><time>2026-04-19T09:16:01.963Z</time></trkpt><trkpt lat="41.2871883" lon="0.6667567"><ele>348.0</ele><time>2026-04-19T09:16:02.962Z</time></trkpt><trkpt lat="41.2872433" lon="0.66682"><ele>348.0</ele><time>2026-04-19T09:16:03.962Z</time></trkpt><trkpt lat="41.2873067" lon="0.666865"><ele>348.0</ele><time>2026-04-19T09:16:04.963Z</time></trkpt><trkpt lat="41.287365" lon="0.6668967"><ele>348.0</ele><time>2026-04-19T09:16:05.962Z</time></trkpt><trkpt lat="41.2874317" lon="0.6669317"><ele>348.0</ele><time>2026-04-19T09:16:07.963Z</time></trkpt><trkpt lat="41.28753" lon="0.6669583"><ele>348.0</ele><time>2026-04-19T09:16:15.962Z</time></trkpt><trkpt lat="41.2876683" lon="0.6669917"><ele>349.3333333333333</ele><time>2026-04-19T09:16:29.962Z</time></trkpt><trkpt lat="41.2877129" lon="0.666908"><ele>350.6666666666667</ele><time>2026-04-19T09:18:54.051Z</time></trkpt><trkpt lat="41.2876633" lon="0.6669917"><ele>352.0</ele><time>2026-04-19T09:24:12.962Z</time></trkpt><trkpt lat="41.2876567" lon="0.66689"><ele>353.33333333333337</ele><time>2026-04-19T09:27:10.963Z</time></trkpt><trkpt lat="41.287585" lon="0.66688"><ele>354.6666666666667</ele><time>2026-04-19T09:27:13.963Z</time></trkpt><trkpt lat="41.287495" lon="0.666885"><ele>356.0</ele><time>2026-04-19T09:27:17.962Z</time></trkpt><trkpt lat="41.2874117" lon="0.66686"><ele>356.6666666666667</ele><time>2026-04-19T09:27:19.962Z</time></trkpt><trkpt lat="41.2873533" lon="0.6668267"><ele>357.33333333333337</ele><time>2026-04-19T09:27:20.962Z</time></trkpt><trkpt lat="41.2872817" lon="0.6667883"><ele>358.0</ele><time>2026-04-19T09:27:21.962Z</time></trkpt><trkpt lat="41.287225" lon="0.666745"><ele>358.6666666666667</ele><time>2026-04-19T09:27:22.963Z</time></trkpt><trkpt lat="41.2871433" lon="0.666645"><ele>359.3333333333333</ele><time>2026-04-19T09:27:24.963Z</time></trkpt><trkpt lat="41.287085" lon="0.666545"><ele>360.0</ele><time>2026-04-19T09:27:26.962Z</time></trkpt><trkpt lat="41.2870133" lon="0.6664467"><ele>357.6</ele><time>2026-04-19T09:27:28.963Z</time></trkpt><trkpt lat="41.286915" lon="0.6663417"><ele>355.2</ele><time>2026-04-19T09:27:30.963Z</time></trkpt><trkpt lat="41.2868567" lon="0.6663"><ele>352.79999999999995</ele><time>2026-04-19T09:27:31.962Z</time></trkpt><trkpt lat="41.286735" lon="0.6662483"><ele>350.4</ele><time>2026-04-19T09:27:33.962Z</time></trkpt><trkpt lat="41.2866167" lon="0.66621"><ele>348.0</ele><time>2026-04-19T09:27:35.962Z</time></trkpt><trkpt lat="41.2865183" lon="0.6661317"><ele>349.2</ele><time>2026-04-19T09:27:37.963Z</time></trkpt><trkpt lat="41.28648" lon="0.6660017"><ele>350.4</ele><time>2026-04-19T09:27:39.963Z</time></trkpt><trkpt lat="41.28645" lon="0.6658683"><ele>351.59999999999997</ele><time>2026-04-19T09:27:41.962Z</time></trkpt><trkpt lat="41.286375" lon="0.665725"><ele>352.79999999999995</ele><time>2026-04-19T09:27:43.962Z</time></trkpt><trkpt lat="41.2863233" lon="0.6656617"><ele>354.0</ele><time>2026-04-19T09:27:44.962Z</time></trkpt><trkpt lat="41.2862633" lon="0.665615"><ele>352.2857142857143</ele><time>2026-04-19T09:27:45.963Z</time></trkpt><trkpt lat="41.2861983" lon="0.6655883"><ele>350.57142857142856</ele><time>2026-04-19T09:27:46.963Z</time></trkpt><trkpt lat="41.286135" lon="0.66558"><ele>348.85714285714283</ele><time>2026-04-19T09:27:47.962Z</time></trkpt><trkpt lat="41.2860717" lon="0.665585"><ele>347.1428571428571</ele><time>2026-04-19T09:27:48.962Z</time></trkpt><trkpt lat="41.2860017" lon="0.66561"><ele>345.42857142857144</ele><time>2026-04-19T09:27:49.963Z</time></trkpt><trkpt lat="41.2859333" lon="0.6656383"><ele>343.71428571428567</ele><time>2026-04-19T09:27:50.963Z</time></trkpt><trkpt lat="41.2858633" lon="0.6656733"><ele>342.0</ele><time>2026-04-19T09:27:51.963Z</time></trkpt><trkpt lat="41.2858" lon="0.6657017"><ele>342.0</ele><time>2026-04-19T09:27:52.962Z</time></trkpt><trkpt lat="41.285735" lon="0.6657317"><ele>342.0</ele><time>2026-04-19T09:27:53.962Z</time></trkpt><trkpt lat="41.2856217" lon="0.6657883"><ele>342.0</ele><time>2026-04-19T09:27:55.963Z</time></trkpt><trkpt lat="41.285505" lon="0.665815"><ele>342.0</ele><time>2026-04-19T09:27:57.962Z</time></trkpt><trkpt lat="41.2854017" lon="0.665785"><ele>342.0</ele><time>2026-04-19T09:27:59.963Z</time></trkpt><trkpt lat="41.28532" lon="0.665725"><ele>341.3333333333333</ele><time>2026-04-19T09:28:01.962Z</time></trkpt><trkpt lat="41.2852517" lon="0.665685"><ele>340.6666666666667</ele><time>2026-04-19T09:28:03.963Z</time></trkpt><trkpt lat="41.2851683" lon="0.6657083"><ele>340.0</ele><time>2026-04-19T09:28:06.962Z</time></trkpt><trkpt lat="41.285165" lon="0.6658117"><ele>339.33333333333337</ele><time>2026-04-19T09:28:08.962Z</time></trkpt><trkpt lat="41.2851783" lon="0.6659017"><ele>338.6666666666667</ele><time>2026-04-19T09:28:09.962Z</time></trkpt><trkpt lat="41.2851883" lon="0.6660017"><ele>338.0</ele><time>2026-04-19T09:28:10.962Z</time></trkpt><trkpt lat="41.2851883" lon="0.6661"><ele>337.42857142857144</ele><time>2026-04-19T09:28:11.963Z</time></trkpt><trkpt lat="41.28518" lon="0.666185"><ele>336.85714285714283</ele><time>2026-04-19T09:28:12.962Z</time></trkpt><trkpt lat="41.2851567" lon="0.66629"><ele>336.2857142857143</ele><time>2026-04-19T09:28:14.963Z</time></trkpt><trkpt lat="41.285125" lon="0.666365"><ele>335.7142857142857</ele><time>2026-04-19T09:28:16.962Z</time></trkpt><trkpt lat="41.285075" lon="0.66643"><ele>335.14285714285717</ele><time>2026-04-19T09:28:18.962Z</time></trkpt><trkpt lat="41.2850033" lon="0.6664217"><ele>334.57142857142856</ele><time>2026-04-19T09:28:21.962Z</time></trkpt><trkpt lat="41.284935" lon="0.6663633"><ele>334.0</ele><time>2026-04-19T09:28:23.963Z</time></trkpt><trkpt lat="41.284875" lon="0.6662917"><ele>334.0</ele><time>2026-04-19T09:28:25.962Z</time></trkpt><trkpt lat="41.28482" lon="0.6662217"><ele>334.0</ele><time>2026-04-19T09:28:27.963Z</time></trkpt><trkpt lat="41.2847317" lon="0.6661167"><ele>334.0</ele><time>2026-04-19T09:28:29.962Z</time></trkpt><trkpt lat="41.2846717" lon="0.6660383"><ele>334.0</ele><time>2026-04-19T09:28:30.962Z</time></trkpt><trkpt lat="41.284605" lon="0.6659717"><ele>334.0</ele><time>2026-04-19T09:28:31.963Z</time></trkpt><trkpt lat="41.284535" lon="0.665895"><ele>335.0</ele><time>2026-04-19T09:28:32.963Z</time></trkpt><trkpt lat="41.2844617" lon="0.6658217"><ele>336.0</ele><time>2026-04-19T09:28:33.963Z</time></trkpt><trkpt lat="41.2844017" lon="0.66574"><ele>337.0</ele><time>2026-04-19T09:28:34.963Z</time></trkpt><trkpt lat="41.284345" lon="0.665655"><ele>338.0</ele><time>2026-04-19T09:28:35.962Z</time></trkpt><trkpt lat="41.2843" lon="0.6655633"><ele>339.0</ele><time>2026-04-19T09:28:36.962Z</time></trkpt><trkpt lat="41.2842733" lon="0.6654433"><ele>340.0</ele><time>2026-04-19T09:28:37.963Z</time></trkpt><trkpt lat="41.2842633" lon="0.66532"><ele>339.4</ele><time>2026-04-19T09:28:38.963Z</time></trkpt><trkpt lat="41.2842617" lon="0.6652033"><ele>338.8</ele><time>2026-04-19T09:28:39.962Z</time></trkpt><trkpt lat="41.28428" lon="0.665085"><ele>338.20000000000005</ele><time>2026-04-19T09:28:40.962Z</time></trkpt><trkpt lat="41.28435" lon="0.664995"><ele>337.6</ele><time>2026-04-19T09:28:41.962Z</time></trkpt><trkpt lat="41.28445" lon="0.6649183"><ele>337.0</ele><time>2026-04-19T09:28:42.963Z</time></trkpt><trkpt lat="41.2845433" lon="0.6648533"><ele>337.0</ele><time>2026-04-19T09:28:43.962Z</time></trkpt><trkpt lat="41.2846317" lon="0.6647883"><ele>337.0</ele><time>2026-04-19T09:28:44.962Z</time></trkpt><trkpt lat="41.28472" lon="0.6647367"><ele>337.0</ele><time>2026-04-19T09:28:45.963Z</time></trkpt><trkpt lat="41.28482" lon="0.6647017"><ele>337.0</ele><time>2026-04-19T09:28:46.963Z</time></trkpt><trkpt lat="41.2849167" lon="0.6646867"><ele>337.0</ele><time>2026-04-19T09:28:47.962Z</time></trkpt><trkpt lat="41.2850233" lon="0.6646767"><ele>337.20000000000005</ele><time>2026-04-19T09:28:48.963Z</time></trkpt><trkpt lat="41.2851133" lon="0.6646567"><ele>337.4</ele><time>2026-04-19T09:28:49.962Z</time></trkpt><trkpt lat="41.2852" lon="0.664615"><ele>337.6</ele><time>2026-04-19T09:28:50.963Z</time></trkpt><trkpt lat="41.285275" lon="0.6645483"><ele>337.79999999999995</ele><time>2026-04-19T09:28:51.962Z</time></trkpt><trkpt lat="41.2853383" lon="0.6644567"><ele>338.0</ele><time>2026-04-19T09:28:52.962Z</time></trkpt><trkpt lat="41.285385" lon="0.6643583"><ele>335.79999999999995</ele><time>2026-04-19T09:28:53.963Z</time></trkpt><trkpt lat="41.285425" lon="0.6642633"><ele>333.6</ele><time>2026-04-19T09:28:54.963Z</time></trkpt><trkpt lat="41.2854367" lon="0.6641283"><ele>331.4</ele><time>2026-04-19T09:28:55.963Z</time></trkpt><trkpt lat="41.285415" lon="0.6639833"><ele>329.20000000000005</ele><time>2026-04-19T09:28:56.962Z</time></trkpt><trkpt lat="41.2853583" lon="0.6638517"><ele>327.0</ele><time>2026-04-19T09:28:57.963Z</time></trkpt><trkpt lat="41.2852833" lon="0.6637167"><ele>326.40000000000003</ele><time>2026-04-19T09:28:58.963Z</time></trkpt><trkpt lat="41.285215" lon="0.6636033"><ele>325.8</ele><time>2026-04-19T09:28:59.963Z</time></trkpt><trkpt lat="41.2851467" lon="0.66348"><ele>325.2</ele><time>2026-04-19T09:29:00.962Z</time></trkpt><trkpt lat="41.28509" lon="0.66337"><ele>324.6</ele><time>2026-04-19T09:29:01.963Z</time></trkpt><trkpt lat="41.2850317" lon="0.6632517"><ele>324.0</ele><time>2026-04-19T09:29:02.962Z</time></trkpt><trkpt lat="41.284975" lon="0.6631267"><ele>324.0</ele><time>2026-04-19T09:29:03.963Z</time></trkpt><trkpt lat="41.2849233" lon="0.66299"><ele>324.0</ele><time>2026-04-19T09:29:04.963Z</time></trkpt><trkpt lat="41.2848867" lon="0.6628683"><ele>324.0</ele><time>2026-04-19T09:29:05.962Z</time></trkpt><trkpt lat="41.284875" lon="0.662735"><ele>324.0</ele><time>2026-04-19T09:29:06.962Z</time></trkpt><trkpt lat="41.2849017" lon="0.6625883"><ele>324.0</ele><time>2026-04-19T09:29:07.962Z</time></trkpt><trkpt lat="41.28496" lon="0.6624433"><ele>322.5</ele><time>2026-04-19T09:29:08.962Z</time></trkpt><trkpt lat="41.2850417" lon="0.6623283"><ele>321.0</ele><time>2026-04-19T09:29:09.963Z</time></trkpt><trkpt lat="41.285155" lon="0.6622633"><ele>319.5</ele><time>2026-04-19T09:29:10.963Z</time></trkpt><trkpt lat="41.2852717" lon="0.6622217"><ele>318.0</ele><time>2026-04-19T09:29:11.963Z</time></trkpt><trkpt lat="41.285395" lon="0.6621833"><ele>318.0</ele><time>2026-04-19T09:29:12.962Z</time></trkpt><trkpt lat="41.285505" lon="0.66212"><ele>318.0</ele><time>2026-04-19T09:29:13.962Z</time></trkpt><trkpt lat="41.2856067" lon="0.6620217"><ele>318.0</ele><time>2026-04-19T09:29:14.963Z</time></trkpt><trkpt lat="41.2856933" lon="0.6618733"><ele>318.0</ele><time>2026-04-19T09:29:15.962Z</time></trkpt><trkpt lat="41.28577" lon="0.6617083"><ele>317.0</ele><time>2026-04-19T09:29:16.962Z</time></trkpt><trkpt lat="41.2858367" lon="0.66152"><ele>316.0</ele><time>2026-04-19T09:29:17.963Z</time></trkpt><trkpt lat="41.285905" lon="0.661335"><ele>315.0</ele><time>2026-04-19T09:29:18.962Z</time></trkpt><trkpt lat="41.2859617" lon="0.6611667"><ele>315.75</ele><time>2026-04-19T09:29:19.962Z</time></trkpt><trkpt lat="41.286015" lon="0.66101"><ele>316.5</ele><time>2026-04-19T09:29:20.963Z</time></trkpt><trkpt lat="41.2860667" lon="0.6608717"><ele>317.25</ele><time>2026-04-19T09:29:21.962Z</time></trkpt><trkpt lat="41.2861367" lon="0.6607467"><ele>318.0</ele><time>2026-04-19T09:29:22.962Z</time></trkpt><trkpt lat="41.286225" lon="0.660665"><ele>318.0</ele><time>2026-04-19T09:29:23.962Z</time></trkpt><trkpt lat="41.2863417" lon="0.660615"><ele>318.0</ele><time>2026-04-19T09:29:24.962Z</time></trkpt><trkpt lat="41.286465" lon="0.6605883"><ele>318.0</ele><time>2026-04-19T09:29:25.962Z</time></trkpt><trkpt lat="41.286595" lon="0.660545"><ele>318.0</ele><time>2026-04-19T09:29:26.963Z</time></trkpt><trkpt lat="41.2867217" lon="0.6604733"><ele>318.5</ele><time>2026-04-19T09:29:27.963Z</time></trkpt><trkpt lat="41.2868333" lon="0.6603583"><ele>319.0</ele><time>2026-04-19T09:29:28.962Z</time></trkpt><trkpt lat="41.2869333" lon="0.6602183"><ele>319.5</ele><time>2026-04-19T09:29:29.963Z</time></trkpt><trkpt lat="41.2870267" lon="0.660075"><ele>320.0</ele><time>2026-04-19T09:29:30.962Z</time></trkpt><trkpt lat="41.2871017" lon="0.6599167"><ele>320.0</ele><time>2026-04-19T09:29:31.963Z</time></trkpt><trkpt lat="41.2871667" lon="0.6597533"><ele>320.0</ele><time>2026-04-19T09:29:32.962Z</time></trkpt><trkpt lat="41.287235" lon="0.6596083"><ele>320.0</ele><time>2026-04-19T09:29:33.963Z</time></trkpt><trkpt lat="41.2873033" lon="0.6594783"><ele>320.0</ele><time>2026-04-19T09:29:34.963Z</time></trkpt><trkpt lat="41.2873617" lon="0.659345"><ele>321.0</ele><time>2026-04-19T09:29:35.963Z</time></trkpt><trkpt lat="41.287405" lon="0.65923"><ele>322.0</ele><time>2026-04-19T09:29:36.962Z</time></trkpt><trkpt lat="41.287435" lon="0.6591317"><ele>323.0</ele><time>2026-04-19T09:29:37.962Z</time></trkpt><trkpt lat="41.2874683" lon="0.65906"><ele>324.0</ele><time>2026-04-19T09:29:38.963Z</time></trkpt><trkpt lat="41.2875217" lon="0.659"><ele>325.0</ele><time>2026-04-19T09:29:42.962Z</time></trkpt><trkpt lat="41.2875783" lon="0.6589483"><ele>326.0</ele><time>2026-04-19T09:29:44.962Z</time></trkpt><trkpt lat="41.287705" lon="0.6588567"><ele>326.0</ele><time>2026-04-19T09:29:46.963Z</time></trkpt><trkpt lat="41.2877817" lon="0.65879"><ele>326.0</ele><time>2026-04-19T09:29:47.962Z</time></trkpt><trkpt lat="41.2878667" lon="0.6587483"><ele>326.0</ele><time>2026-04-19T09:29:48.963Z</time></trkpt><trkpt lat="41.2879567" lon="0.658715"><ele>326.0</ele><time>2026-04-19T09:29:49.963Z</time></trkpt><trkpt lat="41.2880483" lon="0.6586983"><ele>326.0</ele><time>2026-04-19T09:29:50.962Z</time></trkpt><trkpt lat="41.28814" lon="0.6587067"><ele>326.6</ele><time>2026-04-19T09:29:51.962Z</time></trkpt><trkpt lat="41.2882433" lon="0.6587117"><ele>327.20000000000005</ele><time>2026-04-19T09:29:52.963Z</time></trkpt><trkpt lat="41.2883533" lon="0.6586983"><ele>327.79999999999995</ele><time>2026-04-19T09:29:53.962Z</time></trkpt><trkpt lat="41.2884567" lon="0.6586567"><ele>328.4</ele><time>2026-04-19T09:29:54.963Z</time></trkpt><trkpt lat="41.28855" lon="0.658585"><ele>329.0</ele><time>2026-04-19T09:29:55.962Z</time></trkpt><trkpt lat="41.2886217" lon="0.6584933"><ele>329.0</ele><time>2026-04-19T09:29:56.963Z</time></trkpt><trkpt lat="41.2886767" lon="0.6583833"><ele>329.0</ele><time>2026-04-19T09:29:57.963Z</time></trkpt><trkpt lat="41.2887283" lon="0.6582733"><ele>329.0</ele><time>2026-04-19T09:29:58.963Z</time></trkpt><trkpt lat="41.288785" lon="0.6581567"><ele>329.0</ele><time>2026-04-19T09:29:59.962Z</time></trkpt><trkpt lat="41.288845" lon="0.6580317"><ele>329.0</ele><time>2026-04-19T09:30:00.963Z</time></trkpt><trkpt lat="41.28891" lon="0.6579017"><ele>330.0</ele><time>2026-04-19T09:30:01.963Z</time></trkpt><trkpt lat="41.2889783" lon="0.6577617"><ele>331.0</ele><time>2026-04-19T09:30:02.962Z</time></trkpt><trkpt lat="41.2890617" lon="0.6576417"><ele>332.0</ele><time>2026-04-19T09:30:03.963Z</time></trkpt><trkpt lat="41.2891417" lon="0.657525"><ele>333.0</ele><time>2026-04-19T09:30:04.963Z</time></trkpt><trkpt lat="41.2892133" lon="0.6574067"><ele>333.0</ele><time>2026-04-19T09:30:05.962Z</time></trkpt><trkpt lat="41.2892883" lon="0.657295"><ele>333.0</ele><time>2026-04-19T09:30:06.962Z</time></trkpt><trkpt lat="41.2893567" lon="0.6571833"><ele>333.0</ele><time>2026-04-19T09:30:07.963Z</time></trkpt><trkpt lat="41.2894233" lon="0.65707"><ele>333.0</ele><time>2026-04-19T09:30:08.962Z</time></trkpt><trkpt lat="41.2894933" lon="0.6569633"><ele>333.0</ele><time>2026-04-19T09:30:09.962Z</time></trkpt><trkpt lat="41.2895583" lon="0.6568683"><ele>333.59999999999997</ele><time>2026-04-19T09:30:10.962Z</time></trkpt><trkpt lat="41.28962" lon="0.6567683"><ele>334.2</ele><time>2026-04-19T09:30:11.963Z</time></trkpt><trkpt lat="41.289685" lon="0.6566717"><ele>334.8</ele><time>2026-04-19T09:30:12.963Z</time></trkpt><trkpt lat="41.2897517" lon="0.6565617"><ele>335.4</ele><time>2026-04-19T09:30:13.963Z</time></trkpt><trkpt lat="41.2898017" lon="0.6564383"><ele>336.0</ele><time>2026-04-19T09:30:14.962Z</time></trkpt><trkpt lat="41.2898433" lon="0.6563017"><ele>336.5</ele><time>2026-04-19T09:30:15.963Z</time></trkpt><trkpt lat="41.2898567" lon="0.6561567"><ele>337.0</ele><time>2026-04-19T09:30:16.962Z</time></trkpt><trkpt lat="41.28983" lon="0.6559933"><ele>337.5</ele><time>2026-04-19T09:30:17.962Z</time></trkpt><trkpt lat="41.2897683" lon="0.6558367"><ele>338.0</ele><time>2026-04-19T09:30:18.962Z</time></trkpt><trkpt lat="41.2897067" lon="0.6557033"><ele>338.0</ele><time>2026-04-19T09:30:19.962Z</time></trkpt><trkpt lat="41.28967" lon="0.6555667"><ele>338.0</ele><time>2026-04-19T09:30:20.963Z</time></trkpt><trkpt lat="41.289665" lon="0.6554217"><ele>338.0</ele><time>2026-04-19T09:30:21.963Z</time></trkpt><trkpt lat="41.289665" lon="0.65525"><ele>338.0</ele><time>2026-04-19T09:30:22.963Z</time></trkpt><trkpt lat="41.2896733" lon="0.6550783"><ele>338.75</ele><time>2026-04-19T09:30:23.962Z</time></trkpt><trkpt lat="41.2896967" lon="0.6549117"><ele>339.5</ele><time>2026-04-19T09:30:24.963Z</time></trkpt><trkpt lat="41.2897267" lon="0.65474"><ele>340.25</ele><time>2026-04-19T09:30:25.963Z</time></trkpt><trkpt lat="41.2897733" lon="0.65457"><ele>341.0</ele><time>2026-04-19T09:30:26.963Z</time></trkpt><trkpt lat="41.2898217" lon="0.654425"><ele>341.6</ele><time>2026-04-19T09:30:27.962Z</time></trkpt><trkpt lat="41.289875" lon="0.6542917"><ele>342.20000000000005</ele><time>2026-04-19T09:30:28.962Z</time></trkpt><trkpt lat="41.2899033" lon="0.6541617"><ele>342.79999999999995</ele><time>2026-04-19T09:30:29.962Z</time></trkpt><trkpt lat="41.28991" lon="0.6540367"><ele>343.4</ele><time>2026-04-19T09:30:30.962Z</time></trkpt><trkpt lat="41.289895" lon="0.6539"><ele>344.0</ele><time>2026-04-19T09:30:31.962Z</time></trkpt><trkpt lat="41.2898633" lon="0.6537567"><ele>344.2</ele><time>2026-04-19T09:30:32.963Z</time></trkpt><trkpt lat="41.2898317" lon="0.653615"><ele>344.4</ele><time>2026-04-19T09:30:33.962Z</time></trkpt><trkpt lat="41.28981" lon="0.6534733"><ele>344.6</ele><time>2026-04-19T09:30:34.962Z</time></trkpt><trkpt lat="41.2898083" lon="0.653335"><ele>344.8</ele><time>2026-04-19T09:30:35.963Z</time></trkpt><trkpt lat="41.2898367" lon="0.6531933"><ele>345.0</ele><time>2026-04-19T09:30:36.962Z</time></trkpt><trkpt lat="41.2898833" lon="0.6530583"><ele>345.0</ele><time>2026-04-19T09:30:37.963Z</time></trkpt><trkpt lat="41.2899383" lon="0.6529267"><ele>345.0</ele><time>2026-04-19T09:30:38.962Z</time></trkpt><trkpt lat="41.2899983" lon="0.6528117"><ele>345.0</ele><time>2026-04-19T09:30:39.962Z</time></trkpt><trkpt lat="41.2900517" lon="0.6527"><ele>345.0</ele><time>2026-04-19T09:30:40.962Z</time></trkpt><trkpt lat="41.2901017" lon="0.6525817"><ele>345.0</ele><time>2026-04-19T09:30:41.963Z</time></trkpt><trkpt lat="41.2901517" lon="0.6524633"><ele>346.0</ele><time>2026-04-19T09:30:42.962Z</time></trkpt><trkpt lat="41.2902" lon="0.6523317"><ele>347.0</ele><time>2026-04-19T09:30:43.963Z</time></trkpt><trkpt lat="41.2902467" lon="0.6521883"><ele>348.0</ele><time>2026-04-19T09:30:44.962Z</time></trkpt><trkpt lat="41.2903" lon="0.65205"><ele>349.0</ele><time>2026-04-19T09:30:45.962Z</time></trkpt><trkpt lat="41.2903483" lon="0.6518933"><ele>350.2</ele><time>2026-04-19T09:30:46.962Z</time></trkpt><trkpt lat="41.2903717" lon="0.65175"><ele>351.4</ele><time>2026-04-19T09:30:47.963Z</time></trkpt><trkpt lat="41.2903833" lon="0.6516067"><ele>352.6</ele><time>2026-04-19T09:30:48.962Z</time></trkpt><trkpt lat="41.2903833" lon="0.6514583"><ele>353.8</ele><time>2026-04-19T09:30:49.962Z</time></trkpt><trkpt lat="41.2903883" lon="0.6513133"><ele>355.0</ele><time>2026-04-19T09:30:50.962Z</time></trkpt><trkpt lat="41.2903933" lon="0.6511717"><ele>355.6</ele><time>2026-04-19T09:30:51.962Z</time></trkpt><trkpt lat="41.290395" lon="0.6510283"><ele>356.2</ele><time>2026-04-19T09:30:52.962Z</time></trkpt><trkpt lat="41.2903917" lon="0.6508983"><ele>356.79999999999995</ele><time>2026-04-19T09:30:53.962Z</time></trkpt><trkpt lat="41.29039" lon="0.650775"><ele>357.4</ele><time>2026-04-19T09:30:54.963Z</time></trkpt><trkpt lat="41.2903717" lon="0.65065"><ele>358.0</ele><time>2026-04-19T09:30:55.962Z</time></trkpt><trkpt lat="41.2903383" lon="0.6505267"><ele>358.0</ele><time>2026-04-19T09:30:56.962Z</time></trkpt><trkpt lat="41.2902867" lon="0.6504067"><ele>358.0</ele><time>2026-04-19T09:30:57.962Z</time></trkpt><trkpt lat="41.2902217" lon="0.6502817"><ele>358.0</ele><time>2026-04-19T09:30:58.963Z</time></trkpt><trkpt lat="41.2901417" lon="0.6501483"><ele>358.0</ele><time>2026-04-19T09:30:59.962Z</time></trkpt><trkpt lat="41.290065" lon="0.650015"><ele>357.79999999999995</ele><time>2026-04-19T09:31:00.962Z</time></trkpt><trkpt lat="41.2899983" lon="0.6499"><ele>357.6</ele><time>2026-04-19T09:31:01.963Z</time></trkpt><trkpt lat="41.289945" lon="0.649785"><ele>357.4</ele><time>2026-04-19T09:31:02.962Z</time></trkpt><trkpt lat="41.2899067" lon="0.6496633"><ele>357.20000000000005</ele><time>2026-04-19T09:31:03.963Z</time></trkpt><trkpt lat="41.2898867" lon="0.6495417"><ele>357.0</ele><time>2026-04-19T09:31:04.962Z</time></trkpt><trkpt lat="41.2898867" lon="0.649415"><ele>357.0</ele><time>2026-04-19T09:31:05.963Z</time></trkpt><trkpt lat="41.2899067" lon="0.6492883"><ele>357.0</ele><time>2026-04-19T09:31:06.962Z</time></trkpt><trkpt lat="41.2899517" lon="0.649175"><ele>357.0</ele><time>2026-04-19T09:31:07.962Z</time></trkpt><trkpt lat="41.2900133" lon="0.64908"><ele>357.0</ele><time>2026-04-19T09:31:08.962Z</time></trkpt><trkpt lat="41.2901083" lon="0.6490183"><ele>357.0</ele><time>2026-04-19T09:31:09.963Z</time></trkpt><trkpt lat="41.2902133" lon="0.648965"><ele>357.0</ele><time>2026-04-19T09:31:10.962Z</time></trkpt><trkpt lat="41.290315" lon="0.6489017"><ele>357.0</ele><time>2026-04-19T09:31:11.963Z</time></trkpt><trkpt lat="41.2904133" lon="0.6488367"><ele>357.0</ele><time>2026-04-19T09:31:12.963Z</time></trkpt><trkpt lat="41.2905033" lon="0.6487667"><ele>357.0</ele><time>2026-04-19T09:31:13.963Z</time></trkpt><trkpt lat="41.2905983" lon="0.64871"><ele>357.0</ele><time>2026-04-19T09:31:14.963Z</time></trkpt><trkpt lat="41.2906967" lon="0.648675"><ele>357.5</ele><time>2026-04-19T09:31:15.963Z</time></trkpt><trkpt lat="41.290795" lon="0.6486533"><ele>358.0</ele><time>2026-04-19T09:31:16.962Z</time></trkpt><trkpt lat="41.2908817" lon="0.6486567"><ele>358.5</ele><time>2026-04-19T09:31:17.963Z</time></trkpt><trkpt lat="41.2909633" lon="0.6486783"><ele>359.0</ele><time>2026-04-19T09:31:18.963Z</time></trkpt><trkpt lat="41.2910467" lon="0.6487017"><ele>359.5</ele><time>2026-04-19T09:31:19.963Z</time></trkpt><trkpt lat="41.2911217" lon="0.648725"><ele>360.0</ele><time>2026-04-19T09:31:20.962Z</time></trkpt><trkpt lat="41.2912" lon="0.648745"><ele>360.0</ele><time>2026-04-19T09:31:21.963Z</time></trkpt><trkpt lat="41.291285" lon="0.6487583"><ele>360.0</ele><time>2026-04-19T09:31:22.963Z</time></trkpt><trkpt lat="41.2913733" lon="0.6487817"><ele>360.0</ele><time>2026-04-19T09:31:23.963Z</time></trkpt><trkpt lat="41.2914717" lon="0.64879"><ele>360.0</ele><time>2026-04-19T09:31:24.962Z</time></trkpt><trkpt lat="41.2915717" lon="0.6487633"><ele>360.0</ele><time>2026-04-19T09:31:25.962Z</time></trkpt><trkpt lat="41.2916667" lon="0.6486933"><ele>357.8</ele><time>2026-04-19T09:31:26.962Z</time></trkpt><trkpt lat="41.2917483" lon="0.6485917"><ele>355.6</ele><time>2026-04-19T09:31:27.962Z</time></trkpt><trkpt lat="41.2918" lon="0.6484667"><ele>353.4</ele><time>2026-04-19T09:31:28.962Z</time></trkpt><trkpt lat="41.2918233" lon="0.64832"><ele>351.2</ele><time>2026-04-19T09:31:29.962Z</time></trkpt><trkpt lat="41.2918417" lon="0.64817"><ele>349.0</ele><time>2026-04-19T09:31:30.963Z</time></trkpt><trkpt lat="41.29188" lon="0.64802"><ele>349.0</ele><time>2026-04-19T09:31:31.962Z</time></trkpt><trkpt lat="41.2919383" lon="0.6479"><ele>349.0</ele><time>2026-04-19T09:31:32.963Z</time></trkpt><trkpt lat="41.2920083" lon="0.6478083"><ele>349.0</ele><time>2026-04-19T09:31:33.962Z</time></trkpt><trkpt lat="41.2920933" lon="0.6477683"><ele>349.0</ele><time>2026-04-19T09:31:34.963Z</time></trkpt><trkpt lat="41.2921833" lon="0.64775"><ele>349.0</ele><time>2026-04-19T09:31:35.962Z</time></trkpt><trkpt lat="41.2922833" lon="0.6477533"><ele>348.4</ele><time>2026-04-19T09:31:36.962Z</time></trkpt><trkpt lat="41.29238" lon="0.6477717"><ele>347.79999999999995</ele><time>2026-04-19T09:31:37.962Z</time></trkpt><trkpt lat="41.2924833" lon="0.6477967"><ele>347.20000000000005</ele><time>2026-04-19T09:31:38.963Z</time></trkpt><trkpt lat="41.2925833" lon="0.6478417"><ele>346.6</ele><time>2026-04-19T09:31:39.962Z</time></trkpt><trkpt lat="41.2926783" lon="0.647885"><ele>346.0</ele><time>2026-04-19T09:31:40.962Z</time></trkpt><trkpt lat="41.2927483" lon="0.64792"><ele>346.0</ele><time>2026-04-19T09:31:41.962Z</time></trkpt><trkpt lat="41.2928167" lon="0.64796"><ele>346.0</ele><time>2026-04-19T09:31:42.962Z</time></trkpt><trkpt lat="41.2929033" lon="0.6479667"><ele>346.0</ele><time>2026-04-19T09:31:43.963Z</time></trkpt><trkpt lat="41.2929967" lon="0.647935"><ele>346.0</ele><time>2026-04-19T09:31:44.962Z</time></trkpt><trkpt lat="41.2930883" lon="0.6478617"><ele>346.0</ele><time>2026-04-19T09:31:45.963Z</time></trkpt><trkpt lat="41.2931767" lon="0.64777"><ele>343.0</ele><time>2026-04-19T09:31:46.962Z</time></trkpt><trkpt lat="41.2932633" lon="0.647675"><ele>340.0</ele><time>2026-04-19T09:31:47.962Z</time></trkpt><trkpt lat="41.2933467" lon="0.6475817"><ele>337.0</ele><time>2026-04-19T09:31:48.963Z</time></trkpt><trkpt lat="41.2934367" lon="0.6475067"><ele>334.0</ele><time>2026-04-19T09:31:49.963Z</time></trkpt><trkpt lat="41.2935233" lon="0.6474467"><ele>331.0</ele><time>2026-04-19T09:31:50.962Z</time></trkpt><trkpt lat="41.293585" lon="0.647365"><ele>331.0</ele><time>2026-04-19T09:31:51.963Z</time></trkpt><trkpt lat="41.2936333" lon="0.6472667"><ele>331.0</ele><time>2026-04-19T09:31:52.962Z</time></trkpt><trkpt lat="41.2936733" lon="0.6471367"><ele>331.0</ele><time>2026-04-19T09:31:53.962Z</time></trkpt><trkpt lat="41.2937117" lon="0.647"><ele>331.0</ele><time>2026-04-19T09:31:54.963Z</time></trkpt><trkpt lat="41.2937617" lon="0.646865"><ele>331.0</ele><time>2026-04-19T09:31:55.963Z</time></trkpt><trkpt lat="41.293835" lon="0.646745"><ele>329.0</ele><time>2026-04-19T09:31:56.963Z</time></trkpt><trkpt lat="41.293925" lon="0.6466383"><ele>327.0</ele><time>2026-04-19T09:31:57.962Z</time></trkpt><trkpt lat="41.2940467" lon="0.6465533"><ele>325.0</ele><time>2026-04-19T09:31:58.962Z</time></trkpt><trkpt lat="41.294185" lon="0.6464733"><ele>323.0</ele><time>2026-04-19T09:31:59.962Z</time></trkpt><trkpt lat="41.29432" lon="0.6463833"><ele>323.0</ele><time>2026-04-19T09:32:00.963Z</time></trkpt><trkpt lat="41.2944517" lon="0.64628"><ele>323.0</ele><time>2026-04-19T09:32:01.963Z</time></trkpt><trkpt lat="41.2945783" lon="0.6461767"><ele>323.0</ele><time>2026-04-19T09:32:02.963Z</time></trkpt><trkpt lat="41.2947" lon="0.646065"><ele>323.0</ele><time>2026-04-19T09:32:03.962Z</time></trkpt><trkpt lat="41.29482" lon="0.6459767"><ele>320.79999999999995</ele><time>2026-04-19T09:32:04.963Z</time></trkpt><trkpt lat="41.2949217" lon="0.6458817"><ele>318.59999999999997</ele><time>2026-04-19T09:32:05.963Z</time></trkpt><trkpt lat="41.2950017" lon="0.64579"><ele>316.4</ele><time>2026-04-19T09:32:06.962Z</time></trkpt><trkpt lat="41.2950633" lon="0.6456817"><ele>314.2</ele><time>2026-04-19T09:32:07.963Z</time></trkpt><trkpt lat="41.295095" lon="0.6455583"><ele>312.0</ele><time>2026-04-19T09:32:08.963Z</time></trkpt><trkpt lat="41.295095" lon="0.6454217"><ele>312.0</ele><time>2026-04-19T09:32:09.962Z</time></trkpt><trkpt lat="41.2950567" lon="0.645285"><ele>312.0</ele><time>2026-04-19T09:32:10.962Z</time></trkpt><trkpt lat="41.2949867" lon="0.6451483"><ele>312.0</ele><time>2026-04-19T09:32:11.963Z</time></trkpt><trkpt lat="41.2949" lon="0.6450167"><ele>312.0</ele><time>2026-04-19T09:32:12.963Z</time></trkpt><trkpt lat="41.2948167" lon="0.644895"><ele>312.6</ele><time>2026-04-19T09:32:13.963Z</time></trkpt><trkpt lat="41.29475" lon="0.644775"><ele>313.2</ele><time>2026-04-19T09:32:14.963Z</time></trkpt><trkpt lat="41.2946917" lon="0.6446633"><ele>313.8</ele><time>2026-04-19T09:32:15.963Z</time></trkpt><trkpt lat="41.2946417" lon="0.6445467"><ele>314.4</ele><time>2026-04-19T09:32:16.963Z</time></trkpt><trkpt lat="41.2946117" lon="0.64442"><ele>315.0</ele><time>2026-04-19T09:32:17.963Z</time></trkpt><trkpt lat="41.29461" lon="0.6442933"><ele>313.6</ele><time>2026-04-19T09:32:18.962Z</time></trkpt><trkpt lat="41.29462" lon="0.6441633"><ele>312.2</ele><time>2026-04-19T09:32:19.963Z</time></trkpt><trkpt lat="41.2946483" lon="0.64403"><ele>310.8</ele><time>2026-04-19T09:32:20.963Z</time></trkpt><trkpt lat="41.294695" lon="0.6438967"><ele>309.4</ele><time>2026-04-19T09:32:21.963Z</time></trkpt><trkpt lat="41.2947533" lon="0.6437733"><ele>308.0</ele><time>2026-04-19T09:32:22.962Z</time></trkpt><trkpt lat="41.2948283" lon="0.643645"><ele>306.0</ele><time>2026-04-19T09:32:23.962Z</time></trkpt><trkpt lat="41.2949083" lon="0.643515"><ele>304.0</ele><time>2026-04-19T09:32:24.962Z</time></trkpt><trkpt lat="41.294995" lon="0.6433967"><ele>302.0</ele><time>2026-04-19T09:32:25.962Z</time></trkpt><trkpt lat="41.2950917" lon="0.64327"><ele>300.0</ele><time>2026-04-19T09:32:26.962Z</time></trkpt><trkpt lat="41.2951933" lon="0.6431267"><ele>300.0</ele><time>2026-04-19T09:32:27.963Z</time></trkpt><trkpt lat="41.295295" lon="0.6429683"><ele>300.0</ele><time>2026-04-19T09:32:28.963Z</time></trkpt><trkpt lat="41.2953933" lon="0.642815"><ele>300.0</ele><time>2026-04-19T09:32:29.962Z</time></trkpt><trkpt lat="41.29549" lon="0.64266"><ele>298.25</ele><time>2026-04-19T09:32:30.963Z</time></trkpt><trkpt lat="41.29557" lon="0.6425017"><ele>296.5</ele><time>2026-04-19T09:32:31.963Z</time></trkpt><trkpt lat="41.29564" lon="0.6423467"><ele>294.75</ele><time>2026-04-19T09:32:32.963Z</time></trkpt><trkpt lat="41.2956933" lon="0.6422"><ele>293.0</ele><time>2026-04-19T09:32:33.962Z</time></trkpt><trkpt lat="41.29573" lon="0.6420583"><ele>291.0</ele><time>2026-04-19T09:32:34.962Z</time></trkpt><trkpt lat="41.2957817" lon="0.6419333"><ele>289.0</ele><time>2026-04-19T09:32:35.962Z</time></trkpt><trkpt lat="41.2958333" lon="0.6417883"><ele>287.0</ele><time>2026-04-19T09:32:36.963Z</time></trkpt><trkpt lat="41.29588" lon="0.641635"><ele>285.0</ele><time>2026-04-19T09:32:37.963Z</time></trkpt><trkpt lat="41.2959067" lon="0.6414833"><ele>285.0</ele><time>2026-04-19T09:32:38.963Z</time></trkpt><trkpt lat="41.2959083" lon="0.6413217"><ele>285.0</ele><time>2026-04-19T09:32:39.963Z</time></trkpt><trkpt lat="41.2959" lon="0.6411583"><ele>285.0</ele><time>2026-04-19T09:32:40.963Z</time></trkpt><trkpt lat="41.2958517" lon="0.640995"><ele>285.0</ele><time>2026-04-19T09:32:41.963Z</time></trkpt><trkpt lat="41.295795" lon="0.640845"><ele>283.75</ele><time>2026-04-19T09:32:42.962Z</time></trkpt><trkpt lat="41.2957267" lon="0.640695"><ele>282.5</ele><time>2026-04-19T09:32:43.963Z</time></trkpt><trkpt lat="41.2956733" lon="0.640545"><ele>281.25</ele><time>2026-04-19T09:32:44.962Z</time></trkpt><trkpt lat="41.29563" lon="0.6404"><ele>280.0</ele><time>2026-04-19T09:32:45.962Z</time></trkpt><trkpt lat="41.2955883" lon="0.6402667"><ele>278.0</ele><time>2026-04-19T09:32:46.963Z</time></trkpt><trkpt lat="41.2955267" lon="0.6401417"><ele>276.0</ele><time>2026-04-19T09:32:47.963Z</time></trkpt><trkpt lat="41.295455" lon="0.640045"><ele>274.0</ele><time>2026-04-19T09:32:48.962Z</time></trkpt><trkpt lat="41.295345" lon="0.6399767"><ele>272.0</ele><time>2026-04-19T09:32:49.962Z</time></trkpt><trkpt lat="41.2952267" lon="0.6399283"><ele>272.0</ele><time>2026-04-19T09:32:50.962Z</time></trkpt><trkpt lat="41.2951017" lon="0.6398783"><ele>272.0</ele><time>2026-04-19T09:32:51.963Z</time></trkpt><trkpt lat="41.2949767" lon="0.6398117"><ele>272.0</ele><time>2026-04-19T09:32:52.962Z</time></trkpt><trkpt lat="41.2948417" lon="0.6397367"><ele>272.0</ele><time>2026-04-19T09:32:53.963Z</time></trkpt><trkpt lat="41.2947033" lon="0.6396567"><ele>269.5</ele><time>2026-04-19T09:32:54.963Z</time></trkpt><trkpt lat="41.2945633" lon="0.63957"><ele>267.0</ele><time>2026-04-19T09:32:55.963Z</time></trkpt><trkpt lat="41.29443" lon="0.63949"><ele>264.5</ele><time>2026-04-19T09:32:56.963Z</time></trkpt><trkpt lat="41.2942933" lon="0.6394167"><ele>262.0</ele><time>2026-04-19T09:32:57.963Z</time></trkpt><trkpt lat="41.2941633" lon="0.639345"><ele>261.6</ele><time>2026-04-19T09:32:58.963Z</time></trkpt><trkpt lat="41.2940533" lon="0.6392667"><ele>261.2</ele><time>2026-04-19T09:32:59.962Z</time></trkpt><trkpt lat="41.29396" lon="0.6392017"><ele>260.8</ele><time>2026-04-19T09:33:00.963Z</time></trkpt><trkpt lat="41.2939" lon="0.6391367"><ele>260.4</ele><time>2026-04-19T09:33:01.962Z</time></trkpt><trkpt lat="41.2938667" lon="0.6390433"><ele>260.0</ele><time>2026-04-19T09:33:02.962Z</time></trkpt><trkpt lat="41.293845" lon="0.638935"><ele>259.2</ele><time>2026-04-19T09:33:03.962Z</time></trkpt><trkpt lat="41.2938417" lon="0.6388117"><ele>258.4</ele><time>2026-04-19T09:33:04.962Z</time></trkpt><trkpt lat="41.293845" lon="0.638685"><ele>257.6</ele><time>2026-04-19T09:33:05.962Z</time></trkpt><trkpt lat="41.29386" lon="0.6385367"><ele>256.8</ele><time>2026-04-19T09:33:06.962Z</time></trkpt><trkpt lat="41.2938667" lon="0.6383817"><ele>256.0</ele><time>2026-04-19T09:33:07.962Z</time></trkpt><trkpt lat="41.2938683" lon="0.6382167"><ele>255.5</ele><time>2026-04-19T09:33:08.962Z</time></trkpt><trkpt lat="41.2938567" lon="0.6380533"><ele>255.0</ele><time>2026-04-19T09:33:09.962Z</time></trkpt><trkpt lat="41.29384" lon="0.637885"><ele>254.5</ele><time>2026-04-19T09:33:10.962Z</time></trkpt><trkpt lat="41.293835" lon="0.637725"><ele>254.0</ele><time>2026-04-19T09:33:11.962Z</time></trkpt><trkpt lat="41.29384" lon="0.6375817"><ele>253.6</ele><time>2026-04-19T09:33:12.962Z</time></trkpt><trkpt lat="41.293855" lon="0.63746"><ele>253.2</ele><time>2026-04-19T09:33:13.963Z</time></trkpt><trkpt lat="41.2938917" lon="0.6373633"><ele>252.79999999999998</ele><time>2026-04-19T09:33:14.962Z</time></trkpt><trkpt lat="41.293945" lon="0.6372717"><ele>252.39999999999998</ele><time>2026-04-19T09:33:15.962Z</time></trkpt><trkpt lat="41.2940167" lon="0.6371833"><ele>252.0</ele><time>2026-04-19T09:33:16.962Z</time></trkpt><trkpt lat="41.2940967" lon="0.6370867"><ele>253.25</ele><time>2026-04-19T09:33:17.963Z</time></trkpt><trkpt lat="41.29418" lon="0.6369717"><ele>254.5</ele><time>2026-04-19T09:33:18.962Z</time></trkpt><trkpt lat="41.2942567" lon="0.6368517"><ele>255.75</ele><time>2026-04-19T09:33:19.963Z</time></trkpt><trkpt lat="41.2943317" lon="0.6367233"><ele>257.0</ele><time>2026-04-19T09:33:20.963Z</time></trkpt><trkpt lat="41.2943983" lon="0.636575"><ele>254.5</ele><time>2026-04-19T09:33:21.962Z</time></trkpt><trkpt lat="41.2944367" lon="0.6364117"><ele>252.0</ele><time>2026-04-19T09:33:22.962Z</time></trkpt><trkpt lat="41.2944633" lon="0.6362233"><ele>249.5</ele><time>2026-04-19T09:33:23.962Z</time></trkpt><trkpt lat="41.2944883" lon="0.6360267"><ele>247.0</ele><time>2026-04-19T09:33:24.963Z</time></trkpt><trkpt lat="41.2945233" lon="0.63585"><ele>246.0</ele><time>2026-04-19T09:33:25.962Z</time></trkpt><trkpt lat="41.29458" lon="0.6356967"><ele>245.0</ele><time>2026-04-19T09:33:26.962Z</time></trkpt><trkpt lat="41.2946567" lon="0.6355483"><ele>244.0</ele><time>2026-04-19T09:33:27.963Z</time></trkpt><trkpt lat="41.2947667" lon="0.63542"><ele>243.0</ele><time>2026-04-19T09:33:28.962Z</time></trkpt><trkpt lat="41.2948933" lon="0.6352967"><ele>240.33333333333331</ele><time>2026-04-19T09:33:29.963Z</time></trkpt><trkpt lat="41.2950267" lon="0.6351617"><ele>237.66666666666666</ele><time>2026-04-19T09:33:30.962Z</time></trkpt><trkpt lat="41.29515" lon="0.6350333"><ele>235.0</ele><time>2026-04-19T09:33:31.962Z</time></trkpt><trkpt lat="41.29528" lon="0.6349183"><ele>235.0</ele><time>2026-04-19T09:33:32.963Z</time></trkpt><trkpt lat="41.295415" lon="0.634825"><ele>235.0</ele><time>2026-04-19T09:33:33.962Z</time></trkpt><trkpt lat="41.2955333" lon="0.63474"><ele>235.0</ele><time>2026-04-19T09:33:34.962Z</time></trkpt><trkpt lat="41.2956433" lon="0.6346933"><ele>235.0</ele><time>2026-04-19T09:33:35.963Z</time></trkpt><trkpt lat="41.2957417" lon="0.6346683"><ele>236.0</ele><time>2026-04-19T09:33:36.963Z</time></trkpt><trkpt lat="41.2958483" lon="0.6346683"><ele>237.0</ele><time>2026-04-19T09:33:37.962Z</time></trkpt><trkpt lat="41.2959517" lon="0.6346983"><ele>238.0</ele><time>2026-04-19T09:33:38.962Z</time></trkpt><trkpt lat="41.2960533" lon="0.6347767"><ele>239.0</ele><time>2026-04-19T09:33:39.963Z</time></trkpt><trkpt lat="41.2961383" lon="0.63489"><ele>239.0</ele><time>2026-04-19T09:33:40.962Z</time></trkpt><trkpt lat="41.2962083" lon="0.6350383"><ele>239.0</ele><time>2026-04-19T09:33:41.962Z</time></trkpt><trkpt lat="41.296275" lon="0.635205"><ele>239.0</ele><time>2026-04-19T09:33:42.963Z</time></trkpt><trkpt lat="41.2963433" lon="0.635365"><ele>239.0</ele><time>2026-04-19T09:33:43.962Z</time></trkpt><trkpt lat="41.29641" lon="0.6355067"><ele>237.25</ele><time>2026-04-19T09:33:44.963Z</time></trkpt><trkpt lat="41.2964783" lon="0.63564"><ele>235.5</ele><time>2026-04-19T09:33:45.962Z</time></trkpt><trkpt lat="41.2965533" lon="0.6357717"><ele>233.75</ele><time>2026-04-19T09:33:46.962Z</time></trkpt><trkpt lat="41.2966383" lon="0.6358867"><ele>232.0</ele><time>2026-04-19T09:33:47.962Z</time></trkpt><trkpt lat="41.296715" lon="0.6359967"><ele>232.0</ele><time>2026-04-19T09:33:48.962Z</time></trkpt><trkpt lat="41.29681" lon="0.6361217"><ele>232.0</ele><time>2026-04-19T09:33:49.963Z</time></trkpt><trkpt lat="41.2969017" lon="0.63624"><ele>232.0</ele><time>2026-04-19T09:33:50.963Z</time></trkpt><trkpt lat="41.296985" lon="0.6363467"><ele>232.0</ele><time>2026-04-19T09:33:51.962Z</time></trkpt><trkpt lat="41.2970633" lon="0.63644"><ele>232.39999999999998</ele><time>2026-04-19T09:33:52.962Z</time></trkpt><trkpt lat="41.2971267" lon="0.6365333"><ele>232.79999999999998</ele><time>2026-04-19T09:33:53.962Z</time></trkpt><trkpt lat="41.2971933" lon="0.636635"><ele>233.2</ele><time>2026-04-19T09:33:54.962Z</time></trkpt><trkpt lat="41.2972533" lon="0.63675"><ele>233.6</ele><time>2026-04-19T09:33:55.963Z</time></trkpt><trkpt lat="41.2973117" lon="0.6368817"><ele>234.0</ele><time>2026-04-19T09:33:56.962Z</time></trkpt><trkpt lat="41.2973683" lon="0.637035"><ele>234.0</ele><time>2026-04-19T09:33:57.963Z</time></trkpt><trkpt lat="41.297415" lon="0.637205"><ele>234.0</ele><time>2026-04-19T09:33:58.963Z</time></trkpt><trkpt lat="41.2974583" lon="0.6373833"><ele>234.0</ele><time>2026-04-19T09:33:59.963Z</time></trkpt><trkpt lat="41.29749" lon="0.6375817"><ele>234.0</ele><time>2026-04-19T09:34:00.962Z</time></trkpt><trkpt lat="41.2975333" lon="0.63777"><ele>235.66666666666669</ele><time>2026-04-19T09:34:01.963Z</time></trkpt><trkpt lat="41.2976" lon="0.637955"><ele>237.33333333333334</ele><time>2026-04-19T09:34:02.962Z</time></trkpt><trkpt lat="41.2976533" lon="0.63816"><ele>239.0</ele><time>2026-04-19T09:34:03.962Z</time></trkpt><trkpt lat="41.2976933" lon="0.63837"><ele>239.0</ele><time>2026-04-19T09:34:04.963Z</time></trkpt><trkpt lat="41.29772" lon="0.6385717"><ele>239.0</ele><time>2026-04-19T09:34:05.962Z</time></trkpt><trkpt lat="41.297745" lon="0.6387717"><ele>239.0</ele><time>2026-04-19T09:34:06.962Z</time></trkpt><trkpt lat="41.2977617" lon="0.63896"><ele>239.0</ele><time>2026-04-19T09:34:07.962Z</time></trkpt><trkpt lat="41.2977783" lon="0.639125"><ele>239.6</ele><time>2026-04-19T09:34:08.962Z</time></trkpt><trkpt lat="41.2977833" lon="0.6392817"><ele>240.2</ele><time>2026-04-19T09:34:09.962Z</time></trkpt><trkpt lat="41.297785" lon="0.6394233"><ele>240.79999999999998</ele><time>2026-04-19T09:34:10.962Z</time></trkpt><trkpt lat="41.2977717" lon="0.6395467"><ele>241.39999999999998</ele><time>2026-04-19T09:34:11.962Z</time></trkpt><trkpt lat="41.2977517" lon="0.63967"><ele>242.0</ele><time>2026-04-19T09:34:12.963Z</time></trkpt><trkpt lat="41.2977233" lon="0.639795"><ele>244.2</ele><time>2026-04-19T09:34:13.963Z</time></trkpt><trkpt lat="41.297705" lon="0.63993"><ele>246.39999999999998</ele><time>2026-04-19T09:34:14.962Z</time></trkpt><trkpt lat="41.2977067" lon="0.6400717"><ele>248.60000000000002</ele><time>2026-04-19T09:34:15.962Z</time></trkpt><trkpt lat="41.2977217" lon="0.6402083"><ele>250.8</ele><time>2026-04-19T09:34:16.963Z</time></trkpt><trkpt lat="41.2977667" lon="0.64034"><ele>253.0</ele><time>2026-04-19T09:34:17.963Z</time></trkpt><trkpt lat="41.29784" lon="0.6404633"><ele>254.60000000000002</ele><time>2026-04-19T09:34:18.962Z</time></trkpt><trkpt lat="41.297925" lon="0.6405833"><ele>256.20000000000005</ele><time>2026-04-19T09:34:19.963Z</time></trkpt><trkpt lat="41.298005" lon="0.6406933"><ele>257.8</ele><time>2026-04-19T09:34:20.963Z</time></trkpt><trkpt lat="41.2980967" lon="0.6407567"><ele>259.40000000000003</ele><time>2026-04-19T09:34:21.962Z</time></trkpt><trkpt lat="41.2981883" lon="0.6407983"><ele>261.0</ele><time>2026-04-19T09:34:22.962Z</time></trkpt><trkpt lat="41.2982567" lon="0.6408267"><ele>257.40000000000003</ele><time>2026-04-19T09:34:23.963Z</time></trkpt><trkpt lat="41.2983467" lon="0.6408567"><ele>253.8</ele><time>2026-04-19T09:34:25.963Z</time></trkpt><trkpt lat="41.2983833" lon="0.6409433"><ele>250.20000000000002</ele><time>2026-04-19T09:34:48.962Z</time></trkpt><trkpt lat="41.2984433" lon="0.6410267"><ele>246.60000000000002</ele><time>2026-04-19T09:34:49.963Z</time></trkpt><trkpt lat="41.2985117" lon="0.64112"><ele>243.0</ele><time>2026-04-19T09:34:50.962Z</time></trkpt><trkpt lat="41.298575" lon="0.6412267"><ele>242.75</ele><time>2026-04-19T09:34:51.962Z</time></trkpt><trkpt lat="41.298635" lon="0.64135"><ele>242.5</ele><time>2026-04-19T09:34:52.963Z</time></trkpt><trkpt lat="41.2986917" lon="0.6414833"><ele>242.25</ele><time>2026-04-19T09:34:53.962Z</time></trkpt><trkpt lat="41.2987433" lon="0.641625"><ele>242.0</ele><time>2026-04-19T09:34:54.963Z</time></trkpt><trkpt lat="41.2987917" lon="0.6417733"><ele>242.0</ele><time>2026-04-19T09:34:55.963Z</time></trkpt><trkpt lat="41.2988517" lon="0.6419083"><ele>242.0</ele><time>2026-04-19T09:34:56.963Z</time></trkpt><trkpt lat="41.2989467" lon="0.642035"><ele>242.0</ele><time>2026-04-19T09:34:57.962Z</time></trkpt><trkpt lat="41.2990567" lon="0.64213"><ele>242.0</ele><time>2026-04-19T09:34:58.962Z</time></trkpt><trkpt lat="41.2991617" lon="0.6422217"><ele>243.75</ele><time>2026-04-19T09:34:59.963Z</time></trkpt><trkpt lat="41.2992717" lon="0.6423183"><ele>245.5</ele><time>2026-04-19T09:35:00.963Z</time></trkpt><trkpt lat="41.2993717" lon="0.6424267"><ele>247.25</ele><time>2026-04-19T09:35:01.963Z</time></trkpt><trkpt lat="41.29946" lon="0.6425417"><ele>249.0</ele><time>2026-04-19T09:35:02.963Z</time></trkpt><trkpt lat="41.2995533" lon="0.6426467"><ele>249.0</ele><time>2026-04-19T09:35:03.962Z</time></trkpt><trkpt lat="41.2996367" lon="0.64273"><ele>249.0</ele><time>2026-04-19T09:35:04.962Z</time></trkpt><trkpt lat="41.299745" lon="0.642775"><ele>249.0</ele><time>2026-04-19T09:35:05.963Z</time></trkpt><trkpt lat="41.2998633" lon="0.64279"><ele>249.0</ele><time>2026-04-19T09:35:06.962Z</time></trkpt><trkpt lat="41.2999833" lon="0.6427767"><ele>250.5</ele><time>2026-04-19T09:35:07.962Z</time></trkpt><trkpt lat="41.30011" lon="0.64277"><ele>252.0</ele><time>2026-04-19T09:35:08.963Z</time></trkpt><trkpt lat="41.30023" lon="0.642755"><ele>253.5</ele><time>2026-04-19T09:35:09.962Z</time></trkpt><trkpt lat="41.3003483" lon="0.6427367"><ele>255.0</ele><time>2026-04-19T09:35:10.963Z</time></trkpt><trkpt lat="41.30045" lon="0.6427217"><ele>255.0</ele><time>2026-04-19T09:35:11.963Z</time></trkpt><trkpt lat="41.30055" lon="0.642715"><ele>255.0</ele><time>2026-04-19T09:35:12.963Z</time></trkpt><trkpt lat="41.3006483" lon="0.6427067"><ele>255.0</ele><time>2026-04-19T09:35:13.963Z</time></trkpt><trkpt lat="41.3007483" lon="0.6427"><ele>255.0</ele><time>2026-04-19T09:35:14.963Z</time></trkpt><trkpt lat="41.3008433" lon="0.6427033"><ele>255.0</ele><time>2026-04-19T09:35:15.963Z</time></trkpt><trkpt lat="41.3009417" lon="0.64272"><ele>255.6</ele><time>2026-04-19T09:35:16.963Z</time></trkpt><trkpt lat="41.3010417" lon="0.64276"><ele>256.2</ele><time>2026-04-19T09:35:17.963Z</time></trkpt><trkpt lat="41.3011383" lon="0.6428033"><ele>256.8</ele><time>2026-04-19T09:35:18.963Z</time></trkpt><trkpt lat="41.3012367" lon="0.642855"><ele>257.4</ele><time>2026-04-19T09:35:19.963Z</time></trkpt><trkpt lat="41.3013267" lon="0.6429117"><ele>258.0</ele><time>2026-04-19T09:35:20.963Z</time></trkpt><trkpt lat="41.3014067" lon="0.6429533"><ele>259.0</ele><time>2026-04-19T09:35:21.963Z</time></trkpt><trkpt lat="41.3014883" lon="0.6429983"><ele>260.0</ele><time>2026-04-19T09:35:22.962Z</time></trkpt><trkpt lat="41.301565" lon="0.6430333"><ele>261.0</ele><time>2026-04-19T09:35:23.963Z</time></trkpt><trkpt lat="41.30164" lon="0.64308"><ele>262.0</ele><time>2026-04-19T09:35:24.963Z</time></trkpt><trkpt lat="41.3017067" lon="0.6431233"><ele>263.0</ele><time>2026-04-19T09:35:25.962Z</time></trkpt><trkpt lat="41.3017783" lon="0.6431783"><ele>264.0</ele><time>2026-04-19T09:35:26.963Z</time></trkpt><trkpt lat="41.30185" lon="0.6432333"><ele>264.0</ele><time>2026-04-19T09:35:27.962Z</time></trkpt><trkpt lat="41.3019267" lon="0.6433133"><ele>264.0</ele><time>2026-04-19T09:35:28.962Z</time></trkpt><trkpt lat="41.3020133" lon="0.643395"><ele>264.0</ele><time>2026-04-19T09:35:29.963Z</time></trkpt><trkpt lat="41.3021083" lon="0.64348"><ele>264.0</ele><time>2026-04-19T09:35:30.963Z</time></trkpt><trkpt lat="41.3022033" lon="0.6435583"><ele>264.0</ele><time>2026-04-19T09:35:31.962Z</time></trkpt><trkpt lat="41.3022983" lon="0.643635"><ele>264.59999999999997</ele><time>2026-04-19T09:35:32.962Z</time></trkpt><trkpt lat="41.3023933" lon="0.6437033"><ele>265.2</ele><time>2026-04-19T09:35:33.962Z</time></trkpt><trkpt lat="41.3024783" lon="0.6437783"><ele>265.79999999999995</ele><time>2026-04-19T09:35:34.962Z</time></trkpt><trkpt lat="41.3025633" lon="0.643845"><ele>266.4</ele><time>2026-04-19T09:35:35.963Z</time></trkpt><trkpt lat="41.3026567" lon="0.643915"><ele>267.0</ele><time>2026-04-19T09:35:36.962Z</time></trkpt><trkpt lat="41.3027567" lon="0.6439933"><ele>267.0</ele><time>2026-04-19T09:35:37.963Z</time></trkpt><trkpt lat="41.3028633" lon="0.64407"><ele>267.0</ele><time>2026-04-19T09:35:38.963Z</time></trkpt><trkpt lat="41.3029717" lon="0.6441533"><ele>267.0</ele><time>2026-04-19T09:35:39.962Z</time></trkpt><trkpt lat="41.3030683" lon="0.6442333"><ele>267.0</ele><time>2026-04-19T09:35:40.963Z</time></trkpt><trkpt lat="41.3031683" lon="0.6443067"><ele>268.5</ele><time>2026-04-19T09:35:41.963Z</time></trkpt><trkpt lat="41.3032733" lon="0.6443717"><ele>270.0</ele><time>2026-04-19T09:35:42.962Z</time></trkpt><trkpt lat="41.3033833" lon="0.6444267"><ele>271.5</ele><time>2026-04-19T09:35:43.962Z</time></trkpt><trkpt lat="41.3035" lon="0.6444733"><ele>273.0</ele><time>2026-04-19T09:35:44.963Z</time></trkpt><trkpt lat="41.3036133" lon="0.6445183"><ele>273.0</ele><time>2026-04-19T09:35:45.962Z</time></trkpt><trkpt lat="41.3037317" lon="0.6445467"><ele>273.0</ele><time>2026-04-19T09:35:46.963Z</time></trkpt><trkpt lat="41.303855" lon="0.6445383"><ele>273.0</ele><time>2026-04-19T09:35:47.962Z</time></trkpt><trkpt lat="41.3039767" lon="0.6444983"><ele>273.0</ele><time>2026-04-19T09:35:48.963Z</time></trkpt><trkpt lat="41.3041" lon="0.6444367"><ele>275.25</ele><time>2026-04-19T09:35:49.962Z</time></trkpt><trkpt lat="41.3042283" lon="0.64436"><ele>277.5</ele><time>2026-04-19T09:35:50.963Z</time></trkpt><trkpt lat="41.304355" lon="0.6442817"><ele>279.75</ele><time>2026-04-19T09:35:51.962Z</time></trkpt><trkpt lat="41.3044717" lon="0.64421"><ele>282.0</ele><time>2026-04-19T09:35:52.963Z</time></trkpt><trkpt lat="41.304595" lon="0.64414"><ele>282.0</ele><time>2026-04-19T09:35:53.963Z</time></trkpt><trkpt lat="41.3047133" lon="0.64407"><ele>282.0</ele><time>2026-04-19T09:35:54.962Z</time></trkpt><trkpt lat="41.3048283" lon="0.6439983"><ele>282.0</ele><time>2026-04-19T09:35:55.962Z</time></trkpt><trkpt lat="41.3049417" lon="0.6439317"><ele>282.0</ele><time>2026-04-19T09:35:56.962Z</time></trkpt><trkpt lat="41.30505" lon="0.6438717"><ele>282.0</ele><time>2026-04-19T09:35:57.963Z</time></trkpt><trkpt lat="41.3051667" lon="0.643805"><ele>282.0</ele><time>2026-04-19T09:35:58.962Z</time></trkpt><trkpt lat="41.305285" lon="0.643735"><ele>282.0</ele><time>2026-04-19T09:35:59.963Z</time></trkpt><trkpt lat="41.3054133" lon="0.6436367"><ele>282.0</ele><time>2026-04-19T09:36:00.962Z</time></trkpt><trkpt lat="41.3055433" lon="0.643525"><ele>284.25</ele><time>2026-04-19T09:36:01.962Z</time></trkpt><trkpt lat="41.3056483" lon="0.643445"><ele>286.5</ele><time>2026-04-19T09:36:02.963Z</time></trkpt><trkpt lat="41.3057517" lon="0.6433617"><ele>288.75</ele><time>2026-04-19T09:36:03.962Z</time></trkpt><trkpt lat="41.3058383" lon="0.6432767"><ele>291.0</ele><time>2026-04-19T09:36:04.962Z</time></trkpt><trkpt lat="41.3059217" lon="0.64318"><ele>291.0</ele><time>2026-04-19T09:36:05.963Z</time></trkpt><trkpt lat="41.3060083" lon="0.6430883"><ele>291.0</ele><time>2026-04-19T09:36:06.962Z</time></trkpt><trkpt lat="41.3060883" lon="0.642995"><ele>291.0</ele><time>2026-04-19T09:36:07.963Z</time></trkpt><trkpt lat="41.306165" lon="0.64291"><ele>291.0</ele><time>2026-04-19T09:36:08.963Z</time></trkpt><trkpt lat="41.3062383" lon="0.642825"><ele>291.0</ele><time>2026-04-19T09:36:09.963Z</time></trkpt><trkpt lat="41.3063033" lon="0.6427317"><ele>292.6</ele><time>2026-04-19T09:36:10.963Z</time></trkpt><trkpt lat="41.3063617" lon="0.64263"><ele>294.20000000000005</ele><time>2026-04-19T09:36:11.963Z</time></trkpt><trkpt lat="41.3064183" lon="0.64252"><ele>295.79999999999995</ele><time>2026-04-19T09:36:12.962Z</time></trkpt><trkpt lat="41.3064733" lon="0.642405"><ele>297.4</ele><time>2026-04-19T09:36:13.962Z</time></trkpt><trkpt lat="41.30653" lon="0.6422917"><ele>299.0</ele><time>2026-04-19T09:36:14.962Z</time></trkpt><trkpt lat="41.3065817" lon="0.6421817"><ele>299.0</ele><time>2026-04-19T09:36:15.962Z</time></trkpt><trkpt lat="41.3066333" lon="0.642065"><ele>299.0</ele><time>2026-04-19T09:36:16.963Z</time></trkpt><trkpt lat="41.3066917" lon="0.641945"><ele>299.0</ele><time>2026-04-19T09:36:17.963Z</time></trkpt><trkpt lat="41.3067517" lon="0.6418367"><ele>299.0</ele><time>2026-04-19T09:36:18.963Z</time></trkpt><trkpt lat="41.3068033" lon="0.64174"><ele>299.0</ele><time>2026-04-19T09:36:19.962Z</time></trkpt><trkpt lat="41.3068517" lon="0.6416367"><ele>301.0</ele><time>2026-04-19T09:36:20.963Z</time></trkpt><trkpt lat="41.3069067" lon="0.64155"><ele>303.0</ele><time>2026-04-19T09:36:21.962Z</time></trkpt><trkpt lat="41.3069683" lon="0.6414567"><ele>305.0</ele><time>2026-04-19T09:36:22.963Z</time></trkpt><trkpt lat="41.3070333" lon="0.6413517"><ele>307.0</ele><time>2026-04-19T09:36:23.962Z</time></trkpt><trkpt lat="41.3071083" lon="0.641255"><ele>309.0</ele><time>2026-04-19T09:36:24.963Z</time></trkpt><trkpt lat="41.307175" lon="0.6411483"><ele>311.2</ele><time>2026-04-19T09:36:25.962Z</time></trkpt><trkpt lat="41.3072383" lon="0.6410383"><ele>313.4</ele><time>2026-04-19T09:36:26.963Z</time></trkpt><trkpt lat="41.3073" lon="0.6409133"><ele>315.6</ele><time>2026-04-19T09:36:27.962Z</time></trkpt><trkpt lat="41.3073617" lon="0.6407933"><ele>317.8</ele><time>2026-04-19T09:36:28.963Z</time></trkpt><trkpt lat="41.3074183" lon="0.6406783"><ele>320.0</ele><time>2026-04-19T09:36:29.962Z</time></trkpt><trkpt lat="41.3074767" lon="0.6405683"><ele>320.0</ele><time>2026-04-19T09:36:30.962Z</time></trkpt><trkpt lat="41.3075367" lon="0.6404633"><ele>320.0</ele><time>2026-04-19T09:36:31.962Z</time></trkpt><trkpt lat="41.3075983" lon="0.6403633"><ele>320.0</ele><time>2026-04-19T09:36:32.962Z</time></trkpt><trkpt lat="41.3076567" lon="0.6402617"><ele>320.0</ele><time>2026-04-19T09:36:33.962Z</time></trkpt><trkpt lat="41.307725" lon="0.6401667"><ele>320.0</ele><time>2026-04-19T09:36:34.962Z</time></trkpt><trkpt lat="41.3077983" lon="0.640075"><ele>321.8</ele><time>2026-04-19T09:36:35.962Z</time></trkpt><trkpt lat="41.3078783" lon="0.6399883"><ele>323.6</ele><time>2026-04-19T09:36:36.963Z</time></trkpt><trkpt lat="41.3079567" lon="0.6399033"><ele>325.4</ele><time>2026-04-19T09:36:37.963Z</time></trkpt><trkpt lat="41.3080433" lon="0.639815"><ele>327.2</ele><time>2026-04-19T09:36:38.963Z</time></trkpt><trkpt lat="41.3081283" lon="0.63974"><ele>329.0</ele><time>2026-04-19T09:36:39.963Z</time></trkpt><trkpt lat="41.3082083" lon="0.6396733"><ele>329.0</ele><time>2026-04-19T09:36:40.963Z</time></trkpt><trkpt lat="41.3082883" lon="0.6396133"><ele>329.0</ele><time>2026-04-19T09:36:41.962Z</time></trkpt><trkpt lat="41.30837" lon="0.6395667"><ele>329.0</ele><time>2026-04-19T09:36:42.962Z</time></trkpt><trkpt lat="41.3084467" lon="0.6395283"><ele>329.0</ele><time>2026-04-19T09:36:43.963Z</time></trkpt><trkpt lat="41.3085367" lon="0.6395067"><ele>329.0</ele><time>2026-04-19T09:36:44.963Z</time></trkpt><trkpt lat="41.3086383" lon="0.6394983"><ele>329.0</ele><time>2026-04-19T09:36:45.962Z</time></trkpt><trkpt lat="41.3087433" lon="0.6395033"><ele>329.0</ele><time>2026-04-19T09:36:46.963Z</time></trkpt><trkpt lat="41.3088433" lon="0.6395083"><ele>329.0</ele><time>2026-04-19T09:36:47.962Z</time></trkpt><trkpt lat="41.3089467" lon="0.6395017"><ele>329.0</ele><time>2026-04-19T09:36:48.962Z</time></trkpt><trkpt lat="41.30904" lon="0.63948"><ele>329.0</ele><time>2026-04-19T09:36:49.962Z</time></trkpt><trkpt lat="41.30913" lon="0.6394483"><ele>326.59999999999997</ele><time>2026-04-19T09:36:50.963Z</time></trkpt><trkpt lat="41.3092267" lon="0.6393883"><ele>324.2</ele><time>2026-04-19T09:36:51.963Z</time></trkpt><trkpt lat="41.3093283" lon="0.6393167"><ele>321.79999999999995</ele><time>2026-04-19T09:36:52.962Z</time></trkpt><trkpt lat="41.30942" lon="0.6392283"><ele>319.4</ele><time>2026-04-19T09:36:53.963Z</time></trkpt><trkpt lat="41.30951" lon="0.63914"><ele>317.0</ele><time>2026-04-19T09:36:54.963Z</time></trkpt><trkpt lat="41.3095967" lon="0.6390633"><ele>317.0</ele><time>2026-04-19T09:36:55.962Z</time></trkpt><trkpt lat="41.3097" lon="0.6390117"><ele>317.0</ele><time>2026-04-19T09:36:56.963Z</time></trkpt><trkpt lat="41.309805" lon="0.6389817"><ele>317.0</ele><time>2026-04-19T09:36:57.962Z</time></trkpt><trkpt lat="41.3099117" lon="0.638985"><ele>317.0</ele><time>2026-04-19T09:36:58.963Z</time></trkpt><trkpt lat="41.3100217" lon="0.6390167"><ele>317.0</ele><time>2026-04-19T09:36:59.963Z</time></trkpt><trkpt lat="41.3101233" lon="0.6390667"><ele>316.83333333333337</ele><time>2026-04-19T09:37:00.962Z</time></trkpt><trkpt lat="41.3102117" lon="0.6391283"><ele>316.6666666666667</ele><time>2026-04-19T09:37:01.962Z</time></trkpt><trkpt lat="41.310285" lon="0.6392117"><ele>316.5</ele><time>2026-04-19T09:37:02.963Z</time></trkpt><trkpt lat="41.3103433" lon="0.6392983"><ele>316.3333333333333</ele><time>2026-04-19T09:37:03.962Z</time></trkpt><trkpt lat="41.310385" lon="0.6393833"><ele>316.16666666666663</ele><time>2026-04-19T09:37:04.963Z</time></trkpt><trkpt lat="41.31042" lon="0.63946"><ele>316.0</ele><time>2026-04-19T09:37:05.962Z</time></trkpt><trkpt lat="41.3104533" lon="0.6395367"><ele>317.0</ele><time>2026-04-19T09:37:06.963Z</time></trkpt><trkpt lat="41.3105167" lon="0.6396767"><ele>318.0</ele><time>2026-04-19T09:37:08.963Z</time></trkpt><trkpt lat="41.310555" lon="0.6397517"><ele>319.0</ele><time>2026-04-19T09:37:09.963Z</time></trkpt><trkpt lat="41.31059" lon="0.6398267"><ele>320.0</ele><time>2026-04-19T09:37:10.963Z</time></trkpt><trkpt lat="41.3106283" lon="0.6398983"><ele>321.0</ele><time>2026-04-19T09:37:11.962Z</time></trkpt><trkpt lat="41.3106667" lon="0.6399683"><ele>322.0</ele><time>2026-04-19T09:37:12.963Z</time></trkpt><trkpt lat="41.3107033" lon="0.64004"><ele>320.2857142857143</ele><time>2026-04-19T09:37:13.962Z</time></trkpt><trkpt lat="41.310735" lon="0.6401167"><ele>318.57142857142856</ele><time>2026-04-19T09:37:14.962Z</time></trkpt><trkpt lat="41.310775" lon="0.6401917"><ele>316.8571428571429</ele><time>2026-04-19T09:37:15.962Z</time></trkpt><trkpt lat="41.31081" lon="0.640265"><ele>315.1428571428571</ele><time>2026-04-19T09:37:16.963Z</time></trkpt><trkpt lat="41.31085" lon="0.64034"><ele>313.42857142857144</ele><time>2026-04-19T09:37:17.962Z</time></trkpt><trkpt lat="41.3108867" lon="0.64042"><ele>311.7142857142857</ele><time>2026-04-19T09:37:18.962Z</time></trkpt><trkpt lat="41.3109283" lon="0.6405067"><ele>310.0</ele><time>2026-04-19T09:37:19.962Z</time></trkpt><trkpt lat="41.31097" lon="0.64059"><ele>310.0</ele><time>2026-04-19T09:37:20.962Z</time></trkpt><trkpt lat="41.31101" lon="0.6406817"><ele>310.0</ele><time>2026-04-19T09:37:21.962Z</time></trkpt><trkpt lat="41.3110533" lon="0.6407633"><ele>310.0</ele><time>2026-04-19T09:37:22.963Z</time></trkpt><trkpt lat="41.3110983" lon="0.6408433"><ele>310.0</ele><time>2026-04-19T09:37:23.962Z</time></trkpt><trkpt lat="41.3111417" lon="0.6409183"><ele>310.0</ele><time>2026-04-19T09:37:24.962Z</time></trkpt><trkpt lat="41.3111983" lon="0.6409883"><ele>310.0</ele><time>2026-04-19T09:37:25.962Z</time></trkpt><trkpt lat="41.3112783" lon="0.6410517"><ele>310.0</ele><time>2026-04-19T09:37:26.962Z</time></trkpt><trkpt lat="41.3113667" lon="0.6411017"><ele>310.0</ele><time>2026-04-19T09:37:27.962Z</time></trkpt><trkpt lat="41.31149" lon="0.6411283"><ele>310.0</ele><time>2026-04-19T09:37:28.963Z</time></trkpt><trkpt lat="41.3116083" lon="0.64113"><ele>310.0</ele><time>2026-04-19T09:37:29.963Z</time></trkpt><trkpt lat="41.3117383" lon="0.6411067"><ele>306.75</ele><time>2026-04-19T09:37:30.962Z</time></trkpt><trkpt lat="41.31186" lon="0.641075"><ele>303.5</ele><time>2026-04-19T09:37:31.962Z</time></trkpt><trkpt lat="41.3119783" lon="0.6410417"><ele>300.25</ele><time>2026-04-19T09:37:32.963Z</time></trkpt><trkpt lat="41.3120867" lon="0.6410033"><ele>297.0</ele><time>2026-04-19T09:37:33.962Z</time></trkpt><trkpt lat="41.3121883" lon="0.6409617"><ele>296.6666666666667</ele><time>2026-04-19T09:37:34.963Z</time></trkpt><trkpt lat="41.31228" lon="0.6409233"><ele>296.3333333333333</ele><time>2026-04-19T09:37:35.962Z</time></trkpt><trkpt lat="41.3123733" lon="0.6408933"><ele>296.0</ele><time>2026-04-19T09:37:36.963Z</time></trkpt><trkpt lat="41.3124567" lon="0.64086"><ele>295.66666666666663</ele><time>2026-04-19T09:37:37.962Z</time></trkpt><trkpt lat="41.312535" lon="0.6408283"><ele>295.3333333333333</ele><time>2026-04-19T09:37:38.963Z</time></trkpt><trkpt lat="41.3126167" lon="0.6407917"><ele>295.0</ele><time>2026-04-19T09:37:39.963Z</time></trkpt><trkpt lat="41.312705" lon="0.640745"><ele>295.0</ele><time>2026-04-19T09:37:40.963Z</time></trkpt><trkpt lat="41.3128" lon="0.6407"><ele>295.0</ele><time>2026-04-19T09:37:41.963Z</time></trkpt><trkpt lat="41.3129017" lon="0.6406533"><ele>295.0</ele><time>2026-04-19T09:37:42.962Z</time></trkpt><trkpt lat="41.3130083" lon="0.6406067"><ele>295.0</ele><time>2026-04-19T09:37:43.963Z</time></trkpt><trkpt lat="41.3131183" lon="0.640565"><ele>295.0</ele><time>2026-04-19T09:37:44.963Z</time></trkpt><trkpt lat="41.313225" lon="0.6405233"><ele>296.25</ele><time>2026-04-19T09:37:45.962Z</time></trkpt><trkpt lat="41.3133283" lon="0.6404917"><ele>297.5</ele><time>2026-04-19T09:37:46.963Z</time></trkpt><trkpt lat="41.3134333" lon="0.640465"><ele>298.75</ele><time>2026-04-19T09:37:47.962Z</time></trkpt><trkpt lat="41.3135517" lon="0.6404617"><ele>300.0</ele><time>2026-04-19T09:37:48.962Z</time></trkpt><trkpt lat="41.313675" lon="0.6404883"><ele>300.0</ele><time>2026-04-19T09:37:49.962Z</time></trkpt><trkpt lat="41.3138017" lon="0.6405317"><ele>300.0</ele><time>2026-04-19T09:37:50.963Z</time></trkpt><trkpt lat="41.3139383" lon="0.640565"><ele>300.0</ele><time>2026-04-19T09:37:51.962Z</time></trkpt><trkpt lat="41.31407" lon="0.6405967"><ele>300.0</ele><time>2026-04-19T09:37:52.963Z</time></trkpt><trkpt lat="41.3142" lon="0.6406433"><ele>298.75</ele><time>2026-04-19T09:37:53.963Z</time></trkpt><trkpt lat="41.3143333" lon="0.6406817"><ele>297.5</ele><time>2026-04-19T09:37:54.963Z</time></trkpt><trkpt lat="41.3144717" lon="0.640725"><ele>296.25</ele><time>2026-04-19T09:37:55.963Z</time></trkpt><trkpt lat="41.3146067" lon="0.6407667"><ele>295.0</ele><time>2026-04-19T09:37:56.962Z</time></trkpt><trkpt lat="41.31473" lon="0.6408133"><ele>293.75</ele><time>2026-04-19T09:37:57.963Z</time></trkpt><trkpt lat="41.3148433" lon="0.640865"><ele>292.5</ele><time>2026-04-19T09:37:58.963Z</time></trkpt><trkpt lat="41.3149567" lon="0.6409233"><ele>291.25</ele><time>2026-04-19T09:37:59.963Z</time></trkpt><trkpt lat="41.3150683" lon="0.640985"><ele>290.0</ele><time>2026-04-19T09:38:00.963Z</time></trkpt><trkpt lat="41.3151833" lon="0.6410583"><ele>289.75</ele><time>2026-04-19T09:38:01.963Z</time></trkpt><trkpt lat="41.31529" lon="0.641145"><ele>289.5</ele><time>2026-04-19T09:38:02.962Z</time></trkpt><trkpt lat="41.315395" lon="0.641245"><ele>289.25</ele><time>2026-04-19T09:38:03.962Z</time></trkpt><trkpt lat="41.315495" lon="0.6413367"><ele>289.0</ele><time>2026-04-19T09:38:04.963Z</time></trkpt><trkpt lat="41.315595" lon="0.6414017"><ele>289.0</ele><time>2026-04-19T09:38:05.962Z</time></trkpt><trkpt lat="41.3157317" lon="0.6414183"><ele>289.0</ele><time>2026-04-19T09:38:06.962Z</time></trkpt><trkpt lat="41.31585" lon="0.6414217"><ele>289.0</ele><time>2026-04-19T09:38:07.962Z</time></trkpt><trkpt lat="41.3159483" lon="0.6413983"><ele>289.0</ele><time>2026-04-19T09:38:08.962Z</time></trkpt><trkpt lat="41.3160383" lon="0.641335"><ele>289.0</ele><time>2026-04-19T09:38:09.962Z</time></trkpt><trkpt lat="41.3161067" lon="0.6412267"><ele>289.0</ele><time>2026-04-19T09:38:10.963Z</time></trkpt><trkpt lat="41.3161583" lon="0.6410933"><ele>289.0</ele><time>2026-04-19T09:38:11.963Z</time></trkpt><trkpt lat="41.3161967" lon="0.640945"><ele>289.0</ele><time>2026-04-19T09:38:12.963Z</time></trkpt><trkpt lat="41.3162467" lon="0.6407967"><ele>289.75</ele><time>2026-04-19T09:38:13.963Z</time></trkpt><trkpt lat="41.3163233" lon="0.64067"><ele>290.5</ele><time>2026-04-19T09:38:14.963Z</time></trkpt><trkpt lat="41.3164" lon="0.6405633"><ele>291.25</ele><time>2026-04-19T09:38:15.962Z</time></trkpt><trkpt lat="41.3164783" lon="0.640465"><ele>292.0</ele><time>2026-04-19T09:38:16.962Z</time></trkpt><trkpt lat="41.3165617" lon="0.640365"><ele>291.5</ele><time>2026-04-19T09:38:17.962Z</time></trkpt><trkpt lat="41.316645" lon="0.6402683"><ele>291.0</ele><time>2026-04-19T09:38:18.963Z</time></trkpt><trkpt lat="41.3167333" lon="0.6401767"><ele>290.5</ele><time>2026-04-19T09:38:19.963Z</time></trkpt><trkpt lat="41.316825" lon="0.64008"><ele>290.0</ele><time>2026-04-19T09:38:20.963Z</time></trkpt><trkpt lat="41.3169167" lon="0.6399717"><ele>290.0</ele><time>2026-04-19T09:38:21.963Z</time></trkpt><trkpt lat="41.31701" lon="0.6398617"><ele>290.0</ele><time>2026-04-19T09:38:22.962Z</time></trkpt><trkpt lat="41.3171083" lon="0.6397617"><ele>290.0</ele><time>2026-04-19T09:38:23.962Z</time></trkpt><trkpt lat="41.317205" lon="0.639665"><ele>290.0</ele><time>2026-04-19T09:38:24.962Z</time></trkpt><trkpt lat="41.31731" lon="0.6395933"><ele>292.5</ele><time>2026-04-19T09:38:25.963Z</time></trkpt><trkpt lat="41.3174167" lon="0.6395433"><ele>295.0</ele><time>2026-04-19T09:38:26.963Z</time></trkpt><trkpt lat="41.3175283" lon="0.6395083"><ele>297.5</ele><time>2026-04-19T09:38:27.962Z</time></trkpt><trkpt lat="41.317645" lon="0.6394883"><ele>300.0</ele><time>2026-04-19T09:38:28.963Z</time></trkpt><trkpt lat="41.3177533" lon="0.6394733"><ele>301.0</ele><time>2026-04-19T09:38:29.962Z</time></trkpt><trkpt lat="41.3178717" lon="0.6394583"><ele>302.0</ele><time>2026-04-19T09:38:30.963Z</time></trkpt><trkpt lat="41.31798" lon="0.6394333"><ele>303.0</ele><time>2026-04-19T09:38:31.963Z</time></trkpt><trkpt lat="41.3180933" lon="0.6394067"><ele>304.0</ele><time>2026-04-19T09:38:32.962Z</time></trkpt><trkpt lat="41.3182183" lon="0.63937"><ele>306.0</ele><time>2026-04-19T09:38:33.963Z</time></trkpt><trkpt lat="41.318345" lon="0.63932"><ele>308.0</ele><time>2026-04-19T09:38:34.963Z</time></trkpt><trkpt lat="41.3184783" lon="0.6392817"><ele>310.0</ele><time>2026-04-19T09:38:35.963Z</time></trkpt><trkpt lat="41.3186083" lon="0.6392467"><ele>312.0</ele><time>2026-04-19T09:38:36.962Z</time></trkpt><trkpt lat="41.318735" lon="0.6392283"><ele>312.0</ele><time>2026-04-19T09:38:37.963Z</time></trkpt><trkpt lat="41.3188483" lon="0.639215"><ele>312.0</ele><time>2026-04-19T09:38:38.962Z</time></trkpt><trkpt lat="41.318955" lon="0.6392117"><ele>312.0</ele><time>2026-04-19T09:38:39.963Z</time></trkpt><trkpt lat="41.31906" lon="0.6392133"><ele>312.0</ele><time>2026-04-19T09:38:40.963Z</time></trkpt><trkpt lat="41.3191617" lon="0.6392033"><ele>312.0</ele><time>2026-04-19T09:38:41.962Z</time></trkpt><trkpt lat="41.31927" lon="0.6391817"><ele>312.4</ele><time>2026-04-19T09:38:42.962Z</time></trkpt><trkpt lat="41.3193733" lon="0.6391417"><ele>312.79999999999995</ele><time>2026-04-19T09:38:43.963Z</time></trkpt><trkpt lat="41.3194817" lon="0.6391"><ele>313.2</ele><time>2026-04-19T09:38:44.962Z</time></trkpt><trkpt lat="41.3195867" lon="0.639065"><ele>313.59999999999997</ele><time>2026-04-19T09:38:45.963Z</time></trkpt><trkpt lat="41.3196933" lon="0.6390367"><ele>314.0</ele><time>2026-04-19T09:38:46.963Z</time></trkpt><trkpt lat="41.3197933" lon="0.63901"><ele>315.5</ele><time>2026-04-19T09:38:47.963Z</time></trkpt><trkpt lat="41.3199017" lon="0.6389767"><ele>317.0</ele><time>2026-04-19T09:38:48.963Z</time></trkpt><trkpt lat="41.3200217" lon="0.6389433"><ele>318.5</ele><time>2026-04-19T09:38:49.962Z</time></trkpt><trkpt lat="41.3201433" lon="0.6389"><ele>320.0</ele><time>2026-04-19T09:38:50.962Z</time></trkpt><trkpt lat="41.320265" lon="0.6388383"><ele>320.0</ele><time>2026-04-19T09:38:51.963Z</time></trkpt><trkpt lat="41.3203933" lon="0.638765"><ele>320.0</ele><time>2026-04-19T09:38:52.962Z</time></trkpt><trkpt lat="41.3205217" lon="0.63869"><ele>320.0</ele><time>2026-04-19T09:38:53.962Z</time></trkpt><trkpt lat="41.3206383" lon="0.6386233"><ele>320.0</ele><time>2026-04-19T09:38:54.963Z</time></trkpt><trkpt lat="41.3207467" lon="0.6385633"><ele>319.5</ele><time>2026-04-19T09:38:55.962Z</time></trkpt><trkpt lat="41.3208617" lon="0.6385317"><ele>319.0</ele><time>2026-04-19T09:38:56.963Z</time></trkpt><trkpt lat="41.3209883" lon="0.6385267"><ele>318.5</ele><time>2026-04-19T09:38:57.963Z</time></trkpt><trkpt lat="41.3211117" lon="0.638535"><ele>318.0</ele><time>2026-04-19T09:38:58.962Z</time></trkpt><trkpt lat="41.32123" lon="0.6385617"><ele>318.0</ele><time>2026-04-19T09:38:59.963Z</time></trkpt><trkpt lat="41.3213667" lon="0.6385533"><ele>318.0</ele><time>2026-04-19T09:39:00.962Z</time></trkpt><trkpt lat="41.3215067" lon="0.6385233"><ele>318.0</ele><time>2026-04-19T09:39:01.962Z</time></trkpt><trkpt lat="41.3216267" lon="0.63848"><ele>318.0</ele><time>2026-04-19T09:39:02.962Z</time></trkpt><trkpt lat="41.321745" lon="0.6384233"><ele>317.0</ele><time>2026-04-19T09:39:03.963Z</time></trkpt><trkpt lat="41.3218383" lon="0.6383383"><ele>316.0</ele><time>2026-04-19T09:39:04.963Z</time></trkpt><trkpt lat="41.3219267" lon="0.638235"><ele>315.0</ele><time>2026-04-19T09:39:05.963Z</time></trkpt><trkpt lat="41.3220117" lon="0.6381183"><ele>314.0</ele><time>2026-04-19T09:39:06.963Z</time></trkpt><trkpt lat="41.3220867" lon="0.63799"><ele>314.0</ele><time>2026-04-19T09:39:07.962Z</time></trkpt><trkpt lat="41.3221517" lon="0.637845"><ele>314.0</ele><time>2026-04-19T09:39:08.962Z</time></trkpt><trkpt lat="41.3222067" lon="0.6377"><ele>314.0</ele><time>2026-04-19T09:39:09.962Z</time></trkpt><trkpt lat="41.322245" lon="0.6375383"><ele>314.0</ele><time>2026-04-19T09:39:10.963Z</time></trkpt><trkpt lat="41.3222767" lon="0.63736"><ele>312.0</ele><time>2026-04-19T09:39:11.963Z</time></trkpt><trkpt lat="41.3222967" lon="0.6371667"><ele>310.0</ele><time>2026-04-19T09:39:12.963Z</time></trkpt><trkpt lat="41.3223167" lon="0.6369683"><ele>308.0</ele><time>2026-04-19T09:39:13.963Z</time></trkpt><trkpt lat="41.3223433" lon="0.6367767"><ele>306.0</ele><time>2026-04-19T09:39:14.963Z</time></trkpt><trkpt lat="41.3223733" lon="0.636595"><ele>305.5</ele><time>2026-04-19T09:39:15.963Z</time></trkpt><trkpt lat="41.322405" lon="0.63642"><ele>305.0</ele><time>2026-04-19T09:39:16.962Z</time></trkpt><trkpt lat="41.322445" lon="0.63627"><ele>304.5</ele><time>2026-04-19T09:39:17.962Z</time></trkpt><trkpt lat="41.3225" lon="0.6361333"><ele>304.0</ele><time>2026-04-19T09:39:18.963Z</time></trkpt><trkpt lat="41.3225733" lon="0.636025"><ele>302.25</ele><time>2026-04-19T09:39:19.962Z</time></trkpt><trkpt lat="41.3226617" lon="0.6359433"><ele>300.5</ele><time>2026-04-19T09:39:20.963Z</time></trkpt><trkpt lat="41.3227617" lon="0.6358717"><ele>298.75</ele><time>2026-04-19T09:39:21.962Z</time></trkpt><trkpt lat="41.3228683" lon="0.6358167"><ele>297.0</ele><time>2026-04-19T09:39:22.963Z</time></trkpt><trkpt lat="41.3229817" lon="0.63578"><ele>295.6</ele><time>2026-04-19T09:39:23.962Z</time></trkpt><trkpt lat="41.323105" lon="0.63577"><ele>294.2</ele><time>2026-04-19T09:39:24.962Z</time></trkpt><trkpt lat="41.3232233" lon="0.6357583"><ele>292.8</ele><time>2026-04-19T09:39:25.963Z</time></trkpt><trkpt lat="41.32333" lon="0.635735"><ele>291.4</ele><time>2026-04-19T09:39:26.963Z</time></trkpt><trkpt lat="41.3234083" lon="0.6357117"><ele>290.0</ele><time>2026-04-19T09:39:27.962Z</time></trkpt><trkpt lat="41.32349" lon="0.6357167"><ele>290.0</ele><time>2026-04-19T09:39:28.963Z</time></trkpt><trkpt lat="41.3235717" lon="0.6357567"><ele>290.0</ele><time>2026-04-19T09:39:29.962Z</time></trkpt><trkpt lat="41.3236283" lon="0.63585"><ele>290.0</ele><time>2026-04-19T09:39:30.963Z</time></trkpt><trkpt lat="41.323655" lon="0.63599"><ele>290.0</ele><time>2026-04-19T09:39:31.962Z</time></trkpt><trkpt lat="41.323655" lon="0.6361517"><ele>290.0</ele><time>2026-04-19T09:39:32.963Z</time></trkpt><trkpt lat="41.3236267" lon="0.6363283"><ele>289.6666666666667</ele><time>2026-04-19T09:39:33.963Z</time></trkpt><trkpt lat="41.3235517" lon="0.6365183"><ele>289.3333333333333</ele><time>2026-04-19T09:39:34.962Z</time></trkpt><trkpt lat="41.3234817" lon="0.6366917"><ele>289.0</ele><time>2026-04-19T09:39:35.962Z</time></trkpt><trkpt lat="41.3234017" lon="0.6368567"><ele>287.25</ele><time>2026-04-19T09:39:36.962Z</time></trkpt><trkpt lat="41.32336" lon="0.6370417"><ele>285.5</ele><time>2026-04-19T09:39:37.963Z</time></trkpt><trkpt lat="41.323345" lon="0.6372433"><ele>283.75</ele><time>2026-04-19T09:39:38.963Z</time></trkpt><trkpt lat="41.323345" lon="0.6374417"><ele>282.0</ele><time>2026-04-19T09:39:39.963Z</time></trkpt><trkpt lat="41.3233433" lon="0.6376317"><ele>280.25</ele><time>2026-04-19T09:39:40.963Z</time></trkpt><trkpt lat="41.3233483" lon="0.637805"><ele>278.5</ele><time>2026-04-19T09:39:41.963Z</time></trkpt><trkpt lat="41.3233633" lon="0.6379833"><ele>276.75</ele><time>2026-04-19T09:39:42.963Z</time></trkpt><trkpt lat="41.3233683" lon="0.6381517"><ele>275.0</ele><time>2026-04-19T09:39:43.961Z</time></trkpt><trkpt lat="41.3233683" lon="0.638305"><ele>275.0</ele><time>2026-04-19T09:39:44.962Z</time></trkpt><trkpt lat="41.3233733" lon="0.6384733"><ele>275.0</ele><time>2026-04-19T09:39:45.962Z</time></trkpt><trkpt lat="41.3233683" lon="0.6386583"><ele>275.0</ele><time>2026-04-19T09:39:46.962Z</time></trkpt><trkpt lat="41.32334" lon="0.6388533"><ele>275.0</ele><time>2026-04-19T09:39:47.962Z</time></trkpt><trkpt lat="41.323305" lon="0.6390383"><ele>274.6</ele><time>2026-04-19T09:39:48.962Z</time></trkpt><trkpt lat="41.3232833" lon="0.639215"><ele>274.2</ele><time>2026-04-19T09:39:49.962Z</time></trkpt><trkpt lat="41.3232767" lon="0.6393567"><ele>273.8</ele><time>2026-04-19T09:39:50.962Z</time></trkpt><trkpt lat="41.323285" lon="0.6394883"><ele>273.4</ele><time>2026-04-19T09:39:51.962Z</time></trkpt><trkpt lat="41.323305" lon="0.6395867"><ele>273.0</ele><time>2026-04-19T09:39:52.962Z</time></trkpt><trkpt lat="41.3233283" lon="0.63967"><ele>273.0</ele><time>2026-04-19T09:39:53.963Z</time></trkpt><trkpt lat="41.323355" lon="0.6397667"><ele>273.0</ele><time>2026-04-19T09:39:55.962Z</time></trkpt><trkpt lat="41.3234683" lon="0.6397283"><ele>273.0</ele><time>2026-04-19T09:40:18.962Z</time></trkpt><trkpt lat="41.32355" lon="0.639745"><ele>273.0</ele><time>2026-04-19T09:40:19.962Z</time></trkpt><trkpt lat="41.3236567" lon="0.6397567"><ele>273.0</ele><time>2026-04-19T09:40:20.963Z</time></trkpt><trkpt lat="41.3237867" lon="0.6397583"><ele>272.5</ele><time>2026-04-19T09:40:21.963Z</time></trkpt><trkpt lat="41.3239167" lon="0.6397483"><ele>272.0</ele><time>2026-04-19T09:40:22.962Z</time></trkpt><trkpt lat="41.3240483" lon="0.6397317"><ele>271.5</ele><time>2026-04-19T09:40:23.963Z</time></trkpt><trkpt lat="41.3241817" lon="0.63971"><ele>271.0</ele><time>2026-04-19T09:40:24.962Z</time></trkpt><trkpt lat="41.3242983" lon="0.6396883"><ele>271.0</ele><time>2026-04-19T09:40:25.962Z</time></trkpt><trkpt lat="41.3244133" lon="0.6396617"><ele>271.0</ele><time>2026-04-19T09:40:26.962Z</time></trkpt><trkpt lat="41.3245117" lon="0.6396417"><ele>271.0</ele><time>2026-04-19T09:40:27.963Z</time></trkpt><trkpt lat="41.3246067" lon="0.6396183"><ele>271.0</ele><time>2026-04-19T09:40:28.962Z</time></trkpt><trkpt lat="41.3246883" lon="0.639595"><ele>271.0</ele><time>2026-04-19T09:40:29.962Z</time></trkpt><trkpt lat="41.3247567" lon="0.6395617"><ele>272.8</ele><time>2026-04-19T09:40:30.962Z</time></trkpt><trkpt lat="41.3248567" lon="0.6394683"><ele>274.6</ele><time>2026-04-19T09:40:32.962Z</time></trkpt><trkpt lat="41.3248967" lon="0.6394"><ele>276.4</ele><time>2026-04-19T09:40:33.962Z</time></trkpt><trkpt lat="41.3249517" lon="0.6392467"><ele>278.2</ele><time>2026-04-19T09:40:35.963Z</time></trkpt><trkpt lat="41.3249817" lon="0.639165"><ele>280.0</ele><time>2026-04-19T09:40:36.963Z</time></trkpt><trkpt lat="41.32502" lon="0.6390883"><ele>280.5</ele><time>2026-04-19T09:40:37.963Z</time></trkpt><trkpt lat="41.32508" lon="0.6390267"><ele>281.0</ele><time>2026-04-19T09:40:38.963Z</time></trkpt><trkpt lat="41.3251517" lon="0.6389933"><ele>281.5</ele><time>2026-04-19T09:40:39.963Z</time></trkpt><trkpt lat="41.32522" lon="0.6389617"><ele>282.0</ele><time>2026-04-19T09:40:40.962Z</time></trkpt><trkpt lat="41.3252867" lon="0.6389183"><ele>282.5</ele><time>2026-04-19T09:40:41.963Z</time></trkpt><trkpt lat="41.325355" lon="0.6388633"><ele>283.0</ele><time>2026-04-19T09:40:42.963Z</time></trkpt><trkpt lat="41.3254167" lon="0.638795"><ele>283.0</ele><time>2026-04-19T09:40:43.962Z</time></trkpt><trkpt lat="41.3254633" lon="0.638725"><ele>283.0</ele><time>2026-04-19T09:40:44.962Z</time></trkpt><trkpt lat="41.3255017" lon="0.6386517"><ele>283.0</ele><time>2026-04-19T09:40:45.963Z</time></trkpt><trkpt lat="41.3255517" lon="0.6385167"><ele>283.0</ele><time>2026-04-19T09:40:47.962Z</time></trkpt><trkpt lat="41.3255917" lon="0.6383983"><ele>283.0</ele><time>2026-04-19T09:40:49.963Z</time></trkpt><trkpt lat="41.3256667" lon="0.6382617"><ele>283.8333333333333</ele><time>2026-04-19T09:40:51.962Z</time></trkpt><trkpt lat="41.3257133" lon="0.6381817"><ele>284.66666666666663</ele><time>2026-04-19T09:40:52.963Z</time></trkpt><trkpt lat="41.32576" lon="0.63809"><ele>285.5</ele><time>2026-04-19T09:40:53.962Z</time></trkpt><trkpt lat="41.3258117" lon="0.637995"><ele>286.3333333333333</ele><time>2026-04-19T09:40:54.962Z</time></trkpt><trkpt lat="41.3258667" lon="0.6379183"><ele>287.1666666666667</ele><time>2026-04-19T09:40:55.963Z</time></trkpt><trkpt lat="41.3259183" lon="0.6378483"><ele>288.0</ele><time>2026-04-19T09:40:56.962Z</time></trkpt><trkpt lat="41.3259583" lon="0.637775"><ele>288.0</ele><time>2026-04-19T09:40:57.962Z</time></trkpt><trkpt lat="41.3259967" lon="0.6377033"><ele>288.0</ele><time>2026-04-19T09:40:58.962Z</time></trkpt><trkpt lat="41.3260783" lon="0.6375833"><ele>288.0</ele><time>2026-04-19T09:41:00.963Z</time></trkpt><trkpt lat="41.3261833" lon="0.6375017"><ele>288.0</ele><time>2026-04-19T09:41:02.963Z</time></trkpt><trkpt lat="41.3262483" lon="0.6374567"><ele>288.0</ele><time>2026-04-19T09:41:03.962Z</time></trkpt><trkpt lat="41.3263167" lon="0.637415"><ele>288.0</ele><time>2026-04-19T09:41:04.963Z</time></trkpt><trkpt lat="41.3263833" lon="0.6373733"><ele>288.0</ele><time>2026-04-19T09:41:05.962Z</time></trkpt><trkpt lat="41.3264583" lon="0.6373267"><ele>288.0</ele><time>2026-04-19T09:41:06.962Z</time></trkpt><trkpt lat="41.32653" lon="0.6372583"><ele>288.0</ele><time>2026-04-19T09:41:07.963Z</time></trkpt><trkpt lat="41.3265983" lon="0.637185"><ele>288.0</ele><time>2026-04-19T09:41:08.963Z</time></trkpt><trkpt lat="41.326645" lon="0.6371083"><ele>288.0</ele><time>2026-04-19T09:41:09.962Z</time></trkpt><trkpt lat="41.3266883" lon="0.63704"><ele>288.1666666666667</ele><time>2026-04-19T09:41:10.963Z</time></trkpt><trkpt lat="41.3267317" lon="0.6369717"><ele>288.3333333333333</ele><time>2026-04-19T09:41:11.962Z</time></trkpt><trkpt lat="41.326815" lon="0.6368567"><ele>288.5</ele><time>2026-04-19T09:41:13.963Z</time></trkpt><trkpt lat="41.32685" lon="0.6367783"><ele>288.66666666666663</ele><time>2026-04-19T09:41:14.962Z</time></trkpt><trkpt lat="41.32687" lon="0.63669"><ele>288.8333333333333</ele><time>2026-04-19T09:41:15.963Z</time></trkpt><trkpt lat="41.3268633" lon="0.636585"><ele>289.0</ele><time>2026-04-19T09:41:16.962Z</time></trkpt><trkpt lat="41.3268417" lon="0.6364767"><ele>287.8333333333333</ele><time>2026-04-19T09:41:17.963Z</time></trkpt><trkpt lat="41.3268183" lon="0.636365"><ele>286.66666666666663</ele><time>2026-04-19T09:41:18.962Z</time></trkpt><trkpt lat="41.3268033" lon="0.636255"><ele>285.5</ele><time>2026-04-19T09:41:19.963Z</time></trkpt><trkpt lat="41.3267917" lon="0.6361483"><ele>284.3333333333333</ele><time>2026-04-19T09:41:20.963Z</time></trkpt><trkpt lat="41.3267767" lon="0.63603"><ele>283.1666666666667</ele><time>2026-04-19T09:41:21.963Z</time></trkpt><trkpt lat="41.326765" lon="0.6359067"><ele>282.0</ele><time>2026-04-19T09:41:22.962Z</time></trkpt><trkpt lat="41.326755" lon="0.6357833"><ele>282.5</ele><time>2026-04-19T09:41:23.962Z</time></trkpt><trkpt lat="41.3267383" lon="0.6356683"><ele>283.0</ele><time>2026-04-19T09:41:24.962Z</time></trkpt><trkpt lat="41.3267233" lon="0.6355733"><ele>283.5</ele><time>2026-04-19T09:41:25.963Z</time></trkpt><trkpt lat="41.3266867" lon="0.6354417"><ele>284.0</ele><time>2026-04-19T09:41:27.962Z</time></trkpt><trkpt lat="41.3266733" lon="0.6353517"><ele>284.5</ele><time>2026-04-19T09:41:29.962Z</time></trkpt><trkpt lat="41.326695" lon="0.6352617"><ele>285.0</ele><time>2026-04-19T09:41:32.963Z</time></trkpt><trkpt lat="41.32677" lon="0.6352267"><ele>285.0</ele><time>2026-04-19T09:41:36.962Z</time></trkpt><trkpt lat="41.326865" lon="0.6352333"><ele>285.0</ele><time>2026-04-19T09:41:38.963Z</time></trkpt><trkpt lat="41.3269283" lon="0.635235"><ele>285.0</ele><time>2026-04-19T09:41:39.963Z</time></trkpt><trkpt lat="41.3269933" lon="0.6352317"><ele>285.0</ele><time>2026-04-19T09:41:40.962Z</time></trkpt><trkpt lat="41.3270633" lon="0.6352367"><ele>285.0</ele><time>2026-04-19T09:41:41.962Z</time></trkpt><trkpt lat="41.3271367" lon="0.6352483"><ele>285.0</ele><time>2026-04-19T09:41:42.963Z</time></trkpt><trkpt lat="41.3272167" lon="0.635255"><ele>285.0</ele><time>2026-04-19T09:41:43.963Z</time></trkpt><trkpt lat="41.3273033" lon="0.6352667"><ele>285.1666666666667</ele><time>2026-04-19T09:41:44.963Z</time></trkpt><trkpt lat="41.327385" lon="0.6353017"><ele>285.3333333333333</ele><time>2026-04-19T09:41:45.963Z</time></trkpt><trkpt lat="41.3274567" lon="0.635355"><ele>285.5</ele><time>2026-04-19T09:41:46.962Z</time></trkpt><trkpt lat="41.3275183" lon="0.6354267"><ele>285.66666666666663</ele><time>2026-04-19T09:41:47.962Z</time></trkpt><trkpt lat="41.3275683" lon="0.6355267"><ele>285.8333333333333</ele><time>2026-04-19T09:41:48.962Z</time></trkpt><trkpt lat="41.327615" lon="0.635635"><ele>286.0</ele><time>2026-04-19T09:41:49.963Z</time></trkpt><trkpt lat="41.3276617" lon="0.6357383"><ele>286.0</ele><time>2026-04-19T09:41:50.963Z</time></trkpt><trkpt lat="41.3277" lon="0.635845"><ele>286.0</ele><time>2026-04-19T09:41:51.963Z</time></trkpt><trkpt lat="41.3277267" lon="0.6359433"><ele>286.0</ele><time>2026-04-19T09:41:52.963Z</time></trkpt><trkpt lat="41.3277533" lon="0.63604"><ele>286.0</ele><time>2026-04-19T09:41:53.962Z</time></trkpt><trkpt lat="41.3277583" lon="0.6361517"><ele>286.0</ele><time>2026-04-19T09:41:54.962Z</time></trkpt><trkpt lat="41.3277417" lon="0.6362583"><ele>286.0</ele><time>2026-04-19T09:41:55.963Z</time></trkpt><trkpt lat="41.3276933" lon="0.63635"><ele>287.40000000000003</ele><time>2026-04-19T09:41:56.962Z</time></trkpt><trkpt lat="41.327625" lon="0.6364117"><ele>288.8</ele><time>2026-04-19T09:41:57.962Z</time></trkpt><trkpt lat="41.3275233" lon="0.63644"><ele>290.20000000000005</ele><time>2026-04-19T09:41:58.962Z</time></trkpt><trkpt lat="41.3274267" lon="0.6364767"><ele>291.6</ele><time>2026-04-19T09:41:59.963Z</time></trkpt><trkpt lat="41.3273433" lon="0.636535"><ele>293.0</ele><time>2026-04-19T09:42:00.963Z</time></trkpt><trkpt lat="41.32728" lon="0.6366167"><ele>293.4</ele><time>2026-04-19T09:42:01.963Z</time></trkpt><trkpt lat="41.3272267" lon="0.6367117"><ele>293.8</ele><time>2026-04-19T09:42:02.963Z</time></trkpt><trkpt lat="41.3271983" lon="0.6368233"><ele>294.2</ele><time>2026-04-19T09:42:03.963Z</time></trkpt><trkpt lat="41.3272033" lon="0.636945"><ele>294.6</ele><time>2026-04-19T09:42:04.963Z</time></trkpt><trkpt lat="41.3272283" lon="0.63706"><ele>295.0</ele><time>2026-04-19T09:42:05.963Z</time></trkpt><trkpt lat="41.3272817" lon="0.63717"><ele>295.0</ele><time>2026-04-19T09:42:06.962Z</time></trkpt><trkpt lat="41.3273483" lon="0.63727"><ele>295.0</ele><time>2026-04-19T09:42:07.962Z</time></trkpt><trkpt lat="41.3274317" lon="0.6373633"><ele>295.0</ele><time>2026-04-19T09:42:08.962Z</time></trkpt><trkpt lat="41.327505" lon="0.6374517"><ele>295.0</ele><time>2026-04-19T09:42:09.963Z</time></trkpt><trkpt lat="41.327575" lon="0.63754"><ele>295.0</ele><time>2026-04-19T09:42:10.963Z</time></trkpt><trkpt lat="41.3276433" lon="0.6376283"><ele>295.0</ele><time>2026-04-19T09:42:11.963Z</time></trkpt><trkpt lat="41.327705" lon="0.6377117"><ele>295.0</ele><time>2026-04-19T09:42:12.962Z</time></trkpt><trkpt lat="41.3277983" lon="0.6377883"><ele>295.0</ele><time>2026-04-19T09:42:13.962Z</time></trkpt><trkpt lat="41.32789" lon="0.6378517"><ele>295.0</ele><time>2026-04-19T09:42:14.962Z</time></trkpt><trkpt lat="41.3279767" lon="0.6379133"><ele>295.0</ele><time>2026-04-19T09:42:15.962Z</time></trkpt><trkpt lat="41.3280533" lon="0.6379717"><ele>296.66666666666663</ele><time>2026-04-19T09:42:16.963Z</time></trkpt><trkpt lat="41.3281367" lon="0.6380283"><ele>298.3333333333333</ele><time>2026-04-19T09:42:17.962Z</time></trkpt><trkpt lat="41.3282033" lon="0.6380833"><ele>300.0</ele><time>2026-04-19T09:42:18.963Z</time></trkpt><trkpt lat="41.3282517" lon="0.63817"><ele>301.6666666666667</ele><time>2026-04-19T09:42:19.962Z</time></trkpt><trkpt lat="41.328285" lon="0.6382633"><ele>303.33333333333337</ele><time>2026-04-19T09:42:20.963Z</time></trkpt><trkpt lat="41.328285" lon="0.6383783"><ele>305.0</ele><time>2026-04-19T09:42:21.962Z</time></trkpt><trkpt lat="41.32826" lon="0.6384983"><ele>305.0</ele><time>2026-04-19T09:42:22.962Z</time></trkpt><trkpt lat="41.32823" lon="0.6386283"><ele>305.0</ele><time>2026-04-19T09:42:23.962Z</time></trkpt><trkpt lat="41.3282117" lon="0.6387517"><ele>305.0</ele><time>2026-04-19T09:42:24.963Z</time></trkpt><trkpt lat="41.3282167" lon="0.638875"><ele>305.0</ele><time>2026-04-19T09:42:25.962Z</time></trkpt><trkpt lat="41.328255" lon="0.639"><ele>305.0</ele><time>2026-04-19T09:42:26.963Z</time></trkpt><trkpt lat="41.3283067" lon="0.6391317"><ele>304.6</ele><time>2026-04-19T09:42:27.963Z</time></trkpt><trkpt lat="41.3283767" lon="0.6392367"><ele>304.2</ele><time>2026-04-19T09:42:28.962Z</time></trkpt><trkpt lat="41.3284633" lon="0.6392983"><ele>303.8</ele><time>2026-04-19T09:42:29.962Z</time></trkpt><trkpt lat="41.32857" lon="0.63932"><ele>303.4</ele><time>2026-04-19T09:42:30.963Z</time></trkpt><trkpt lat="41.3286883" lon="0.6393017"><ele>303.0</ele><time>2026-04-19T09:42:31.963Z</time></trkpt><trkpt lat="41.3288083" lon="0.6392667"><ele>304.25</ele><time>2026-04-19T09:42:32.963Z</time></trkpt><trkpt lat="41.328925" lon="0.6392333"><ele>305.5</ele><time>2026-04-19T09:42:33.962Z</time></trkpt><trkpt lat="41.3290433" lon="0.6391933"><ele>306.75</ele><time>2026-04-19T09:42:34.963Z</time></trkpt><trkpt lat="41.3291633" lon="0.639145"><ele>308.0</ele><time>2026-04-19T09:42:35.963Z</time></trkpt><trkpt lat="41.32928" lon="0.6391"><ele>308.0</ele><time>2026-04-19T09:42:36.962Z</time></trkpt><trkpt lat="41.329405" lon="0.639055"><ele>308.0</ele><time>2026-04-19T09:42:37.962Z</time></trkpt><trkpt lat="41.3295367" lon="0.6390083"><ele>308.0</ele><time>2026-04-19T09:42:38.962Z</time></trkpt><trkpt lat="41.3296533" lon="0.6389717"><ele>308.0</ele><time>2026-04-19T09:42:39.962Z</time></trkpt><trkpt lat="41.32976" lon="0.6389483"><ele>308.0</ele><time>2026-04-19T09:42:40.962Z</time></trkpt><trkpt lat="41.3298417" lon="0.6389333"><ele>308.0</ele><time>2026-04-19T09:42:41.963Z</time></trkpt><trkpt lat="41.329915" lon="0.6389083"><ele>308.0</ele><time>2026-04-19T09:42:42.962Z</time></trkpt><trkpt lat="41.3299767" lon="0.6388783"><ele>308.0</ele><time>2026-04-19T09:42:43.962Z</time></trkpt><trkpt lat="41.33004" lon="0.6388233"><ele>308.0</ele><time>2026-04-19T09:42:44.963Z</time></trkpt><trkpt lat="41.3300917" lon="0.6387367"><ele>308.0</ele><time>2026-04-19T09:42:45.963Z</time></trkpt><trkpt lat="41.33013" lon="0.6386233"><ele>309.8</ele><time>2026-04-19T09:42:46.963Z</time></trkpt><trkpt lat="41.3301467" lon="0.63848"><ele>311.6</ele><time>2026-04-19T09:42:47.962Z</time></trkpt><trkpt lat="41.3301767" lon="0.6383433"><ele>313.4</ele><time>2026-04-19T09:42:48.963Z</time></trkpt><trkpt lat="41.3302183" lon="0.63822"><ele>315.2</ele><time>2026-04-19T09:42:49.963Z</time></trkpt><trkpt lat="41.330295" lon="0.6381267"><ele>317.0</ele><time>2026-04-19T09:42:50.963Z</time></trkpt><trkpt lat="41.3303883" lon="0.638055"><ele>317.0</ele><time>2026-04-19T09:42:51.963Z</time></trkpt><trkpt lat="41.3304733" lon="0.6379817"><ele>317.0</ele><time>2026-04-19T09:42:52.962Z</time></trkpt><trkpt lat="41.3305367" lon="0.6378817"><ele>317.0</ele><time>2026-04-19T09:42:53.963Z</time></trkpt><trkpt lat="41.330575" lon="0.6377517"><ele>317.0</ele><time>2026-04-19T09:42:54.962Z</time></trkpt><trkpt lat="41.3305783" lon="0.6376067"><ele>317.0</ele><time>2026-04-19T09:42:55.963Z</time></trkpt><trkpt lat="41.3305733" lon="0.6374467"><ele>317.4</ele><time>2026-04-19T09:42:56.963Z</time></trkpt><trkpt lat="41.33059" lon="0.637295"><ele>317.79999999999995</ele><time>2026-04-19T09:42:57.962Z</time></trkpt><trkpt lat="41.33062" lon="0.637165"><ele>318.2</ele><time>2026-04-19T09:42:58.963Z</time></trkpt><trkpt lat="41.3306617" lon="0.6370383"><ele>318.59999999999997</ele><time>2026-04-19T09:42:59.963Z</time></trkpt><trkpt lat="41.3307083" lon="0.63693"><ele>319.0</ele><time>2026-04-19T09:43:00.962Z</time></trkpt><trkpt lat="41.330765" lon="0.6368333"><ele>320.4</ele><time>2026-04-19T09:43:01.963Z</time></trkpt><trkpt lat="41.3308417" lon="0.6367667"><ele>321.79999999999995</ele><time>2026-04-19T09:43:02.962Z</time></trkpt><trkpt lat="41.3309467" lon="0.6367533"><ele>323.20000000000005</ele><time>2026-04-19T09:43:03.963Z</time></trkpt><trkpt lat="41.3310667" lon="0.6367767"><ele>324.6</ele><time>2026-04-19T09:43:04.962Z</time></trkpt><trkpt lat="41.3311833" lon="0.6368133"><ele>326.0</ele><time>2026-04-19T09:43:05.962Z</time></trkpt><trkpt lat="41.3312983" lon="0.6368517"><ele>326.0</ele><time>2026-04-19T09:43:06.963Z</time></trkpt><trkpt lat="41.3314117" lon="0.6368883"><ele>326.0</ele><time>2026-04-19T09:43:07.963Z</time></trkpt><trkpt lat="41.3315217" lon="0.6369167"><ele>326.0</ele><time>2026-04-19T09:43:08.963Z</time></trkpt><trkpt lat="41.3316333" lon="0.6369467"><ele>326.0</ele><time>2026-04-19T09:43:09.963Z</time></trkpt><trkpt lat="41.33174" lon="0.6369683"><ele>325.25</ele><time>2026-04-19T09:43:10.962Z</time></trkpt><trkpt lat="41.3318533" lon="0.636995"><ele>324.5</ele><time>2026-04-19T09:43:11.963Z</time></trkpt><trkpt lat="41.3319717" lon="0.6370117"><ele>323.75</ele><time>2026-04-19T09:43:12.962Z</time></trkpt><trkpt lat="41.3320783" lon="0.63702"><ele>323.0</ele><time>2026-04-19T09:43:13.963Z</time></trkpt><trkpt lat="41.332185" lon="0.6370483"><ele>324.4</ele><time>2026-04-19T09:43:14.963Z</time></trkpt><trkpt lat="41.3322917" lon="0.6370767"><ele>325.79999999999995</ele><time>2026-04-19T09:43:15.962Z</time></trkpt><trkpt lat="41.3324017" lon="0.6371083"><ele>327.2</ele><time>2026-04-19T09:43:16.963Z</time></trkpt><trkpt lat="41.3325067" lon="0.6371333"><ele>328.6</ele><time>2026-04-19T09:43:17.962Z</time></trkpt><trkpt lat="41.332605" lon="0.6371583"><ele>330.0</ele><time>2026-04-19T09:43:18.962Z</time></trkpt><trkpt lat="41.332695" lon="0.637185"><ele>330.0</ele><time>2026-04-19T09:43:19.962Z</time></trkpt><trkpt lat="41.332775" lon="0.6372417"><ele>330.0</ele><time>2026-04-19T09:43:20.963Z</time></trkpt><trkpt lat="41.3328417" lon="0.6373417"><ele>330.0</ele><time>2026-04-19T09:43:21.962Z</time></trkpt><trkpt lat="41.3328833" lon="0.6374733"><ele>330.0</ele><time>2026-04-19T09:43:22.963Z</time></trkpt><trkpt lat="41.332905" lon="0.6376167"><ele>330.0</ele><time>2026-04-19T09:43:23.963Z</time></trkpt><trkpt lat="41.3329183" lon="0.637765"><ele>329.8</ele><time>2026-04-19T09:43:24.962Z</time></trkpt><trkpt lat="41.3329283" lon="0.637915"><ele>329.6</ele><time>2026-04-19T09:43:25.963Z</time></trkpt><trkpt lat="41.33294" lon="0.6380567"><ele>329.4</ele><time>2026-04-19T09:43:26.963Z</time></trkpt><trkpt lat="41.3329567" lon="0.6381933"><ele>329.2</ele><time>2026-04-19T09:43:27.962Z</time></trkpt><trkpt lat="41.3329717" lon="0.6383233"><ele>329.0</ele><time>2026-04-19T09:43:28.962Z</time></trkpt><trkpt lat="41.33299" lon="0.6384633"><ele>329.0</ele><time>2026-04-19T09:43:29.963Z</time></trkpt><trkpt lat="41.3330083" lon="0.6386117"><ele>329.0</ele><time>2026-04-19T09:43:30.962Z</time></trkpt><trkpt lat="41.3330333" lon="0.6387583"><ele>329.0</ele><time>2026-04-19T09:43:31.963Z</time></trkpt><trkpt lat="41.3330683" lon="0.6389017"><ele>329.0</ele><time>2026-04-19T09:43:32.963Z</time></trkpt><trkpt lat="41.3331083" lon="0.6390367"><ele>329.0</ele><time>2026-04-19T09:43:33.963Z</time></trkpt><trkpt lat="41.3331633" lon="0.6391733"><ele>330.5</ele><time>2026-04-19T09:43:34.963Z</time></trkpt><trkpt lat="41.333225" lon="0.6393117"><ele>332.0</ele><time>2026-04-19T09:43:35.962Z</time></trkpt><trkpt lat="41.3332917" lon="0.639455"><ele>333.5</ele><time>2026-04-19T09:43:36.963Z</time></trkpt><trkpt lat="41.3333567" lon="0.63959"><ele>335.0</ele><time>2026-04-19T09:43:37.963Z</time></trkpt><trkpt lat="41.333425" lon="0.6397183"><ele>335.0</ele><time>2026-04-19T09:43:38.963Z</time></trkpt><trkpt lat="41.333495" lon="0.6398233"><ele>335.0</ele><time>2026-04-19T09:43:39.963Z</time></trkpt><trkpt lat="41.3335733" lon="0.6399217"><ele>335.0</ele><time>2026-04-19T09:43:40.963Z</time></trkpt><trkpt lat="41.33366" lon="0.6400067"><ele>335.0</ele><time>2026-04-19T09:43:41.962Z</time></trkpt><trkpt lat="41.3337583" lon="0.64008"><ele>335.0</ele><time>2026-04-19T09:43:42.962Z</time></trkpt><trkpt lat="41.3338567" lon="0.6401367"><ele>337.5</ele><time>2026-04-19T09:43:43.962Z</time></trkpt><trkpt lat="41.333965" lon="0.6401833"><ele>340.0</ele><time>2026-04-19T09:43:44.962Z</time></trkpt><trkpt lat="41.334075" lon="0.64024"><ele>342.5</ele><time>2026-04-19T09:43:45.963Z</time></trkpt><trkpt lat="41.3341917" lon="0.6403017"><ele>345.0</ele><time>2026-04-19T09:43:46.963Z</time></trkpt><trkpt lat="41.3343033" lon="0.64035"><ele>341.25</ele><time>2026-04-19T09:43:47.963Z</time></trkpt><trkpt lat="41.3344167" lon="0.6403867"><ele>337.5</ele><time>2026-04-19T09:43:48.963Z</time></trkpt><trkpt lat="41.3345367" lon="0.6404067"><ele>333.75</ele><time>2026-04-19T09:43:49.963Z</time></trkpt><trkpt lat="41.3346633" lon="0.640425"><ele>330.0</ele><time>2026-04-19T09:43:50.963Z</time></trkpt><trkpt lat="41.33478" lon="0.64043"><ele>330.0</ele><time>2026-04-19T09:43:51.962Z</time></trkpt><trkpt lat="41.3349167" lon="0.64044"><ele>330.0</ele><time>2026-04-19T09:43:52.963Z</time></trkpt><trkpt lat="41.33505" lon="0.6404483"><ele>330.0</ele><time>2026-04-19T09:43:53.963Z</time></trkpt><trkpt lat="41.3351817" lon="0.6404617"><ele>330.0</ele><time>2026-04-19T09:43:54.962Z</time></trkpt><trkpt lat="41.335305" lon="0.6404533"><ele>330.0</ele><time>2026-04-19T09:43:55.962Z</time></trkpt><trkpt lat="41.3354233" lon="0.6404083"><ele>330.0</ele><time>2026-04-19T09:43:56.963Z</time></trkpt><trkpt lat="41.3355433" lon="0.6403183"><ele>330.0</ele><time>2026-04-19T09:43:57.962Z</time></trkpt><trkpt lat="41.3356617" lon="0.64023"><ele>330.0</ele><time>2026-04-19T09:43:58.962Z</time></trkpt><trkpt lat="41.335795" lon="0.64017"><ele>331.25</ele><time>2026-04-19T09:43:59.963Z</time></trkpt><trkpt lat="41.3359067" lon="0.6401717"><ele>332.5</ele><time>2026-04-19T09:44:00.963Z</time></trkpt><trkpt lat="41.3360233" lon="0.64023"><ele>333.75</ele><time>2026-04-19T09:44:01.963Z</time></trkpt><trkpt lat="41.336145" lon="0.64031"><ele>335.0</ele><time>2026-04-19T09:44:02.963Z</time></trkpt><trkpt lat="41.3362633" lon="0.6404"><ele>335.0</ele><time>2026-04-19T09:44:03.962Z</time></trkpt><trkpt lat="41.33636" lon="0.6405"><ele>335.0</ele><time>2026-04-19T09:44:04.962Z</time></trkpt><trkpt lat="41.3364283" lon="0.64062"><ele>335.0</ele><time>2026-04-19T09:44:05.963Z</time></trkpt><trkpt lat="41.336485" lon="0.6407417"><ele>335.0</ele><time>2026-04-19T09:44:06.963Z</time></trkpt><trkpt lat="41.33655" lon="0.6408567"><ele>334.5</ele><time>2026-04-19T09:44:07.962Z</time></trkpt><trkpt lat="41.3366183" lon="0.64099"><ele>334.0</ele><time>2026-04-19T09:44:08.963Z</time></trkpt><trkpt lat="41.3366817" lon="0.6411217"><ele>333.5</ele><time>2026-04-19T09:44:09.963Z</time></trkpt><trkpt lat="41.3367633" lon="0.6412417"><ele>333.0</ele><time>2026-04-19T09:44:10.963Z</time></trkpt><trkpt lat="41.33683" lon="0.6413533"><ele>333.0</ele><time>2026-04-19T09:44:11.962Z</time></trkpt><trkpt lat="41.3368967" lon="0.6414467"><ele>333.0</ele><time>2026-04-19T09:44:12.962Z</time></trkpt><trkpt lat="41.3369583" lon="0.6415283"><ele>333.0</ele><time>2026-04-19T09:44:13.962Z</time></trkpt><trkpt lat="41.3370183" lon="0.6415933"><ele>333.0</ele><time>2026-04-19T09:44:14.962Z</time></trkpt><trkpt lat="41.33709" lon="0.641645"><ele>333.0</ele><time>2026-04-19T09:44:15.963Z</time></trkpt><trkpt lat="41.33719" lon="0.641675"><ele>333.0</ele><time>2026-04-19T09:44:16.963Z</time></trkpt><trkpt lat="41.3373067" lon="0.6416833"><ele>335.75</ele><time>2026-04-19T09:44:17.963Z</time></trkpt><trkpt lat="41.3374133" lon="0.6416667"><ele>338.5</ele><time>2026-04-19T09:44:18.962Z</time></trkpt><trkpt lat="41.3375383" lon="0.6416467"><ele>341.25</ele><time>2026-04-19T09:44:19.962Z</time></trkpt><trkpt lat="41.337655" lon="0.641615"><ele>344.0</ele><time>2026-04-19T09:44:20.963Z</time></trkpt><trkpt lat="41.3377833" lon="0.64159"><ele>344.0</ele><time>2026-04-19T09:44:21.962Z</time></trkpt><trkpt lat="41.337905" lon="0.6415783"><ele>344.0</ele><time>2026-04-19T09:44:22.963Z</time></trkpt><trkpt lat="41.3380117" lon="0.6415883"><ele>344.0</ele><time>2026-04-19T09:44:23.963Z</time></trkpt><trkpt lat="41.33812" lon="0.64163"><ele>344.0</ele><time>2026-04-19T09:44:24.963Z</time></trkpt><trkpt lat="41.338215" lon="0.6416933"><ele>344.0</ele><time>2026-04-19T09:44:25.962Z</time></trkpt><trkpt lat="41.3383133" lon="0.6417517"><ele>345.0</ele><time>2026-04-19T09:44:26.962Z</time></trkpt><trkpt lat="41.3384117" lon="0.64177"><ele>346.0</ele><time>2026-04-19T09:44:27.962Z</time></trkpt><trkpt lat="41.33851" lon="0.6417567"><ele>347.0</ele><time>2026-04-19T09:44:28.963Z</time></trkpt><trkpt lat="41.3386" lon="0.6417017"><ele>348.0</ele><time>2026-04-19T09:44:29.963Z</time></trkpt><trkpt lat="41.3386833" lon="0.6416183"><ele>349.0</ele><time>2026-04-19T09:44:30.962Z</time></trkpt><trkpt lat="41.3387617" lon="0.6415267"><ele>349.0</ele><time>2026-04-19T09:44:31.963Z</time></trkpt><trkpt lat="41.338835" lon="0.64144"><ele>349.0</ele><time>2026-04-19T09:44:32.962Z</time></trkpt><trkpt lat="41.3389017" lon="0.64136"><ele>349.0</ele><time>2026-04-19T09:44:33.962Z</time></trkpt><trkpt lat="41.3389717" lon="0.6413033"><ele>349.0</ele><time>2026-04-19T09:44:34.963Z</time></trkpt><trkpt lat="41.3390533" lon="0.6412883"><ele>349.0</ele><time>2026-04-19T09:44:35.963Z</time></trkpt><trkpt lat="41.3391317" lon="0.6413133"><ele>349.0</ele><time>2026-04-19T09:44:36.962Z</time></trkpt><trkpt lat="41.3392183" lon="0.6413617"><ele>349.0</ele><time>2026-04-19T09:44:37.962Z</time></trkpt><trkpt lat="41.3393183" lon="0.6414217"><ele>349.0</ele><time>2026-04-19T09:44:38.962Z</time></trkpt><trkpt lat="41.339425" lon="0.641465"><ele>349.0</ele><time>2026-04-19T09:44:39.962Z</time></trkpt><trkpt lat="41.339525" lon="0.6414833"><ele>349.0</ele><time>2026-04-19T09:44:40.963Z</time></trkpt><trkpt lat="41.3396183" lon="0.641465"><ele>349.0</ele><time>2026-04-19T09:44:41.963Z</time></trkpt><trkpt lat="41.3397017" lon="0.64141"><ele>349.2</ele><time>2026-04-19T09:44:42.962Z</time></trkpt><trkpt lat="41.3397717" lon="0.6413283"><ele>349.4</ele><time>2026-04-19T09:44:43.963Z</time></trkpt><trkpt lat="41.3398383" lon="0.6412283"><ele>349.6</ele><time>2026-04-19T09:44:44.962Z</time></trkpt><trkpt lat="41.339905" lon="0.64112"><ele>349.8</ele><time>2026-04-19T09:44:45.962Z</time></trkpt><trkpt lat="41.3399783" lon="0.6410233"><ele>350.0</ele><time>2026-04-19T09:44:46.963Z</time></trkpt><trkpt lat="41.34005" lon="0.6409283"><ele>353.0</ele><time>2026-04-19T09:44:47.963Z</time></trkpt><trkpt lat="41.340125" lon="0.640845"><ele>356.0</ele><time>2026-04-19T09:44:48.963Z</time></trkpt><trkpt lat="41.3402033" lon="0.6407733"><ele>359.0</ele><time>2026-04-19T09:44:49.962Z</time></trkpt><trkpt lat="41.3402967" lon="0.640735"><ele>362.0</ele><time>2026-04-19T09:44:50.962Z</time></trkpt><trkpt lat="41.3403967" lon="0.640715"><ele>365.0</ele><time>2026-04-19T09:44:51.963Z</time></trkpt><trkpt lat="41.3404983" lon="0.6407433"><ele>365.8</ele><time>2026-04-19T09:44:52.962Z</time></trkpt><trkpt lat="41.34059" lon="0.6408017"><ele>366.6</ele><time>2026-04-19T09:44:53.962Z</time></trkpt><trkpt lat="41.34068" lon="0.6408933"><ele>367.4</ele><time>2026-04-19T09:44:54.962Z</time></trkpt><trkpt lat="41.3407667" lon="0.6409783"><ele>368.2</ele><time>2026-04-19T09:44:55.962Z</time></trkpt><trkpt lat="41.3408683" lon="0.64105"><ele>369.0</ele><time>2026-04-19T09:44:56.962Z</time></trkpt><trkpt lat="41.3409683" lon="0.641125"><ele>366.79999999999995</ele><time>2026-04-19T09:44:57.963Z</time></trkpt><trkpt lat="41.3410517" lon="0.6412233"><ele>364.59999999999997</ele><time>2026-04-19T09:44:58.962Z</time></trkpt><trkpt lat="41.3410983" lon="0.6413283"><ele>362.4</ele><time>2026-04-19T09:44:59.962Z</time></trkpt><trkpt lat="41.3411117" lon="0.6414567"><ele>360.2</ele><time>2026-04-19T09:45:00.962Z</time></trkpt><trkpt lat="41.3410917" lon="0.6416"><ele>358.0</ele><time>2026-04-19T09:45:01.963Z</time></trkpt><trkpt lat="41.3410783" lon="0.6417267"><ele>358.0</ele><time>2026-04-19T09:45:02.962Z</time></trkpt><trkpt lat="41.3410783" lon="0.641855"><ele>358.0</ele><time>2026-04-19T09:45:03.963Z</time></trkpt><trkpt lat="41.3410967" lon="0.6419967"><ele>358.0</ele><time>2026-04-19T09:45:04.963Z</time></trkpt><trkpt lat="41.3411317" lon="0.6421417"><ele>358.0</ele><time>2026-04-19T09:45:05.962Z</time></trkpt><trkpt lat="41.3411867" lon="0.6422783"><ele>358.0</ele><time>2026-04-19T09:45:06.962Z</time></trkpt><trkpt lat="41.3412533" lon="0.6423783"><ele>357.16666666666663</ele><time>2026-04-19T09:45:07.962Z</time></trkpt><trkpt lat="41.3413267" lon="0.6424333"><ele>356.3333333333333</ele><time>2026-04-19T09:45:08.963Z</time></trkpt><trkpt lat="41.3413967" lon="0.64245"><ele>355.5</ele><time>2026-04-19T09:45:09.962Z</time></trkpt><trkpt lat="41.34147" lon="0.6424267"><ele>354.6666666666667</ele><time>2026-04-19T09:45:10.963Z</time></trkpt><trkpt lat="41.3415517" lon="0.6423467"><ele>353.83333333333337</ele><time>2026-04-19T09:45:11.962Z</time></trkpt><trkpt lat="41.3416433" lon="0.64226"><ele>353.0</ele><time>2026-04-19T09:45:12.962Z</time></trkpt><trkpt lat="41.341725" lon="0.64219"><ele>355.79999999999995</ele><time>2026-04-19T09:45:13.963Z</time></trkpt><trkpt lat="41.3418167" lon="0.6421317"><ele>358.6</ele><time>2026-04-19T09:45:14.962Z</time></trkpt><trkpt lat="41.3419117" lon="0.6420733"><ele>361.4</ele><time>2026-04-19T09:45:15.962Z</time></trkpt><trkpt lat="41.34201" lon="0.64201"><ele>364.20000000000005</ele><time>2026-04-19T09:45:16.962Z</time></trkpt><trkpt lat="41.34212" lon="0.6419433"><ele>367.0</ele><time>2026-04-19T09:45:17.963Z</time></trkpt><trkpt lat="41.3422267" lon="0.641875"><ele>370.25</ele><time>2026-04-19T09:45:18.962Z</time></trkpt><trkpt lat="41.342335" lon="0.6418167"><ele>373.5</ele><time>2026-04-19T09:45:19.963Z</time></trkpt><trkpt lat="41.3424567" lon="0.6417833"><ele>376.75</ele><time>2026-04-19T09:45:20.962Z</time></trkpt><trkpt lat="41.3426033" lon="0.6417783"><ele>380.0</ele><time>2026-04-19T09:45:21.962Z</time></trkpt><trkpt lat="41.3427167" lon="0.6418583"><ele>380.0</ele><time>2026-04-19T09:45:22.962Z</time></trkpt><trkpt lat="41.34282" lon="0.641945"><ele>380.0</ele><time>2026-04-19T09:45:23.963Z</time></trkpt><trkpt lat="41.3429233" lon="0.6420233"><ele>380.0</ele><time>2026-04-19T09:45:24.962Z</time></trkpt><trkpt lat="41.3430267" lon="0.642085"><ele>380.0</ele><time>2026-04-19T09:45:25.963Z</time></trkpt><trkpt lat="41.3431367" lon="0.6421267"><ele>379.6</ele><time>2026-04-19T09:45:26.962Z</time></trkpt><trkpt lat="41.3432417" lon="0.64215"><ele>379.2</ele><time>2026-04-19T09:45:27.963Z</time></trkpt><trkpt lat="41.3433417" lon="0.642175"><ele>378.79999999999995</ele><time>2026-04-19T09:45:28.962Z</time></trkpt><trkpt lat="41.3434317" lon="0.642195"><ele>378.4</ele><time>2026-04-19T09:45:29.962Z</time></trkpt><trkpt lat="41.3435217" lon="0.6422133"><ele>378.0</ele><time>2026-04-19T09:45:30.963Z</time></trkpt><trkpt lat="41.3436133" lon="0.642235"><ele>378.0</ele><time>2026-04-19T09:45:31.963Z</time></trkpt><trkpt lat="41.3437017" lon="0.6422567"><ele>378.0</ele><time>2026-04-19T09:45:32.962Z</time></trkpt><trkpt lat="41.343795" lon="0.6422783"><ele>378.0</ele><time>2026-04-19T09:45:33.963Z</time></trkpt><trkpt lat="41.34389" lon="0.6423017"><ele>378.0</ele><time>2026-04-19T09:45:34.963Z</time></trkpt><trkpt lat="41.34399" lon="0.6423367"><ele>378.0</ele><time>2026-04-19T09:45:35.963Z</time></trkpt><trkpt lat="41.34409" lon="0.6423917"><ele>379.59999999999997</ele><time>2026-04-19T09:45:36.962Z</time></trkpt><trkpt lat="41.344175" lon="0.6424667"><ele>381.2</ele><time>2026-04-19T09:45:37.962Z</time></trkpt><trkpt lat="41.34425" lon="0.6425633"><ele>382.8</ele><time>2026-04-19T09:45:38.962Z</time></trkpt><trkpt lat="41.3443217" lon="0.6426733"><ele>384.4</ele><time>2026-04-19T09:45:39.963Z</time></trkpt><trkpt lat="41.3443933" lon="0.6427967"><ele>386.0</ele><time>2026-04-19T09:45:40.962Z</time></trkpt><trkpt lat="41.3444633" lon="0.642925"><ele>386.0</ele><time>2026-04-19T09:45:41.963Z</time></trkpt><trkpt lat="41.3445367" lon="0.6430583"><ele>386.0</ele><time>2026-04-19T09:45:42.962Z</time></trkpt><trkpt lat="41.3446117" lon="0.6431933"><ele>386.0</ele><time>2026-04-19T09:45:43.963Z</time></trkpt><trkpt lat="41.3446833" lon="0.6433267"><ele>386.0</ele><time>2026-04-19T09:45:44.962Z</time></trkpt><trkpt lat="41.3447483" lon="0.64344"><ele>388.20000000000005</ele><time>2026-04-19T09:45:45.963Z</time></trkpt><trkpt lat="41.3448133" lon="0.6435467"><ele>390.40000000000003</ele><time>2026-04-19T09:45:46.963Z</time></trkpt><trkpt lat="41.3448683" lon="0.64365"><ele>392.6</ele><time>2026-04-19T09:45:47.962Z</time></trkpt><trkpt lat="41.3449167" lon="0.6437533"><ele>394.8</ele><time>2026-04-19T09:45:48.962Z</time></trkpt><trkpt lat="41.3449617" lon="0.64384"><ele>397.0</ele><time>2026-04-19T09:45:49.963Z</time></trkpt><trkpt lat="41.3450083" lon="0.6439317"><ele>397.0</ele><time>2026-04-19T09:45:50.962Z</time></trkpt><trkpt lat="41.3450717" lon="0.6440033"><ele>397.0</ele><time>2026-04-19T09:45:51.963Z</time></trkpt><trkpt lat="41.3451433" lon="0.6440533"><ele>397.0</ele><time>2026-04-19T09:45:52.963Z</time></trkpt><trkpt lat="41.3452333" lon="0.6440867"><ele>397.0</ele><time>2026-04-19T09:45:53.963Z</time></trkpt><trkpt lat="41.3453383" lon="0.64409"><ele>397.0</ele><time>2026-04-19T09:45:54.963Z</time></trkpt><trkpt lat="41.3454517" lon="0.644065"><ele>396.25</ele><time>2026-04-19T09:45:55.962Z</time></trkpt><trkpt lat="41.3455817" lon="0.6440083"><ele>395.5</ele><time>2026-04-19T09:45:56.963Z</time></trkpt><trkpt lat="41.3457183" lon="0.643945"><ele>394.75</ele><time>2026-04-19T09:45:57.963Z</time></trkpt><trkpt lat="41.3458583" lon="0.643885"><ele>394.0</ele><time>2026-04-19T09:45:58.962Z</time></trkpt><trkpt lat="41.3460017" lon="0.6438367"><ele>394.0</ele><time>2026-04-19T09:45:59.963Z</time></trkpt><trkpt lat="41.3461483" lon="0.6437883"><ele>394.0</ele><time>2026-04-19T09:46:00.962Z</time></trkpt><trkpt lat="41.34628" lon="0.6437267"><ele>394.0</ele><time>2026-04-19T09:46:01.962Z</time></trkpt><trkpt lat="41.3463933" lon="0.6436517"><ele>394.0</ele><time>2026-04-19T09:46:02.962Z</time></trkpt><trkpt lat="41.3465" lon="0.64359"><ele>393.6</ele><time>2026-04-19T09:46:03.963Z</time></trkpt><trkpt lat="41.346595" lon="0.6435767"><ele>393.2</ele><time>2026-04-19T09:46:04.962Z</time></trkpt><trkpt lat="41.3466867" lon="0.6436133"><ele>392.8</ele><time>2026-04-19T09:46:05.962Z</time></trkpt><trkpt lat="41.3467567" lon="0.6437167"><ele>392.40000000000003</ele><time>2026-04-19T09:46:06.963Z</time></trkpt><trkpt lat="41.3468283" lon="0.6438317"><ele>392.0</ele><time>2026-04-19T09:46:07.962Z</time></trkpt><trkpt lat="41.3469183" lon="0.643935"><ele>392.0</ele><time>2026-04-19T09:46:08.962Z</time></trkpt><trkpt lat="41.347015" lon="0.64403"><ele>392.0</ele><time>2026-04-19T09:46:09.963Z</time></trkpt><trkpt lat="41.34711" lon="0.6441017"><ele>392.0</ele><time>2026-04-19T09:46:10.963Z</time></trkpt><trkpt lat="41.3472" lon="0.6441617"><ele>392.0</ele><time>2026-04-19T09:46:11.963Z</time></trkpt><trkpt lat="41.3472767" lon="0.644225"><ele>392.0</ele><time>2026-04-19T09:46:12.962Z</time></trkpt><trkpt lat="41.3473383" lon="0.6443"><ele>395.6</ele><time>2026-04-19T09:46:13.962Z</time></trkpt><trkpt lat="41.3473833" lon="0.6443783"><ele>399.20000000000005</ele><time>2026-04-19T09:46:14.962Z</time></trkpt><trkpt lat="41.34739" lon="0.6444883"><ele>402.8</ele><time>2026-04-19T09:46:15.963Z</time></trkpt><trkpt lat="41.34738" lon="0.6446133"><ele>406.4</ele><time>2026-04-19T09:46:16.963Z</time></trkpt><trkpt lat="41.347325" lon="0.644745"><ele>410.0</ele><time>2026-04-19T09:46:17.962Z</time></trkpt><trkpt lat="41.347265" lon="0.6448867"><ele>404.8</ele><time>2026-04-19T09:46:18.962Z</time></trkpt><trkpt lat="41.3472017" lon="0.64501"><ele>399.6</ele><time>2026-04-19T09:46:19.963Z</time></trkpt><trkpt lat="41.34715" lon="0.6451217"><ele>394.4</ele><time>2026-04-19T09:46:20.962Z</time></trkpt><trkpt lat="41.3471267" lon="0.6452483"><ele>389.2</ele><time>2026-04-19T09:46:21.963Z</time></trkpt><trkpt lat="41.34713" lon="0.6453817"><ele>384.0</ele><time>2026-04-19T09:46:22.963Z</time></trkpt><trkpt lat="41.3471583" lon="0.645525"><ele>384.0</ele><time>2026-04-19T09:46:23.963Z</time></trkpt><trkpt lat="41.3472067" lon="0.6456567"><ele>384.0</ele><time>2026-04-19T09:46:24.963Z</time></trkpt><trkpt lat="41.34728" lon="0.6457683"><ele>384.0</ele><time>2026-04-19T09:46:25.963Z</time></trkpt><trkpt lat="41.347365" lon="0.6458633"><ele>384.0</ele><time>2026-04-19T09:46:26.963Z</time></trkpt><trkpt lat="41.3474667" lon="0.64592"><ele>384.0</ele><time>2026-04-19T09:46:27.963Z</time></trkpt><trkpt lat="41.34759" lon="0.64592"><ele>387.75</ele><time>2026-04-19T09:46:28.963Z</time></trkpt><trkpt lat="41.3477183" lon="0.6458733"><ele>391.5</ele><time>2026-04-19T09:46:29.963Z</time></trkpt><trkpt lat="41.3478467" lon="0.6458117"><ele>395.25</ele><time>2026-04-19T09:46:30.963Z</time></trkpt><trkpt lat="41.347965" lon="0.645755"><ele>399.0</ele><time>2026-04-19T09:46:31.963Z</time></trkpt><trkpt lat="41.3480667" lon="0.64569"><ele>399.2</ele><time>2026-04-19T09:46:32.963Z</time></trkpt><trkpt lat="41.3481467" lon="0.6456183"><ele>399.4</ele><time>2026-04-19T09:46:33.963Z</time></trkpt><trkpt lat="41.3482183" lon="0.6455383"><ele>399.6</ele><time>2026-04-19T09:46:34.963Z</time></trkpt><trkpt lat="41.3482967" lon="0.64546"><ele>399.8</ele><time>2026-04-19T09:46:35.962Z</time></trkpt><trkpt lat="41.34838" lon="0.6453983"><ele>400.0</ele><time>2026-04-19T09:46:36.963Z</time></trkpt><trkpt lat="41.348475" lon="0.6453517"><ele>400.0</ele><time>2026-04-19T09:46:37.963Z</time></trkpt><trkpt lat="41.34858" lon="0.6453183"><ele>400.0</ele><time>2026-04-19T09:46:38.963Z</time></trkpt><trkpt lat="41.3486917" lon="0.64528"><ele>400.0</ele><time>2026-04-19T09:46:39.963Z</time></trkpt><trkpt lat="41.3487967" lon="0.6452433"><ele>400.0</ele><time>2026-04-19T09:46:40.962Z</time></trkpt><trkpt lat="41.3488917" lon="0.6452083"><ele>400.0</ele><time>2026-04-19T09:46:41.963Z</time></trkpt><trkpt lat="41.3489717" lon="0.6451767"><ele>401.50000000000006</ele><time>2026-04-19T09:46:42.962Z</time></trkpt><trkpt lat="41.3490433" lon="0.6451467"><ele>403.0</ele><time>2026-04-19T09:46:43.963Z</time></trkpt><trkpt lat="41.34914" lon="0.6451367"><ele>404.5</ele><time>2026-04-19T09:46:45.962Z</time></trkpt><trkpt lat="41.3491717" lon="0.6452183"><ele>406.0</ele><time>2026-04-19T09:48:44.963Z</time></trkpt><trkpt lat="41.3492067" lon="0.6453483"><ele>407.50000000000006</ele><time>2026-04-19T09:48:46.963Z</time></trkpt><trkpt lat="41.3492333" lon="0.6454433"><ele>409.0</ele><time>2026-04-19T09:48:47.962Z</time></trkpt><trkpt lat="41.3492483" lon="0.6455467"><ele>409.0</ele><time>2026-04-19T09:48:48.962Z</time></trkpt><trkpt lat="41.3492333" lon="0.6456667"><ele>409.0</ele><time>2026-04-19T09:48:49.963Z</time></trkpt><trkpt lat="41.3491967" lon="0.64578"><ele>409.0</ele><time>2026-04-19T09:48:50.962Z</time></trkpt><trkpt lat="41.3491433" lon="0.645895"><ele>409.0</ele><time>2026-04-19T09:48:51.963Z</time></trkpt><trkpt lat="41.3490967" lon="0.646005"><ele>409.0</ele><time>2026-04-19T09:48:52.963Z</time></trkpt><trkpt lat="41.3490567" lon="0.6461217"><ele>411.79999999999995</ele><time>2026-04-19T09:48:53.962Z</time></trkpt><trkpt lat="41.3490267" lon="0.6462583"><ele>414.59999999999997</ele><time>2026-04-19T09:48:54.963Z</time></trkpt><trkpt lat="41.3490117" lon="0.6463967"><ele>417.4</ele><time>2026-04-19T09:48:55.963Z</time></trkpt><trkpt lat="41.3489967" lon="0.6465383"><ele>420.2</ele><time>2026-04-19T09:48:56.962Z</time></trkpt><trkpt lat="41.348995" lon="0.6466783"><ele>423.0</ele><time>2026-04-19T09:48:57.962Z</time></trkpt><trkpt lat="41.34898" lon="0.6468267"><ele>426.5</ele><time>2026-04-19T09:48:58.963Z</time></trkpt><trkpt lat="41.348955" lon="0.6469783"><ele>430.0</ele><time>2026-04-19T09:48:59.962Z</time></trkpt><trkpt lat="41.3489117" lon="0.64713"><ele>433.5</ele><time>2026-04-19T09:49:00.963Z</time></trkpt><trkpt lat="41.3488583" lon="0.6472817"><ele>437.0</ele><time>2026-04-19T09:49:01.962Z</time></trkpt><trkpt lat="41.3488067" lon="0.6474333"><ele>430.0</ele><time>2026-04-19T09:49:02.963Z</time></trkpt><trkpt lat="41.3487533" lon="0.6475867"><ele>423.0</ele><time>2026-04-19T09:49:03.962Z</time></trkpt><trkpt lat="41.3487017" lon="0.6477517"><ele>416.0</ele><time>2026-04-19T09:49:04.963Z</time></trkpt><trkpt lat="41.34866" lon="0.6479067"><ele>409.0</ele><time>2026-04-19T09:49:05.962Z</time></trkpt><trkpt lat="41.3486517" lon="0.648065"><ele>409.0</ele><time>2026-04-19T09:49:06.963Z</time></trkpt><trkpt lat="41.3486533" lon="0.6482333"><ele>409.0</ele><time>2026-04-19T09:49:07.962Z</time></trkpt><trkpt lat="41.3486533" lon="0.648405"><ele>409.0</ele><time>2026-04-19T09:49:08.962Z</time></trkpt><trkpt lat="41.3486567" lon="0.6485617"><ele>409.0</ele><time>2026-04-19T09:49:09.963Z</time></trkpt><trkpt lat="41.3486467" lon="0.6487267"><ele>414.25</ele><time>2026-04-19T09:49:10.963Z</time></trkpt><trkpt lat="41.3486217" lon="0.6488767"><ele>419.5</ele><time>2026-04-19T09:49:11.963Z</time></trkpt><trkpt lat="41.3485633" lon="0.6490183"><ele>424.75</ele><time>2026-04-19T09:49:12.962Z</time></trkpt><trkpt lat="41.3484733" lon="0.6491417"><ele>430.0</ele><time>2026-04-19T09:49:13.962Z</time></trkpt><trkpt lat="41.3483433" lon="0.6492217"><ele>430.0</ele><time>2026-04-19T09:49:14.962Z</time></trkpt><trkpt lat="41.348225" lon="0.6493033"><ele>430.0</ele><time>2026-04-19T09:49:15.963Z</time></trkpt><trkpt lat="41.3481017" lon="0.649385"><ele>430.0</ele><time>2026-04-19T09:49:16.962Z</time></trkpt><trkpt lat="41.3479683" lon="0.6494217"><ele>430.0</ele><time>2026-04-19T09:49:17.962Z</time></trkpt><trkpt lat="41.3478383" lon="0.64941"><ele>428.75</ele><time>2026-04-19T09:49:18.962Z</time></trkpt><trkpt lat="41.3477033" lon="0.6493783"><ele>427.5</ele><time>2026-04-19T09:49:19.962Z</time></trkpt><trkpt lat="41.3475867" lon="0.6493567"><ele>426.25</ele><time>2026-04-19T09:49:20.962Z</time></trkpt><trkpt lat="41.3474717" lon="0.64934"><ele>425.0</ele><time>2026-04-19T09:49:21.963Z</time></trkpt><trkpt lat="41.3473683" lon="0.6493217"><ele>424.99999999999994</ele><time>2026-04-19T09:49:22.962Z</time></trkpt><trkpt lat="41.3472717" lon="0.6493233"><ele>425.0</ele><time>2026-04-19T09:49:23.962Z</time></trkpt><trkpt lat="41.3471817" lon="0.649315"><ele>425.0</ele><time>2026-04-19T09:49:24.963Z</time></trkpt><trkpt lat="41.347105" lon="0.6493083"><ele>425.0</ele><time>2026-04-19T09:49:25.963Z</time></trkpt><trkpt lat="41.34702" lon="0.6493067"><ele>424.99999999999994</ele><time>2026-04-19T09:49:26.962Z</time></trkpt><trkpt lat="41.3469383" lon="0.649335"><ele>425.0</ele><time>2026-04-19T09:49:27.962Z</time></trkpt><trkpt lat="41.3468617" lon="0.649385"><ele>424.3333333333333</ele><time>2026-04-19T09:49:28.962Z</time></trkpt><trkpt lat="41.3468033" lon="0.6494433"><ele>423.66666666666663</ele><time>2026-04-19T09:49:29.962Z</time></trkpt><trkpt lat="41.3467383" lon="0.64952"><ele>423.0</ele><time>2026-04-19T09:49:30.963Z</time></trkpt><trkpt lat="41.34668" lon="0.6495967"><ele>422.33333333333337</ele><time>2026-04-19T09:49:31.962Z</time></trkpt><trkpt lat="41.3466217" lon="0.64969"><ele>421.6666666666667</ele><time>2026-04-19T09:49:32.963Z</time></trkpt><trkpt lat="41.3465667" lon="0.6498133"><ele>421.0</ele><time>2026-04-19T09:49:33.962Z</time></trkpt><trkpt lat="41.3465233" lon="0.6499433"><ele>423.75</ele><time>2026-04-19T09:49:34.963Z</time></trkpt><trkpt lat="41.3464783" lon="0.650085"><ele>426.5</ele><time>2026-04-19T09:49:35.963Z</time></trkpt><trkpt lat="41.3464183" lon="0.65023"><ele>429.25</ele><time>2026-04-19T09:49:36.963Z</time></trkpt><trkpt lat="41.34635" lon="0.6503833"><ele>432.0</ele><time>2026-04-19T09:49:37.963Z</time></trkpt><trkpt lat="41.346265" lon="0.65052"><ele>432.0</ele><time>2026-04-19T09:49:38.962Z</time></trkpt><trkpt lat="41.3461667" lon="0.6506517"><ele>432.0</ele><time>2026-04-19T09:49:39.963Z</time></trkpt><trkpt lat="41.3460617" lon="0.6507783"><ele>432.0</ele><time>2026-04-19T09:49:40.963Z</time></trkpt><trkpt lat="41.3459533" lon="0.6508833"><ele>432.0</ele><time>2026-04-19T09:49:41.963Z</time></trkpt><trkpt lat="41.345835" lon="0.6509667"><ele>432.0</ele><time>2026-04-19T09:49:42.962Z</time></trkpt><trkpt lat="41.3457367" lon="0.651065"><ele>432.00000000000006</ele><time>2026-04-19T09:49:43.962Z</time></trkpt><trkpt lat="41.345645" lon="0.6511667"><ele>432.00000000000006</ele><time>2026-04-19T09:49:44.962Z</time></trkpt><trkpt lat="41.3455783" lon="0.6512517"><ele>432.0</ele><time>2026-04-19T09:49:45.962Z</time></trkpt><trkpt lat="41.345535" lon="0.6513517"><ele>432.0</ele><time>2026-04-19T09:49:46.963Z</time></trkpt><trkpt lat="41.3455" lon="0.6514433"><ele>433.8</ele><time>2026-04-19T09:49:47.962Z</time></trkpt><trkpt lat="41.3454867" lon="0.6515317"><ele>435.6</ele><time>2026-04-19T09:49:48.963Z</time></trkpt><trkpt lat="41.3455383" lon="0.65168"><ele>437.40000000000003</ele><time>2026-04-19T09:49:50.963Z</time></trkpt><trkpt lat="41.3456283" lon="0.65174"><ele>439.20000000000005</ele><time>2026-04-19T09:49:51.963Z</time></trkpt><trkpt lat="41.3457267" lon="0.6517767"><ele>441.0</ele><time>2026-04-19T09:49:52.963Z</time></trkpt><trkpt lat="41.3458217" lon="0.6517833"><ele>441.0</ele><time>2026-04-19T09:49:53.963Z</time></trkpt><trkpt lat="41.3459233" lon="0.6518283"><ele>441.0</ele><time>2026-04-19T09:49:55.963Z</time></trkpt><trkpt lat="41.3459833" lon="0.6518683"><ele>441.0</ele><time>2026-04-19T09:49:57.963Z</time></trkpt><trkpt lat="41.3459433" lon="0.6517933"><ele>441.0</ele><time>2026-04-19T09:52:47.962Z</time></trkpt><trkpt lat="41.346045" lon="0.6518233"><ele>441.0</ele><time>2026-04-19T09:52:50.962Z</time></trkpt><trkpt lat="41.3461217" lon="0.651855"><ele>441.0</ele><time>2026-04-19T09:52:51.963Z</time></trkpt><trkpt lat="41.3462067" lon="0.6518883"><ele>441.0</ele><time>2026-04-19T09:52:52.963Z</time></trkpt><trkpt lat="41.3463017" lon="0.651935"><ele>441.0</ele><time>2026-04-19T09:52:53.962Z</time></trkpt><trkpt lat="41.3463983" lon="0.651975"><ele>441.0</ele><time>2026-04-19T09:52:54.962Z</time></trkpt><trkpt lat="41.3464883" lon="0.652005"><ele>441.0</ele><time>2026-04-19T09:52:55.963Z</time></trkpt><trkpt lat="41.3465633" lon="0.6520483"><ele>441.0</ele><time>2026-04-19T09:52:56.962Z</time></trkpt><trkpt lat="41.3466683" lon="0.6521017"><ele>440.8</ele><time>2026-04-19T09:52:58.962Z</time></trkpt><trkpt lat="41.3467533" lon="0.65215"><ele>440.6</ele><time>2026-04-19T09:53:00.963Z</time></trkpt><trkpt lat="41.3468233" lon="0.65221"><ele>440.4</ele><time>2026-04-19T09:53:02.963Z</time></trkpt><trkpt lat="41.3469133" lon="0.652245"><ele>440.2</ele><time>2026-04-19T09:53:04.962Z</time></trkpt><trkpt lat="41.347035" lon="0.6522667"><ele>440.0</ele><time>2026-04-19T09:53:06.963Z</time></trkpt><trkpt lat="41.3471" lon="0.6522817"><ele>440.0</ele><time>2026-04-19T09:53:07.962Z</time></trkpt><trkpt lat="41.3471717" lon="0.6523"><ele>440.0</ele><time>2026-04-19T09:53:08.963Z</time></trkpt><trkpt lat="41.3472517" lon="0.6523333"><ele>440.0</ele><time>2026-04-19T09:53:09.963Z</time></trkpt><trkpt lat="41.3473383" lon="0.6523717"><ele>440.0</ele><time>2026-04-19T09:53:10.963Z</time></trkpt><trkpt lat="41.347425" lon="0.652435"><ele>440.0</ele><time>2026-04-19T09:53:11.962Z</time></trkpt><trkpt lat="41.3475017" lon="0.6525333"><ele>440.75</ele><time>2026-04-19T09:53:12.962Z</time></trkpt><trkpt lat="41.3475733" lon="0.6526417"><ele>441.5</ele><time>2026-04-19T09:53:13.962Z</time></trkpt><trkpt lat="41.347645" lon="0.6527533"><ele>442.25</ele><time>2026-04-19T09:53:14.962Z</time></trkpt><trkpt lat="41.347715" lon="0.65288"><ele>443.0</ele><time>2026-04-19T09:53:15.962Z</time></trkpt><trkpt lat="41.3478033" lon="0.6529967"><ele>443.0</ele><time>2026-04-19T09:53:16.962Z</time></trkpt><trkpt lat="41.3478917" lon="0.6531133"><ele>443.0</ele><time>2026-04-19T09:53:17.963Z</time></trkpt><trkpt lat="41.3479917" lon="0.6532367"><ele>443.0</ele><time>2026-04-19T09:53:18.962Z</time></trkpt><trkpt lat="41.348075" lon="0.65337"><ele>443.0</ele><time>2026-04-19T09:53:19.962Z</time></trkpt><trkpt lat="41.348145" lon="0.6535283"><ele>449.25</ele><time>2026-04-19T09:53:20.962Z</time></trkpt><trkpt lat="41.3482133" lon="0.65368"><ele>455.5</ele><time>2026-04-19T09:53:21.962Z</time></trkpt><trkpt lat="41.34829" lon="0.6538217"><ele>461.75</ele><time>2026-04-19T09:53:22.963Z</time></trkpt><trkpt lat="41.34838" lon="0.6539467"><ele>468.0</ele><time>2026-04-19T09:53:23.962Z</time></trkpt><trkpt lat="41.3484567" lon="0.654085"><ele>468.0</ele><time>2026-04-19T09:53:24.963Z</time></trkpt><trkpt lat="41.3485183" lon="0.65424"><ele>468.0</ele><time>2026-04-19T09:53:25.963Z</time></trkpt><trkpt lat="41.3485217" lon="0.654405"><ele>468.0</ele><time>2026-04-19T09:53:26.963Z</time></trkpt><trkpt lat="41.348495" lon="0.6545867"><ele>468.0</ele><time>2026-04-19T09:53:27.962Z</time></trkpt><trkpt lat="41.3484267" lon="0.654755"><ele>470.75</ele><time>2026-04-19T09:53:28.963Z</time></trkpt><trkpt lat="41.348345" lon="0.6549283"><ele>473.5</ele><time>2026-04-19T09:53:29.963Z</time></trkpt><trkpt lat="41.3482733" lon="0.6550783"><ele>476.25</ele><time>2026-04-19T09:53:30.962Z</time></trkpt><trkpt lat="41.3482167" lon="0.6552217"><ele>479.0</ele><time>2026-04-19T09:53:31.963Z</time></trkpt><trkpt lat="41.3481317" lon="0.6553483"><ele>478.75</ele><time>2026-04-19T09:53:32.962Z</time></trkpt><trkpt lat="41.3480283" lon="0.6554"><ele>478.5</ele><time>2026-04-19T09:53:33.963Z</time></trkpt><trkpt lat="41.3478817" lon="0.65545"><ele>478.25</ele><time>2026-04-19T09:53:34.963Z</time></trkpt><trkpt lat="41.3477333" lon="0.65548"><ele>478.0</ele><time>2026-04-19T09:53:35.962Z</time></trkpt><trkpt lat="41.3475967" lon="0.6555083"><ele>478.0</ele><time>2026-04-19T09:53:36.962Z</time></trkpt><trkpt lat="41.3474833" lon="0.6554817"><ele>477.99999999999994</ele><time>2026-04-19T09:53:37.963Z</time></trkpt><trkpt lat="41.34739" lon="0.6554633"><ele>477.99999999999994</ele><time>2026-04-19T09:53:38.962Z</time></trkpt><trkpt lat="41.3472967" lon="0.6555117"><ele>478.0</ele><time>2026-04-19T09:53:39.963Z</time></trkpt><trkpt lat="41.3472" lon="0.6556133"><ele>478.0</ele><time>2026-04-19T09:53:40.963Z</time></trkpt><trkpt lat="41.3471383" lon="0.6557383"><ele>476.5</ele><time>2026-04-19T09:53:41.962Z</time></trkpt><trkpt lat="41.3470833" lon="0.6558533"><ele>475.0</ele><time>2026-04-19T09:53:42.962Z</time></trkpt><trkpt lat="41.347005" lon="0.65599"><ele>473.5</ele><time>2026-04-19T09:53:43.962Z</time></trkpt><trkpt lat="41.3469067" lon="0.6560933"><ele>472.0</ele><time>2026-04-19T09:53:44.962Z</time></trkpt><trkpt lat="41.346795" lon="0.6561633"><ele>472.00000000000006</ele><time>2026-04-19T09:53:45.963Z</time></trkpt><trkpt lat="41.3467083" lon="0.656215"><ele>472.0</ele><time>2026-04-19T09:53:46.963Z</time></trkpt><trkpt lat="41.3466367" lon="0.6562683"><ele>472.0</ele><time>2026-04-19T09:53:47.963Z</time></trkpt><trkpt lat="41.3465733" lon="0.6563467"><ele>472.0</ele><time>2026-04-19T09:53:48.963Z</time></trkpt><trkpt lat="41.3465283" lon="0.6564333"><ele>472.00000000000006</ele><time>2026-04-19T09:53:49.962Z</time></trkpt><trkpt lat="41.3465167" lon="0.6565383"><ele>472.0</ele><time>2026-04-19T09:53:50.962Z</time></trkpt><trkpt lat="41.34653" lon="0.6566683"><ele>472.0</ele><time>2026-04-19T09:53:51.962Z</time></trkpt><trkpt lat="41.3465683" lon="0.656785"><ele>472.0</ele><time>2026-04-19T09:53:52.963Z</time></trkpt><trkpt lat="41.346665" lon="0.6569133"><ele>472.0</ele><time>2026-04-19T09:53:53.963Z</time></trkpt><trkpt lat="41.3467317" lon="0.6570567"><ele>472.0</ele><time>2026-04-19T09:53:54.962Z</time></trkpt><trkpt lat="41.3467917" lon="0.657225"><ele>470.0</ele><time>2026-04-19T09:53:55.962Z</time></trkpt><trkpt lat="41.346835" lon="0.6574017"><ele>468.0</ele><time>2026-04-19T09:53:56.962Z</time></trkpt><trkpt lat="41.3468717" lon="0.6575583"><ele>466.0</ele><time>2026-04-19T09:53:57.963Z</time></trkpt><trkpt lat="41.3469233" lon="0.657705"><ele>464.0</ele><time>2026-04-19T09:53:58.962Z</time></trkpt><trkpt lat="41.3469917" lon="0.6578233"><ele>461.75</ele><time>2026-04-19T09:53:59.962Z</time></trkpt><trkpt lat="41.3470717" lon="0.6579133"><ele>459.5</ele><time>2026-04-19T09:54:00.962Z</time></trkpt><trkpt lat="41.347165" lon="0.6579933"><ele>457.25</ele><time>2026-04-19T09:54:01.963Z</time></trkpt><trkpt lat="41.3472767" lon="0.6580683"><ele>455.0</ele><time>2026-04-19T09:54:02.962Z</time></trkpt><trkpt lat="41.3473883" lon="0.6581633"><ele>464.0</ele><time>2026-04-19T09:54:03.962Z</time></trkpt><trkpt lat="41.3474867" lon="0.6582817"><ele>473.0</ele><time>2026-04-19T09:54:04.963Z</time></trkpt><trkpt lat="41.3475433" lon="0.658425"><ele>482.0</ele><time>2026-04-19T09:54:05.962Z</time></trkpt><trkpt lat="41.3475683" lon="0.658585"><ele>491.0</ele><time>2026-04-19T09:54:06.962Z</time></trkpt><trkpt lat="41.3475617" lon="0.65876"><ele>491.75</ele><time>2026-04-19T09:54:07.963Z</time></trkpt><trkpt lat="41.3475317" lon="0.65893"><ele>492.5</ele><time>2026-04-19T09:54:08.963Z</time></trkpt><trkpt lat="41.347465" lon="0.6591"><ele>493.25</ele><time>2026-04-19T09:54:09.962Z</time></trkpt><trkpt lat="41.347365" lon="0.6592367"><ele>494.0</ele><time>2026-04-19T09:54:10.962Z</time></trkpt><trkpt lat="41.3472767" lon="0.65933"><ele>493.99999999999994</ele><time>2026-04-19T09:54:11.962Z</time></trkpt><trkpt lat="41.347215" lon="0.6594233"><ele>494.0</ele><time>2026-04-19T09:54:12.962Z</time></trkpt><trkpt lat="41.3471717" lon="0.659495"><ele>494.0</ele><time>2026-04-19T09:54:13.962Z</time></trkpt><trkpt lat="41.3471733" lon="0.6595967"><ele>494.0</ele><time>2026-04-19T09:54:14.962Z</time></trkpt><trkpt lat="41.3471717" lon="0.6596817"><ele>493.99999999999994</ele><time>2026-04-19T09:54:15.963Z</time></trkpt><trkpt lat="41.3472133" lon="0.6597583"><ele>494.0</ele><time>2026-04-19T09:54:16.962Z</time></trkpt><trkpt lat="41.3473033" lon="0.6598117"><ele>494.25</ele><time>2026-04-19T09:54:17.962Z</time></trkpt><trkpt lat="41.3473883" lon="0.6599033"><ele>494.5</ele><time>2026-04-19T09:54:18.962Z</time></trkpt><trkpt lat="41.3474717" lon="0.66002"><ele>494.75</ele><time>2026-04-19T09:54:19.963Z</time></trkpt><trkpt lat="41.347515" lon="0.6601633"><ele>495.0</ele><time>2026-04-19T09:54:20.962Z</time></trkpt><trkpt lat="41.347525" lon="0.660315"><ele>493.2</ele><time>2026-04-19T09:54:21.962Z</time></trkpt><trkpt lat="41.3475067" lon="0.6604683"><ele>491.4</ele><time>2026-04-19T09:54:22.963Z</time></trkpt><trkpt lat="41.3475083" lon="0.660625"><ele>489.6</ele><time>2026-04-19T09:54:23.962Z</time></trkpt><trkpt lat="41.34753" lon="0.6607683"><ele>487.8</ele><time>2026-04-19T09:54:24.963Z</time></trkpt><trkpt lat="41.3475683" lon="0.660885"><ele>486.0</ele><time>2026-04-19T09:54:25.962Z</time></trkpt><trkpt lat="41.3476217" lon="0.660965"><ele>486.0</ele><time>2026-04-19T09:54:26.963Z</time></trkpt><trkpt lat="41.3476883" lon="0.6610183"><ele>486.0</ele><time>2026-04-19T09:54:27.962Z</time></trkpt><trkpt lat="41.3477833" lon="0.6610517"><ele>486.0</ele><time>2026-04-19T09:54:28.962Z</time></trkpt><trkpt lat="41.3478883" lon="0.66103"><ele>486.0</ele><time>2026-04-19T09:54:29.962Z</time></trkpt><trkpt lat="41.34799" lon="0.6610533"><ele>486.0</ele><time>2026-04-19T09:54:30.962Z</time></trkpt><trkpt lat="41.3480917" lon="0.6610817"><ele>490.1666666666667</ele><time>2026-04-19T09:54:31.963Z</time></trkpt><trkpt lat="41.3481583" lon="0.6611433"><ele>494.33333333333337</ele><time>2026-04-19T09:54:32.963Z</time></trkpt><trkpt lat="41.3481967" lon="0.6612283"><ele>498.5</ele><time>2026-04-19T09:54:33.962Z</time></trkpt><trkpt lat="41.3481983" lon="0.6613417"><ele>502.6666666666667</ele><time>2026-04-19T09:54:34.963Z</time></trkpt><trkpt lat="41.34819" lon="0.6614683"><ele>506.83333333333337</ele><time>2026-04-19T09:54:35.962Z</time></trkpt><trkpt lat="41.34819" lon="0.66161"><ele>511.0</ele><time>2026-04-19T09:54:36.962Z</time></trkpt><trkpt lat="41.3481817" lon="0.661775"><ele>511.0</ele><time>2026-04-19T09:54:37.962Z</time></trkpt><trkpt lat="41.3481717" lon="0.66194"><ele>511.0</ele><time>2026-04-19T09:54:38.963Z</time></trkpt><trkpt lat="41.3481617" lon="0.6621"><ele>511.0</ele><time>2026-04-19T09:54:39.963Z</time></trkpt><trkpt lat="41.3481533" lon="0.6622517"><ele>511.0</ele><time>2026-04-19T09:54:40.963Z</time></trkpt><trkpt lat="41.3481517" lon="0.6624017"><ele>511.25</ele><time>2026-04-19T09:54:41.962Z</time></trkpt><trkpt lat="41.3481617" lon="0.6625467"><ele>511.5</ele><time>2026-04-19T09:54:42.962Z</time></trkpt><trkpt lat="41.34819" lon="0.6627033"><ele>511.75</ele><time>2026-04-19T09:54:43.962Z</time></trkpt><trkpt lat="41.348245" lon="0.6628533"><ele>512.0</ele><time>2026-04-19T09:54:44.963Z</time></trkpt><trkpt lat="41.3483067" lon="0.6629933"><ele>513.0</ele><time>2026-04-19T09:54:45.962Z</time></trkpt><trkpt lat="41.348345" lon="0.66313"><ele>514.0</ele><time>2026-04-19T09:54:46.962Z</time></trkpt><trkpt lat="41.3483383" lon="0.6632483"><ele>515.0</ele><time>2026-04-19T09:54:47.962Z</time></trkpt><trkpt lat="41.348295" lon="0.6633833"><ele>516.0</ele><time>2026-04-19T09:54:48.963Z</time></trkpt><trkpt lat="41.348225" lon="0.6635067"><ele>517.0</ele><time>2026-04-19T09:54:49.962Z</time></trkpt><trkpt lat="41.3481483" lon="0.6636217"><ele>514.25</ele><time>2026-04-19T09:54:50.962Z</time></trkpt><trkpt lat="41.3480383" lon="0.6636833"><ele>511.5</ele><time>2026-04-19T09:54:51.962Z</time></trkpt><trkpt lat="41.3479283" lon="0.6637383"><ele>508.75</ele><time>2026-04-19T09:54:52.962Z</time></trkpt><trkpt lat="41.3478183" lon="0.66379"><ele>506.0</ele><time>2026-04-19T09:54:53.963Z</time></trkpt><trkpt lat="41.3477333" lon="0.6638633"><ele>505.99999999999994</ele><time>2026-04-19T09:54:54.963Z</time></trkpt><trkpt lat="41.347675" lon="0.66395"><ele>506.0</ele><time>2026-04-19T09:54:55.963Z</time></trkpt><trkpt lat="41.3476517" lon="0.66405"><ele>506.0</ele><time>2026-04-19T09:54:56.962Z</time></trkpt><trkpt lat="41.3476483" lon="0.6641467"><ele>506.0</ele><time>2026-04-19T09:54:57.963Z</time></trkpt><trkpt lat="41.3476833" lon="0.6642583"><ele>505.99999999999994</ele><time>2026-04-19T09:54:58.962Z</time></trkpt><trkpt lat="41.3477667" lon="0.6643283"><ele>506.0</ele><time>2026-04-19T09:54:59.963Z</time></trkpt><trkpt lat="41.347905" lon="0.6644017"><ele>505.75</ele><time>2026-04-19T09:55:00.962Z</time></trkpt><trkpt lat="41.348035" lon="0.6644767"><ele>505.5</ele><time>2026-04-19T09:55:01.962Z</time></trkpt><trkpt lat="41.3481433" lon="0.6645717"><ele>505.25</ele><time>2026-04-19T09:55:02.962Z</time></trkpt><trkpt lat="41.3482233" lon="0.6646983"><ele>505.0</ele><time>2026-04-19T09:55:03.963Z</time></trkpt><trkpt lat="41.3482483" lon="0.6648483"><ele>510.75</ele><time>2026-04-19T09:55:04.963Z</time></trkpt><trkpt lat="41.3482417" lon="0.664995"><ele>516.5</ele><time>2026-04-19T09:55:05.962Z</time></trkpt><trkpt lat="41.3482267" lon="0.6651567"><ele>522.25</ele><time>2026-04-19T09:55:06.963Z</time></trkpt><trkpt lat="41.34823" lon="0.6653433"><ele>528.0</ele><time>2026-04-19T09:55:07.962Z</time></trkpt><trkpt lat="41.3482433" lon="0.6655083"><ele>528.5</ele><time>2026-04-19T09:55:08.962Z</time></trkpt><trkpt lat="41.3482633" lon="0.6656833"><ele>529.0</ele><time>2026-04-19T09:55:09.962Z</time></trkpt><trkpt lat="41.3482883" lon="0.665845"><ele>529.5</ele><time>2026-04-19T09:55:10.963Z</time></trkpt><trkpt lat="41.3483167" lon="0.66601"><ele>530.0</ele><time>2026-04-19T09:55:11.963Z</time></trkpt><trkpt lat="41.3483017" lon="0.6661783"><ele>531.0</ele><time>2026-04-19T09:55:12.962Z</time></trkpt><trkpt lat="41.3482717" lon="0.6663617"><ele>532.0</ele><time>2026-04-19T09:55:13.963Z</time></trkpt><trkpt lat="41.3482217" lon="0.666545"><ele>533.0</ele><time>2026-04-19T09:55:14.962Z</time></trkpt><trkpt lat="41.3481483" lon="0.6667"><ele>534.0</ele><time>2026-04-19T09:55:15.962Z</time></trkpt><trkpt lat="41.3480633" lon="0.6668517"><ele>529.0</ele><time>2026-04-19T09:55:16.962Z</time></trkpt><trkpt lat="41.3479883" lon="0.6669867"><ele>524.0</ele><time>2026-04-19T09:55:17.963Z</time></trkpt><trkpt lat="41.347935" lon="0.66713"><ele>519.0</ele><time>2026-04-19T09:55:18.963Z</time></trkpt><trkpt lat="41.3479083" lon="0.6672767"><ele>514.0</ele><time>2026-04-19T09:55:19.963Z</time></trkpt><trkpt lat="41.3479233" lon="0.66743"><ele>514.0</ele><time>2026-04-19T09:55:20.962Z</time></trkpt><trkpt lat="41.3479583" lon="0.667595"><ele>514.0</ele><time>2026-04-19T09:55:21.963Z</time></trkpt><trkpt lat="41.3480417" lon="0.66773"><ele>514.0</ele><time>2026-04-19T09:55:22.963Z</time></trkpt><trkpt lat="41.34815" lon="0.667855"><ele>514.0</ele><time>2026-04-19T09:55:23.962Z</time></trkpt><trkpt lat="41.3482283" lon="0.668"><ele>517.6</ele><time>2026-04-19T09:55:24.962Z</time></trkpt><trkpt lat="41.348295" lon="0.6681433"><ele>521.2</ele><time>2026-04-19T09:55:25.962Z</time></trkpt><trkpt lat="41.3483533" lon="0.6682767"><ele>524.8000000000001</ele><time>2026-04-19T09:55:26.963Z</time></trkpt><trkpt lat="41.3484133" lon="0.6683917"><ele>528.4</ele><time>2026-04-19T09:55:27.962Z</time></trkpt><trkpt lat="41.34846" lon="0.66849"><ele>532.0</ele><time>2026-04-19T09:55:28.962Z</time></trkpt><trkpt lat="41.3484967" lon="0.6685783"><ele>531.6666666666667</ele><time>2026-04-19T09:55:29.962Z</time></trkpt><trkpt lat="41.348525" lon="0.6687"><ele>531.3333333333334</ele><time>2026-04-19T09:55:31.963Z</time></trkpt><trkpt lat="41.348585" lon="0.6687533"><ele>531.0</ele><time>2026-04-19T09:56:30.963Z</time></trkpt><trkpt lat="41.3486633" lon="0.668805"><ele>530.6666666666666</ele><time>2026-04-19T09:56:32.963Z</time></trkpt><trkpt lat="41.3487533" lon="0.6688817"><ele>530.3333333333333</ele><time>2026-04-19T09:56:34.963Z</time></trkpt><trkpt lat="41.348815" lon="0.6689367"><ele>530.0</ele><time>2026-04-19T09:56:35.963Z</time></trkpt><trkpt lat="41.34889" lon="0.6689983"><ele>530.8</ele><time>2026-04-19T09:56:36.962Z</time></trkpt><trkpt lat="41.34898" lon="0.66906"><ele>531.6</ele><time>2026-04-19T09:56:37.963Z</time></trkpt><trkpt lat="41.3490783" lon="0.6691233"><ele>532.4</ele><time>2026-04-19T09:56:38.962Z</time></trkpt><trkpt lat="41.3491817" lon="0.669195"><ele>533.2</ele><time>2026-04-19T09:56:39.963Z</time></trkpt><trkpt lat="41.3492917" lon="0.6692617"><ele>534.0</ele><time>2026-04-19T09:56:40.963Z</time></trkpt><trkpt lat="41.3494183" lon="0.669315"><ele>534.0</ele><time>2026-04-19T09:56:41.962Z</time></trkpt><trkpt lat="41.3495567" lon="0.6693517"><ele>534.0</ele><time>2026-04-19T09:56:42.962Z</time></trkpt><trkpt lat="41.3496983" lon="0.6693833"><ele>534.0</ele><time>2026-04-19T09:56:43.963Z</time></trkpt><trkpt lat="41.3498117" lon="0.669425"><ele>534.0</ele><time>2026-04-19T09:56:44.962Z</time></trkpt><trkpt lat="41.3499317" lon="0.6694533"><ele>534.4</ele><time>2026-04-19T09:56:45.963Z</time></trkpt><trkpt lat="41.350035" lon="0.66948"><ele>534.8</ele><time>2026-04-19T09:56:46.962Z</time></trkpt><trkpt lat="41.3501233" lon="0.6695"><ele>535.2</ele><time>2026-04-19T09:56:47.963Z</time></trkpt><trkpt lat="41.350215" lon="0.66953"><ele>535.6</ele><time>2026-04-19T09:56:49.963Z</time></trkpt><trkpt lat="41.35034" lon="0.669555"><ele>536.0</ele><time>2026-04-19T09:57:30.962Z</time></trkpt><trkpt lat="41.3504383" lon="0.6695883"><ele>536.0</ele><time>2026-04-19T09:57:32.962Z</time></trkpt><trkpt lat="41.3505183" lon="0.6696067"><ele>536.0</ele><time>2026-04-19T09:57:33.963Z</time></trkpt><trkpt lat="41.3506083" lon="0.6696383"><ele>536.0</ele><time>2026-04-19T09:57:34.963Z</time></trkpt><trkpt lat="41.3506917" lon="0.66968"><ele>536.0</ele><time>2026-04-19T09:57:35.963Z</time></trkpt><trkpt lat="41.3507717" lon="0.66971"><ele>536.0</ele><time>2026-04-19T09:57:36.963Z</time></trkpt><trkpt lat="41.3508583" lon="0.6697383"><ele>536.0</ele><time>2026-04-19T09:57:37.963Z</time></trkpt><trkpt lat="41.3509433" lon="0.6697733"><ele>535.8</ele><time>2026-04-19T09:57:38.963Z</time></trkpt><trkpt lat="41.3510317" lon="0.6698017"><ele>535.6</ele><time>2026-04-19T09:57:39.963Z</time></trkpt><trkpt lat="41.3511267" lon="0.6698417"><ele>535.4</ele><time>2026-04-19T09:57:40.963Z</time></trkpt><trkpt lat="41.3512183" lon="0.669865"><ele>535.2</ele><time>2026-04-19T09:57:41.962Z</time></trkpt><trkpt lat="41.3513133" lon="0.6698883"><ele>535.0</ele><time>2026-04-19T09:57:42.962Z</time></trkpt><trkpt lat="41.35141" lon="0.6699067"><ele>534.6</ele><time>2026-04-19T09:57:43.963Z</time></trkpt><trkpt lat="41.3515133" lon="0.669905"><ele>534.2</ele><time>2026-04-19T09:57:44.963Z</time></trkpt><trkpt lat="41.351615" lon="0.66989"><ele>533.8</ele><time>2026-04-19T09:57:45.963Z</time></trkpt><trkpt lat="41.3517117" lon="0.6698567"><ele>533.4</ele><time>2026-04-19T09:57:46.963Z</time></trkpt><trkpt lat="41.3518083" lon="0.6698083"><ele>533.0</ele><time>2026-04-19T09:57:47.962Z</time></trkpt><trkpt lat="41.3519067" lon="0.6697467"><ele>533.0</ele><time>2026-04-19T09:57:48.963Z</time></trkpt><trkpt lat="41.3520117" lon="0.6696917"><ele>533.0</ele><time>2026-04-19T09:57:49.962Z</time></trkpt><trkpt lat="41.3521033" lon="0.6696417"><ele>533.0</ele><time>2026-04-19T09:57:50.963Z</time></trkpt><trkpt lat="41.3521917" lon="0.669595"><ele>533.0</ele><time>2026-04-19T09:57:51.963Z</time></trkpt><trkpt lat="41.3522833" lon="0.66955"><ele>533.0</ele><time>2026-04-19T09:57:52.963Z</time></trkpt><trkpt lat="41.352365" lon="0.6695067"><ele>532.7142857142857</ele><time>2026-04-19T09:57:53.962Z</time></trkpt><trkpt lat="41.3524417" lon="0.6694667"><ele>532.4285714285713</ele><time>2026-04-19T09:57:54.962Z</time></trkpt><trkpt lat="41.3525083" lon="0.6694333"><ele>532.1428571428571</ele><time>2026-04-19T09:57:55.962Z</time></trkpt><trkpt lat="41.35257" lon="0.669405"><ele>531.8571428571429</ele><time>2026-04-19T09:57:56.962Z</time></trkpt><trkpt lat="41.3526567" lon="0.669375"><ele>531.5714285714287</ele><time>2026-04-19T09:57:58.962Z</time></trkpt><trkpt lat="41.3527217" lon="0.6693583"><ele>531.2857142857143</ele><time>2026-04-19T09:58:00.962Z</time></trkpt><trkpt lat="41.352785" lon="0.669355"><ele>531.0</ele><time>2026-04-19T09:58:02.963Z</time></trkpt><trkpt lat="41.352885" lon="0.6693133"><ele>530.8333333333334</ele><time>2026-04-19T09:58:04.963Z</time></trkpt><trkpt lat="41.3529833" lon="0.6692233"><ele>530.6666666666666</ele><time>2026-04-19T09:58:06.962Z</time></trkpt><trkpt lat="41.353045" lon="0.6691633"><ele>530.5</ele><time>2026-04-19T09:58:07.963Z</time></trkpt><trkpt lat="41.3531133" lon="0.669115"><ele>530.3333333333333</ele><time>2026-04-19T09:58:08.963Z</time></trkpt><trkpt lat="41.3531767" lon="0.6690917"><ele>530.1666666666666</ele><time>2026-04-19T09:58:09.963Z</time></trkpt><trkpt lat="41.3532367" lon="0.6690633"><ele>530.0</ele><time>2026-04-19T09:58:10.962Z</time></trkpt><trkpt lat="41.3533167" lon="0.6690267"><ele>529.25</ele><time>2026-04-19T09:58:11.963Z</time></trkpt><trkpt lat="41.3534167" lon="0.66898"><ele>528.5</ele><time>2026-04-19T09:58:12.963Z</time></trkpt><trkpt lat="41.3535333" lon="0.668925"><ele>527.75</ele><time>2026-04-19T09:58:13.963Z</time></trkpt><trkpt lat="41.3536633" lon="0.6688667"><ele>527.0</ele><time>2026-04-19T09:58:14.962Z</time></trkpt><trkpt lat="41.3538117" lon="0.6687967"><ele>526.3333333333333</ele><time>2026-04-19T09:58:15.962Z</time></trkpt><trkpt lat="41.3539717" lon="0.6687167"><ele>525.6666666666666</ele><time>2026-04-19T09:58:16.963Z</time></trkpt><trkpt lat="41.3541367" lon="0.6686167"><ele>525.0</ele><time>2026-04-19T09:58:17.962Z</time></trkpt><trkpt lat="41.3542917" lon="0.668515"><ele>525.0</ele><time>2026-04-19T09:58:18.962Z</time></trkpt><trkpt lat="41.3544467" lon="0.6684333"><ele>525.0</ele><time>2026-04-19T09:58:19.962Z</time></trkpt><trkpt lat="41.3546" lon="0.668365"><ele>525.0</ele><time>2026-04-19T09:58:20.963Z</time></trkpt><trkpt lat="41.354735" lon="0.66829"><ele>523.75</ele><time>2026-04-19T09:58:21.963Z</time></trkpt><trkpt lat="41.3548767" lon="0.6682117"><ele>522.5</ele><time>2026-04-19T09:58:22.963Z</time></trkpt><trkpt lat="41.354995" lon="0.6681267"><ele>521.25</ele><time>2026-04-19T09:58:23.962Z</time></trkpt><trkpt lat="41.35513" lon="0.6680317"><ele>520.0</ele><time>2026-04-19T09:58:24.962Z</time></trkpt><trkpt lat="41.3552767" lon="0.6679067"><ele>520.3333333333334</ele><time>2026-04-19T09:58:25.963Z</time></trkpt><trkpt lat="41.3554017" lon="0.6677583"><ele>520.6666666666666</ele><time>2026-04-19T09:58:26.962Z</time></trkpt><trkpt lat="41.3555133" lon="0.667605"><ele>521.0</ele><time>2026-04-19T09:58:27.963Z</time></trkpt><trkpt lat="41.3556267" lon="0.667445"><ele>521.0</ele><time>2026-04-19T09:58:28.963Z</time></trkpt><trkpt lat="41.35573" lon="0.6672933"><ele>521.0</ele><time>2026-04-19T09:58:29.963Z</time></trkpt><trkpt lat="41.35583" lon="0.6671467"><ele>521.0</ele><time>2026-04-19T09:58:30.963Z</time></trkpt><trkpt lat="41.3559217" lon="0.666995"><ele>521.0</ele><time>2026-04-19T09:58:31.963Z</time></trkpt><trkpt lat="41.3560133" lon="0.66685"><ele>522.5</ele><time>2026-04-19T09:58:32.963Z</time></trkpt><trkpt lat="41.3561133" lon="0.6667183"><ele>524.0</ele><time>2026-04-19T09:58:33.962Z</time></trkpt><trkpt lat="41.3562033" lon="0.66659"><ele>525.5</ele><time>2026-04-19T09:58:34.963Z</time></trkpt><trkpt lat="41.3563017" lon="0.6664583"><ele>527.0</ele><time>2026-04-19T09:58:35.962Z</time></trkpt><trkpt lat="41.3564" lon="0.6663267"><ele>525.25</ele><time>2026-04-19T09:58:36.963Z</time></trkpt><trkpt lat="41.3565" lon="0.66621"><ele>523.5</ele><time>2026-04-19T09:58:37.963Z</time></trkpt><trkpt lat="41.3565983" lon="0.6660867"><ele>521.75</ele><time>2026-04-19T09:58:38.962Z</time></trkpt><trkpt lat="41.35669" lon="0.6659533"><ele>520.0</ele><time>2026-04-19T09:58:39.962Z</time></trkpt><trkpt lat="41.35679" lon="0.6658367"><ele>520.0</ele><time>2026-04-19T09:58:40.962Z</time></trkpt><trkpt lat="41.3568983" lon="0.6657233"><ele>520.0</ele><time>2026-04-19T09:58:41.963Z</time></trkpt><trkpt lat="41.3570283" lon="0.665635"><ele>520.0</ele><time>2026-04-19T09:58:42.962Z</time></trkpt><trkpt lat="41.3571633" lon="0.66557"><ele>520.0</ele><time>2026-04-19T09:58:43.962Z</time></trkpt><trkpt lat="41.3572983" lon="0.665515"><ele>518.5</ele><time>2026-04-19T09:58:44.963Z</time></trkpt><trkpt lat="41.35743" lon="0.665475"><ele>517.0</ele><time>2026-04-19T09:58:45.962Z</time></trkpt><trkpt lat="41.35756" lon="0.6654333"><ele>515.5</ele><time>2026-04-19T09:58:46.963Z</time></trkpt><trkpt lat="41.3576867" lon="0.6653967"><ele>514.0</ele><time>2026-04-19T09:58:47.962Z</time></trkpt><trkpt lat="41.3577983" lon="0.6653583"><ele>514.0</ele><time>2026-04-19T09:58:48.963Z</time></trkpt><trkpt lat="41.3579" lon="0.6653067"><ele>514.0</ele><time>2026-04-19T09:58:49.962Z</time></trkpt><trkpt lat="41.35799" lon="0.665245"><ele>514.0</ele><time>2026-04-19T09:58:50.963Z</time></trkpt><trkpt lat="41.3580767" lon="0.66517"><ele>514.0</ele><time>2026-04-19T09:58:51.962Z</time></trkpt><trkpt lat="41.3581517" lon="0.665085"><ele>514.0</ele><time>2026-04-19T09:58:52.963Z</time></trkpt><trkpt lat="41.3582033" lon="0.6649983"><ele>513.8</ele><time>2026-04-19T09:58:53.962Z</time></trkpt><trkpt lat="41.358255" lon="0.6648933"><ele>513.5999999999999</ele><time>2026-04-19T09:58:54.963Z</time></trkpt><trkpt lat="41.3582933" lon="0.6647767"><ele>513.4</ele><time>2026-04-19T09:58:55.963Z</time></trkpt><trkpt lat="41.3583433" lon="0.66466"><ele>513.1999999999999</ele><time>2026-04-19T09:58:56.963Z</time></trkpt><trkpt lat="41.35841" lon="0.6645333"><ele>513.0</ele><time>2026-04-19T09:58:57.963Z</time></trkpt><trkpt lat="41.3584917" lon="0.6644283"><ele>514.0</ele><time>2026-04-19T09:58:58.962Z</time></trkpt><trkpt lat="41.3585767" lon="0.6643183"><ele>515.0</ele><time>2026-04-19T09:58:59.962Z</time></trkpt><trkpt lat="41.3586683" lon="0.6641933"><ele>516.0</ele><time>2026-04-19T09:59:00.963Z</time></trkpt><trkpt lat="41.3587567" lon="0.6640667"><ele>517.0</ele><time>2026-04-19T09:59:01.963Z</time></trkpt><trkpt lat="41.35885" lon="0.663945"><ele>514.75</ele><time>2026-04-19T09:59:02.962Z</time></trkpt><trkpt lat="41.3589467" lon="0.6638283"><ele>512.5</ele><time>2026-04-19T09:59:03.962Z</time></trkpt><trkpt lat="41.3590383" lon="0.6637183"><ele>510.25</ele><time>2026-04-19T09:59:04.962Z</time></trkpt><trkpt lat="41.35913" lon="0.6636133"><ele>508.0</ele><time>2026-04-19T09:59:05.963Z</time></trkpt><trkpt lat="41.3592233" lon="0.663525"><ele>508.0</ele><time>2026-04-19T09:59:06.962Z</time></trkpt><trkpt lat="41.359315" lon="0.663435"><ele>508.0</ele><time>2026-04-19T09:59:07.962Z</time></trkpt><trkpt lat="41.3594083" lon="0.663325"><ele>508.0</ele><time>2026-04-19T09:59:08.962Z</time></trkpt><trkpt lat="41.3595133" lon="0.6632067"><ele>508.0</ele><time>2026-04-19T09:59:09.962Z</time></trkpt><trkpt lat="41.3596417" lon="0.6631133"><ele>505.75</ele><time>2026-04-19T09:59:10.963Z</time></trkpt><trkpt lat="41.359775" lon="0.66303"><ele>503.5</ele><time>2026-04-19T09:59:11.962Z</time></trkpt><trkpt lat="41.3599117" lon="0.6629617"><ele>501.25</ele><time>2026-04-19T09:59:12.962Z</time></trkpt><trkpt lat="41.360045" lon="0.6629067"><ele>499.0</ele><time>2026-04-19T09:59:13.963Z</time></trkpt><trkpt lat="41.3601817" lon="0.66282"><ele>499.6666666666667</ele><time>2026-04-19T09:59:14.962Z</time></trkpt><trkpt lat="41.3603217" lon="0.6627333"><ele>500.33333333333337</ele><time>2026-04-19T09:59:15.962Z</time></trkpt><trkpt lat="41.3604567" lon="0.662655"><ele>501.0</ele><time>2026-04-19T09:59:16.963Z</time></trkpt><trkpt lat="41.3605983" lon="0.662575"><ele>499.75</ele><time>2026-04-19T09:59:17.963Z</time></trkpt><trkpt lat="41.3607417" lon="0.662495"><ele>498.5</ele><time>2026-04-19T09:59:18.963Z</time></trkpt><trkpt lat="41.3608717" lon="0.6624367"><ele>497.25</ele><time>2026-04-19T09:59:19.963Z</time></trkpt><trkpt lat="41.361" lon="0.662345"><ele>496.0</ele><time>2026-04-19T09:59:20.962Z</time></trkpt><trkpt lat="41.3611133" lon="0.662285"><ele>496.0</ele><time>2026-04-19T09:59:21.962Z</time></trkpt><trkpt lat="41.3612233" lon="0.66221"><ele>496.0</ele><time>2026-04-19T09:59:22.962Z</time></trkpt><trkpt lat="41.361325" lon="0.6621133"><ele>496.0</ele><time>2026-04-19T09:59:23.963Z</time></trkpt><trkpt lat="41.361445" lon="0.66205"><ele>496.0</ele><time>2026-04-19T09:59:24.962Z</time></trkpt><trkpt lat="41.36158" lon="0.662025"><ele>494.6</ele><time>2026-04-19T09:59:25.962Z</time></trkpt><trkpt lat="41.3617067" lon="0.662015"><ele>493.20000000000005</ele><time>2026-04-19T09:59:26.963Z</time></trkpt><trkpt lat="41.3618233" lon="0.6620067"><ele>491.79999999999995</ele><time>2026-04-19T09:59:27.962Z</time></trkpt><trkpt lat="41.3619233" lon="0.662035"><ele>490.4</ele><time>2026-04-19T09:59:28.962Z</time></trkpt><trkpt lat="41.3620033" lon="0.6620917"><ele>489.0</ele><time>2026-04-19T09:59:29.963Z</time></trkpt><trkpt lat="41.3620817" lon="0.66216"><ele>489.0</ele><time>2026-04-19T09:59:30.962Z</time></trkpt><trkpt lat="41.3621417" lon="0.6622383"><ele>489.0</ele><time>2026-04-19T09:59:31.962Z</time></trkpt><trkpt lat="41.3621833" lon="0.6623417"><ele>489.0</ele><time>2026-04-19T09:59:32.963Z</time></trkpt><trkpt lat="41.3622133" lon="0.6624667"><ele>489.0</ele><time>2026-04-19T09:59:33.963Z</time></trkpt><trkpt lat="41.3622483" lon="0.662595"><ele>489.0</ele><time>2026-04-19T09:59:34.962Z</time></trkpt><trkpt lat="41.3622883" lon="0.6627217"><ele>490.2</ele><time>2026-04-19T09:59:35.963Z</time></trkpt><trkpt lat="41.36233" lon="0.6628417"><ele>491.4</ele><time>2026-04-19T09:59:36.962Z</time></trkpt><trkpt lat="41.3623717" lon="0.6629567"><ele>492.6</ele><time>2026-04-19T09:59:37.962Z</time></trkpt><trkpt lat="41.3624117" lon="0.6630817"><ele>493.8</ele><time>2026-04-19T09:59:38.962Z</time></trkpt><trkpt lat="41.3624567" lon="0.6632117"><ele>495.0</ele><time>2026-04-19T09:59:39.963Z</time></trkpt><trkpt lat="41.3624933" lon="0.6633483"><ele>495.0</ele><time>2026-04-19T09:59:40.962Z</time></trkpt><trkpt lat="41.3625283" lon="0.6634833"><ele>495.0</ele><time>2026-04-19T09:59:41.963Z</time></trkpt><trkpt lat="41.3625683" lon="0.66362"><ele>495.0</ele><time>2026-04-19T09:59:42.962Z</time></trkpt><trkpt lat="41.3626083" lon="0.6637517"><ele>495.0</ele><time>2026-04-19T09:59:43.962Z</time></trkpt><trkpt lat="41.3626367" lon="0.6638833"><ele>495.0</ele><time>2026-04-19T09:59:44.962Z</time></trkpt><trkpt lat="41.3626667" lon="0.664015"><ele>495.8</ele><time>2026-04-19T09:59:45.962Z</time></trkpt><trkpt lat="41.3626933" lon="0.664145"><ele>496.6</ele><time>2026-04-19T09:59:46.962Z</time></trkpt><trkpt lat="41.3627017" lon="0.6642833"><ele>497.4</ele><time>2026-04-19T09:59:47.962Z</time></trkpt><trkpt lat="41.3627" lon="0.6644367"><ele>498.2</ele><time>2026-04-19T09:59:48.963Z</time></trkpt><trkpt lat="41.3626883" lon="0.6645883"><ele>499.0</ele><time>2026-04-19T09:59:49.962Z</time></trkpt><trkpt lat="41.3626817" lon="0.6647417"><ele>500.0</ele><time>2026-04-19T09:59:50.962Z</time></trkpt><trkpt lat="41.36267" lon="0.664895"><ele>501.0</ele><time>2026-04-19T09:59:51.963Z</time></trkpt><trkpt lat="41.3626617" lon="0.6650517"><ele>502.0</ele><time>2026-04-19T09:59:52.963Z</time></trkpt><trkpt lat="41.362645" lon="0.6651983"><ele>503.0</ele><time>2026-04-19T09:59:53.963Z</time></trkpt><trkpt lat="41.36263" lon="0.6653517"><ele>504.25</ele><time>2026-04-19T09:59:54.963Z</time></trkpt><trkpt lat="41.3626117" lon="0.6655067"><ele>505.5</ele><time>2026-04-19T09:59:55.963Z</time></trkpt><trkpt lat="41.3625933" lon="0.665665"><ele>506.75</ele><time>2026-04-19T09:59:56.962Z</time></trkpt><trkpt lat="41.362575" lon="0.6658167"><ele>508.0</ele><time>2026-04-19T09:59:57.962Z</time></trkpt><trkpt lat="41.3625583" lon="0.665965"><ele>508.75</ele><time>2026-04-19T09:59:58.963Z</time></trkpt><trkpt lat="41.3625383" lon="0.6661217"><ele>509.5</ele><time>2026-04-19T09:59:59.962Z</time></trkpt><trkpt lat="41.3625167" lon="0.6662767"><ele>510.25</ele><time>2026-04-19T10:00:00.962Z</time></trkpt><trkpt lat="41.3625" lon="0.6664283"><ele>511.0</ele><time>2026-04-19T10:00:01.963Z</time></trkpt><trkpt lat="41.3624817" lon="0.6665683"><ele>511.0</ele><time>2026-04-19T10:00:02.962Z</time></trkpt><trkpt lat="41.362465" lon="0.6667233"><ele>511.0</ele><time>2026-04-19T10:00:03.963Z</time></trkpt><trkpt lat="41.36245" lon="0.66688"><ele>511.0</ele><time>2026-04-19T10:00:04.962Z</time></trkpt><trkpt lat="41.36243" lon="0.667035"><ele>511.0</ele><time>2026-04-19T10:00:05.963Z</time></trkpt><trkpt lat="41.3624083" lon="0.6671867"><ele>511.4</ele><time>2026-04-19T10:00:06.963Z</time></trkpt><trkpt lat="41.36239" lon="0.66733"><ele>511.8</ele><time>2026-04-19T10:00:07.962Z</time></trkpt><trkpt lat="41.3623733" lon="0.6674717"><ele>512.1999999999999</ele><time>2026-04-19T10:00:08.963Z</time></trkpt><trkpt lat="41.36235" lon="0.667615"><ele>512.6</ele><time>2026-04-19T10:00:09.963Z</time></trkpt><trkpt lat="41.3623317" lon="0.6677533"><ele>513.0</ele><time>2026-04-19T10:00:10.963Z</time></trkpt><trkpt lat="41.362315" lon="0.6678917"><ele>513.1999999999999</ele><time>2026-04-19T10:00:11.962Z</time></trkpt><trkpt lat="41.3622883" lon="0.6680267"><ele>513.4</ele><time>2026-04-19T10:00:12.963Z</time></trkpt><trkpt lat="41.3622533" lon="0.6681467"><ele>513.5999999999999</ele><time>2026-04-19T10:00:13.963Z</time></trkpt><trkpt lat="41.3622117" lon="0.668255"><ele>513.8</ele><time>2026-04-19T10:00:14.962Z</time></trkpt><trkpt lat="41.36217" lon="0.668355"><ele>514.0</ele><time>2026-04-19T10:00:15.963Z</time></trkpt><trkpt lat="41.3621433" lon="0.668455"><ele>514.0</ele><time>2026-04-19T10:00:16.963Z</time></trkpt><trkpt lat="41.362135" lon="0.6685667"><ele>514.0</ele><time>2026-04-19T10:00:17.963Z</time></trkpt><trkpt lat="41.36215" lon="0.6686817"><ele>514.0</ele><time>2026-04-19T10:00:18.963Z</time></trkpt><trkpt lat="41.36217" lon="0.6687967"><ele>514.0</ele><time>2026-04-19T10:00:19.963Z</time></trkpt><trkpt lat="41.3621967" lon="0.6688933"><ele>514.0</ele><time>2026-04-19T10:00:20.962Z</time></trkpt><trkpt lat="41.362235" lon="0.6689917"><ele>514.0</ele><time>2026-04-19T10:00:21.963Z</time></trkpt><trkpt lat="41.362275" lon="0.6690933"><ele>515.3333333333334</ele><time>2026-04-19T10:00:22.963Z</time></trkpt><trkpt lat="41.3623083" lon="0.669195"><ele>516.6666666666667</ele><time>2026-04-19T10:00:23.962Z</time></trkpt><trkpt lat="41.3623417" lon="0.6692967"><ele>518.0</ele><time>2026-04-19T10:00:24.963Z</time></trkpt><trkpt lat="41.36238" lon="0.6694067"><ele>519.3333333333334</ele><time>2026-04-19T10:00:25.963Z</time></trkpt><trkpt lat="41.3624067" lon="0.6695067"><ele>520.6666666666666</ele><time>2026-04-19T10:00:26.963Z</time></trkpt><trkpt lat="41.3624567" lon="0.6696083"><ele>522.0</ele><time>2026-04-19T10:00:27.962Z</time></trkpt><trkpt lat="41.3625167" lon="0.6697017"><ele>522.8000000000001</ele><time>2026-04-19T10:00:28.962Z</time></trkpt><trkpt lat="41.36258" lon="0.66978"><ele>523.6</ele><time>2026-04-19T10:00:29.962Z</time></trkpt><trkpt lat="41.3626617" lon="0.6698583"><ele>524.4000000000001</ele><time>2026-04-19T10:00:30.962Z</time></trkpt><trkpt lat="41.3627467" lon="0.669935"><ele>525.2</ele><time>2026-04-19T10:00:31.963Z</time></trkpt><trkpt lat="41.3628383" lon="0.67"><ele>526.0</ele><time>2026-04-19T10:00:32.962Z</time></trkpt><trkpt lat="41.3629283" lon="0.6700567"><ele>526.0</ele><time>2026-04-19T10:00:33.963Z</time></trkpt><trkpt lat="41.3630183" lon="0.6700967"><ele>526.0</ele><time>2026-04-19T10:00:34.962Z</time></trkpt><trkpt lat="41.3631217" lon="0.670125"><ele>526.0</ele><time>2026-04-19T10:00:35.963Z</time></trkpt><trkpt lat="41.3632233" lon="0.670145"><ele>526.0</ele><time>2026-04-19T10:00:36.963Z</time></trkpt><trkpt lat="41.363325" lon="0.6701567"><ele>526.0</ele><time>2026-04-19T10:00:37.963Z</time></trkpt><trkpt lat="41.3634167" lon="0.67018"><ele>526.5</ele><time>2026-04-19T10:00:38.962Z</time></trkpt><trkpt lat="41.3635067" lon="0.6701883"><ele>527.0</ele><time>2026-04-19T10:00:39.963Z</time></trkpt><trkpt lat="41.3635817" lon="0.6702033"><ele>527.5</ele><time>2026-04-19T10:00:40.962Z</time></trkpt><trkpt lat="41.363665" lon="0.6702133"><ele>528.0</ele><time>2026-04-19T10:00:41.963Z</time></trkpt><trkpt lat="41.3637483" lon="0.67023"><ele>528.5</ele><time>2026-04-19T10:00:42.963Z</time></trkpt><trkpt lat="41.3638367" lon="0.670245"><ele>529.0</ele><time>2026-04-19T10:00:43.962Z</time></trkpt><trkpt lat="41.3639183" lon="0.6702583"><ele>529.1666666666667</ele><time>2026-04-19T10:00:44.962Z</time></trkpt><trkpt lat="41.3640033" lon="0.6702733"><ele>529.3333333333334</ele><time>2026-04-19T10:00:45.963Z</time></trkpt><trkpt lat="41.36409" lon="0.6702833"><ele>529.5</ele><time>2026-04-19T10:00:46.963Z</time></trkpt><trkpt lat="41.364175" lon="0.6702867"><ele>529.6666666666666</ele><time>2026-04-19T10:00:47.962Z</time></trkpt><trkpt lat="41.3642667" lon="0.67026"><ele>529.8333333333333</ele><time>2026-04-19T10:00:48.963Z</time></trkpt><trkpt lat="41.3643583" lon="0.6702183"><ele>530.0</ele><time>2026-04-19T10:00:49.962Z</time></trkpt><trkpt lat="41.36445" lon="0.6701517"><ele>530.0</ele><time>2026-04-19T10:00:50.963Z</time></trkpt><trkpt lat="41.3645433" lon="0.67007"><ele>530.0</ele><time>2026-04-19T10:00:51.963Z</time></trkpt><trkpt lat="41.3646367" lon="0.6699733"><ele>530.0</ele><time>2026-04-19T10:00:52.962Z</time></trkpt><trkpt lat="41.3647333" lon="0.6698633"><ele>530.0</ele><time>2026-04-19T10:00:53.962Z</time></trkpt><trkpt lat="41.3648267" lon="0.6697517"><ele>531.75</ele><time>2026-04-19T10:00:54.962Z</time></trkpt><trkpt lat="41.3649267" lon="0.6696533"><ele>533.5</ele><time>2026-04-19T10:00:55.963Z</time></trkpt><trkpt lat="41.3650217" lon="0.66955"><ele>535.25</ele><time>2026-04-19T10:00:56.963Z</time></trkpt><trkpt lat="41.36512" lon="0.6694633"><ele>537.0</ele><time>2026-04-19T10:00:57.962Z</time></trkpt><trkpt lat="41.3652167" lon="0.6693767"><ele>537.0</ele><time>2026-04-19T10:00:58.963Z</time></trkpt><trkpt lat="41.3653133" lon="0.6693033"><ele>537.0</ele><time>2026-04-19T10:00:59.962Z</time></trkpt><trkpt lat="41.365415" lon="0.6692183"><ele>537.0</ele><time>2026-04-19T10:01:00.963Z</time></trkpt><trkpt lat="41.3655117" lon="0.669135"><ele>537.0</ele><time>2026-04-19T10:01:01.962Z</time></trkpt><trkpt lat="41.365605" lon="0.6690383"><ele>533.0</ele><time>2026-04-19T10:01:02.962Z</time></trkpt><trkpt lat="41.365705" lon="0.6689267"><ele>529.0</ele><time>2026-04-19T10:01:03.963Z</time></trkpt><trkpt lat="41.3657867" lon="0.6688133"><ele>525.0</ele><time>2026-04-19T10:01:04.963Z</time></trkpt><trkpt lat="41.3658867" lon="0.668735"><ele>521.0</ele><time>2026-04-19T10:01:05.962Z</time></trkpt><trkpt lat="41.3660033" lon="0.668675"><ele>521.0</ele><time>2026-04-19T10:01:06.963Z</time></trkpt><trkpt lat="41.3661417" lon="0.6686183"><ele>521.0</ele><time>2026-04-19T10:01:07.962Z</time></trkpt><trkpt lat="41.3662683" lon="0.668555"><ele>521.0</ele><time>2026-04-19T10:01:08.963Z</time></trkpt><trkpt lat="41.366385" lon="0.668485"><ele>521.0</ele><time>2026-04-19T10:01:09.962Z</time></trkpt><trkpt lat="41.3665017" lon="0.6684017"><ele>521.2</ele><time>2026-04-19T10:01:10.962Z</time></trkpt><trkpt lat="41.3666017" lon="0.66832"><ele>521.4000000000001</ele><time>2026-04-19T10:01:11.963Z</time></trkpt><trkpt lat="41.3666883" lon="0.6682367"><ele>521.6</ele><time>2026-04-19T10:01:12.962Z</time></trkpt><trkpt lat="41.3667717" lon="0.66815"><ele>521.8000000000001</ele><time>2026-04-19T10:01:13.963Z</time></trkpt><trkpt lat="41.366845" lon="0.6680467"><ele>522.0</ele><time>2026-04-19T10:01:14.963Z</time></trkpt><trkpt lat="41.36691" lon="0.6679283"><ele>522.0</ele><time>2026-04-19T10:01:15.962Z</time></trkpt><trkpt lat="41.366965" lon="0.66778"><ele>522.0</ele><time>2026-04-19T10:01:16.962Z</time></trkpt><trkpt lat="41.3670133" lon="0.66762"><ele>522.0</ele><time>2026-04-19T10:01:17.963Z</time></trkpt><trkpt lat="41.3670833" lon="0.66746"><ele>522.0</ele><time>2026-04-19T10:01:18.962Z</time></trkpt><trkpt lat="41.367165" lon="0.66731"><ele>523.3333333333334</ele><time>2026-04-19T10:01:19.963Z</time></trkpt><trkpt lat="41.36727" lon="0.667155"><ele>524.6666666666667</ele><time>2026-04-19T10:01:20.963Z</time></trkpt><trkpt lat="41.3673917" lon="0.6670133"><ele>526.0</ele><time>2026-04-19T10:01:21.963Z</time></trkpt><trkpt lat="41.3675167" lon="0.6668983"><ele>526.0</ele><time>2026-04-19T10:01:22.963Z</time></trkpt><trkpt lat="41.3676467" lon="0.6667883"><ele>526.0</ele><time>2026-04-19T10:01:23.963Z</time></trkpt><trkpt lat="41.3677617" lon="0.6666717"><ele>526.0</ele><time>2026-04-19T10:01:24.963Z</time></trkpt><trkpt lat="41.3678617" lon="0.6665433"><ele>526.0</ele><time>2026-04-19T10:01:25.962Z</time></trkpt><trkpt lat="41.3679367" lon="0.6663967"><ele>526.0</ele><time>2026-04-19T10:01:26.962Z</time></trkpt><trkpt lat="41.3679967" lon="0.6662533"><ele>526.0</ele><time>2026-04-19T10:01:27.963Z</time></trkpt><trkpt lat="41.3680433" lon="0.6660783"><ele>526.0</ele><time>2026-04-19T10:01:28.962Z</time></trkpt><trkpt lat="41.3680967" lon="0.6658983"><ele>526.0</ele><time>2026-04-19T10:01:29.962Z</time></trkpt><trkpt lat="41.3681467" lon="0.6657217"><ele>523.75</ele><time>2026-04-19T10:01:30.962Z</time></trkpt><trkpt lat="41.3682" lon="0.6655517"><ele>521.5</ele><time>2026-04-19T10:01:31.962Z</time></trkpt><trkpt lat="41.3682833" lon="0.6653933"><ele>519.25</ele><time>2026-04-19T10:01:32.962Z</time></trkpt><trkpt lat="41.3683733" lon="0.6652267"><ele>517.0</ele><time>2026-04-19T10:01:33.963Z</time></trkpt><trkpt lat="41.3684717" lon="0.6650817"><ele>517.0</ele><time>2026-04-19T10:01:34.963Z</time></trkpt><trkpt lat="41.3685817" lon="0.664935"><ele>517.0</ele><time>2026-04-19T10:01:35.963Z</time></trkpt><trkpt lat="41.3686883" lon="0.6648167"><ele>517.0</ele><time>2026-04-19T10:01:36.963Z</time></trkpt><trkpt lat="41.3687967" lon="0.664695"><ele>517.0</ele><time>2026-04-19T10:01:37.962Z</time></trkpt><trkpt lat="41.368895" lon="0.66457"><ele>516.75</ele><time>2026-04-19T10:01:38.963Z</time></trkpt><trkpt lat="41.36901" lon="0.66448"><ele>516.5</ele><time>2026-04-19T10:01:39.962Z</time></trkpt><trkpt lat="41.3691383" lon="0.664415"><ele>516.25</ele><time>2026-04-19T10:01:40.963Z</time></trkpt><trkpt lat="41.36927" lon="0.66442"><ele>516.0</ele><time>2026-04-19T10:01:41.963Z</time></trkpt><trkpt lat="41.3694" lon="0.664465"><ele>514.8</ele><time>2026-04-19T10:01:42.963Z</time></trkpt><trkpt lat="41.3695183" lon="0.6645233"><ele>513.6</ele><time>2026-04-19T10:01:43.963Z</time></trkpt><trkpt lat="41.369625" lon="0.6645533"><ele>512.4</ele><time>2026-04-19T10:01:44.962Z</time></trkpt><trkpt lat="41.369735" lon="0.6645317"><ele>511.2</ele><time>2026-04-19T10:01:45.963Z</time></trkpt><trkpt lat="41.3698283" lon="0.6644817"><ele>510.0</ele><time>2026-04-19T10:01:46.962Z</time></trkpt><trkpt lat="41.369915" lon="0.664425"><ele>510.0</ele><time>2026-04-19T10:01:47.963Z</time></trkpt><trkpt lat="41.3700217" lon="0.6644017"><ele>510.0</ele><time>2026-04-19T10:01:48.962Z</time></trkpt><trkpt lat="41.3701283" lon="0.664425"><ele>510.0</ele><time>2026-04-19T10:01:49.963Z</time></trkpt><trkpt lat="41.3702467" lon="0.6644633"><ele>510.0</ele><time>2026-04-19T10:01:50.962Z</time></trkpt><trkpt lat="41.3703683" lon="0.6645083"><ele>507.6</ele><time>2026-04-19T10:01:51.963Z</time></trkpt><trkpt lat="41.3704817" lon="0.6645517"><ele>505.2</ele><time>2026-04-19T10:01:52.962Z</time></trkpt><trkpt lat="41.3705883" lon="0.66456"><ele>502.79999999999995</ele><time>2026-04-19T10:01:53.962Z</time></trkpt><trkpt lat="41.3706983" lon="0.6645267"><ele>500.4</ele><time>2026-04-19T10:01:54.962Z</time></trkpt><trkpt lat="41.3707917" lon="0.6644767"><ele>498.0</ele><time>2026-04-19T10:01:55.962Z</time></trkpt><trkpt lat="41.3708767" lon="0.6643983"><ele>498.0</ele><time>2026-04-19T10:01:56.962Z</time></trkpt><trkpt lat="41.370945" lon="0.6642967"><ele>497.99999999999994</ele><time>2026-04-19T10:01:57.963Z</time></trkpt><trkpt lat="41.3709867" lon="0.6641633"><ele>497.99999999999994</ele><time>2026-04-19T10:01:58.963Z</time></trkpt><trkpt lat="41.3710033" lon="0.664"><ele>498.0</ele><time>2026-04-19T10:01:59.962Z</time></trkpt><trkpt lat="41.371" lon="0.6638483"><ele>498.0</ele><time>2026-04-19T10:02:00.963Z</time></trkpt><trkpt lat="41.3710133" lon="0.6637067"><ele>499.59999999999997</ele><time>2026-04-19T10:02:01.962Z</time></trkpt><trkpt lat="41.3710483" lon="0.6635667"><ele>501.19999999999993</ele><time>2026-04-19T10:02:02.962Z</time></trkpt><trkpt lat="41.3711133" lon="0.66345"><ele>502.8</ele><time>2026-04-19T10:02:03.962Z</time></trkpt><trkpt lat="41.371185" lon="0.66334"><ele>504.4</ele><time>2026-04-19T10:02:04.962Z</time></trkpt><trkpt lat="41.3712533" lon="0.66322"><ele>506.0</ele><time>2026-04-19T10:02:05.963Z</time></trkpt><trkpt lat="41.37133" lon="0.6630967"><ele>501.75</ele><time>2026-04-19T10:02:06.962Z</time></trkpt><trkpt lat="41.3714133" lon="0.663005"><ele>497.5</ele><time>2026-04-19T10:02:07.963Z</time></trkpt><trkpt lat="41.3715183" lon="0.66295"><ele>493.25</ele><time>2026-04-19T10:02:08.963Z</time></trkpt><trkpt lat="41.3716283" lon="0.6629683"><ele>489.0</ele><time>2026-04-19T10:02:09.963Z</time></trkpt><trkpt lat="41.3717533" lon="0.6630217"><ele>489.0</ele><time>2026-04-19T10:02:10.963Z</time></trkpt><trkpt lat="41.3718733" lon="0.6630983"><ele>489.0</ele><time>2026-04-19T10:02:11.962Z</time></trkpt><trkpt lat="41.372" lon="0.6631567"><ele>489.0</ele><time>2026-04-19T10:02:12.963Z</time></trkpt><trkpt lat="41.37213" lon="0.663185"><ele>489.0</ele><time>2026-04-19T10:02:13.963Z</time></trkpt><trkpt lat="41.37225" lon="0.66319"><ele>487.5</ele><time>2026-04-19T10:02:14.963Z</time></trkpt><trkpt lat="41.3723817" lon="0.6631917"><ele>486.0</ele><time>2026-04-19T10:02:15.962Z</time></trkpt><trkpt lat="41.3724917" lon="0.6631933"><ele>484.5</ele><time>2026-04-19T10:02:16.963Z</time></trkpt><trkpt lat="41.3725917" lon="0.6631567"><ele>483.0</ele><time>2026-04-19T10:02:17.962Z</time></trkpt><trkpt lat="41.37269" lon="0.6630933"><ele>483.0</ele><time>2026-04-19T10:02:18.963Z</time></trkpt><trkpt lat="41.37276" lon="0.6629683"><ele>483.0</ele><time>2026-04-19T10:02:19.962Z</time></trkpt><trkpt lat="41.3728317" lon="0.6628117"><ele>483.0</ele><time>2026-04-19T10:02:20.962Z</time></trkpt><trkpt lat="41.37289" lon="0.6626267"><ele>483.0</ele><time>2026-04-19T10:02:21.962Z</time></trkpt><trkpt lat="41.372955" lon="0.6624567"><ele>481.75</ele><time>2026-04-19T10:02:22.962Z</time></trkpt><trkpt lat="41.3730117" lon="0.66229"><ele>480.5</ele><time>2026-04-19T10:02:23.962Z</time></trkpt><trkpt lat="41.3730717" lon="0.662145"><ele>479.25</ele><time>2026-04-19T10:02:24.962Z</time></trkpt><trkpt lat="41.37315" lon="0.66206"><ele>478.0</ele><time>2026-04-19T10:02:25.963Z</time></trkpt><trkpt lat="41.3732467" lon="0.6620383"><ele>478.0</ele><time>2026-04-19T10:02:26.962Z</time></trkpt><trkpt lat="41.373345" lon="0.6620683"><ele>478.0</ele><time>2026-04-19T10:02:27.962Z</time></trkpt><trkpt lat="41.373455" lon="0.6621233"><ele>478.0</ele><time>2026-04-19T10:02:28.963Z</time></trkpt><trkpt lat="41.3735667" lon="0.6621733"><ele>478.0</ele><time>2026-04-19T10:02:29.962Z</time></trkpt><trkpt lat="41.37371" lon="0.6622083"><ele>478.0</ele><time>2026-04-19T10:02:30.963Z</time></trkpt><trkpt lat="41.373855" lon="0.6622283"><ele>478.0</ele><time>2026-04-19T10:02:31.962Z</time></trkpt><trkpt lat="41.3739867" lon="0.662245"><ele>478.0</ele><time>2026-04-19T10:02:32.963Z</time></trkpt><trkpt lat="41.3741033" lon="0.66227"><ele>478.0</ele><time>2026-04-19T10:02:33.963Z</time></trkpt><trkpt lat="41.3742133" lon="0.6622933"><ele>477.0</ele><time>2026-04-19T10:02:34.963Z</time></trkpt><trkpt lat="41.3743317" lon="0.662345"><ele>476.0</ele><time>2026-04-19T10:02:35.963Z</time></trkpt><trkpt lat="41.3744417" lon="0.6624533"><ele>475.0</ele><time>2026-04-19T10:02:36.962Z</time></trkpt><trkpt lat="41.3745167" lon="0.66259"><ele>474.0</ele><time>2026-04-19T10:02:37.963Z</time></trkpt><trkpt lat="41.37462" lon="0.6627267"><ele>472.5</ele><time>2026-04-19T10:02:38.963Z</time></trkpt><trkpt lat="41.3747233" lon="0.6628417"><ele>471.0</ele><time>2026-04-19T10:02:39.963Z</time></trkpt><trkpt lat="41.3748033" lon="0.662965"><ele>469.5</ele><time>2026-04-19T10:02:40.963Z</time></trkpt><trkpt lat="41.374885" lon="0.66307"><ele>468.0</ele><time>2026-04-19T10:02:41.963Z</time></trkpt><trkpt lat="41.3749833" lon="0.6631667"><ele>468.0</ele><time>2026-04-19T10:02:42.962Z</time></trkpt><trkpt lat="41.3751033" lon="0.6632433"><ele>468.0</ele><time>2026-04-19T10:02:43.962Z</time></trkpt><trkpt lat="41.3752433" lon="0.6633083"><ele>468.0</ele><time>2026-04-19T10:02:44.963Z</time></trkpt><trkpt lat="41.3753833" lon="0.6633733"><ele>468.0</ele><time>2026-04-19T10:02:45.962Z</time></trkpt><trkpt lat="41.375525" lon="0.6634383"><ele>467.5</ele><time>2026-04-19T10:02:46.963Z</time></trkpt><trkpt lat="41.3756483" lon="0.6634933"><ele>467.0</ele><time>2026-04-19T10:02:47.963Z</time></trkpt><trkpt lat="41.3757933" lon="0.6635617"><ele>466.5</ele><time>2026-04-19T10:02:48.962Z</time></trkpt><trkpt lat="41.37593" lon="0.663625"><ele>466.0</ele><time>2026-04-19T10:02:49.963Z</time></trkpt><trkpt lat="41.3760633" lon="0.6636867"><ele>464.25</ele><time>2026-04-19T10:02:50.962Z</time></trkpt><trkpt lat="41.3761883" lon="0.6637617"><ele>462.5</ele><time>2026-04-19T10:02:51.962Z</time></trkpt><trkpt lat="41.3763283" lon="0.6638233"><ele>460.75</ele><time>2026-04-19T10:02:52.962Z</time></trkpt><trkpt lat="41.3764717" lon="0.6638717"><ele>459.0</ele><time>2026-04-19T10:02:53.962Z</time></trkpt><trkpt lat="41.376615" lon="0.66391"><ele>459.0</ele><time>2026-04-19T10:02:54.962Z</time></trkpt><trkpt lat="41.376745" lon="0.663945"><ele>459.0</ele><time>2026-04-19T10:02:55.963Z</time></trkpt><trkpt lat="41.3768783" lon="0.6639633"><ele>459.0</ele><time>2026-04-19T10:02:56.963Z</time></trkpt><trkpt lat="41.3769833" lon="0.6639417"><ele>459.0</ele><time>2026-04-19T10:02:57.963Z</time></trkpt><trkpt lat="41.3770783" lon="0.6638833"><ele>459.0</ele><time>2026-04-19T10:02:58.962Z</time></trkpt><trkpt lat="41.37714" lon="0.663805"><ele>459.0</ele><time>2026-04-19T10:02:59.962Z</time></trkpt><trkpt lat="41.377175" lon="0.663685"><ele>459.0</ele><time>2026-04-19T10:03:00.962Z</time></trkpt><trkpt lat="41.3772" lon="0.6635617"><ele>459.0</ele><time>2026-04-19T10:03:01.963Z</time></trkpt><trkpt lat="41.3772167" lon="0.6634433"><ele>459.0</ele><time>2026-04-19T10:03:02.963Z</time></trkpt><trkpt lat="41.3771967" lon="0.6633083"><ele>460.33333333333337</ele><time>2026-04-19T10:03:03.963Z</time></trkpt><trkpt lat="41.377105" lon="0.663135"><ele>461.6666666666667</ele><time>2026-04-19T10:03:04.962Z</time></trkpt><trkpt lat="41.376985" lon="0.6629567"><ele>463.0</ele><time>2026-04-19T10:03:05.962Z</time></trkpt><trkpt lat="41.3768833" lon="0.66279"><ele>460.5</ele><time>2026-04-19T10:03:06.962Z</time></trkpt><trkpt lat="41.3767867" lon="0.6626433"><ele>458.0</ele><time>2026-04-19T10:03:07.963Z</time></trkpt><trkpt lat="41.3767033" lon="0.6625017"><ele>455.5</ele><time>2026-04-19T10:03:08.962Z</time></trkpt><trkpt lat="41.3766367" lon="0.6623717"><ele>453.0</ele><time>2026-04-19T10:03:09.963Z</time></trkpt><trkpt lat="41.37659" lon="0.6622433"><ele>453.0</ele><time>2026-04-19T10:03:10.962Z</time></trkpt><trkpt lat="41.3765667" lon="0.6621083"><ele>453.0</ele><time>2026-04-19T10:03:11.962Z</time></trkpt><trkpt lat="41.3765767" lon="0.661955"><ele>453.0</ele><time>2026-04-19T10:03:12.963Z</time></trkpt><trkpt lat="41.37662" lon="0.6617883"><ele>453.0</ele><time>2026-04-19T10:03:13.962Z</time></trkpt><trkpt lat="41.3766767" lon="0.6616383"><ele>452.5</ele><time>2026-04-19T10:03:14.962Z</time></trkpt><trkpt lat="41.3767717" lon="0.6615167"><ele>452.0</ele><time>2026-04-19T10:03:15.962Z</time></trkpt><trkpt lat="41.3768817" lon="0.6614283"><ele>451.5</ele><time>2026-04-19T10:03:16.963Z</time></trkpt><trkpt lat="41.3769917" lon="0.6613583"><ele>451.0</ele><time>2026-04-19T10:03:17.962Z</time></trkpt><trkpt lat="41.3770817" lon="0.661295"><ele>450.5</ele><time>2026-04-19T10:03:18.962Z</time></trkpt><trkpt lat="41.37719" lon="0.6612733"><ele>450.0</ele><time>2026-04-19T10:03:19.963Z</time></trkpt><trkpt lat="41.3772933" lon="0.66131"><ele>449.5</ele><time>2026-04-19T10:03:20.963Z</time></trkpt><trkpt lat="41.3774117" lon="0.6614"><ele>449.0</ele><time>2026-04-19T10:03:21.963Z</time></trkpt><trkpt lat="41.37756" lon="0.6615483"><ele>449.0</ele><time>2026-04-19T10:03:22.963Z</time></trkpt><trkpt lat="41.3777167" lon="0.6617067"><ele>449.0</ele><time>2026-04-19T10:03:23.963Z</time></trkpt><trkpt lat="41.37782" lon="0.6618183"><ele>449.0</ele><time>2026-04-19T10:03:24.962Z</time></trkpt><trkpt lat="41.37791" lon="0.6618883"><ele>449.0</ele><time>2026-04-19T10:03:25.963Z</time></trkpt><trkpt lat="41.378" lon="0.66191"><ele>448.0</ele><time>2026-04-19T10:03:26.963Z</time></trkpt><trkpt lat="41.3780967" lon="0.661905"><ele>447.0</ele><time>2026-04-19T10:03:27.963Z</time></trkpt><trkpt lat="41.378195" lon="0.6618633"><ele>446.0</ele><time>2026-04-19T10:03:28.963Z</time></trkpt><trkpt lat="41.3782967" lon="0.6617817"><ele>445.0</ele><time>2026-04-19T10:03:29.963Z</time></trkpt><trkpt lat="41.3784067" lon="0.661665"><ele>445.0</ele><time>2026-04-19T10:03:30.963Z</time></trkpt><trkpt lat="41.3785183" lon="0.6615583"><ele>445.0</ele><time>2026-04-19T10:03:31.963Z</time></trkpt><trkpt lat="41.378635" lon="0.66146"><ele>445.0</ele><time>2026-04-19T10:03:32.962Z</time></trkpt><trkpt lat="41.3787433" lon="0.6613617"><ele>445.0</ele><time>2026-04-19T10:03:33.962Z</time></trkpt><trkpt lat="41.378835" lon="0.661275"><ele>444.33333333333337</ele><time>2026-04-19T10:03:34.963Z</time></trkpt><trkpt lat="41.3789333" lon="0.6611933"><ele>443.6666666666667</ele><time>2026-04-19T10:03:35.962Z</time></trkpt><trkpt lat="41.37901" lon="0.6611233"><ele>443.0</ele><time>2026-04-19T10:03:36.963Z</time></trkpt><trkpt lat="41.3790683" lon="0.6610567"><ele>442.33333333333337</ele><time>2026-04-19T10:03:37.962Z</time></trkpt><trkpt lat="41.3791017" lon="0.6609817"><ele>441.6666666666667</ele><time>2026-04-19T10:03:38.963Z</time></trkpt><trkpt lat="41.3791267" lon="0.6609017"><ele>441.0</ele><time>2026-04-19T10:03:39.962Z</time></trkpt><trkpt lat="41.3791283" lon="0.6608167"><ele>441.0</ele><time>2026-04-19T10:03:40.962Z</time></trkpt><trkpt lat="41.3791117" lon="0.6607217"><ele>441.0</ele><time>2026-04-19T10:03:41.962Z</time></trkpt><trkpt lat="41.3790483" lon="0.660615"><ele>441.0</ele><time>2026-04-19T10:03:42.963Z</time></trkpt><trkpt lat="41.37897" lon="0.6604867"><ele>441.0</ele><time>2026-04-19T10:03:43.962Z</time></trkpt><trkpt lat="41.3788967" lon="0.6603367"><ele>441.0</ele><time>2026-04-19T10:03:44.962Z</time></trkpt><trkpt lat="41.3788367" lon="0.6601617"><ele>443.0</ele><time>2026-04-19T10:03:45.963Z</time></trkpt><trkpt lat="41.3787867" lon="0.6599967"><ele>445.0</ele><time>2026-04-19T10:03:46.962Z</time></trkpt><trkpt lat="41.3787417" lon="0.65986"><ele>447.0</ele><time>2026-04-19T10:03:47.963Z</time></trkpt><trkpt lat="41.3787183" lon="0.65973"><ele>449.0</ele><time>2026-04-19T10:03:48.962Z</time></trkpt><trkpt lat="41.3787033" lon="0.6595883"><ele>448.99999999999994</ele><time>2026-04-19T10:03:49.963Z</time></trkpt><trkpt lat="41.3787183" lon="0.6594783"><ele>449.0</ele><time>2026-04-19T10:03:50.962Z</time></trkpt><trkpt lat="41.378755" lon="0.659395"><ele>449.0</ele><time>2026-04-19T10:03:51.962Z</time></trkpt><trkpt lat="41.3788033" lon="0.6593283"><ele>449.0</ele><time>2026-04-19T10:03:52.962Z</time></trkpt><trkpt lat="41.37887" lon="0.6592967"><ele>448.99999999999994</ele><time>2026-04-19T10:03:53.962Z</time></trkpt><trkpt lat="41.37898" lon="0.65933"><ele>449.0</ele><time>2026-04-19T10:03:54.962Z</time></trkpt><trkpt lat="41.3791033" lon="0.659365"><ele>447.2</ele><time>2026-04-19T10:03:55.963Z</time></trkpt><trkpt lat="41.3792117" lon="0.6593617"><ele>445.4</ele><time>2026-04-19T10:03:56.963Z</time></trkpt><trkpt lat="41.3793167" lon="0.6593483"><ele>443.6</ele><time>2026-04-19T10:03:57.962Z</time></trkpt><trkpt lat="41.3793917" lon="0.6593133"><ele>441.8</ele><time>2026-04-19T10:03:58.962Z</time></trkpt><trkpt lat="41.379465" lon="0.6592333"><ele>440.0</ele><time>2026-04-19T10:03:59.963Z</time></trkpt><trkpt lat="41.379495" lon="0.6590983"><ele>439.99999999999994</ele><time>2026-04-19T10:04:00.962Z</time></trkpt><trkpt lat="41.3795083" lon="0.6589717"><ele>440.0</ele><time>2026-04-19T10:04:01.963Z</time></trkpt><trkpt lat="41.3795217" lon="0.6588367"><ele>440.0</ele><time>2026-04-19T10:04:02.963Z</time></trkpt><trkpt lat="41.379545" lon="0.6587217"><ele>440.0</ele><time>2026-04-19T10:04:03.963Z</time></trkpt><trkpt lat="41.379585" lon="0.6586267"><ele>439.99999999999994</ele><time>2026-04-19T10:04:04.963Z</time></trkpt><trkpt lat="41.3796417" lon="0.658565"><ele>440.0</ele><time>2026-04-19T10:04:05.962Z</time></trkpt><trkpt lat="41.3797133" lon="0.65854"><ele>440.8</ele><time>2026-04-19T10:04:06.962Z</time></trkpt><trkpt lat="41.3797833" lon="0.658565"><ele>441.6</ele><time>2026-04-19T10:04:07.962Z</time></trkpt><trkpt lat="41.3798483" lon="0.658605"><ele>442.4</ele><time>2026-04-19T10:04:08.963Z</time></trkpt><trkpt lat="41.3799417" lon="0.65868"><ele>443.2</ele><time>2026-04-19T10:04:09.962Z</time></trkpt><trkpt lat="41.380045" lon="0.658765"><ele>444.0</ele><time>2026-04-19T10:04:10.962Z</time></trkpt><trkpt lat="41.3801633" lon="0.6588533"><ele>438.66666666666663</ele><time>2026-04-19T10:04:11.962Z</time></trkpt><trkpt lat="41.380315" lon="0.6589267"><ele>433.3333333333333</ele><time>2026-04-19T10:04:12.963Z</time></trkpt><trkpt lat="41.3804817" lon="0.6589833"><ele>428.0</ele><time>2026-04-19T10:04:13.963Z</time></trkpt><trkpt lat="41.3806517" lon="0.6590233"><ele>428.0</ele><time>2026-04-19T10:04:14.962Z</time></trkpt><trkpt lat="41.3808133" lon="0.65904"><ele>428.0</ele><time>2026-04-19T10:04:15.963Z</time></trkpt><trkpt lat="41.3809583" lon="0.659065"><ele>428.0</ele><time>2026-04-19T10:04:16.962Z</time></trkpt><trkpt lat="41.3810983" lon="0.6590933"><ele>428.0</ele><time>2026-04-19T10:04:17.963Z</time></trkpt><trkpt lat="41.3811983" lon="0.6591517"><ele>427.99999999999994</ele><time>2026-04-19T10:04:18.962Z</time></trkpt><trkpt lat="41.3812817" lon="0.659235"><ele>427.99999999999994</ele><time>2026-04-19T10:04:19.962Z</time></trkpt><trkpt lat="41.381305" lon="0.6593367"><ele>428.0</ele><time>2026-04-19T10:04:20.962Z</time></trkpt><trkpt lat="41.38133" lon="0.6594567"><ele>428.0</ele><time>2026-04-19T10:04:21.962Z</time></trkpt><trkpt lat="41.3813433" lon="0.6595733"><ele>427.66666666666663</ele><time>2026-04-19T10:04:22.963Z</time></trkpt><trkpt lat="41.3813333" lon="0.6597033"><ele>427.3333333333333</ele><time>2026-04-19T10:04:23.962Z</time></trkpt><trkpt lat="41.381305" lon="0.6598367"><ele>427.0</ele><time>2026-04-19T10:04:24.962Z</time></trkpt><trkpt lat="41.381295" lon="0.6599467"><ele>426.66666666666663</ele><time>2026-04-19T10:04:25.962Z</time></trkpt><trkpt lat="41.3813083" lon="0.6600433"><ele>426.3333333333333</ele><time>2026-04-19T10:04:26.962Z</time></trkpt><trkpt lat="41.3813317" lon="0.6601267"><ele>426.0</ele><time>2026-04-19T10:04:27.962Z</time></trkpt><trkpt lat="41.3813717" lon="0.6601983"><ele>426.0</ele><time>2026-04-19T10:04:28.962Z</time></trkpt><trkpt lat="41.3814433" lon="0.660245"><ele>426.0</ele><time>2026-04-19T10:04:29.962Z</time></trkpt><trkpt lat="41.3815617" lon="0.6602583"><ele>426.0</ele><time>2026-04-19T10:04:30.962Z</time></trkpt><trkpt lat="41.38167" lon="0.6602533"><ele>426.0</ele><time>2026-04-19T10:04:31.963Z</time></trkpt><trkpt lat="41.3817917" lon="0.660245"><ele>426.0</ele><time>2026-04-19T10:04:32.962Z</time></trkpt><trkpt lat="41.3819217" lon="0.660245"><ele>426.0</ele><time>2026-04-19T10:04:33.963Z</time></trkpt><trkpt lat="41.3820733" lon="0.6602567"><ele>426.0</ele><time>2026-04-19T10:04:34.963Z</time></trkpt><trkpt lat="41.3821967" lon="0.6603267"><ele>426.0</ele><time>2026-04-19T10:04:35.962Z</time></trkpt><trkpt lat="41.38235" lon="0.6604117"><ele>421.66666666666663</ele><time>2026-04-19T10:04:36.962Z</time></trkpt><trkpt lat="41.3824767" lon="0.66051"><ele>417.3333333333333</ele><time>2026-04-19T10:04:37.963Z</time></trkpt><trkpt lat="41.3826" lon="0.6606417"><ele>413.0</ele><time>2026-04-19T10:04:38.963Z</time></trkpt><trkpt lat="41.3827167" lon="0.6607933"><ele>413.0</ele><time>2026-04-19T10:04:39.963Z</time></trkpt><trkpt lat="41.3828317" lon="0.660955"><ele>413.0</ele><time>2026-04-19T10:04:40.962Z</time></trkpt><trkpt lat="41.3829467" lon="0.6611117"><ele>413.0</ele><time>2026-04-19T10:04:41.962Z</time></trkpt><trkpt lat="41.383065" lon="0.6612617"><ele>411.75</ele><time>2026-04-19T10:04:42.962Z</time></trkpt><trkpt lat="41.38317" lon="0.6614067"><ele>410.5</ele><time>2026-04-19T10:04:43.962Z</time></trkpt><trkpt lat="41.38328" lon="0.6615467"><ele>409.25</ele><time>2026-04-19T10:04:44.963Z</time></trkpt><trkpt lat="41.38338" lon="0.661665"><ele>408.0</ele><time>2026-04-19T10:04:45.962Z</time></trkpt><trkpt lat="41.3834767" lon="0.6617567"><ele>408.0</ele><time>2026-04-19T10:04:46.963Z</time></trkpt><trkpt lat="41.38357" lon="0.661825"><ele>408.0</ele><time>2026-04-19T10:04:47.962Z</time></trkpt><trkpt lat="41.383655" lon="0.661865"><ele>408.0</ele><time>2026-04-19T10:04:48.962Z</time></trkpt><trkpt lat="41.38374" lon="0.66188"><ele>408.0</ele><time>2026-04-19T10:04:49.962Z</time></trkpt><trkpt lat="41.3838233" lon="0.661865"><ele>408.0</ele><time>2026-04-19T10:04:50.963Z</time></trkpt><trkpt lat="41.38391" lon="0.6617967"><ele>405.75</ele><time>2026-04-19T10:04:51.962Z</time></trkpt><trkpt lat="41.3839967" lon="0.661685"><ele>403.5</ele><time>2026-04-19T10:04:52.962Z</time></trkpt><trkpt lat="41.3840833" lon="0.661495"><ele>401.25</ele><time>2026-04-19T10:04:53.962Z</time></trkpt><trkpt lat="41.3841367" lon="0.66132"><ele>399.0</ele><time>2026-04-19T10:04:54.962Z</time></trkpt><trkpt lat="41.3841883" lon="0.6611633"><ele>402.0</ele><time>2026-04-19T10:04:55.962Z</time></trkpt><trkpt lat="41.3842383" lon="0.6610117"><ele>405.0</ele><time>2026-04-19T10:04:56.962Z</time></trkpt><trkpt lat="41.384295" lon="0.660885"><ele>408.0</ele><time>2026-04-19T10:04:57.962Z</time></trkpt><trkpt lat="41.38436" lon="0.6608033"><ele>411.0</ele><time>2026-04-19T10:04:58.962Z</time></trkpt><trkpt lat="41.38444" lon="0.6607633"><ele>414.0</ele><time>2026-04-19T10:04:59.963Z</time></trkpt><trkpt lat="41.3845367" lon="0.660775"><ele>414.0</ele><time>2026-04-19T10:05:00.963Z</time></trkpt><trkpt lat="41.384625" lon="0.6608267"><ele>414.0</ele><time>2026-04-19T10:05:01.963Z</time></trkpt><trkpt lat="41.3847217" lon="0.6609267"><ele>414.0</ele><time>2026-04-19T10:05:02.962Z</time></trkpt><trkpt lat="41.3848183" lon="0.6610867"><ele>414.0</ele><time>2026-04-19T10:05:03.963Z</time></trkpt><trkpt lat="41.3848983" lon="0.6612683"><ele>408.0</ele><time>2026-04-19T10:05:04.963Z</time></trkpt><trkpt lat="41.384975" lon="0.6613767"><ele>402.0</ele><time>2026-04-19T10:05:05.962Z</time></trkpt><trkpt lat="41.38505" lon="0.6614633"><ele>396.0</ele><time>2026-04-19T10:05:06.963Z</time></trkpt><trkpt lat="41.3851983" lon="0.6614983"><ele>390.0</ele><time>2026-04-19T10:05:08.962Z</time></trkpt><trkpt lat="41.3852967" lon="0.6614433"><ele>390.0</ele><time>2026-04-19T10:05:09.962Z</time></trkpt><trkpt lat="41.3853883" lon="0.6613717"><ele>390.0</ele><time>2026-04-19T10:05:10.963Z</time></trkpt><trkpt lat="41.38548" lon="0.6612567"><ele>390.0</ele><time>2026-04-19T10:05:11.962Z</time></trkpt><trkpt lat="41.38554" lon="0.6611283"><ele>390.0</ele><time>2026-04-19T10:05:12.962Z</time></trkpt><trkpt lat="41.3855833" lon="0.6609967"><ele>389.0</ele><time>2026-04-19T10:05:13.962Z</time></trkpt><trkpt lat="41.3856083" lon="0.6608267"><ele>388.0</ele><time>2026-04-19T10:05:14.963Z</time></trkpt><trkpt lat="41.3856317" lon="0.6606583"><ele>387.0</ele><time>2026-04-19T10:05:15.962Z</time></trkpt><trkpt lat="41.3856433" lon="0.6604983"><ele>386.0</ele><time>2026-04-19T10:05:16.962Z</time></trkpt><trkpt lat="41.3856383" lon="0.6603483"><ele>388.20000000000005</ele><time>2026-04-19T10:05:17.962Z</time></trkpt><trkpt lat="41.38565" lon="0.6602317"><ele>390.40000000000003</ele><time>2026-04-19T10:05:18.963Z</time></trkpt><trkpt lat="41.3856767" lon="0.6600967"><ele>392.6</ele><time>2026-04-19T10:05:19.962Z</time></trkpt><trkpt lat="41.3857167" lon="0.659965"><ele>394.8</ele><time>2026-04-19T10:05:20.963Z</time></trkpt><trkpt lat="41.385765" lon="0.6598483"><ele>397.0</ele><time>2026-04-19T10:05:21.962Z</time></trkpt><trkpt lat="41.3858083" lon="0.6597283"><ele>397.0</ele><time>2026-04-19T10:05:22.963Z</time></trkpt><trkpt lat="41.3858717" lon="0.6596617"><ele>397.0</ele><time>2026-04-19T10:05:23.963Z</time></trkpt><trkpt lat="41.3859567" lon="0.6596433"><ele>397.0</ele><time>2026-04-19T10:05:24.962Z</time></trkpt><trkpt lat="41.386035" lon="0.6596917"><ele>397.0</ele><time>2026-04-19T10:05:25.963Z</time></trkpt><trkpt lat="41.386125" lon="0.6597733"><ele>397.0</ele><time>2026-04-19T10:05:26.961Z</time></trkpt><trkpt lat="41.386215" lon="0.6598967"><ele>397.0</ele><time>2026-04-19T10:05:27.962Z</time></trkpt><trkpt lat="41.3863" lon="0.6600367"><ele>397.0</ele><time>2026-04-19T10:05:28.962Z</time></trkpt><trkpt lat="41.3863833" lon="0.6601633"><ele>397.0</ele><time>2026-04-19T10:05:29.962Z</time></trkpt><trkpt lat="41.38645" lon="0.6603033"><ele>397.0</ele><time>2026-04-19T10:05:30.962Z</time></trkpt><trkpt lat="41.3865117" lon="0.6604517"><ele>394.8</ele><time>2026-04-19T10:05:31.961Z</time></trkpt><trkpt lat="41.3865733" lon="0.66058"><ele>392.6</ele><time>2026-04-19T10:05:32.962Z</time></trkpt><trkpt lat="41.3866467" lon="0.6606833"><ele>390.40000000000003</ele><time>2026-04-19T10:05:33.961Z</time></trkpt><trkpt lat="41.3867333" lon="0.660775"><ele>388.20000000000005</ele><time>2026-04-19T10:05:34.961Z</time></trkpt><trkpt lat="41.38683" lon="0.6608617"><ele>386.0</ele><time>2026-04-19T10:05:35.962Z</time></trkpt><trkpt lat="41.3869417" lon="0.660945"><ele>386.0</ele><time>2026-04-19T10:05:36.961Z</time></trkpt><trkpt lat="41.3870617" lon="0.6610383"><ele>386.0</ele><time>2026-04-19T10:05:37.962Z</time></trkpt><trkpt lat="41.38717" lon="0.661145"><ele>386.0</ele><time>2026-04-19T10:05:38.961Z</time></trkpt><trkpt lat="41.3872717" lon="0.6612417"><ele>386.0</ele><time>2026-04-19T10:05:39.961Z</time></trkpt><trkpt lat="41.387365" lon="0.66132"><ele>383.0</ele><time>2026-04-19T10:05:40.962Z</time></trkpt><trkpt lat="41.387465" lon="0.661395"><ele>380.0</ele><time>2026-04-19T10:05:41.962Z</time></trkpt><trkpt lat="41.3875867" lon="0.661445"><ele>377.0</ele><time>2026-04-19T10:05:42.962Z</time></trkpt><trkpt lat="41.3877117" lon="0.6614767"><ele>374.0</ele><time>2026-04-19T10:05:43.961Z</time></trkpt><trkpt lat="41.3878317" lon="0.661515"><ele>374.0</ele><time>2026-04-19T10:05:44.961Z</time></trkpt><trkpt lat="41.387945" lon="0.66157"><ele>374.0</ele><time>2026-04-19T10:05:45.962Z</time></trkpt><trkpt lat="41.3880533" lon="0.6616233"><ele>374.0</ele><time>2026-04-19T10:05:46.961Z</time></trkpt><trkpt lat="41.3881583" lon="0.6616833"><ele>374.0</ele><time>2026-04-19T10:05:47.962Z</time></trkpt><trkpt lat="41.3882583" lon="0.6617217"><ele>373.6</ele><time>2026-04-19T10:05:48.961Z</time></trkpt><trkpt lat="41.38835" lon="0.6617317"><ele>373.2</ele><time>2026-04-19T10:05:49.962Z</time></trkpt><trkpt lat="41.3884483" lon="0.6617083"><ele>372.8</ele><time>2026-04-19T10:05:50.961Z</time></trkpt><trkpt lat="41.388545" lon="0.6616483"><ele>372.40000000000003</ele><time>2026-04-19T10:05:51.961Z</time></trkpt><trkpt lat="41.3886383" lon="0.6615633"><ele>372.0</ele><time>2026-04-19T10:05:52.961Z</time></trkpt><trkpt lat="41.3887383" lon="0.6614767"><ele>372.0</ele><time>2026-04-19T10:05:53.962Z</time></trkpt><trkpt lat="41.3888417" lon="0.6613917"><ele>372.0</ele><time>2026-04-19T10:05:54.961Z</time></trkpt><trkpt lat="41.388935" lon="0.6612933"><ele>372.0</ele><time>2026-04-19T10:05:55.961Z</time></trkpt><trkpt lat="41.38904" lon="0.6612033"><ele>372.0</ele><time>2026-04-19T10:05:56.962Z</time></trkpt><trkpt lat="41.389135" lon="0.6611417"><ele>372.0</ele><time>2026-04-19T10:05:57.962Z</time></trkpt><trkpt lat="41.3892667" lon="0.661115"><ele>372.0</ele><time>2026-04-19T10:05:58.962Z</time></trkpt><trkpt lat="41.3894067" lon="0.6611383"><ele>372.0</ele><time>2026-04-19T10:05:59.962Z</time></trkpt><trkpt lat="41.3895517" lon="0.661185"><ele>372.0</ele><time>2026-04-19T10:06:00.962Z</time></trkpt><trkpt lat="41.3896783" lon="0.6612467"><ele>371.25</ele><time>2026-04-19T10:06:01.962Z</time></trkpt><trkpt lat="41.3898" lon="0.6613083"><ele>370.5</ele><time>2026-04-19T10:06:02.962Z</time></trkpt><trkpt lat="41.3899333" lon="0.661355"><ele>369.75</ele><time>2026-04-19T10:06:03.962Z</time></trkpt><trkpt lat="41.3900483" lon="0.6613783"><ele>369.0</ele><time>2026-04-19T10:06:04.961Z</time></trkpt><trkpt lat="41.3901467" lon="0.6613733"><ele>369.0</ele><time>2026-04-19T10:06:05.961Z</time></trkpt><trkpt lat="41.39023" lon="0.6613167"><ele>369.0</ele><time>2026-04-19T10:06:06.962Z</time></trkpt><trkpt lat="41.39031" lon="0.6612267"><ele>369.0</ele><time>2026-04-19T10:06:07.961Z</time></trkpt><trkpt lat="41.3903617" lon="0.66111"><ele>369.0</ele><time>2026-04-19T10:06:08.961Z</time></trkpt><trkpt lat="41.390445" lon="0.6610233"><ele>369.0</ele><time>2026-04-19T10:06:09.961Z</time></trkpt><trkpt lat="41.390535" lon="0.6609633"><ele>369.2</ele><time>2026-04-19T10:06:10.962Z</time></trkpt><trkpt lat="41.39062" lon="0.6609517"><ele>369.4</ele><time>2026-04-19T10:06:11.962Z</time></trkpt><trkpt lat="41.3907233" lon="0.6609683"><ele>369.6</ele><time>2026-04-19T10:06:12.962Z</time></trkpt><trkpt lat="41.3908283" lon="0.6609733"><ele>369.8</ele><time>2026-04-19T10:06:13.962Z</time></trkpt><trkpt lat="41.3909267" lon="0.6609533"><ele>370.0</ele><time>2026-04-19T10:06:14.961Z</time></trkpt><trkpt lat="41.3910183" lon="0.6609117"><ele>370.0</ele><time>2026-04-19T10:06:15.961Z</time></trkpt><trkpt lat="41.3911" lon="0.6608517"><ele>370.0</ele><time>2026-04-19T10:06:16.962Z</time></trkpt><trkpt lat="41.391175" lon="0.6607967"><ele>370.0</ele><time>2026-04-19T10:06:17.961Z</time></trkpt><trkpt lat="41.3912467" lon="0.6607517"><ele>370.0</ele><time>2026-04-19T10:06:18.961Z</time></trkpt><trkpt lat="41.3913317" lon="0.66072"><ele>370.0</ele><time>2026-04-19T10:06:19.961Z</time></trkpt><trkpt lat="41.3914167" lon="0.6607133"><ele>370.0</ele><time>2026-04-19T10:06:20.961Z</time></trkpt><trkpt lat="41.3914967" lon="0.6606967"><ele>371.2</ele><time>2026-04-19T10:06:21.962Z</time></trkpt><trkpt lat="41.39157" lon="0.6606567"><ele>372.4</ele><time>2026-04-19T10:06:22.961Z</time></trkpt><trkpt lat="41.3916333" lon="0.6605767"><ele>373.6</ele><time>2026-04-19T10:06:23.961Z</time></trkpt><trkpt lat="41.3916833" lon="0.6604617"><ele>374.8</ele><time>2026-04-19T10:06:24.961Z</time></trkpt><trkpt lat="41.391705" lon="0.66034"><ele>376.0</ele><time>2026-04-19T10:06:25.961Z</time></trkpt><trkpt lat="41.39173" lon="0.660215"><ele>376.0</ele><time>2026-04-19T10:06:26.961Z</time></trkpt><trkpt lat="41.3917567" lon="0.6601117"><ele>376.0</ele><time>2026-04-19T10:06:27.962Z</time></trkpt><trkpt lat="41.391795" lon="0.6600183"><ele>376.0</ele><time>2026-04-19T10:06:28.961Z</time></trkpt><trkpt lat="41.3918483" lon="0.6599467"><ele>376.0</ele><time>2026-04-19T10:06:29.961Z</time></trkpt><trkpt lat="41.3919183" lon="0.6598917"><ele>376.0</ele><time>2026-04-19T10:06:30.962Z</time></trkpt><trkpt lat="41.3919983" lon="0.6598717"><ele>376.0</ele><time>2026-04-19T10:06:31.962Z</time></trkpt><trkpt lat="41.3920817" lon="0.6598667"><ele>377.4</ele><time>2026-04-19T10:06:32.961Z</time></trkpt><trkpt lat="41.3921733" lon="0.6598683"><ele>378.8</ele><time>2026-04-19T10:06:33.962Z</time></trkpt><trkpt lat="41.3922683" lon="0.65988"><ele>380.2</ele><time>2026-04-19T10:06:34.962Z</time></trkpt><trkpt lat="41.39237" lon="0.659905"><ele>381.59999999999997</ele><time>2026-04-19T10:06:35.962Z</time></trkpt><trkpt lat="41.392455" lon="0.6599617"><ele>383.0</ele><time>2026-04-19T10:06:36.961Z</time></trkpt><trkpt lat="41.3925483" lon="0.6600433"><ele>383.0</ele><time>2026-04-19T10:06:37.962Z</time></trkpt><trkpt lat="41.3926217" lon="0.6601583"><ele>383.0</ele><time>2026-04-19T10:06:38.961Z</time></trkpt><trkpt lat="41.3926967" lon="0.6602867"><ele>383.0</ele><time>2026-04-19T10:06:39.962Z</time></trkpt><trkpt lat="41.3927617" lon="0.660415"><ele>383.0</ele><time>2026-04-19T10:06:40.961Z</time></trkpt><trkpt lat="41.39282" lon="0.660535"><ele>385.6666666666667</ele><time>2026-04-19T10:06:41.961Z</time></trkpt><trkpt lat="41.3928783" lon="0.6606467"><ele>388.33333333333337</ele><time>2026-04-19T10:06:42.961Z</time></trkpt><trkpt lat="41.392925" lon="0.660755"><ele>391.0</ele><time>2026-04-19T10:06:43.962Z</time></trkpt><trkpt lat="41.3929617" lon="0.6608483"><ele>393.6666666666667</ele><time>2026-04-19T10:06:44.962Z</time></trkpt><trkpt lat="41.393005" lon="0.660925"><ele>396.3333333333333</ele><time>2026-04-19T10:06:45.961Z</time></trkpt><trkpt lat="41.39304" lon="0.661"><ele>399.0</ele><time>2026-04-19T10:06:46.961Z</time></trkpt><trkpt lat="41.39312" lon="0.6610967"><ele>399.79999999999995</ele><time>2026-04-19T10:06:48.962Z</time></trkpt><trkpt lat="41.3932233" lon="0.6610867"><ele>400.59999999999997</ele><time>2026-04-19T10:06:50.962Z</time></trkpt><trkpt lat="41.3932633" lon="0.6610133"><ele>401.4</ele><time>2026-04-19T10:06:51.962Z</time></trkpt><trkpt lat="41.393295" lon="0.6609067"><ele>402.2</ele><time>2026-04-19T10:06:52.962Z</time></trkpt><trkpt lat="41.39333" lon="0.660775"><ele>403.0</ele><time>2026-04-19T10:06:53.962Z</time></trkpt><trkpt lat="41.3933667" lon="0.66061"><ele>403.0</ele><time>2026-04-19T10:06:54.961Z</time></trkpt><trkpt lat="41.3934017" lon="0.660455"><ele>403.0</ele><time>2026-04-19T10:06:55.961Z</time></trkpt><trkpt lat="41.39343" lon="0.6603183"><ele>403.0</ele><time>2026-04-19T10:06:56.961Z</time></trkpt><trkpt lat="41.39346" lon="0.6601967"><ele>403.0</ele><time>2026-04-19T10:06:57.962Z</time></trkpt><trkpt lat="41.3934883" lon="0.660075"><ele>403.0</ele><time>2026-04-19T10:06:58.961Z</time></trkpt><trkpt lat="41.3935183" lon="0.6599567"><ele>402.50000000000006</ele><time>2026-04-19T10:06:59.962Z</time></trkpt><trkpt lat="41.39356" lon="0.6598467"><ele>402.0</ele><time>2026-04-19T10:07:00.962Z</time></trkpt><trkpt lat="41.3936167" lon="0.6597567"><ele>401.5</ele><time>2026-04-19T10:07:01.962Z</time></trkpt><trkpt lat="41.3936883" lon="0.6597017"><ele>401.0</ele><time>2026-04-19T10:07:02.962Z</time></trkpt><trkpt lat="41.3937633" lon="0.6597083"><ele>400.50000000000006</ele><time>2026-04-19T10:07:03.962Z</time></trkpt><trkpt lat="41.3938467" lon="0.6597567"><ele>400.0</ele><time>2026-04-19T10:07:04.961Z</time></trkpt><trkpt lat="41.3939267" lon="0.6598267"><ele>400.00000000000006</ele><time>2026-04-19T10:07:05.962Z</time></trkpt><trkpt lat="41.3940017" lon="0.6598917"><ele>400.0</ele><time>2026-04-19T10:07:06.962Z</time></trkpt><trkpt lat="41.394065" lon="0.65996"><ele>400.0</ele><time>2026-04-19T10:07:07.962Z</time></trkpt><trkpt lat="41.3941217" lon="0.6600233"><ele>400.0</ele><time>2026-04-19T10:07:08.962Z</time></trkpt><trkpt lat="41.39418" lon="0.6601"><ele>400.00000000000006</ele><time>2026-04-19T10:07:09.962Z</time></trkpt><trkpt lat="41.394235" lon="0.6601917"><ele>400.0</ele><time>2026-04-19T10:07:10.962Z</time></trkpt><trkpt lat="41.3942783" lon="0.6602983"><ele>402.6666666666667</ele><time>2026-04-19T10:07:11.961Z</time></trkpt><trkpt lat="41.3943083" lon="0.6604133"><ele>405.33333333333337</ele><time>2026-04-19T10:07:12.961Z</time></trkpt><trkpt lat="41.3943233" lon="0.6605233"><ele>408.0</ele><time>2026-04-19T10:07:13.961Z</time></trkpt><trkpt lat="41.3943383" lon="0.6606217"><ele>410.66666666666663</ele><time>2026-04-19T10:07:14.962Z</time></trkpt><trkpt lat="41.39435" lon="0.66072"><ele>413.3333333333333</ele><time>2026-04-19T10:07:15.961Z</time></trkpt><trkpt lat="41.394385" lon="0.6607933"><ele>416.0</ele><time>2026-04-19T10:07:16.962Z</time></trkpt><trkpt lat="41.3944483" lon="0.660845"><ele>415.99999999999994</ele><time>2026-04-19T10:07:17.962Z</time></trkpt><trkpt lat="41.3945333" lon="0.660865"><ele>416.0</ele><time>2026-04-19T10:07:18.961Z</time></trkpt><trkpt lat="41.3946183" lon="0.6608383"><ele>416.0</ele><time>2026-04-19T10:07:19.961Z</time></trkpt><trkpt lat="41.394695" lon="0.660805"><ele>416.0</ele><time>2026-04-19T10:07:20.961Z</time></trkpt><trkpt lat="41.3947733" lon="0.6607933"><ele>415.99999999999994</ele><time>2026-04-19T10:07:21.962Z</time></trkpt><trkpt lat="41.3948483" lon="0.6608267"><ele>416.0</ele><time>2026-04-19T10:07:22.962Z</time></trkpt><trkpt lat="41.3949233" lon="0.660895"><ele>415.0</ele><time>2026-04-19T10:07:23.962Z</time></trkpt><trkpt lat="41.394995" lon="0.660975"><ele>414.0</ele><time>2026-04-19T10:07:24.961Z</time></trkpt><trkpt lat="41.3950633" lon="0.66107"><ele>413.0</ele><time>2026-04-19T10:07:25.961Z</time></trkpt><trkpt lat="41.39513" lon="0.66117"><ele>412.0</ele><time>2026-04-19T10:07:26.962Z</time></trkpt><trkpt lat="41.395175" lon="0.6612783"><ele>411.0</ele><time>2026-04-19T10:07:27.962Z</time></trkpt><trkpt lat="41.395215" lon="0.661395"><ele>413.1666666666667</ele><time>2026-04-19T10:07:28.962Z</time></trkpt><trkpt lat="41.39525" lon="0.66151"><ele>415.33333333333337</ele><time>2026-04-19T10:07:29.962Z</time></trkpt><trkpt lat="41.3952733" lon="0.6616217"><ele>417.5</ele><time>2026-04-19T10:07:30.962Z</time></trkpt><trkpt lat="41.3952967" lon="0.6617183"><ele>419.6666666666667</ele><time>2026-04-19T10:07:31.962Z</time></trkpt><trkpt lat="41.395315" lon="0.6618133"><ele>421.83333333333337</ele><time>2026-04-19T10:07:32.961Z</time></trkpt><trkpt lat="41.395335" lon="0.6619133"><ele>424.0</ele><time>2026-04-19T10:07:33.962Z</time></trkpt><trkpt lat="41.39537" lon="0.6620217"><ele>425.0</ele><time>2026-04-19T10:07:34.962Z</time></trkpt><trkpt lat="41.3954217" lon="0.6621183"><ele>426.0</ele><time>2026-04-19T10:07:35.961Z</time></trkpt><trkpt lat="41.3954833" lon="0.6622117"><ele>427.0</ele><time>2026-04-19T10:07:36.961Z</time></trkpt><trkpt lat="41.3955583" lon="0.6623017"><ele>428.0</ele><time>2026-04-19T10:07:37.962Z</time></trkpt><trkpt lat="41.39563" lon="0.662385"><ele>429.0</ele><time>2026-04-19T10:07:38.962Z</time></trkpt><trkpt lat="41.395695" lon="0.6624283"><ele>429.0</ele><time>2026-04-19T10:07:39.962Z</time></trkpt><trkpt lat="41.3957583" lon="0.662455"><ele>429.0</ele><time>2026-04-19T10:07:40.961Z</time></trkpt><trkpt lat="41.3958433" lon="0.6624583"><ele>429.0</ele><time>2026-04-19T10:07:41.962Z</time></trkpt><trkpt lat="41.3959183" lon="0.6624233"><ele>429.0</ele><time>2026-04-19T10:07:42.961Z</time></trkpt><trkpt lat="41.3959983" lon="0.66235"><ele>429.0</ele><time>2026-04-19T10:07:43.961Z</time></trkpt><trkpt lat="41.3960833" lon="0.662255"><ele>429.0</ele><time>2026-04-19T10:07:44.961Z</time></trkpt><trkpt lat="41.3961617" lon="0.66214"><ele>429.0</ele><time>2026-04-19T10:07:45.961Z</time></trkpt><trkpt lat="41.3962317" lon="0.6620383"><ele>429.0</ele><time>2026-04-19T10:07:46.961Z</time></trkpt><trkpt lat="41.3963033" lon="0.6619467"><ele>429.0</ele><time>2026-04-19T10:07:47.962Z</time></trkpt><trkpt lat="41.3963717" lon="0.66186"><ele>429.0</ele><time>2026-04-19T10:07:48.962Z</time></trkpt><trkpt lat="41.3964517" lon="0.6617783"><ele>429.0</ele><time>2026-04-19T10:07:49.961Z</time></trkpt><trkpt lat="41.3965333" lon="0.6617067"><ele>429.0</ele><time>2026-04-19T10:07:50.961Z</time></trkpt><trkpt lat="41.3966283" lon="0.6616617"><ele>429.0</ele><time>2026-04-19T10:07:51.961Z</time></trkpt><trkpt lat="41.3967117" lon="0.6616183"><ele>429.0</ele><time>2026-04-19T10:07:52.962Z</time></trkpt><trkpt lat="41.39679" lon="0.661575"><ele>429.0</ele><time>2026-04-19T10:07:53.961Z</time></trkpt><trkpt lat="41.3968733" lon="0.66153"><ele>429.0</ele><time>2026-04-19T10:07:54.961Z</time></trkpt><trkpt lat="41.3969633" lon="0.6614833"><ele>429.0</ele><time>2026-04-19T10:07:55.961Z</time></trkpt><trkpt lat="41.3970633" lon="0.6614367"><ele>429.0</ele><time>2026-04-19T10:07:56.962Z</time></trkpt><trkpt lat="41.39717" lon="0.661395"><ele>429.0</ele><time>2026-04-19T10:07:57.962Z</time></trkpt><trkpt lat="41.39728" lon="0.661345"><ele>429.0</ele><time>2026-04-19T10:07:58.962Z</time></trkpt><trkpt lat="41.3973933" lon="0.6612917"><ele>428.6</ele><time>2026-04-19T10:07:59.961Z</time></trkpt><trkpt lat="41.3975" lon="0.661245"><ele>428.2</ele><time>2026-04-19T10:08:00.962Z</time></trkpt><trkpt lat="41.3975967" lon="0.6612083"><ele>427.80000000000007</ele><time>2026-04-19T10:08:01.961Z</time></trkpt><trkpt lat="41.3977" lon="0.661145"><ele>427.40000000000003</ele><time>2026-04-19T10:08:02.961Z</time></trkpt><trkpt lat="41.397805" lon="0.6610717"><ele>427.0</ele><time>2026-04-19T10:08:03.961Z</time></trkpt><trkpt lat="41.39791" lon="0.6609983"><ele>425.25</ele><time>2026-04-19T10:08:04.961Z</time></trkpt><trkpt lat="41.3980383" lon="0.66092"><ele>423.5</ele><time>2026-04-19T10:08:05.961Z</time></trkpt><trkpt lat="41.39817" lon="0.6608733"><ele>421.75</ele><time>2026-04-19T10:08:06.962Z</time></trkpt><trkpt lat="41.3983" lon="0.66084"><ele>420.0</ele><time>2026-04-19T10:08:07.962Z</time></trkpt><trkpt lat="41.3984367" lon="0.6608083"><ele>420.0</ele><time>2026-04-19T10:08:08.962Z</time></trkpt><trkpt lat="41.3985667" lon="0.660765"><ele>420.0</ele><time>2026-04-19T10:08:09.962Z</time></trkpt><trkpt lat="41.3987" lon="0.6607117"><ele>420.0</ele><time>2026-04-19T10:08:10.961Z</time></trkpt><trkpt lat="41.39884" lon="0.6606533"><ele>420.0</ele><time>2026-04-19T10:08:11.961Z</time></trkpt><trkpt lat="41.39897" lon="0.6605733"><ele>419.5</ele><time>2026-04-19T10:08:12.961Z</time></trkpt><trkpt lat="41.3990983" lon="0.6604833"><ele>419.0</ele><time>2026-04-19T10:08:13.961Z</time></trkpt><trkpt lat="41.3992117" lon="0.6604117"><ele>418.5</ele><time>2026-04-19T10:08:14.961Z</time></trkpt><trkpt lat="41.399315" lon="0.66033"><ele>418.0</ele><time>2026-04-19T10:08:15.962Z</time></trkpt><trkpt lat="41.399415" lon="0.6602583"><ele>418.00000000000006</ele><time>2026-04-19T10:08:16.961Z</time></trkpt><trkpt lat="41.3995017" lon="0.6602033"><ele>418.0</ele><time>2026-04-19T10:08:17.962Z</time></trkpt><trkpt lat="41.3995817" lon="0.66014"><ele>418.0</ele><time>2026-04-19T10:08:18.961Z</time></trkpt><trkpt lat="41.399645" lon="0.6600567"><ele>418.0</ele><time>2026-04-19T10:08:19.962Z</time></trkpt><trkpt lat="41.3996933" lon="0.6599733"><ele>418.00000000000006</ele><time>2026-04-19T10:08:20.961Z</time></trkpt><trkpt lat="41.3997367" lon="0.6599067"><ele>418.0</ele><time>2026-04-19T10:08:21.961Z</time></trkpt><trkpt lat="41.3998217" lon="0.659845"><ele>415.2</ele><time>2026-04-19T10:08:23.961Z</time></trkpt><trkpt lat="41.3998883" lon="0.6598883"><ele>412.4</ele><time>2026-04-19T10:08:25.961Z</time></trkpt><trkpt lat="41.399935" lon="0.6600717"><ele>409.59999999999997</ele><time>2026-04-19T10:08:27.962Z</time></trkpt><trkpt lat="41.399925" lon="0.6602083"><ele>406.79999999999995</ele><time>2026-04-19T10:08:28.962Z</time></trkpt><trkpt lat="41.3998933" lon="0.6603417"><ele>404.0</ele><time>2026-04-19T10:08:29.961Z</time></trkpt><trkpt lat="41.3998383" lon="0.6604667"><ele>405.25</ele><time>2026-04-19T10:08:30.962Z</time></trkpt><trkpt lat="41.3997667" lon="0.6605733"><ele>406.5</ele><time>2026-04-19T10:08:31.962Z</time></trkpt><trkpt lat="41.3996567" lon="0.660655"><ele>407.75</ele><time>2026-04-19T10:08:32.961Z</time></trkpt><trkpt lat="41.399555" lon="0.6607383"><ele>409.0</ele><time>2026-04-19T10:08:33.962Z</time></trkpt><trkpt lat="41.399465" lon="0.6608383"><ele>409.0</ele><time>2026-04-19T10:08:34.961Z</time></trkpt><trkpt lat="41.3993883" lon="0.6609717"><ele>409.0</ele><time>2026-04-19T10:08:35.962Z</time></trkpt><trkpt lat="41.399325" lon="0.6611217"><ele>409.0</ele><time>2026-04-19T10:08:36.961Z</time></trkpt><trkpt lat="41.3992517" lon="0.6612733"><ele>409.0</ele><time>2026-04-19T10:08:37.962Z</time></trkpt><trkpt lat="41.3991867" lon="0.6614267"><ele>408.6</ele><time>2026-04-19T10:08:38.961Z</time></trkpt><trkpt lat="41.39913" lon="0.6615667"><ele>408.2</ele><time>2026-04-19T10:08:39.962Z</time></trkpt><trkpt lat="41.3990517" lon="0.661685"><ele>407.8</ele><time>2026-04-19T10:08:40.961Z</time></trkpt><trkpt lat="41.398965" lon="0.6617517"><ele>407.40000000000003</ele><time>2026-04-19T10:08:41.962Z</time></trkpt><trkpt lat="41.398865" lon="0.6617883"><ele>407.0</ele><time>2026-04-19T10:08:42.962Z</time></trkpt><trkpt lat="41.398765" lon="0.6618233"><ele>406.99999999999994</ele><time>2026-04-19T10:08:43.962Z</time></trkpt><trkpt lat="41.3986883" lon="0.661845"><ele>407.0</ele><time>2026-04-19T10:08:44.962Z</time></trkpt><trkpt lat="41.398615" lon="0.66189"><ele>407.0</ele><time>2026-04-19T10:08:45.962Z</time></trkpt><trkpt lat="41.3985733" lon="0.6619567"><ele>407.0</ele><time>2026-04-19T10:08:46.961Z</time></trkpt><trkpt lat="41.39855" lon="0.6620867"><ele>406.99999999999994</ele><time>2026-04-19T10:08:48.962Z</time></trkpt><trkpt lat="41.3986083" lon="0.662145"><ele>407.0</ele><time>2026-04-19T10:08:50.962Z</time></trkpt><trkpt lat="41.3986833" lon="0.6621333"><ele>405.75</ele><time>2026-04-19T10:08:51.961Z</time></trkpt><trkpt lat="41.39877" lon="0.6620933"><ele>404.5</ele><time>2026-04-19T10:08:52.961Z</time></trkpt><trkpt lat="41.39887" lon="0.6620117"><ele>403.25</ele><time>2026-04-19T10:08:53.962Z</time></trkpt><trkpt lat="41.3989867" lon="0.66188"><ele>402.0</ele><time>2026-04-19T10:08:54.962Z</time></trkpt><trkpt lat="41.3991183" lon="0.6617233"><ele>399.0</ele><time>2026-04-19T10:08:55.962Z</time></trkpt><trkpt lat="41.3992367" lon="0.661575"><ele>396.0</ele><time>2026-04-19T10:08:56.962Z</time></trkpt><trkpt lat="41.3993467" lon="0.66144"><ele>393.0</ele><time>2026-04-19T10:08:57.962Z</time></trkpt><trkpt lat="41.3994483" lon="0.6613167"><ele>390.0</ele><time>2026-04-19T10:08:58.962Z</time></trkpt><trkpt lat="41.3995383" lon="0.6611867"><ele>389.5</ele><time>2026-04-19T10:08:59.962Z</time></trkpt><trkpt lat="41.3996417" lon="0.66109"><ele>389.0</ele><time>2026-04-19T10:09:00.961Z</time></trkpt><trkpt lat="41.3997417" lon="0.6610267"><ele>388.5</ele><time>2026-04-19T10:09:01.962Z</time></trkpt><trkpt lat="41.39986" lon="0.6609917"><ele>388.0</ele><time>2026-04-19T10:09:02.962Z</time></trkpt><trkpt lat="41.39998" lon="0.660975"><ele>388.0</ele><time>2026-04-19T10:09:03.961Z</time></trkpt><trkpt lat="41.4001017" lon="0.660955"><ele>388.0</ele><time>2026-04-19T10:09:04.961Z</time></trkpt><trkpt lat="41.4002417" lon="0.66094"><ele>388.0</ele><time>2026-04-19T10:09:05.961Z</time></trkpt><trkpt lat="41.40037" lon="0.6609217"><ele>388.0</ele><time>2026-04-19T10:09:06.962Z</time></trkpt><trkpt lat="41.40049" lon="0.6608883"><ele>384.75</ele><time>2026-04-19T10:09:07.961Z</time></trkpt><trkpt lat="41.4005983" lon="0.6608433"><ele>381.5</ele><time>2026-04-19T10:09:08.961Z</time></trkpt><trkpt lat="41.4007067" lon="0.66077"><ele>378.25</ele><time>2026-04-19T10:09:09.962Z</time></trkpt><trkpt lat="41.40079" lon="0.66066"><ele>375.0</ele><time>2026-04-19T10:09:10.962Z</time></trkpt><trkpt lat="41.4008683" lon="0.6605717"><ele>375.0</ele><time>2026-04-19T10:09:11.962Z</time></trkpt><trkpt lat="41.4009633" lon="0.6605067"><ele>375.0</ele><time>2026-04-19T10:09:12.962Z</time></trkpt><trkpt lat="41.4010667" lon="0.66049"><ele>375.0</ele><time>2026-04-19T10:09:13.961Z</time></trkpt><trkpt lat="41.4011867" lon="0.6604833"><ele>375.0</ele><time>2026-04-19T10:09:14.961Z</time></trkpt><trkpt lat="41.4013433" lon="0.6604583"><ele>373.0</ele><time>2026-04-19T10:09:15.961Z</time></trkpt><trkpt lat="41.4014817" lon="0.660405"><ele>371.0</ele><time>2026-04-19T10:09:16.961Z</time></trkpt><trkpt lat="41.4016183" lon="0.6603367"><ele>369.0</ele><time>2026-04-19T10:09:17.96Z</time></trkpt><trkpt lat="41.4017533" lon="0.660265"><ele>367.0</ele><time>2026-04-19T10:09:18.962Z</time></trkpt><trkpt lat="41.4018817" lon="0.6601917"><ele>367.5</ele><time>2026-04-19T10:09:19.962Z</time></trkpt><trkpt lat="41.401995" lon="0.660125"><ele>368.0</ele><time>2026-04-19T10:09:20.962Z</time></trkpt><trkpt lat="41.4021283" lon="0.6600483"><ele>368.5</ele><time>2026-04-19T10:09:21.961Z</time></trkpt><trkpt lat="41.4022567" lon="0.6599817"><ele>369.0</ele><time>2026-04-19T10:09:22.962Z</time></trkpt><trkpt lat="41.402385" lon="0.6599183"><ele>369.0</ele><time>2026-04-19T10:09:23.961Z</time></trkpt><trkpt lat="41.4025183" lon="0.65986"><ele>369.0</ele><time>2026-04-19T10:09:24.962Z</time></trkpt><trkpt lat="41.4026483" lon="0.6598067"><ele>369.0</ele><time>2026-04-19T10:09:25.962Z</time></trkpt><trkpt lat="41.4027817" lon="0.6597667"><ele>369.0</ele><time>2026-04-19T10:09:26.962Z</time></trkpt><trkpt lat="41.4029217" lon="0.6597567"><ele>367.5</ele><time>2026-04-19T10:09:27.961Z</time></trkpt><trkpt lat="41.4030433" lon="0.6597817"><ele>366.0</ele><time>2026-04-19T10:09:28.961Z</time></trkpt><trkpt lat="41.4031733" lon="0.6598217"><ele>364.5</ele><time>2026-04-19T10:09:29.962Z</time></trkpt><trkpt lat="41.403295" lon="0.659875"><ele>363.0</ele><time>2026-04-19T10:09:30.962Z</time></trkpt><trkpt lat="41.4034033" lon="0.65996"><ele>363.0</ele><time>2026-04-19T10:09:31.962Z</time></trkpt><trkpt lat="41.40351" lon="0.6600683"><ele>363.0</ele><time>2026-04-19T10:09:32.962Z</time></trkpt><trkpt lat="41.4036" lon="0.6602183"><ele>363.0</ele><time>2026-04-19T10:09:33.958Z</time></trkpt><trkpt lat="41.403675" lon="0.6603767"><ele>363.0</ele><time>2026-04-19T10:09:34.961Z</time></trkpt><trkpt lat="41.40375" lon="0.660535"><ele>363.0</ele><time>2026-04-19T10:09:35.962Z</time></trkpt><trkpt lat="41.403815" lon="0.660675"><ele>363.0</ele><time>2026-04-19T10:09:36.961Z</time></trkpt><trkpt lat="41.4038767" lon="0.6608017"><ele>363.0</ele><time>2026-04-19T10:09:37.961Z</time></trkpt><trkpt lat="41.4039083" lon="0.6609267"><ele>363.0</ele><time>2026-04-19T10:09:38.961Z</time></trkpt><trkpt lat="41.4039467" lon="0.66108"><ele>362.75</ele><time>2026-04-19T10:09:39.961Z</time></trkpt><trkpt lat="41.403965" lon="0.6612617"><ele>362.5</ele><time>2026-04-19T10:09:40.962Z</time></trkpt><trkpt lat="41.4039533" lon="0.6614383"><ele>362.25</ele><time>2026-04-19T10:09:41.962Z</time></trkpt><trkpt lat="41.40393" lon="0.6616383"><ele>362.0</ele><time>2026-04-19T10:09:42.962Z</time></trkpt><trkpt lat="41.4039133" lon="0.66182"><ele>363.0</ele><time>2026-04-19T10:09:43.962Z</time></trkpt><trkpt lat="41.403885" lon="0.6620083"><ele>364.0</ele><time>2026-04-19T10:09:44.961Z</time></trkpt><trkpt lat="41.4038667" lon="0.6622133"><ele>365.0</ele><time>2026-04-19T10:09:45.961Z</time></trkpt><trkpt lat="41.40385" lon="0.66241"><ele>366.0</ele><time>2026-04-19T10:09:46.961Z</time></trkpt><trkpt lat="41.403815" lon="0.6626017"><ele>370.5</ele><time>2026-04-19T10:09:47.961Z</time></trkpt><trkpt lat="41.403775" lon="0.6627833"><ele>375.0</ele><time>2026-04-19T10:09:48.962Z</time></trkpt><trkpt lat="41.4037383" lon="0.6629417"><ele>379.5</ele><time>2026-04-19T10:09:49.962Z</time></trkpt><trkpt lat="41.4037067" lon="0.6631067"><ele>384.0</ele><time>2026-04-19T10:09:50.962Z</time></trkpt><trkpt lat="41.4036517" lon="0.6632683"><ele>384.0</ele><time>2026-04-19T10:09:51.961Z</time></trkpt><trkpt lat="41.4035817" lon="0.66342"><ele>384.0</ele><time>2026-04-19T10:09:52.961Z</time></trkpt><trkpt lat="41.403525" lon="0.66357"><ele>384.0</ele><time>2026-04-19T10:09:53.961Z</time></trkpt><trkpt lat="41.40348" lon="0.66371"><ele>384.0</ele><time>2026-04-19T10:09:54.962Z</time></trkpt><trkpt lat="41.4034317" lon="0.6638433"><ele>382.79999999999995</ele><time>2026-04-19T10:09:55.961Z</time></trkpt><trkpt lat="41.4033783" lon="0.6639933"><ele>381.59999999999997</ele><time>2026-04-19T10:09:56.961Z</time></trkpt><trkpt lat="41.40333" lon="0.6641217"><ele>380.4</ele><time>2026-04-19T10:09:57.962Z</time></trkpt><trkpt lat="41.4032867" lon="0.6642417"><ele>379.2</ele><time>2026-04-19T10:09:58.962Z</time></trkpt><trkpt lat="41.40324" lon="0.6643567"><ele>378.0</ele><time>2026-04-19T10:09:59.961Z</time></trkpt><trkpt lat="41.403205" lon="0.66447"><ele>377.59999999999997</ele><time>2026-04-19T10:10:00.961Z</time></trkpt><trkpt lat="41.403175" lon="0.664605"><ele>377.2</ele><time>2026-04-19T10:10:01.961Z</time></trkpt><trkpt lat="41.403155" lon="0.6647533"><ele>376.8</ele><time>2026-04-19T10:10:02.962Z</time></trkpt><trkpt lat="41.40316" lon="0.6648867"><ele>376.4</ele><time>2026-04-19T10:10:03.962Z</time></trkpt><trkpt lat="41.403175" lon="0.6650317"><ele>376.0</ele><time>2026-04-19T10:10:04.962Z</time></trkpt><trkpt lat="41.403185" lon="0.66517"><ele>377.20000000000005</ele><time>2026-04-19T10:10:05.962Z</time></trkpt><trkpt lat="41.4031983" lon="0.6653033"><ele>378.40000000000003</ele><time>2026-04-19T10:10:06.962Z</time></trkpt><trkpt lat="41.4032067" lon="0.6654317"><ele>379.6</ele><time>2026-04-19T10:10:07.962Z</time></trkpt><trkpt lat="41.4032233" lon="0.6655533"><ele>380.8</ele><time>2026-04-19T10:10:08.961Z</time></trkpt><trkpt lat="41.4032417" lon="0.6656783"><ele>382.0</ele><time>2026-04-19T10:10:09.962Z</time></trkpt><trkpt lat="41.40328" lon="0.665805"><ele>382.0</ele><time>2026-04-19T10:10:10.961Z</time></trkpt><trkpt lat="41.4033383" lon="0.66591"><ele>382.0</ele><time>2026-04-19T10:10:11.962Z</time></trkpt><trkpt lat="41.4034117" lon="0.665985"><ele>382.0</ele><time>2026-04-19T10:10:12.961Z</time></trkpt><trkpt lat="41.4034933" lon="0.6660267"><ele>382.0</ele><time>2026-04-19T10:10:13.962Z</time></trkpt><trkpt lat="41.403585" lon="0.66602"><ele>382.0</ele><time>2026-04-19T10:10:14.962Z</time></trkpt><trkpt lat="41.403685" lon="0.6659483"><ele>382.0</ele><time>2026-04-19T10:10:15.961Z</time></trkpt><trkpt lat="41.4038" lon="0.6658167"><ele>382.0</ele><time>2026-04-19T10:10:16.961Z</time></trkpt><trkpt lat="41.4038933" lon="0.6656533"><ele>382.0</ele><time>2026-04-19T10:10:17.961Z</time></trkpt><trkpt lat="41.4039317" lon="0.6654617"><ele>382.20000000000005</ele><time>2026-04-19T10:10:18.961Z</time></trkpt><trkpt lat="41.403995" lon="0.665335"><ele>382.4</ele><time>2026-04-19T10:10:19.961Z</time></trkpt><trkpt lat="41.4040567" lon="0.6652217"><ele>382.6</ele><time>2026-04-19T10:10:20.961Z</time></trkpt><trkpt lat="41.4041533" lon="0.6651333"><ele>382.79999999999995</ele><time>2026-04-19T10:10:21.961Z</time></trkpt><trkpt lat="41.404235" lon="0.6650533"><ele>383.0</ele><time>2026-04-19T10:10:22.961Z</time></trkpt><trkpt lat="41.4042983" lon="0.6649433"><ele>383.0</ele><time>2026-04-19T10:10:23.962Z</time></trkpt><trkpt lat="41.40434" lon="0.664825"><ele>383.0</ele><time>2026-04-19T10:10:24.962Z</time></trkpt><trkpt lat="41.4043517" lon="0.6646917"><ele>383.0</ele><time>2026-04-19T10:10:25.961Z</time></trkpt><trkpt lat="41.404315" lon="0.6645433"><ele>383.0</ele><time>2026-04-19T10:10:26.962Z</time></trkpt><trkpt lat="41.4042833" lon="0.6644"><ele>383.0</ele><time>2026-04-19T10:10:27.961Z</time></trkpt><trkpt lat="41.40427" lon="0.6642667"><ele>382.2</ele><time>2026-04-19T10:10:28.962Z</time></trkpt><trkpt lat="41.4042833" lon="0.6641367"><ele>381.4</ele><time>2026-04-19T10:10:29.962Z</time></trkpt><trkpt lat="41.40434" lon="0.66402"><ele>380.59999999999997</ele><time>2026-04-19T10:10:30.961Z</time></trkpt><trkpt lat="41.4044267" lon="0.663935"><ele>379.79999999999995</ele><time>2026-04-19T10:10:31.961Z</time></trkpt><trkpt lat="41.40452" lon="0.66386"><ele>379.0</ele><time>2026-04-19T10:10:32.962Z</time></trkpt><trkpt lat="41.40461" lon="0.6637983"><ele>380.66666666666663</ele><time>2026-04-19T10:10:33.962Z</time></trkpt><trkpt lat="41.404695" lon="0.663735"><ele>382.3333333333333</ele><time>2026-04-19T10:10:34.962Z</time></trkpt><trkpt lat="41.4047733" lon="0.6636917"><ele>384.0</ele><time>2026-04-19T10:10:35.961Z</time></trkpt><trkpt lat="41.40484" lon="0.663645"><ele>385.66666666666663</ele><time>2026-04-19T10:10:36.962Z</time></trkpt><trkpt lat="41.4049" lon="0.6635967"><ele>387.3333333333333</ele><time>2026-04-19T10:10:37.961Z</time></trkpt><trkpt lat="41.404955" lon="0.6635233"><ele>389.0</ele><time>2026-04-19T10:10:38.962Z</time></trkpt><trkpt lat="41.4050067" lon="0.663425"><ele>388.99999999999994</ele><time>2026-04-19T10:10:39.961Z</time></trkpt><trkpt lat="41.40504" lon="0.663325"><ele>389.0</ele><time>2026-04-19T10:10:40.962Z</time></trkpt><trkpt lat="41.4050583" lon="0.6632183"><ele>389.0</ele><time>2026-04-19T10:10:41.962Z</time></trkpt><trkpt lat="41.4050683" lon="0.66311"><ele>389.0</ele><time>2026-04-19T10:10:42.961Z</time></trkpt><trkpt lat="41.4050717" lon="0.663"><ele>388.99999999999994</ele><time>2026-04-19T10:10:43.962Z</time></trkpt><trkpt lat="41.405085" lon="0.66289"><ele>389.0</ele><time>2026-04-19T10:10:44.962Z</time></trkpt><trkpt lat="41.405105" lon="0.6627783"><ele>387.2</ele><time>2026-04-19T10:10:45.961Z</time></trkpt><trkpt lat="41.405145" lon="0.6626783"><ele>385.4</ele><time>2026-04-19T10:10:46.962Z</time></trkpt><trkpt lat="41.4052133" lon="0.6625967"><ele>383.6</ele><time>2026-04-19T10:10:47.962Z</time></trkpt><trkpt lat="41.4053" lon="0.6625117"><ele>381.8</ele><time>2026-04-19T10:10:48.962Z</time></trkpt><trkpt lat="41.40539" lon="0.6624317"><ele>380.0</ele><time>2026-04-19T10:10:49.961Z</time></trkpt><trkpt lat="41.40547" lon="0.6623367"><ele>381.2</ele><time>2026-04-19T10:10:50.961Z</time></trkpt><trkpt lat="41.4055417" lon="0.66223"><ele>382.4</ele><time>2026-04-19T10:10:51.962Z</time></trkpt><trkpt lat="41.4055867" lon="0.6621183"><ele>383.6</ele><time>2026-04-19T10:10:52.962Z</time></trkpt><trkpt lat="41.4056367" lon="0.6620167"><ele>384.8</ele><time>2026-04-19T10:10:53.962Z</time></trkpt><trkpt lat="41.405695" lon="0.661925"><ele>386.0</ele><time>2026-04-19T10:10:54.962Z</time></trkpt><trkpt lat="41.4057717" lon="0.6618567"><ele>385.99999999999994</ele><time>2026-04-19T10:10:55.961Z</time></trkpt><trkpt lat="41.4058533" lon="0.661825"><ele>386.0</ele><time>2026-04-19T10:10:56.961Z</time></trkpt><trkpt lat="41.4059417" lon="0.6618267"><ele>386.0</ele><time>2026-04-19T10:10:57.962Z</time></trkpt><trkpt lat="41.40602" lon="0.6618667"><ele>386.0</ele><time>2026-04-19T10:10:58.962Z</time></trkpt><trkpt lat="41.4060833" lon="0.6619333"><ele>385.99999999999994</ele><time>2026-04-19T10:10:59.962Z</time></trkpt><trkpt lat="41.406125" lon="0.6620267"><ele>386.0</ele><time>2026-04-19T10:11:00.962Z</time></trkpt><trkpt lat="41.4061517" lon="0.6621333"><ele>388.49999999999994</ele><time>2026-04-19T10:11:01.962Z</time></trkpt><trkpt lat="41.4061633" lon="0.6622367"><ele>391.0</ele><time>2026-04-19T10:11:02.961Z</time></trkpt><trkpt lat="41.4061717" lon="0.6623333"><ele>393.5</ele><time>2026-04-19T10:11:03.962Z</time></trkpt><trkpt lat="41.4061817" lon="0.66243"><ele>396.0</ele><time>2026-04-19T10:11:04.962Z</time></trkpt><trkpt lat="41.4061967" lon="0.6625267"><ele>398.49999999999994</ele><time>2026-04-19T10:11:05.962Z</time></trkpt><trkpt lat="41.4062217" lon="0.6626267"><ele>401.0</ele><time>2026-04-19T10:11:06.962Z</time></trkpt><trkpt lat="41.4062583" lon="0.6627217"><ele>399.8</ele><time>2026-04-19T10:11:07.961Z</time></trkpt><trkpt lat="41.4062933" lon="0.66282"><ele>398.6</ele><time>2026-04-19T10:11:08.961Z</time></trkpt><trkpt lat="41.406335" lon="0.66293"><ele>397.4</ele><time>2026-04-19T10:11:09.961Z</time></trkpt><trkpt lat="41.4063717" lon="0.6630483"><ele>396.2</ele><time>2026-04-19T10:11:10.961Z</time></trkpt><trkpt lat="41.406395" lon="0.6631883"><ele>395.0</ele><time>2026-04-19T10:11:11.962Z</time></trkpt><trkpt lat="41.4064167" lon="0.6633267"><ele>395.0</ele><time>2026-04-19T10:11:12.962Z</time></trkpt><trkpt lat="41.4064417" lon="0.663445"><ele>395.0</ele><time>2026-04-19T10:11:13.961Z</time></trkpt><trkpt lat="41.4064633" lon="0.6635567"><ele>395.0</ele><time>2026-04-19T10:11:14.962Z</time></trkpt><trkpt lat="41.4064817" lon="0.6636767"><ele>395.0</ele><time>2026-04-19T10:11:15.962Z</time></trkpt><trkpt lat="41.4064967" lon="0.6638"><ele>395.0</ele><time>2026-04-19T10:11:16.962Z</time></trkpt><trkpt lat="41.406505" lon="0.6639283"><ele>396.2</ele><time>2026-04-19T10:11:17.962Z</time></trkpt><trkpt lat="41.4065117" lon="0.6640633"><ele>397.4</ele><time>2026-04-19T10:11:18.962Z</time></trkpt><trkpt lat="41.4065033" lon="0.6641817"><ele>398.6</ele><time>2026-04-19T10:11:19.962Z</time></trkpt><trkpt lat="41.40651" lon="0.6642967"><ele>399.8</ele><time>2026-04-19T10:11:20.961Z</time></trkpt><trkpt lat="41.406505" lon="0.6644217"><ele>401.0</ele><time>2026-04-19T10:11:21.962Z</time></trkpt><trkpt lat="41.40649" lon="0.6645433"><ele>402.0</ele><time>2026-04-19T10:11:22.961Z</time></trkpt><trkpt lat="41.4064533" lon="0.6646667"><ele>403.0</ele><time>2026-04-19T10:11:23.962Z</time></trkpt><trkpt lat="41.4064233" lon="0.6647917"><ele>404.0</ele><time>2026-04-19T10:11:24.962Z</time></trkpt><trkpt lat="41.4064033" lon="0.6649117"><ele>405.0</ele><time>2026-04-19T10:11:25.961Z</time></trkpt><trkpt lat="41.4063933" lon="0.6650383"><ele>406.0</ele><time>2026-04-19T10:11:26.961Z</time></trkpt><trkpt lat="41.4063883" lon="0.6651517"><ele>406.0</ele><time>2026-04-19T10:11:27.962Z</time></trkpt><trkpt lat="41.4063883" lon="0.6652667"><ele>406.0</ele><time>2026-04-19T10:11:28.962Z</time></trkpt><trkpt lat="41.4064" lon="0.6653867"><ele>406.0</ele><time>2026-04-19T10:11:29.962Z</time></trkpt><trkpt lat="41.40642" lon="0.66551"><ele>406.0</ele><time>2026-04-19T10:11:30.962Z</time></trkpt><trkpt lat="41.4064417" lon="0.6656433"><ele>406.0</ele><time>2026-04-19T10:11:31.962Z</time></trkpt><trkpt lat="41.40647" lon="0.6657833"><ele>407.6</ele><time>2026-04-19T10:11:32.962Z</time></trkpt><trkpt lat="41.4064967" lon="0.6659067"><ele>409.20000000000005</ele><time>2026-04-19T10:11:33.961Z</time></trkpt><trkpt lat="41.4065333" lon="0.6660283"><ele>410.79999999999995</ele><time>2026-04-19T10:11:34.961Z</time></trkpt><trkpt lat="41.406565" lon="0.6661583"><ele>412.4</ele><time>2026-04-19T10:11:35.961Z</time></trkpt><trkpt lat="41.4065817" lon="0.666285"><ele>414.0</ele><time>2026-04-19T10:11:36.962Z</time></trkpt><trkpt lat="41.406595" lon="0.6664217"><ele>415.1666666666667</ele><time>2026-04-19T10:11:37.962Z</time></trkpt><trkpt lat="41.4066067" lon="0.6665633"><ele>416.33333333333337</ele><time>2026-04-19T10:11:38.961Z</time></trkpt><trkpt lat="41.4066167" lon="0.6666833"><ele>417.5</ele><time>2026-04-19T10:11:39.962Z</time></trkpt><trkpt lat="41.4066233" lon="0.666785"><ele>418.6666666666667</ele><time>2026-04-19T10:11:40.961Z</time></trkpt><trkpt lat="41.4066317" lon="0.6668917"><ele>419.83333333333337</ele><time>2026-04-19T10:11:41.962Z</time></trkpt><trkpt lat="41.4066383" lon="0.667"><ele>421.0</ele><time>2026-04-19T10:11:42.962Z</time></trkpt><trkpt lat="41.4066417" lon="0.6671"><ele>422.1666666666667</ele><time>2026-04-19T10:11:43.962Z</time></trkpt><trkpt lat="41.406645" lon="0.6672"><ele>423.33333333333337</ele><time>2026-04-19T10:11:44.962Z</time></trkpt><trkpt lat="41.40665" lon="0.6673083"><ele>424.5</ele><time>2026-04-19T10:11:45.961Z</time></trkpt><trkpt lat="41.4066617" lon="0.6674233"><ele>425.66666666666663</ele><time>2026-04-19T10:11:46.962Z</time></trkpt><trkpt lat="41.406675" lon="0.667545"><ele>426.8333333333333</ele><time>2026-04-19T10:11:47.962Z</time></trkpt><trkpt lat="41.40669" lon="0.66766"><ele>428.0</ele><time>2026-04-19T10:11:48.961Z</time></trkpt><trkpt lat="41.4067017" lon="0.6677817"><ele>429.59999999999997</ele><time>2026-04-19T10:11:49.961Z</time></trkpt><trkpt lat="41.4067083" lon="0.6678967"><ele>431.19999999999993</ele><time>2026-04-19T10:11:50.962Z</time></trkpt><trkpt lat="41.4067233" lon="0.6680217"><ele>432.8</ele><time>2026-04-19T10:11:51.961Z</time></trkpt><trkpt lat="41.4067417" lon="0.6681517"><ele>434.4</ele><time>2026-04-19T10:11:52.962Z</time></trkpt><trkpt lat="41.40675" lon="0.6682767"><ele>436.0</ele><time>2026-04-19T10:11:53.961Z</time></trkpt><trkpt lat="41.4067533" lon="0.6684033"><ele>436.0</ele><time>2026-04-19T10:11:54.962Z</time></trkpt><trkpt lat="41.4067617" lon="0.6685333"><ele>436.0</ele><time>2026-04-19T10:11:55.962Z</time></trkpt><trkpt lat="41.40679" lon="0.668665"><ele>436.0</ele><time>2026-04-19T10:11:56.961Z</time></trkpt><trkpt lat="41.4068333" lon="0.6687817"><ele>436.0</ele><time>2026-04-19T10:11:57.962Z</time></trkpt><trkpt lat="41.4068933" lon="0.6688967"><ele>436.0</ele><time>2026-04-19T10:11:58.961Z</time></trkpt><trkpt lat="41.4069667" lon="0.6690033"><ele>436.5</ele><time>2026-04-19T10:11:59.962Z</time></trkpt><trkpt lat="41.40703" lon="0.6691083"><ele>437.0</ele><time>2026-04-19T10:12:00.961Z</time></trkpt><trkpt lat="41.4070967" lon="0.669225"><ele>437.5</ele><time>2026-04-19T10:12:01.962Z</time></trkpt><trkpt lat="41.4071667" lon="0.6693567"><ele>438.0</ele><time>2026-04-19T10:12:02.962Z</time></trkpt><trkpt lat="41.4072517" lon="0.6694933"><ele>438.0</ele><time>2026-04-19T10:12:03.962Z</time></trkpt><trkpt lat="41.407355" lon="0.6696033"><ele>438.0</ele><time>2026-04-19T10:12:04.962Z</time></trkpt><trkpt lat="41.407485" lon="0.6696667"><ele>438.0</ele><time>2026-04-19T10:12:05.961Z</time></trkpt><trkpt lat="41.4076283" lon="0.6697133"><ele>438.0</ele><time>2026-04-19T10:12:06.962Z</time></trkpt><trkpt lat="41.4077533" lon="0.6697417"><ele>438.0</ele><time>2026-04-19T10:12:07.961Z</time></trkpt><trkpt lat="41.4078317" lon="0.6697717"><ele>437.99999999999994</ele><time>2026-04-19T10:12:08.961Z</time></trkpt><trkpt lat="41.4079233" lon="0.669785"><ele>437.99999999999994</ele><time>2026-04-19T10:12:09.961Z</time></trkpt><trkpt lat="41.4080233" lon="0.669775"><ele>438.0</ele><time>2026-04-19T10:12:10.961Z</time></trkpt><trkpt lat="41.408135" lon="0.66974"><ele>438.0</ele><time>2026-04-19T10:12:11.962Z</time></trkpt><trkpt lat="41.4082417" lon="0.6696833"><ele>439.25</ele><time>2026-04-19T10:12:12.962Z</time></trkpt><trkpt lat="41.40836" lon="0.6696083"><ele>440.5</ele><time>2026-04-19T10:12:13.962Z</time></trkpt><trkpt lat="41.408485" lon="0.6695317"><ele>441.75</ele><time>2026-04-19T10:12:14.961Z</time></trkpt><trkpt lat="41.408615" lon="0.6694483"><ele>443.0</ele><time>2026-04-19T10:12:15.962Z</time></trkpt><trkpt lat="41.4087333" lon="0.6693717"><ele>443.5</ele><time>2026-04-19T10:12:16.962Z</time></trkpt><trkpt lat="41.40884" lon="0.6693017"><ele>444.0</ele><time>2026-04-19T10:12:17.961Z</time></trkpt><trkpt lat="41.40894" lon="0.6692383"><ele>444.5</ele><time>2026-04-19T10:12:18.962Z</time></trkpt><trkpt lat="41.4090483" lon="0.669175"><ele>445.0</ele><time>2026-04-19T10:12:19.962Z</time></trkpt><trkpt lat="41.4091583" lon="0.6691167"><ele>445.0</ele><time>2026-04-19T10:12:20.962Z</time></trkpt><trkpt lat="41.4092567" lon="0.6690633"><ele>445.0</ele><time>2026-04-19T10:12:21.962Z</time></trkpt><trkpt lat="41.4093533" lon="0.6690383"><ele>445.0</ele><time>2026-04-19T10:12:22.961Z</time></trkpt><trkpt lat="41.4094567" lon="0.6690383"><ele>445.0</ele><time>2026-04-19T10:12:23.962Z</time></trkpt><trkpt lat="41.4095717" lon="0.6690583"><ele>445.0</ele><time>2026-04-19T10:12:24.961Z</time></trkpt><trkpt lat="41.4096833" lon="0.6691033"><ele>445.25</ele><time>2026-04-19T10:12:25.961Z</time></trkpt><trkpt lat="41.4098" lon="0.6691517"><ele>445.5</ele><time>2026-04-19T10:12:26.961Z</time></trkpt><trkpt lat="41.4099167" lon="0.6691967"><ele>445.75</ele><time>2026-04-19T10:12:27.962Z</time></trkpt><trkpt lat="41.41004" lon="0.6692383"><ele>446.0</ele><time>2026-04-19T10:12:28.961Z</time></trkpt><trkpt lat="41.4101567" lon="0.6692817"><ele>446.0</ele><time>2026-04-19T10:12:29.961Z</time></trkpt><trkpt lat="41.4102717" lon="0.6693167"><ele>446.0</ele><time>2026-04-19T10:12:30.961Z</time></trkpt><trkpt lat="41.410385" lon="0.6693533"><ele>446.0</ele><time>2026-04-19T10:12:31.961Z</time></trkpt><trkpt lat="41.4104917" lon="0.6694017"><ele>446.0</ele><time>2026-04-19T10:12:32.962Z</time></trkpt><trkpt lat="41.4105783" lon="0.6694667"><ele>446.0</ele><time>2026-04-19T10:12:33.962Z</time></trkpt><trkpt lat="41.41067" lon="0.66954"><ele>445.25</ele><time>2026-04-19T10:12:34.962Z</time></trkpt><trkpt lat="41.4107383" lon="0.669645"><ele>444.5</ele><time>2026-04-19T10:12:35.962Z</time></trkpt><trkpt lat="41.4107933" lon="0.6697717"><ele>443.75</ele><time>2026-04-19T10:12:36.962Z</time></trkpt><trkpt lat="41.41085" lon="0.6699283"><ele>443.0</ele><time>2026-04-19T10:12:37.962Z</time></trkpt><trkpt lat="41.4108983" lon="0.6700983"><ele>443.0</ele><time>2026-04-19T10:12:38.961Z</time></trkpt><trkpt lat="41.4109583" lon="0.6702533"><ele>443.0</ele><time>2026-04-19T10:12:39.961Z</time></trkpt><trkpt lat="41.4110233" lon="0.670405"><ele>443.0</ele><time>2026-04-19T10:12:40.961Z</time></trkpt><trkpt lat="41.4110867" lon="0.670545"><ele>443.0</ele><time>2026-04-19T10:12:41.962Z</time></trkpt><trkpt lat="41.411145" lon="0.6706917"><ele>443.0</ele><time>2026-04-19T10:12:42.962Z</time></trkpt><trkpt lat="41.4111983" lon="0.6708467"><ele>443.0</ele><time>2026-04-19T10:12:43.962Z</time></trkpt><trkpt lat="41.4112717" lon="0.6709983"><ele>443.0</ele><time>2026-04-19T10:12:44.962Z</time></trkpt><trkpt lat="41.4113333" lon="0.6711567"><ele>443.0</ele><time>2026-04-19T10:12:45.961Z</time></trkpt><trkpt lat="41.4113967" lon="0.671315"><ele>441.5</ele><time>2026-04-19T10:12:46.962Z</time></trkpt><trkpt lat="41.411455" lon="0.6714633"><ele>440.0</ele><time>2026-04-19T10:12:47.962Z</time></trkpt><trkpt lat="41.411505" lon="0.6716183"><ele>438.5</ele><time>2026-04-19T10:12:48.961Z</time></trkpt><trkpt lat="41.411565" lon="0.6717683"><ele>437.0</ele><time>2026-04-19T10:12:49.962Z</time></trkpt><trkpt lat="41.4116317" lon="0.67192"><ele>437.75</ele><time>2026-04-19T10:12:50.961Z</time></trkpt><trkpt lat="41.41169" lon="0.6720733"><ele>438.5</ele><time>2026-04-19T10:12:51.962Z</time></trkpt><trkpt lat="41.4117517" lon="0.6722283"><ele>439.25</ele><time>2026-04-19T10:12:52.961Z</time></trkpt><trkpt lat="41.4118217" lon="0.6723833"><ele>440.0</ele><time>2026-04-19T10:12:53.962Z</time></trkpt><trkpt lat="41.41188" lon="0.6725383"><ele>440.0</ele><time>2026-04-19T10:12:54.962Z</time></trkpt><trkpt lat="41.4119433" lon="0.6726867"><ele>440.0</ele><time>2026-04-19T10:12:55.961Z</time></trkpt><trkpt lat="41.4120083" lon="0.6728317"><ele>440.0</ele><time>2026-04-19T10:12:56.962Z</time></trkpt><trkpt lat="41.4120817" lon="0.6729667"><ele>440.0</ele><time>2026-04-19T10:12:57.961Z</time></trkpt><trkpt lat="41.4121317" lon="0.673105"><ele>439.5</ele><time>2026-04-19T10:12:58.961Z</time></trkpt><trkpt lat="41.41214" lon="0.6732617"><ele>439.0</ele><time>2026-04-19T10:12:59.961Z</time></trkpt><trkpt lat="41.4121417" lon="0.6734133"><ele>438.5</ele><time>2026-04-19T10:13:00.962Z</time></trkpt><trkpt lat="41.4121317" lon="0.6735767"><ele>438.0</ele><time>2026-04-19T10:13:01.962Z</time></trkpt><trkpt lat="41.4121267" lon="0.6737233"><ele>437.2</ele><time>2026-04-19T10:13:02.961Z</time></trkpt><trkpt lat="41.4121183" lon="0.6738583"><ele>436.4</ele><time>2026-04-19T10:13:03.961Z</time></trkpt><trkpt lat="41.4121133" lon="0.6739883"><ele>435.59999999999997</ele><time>2026-04-19T10:13:04.961Z</time></trkpt><trkpt lat="41.41211" lon="0.6741117"><ele>434.79999999999995</ele><time>2026-04-19T10:13:05.962Z</time></trkpt><trkpt lat="41.412095" lon="0.6742483"><ele>434.0</ele><time>2026-04-19T10:13:06.962Z</time></trkpt><trkpt lat="41.4120533" lon="0.6743783"><ele>433.5</ele><time>2026-04-19T10:13:07.962Z</time></trkpt><trkpt lat="41.4119883" lon="0.6744833"><ele>433.0</ele><time>2026-04-19T10:13:08.962Z</time></trkpt><trkpt lat="41.4119" lon="0.6745783"><ele>432.5</ele><time>2026-04-19T10:13:09.961Z</time></trkpt><trkpt lat="41.4118" lon="0.674675"><ele>432.0</ele><time>2026-04-19T10:13:10.962Z</time></trkpt><trkpt lat="41.4117033" lon="0.674775"><ele>432.0</ele><time>2026-04-19T10:13:11.962Z</time></trkpt><trkpt lat="41.4116117" lon="0.6748717"><ele>432.0</ele><time>2026-04-19T10:13:12.961Z</time></trkpt><trkpt lat="41.411515" lon="0.6749633"><ele>432.0</ele><time>2026-04-19T10:13:13.961Z</time></trkpt><trkpt lat="41.4114283" lon="0.6750617"><ele>432.0</ele><time>2026-04-19T10:13:14.962Z</time></trkpt><trkpt lat="41.411335" lon="0.6751483"><ele>431.20000000000005</ele><time>2026-04-19T10:13:15.961Z</time></trkpt><trkpt lat="41.4112417" lon="0.6752033"><ele>430.40000000000003</ele><time>2026-04-19T10:13:16.961Z</time></trkpt><trkpt lat="41.411135" lon="0.675215"><ele>429.59999999999997</ele><time>2026-04-19T10:13:17.962Z</time></trkpt><trkpt lat="41.4110367" lon="0.675205"><ele>428.79999999999995</ele><time>2026-04-19T10:13:18.961Z</time></trkpt><trkpt lat="41.4109367" lon="0.6751867"><ele>428.0</ele><time>2026-04-19T10:13:19.962Z</time></trkpt><trkpt lat="41.410835" lon="0.6751917"><ele>428.0</ele><time>2026-04-19T10:13:20.962Z</time></trkpt><trkpt lat="41.410745" lon="0.6752183"><ele>427.99999999999994</ele><time>2026-04-19T10:13:21.961Z</time></trkpt><trkpt lat="41.410675" lon="0.6752817"><ele>427.99999999999994</ele><time>2026-04-19T10:13:22.962Z</time></trkpt><trkpt lat="41.4106233" lon="0.6753683"><ele>428.0</ele><time>2026-04-19T10:13:23.961Z</time></trkpt><trkpt lat="41.4105817" lon="0.6754783"><ele>428.0</ele><time>2026-04-19T10:13:24.961Z</time></trkpt><trkpt lat="41.4105383" lon="0.67561"><ele>427.79999999999995</ele><time>2026-04-19T10:13:25.961Z</time></trkpt><trkpt lat="41.4104967" lon="0.6757467"><ele>427.59999999999997</ele><time>2026-04-19T10:13:26.962Z</time></trkpt><trkpt lat="41.4104583" lon="0.6758983"><ele>427.40000000000003</ele><time>2026-04-19T10:13:27.962Z</time></trkpt><trkpt lat="41.4104217" lon="0.67604"><ele>427.20000000000005</ele><time>2026-04-19T10:13:28.961Z</time></trkpt><trkpt lat="41.410365" lon="0.6761567"><ele>427.0</ele><time>2026-04-19T10:13:29.962Z</time></trkpt><trkpt lat="41.4102767" lon="0.6762267"><ele>423.0</ele><time>2026-04-19T10:13:30.961Z</time></trkpt><trkpt lat="41.4101833" lon="0.6763083"><ele>419.0</ele><time>2026-04-19T10:13:31.962Z</time></trkpt><trkpt lat="41.4100733" lon="0.6763783"><ele>415.0</ele><time>2026-04-19T10:13:32.961Z</time></trkpt><trkpt lat="41.4099683" lon="0.6764567"><ele>411.0</ele><time>2026-04-19T10:13:33.961Z</time></trkpt><trkpt lat="41.4098817" lon="0.6765267"><ele>411.0</ele><time>2026-04-19T10:13:34.961Z</time></trkpt><trkpt lat="41.40979" lon="0.6766017"><ele>411.0</ele><time>2026-04-19T10:13:35.962Z</time></trkpt><trkpt lat="41.4097233" lon="0.6766983"><ele>411.0</ele><time>2026-04-19T10:13:36.961Z</time></trkpt><trkpt lat="41.4096567" lon="0.6767717"><ele>411.0</ele><time>2026-04-19T10:13:37.961Z</time></trkpt><trkpt lat="41.4095917" lon="0.6768317"><ele>411.0</ele><time>2026-04-19T10:13:38.961Z</time></trkpt><trkpt lat="41.4095167" lon="0.6768817"><ele>411.0</ele><time>2026-04-19T10:13:39.961Z</time></trkpt><trkpt lat="41.4094333" lon="0.6769133"><ele>411.0</ele><time>2026-04-19T10:13:40.962Z</time></trkpt><trkpt lat="41.4093617" lon="0.67696"><ele>411.0</ele><time>2026-04-19T10:13:41.961Z</time></trkpt><trkpt lat="41.4092883" lon="0.6770067"><ele>411.0</ele><time>2026-04-19T10:13:42.962Z</time></trkpt><trkpt lat="41.4092233" lon="0.6770533"><ele>411.0</ele><time>2026-04-19T10:13:43.961Z</time></trkpt><trkpt lat="41.4091567" lon="0.6771117"><ele>411.0</ele><time>2026-04-19T10:13:44.961Z</time></trkpt><trkpt lat="41.4091017" lon="0.6771617"><ele>411.0</ele><time>2026-04-19T10:13:45.962Z</time></trkpt><trkpt lat="41.4089933" lon="0.6772533"><ele>411.0</ele><time>2026-04-19T10:13:47.962Z</time></trkpt><trkpt lat="41.4089367" lon="0.6773183"><ele>411.0</ele><time>2026-04-19T10:13:48.962Z</time></trkpt><trkpt lat="41.408875" lon="0.6773633"><ele>411.0</ele><time>2026-04-19T10:13:49.961Z</time></trkpt><trkpt lat="41.4088133" lon="0.6774233"><ele>411.0</ele><time>2026-04-19T10:13:50.961Z</time></trkpt><trkpt lat="41.4087567" lon="0.6774917"><ele>411.0</ele><time>2026-04-19T10:13:51.961Z</time></trkpt><trkpt lat="41.4087117" lon="0.6775667"><ele>412.1428571428571</ele><time>2026-04-19T10:13:52.961Z</time></trkpt><trkpt lat="41.4086817" lon="0.6776467"><ele>413.2857142857143</ele><time>2026-04-19T10:13:53.962Z</time></trkpt><trkpt lat="41.4086733" lon="0.67774"><ele>414.42857142857144</ele><time>2026-04-19T10:13:54.962Z</time></trkpt><trkpt lat="41.4086967" lon="0.6778267"><ele>415.57142857142856</ele><time>2026-04-19T10:13:55.961Z</time></trkpt><trkpt lat="41.4087367" lon="0.6779183"><ele>416.7142857142857</ele><time>2026-04-19T10:13:56.962Z</time></trkpt><trkpt lat="41.408795" lon="0.677995"><ele>417.85714285714283</ele><time>2026-04-19T10:13:57.961Z</time></trkpt><trkpt lat="41.4088617" lon="0.678035"><ele>419.0</ele><time>2026-04-19T10:13:58.961Z</time></trkpt><trkpt lat="41.4089433" lon="0.67803"><ele>419.66666666666663</ele><time>2026-04-19T10:13:59.962Z</time></trkpt><trkpt lat="41.4090133" lon="0.6779983"><ele>420.3333333333333</ele><time>2026-04-19T10:14:00.961Z</time></trkpt><trkpt lat="41.40909" lon="0.6779517"><ele>421.0</ele><time>2026-04-19T10:14:01.961Z</time></trkpt><trkpt lat="41.4091683" lon="0.6778983"><ele>421.66666666666663</ele><time>2026-04-19T10:14:02.962Z</time></trkpt><trkpt lat="41.4092417" lon="0.6778517"><ele>422.3333333333333</ele><time>2026-04-19T10:14:03.962Z</time></trkpt><trkpt lat="41.4093217" lon="0.6778067"><ele>423.0</ele><time>2026-04-19T10:14:04.962Z</time></trkpt><trkpt lat="41.409405" lon="0.6777667"><ele>421.0</ele><time>2026-04-19T10:14:05.961Z</time></trkpt><trkpt lat="41.4094933" lon="0.677735"><ele>419.0</ele><time>2026-04-19T10:14:06.961Z</time></trkpt><trkpt lat="41.4095767" lon="0.6777183"><ele>417.0</ele><time>2026-04-19T10:14:07.961Z</time></trkpt><trkpt lat="41.409665" lon="0.6777"><ele>415.0</ele><time>2026-04-19T10:14:08.961Z</time></trkpt><trkpt lat="41.4097483" lon="0.6776933"><ele>413.0</ele><time>2026-04-19T10:14:09.962Z</time></trkpt><trkpt lat="41.4098333" lon="0.6776783"><ele>411.0</ele><time>2026-04-19T10:14:10.961Z</time></trkpt><trkpt lat="41.4099083" lon="0.677675"><ele>409.8</ele><time>2026-04-19T10:14:11.962Z</time></trkpt><trkpt lat="41.40999" lon="0.6776667"><ele>408.6</ele><time>2026-04-19T10:14:12.962Z</time></trkpt><trkpt lat="41.4100783" lon="0.67766"><ele>407.4</ele><time>2026-04-19T10:14:13.962Z</time></trkpt><trkpt lat="41.41019" lon="0.67766"><ele>406.2</ele><time>2026-04-19T10:14:14.961Z</time></trkpt><trkpt lat="41.4103067" lon="0.6776683"><ele>405.0</ele><time>2026-04-19T10:14:15.961Z</time></trkpt><trkpt lat="41.410425" lon="0.6777"><ele>405.75</ele><time>2026-04-19T10:14:16.961Z</time></trkpt><trkpt lat="41.410545" lon="0.6777417"><ele>406.5</ele><time>2026-04-19T10:14:17.962Z</time></trkpt><trkpt lat="41.4106633" lon="0.6778033"><ele>407.25</ele><time>2026-04-19T10:14:18.961Z</time></trkpt><trkpt lat="41.4107933" lon="0.677875"><ele>408.0</ele><time>2026-04-19T10:14:19.961Z</time></trkpt><trkpt lat="41.41091" lon="0.6779667"><ele>408.0</ele><time>2026-04-19T10:14:20.962Z</time></trkpt><trkpt lat="41.4110233" lon="0.6780533"><ele>408.0</ele><time>2026-04-19T10:14:21.961Z</time></trkpt><trkpt lat="41.41114" lon="0.6781317"><ele>408.0</ele><time>2026-04-19T10:14:22.962Z</time></trkpt><trkpt lat="41.411255" lon="0.6782217"><ele>408.0</ele><time>2026-04-19T10:14:23.961Z</time></trkpt><trkpt lat="41.4113583" lon="0.6783217"><ele>404.5</ele><time>2026-04-19T10:14:24.961Z</time></trkpt><trkpt lat="41.41145" lon="0.6784183"><ele>401.0</ele><time>2026-04-19T10:14:25.962Z</time></trkpt><trkpt lat="41.411555" lon="0.678525"><ele>397.5</ele><time>2026-04-19T10:14:26.961Z</time></trkpt><trkpt lat="41.4116633" lon="0.678625"><ele>394.0</ele><time>2026-04-19T10:14:27.961Z</time></trkpt><trkpt lat="41.4117717" lon="0.6787233"><ele>394.0</ele><time>2026-04-19T10:14:28.962Z</time></trkpt><trkpt lat="41.4118767" lon="0.6788267"><ele>394.0</ele><time>2026-04-19T10:14:29.962Z</time></trkpt><trkpt lat="41.4119683" lon="0.67893"><ele>394.0</ele><time>2026-04-19T10:14:30.962Z</time></trkpt><trkpt lat="41.4120533" lon="0.679045"><ele>394.0</ele><time>2026-04-19T10:14:31.961Z</time></trkpt><trkpt lat="41.4121067" lon="0.6791883"><ele>394.0</ele><time>2026-04-19T10:14:32.962Z</time></trkpt><trkpt lat="41.4121433" lon="0.6793417"><ele>394.0</ele><time>2026-04-19T10:14:33.961Z</time></trkpt><trkpt lat="41.412195" lon="0.67949"><ele>394.0</ele><time>2026-04-19T10:14:34.961Z</time></trkpt><trkpt lat="41.4122383" lon="0.6796217"><ele>394.0</ele><time>2026-04-19T10:14:35.962Z</time></trkpt><trkpt lat="41.41228" lon="0.6797383"><ele>394.0</ele><time>2026-04-19T10:14:36.961Z</time></trkpt><trkpt lat="41.412325" lon="0.6798433"><ele>392.1666666666667</ele><time>2026-04-19T10:14:37.962Z</time></trkpt><trkpt lat="41.4123783" lon="0.6799433"><ele>390.33333333333337</ele><time>2026-04-19T10:14:38.962Z</time></trkpt><trkpt lat="41.41246" lon="0.6800117"><ele>388.5</ele><time>2026-04-19T10:14:39.961Z</time></trkpt><trkpt lat="41.4125367" lon="0.68005"><ele>386.6666666666667</ele><time>2026-04-19T10:14:40.961Z</time></trkpt><trkpt lat="41.4126117" lon="0.6800583"><ele>384.83333333333337</ele><time>2026-04-19T10:14:41.961Z</time></trkpt><trkpt lat="41.41269" lon="0.68003"><ele>383.0</ele><time>2026-04-19T10:14:42.961Z</time></trkpt><trkpt lat="41.41277" lon="0.6800033"><ele>383.0</ele><time>2026-04-19T10:14:43.962Z</time></trkpt><trkpt lat="41.4128533" lon="0.6799717"><ele>383.0</ele><time>2026-04-19T10:14:44.961Z</time></trkpt><trkpt lat="41.412945" lon="0.6799183"><ele>383.0</ele><time>2026-04-19T10:14:45.961Z</time></trkpt><trkpt lat="41.4130333" lon="0.6798833"><ele>383.0</ele><time>2026-04-19T10:14:46.962Z</time></trkpt><trkpt lat="41.413125" lon="0.67985"><ele>383.0</ele><time>2026-04-19T10:14:47.962Z</time></trkpt><trkpt lat="41.4132217" lon="0.6798217"><ele>382.0</ele><time>2026-04-19T10:14:48.961Z</time></trkpt><trkpt lat="41.4133133" lon="0.6798017"><ele>381.0</ele><time>2026-04-19T10:14:49.961Z</time></trkpt><trkpt lat="41.4134217" lon="0.6797767"><ele>380.0</ele><time>2026-04-19T10:14:50.962Z</time></trkpt><trkpt lat="41.41353" lon="0.67978"><ele>379.0</ele><time>2026-04-19T10:14:51.962Z</time></trkpt><trkpt lat="41.4136417" lon="0.67979"><ele>378.0</ele><time>2026-04-19T10:14:52.961Z</time></trkpt><trkpt lat="41.4137617" lon="0.679815"><ele>376.79999999999995</ele><time>2026-04-19T10:14:53.962Z</time></trkpt><trkpt lat="41.41387" lon="0.67985"><ele>375.6</ele><time>2026-04-19T10:14:54.962Z</time></trkpt><trkpt lat="41.41397" lon="0.6798783"><ele>374.4</ele><time>2026-04-19T10:14:55.961Z</time></trkpt><trkpt lat="41.41407" lon="0.6799017"><ele>373.20000000000005</ele><time>2026-04-19T10:14:56.962Z</time></trkpt><trkpt lat="41.4141533" lon="0.67994"><ele>372.0</ele><time>2026-04-19T10:14:57.962Z</time></trkpt><trkpt lat="41.414225" lon="0.6800067"><ele>372.0</ele><time>2026-04-19T10:14:58.962Z</time></trkpt><trkpt lat="41.41429" lon="0.680085"><ele>372.0</ele><time>2026-04-19T10:14:59.962Z</time></trkpt><trkpt lat="41.4143317" lon="0.6801933"><ele>372.0</ele><time>2026-04-19T10:15:00.961Z</time></trkpt><trkpt lat="41.4143667" lon="0.680335"><ele>372.0</ele><time>2026-04-19T10:15:01.961Z</time></trkpt><trkpt lat="41.4143933" lon="0.6804733"><ele>372.0</ele><time>2026-04-19T10:15:02.961Z</time></trkpt><trkpt lat="41.414425" lon="0.68061"><ele>372.0</ele><time>2026-04-19T10:15:03.961Z</time></trkpt><trkpt lat="41.4144483" lon="0.6807383"><ele>372.0</ele><time>2026-04-19T10:15:04.962Z</time></trkpt><trkpt lat="41.4144433" lon="0.68087"><ele>372.0</ele><time>2026-04-19T10:15:05.961Z</time></trkpt><trkpt lat="41.4144133" lon="0.6809917"><ele>372.0</ele><time>2026-04-19T10:15:06.962Z</time></trkpt><trkpt lat="41.41436" lon="0.6811167"><ele>372.0</ele><time>2026-04-19T10:15:07.961Z</time></trkpt><trkpt lat="41.4143083" lon="0.6812417"><ele>371.20000000000005</ele><time>2026-04-19T10:15:08.961Z</time></trkpt><trkpt lat="41.4142633" lon="0.6813583"><ele>370.4</ele><time>2026-04-19T10:15:09.962Z</time></trkpt><trkpt lat="41.414215" lon="0.6814783"><ele>369.6</ele><time>2026-04-19T10:15:10.961Z</time></trkpt><trkpt lat="41.4141533" lon="0.6816017"><ele>368.79999999999995</ele><time>2026-04-19T10:15:11.962Z</time></trkpt><trkpt lat="41.4140867" lon="0.681725"><ele>368.0</ele><time>2026-04-19T10:15:12.962Z</time></trkpt><trkpt lat="41.4140317" lon="0.681855"><ele>367.5</ele><time>2026-04-19T10:15:13.961Z</time></trkpt><trkpt lat="41.4139733" lon="0.6819883"><ele>367.0</ele><time>2026-04-19T10:15:14.961Z</time></trkpt><trkpt lat="41.41391" lon="0.6821317"><ele>366.5</ele><time>2026-04-19T10:15:15.962Z</time></trkpt><trkpt lat="41.41385" lon="0.6822733"><ele>366.0</ele><time>2026-04-19T10:15:16.962Z</time></trkpt><trkpt lat="41.413785" lon="0.6824033"><ele>369.75</ele><time>2026-04-19T10:15:17.961Z</time></trkpt><trkpt lat="41.413735" lon="0.68252"><ele>373.5</ele><time>2026-04-19T10:15:18.962Z</time></trkpt><trkpt lat="41.413675" lon="0.6826433"><ele>377.25</ele><time>2026-04-19T10:15:19.962Z</time></trkpt><trkpt lat="41.41362" lon="0.6827817"><ele>381.0</ele><time>2026-04-19T10:15:20.962Z</time></trkpt><trkpt lat="41.4135683" lon="0.682955"><ele>381.0</ele><time>2026-04-19T10:15:21.962Z</time></trkpt><trkpt lat="41.4135267" lon="0.6830983"><ele>381.0</ele><time>2026-04-19T10:15:22.962Z</time></trkpt><trkpt lat="41.4134867" lon="0.6832433"><ele>381.0</ele><time>2026-04-19T10:15:23.962Z</time></trkpt><trkpt lat="41.4134517" lon="0.68339"><ele>381.0</ele><time>2026-04-19T10:15:24.961Z</time></trkpt><trkpt lat="41.413415" lon="0.6835267"><ele>380.4</ele><time>2026-04-19T10:15:25.961Z</time></trkpt><trkpt lat="41.413385" lon="0.6836567"><ele>379.8</ele><time>2026-04-19T10:15:26.962Z</time></trkpt><trkpt lat="41.413355" lon="0.6838"><ele>379.2</ele><time>2026-04-19T10:15:27.962Z</time></trkpt><trkpt lat="41.4133267" lon="0.683945"><ele>378.59999999999997</ele><time>2026-04-19T10:15:28.962Z</time></trkpt><trkpt lat="41.413285" lon="0.68409"><ele>378.0</ele><time>2026-04-19T10:15:29.961Z</time></trkpt><trkpt lat="41.4132233" lon="0.684215"><ele>378.0</ele><time>2026-04-19T10:15:30.962Z</time></trkpt><trkpt lat="41.4131433" lon="0.684325"><ele>378.0</ele><time>2026-04-19T10:15:31.961Z</time></trkpt><trkpt lat="41.4130517" lon="0.68443"><ele>378.0</ele><time>2026-04-19T10:15:32.961Z</time></trkpt><trkpt lat="41.412955" lon="0.6845233"><ele>378.0</ele><time>2026-04-19T10:15:33.961Z</time></trkpt><trkpt lat="41.412865" lon="0.68461"><ele>380.2</ele><time>2026-04-19T10:15:34.961Z</time></trkpt><trkpt lat="41.4127867" lon="0.6846883"><ele>382.4</ele><time>2026-04-19T10:15:35.962Z</time></trkpt><trkpt lat="41.4127167" lon="0.6847617"><ele>384.59999999999997</ele><time>2026-04-19T10:15:36.961Z</time></trkpt><trkpt lat="41.4126483" lon="0.6848417"><ele>386.79999999999995</ele><time>2026-04-19T10:15:37.961Z</time></trkpt><trkpt lat="41.4125783" lon="0.6849217"><ele>389.0</ele><time>2026-04-19T10:15:38.961Z</time></trkpt><trkpt lat="41.41251" lon="0.6850017"><ele>388.99999999999994</ele><time>2026-04-19T10:15:39.962Z</time></trkpt><trkpt lat="41.41245" lon="0.6850817"><ele>389.0</ele><time>2026-04-19T10:15:40.961Z</time></trkpt><trkpt lat="41.4123967" lon="0.68517"><ele>389.0</ele><time>2026-04-19T10:15:41.962Z</time></trkpt><trkpt lat="41.4123567" lon="0.6852583"><ele>389.0</ele><time>2026-04-19T10:15:42.962Z</time></trkpt><trkpt lat="41.4123267" lon="0.6853633"><ele>388.99999999999994</ele><time>2026-04-19T10:15:43.962Z</time></trkpt><trkpt lat="41.4123" lon="0.6854717"><ele>389.0</ele><time>2026-04-19T10:15:44.962Z</time></trkpt><trkpt lat="41.4122817" lon="0.6855983"><ele>387.2</ele><time>2026-04-19T10:15:45.961Z</time></trkpt><trkpt lat="41.4122667" lon="0.6857467"><ele>385.4</ele><time>2026-04-19T10:15:46.962Z</time></trkpt><trkpt lat="41.412235" lon="0.6858967"><ele>383.6</ele><time>2026-04-19T10:15:47.961Z</time></trkpt><trkpt lat="41.4122033" lon="0.6860367"><ele>381.8</ele><time>2026-04-19T10:15:48.962Z</time></trkpt><trkpt lat="41.4121767" lon="0.68617"><ele>380.0</ele><time>2026-04-19T10:15:49.962Z</time></trkpt><trkpt lat="41.4121583" lon="0.6862917"><ele>380.0</ele><time>2026-04-19T10:15:50.961Z</time></trkpt><trkpt lat="41.4121517" lon="0.68641"><ele>380.0</ele><time>2026-04-19T10:15:51.961Z</time></trkpt><trkpt lat="41.412135" lon="0.6865167"><ele>380.0</ele><time>2026-04-19T10:15:52.961Z</time></trkpt><trkpt lat="41.4121117" lon="0.6866333"><ele>380.0</ele><time>2026-04-19T10:15:53.962Z</time></trkpt><trkpt lat="41.4120817" lon="0.6867517"><ele>380.0</ele><time>2026-04-19T10:15:54.961Z</time></trkpt><trkpt lat="41.4120733" lon="0.686865"><ele>380.0</ele><time>2026-04-19T10:15:55.962Z</time></trkpt><trkpt lat="41.41208" lon="0.6869867"><ele>380.0</ele><time>2026-04-19T10:15:56.962Z</time></trkpt><trkpt lat="41.412105" lon="0.6870983"><ele>380.0</ele><time>2026-04-19T10:15:57.962Z</time></trkpt><trkpt lat="41.412145" lon="0.6872083"><ele>380.0</ele><time>2026-04-19T10:15:58.962Z</time></trkpt><trkpt lat="41.4122167" lon="0.6873017"><ele>380.0</ele><time>2026-04-19T10:15:59.961Z</time></trkpt><trkpt lat="41.41229" lon="0.6873867"><ele>380.0</ele><time>2026-04-19T10:16:00.962Z</time></trkpt><trkpt lat="41.4123533" lon="0.6874467"><ele>379.5</ele><time>2026-04-19T10:16:01.961Z</time></trkpt><trkpt lat="41.41244" lon="0.6875317"><ele>379.0</ele><time>2026-04-19T10:16:03.962Z</time></trkpt><trkpt lat="41.412505" lon="0.6875983"><ele>378.5</ele><time>2026-04-19T10:16:05.961Z</time></trkpt><trkpt lat="41.4125617" lon="0.6876567"><ele>378.0</ele><time>2026-04-19T10:16:07.961Z</time></trkpt><trkpt lat="41.412615" lon="0.687705"><ele>377.5</ele><time>2026-04-19T10:16:10.961Z</time></trkpt><trkpt lat="41.41266" lon="0.6877783"><ele>377.0</ele><time>2026-04-19T10:17:59.961Z</time></trkpt><trkpt lat="41.4127083" lon="0.6878417"><ele>377.0</ele><time>2026-04-19T10:18:00.962Z</time></trkpt><trkpt lat="41.4127733" lon="0.687895"><ele>377.0</ele><time>2026-04-19T10:18:01.961Z</time></trkpt><trkpt lat="41.4128333" lon="0.6879317"><ele>377.0</ele><time>2026-04-19T10:18:02.962Z</time></trkpt><trkpt lat="41.41291" lon="0.687945"><ele>377.0</ele><time>2026-04-19T10:18:03.961Z</time></trkpt><trkpt lat="41.4129867" lon="0.6879567"><ele>377.0</ele><time>2026-04-19T10:18:04.962Z</time></trkpt><trkpt lat="41.4130633" lon="0.68796"><ele>377.0</ele><time>2026-04-19T10:18:05.961Z</time></trkpt><trkpt lat="41.4131417" lon="0.6879567"><ele>378.0</ele><time>2026-04-19T10:18:06.961Z</time></trkpt><trkpt lat="41.4132167" lon="0.6879417"><ele>379.0</ele><time>2026-04-19T10:18:07.962Z</time></trkpt><trkpt lat="41.4132883" lon="0.6879317"><ele>380.0</ele><time>2026-04-19T10:18:08.962Z</time></trkpt><trkpt lat="41.4133733" lon="0.6879417"><ele>381.0</ele><time>2026-04-19T10:18:09.962Z</time></trkpt><trkpt lat="41.4134683" lon="0.6879617"><ele>382.0</ele><time>2026-04-19T10:18:10.962Z</time></trkpt><trkpt lat="41.413535" lon="0.6880233"><ele>383.0</ele><time>2026-04-19T10:18:11.961Z</time></trkpt><trkpt lat="41.4135967" lon="0.6880967"><ele>383.0</ele><time>2026-04-19T10:18:12.961Z</time></trkpt><trkpt lat="41.41363" lon="0.6881767"><ele>383.0</ele><time>2026-04-19T10:18:13.962Z</time></trkpt><trkpt lat="41.4135783" lon="0.6882983"><ele>383.0</ele><time>2026-04-19T10:18:15.961Z</time></trkpt><trkpt lat="41.4134883" lon="0.6883667"><ele>383.0</ele><time>2026-04-19T10:18:16.962Z</time></trkpt><trkpt lat="41.4133683" lon="0.6884167"><ele>383.0</ele><time>2026-04-19T10:18:17.962Z</time></trkpt><trkpt lat="41.4132517" lon="0.688475"><ele>383.0</ele><time>2026-04-19T10:18:18.961Z</time></trkpt><trkpt lat="41.4131433" lon="0.68854"><ele>383.0</ele><time>2026-04-19T10:18:19.961Z</time></trkpt><trkpt lat="41.41305" lon="0.6885883"><ele>383.0</ele><time>2026-04-19T10:18:20.962Z</time></trkpt><trkpt lat="41.4129583" lon="0.6886633"><ele>383.0</ele><time>2026-04-19T10:18:21.962Z</time></trkpt><trkpt lat="41.41287" lon="0.68875"><ele>383.0</ele><time>2026-04-19T10:18:22.961Z</time></trkpt><trkpt lat="41.412795" lon="0.6888517"><ele>383.0</ele><time>2026-04-19T10:18:23.961Z</time></trkpt><trkpt lat="41.41274" lon="0.6889833"><ele>383.0</ele><time>2026-04-19T10:18:24.961Z</time></trkpt><trkpt lat="41.4127" lon="0.6891433"><ele>383.0</ele><time>2026-04-19T10:18:25.961Z</time></trkpt><trkpt lat="41.4126733" lon="0.6892983"><ele>383.0</ele><time>2026-04-19T10:18:26.962Z</time></trkpt><trkpt lat="41.4126583" lon="0.6894367"><ele>383.83333333333337</ele><time>2026-04-19T10:18:27.961Z</time></trkpt><trkpt lat="41.41265" lon="0.6895683"><ele>384.6666666666667</ele><time>2026-04-19T10:18:28.961Z</time></trkpt><trkpt lat="41.4126433" lon="0.6896833"><ele>385.5</ele><time>2026-04-19T10:18:29.961Z</time></trkpt><trkpt lat="41.4126367" lon="0.68979"><ele>386.33333333333337</ele><time>2026-04-19T10:18:30.962Z</time></trkpt><trkpt lat="41.4126233" lon="0.689885"><ele>387.1666666666667</ele><time>2026-04-19T10:18:31.961Z</time></trkpt><trkpt lat="41.412615" lon="0.6899733"><ele>388.0</ele><time>2026-04-19T10:18:32.961Z</time></trkpt><trkpt lat="41.4126133" lon="0.6900767"><ele>388.0</ele><time>2026-04-19T10:18:33.962Z</time></trkpt><trkpt lat="41.4126183" lon="0.6901817"><ele>388.0</ele><time>2026-04-19T10:18:34.962Z</time></trkpt><trkpt lat="41.412645" lon="0.6903017"><ele>388.0</ele><time>2026-04-19T10:18:35.961Z</time></trkpt><trkpt lat="41.4126833" lon="0.6904083"><ele>388.0</ele><time>2026-04-19T10:18:36.962Z</time></trkpt><trkpt lat="41.4127317" lon="0.6905383"><ele>388.0</ele><time>2026-04-19T10:18:37.961Z</time></trkpt><trkpt lat="41.4127983" lon="0.6906583"><ele>387.59999999999997</ele><time>2026-04-19T10:18:38.962Z</time></trkpt><trkpt lat="41.41288" lon="0.6907783"><ele>387.2</ele><time>2026-04-19T10:18:39.962Z</time></trkpt><trkpt lat="41.4129667" lon="0.69088"><ele>386.8</ele><time>2026-04-19T10:18:40.962Z</time></trkpt><trkpt lat="41.4130417" lon="0.690965"><ele>386.4</ele><time>2026-04-19T10:18:41.962Z</time></trkpt><trkpt lat="41.4131033" lon="0.69105"><ele>386.0</ele><time>2026-04-19T10:18:42.962Z</time></trkpt><trkpt lat="41.413165" lon="0.6911417"><ele>388.20000000000005</ele><time>2026-04-19T10:18:43.962Z</time></trkpt><trkpt lat="41.413235" lon="0.6912317"><ele>390.40000000000003</ele><time>2026-04-19T10:18:44.962Z</time></trkpt><trkpt lat="41.4133" lon="0.691325"><ele>392.6</ele><time>2026-04-19T10:18:45.961Z</time></trkpt><trkpt lat="41.41336" lon="0.691435"><ele>394.8</ele><time>2026-04-19T10:18:46.961Z</time></trkpt><trkpt lat="41.4134167" lon="0.6915617"><ele>397.0</ele><time>2026-04-19T10:18:47.962Z</time></trkpt><trkpt lat="41.4134467" lon="0.6917033"><ele>397.0</ele><time>2026-04-19T10:18:48.961Z</time></trkpt><trkpt lat="41.4134617" lon="0.6918583"><ele>397.0</ele><time>2026-04-19T10:18:49.961Z</time></trkpt><trkpt lat="41.4134583" lon="0.6920083"><ele>397.0</ele><time>2026-04-19T10:18:50.961Z</time></trkpt><trkpt lat="41.4134433" lon="0.69215"><ele>397.0</ele><time>2026-04-19T10:18:51.961Z</time></trkpt><trkpt lat="41.4134233" lon="0.6922883"><ele>397.0</ele><time>2026-04-19T10:18:52.961Z</time></trkpt><trkpt lat="41.4134033" lon="0.69243"><ele>398.6</ele><time>2026-04-19T10:18:53.962Z</time></trkpt><trkpt lat="41.41338" lon="0.6925633"><ele>400.20000000000005</ele><time>2026-04-19T10:18:54.961Z</time></trkpt><trkpt lat="41.413355" lon="0.69269"><ele>401.8</ele><time>2026-04-19T10:18:55.962Z</time></trkpt><trkpt lat="41.4133317" lon="0.6928183"><ele>403.4</ele><time>2026-04-19T10:18:56.962Z</time></trkpt><trkpt lat="41.4133167" lon="0.69295"><ele>405.0</ele><time>2026-04-19T10:18:57.962Z</time></trkpt><trkpt lat="41.4133167" lon="0.69308"><ele>406.2</ele><time>2026-04-19T10:18:58.961Z</time></trkpt><trkpt lat="41.41331" lon="0.6931983"><ele>407.4</ele><time>2026-04-19T10:18:59.962Z</time></trkpt><trkpt lat="41.4133117" lon="0.6933233"><ele>408.6</ele><time>2026-04-19T10:19:00.961Z</time></trkpt><trkpt lat="41.4133117" lon="0.6934567"><ele>409.8</ele><time>2026-04-19T10:19:01.962Z</time></trkpt><trkpt lat="41.4133217" lon="0.69361"><ele>411.0</ele><time>2026-04-19T10:19:02.962Z</time></trkpt><trkpt lat="41.4133483" lon="0.693755"><ele>411.6</ele><time>2026-04-19T10:19:03.961Z</time></trkpt><trkpt lat="41.4133833" lon="0.6938883"><ele>412.20000000000005</ele><time>2026-04-19T10:19:04.961Z</time></trkpt><trkpt lat="41.41342" lon="0.6940267"><ele>412.79999999999995</ele><time>2026-04-19T10:19:05.961Z</time></trkpt><trkpt lat="41.41347" lon="0.6941667"><ele>413.4</ele><time>2026-04-19T10:19:06.961Z</time></trkpt><trkpt lat="41.4135283" lon="0.6942967"><ele>414.0</ele><time>2026-04-19T10:19:07.961Z</time></trkpt><trkpt lat="41.4135917" lon="0.6944017"><ele>413.2</ele><time>2026-04-19T10:19:08.961Z</time></trkpt><trkpt lat="41.4136583" lon="0.6944933"><ele>412.4</ele><time>2026-04-19T10:19:09.961Z</time></trkpt><trkpt lat="41.4137283" lon="0.6945817"><ele>411.6</ele><time>2026-04-19T10:19:10.961Z</time></trkpt><trkpt lat="41.4137917" lon="0.6946783"><ele>410.8</ele><time>2026-04-19T10:19:11.962Z</time></trkpt><trkpt lat="41.4138533" lon="0.6947717"><ele>410.0</ele><time>2026-04-19T10:19:12.961Z</time></trkpt><trkpt lat="41.4139167" lon="0.6948617"><ele>413.4</ele><time>2026-04-19T10:19:13.962Z</time></trkpt><trkpt lat="41.4139667" lon="0.6949633"><ele>416.8</ele><time>2026-04-19T10:19:14.962Z</time></trkpt><trkpt lat="41.41402" lon="0.69507"><ele>420.20000000000005</ele><time>2026-04-19T10:19:15.961Z</time></trkpt><trkpt lat="41.414075" lon="0.695185"><ele>423.6</ele><time>2026-04-19T10:19:16.962Z</time></trkpt><trkpt lat="41.41413" lon="0.6952933"><ele>427.0</ele><time>2026-04-19T10:19:17.962Z</time></trkpt><trkpt lat="41.4141833" lon="0.69541"><ele>427.0</ele><time>2026-04-19T10:19:18.962Z</time></trkpt><trkpt lat="41.4142317" lon="0.695525"><ele>427.00000000000006</ele><time>2026-04-19T10:19:19.962Z</time></trkpt><trkpt lat="41.41427" lon="0.6956567"><ele>427.00000000000006</ele><time>2026-04-19T10:19:20.962Z</time></trkpt><trkpt lat="41.4142933" lon="0.69579"><ele>427.0</ele><time>2026-04-19T10:19:21.962Z</time></trkpt><trkpt lat="41.41431" lon="0.6959133"><ele>427.0</ele><time>2026-04-19T10:19:22.962Z</time></trkpt><trkpt lat="41.4143183" lon="0.6960383"><ele>427.40000000000003</ele><time>2026-04-19T10:19:23.962Z</time></trkpt><trkpt lat="41.4143167" lon="0.69617"><ele>427.80000000000007</ele><time>2026-04-19T10:19:24.961Z</time></trkpt><trkpt lat="41.414305" lon="0.6962967"><ele>428.2</ele><time>2026-04-19T10:19:25.962Z</time></trkpt><trkpt lat="41.4143" lon="0.6964317"><ele>428.6</ele><time>2026-04-19T10:19:26.962Z</time></trkpt><trkpt lat="41.4142933" lon="0.696565"><ele>429.0</ele><time>2026-04-19T10:19:27.962Z</time></trkpt><trkpt lat="41.4142833" lon="0.6966933"><ele>429.0</ele><time>2026-04-19T10:19:28.962Z</time></trkpt><trkpt lat="41.41428" lon="0.6968233"><ele>429.0</ele><time>2026-04-19T10:19:29.962Z</time></trkpt><trkpt lat="41.4142767" lon="0.6969517"><ele>429.0</ele><time>2026-04-19T10:19:30.961Z</time></trkpt><trkpt lat="41.4142733" lon="0.697085"><ele>429.0</ele><time>2026-04-19T10:19:31.962Z</time></trkpt><trkpt lat="41.4142683" lon="0.69721"><ele>429.0</ele><time>2026-04-19T10:19:32.962Z</time></trkpt><trkpt lat="41.4142567" lon="0.697335"><ele>429.79999999999995</ele><time>2026-04-19T10:19:33.962Z</time></trkpt><trkpt lat="41.4142533" lon="0.697465"><ele>430.59999999999997</ele><time>2026-04-19T10:19:34.962Z</time></trkpt><trkpt lat="41.4142533" lon="0.697595"><ele>431.4</ele><time>2026-04-19T10:19:35.962Z</time></trkpt><trkpt lat="41.4142533" lon="0.6977233"><ele>432.2</ele><time>2026-04-19T10:19:36.961Z</time></trkpt><trkpt lat="41.4142583" lon="0.69786"><ele>433.0</ele><time>2026-04-19T10:19:37.962Z</time></trkpt><trkpt lat="41.4142533" lon="0.6979833"><ele>433.79999999999995</ele><time>2026-04-19T10:19:38.961Z</time></trkpt><trkpt lat="41.4142567" lon="0.6981117"><ele>434.59999999999997</ele><time>2026-04-19T10:19:39.962Z</time></trkpt><trkpt lat="41.4142717" lon="0.69823"><ele>435.40000000000003</ele><time>2026-04-19T10:19:40.962Z</time></trkpt><trkpt lat="41.4142983" lon="0.698355"><ele>436.20000000000005</ele><time>2026-04-19T10:19:41.962Z</time></trkpt><trkpt lat="41.41433" lon="0.6984783"><ele>437.0</ele><time>2026-04-19T10:19:42.961Z</time></trkpt><trkpt lat="41.4143633" lon="0.698605"><ele>438.49999999999994</ele><time>2026-04-19T10:19:43.962Z</time></trkpt><trkpt lat="41.4143733" lon="0.6987233"><ele>440.0</ele><time>2026-04-19T10:19:44.962Z</time></trkpt><trkpt lat="41.4143717" lon="0.69883"><ele>441.5</ele><time>2026-04-19T10:19:45.962Z</time></trkpt><trkpt lat="41.4143583" lon="0.698935"><ele>443.0</ele><time>2026-04-19T10:19:46.962Z</time></trkpt><trkpt lat="41.4143267" lon="0.699035"><ele>444.49999999999994</ele><time>2026-04-19T10:19:47.962Z</time></trkpt><trkpt lat="41.4142783" lon="0.69911"><ele>446.0</ele><time>2026-04-19T10:19:48.961Z</time></trkpt><trkpt lat="41.4142067" lon="0.6991667"><ele>446.0</ele><time>2026-04-19T10:19:49.962Z</time></trkpt><trkpt lat="41.4141333" lon="0.69919"><ele>446.0</ele><time>2026-04-19T10:19:50.962Z</time></trkpt><trkpt lat="41.414055" lon="0.69918"><ele>446.0</ele><time>2026-04-19T10:19:51.961Z</time></trkpt><trkpt lat="41.4139633" lon="0.69911"><ele>446.0</ele><time>2026-04-19T10:19:52.962Z</time></trkpt><trkpt lat="41.41389" lon="0.6990033"><ele>446.0</ele><time>2026-04-19T10:19:53.962Z</time></trkpt><trkpt lat="41.4138133" lon="0.6989067"><ele>447.6</ele><time>2026-04-19T10:19:54.961Z</time></trkpt><trkpt lat="41.413695" lon="0.6988217"><ele>449.20000000000005</ele><time>2026-04-19T10:19:55.962Z</time></trkpt><trkpt lat="41.4135883" lon="0.698765"><ele>450.79999999999995</ele><time>2026-04-19T10:19:56.962Z</time></trkpt><trkpt lat="41.4134917" lon="0.6987333"><ele>452.4</ele><time>2026-04-19T10:19:57.961Z</time></trkpt><trkpt lat="41.4134017" lon="0.6987183"><ele>454.0</ele><time>2026-04-19T10:19:58.962Z</time></trkpt><trkpt lat="41.4133067" lon="0.698715"><ele>454.0</ele><time>2026-04-19T10:19:59.962Z</time></trkpt><trkpt lat="41.4132117" lon="0.6987167"><ele>454.0</ele><time>2026-04-19T10:20:00.961Z</time></trkpt><trkpt lat="41.41312" lon="0.6987267"><ele>454.0</ele><time>2026-04-19T10:20:01.962Z</time></trkpt><trkpt lat="41.4130283" lon="0.698755"><ele>454.0</ele><time>2026-04-19T10:20:02.961Z</time></trkpt><trkpt lat="41.4129333" lon="0.6987867"><ele>454.0</ele><time>2026-04-19T10:20:03.962Z</time></trkpt><trkpt lat="41.41285" lon="0.6988517"><ele>452.6</ele><time>2026-04-19T10:20:04.962Z</time></trkpt><trkpt lat="41.4127817" lon="0.6989317"><ele>451.2</ele><time>2026-04-19T10:20:05.962Z</time></trkpt><trkpt lat="41.412735" lon="0.69903"><ele>449.80000000000007</ele><time>2026-04-19T10:20:06.962Z</time></trkpt><trkpt lat="41.41269" lon="0.6991367"><ele>448.40000000000003</ele><time>2026-04-19T10:20:07.962Z</time></trkpt><trkpt lat="41.412675" lon="0.69926"><ele>447.0</ele><time>2026-04-19T10:20:08.962Z</time></trkpt><trkpt lat="41.41267" lon="0.6993867"><ele>448.8</ele><time>2026-04-19T10:20:09.962Z</time></trkpt><trkpt lat="41.412665" lon="0.6995167"><ele>450.6</ele><time>2026-04-19T10:20:10.962Z</time></trkpt><trkpt lat="41.4126633" lon="0.69965"><ele>452.40000000000003</ele><time>2026-04-19T10:20:11.961Z</time></trkpt><trkpt lat="41.4126717" lon="0.69978"><ele>454.20000000000005</ele><time>2026-04-19T10:20:12.962Z</time></trkpt><trkpt lat="41.412675" lon="0.699905"><ele>456.0</ele><time>2026-04-19T10:20:13.962Z</time></trkpt><trkpt lat="41.4126933" lon="0.700005"><ele>456.0</ele><time>2026-04-19T10:20:14.962Z</time></trkpt><trkpt lat="41.4126967" lon="0.7001167"><ele>456.0</ele><time>2026-04-19T10:20:15.961Z</time></trkpt><trkpt lat="41.4127033" lon="0.700235"><ele>456.0</ele><time>2026-04-19T10:20:16.961Z</time></trkpt><trkpt lat="41.4127067" lon="0.7003517"><ele>456.0</ele><time>2026-04-19T10:20:17.961Z</time></trkpt><trkpt lat="41.4127067" lon="0.7004733"><ele>456.0</ele><time>2026-04-19T10:20:18.962Z</time></trkpt><trkpt lat="41.41271" lon="0.7006083"><ele>457.6</ele><time>2026-04-19T10:20:19.962Z</time></trkpt><trkpt lat="41.4127217" lon="0.7007467"><ele>459.20000000000005</ele><time>2026-04-19T10:20:20.962Z</time></trkpt><trkpt lat="41.4127283" lon="0.700875"><ele>460.79999999999995</ele><time>2026-04-19T10:20:21.961Z</time></trkpt><trkpt lat="41.4127433" lon="0.701005"><ele>462.4</ele><time>2026-04-19T10:20:22.961Z</time></trkpt><trkpt lat="41.41276" lon="0.7011383"><ele>464.0</ele><time>2026-04-19T10:20:23.962Z</time></trkpt><trkpt lat="41.412785" lon="0.7012517"><ele>464.66666666666663</ele><time>2026-04-19T10:20:24.961Z</time></trkpt><trkpt lat="41.412805" lon="0.7013633"><ele>465.3333333333333</ele><time>2026-04-19T10:20:25.961Z</time></trkpt><trkpt lat="41.41282" lon="0.701475"><ele>466.0</ele><time>2026-04-19T10:20:26.962Z</time></trkpt><trkpt lat="41.4128283" lon="0.7015883"><ele>466.66666666666663</ele><time>2026-04-19T10:20:27.962Z</time></trkpt><trkpt lat="41.4128333" lon="0.701715"><ele>467.3333333333333</ele><time>2026-04-19T10:20:28.961Z</time></trkpt><trkpt lat="41.4128367" lon="0.70184"><ele>468.0</ele><time>2026-04-19T10:20:29.961Z</time></trkpt><trkpt lat="41.4128317" lon="0.70197"><ele>468.2</ele><time>2026-04-19T10:20:30.962Z</time></trkpt><trkpt lat="41.41282" lon="0.70211"><ele>468.4</ele><time>2026-04-19T10:20:31.961Z</time></trkpt><trkpt lat="41.4128067" lon="0.7022533"><ele>468.59999999999997</ele><time>2026-04-19T10:20:32.962Z</time></trkpt><trkpt lat="41.4127917" lon="0.7023917"><ele>468.79999999999995</ele><time>2026-04-19T10:20:33.962Z</time></trkpt><trkpt lat="41.4127767" lon="0.702525"><ele>469.0</ele><time>2026-04-19T10:20:34.962Z</time></trkpt><trkpt lat="41.4127633" lon="0.702655"><ele>469.4</ele><time>2026-04-19T10:20:35.962Z</time></trkpt><trkpt lat="41.4127483" lon="0.7027883"><ele>469.79999999999995</ele><time>2026-04-19T10:20:36.962Z</time></trkpt><trkpt lat="41.41274" lon="0.7029233"><ele>470.20000000000005</ele><time>2026-04-19T10:20:37.961Z</time></trkpt><trkpt lat="41.4127317" lon="0.7030633"><ele>470.6</ele><time>2026-04-19T10:20:38.961Z</time></trkpt><trkpt lat="41.4127217" lon="0.7031917"><ele>471.0</ele><time>2026-04-19T10:20:39.962Z</time></trkpt><trkpt lat="41.412705" lon="0.7033167"><ele>471.0</ele><time>2026-04-19T10:20:40.962Z</time></trkpt><trkpt lat="41.4126917" lon="0.7034417"><ele>471.0</ele><time>2026-04-19T10:20:41.962Z</time></trkpt><trkpt lat="41.4126733" lon="0.7035567"><ele>471.0</ele><time>2026-04-19T10:20:42.962Z</time></trkpt><trkpt lat="41.4126517" lon="0.703655"><ele>471.0</ele><time>2026-04-19T10:20:43.962Z</time></trkpt><trkpt lat="41.4126383" lon="0.7037567"><ele>471.0</ele><time>2026-04-19T10:20:44.962Z</time></trkpt><trkpt lat="41.412625" lon="0.7038517"><ele>471.0</ele><time>2026-04-19T10:20:45.962Z</time></trkpt><trkpt lat="41.4126183" lon="0.7039517"><ele>471.6666666666667</ele><time>2026-04-19T10:20:46.961Z</time></trkpt><trkpt lat="41.412615" lon="0.7040467"><ele>472.33333333333337</ele><time>2026-04-19T10:20:47.961Z</time></trkpt><trkpt lat="41.4126067" lon="0.7041467"><ele>473.0</ele><time>2026-04-19T10:20:48.962Z</time></trkpt><trkpt lat="41.412595" lon="0.704245"><ele>473.6666666666667</ele><time>2026-04-19T10:20:49.961Z</time></trkpt><trkpt lat="41.4125867" lon="0.7043683"><ele>474.33333333333337</ele><time>2026-04-19T10:20:50.962Z</time></trkpt><trkpt lat="41.4125767" lon="0.7044983"><ele>475.0</ele><time>2026-04-19T10:20:51.961Z</time></trkpt><trkpt lat="41.412565" lon="0.7046267"><ele>475.8</ele><time>2026-04-19T10:20:52.962Z</time></trkpt><trkpt lat="41.4125483" lon="0.7047533"><ele>476.6</ele><time>2026-04-19T10:20:53.961Z</time></trkpt><trkpt lat="41.412525" lon="0.704875"><ele>477.4</ele><time>2026-04-19T10:20:54.961Z</time></trkpt><trkpt lat="41.412505" lon="0.704995"><ele>478.2</ele><time>2026-04-19T10:20:55.961Z</time></trkpt><trkpt lat="41.412485" lon="0.7051317"><ele>479.0</ele><time>2026-04-19T10:20:56.961Z</time></trkpt><trkpt lat="41.41246" lon="0.7052683"><ele>479.79999999999995</ele><time>2026-04-19T10:20:57.962Z</time></trkpt><trkpt lat="41.41245" lon="0.7054017"><ele>480.59999999999997</ele><time>2026-04-19T10:20:58.962Z</time></trkpt><trkpt lat="41.4124367" lon="0.7055267"><ele>481.4</ele><time>2026-04-19T10:20:59.961Z</time></trkpt><trkpt lat="41.4124167" lon="0.7056583"><ele>482.2</ele><time>2026-04-19T10:21:00.961Z</time></trkpt><trkpt lat="41.4123983" lon="0.7057917"><ele>483.0</ele><time>2026-04-19T10:21:01.962Z</time></trkpt><trkpt lat="41.4123817" lon="0.7059383"><ele>483.2</ele><time>2026-04-19T10:21:02.962Z</time></trkpt><trkpt lat="41.4123633" lon="0.7060817"><ele>483.4</ele><time>2026-04-19T10:21:03.962Z</time></trkpt><trkpt lat="41.4123467" lon="0.706225"><ele>483.59999999999997</ele><time>2026-04-19T10:21:04.962Z</time></trkpt><trkpt lat="41.4123283" lon="0.70635"><ele>483.79999999999995</ele><time>2026-04-19T10:21:05.961Z</time></trkpt><trkpt lat="41.41231" lon="0.706485"><ele>484.0</ele><time>2026-04-19T10:21:06.962Z</time></trkpt><trkpt lat="41.412295" lon="0.7066283"><ele>484.0</ele><time>2026-04-19T10:21:07.961Z</time></trkpt><trkpt lat="41.41229" lon="0.706785"><ele>484.0</ele><time>2026-04-19T10:21:08.961Z</time></trkpt><trkpt lat="41.4122717" lon="0.7069517"><ele>484.0</ele><time>2026-04-19T10:21:09.961Z</time></trkpt><trkpt lat="41.4122483" lon="0.7071283"><ele>484.0</ele><time>2026-04-19T10:21:10.961Z</time></trkpt><trkpt lat="41.41224" lon="0.7072917"><ele>483.5</ele><time>2026-04-19T10:21:11.961Z</time></trkpt><trkpt lat="41.412245" lon="0.7074417"><ele>483.0</ele><time>2026-04-19T10:21:12.962Z</time></trkpt><trkpt lat="41.412215" lon="0.7076267"><ele>482.5</ele><time>2026-04-19T10:21:13.962Z</time></trkpt><trkpt lat="41.41219" lon="0.7078133"><ele>482.0</ele><time>2026-04-19T10:21:14.961Z</time></trkpt><trkpt lat="41.41218" lon="0.7079867"><ele>482.5</ele><time>2026-04-19T10:21:15.962Z</time></trkpt><trkpt lat="41.4121617" lon="0.7081733"><ele>483.0</ele><time>2026-04-19T10:21:16.961Z</time></trkpt><trkpt lat="41.4121367" lon="0.708365"><ele>483.5</ele><time>2026-04-19T10:21:17.962Z</time></trkpt><trkpt lat="41.41213" lon="0.7085617"><ele>484.0</ele><time>2026-04-19T10:21:18.962Z</time></trkpt><trkpt lat="41.4121083" lon="0.7087717"><ele>484.25</ele><time>2026-04-19T10:21:19.962Z</time></trkpt><trkpt lat="41.4121267" lon="0.708975"><ele>484.5</ele><time>2026-04-19T10:21:20.961Z</time></trkpt><trkpt lat="41.4121483" lon="0.70917"><ele>484.75</ele><time>2026-04-19T10:21:21.962Z</time></trkpt><trkpt lat="41.4121633" lon="0.7093633"><ele>485.0</ele><time>2026-04-19T10:21:22.962Z</time></trkpt><trkpt lat="41.41219" lon="0.709555"><ele>483.0</ele><time>2026-04-19T10:21:23.962Z</time></trkpt><trkpt lat="41.4122283" lon="0.709755"><ele>481.0</ele><time>2026-04-19T10:21:24.962Z</time></trkpt><trkpt lat="41.4122867" lon="0.7099533"><ele>479.0</ele><time>2026-04-19T10:21:25.962Z</time></trkpt><trkpt lat="41.4123317" lon="0.7101617"><ele>480.0</ele><time>2026-04-19T10:21:26.962Z</time></trkpt><trkpt lat="41.4123767" lon="0.710365"><ele>481.0</ele><time>2026-04-19T10:21:27.962Z</time></trkpt><trkpt lat="41.4124233" lon="0.7105483"><ele>482.0</ele><time>2026-04-19T10:21:28.961Z</time></trkpt><trkpt lat="41.4124683" lon="0.7107317"><ele>483.0</ele><time>2026-04-19T10:21:29.961Z</time></trkpt><trkpt lat="41.4125117" lon="0.7109"><ele>483.5</ele><time>2026-04-19T10:21:30.962Z</time></trkpt><trkpt lat="41.4125433" lon="0.711085"><ele>484.0</ele><time>2026-04-19T10:21:31.961Z</time></trkpt><trkpt lat="41.412575" lon="0.7112667"><ele>484.5</ele><time>2026-04-19T10:21:32.962Z</time></trkpt><trkpt lat="41.412625" lon="0.7114233"><ele>485.0</ele><time>2026-04-19T10:21:33.962Z</time></trkpt><trkpt lat="41.412655" lon="0.7116083"><ele>485.0</ele><time>2026-04-19T10:21:34.962Z</time></trkpt><trkpt lat="41.41269" lon="0.7117983"><ele>485.0</ele><time>2026-04-19T10:21:35.962Z</time></trkpt><trkpt lat="41.41272" lon="0.7119817"><ele>485.0</ele><time>2026-04-19T10:21:36.962Z</time></trkpt><trkpt lat="41.4127517" lon="0.7121617"><ele>485.0</ele><time>2026-04-19T10:21:37.962Z</time></trkpt><trkpt lat="41.4127933" lon="0.7123267"><ele>485.5</ele><time>2026-04-19T10:21:38.962Z</time></trkpt><trkpt lat="41.41284" lon="0.712495"><ele>486.0</ele><time>2026-04-19T10:21:39.961Z</time></trkpt><trkpt lat="41.4128717" lon="0.7126633"><ele>486.5</ele><time>2026-04-19T10:21:40.961Z</time></trkpt><trkpt lat="41.4129067" lon="0.7128367"><ele>487.0</ele><time>2026-04-19T10:21:41.962Z</time></trkpt><trkpt lat="41.4129467" lon="0.7130067"><ele>486.75</ele><time>2026-04-19T10:21:42.961Z</time></trkpt><trkpt lat="41.41298" lon="0.713205"><ele>486.5</ele><time>2026-04-19T10:21:43.961Z</time></trkpt><trkpt lat="41.413015" lon="0.71338"><ele>486.25</ele><time>2026-04-19T10:21:44.961Z</time></trkpt><trkpt lat="41.4130517" lon="0.7135483"><ele>486.0</ele><time>2026-04-19T10:21:45.961Z</time></trkpt><trkpt lat="41.4130833" lon="0.71373"><ele>486.75</ele><time>2026-04-19T10:21:46.962Z</time></trkpt><trkpt lat="41.41311" lon="0.7139133"><ele>487.5</ele><time>2026-04-19T10:21:47.961Z</time></trkpt><trkpt lat="41.413155" lon="0.714095"><ele>488.25</ele><time>2026-04-19T10:21:48.961Z</time></trkpt><trkpt lat="41.413195" lon="0.714275"><ele>489.0</ele><time>2026-04-19T10:21:49.961Z</time></trkpt><trkpt lat="41.413235" lon="0.714455"><ele>489.25</ele><time>2026-04-19T10:21:50.962Z</time></trkpt><trkpt lat="41.4132683" lon="0.714625"><ele>489.5</ele><time>2026-04-19T10:21:51.962Z</time></trkpt><trkpt lat="41.4133" lon="0.7148"><ele>489.75</ele><time>2026-04-19T10:21:52.962Z</time></trkpt><trkpt lat="41.4133367" lon="0.7149683"><ele>490.0</ele><time>2026-04-19T10:21:53.961Z</time></trkpt><trkpt lat="41.41337" lon="0.715145"><ele>489.25</ele><time>2026-04-19T10:21:54.962Z</time></trkpt><trkpt lat="41.4133983" lon="0.7153267"><ele>488.5</ele><time>2026-04-19T10:21:55.962Z</time></trkpt><trkpt lat="41.413435" lon="0.7155117"><ele>487.75</ele><time>2026-04-19T10:21:56.962Z</time></trkpt><trkpt lat="41.4134683" lon="0.7157017"><ele>487.0</ele><time>2026-04-19T10:21:57.962Z</time></trkpt><trkpt lat="41.4134933" lon="0.7158917"><ele>487.0</ele><time>2026-04-19T10:21:58.961Z</time></trkpt><trkpt lat="41.413535" lon="0.7160817"><ele>487.0</ele><time>2026-04-19T10:21:59.962Z</time></trkpt><trkpt lat="41.4135717" lon="0.7162817"><ele>487.0</ele><time>2026-04-19T10:22:00.962Z</time></trkpt><trkpt lat="41.4136067" lon="0.71648"><ele>487.0</ele><time>2026-04-19T10:22:01.962Z</time></trkpt><trkpt lat="41.4136433" lon="0.7166767"><ele>487.0</ele><time>2026-04-19T10:22:02.961Z</time></trkpt><trkpt lat="41.4136667" lon="0.7168767"><ele>487.0</ele><time>2026-04-19T10:22:03.961Z</time></trkpt><trkpt lat="41.4136717" lon="0.7170667"><ele>487.0</ele><time>2026-04-19T10:22:04.962Z</time></trkpt><trkpt lat="41.4136617" lon="0.7172533"><ele>486.75</ele><time>2026-04-19T10:22:05.961Z</time></trkpt><trkpt lat="41.41364" lon="0.7174433"><ele>486.5</ele><time>2026-04-19T10:22:06.962Z</time></trkpt><trkpt lat="41.4135933" lon="0.717635"><ele>486.25</ele><time>2026-04-19T10:22:07.962Z</time></trkpt><trkpt lat="41.41353" lon="0.7178167"><ele>486.0</ele><time>2026-04-19T10:22:08.962Z</time></trkpt><trkpt lat="41.4134417" lon="0.717985"><ele>481.66666666666663</ele><time>2026-04-19T10:22:09.962Z</time></trkpt><trkpt lat="41.4133133" lon="0.7181483"><ele>477.3333333333333</ele><time>2026-04-19T10:22:10.962Z</time></trkpt><trkpt lat="41.4131783" lon="0.718285"><ele>473.0</ele><time>2026-04-19T10:22:11.961Z</time></trkpt><trkpt lat="41.41304" lon="0.7183983"><ele>475.75</ele><time>2026-04-19T10:22:12.962Z</time></trkpt><trkpt lat="41.4129317" lon="0.7184783"><ele>478.5</ele><time>2026-04-19T10:22:13.962Z</time></trkpt><trkpt lat="41.412835" lon="0.718595"><ele>481.25</ele><time>2026-04-19T10:22:14.962Z</time></trkpt><trkpt lat="41.4127683" lon="0.7187067"><ele>484.0</ele><time>2026-04-19T10:22:15.962Z</time></trkpt><trkpt lat="41.4127433" lon="0.7188633"><ele>484.0</ele><time>2026-04-19T10:22:16.962Z</time></trkpt><trkpt lat="41.412735" lon="0.719025"><ele>484.0</ele><time>2026-04-19T10:22:17.961Z</time></trkpt><trkpt lat="41.4127567" lon="0.7191783"><ele>484.0</ele><time>2026-04-19T10:22:18.962Z</time></trkpt><trkpt lat="41.4128033" lon="0.7193567"><ele>484.0</ele><time>2026-04-19T10:22:19.962Z</time></trkpt><trkpt lat="41.4128883" lon="0.7194317"><ele>488.0</ele><time>2026-04-19T10:22:20.961Z</time></trkpt><trkpt lat="41.4129783" lon="0.7194683"><ele>492.0</ele><time>2026-04-19T10:22:21.961Z</time></trkpt><trkpt lat="41.4132617" lon="0.719275"><ele>496.0</ele><time>2026-04-19T10:22:22.961Z</time></trkpt><trkpt lat="41.41345" lon="0.7192383"><ele>487.6666666666667</ele><time>2026-04-19T10:22:23.961Z</time></trkpt><trkpt lat="41.41361" lon="0.7192433"><ele>479.33333333333337</ele><time>2026-04-19T10:22:24.961Z</time></trkpt><trkpt lat="41.4137517" lon="0.719295"><ele>471.0</ele><time>2026-04-19T10:22:25.961Z</time></trkpt><trkpt lat="41.4138967" lon="0.7193717"><ele>468.0</ele><time>2026-04-19T10:22:26.961Z</time></trkpt><trkpt lat="41.41407" lon="0.7194867"><ele>465.0</ele><time>2026-04-19T10:22:27.962Z</time></trkpt><trkpt lat="41.4142117" lon="0.71963"><ele>462.0</ele><time>2026-04-19T10:22:28.962Z</time></trkpt><trkpt lat="41.4143433" lon="0.7197583"><ele>462.0</ele><time>2026-04-19T10:22:29.962Z</time></trkpt><trkpt lat="41.4144717" lon="0.7198883"><ele>462.0</ele><time>2026-04-19T10:22:30.961Z</time></trkpt><trkpt lat="41.41462" lon="0.7200167"><ele>462.0</ele><time>2026-04-19T10:22:31.962Z</time></trkpt><trkpt lat="41.414755" lon="0.720145"><ele>458.33333333333337</ele><time>2026-04-19T10:22:32.962Z</time></trkpt><trkpt lat="41.414885" lon="0.72028"><ele>454.6666666666667</ele><time>2026-04-19T10:22:33.962Z</time></trkpt><trkpt lat="41.415015" lon="0.7204033"><ele>451.0</ele><time>2026-04-19T10:22:34.962Z</time></trkpt><trkpt lat="41.415145" lon="0.7205267"><ele>451.0</ele><time>2026-04-19T10:22:35.962Z</time></trkpt><trkpt lat="41.415295" lon="0.7206417"><ele>451.0</ele><time>2026-04-19T10:22:36.962Z</time></trkpt><trkpt lat="41.4154233" lon="0.7207717"><ele>451.0</ele><time>2026-04-19T10:22:37.962Z</time></trkpt><trkpt lat="41.41555" lon="0.720895"><ele>451.0</ele><time>2026-04-19T10:22:38.962Z</time></trkpt><trkpt lat="41.4156583" lon="0.7210267"><ele>451.0</ele><time>2026-04-19T10:22:39.962Z</time></trkpt><trkpt lat="41.4157883" lon="0.7211333"><ele>451.0</ele><time>2026-04-19T10:22:40.962Z</time></trkpt><trkpt lat="41.4159317" lon="0.7212133"><ele>451.0</ele><time>2026-04-19T10:22:41.961Z</time></trkpt><trkpt lat="41.416085" lon="0.7212717"><ele>451.0</ele><time>2026-04-19T10:22:42.961Z</time></trkpt><trkpt lat="41.41624" lon="0.721285"><ele>451.0</ele><time>2026-04-19T10:22:43.961Z</time></trkpt><trkpt lat="41.4163983" lon="0.72124"><ele>452.0</ele><time>2026-04-19T10:22:44.961Z</time></trkpt><trkpt lat="41.4165433" lon="0.7212317"><ele>453.0</ele><time>2026-04-19T10:22:45.961Z</time></trkpt><trkpt lat="41.416685" lon="0.7210517"><ele>454.0</ele><time>2026-04-19T10:22:46.961Z</time></trkpt><trkpt lat="41.41681" lon="0.7208767"><ele>454.0</ele><time>2026-04-19T10:22:47.962Z</time></trkpt><trkpt lat="41.416925" lon="0.72073"><ele>454.0</ele><time>2026-04-19T10:22:48.961Z</time></trkpt><trkpt lat="41.41703" lon="0.72059"><ele>454.0</ele><time>2026-04-19T10:22:49.961Z</time></trkpt><trkpt lat="41.4171283" lon="0.7204617"><ele>454.0</ele><time>2026-04-19T10:22:50.962Z</time></trkpt><trkpt lat="41.41722" lon="0.7203467"><ele>456.0</ele><time>2026-04-19T10:22:51.961Z</time></trkpt><trkpt lat="41.4173" lon="0.7202317"><ele>458.0</ele><time>2026-04-19T10:22:52.961Z</time></trkpt><trkpt lat="41.41737" lon="0.72012"><ele>460.0</ele><time>2026-04-19T10:22:53.962Z</time></trkpt><trkpt lat="41.4174367" lon="0.7200117"><ele>462.0</ele><time>2026-04-19T10:22:54.962Z</time></trkpt><trkpt lat="41.4175" lon="0.7198967"><ele>464.0</ele><time>2026-04-19T10:22:55.962Z</time></trkpt><trkpt lat="41.4175617" lon="0.7197883"><ele>464.0</ele><time>2026-04-19T10:22:56.961Z</time></trkpt><trkpt lat="41.41762" lon="0.719685"><ele>464.0</ele><time>2026-04-19T10:22:57.962Z</time></trkpt><trkpt lat="41.4176767" lon="0.7195767"><ele>464.0</ele><time>2026-04-19T10:22:58.962Z</time></trkpt><trkpt lat="41.4177317" lon="0.7194817"><ele>464.0</ele><time>2026-04-19T10:22:59.961Z</time></trkpt><trkpt lat="41.4177867" lon="0.7193817"><ele>464.0</ele><time>2026-04-19T10:23:00.961Z</time></trkpt><trkpt lat="41.4178367" lon="0.719285"><ele>464.2</ele><time>2026-04-19T10:23:01.962Z</time></trkpt><trkpt lat="41.4178867" lon="0.7191833"><ele>464.4</ele><time>2026-04-19T10:23:02.961Z</time></trkpt><trkpt lat="41.41794" lon="0.7190817"><ele>464.6</ele><time>2026-04-19T10:23:03.962Z</time></trkpt><trkpt lat="41.4179967" lon="0.7189867"><ele>464.8</ele><time>2026-04-19T10:23:04.961Z</time></trkpt><trkpt lat="41.4180617" lon="0.7188933"><ele>465.0</ele><time>2026-04-19T10:23:05.961Z</time></trkpt><trkpt lat="41.41814" lon="0.71883"><ele>465.0</ele><time>2026-04-19T10:23:06.961Z</time></trkpt><trkpt lat="41.4182267" lon="0.71882"><ele>465.0</ele><time>2026-04-19T10:23:07.961Z</time></trkpt><trkpt lat="41.418325" lon="0.7188433"><ele>465.0</ele><time>2026-04-19T10:23:08.962Z</time></trkpt><trkpt lat="41.4184133" lon="0.7188967"><ele>465.0</ele><time>2026-04-19T10:23:09.961Z</time></trkpt><trkpt lat="41.4184817" lon="0.718995"><ele>465.0</ele><time>2026-04-19T10:23:10.962Z</time></trkpt><trkpt lat="41.41852" lon="0.7191167"><ele>465.0</ele><time>2026-04-19T10:23:11.961Z</time></trkpt><trkpt lat="41.418545" lon="0.71926"><ele>465.0</ele><time>2026-04-19T10:23:12.961Z</time></trkpt><trkpt lat="41.4185517" lon="0.7194283"><ele>465.0</ele><time>2026-04-19T10:23:13.962Z</time></trkpt><trkpt lat="41.4185467" lon="0.71962"><ele>465.0</ele><time>2026-04-19T10:23:14.962Z</time></trkpt><trkpt lat="41.41856" lon="0.7197967"><ele>466.0</ele><time>2026-04-19T10:23:15.961Z</time></trkpt><trkpt lat="41.4185883" lon="0.7199617"><ele>467.0</ele><time>2026-04-19T10:23:16.962Z</time></trkpt><trkpt lat="41.4186167" lon="0.7201183"><ele>468.0</ele><time>2026-04-19T10:23:17.962Z</time></trkpt><trkpt lat="41.41865" lon="0.7202767"><ele>469.0</ele><time>2026-04-19T10:23:18.961Z</time></trkpt><trkpt lat="41.4186717" lon="0.7204417"><ele>469.0</ele><time>2026-04-19T10:23:19.961Z</time></trkpt><trkpt lat="41.4186667" lon="0.7206217"><ele>469.0</ele><time>2026-04-19T10:23:20.961Z</time></trkpt><trkpt lat="41.418665" lon="0.7208167"><ele>469.0</ele><time>2026-04-19T10:23:21.962Z</time></trkpt><trkpt lat="41.4186683" lon="0.7210067"><ele>469.0</ele><time>2026-04-19T10:23:22.962Z</time></trkpt><trkpt lat="41.4186833" lon="0.7211833"><ele>469.0</ele><time>2026-04-19T10:23:23.962Z</time></trkpt><trkpt lat="41.4187133" lon="0.721385"><ele>469.0</ele><time>2026-04-19T10:23:24.961Z</time></trkpt><trkpt lat="41.418745" lon="0.7216"><ele>469.0</ele><time>2026-04-19T10:23:25.962Z</time></trkpt><trkpt lat="41.4188183" lon="0.7218033"><ele>465.0</ele><time>2026-04-19T10:23:26.962Z</time></trkpt><trkpt lat="41.41893" lon="0.7219933"><ele>461.0</ele><time>2026-04-19T10:23:27.962Z</time></trkpt><trkpt lat="41.419075" lon="0.7221717"><ele>457.0</ele><time>2026-04-19T10:23:28.962Z</time></trkpt><trkpt lat="41.419205" lon="0.722295"><ele>457.0</ele><time>2026-04-19T10:23:29.961Z</time></trkpt><trkpt lat="41.4193467" lon="0.722425"><ele>457.0</ele><time>2026-04-19T10:23:30.962Z</time></trkpt><trkpt lat="41.419485" lon="0.7225567"><ele>457.0</ele><time>2026-04-19T10:23:31.961Z</time></trkpt><trkpt lat="41.4196183" lon="0.722675"><ele>454.6666666666667</ele><time>2026-04-19T10:23:32.962Z</time></trkpt><trkpt lat="41.41975" lon="0.7227983"><ele>452.33333333333337</ele><time>2026-04-19T10:23:33.962Z</time></trkpt><trkpt lat="41.419875" lon="0.7229117"><ele>450.0</ele><time>2026-04-19T10:23:34.961Z</time></trkpt><trkpt lat="41.4200067" lon="0.72305"><ele>450.0</ele><time>2026-04-19T10:23:35.961Z</time></trkpt><trkpt lat="41.4201333" lon="0.7231883"><ele>450.0</ele><time>2026-04-19T10:23:36.962Z</time></trkpt><trkpt lat="41.4202617" lon="0.723305"><ele>450.0</ele><time>2026-04-19T10:23:37.962Z</time></trkpt><trkpt lat="41.4203933" lon="0.7234283"><ele>449.25</ele><time>2026-04-19T10:23:38.962Z</time></trkpt><trkpt lat="41.4205083" lon="0.7235483"><ele>448.5</ele><time>2026-04-19T10:23:39.961Z</time></trkpt><trkpt lat="41.4206217" lon="0.7236767"><ele>447.75</ele><time>2026-04-19T10:23:40.962Z</time></trkpt><trkpt lat="41.4207367" lon="0.7238067"><ele>447.0</ele><time>2026-04-19T10:23:41.961Z</time></trkpt><trkpt lat="41.4208583" lon="0.72393"><ele>447.0</ele><time>2026-04-19T10:23:42.962Z</time></trkpt><trkpt lat="41.42099" lon="0.7240467"><ele>447.0</ele><time>2026-04-19T10:23:43.962Z</time></trkpt><trkpt lat="41.42113" lon="0.7241833"><ele>447.0</ele><time>2026-04-19T10:23:44.961Z</time></trkpt><trkpt lat="41.4212733" lon="0.72431"><ele>445.33333333333337</ele><time>2026-04-19T10:23:45.961Z</time></trkpt><trkpt lat="41.4214133" lon="0.7244217"><ele>443.6666666666667</ele><time>2026-04-19T10:23:46.962Z</time></trkpt><trkpt lat="41.421545" lon="0.7245433"><ele>442.0</ele><time>2026-04-19T10:23:47.962Z</time></trkpt><trkpt lat="41.4216617" lon="0.7246783"><ele>442.0</ele><time>2026-04-19T10:23:48.962Z</time></trkpt><trkpt lat="41.4217867" lon="0.7248083"><ele>442.0</ele><time>2026-04-19T10:23:49.961Z</time></trkpt><trkpt lat="41.4218983" lon="0.724935"><ele>442.0</ele><time>2026-04-19T10:23:50.961Z</time></trkpt><trkpt lat="41.4220317" lon="0.72504"><ele>440.6666666666667</ele><time>2026-04-19T10:23:51.961Z</time></trkpt><trkpt lat="41.4221667" lon="0.7251217"><ele>439.33333333333337</ele><time>2026-04-19T10:23:52.962Z</time></trkpt><trkpt lat="41.42232" lon="0.72518"><ele>438.0</ele><time>2026-04-19T10:23:53.962Z</time></trkpt><trkpt lat="41.4224867" lon="0.7252017"><ele>438.0</ele><time>2026-04-19T10:23:54.961Z</time></trkpt><trkpt lat="41.4226533" lon="0.72519"><ele>438.0</ele><time>2026-04-19T10:23:55.961Z</time></trkpt><trkpt lat="41.4228083" lon="0.7251733"><ele>438.0</ele><time>2026-04-19T10:23:56.962Z</time></trkpt><trkpt lat="41.42296" lon="0.72515"><ele>437.33333333333337</ele><time>2026-04-19T10:23:57.962Z</time></trkpt><trkpt lat="41.4231133" lon="0.7251233"><ele>436.6666666666667</ele><time>2026-04-19T10:23:58.962Z</time></trkpt><trkpt lat="41.4232667" lon="0.7250933"><ele>436.0</ele><time>2026-04-19T10:23:59.962Z</time></trkpt><trkpt lat="41.42343" lon="0.725065"><ele>436.0</ele><time>2026-04-19T10:24:00.962Z</time></trkpt><trkpt lat="41.4235933" lon="0.725025"><ele>436.0</ele><time>2026-04-19T10:24:01.962Z</time></trkpt><trkpt lat="41.4237517" lon="0.7249917"><ele>436.0</ele><time>2026-04-19T10:24:02.962Z</time></trkpt><trkpt lat="41.4239083" lon="0.7249583"><ele>435.0</ele><time>2026-04-19T10:24:03.961Z</time></trkpt><trkpt lat="41.424055" lon="0.7249317"><ele>434.0</ele><time>2026-04-19T10:24:04.962Z</time></trkpt><trkpt lat="41.4242133" lon="0.7249033"><ele>433.0</ele><time>2026-04-19T10:24:05.961Z</time></trkpt><trkpt lat="41.4243717" lon="0.7248717"><ele>433.0</ele><time>2026-04-19T10:24:06.961Z</time></trkpt><trkpt lat="41.4245283" lon="0.7248417"><ele>433.0</ele><time>2026-04-19T10:24:07.961Z</time></trkpt><trkpt lat="41.42468" lon="0.7248133"><ele>433.0</ele><time>2026-04-19T10:24:08.962Z</time></trkpt><trkpt lat="41.4248367" lon="0.7247867"><ele>431.33333333333337</ele><time>2026-04-19T10:24:09.961Z</time></trkpt><trkpt lat="41.42498" lon="0.724765"><ele>429.66666666666663</ele><time>2026-04-19T10:24:10.961Z</time></trkpt><trkpt lat="41.425135" lon="0.7247517"><ele>428.0</ele><time>2026-04-19T10:24:11.962Z</time></trkpt><trkpt lat="41.4252983" lon="0.724755"><ele>428.0</ele><time>2026-04-19T10:24:12.962Z</time></trkpt><trkpt lat="41.4254583" lon="0.72478"><ele>428.0</ele><time>2026-04-19T10:24:13.962Z</time></trkpt><trkpt lat="41.425635" lon="0.7248117"><ele>428.0</ele><time>2026-04-19T10:24:14.962Z</time></trkpt><trkpt lat="41.4257933" lon="0.72486"><ele>427.0</ele><time>2026-04-19T10:24:15.962Z</time></trkpt><trkpt lat="41.4259267" lon="0.7249267"><ele>426.0</ele><time>2026-04-19T10:24:16.962Z</time></trkpt><trkpt lat="41.426095" lon="0.7249933"><ele>425.0</ele><time>2026-04-19T10:24:17.961Z</time></trkpt><trkpt lat="41.426265" lon="0.725045"><ele>423.0</ele><time>2026-04-19T10:24:18.962Z</time></trkpt><trkpt lat="41.4264433" lon="0.7250883"><ele>421.0</ele><time>2026-04-19T10:24:19.962Z</time></trkpt><trkpt lat="41.4266017" lon="0.7251433"><ele>419.0</ele><time>2026-04-19T10:24:20.961Z</time></trkpt><trkpt lat="41.42677" lon="0.725185"><ele>417.3333333333333</ele><time>2026-04-19T10:24:21.961Z</time></trkpt><trkpt lat="41.4269317" lon="0.7252317"><ele>415.66666666666663</ele><time>2026-04-19T10:24:22.961Z</time></trkpt><trkpt lat="41.42709" lon="0.7252767"><ele>414.0</ele><time>2026-04-19T10:24:23.961Z</time></trkpt><trkpt lat="41.427245" lon="0.72533"><ele>412.33333333333337</ele><time>2026-04-19T10:24:24.962Z</time></trkpt><trkpt lat="41.4274" lon="0.7253883"><ele>410.6666666666667</ele><time>2026-04-19T10:24:25.961Z</time></trkpt><trkpt lat="41.4275683" lon="0.7254367"><ele>409.0</ele><time>2026-04-19T10:24:26.962Z</time></trkpt><trkpt lat="41.4277383" lon="0.725485"><ele>409.0</ele><time>2026-04-19T10:24:27.961Z</time></trkpt><trkpt lat="41.4279133" lon="0.72552"><ele>409.0</ele><time>2026-04-19T10:24:28.961Z</time></trkpt><trkpt lat="41.4280783" lon="0.7255717"><ele>409.0</ele><time>2026-04-19T10:24:29.961Z</time></trkpt><trkpt lat="41.428235" lon="0.7256283"><ele>407.6666666666667</ele><time>2026-04-19T10:24:30.962Z</time></trkpt><trkpt lat="41.4283983" lon="0.725665"><ele>406.33333333333337</ele><time>2026-04-19T10:24:31.961Z</time></trkpt><trkpt lat="41.42856" lon="0.7257017"><ele>405.0</ele><time>2026-04-19T10:24:32.962Z</time></trkpt><trkpt lat="41.4287167" lon="0.7257317"><ele>404.66666666666663</ele><time>2026-04-19T10:24:33.961Z</time></trkpt><trkpt lat="41.428865" lon="0.7257783"><ele>404.3333333333333</ele><time>2026-04-19T10:24:34.962Z</time></trkpt><trkpt lat="41.4290217" lon="0.72582"><ele>404.0</ele><time>2026-04-19T10:24:35.962Z</time></trkpt><trkpt lat="41.429165" lon="0.7258733"><ele>404.0</ele><time>2026-04-19T10:24:36.962Z</time></trkpt><trkpt lat="41.429305" lon="0.7259533"><ele>404.0</ele><time>2026-04-19T10:24:37.962Z</time></trkpt><trkpt lat="41.4294167" lon="0.7260767"><ele>404.0</ele><time>2026-04-19T10:24:38.961Z</time></trkpt><trkpt lat="41.4295083" lon="0.7262383"><ele>404.0</ele><time>2026-04-19T10:24:39.961Z</time></trkpt><trkpt lat="41.429585" lon="0.7264083"><ele>403.0</ele><time>2026-04-19T10:24:40.962Z</time></trkpt><trkpt lat="41.4296483" lon="0.7265917"><ele>402.0</ele><time>2026-04-19T10:24:41.962Z</time></trkpt><trkpt lat="41.4297433" lon="0.726745"><ele>401.0</ele><time>2026-04-19T10:24:42.962Z</time></trkpt><trkpt lat="41.42984" lon="0.72687"><ele>400.0</ele><time>2026-04-19T10:24:43.961Z</time></trkpt><trkpt lat="41.4299467" lon="0.727"><ele>398.0</ele><time>2026-04-19T10:24:44.961Z</time></trkpt><trkpt lat="41.4300667" lon="0.7271083"><ele>396.0</ele><time>2026-04-19T10:24:45.962Z</time></trkpt><trkpt lat="41.4301867" lon="0.72723"><ele>394.0</ele><time>2026-04-19T10:24:46.962Z</time></trkpt><trkpt lat="41.430305" lon="0.7273533"><ele>392.0</ele><time>2026-04-19T10:24:47.961Z</time></trkpt><trkpt lat="41.4304267" lon="0.7274733"><ele>391.3333333333333</ele><time>2026-04-19T10:24:48.961Z</time></trkpt><trkpt lat="41.4305533" lon="0.7276017"><ele>390.66666666666663</ele><time>2026-04-19T10:24:49.961Z</time></trkpt><trkpt lat="41.430685" lon="0.727725"><ele>390.0</ele><time>2026-04-19T10:24:50.961Z</time></trkpt><trkpt lat="41.430815" lon="0.7278567"><ele>388.33333333333337</ele><time>2026-04-19T10:24:51.961Z</time></trkpt><trkpt lat="41.4309583" lon="0.727985"><ele>386.6666666666667</ele><time>2026-04-19T10:24:52.961Z</time></trkpt><trkpt lat="41.4310983" lon="0.7281267"><ele>385.0</ele><time>2026-04-19T10:24:53.961Z</time></trkpt><trkpt lat="41.4312283" lon="0.7282633"><ele>385.0</ele><time>2026-04-19T10:24:54.962Z</time></trkpt><trkpt lat="41.43136" lon="0.7283867"><ele>385.0</ele><time>2026-04-19T10:24:55.961Z</time></trkpt><trkpt lat="41.4315" lon="0.7285217"><ele>385.0</ele><time>2026-04-19T10:24:56.961Z</time></trkpt><trkpt lat="41.431635" lon="0.7286567"><ele>383.6666666666667</ele><time>2026-04-19T10:24:57.962Z</time></trkpt><trkpt lat="41.4317717" lon="0.7287883"><ele>382.33333333333337</ele><time>2026-04-19T10:24:58.962Z</time></trkpt><trkpt lat="41.43191" lon="0.7289133"><ele>381.0</ele><time>2026-04-19T10:24:59.961Z</time></trkpt><trkpt lat="41.4320417" lon="0.7290317"><ele>379.0</ele><time>2026-04-19T10:25:00.961Z</time></trkpt><trkpt lat="41.43217" lon="0.7291367"><ele>377.0</ele><time>2026-04-19T10:25:01.962Z</time></trkpt><trkpt lat="41.4323083" lon="0.7292217"><ele>375.0</ele><time>2026-04-19T10:25:02.962Z</time></trkpt><trkpt lat="41.4324583" lon="0.7292967"><ele>375.0</ele><time>2026-04-19T10:25:03.961Z</time></trkpt><trkpt lat="41.4326233" lon="0.7293483"><ele>375.0</ele><time>2026-04-19T10:25:04.961Z</time></trkpt><trkpt lat="41.4327867" lon="0.7293817"><ele>375.0</ele><time>2026-04-19T10:25:05.962Z</time></trkpt><trkpt lat="41.4329517" lon="0.729395"><ele>370.0</ele><time>2026-04-19T10:25:06.961Z</time></trkpt><trkpt lat="41.433115" lon="0.7294017"><ele>365.0</ele><time>2026-04-19T10:25:07.961Z</time></trkpt><trkpt lat="41.43328" lon="0.7294033"><ele>360.0</ele><time>2026-04-19T10:25:08.961Z</time></trkpt><trkpt lat="41.4334533" lon="0.7294017"><ele>360.0</ele><time>2026-04-19T10:25:09.962Z</time></trkpt><trkpt lat="41.4336317" lon="0.729405"><ele>360.0</ele><time>2026-04-19T10:25:10.961Z</time></trkpt><trkpt lat="41.4338017" lon="0.7294083"><ele>360.0</ele><time>2026-04-19T10:25:11.961Z</time></trkpt><trkpt lat="41.433965" lon="0.729395"><ele>363.0</ele><time>2026-04-19T10:25:12.961Z</time></trkpt><trkpt lat="41.4341333" lon="0.7293583"><ele>366.0</ele><time>2026-04-19T10:25:13.961Z</time></trkpt><trkpt lat="41.4342967" lon="0.7292917"><ele>369.0</ele><time>2026-04-19T10:25:14.961Z</time></trkpt><trkpt lat="41.43446" lon="0.7292533"><ele>369.0</ele><time>2026-04-19T10:25:15.961Z</time></trkpt><trkpt lat="41.434635" lon="0.7292417"><ele>369.0</ele><time>2026-04-19T10:25:16.962Z</time></trkpt><trkpt lat="41.4348117" lon="0.72926"><ele>369.0</ele><time>2026-04-19T10:25:17.961Z</time></trkpt><trkpt lat="41.4349833" lon="0.7293083"><ele>363.3333333333333</ele><time>2026-04-19T10:25:18.962Z</time></trkpt><trkpt lat="41.4351217" lon="0.7294033"><ele>357.66666666666663</ele><time>2026-04-19T10:25:19.961Z</time></trkpt><trkpt lat="41.435265" lon="0.72952"><ele>352.0</ele><time>2026-04-19T10:25:20.961Z</time></trkpt><trkpt lat="41.4354" lon="0.7296233"><ele>351.3333333333333</ele><time>2026-04-19T10:25:21.962Z</time></trkpt><trkpt lat="41.4355617" lon="0.7297"><ele>350.6666666666667</ele><time>2026-04-19T10:25:22.962Z</time></trkpt><trkpt lat="41.435725" lon="0.72976"><ele>350.0</ele><time>2026-04-19T10:25:23.961Z</time></trkpt><trkpt lat="41.435895" lon="0.7298067"><ele>350.0</ele><time>2026-04-19T10:25:24.961Z</time></trkpt><trkpt lat="41.4360667" lon="0.7298367"><ele>350.0</ele><time>2026-04-19T10:25:25.961Z</time></trkpt><trkpt lat="41.4362433" lon="0.72986"><ele>350.0</ele><time>2026-04-19T10:25:26.961Z</time></trkpt><trkpt lat="41.4364167" lon="0.729835"><ele>349.6666666666667</ele><time>2026-04-19T10:25:27.961Z</time></trkpt><trkpt lat="41.4366083" lon="0.7298"><ele>349.3333333333333</ele><time>2026-04-19T10:25:28.961Z</time></trkpt><trkpt lat="41.436795" lon="0.72976"><ele>349.0</ele><time>2026-04-19T10:25:29.961Z</time></trkpt><trkpt lat="41.4369583" lon="0.729695"><ele>349.0</ele><time>2026-04-19T10:25:30.962Z</time></trkpt><trkpt lat="41.43712" lon="0.7296267"><ele>349.0</ele><time>2026-04-19T10:25:31.961Z</time></trkpt><trkpt lat="41.4372967" lon="0.7295867"><ele>349.0</ele><time>2026-04-19T10:25:32.962Z</time></trkpt><trkpt lat="41.43747" lon="0.7295767"><ele>349.0</ele><time>2026-04-19T10:25:33.961Z</time></trkpt><trkpt lat="41.4376533" lon="0.72961"><ele>349.0</ele><time>2026-04-19T10:25:34.961Z</time></trkpt><trkpt lat="41.4378333" lon="0.72969"><ele>349.0</ele><time>2026-04-19T10:25:35.961Z</time></trkpt><trkpt lat="41.43801" lon="0.7297983"><ele>348.0</ele><time>2026-04-19T10:25:36.962Z</time></trkpt><trkpt lat="41.4381567" lon="0.7299267"><ele>347.0</ele><time>2026-04-19T10:25:37.962Z</time></trkpt><trkpt lat="41.438315" lon="0.7300417"><ele>346.0</ele><time>2026-04-19T10:25:38.962Z</time></trkpt><trkpt lat="41.43847" lon="0.7301483"><ele>347.3333333333333</ele><time>2026-04-19T10:25:39.962Z</time></trkpt><trkpt lat="41.4386267" lon="0.7302567"><ele>348.6666666666667</ele><time>2026-04-19T10:25:40.962Z</time></trkpt><trkpt lat="41.43878" lon="0.7303667"><ele>350.0</ele><time>2026-04-19T10:25:41.961Z</time></trkpt><trkpt lat="41.4389333" lon="0.7304667"><ele>350.0</ele><time>2026-04-19T10:25:42.962Z</time></trkpt><trkpt lat="41.43907" lon="0.73056"><ele>350.0</ele><time>2026-04-19T10:25:43.961Z</time></trkpt><trkpt lat="41.4391983" lon="0.73066"><ele>350.0</ele><time>2026-04-19T10:25:44.961Z</time></trkpt><trkpt lat="41.4393217" lon="0.73076"><ele>350.0</ele><time>2026-04-19T10:25:45.961Z</time></trkpt><trkpt lat="41.4394517" lon="0.730845"><ele>350.0</ele><time>2026-04-19T10:25:46.962Z</time></trkpt><trkpt lat="41.4395983" lon="0.730945"><ele>350.0</ele><time>2026-04-19T10:25:47.962Z</time></trkpt><trkpt lat="41.43973" lon="0.7310467"><ele>350.0</ele><time>2026-04-19T10:25:48.962Z</time></trkpt><trkpt lat="41.4398483" lon="0.7311817"><ele>348.6666666666667</ele><time>2026-04-19T10:25:49.962Z</time></trkpt><trkpt lat="41.4399617" lon="0.7313367"><ele>347.3333333333333</ele><time>2026-04-19T10:25:50.962Z</time></trkpt><trkpt lat="41.4400483" lon="0.7314967"><ele>346.0</ele><time>2026-04-19T10:25:51.961Z</time></trkpt><trkpt lat="41.4401367" lon="0.7316483"><ele>346.0</ele><time>2026-04-19T10:25:52.961Z</time></trkpt><trkpt lat="41.4402033" lon="0.7318"><ele>346.0</ele><time>2026-04-19T10:25:53.962Z</time></trkpt><trkpt lat="41.4402783" lon="0.7319517"><ele>346.0</ele><time>2026-04-19T10:25:54.961Z</time></trkpt><trkpt lat="41.4403517" lon="0.7320917"><ele>346.0</ele><time>2026-04-19T10:25:55.962Z</time></trkpt><trkpt lat="41.4404317" lon="0.7322367"><ele>346.5</ele><time>2026-04-19T10:25:56.962Z</time></trkpt><trkpt lat="41.440495" lon="0.7323833"><ele>347.0</ele><time>2026-04-19T10:25:57.962Z</time></trkpt><trkpt lat="41.44056" lon="0.7325267"><ele>347.5</ele><time>2026-04-19T10:25:58.961Z</time></trkpt><trkpt lat="41.440615" lon="0.732675"><ele>348.0</ele><time>2026-04-19T10:25:59.961Z</time></trkpt><trkpt lat="41.4406717" lon="0.7328"><ele>349.2</ele><time>2026-04-19T10:26:00.962Z</time></trkpt><trkpt lat="41.4407017" lon="0.732945"><ele>350.4</ele><time>2026-04-19T10:26:01.961Z</time></trkpt><trkpt lat="41.44071" lon="0.733095"><ele>351.59999999999997</ele><time>2026-04-19T10:26:02.962Z</time></trkpt><trkpt lat="41.4406917" lon="0.7332367"><ele>352.79999999999995</ele><time>2026-04-19T10:26:03.961Z</time></trkpt><trkpt lat="41.4406617" lon="0.73337"><ele>354.0</ele><time>2026-04-19T10:26:04.961Z</time></trkpt><trkpt lat="41.44063" lon="0.7334817"><ele>354.6666666666667</ele><time>2026-04-19T10:26:05.962Z</time></trkpt><trkpt lat="41.4406067" lon="0.7335833"><ele>355.3333333333333</ele><time>2026-04-19T10:26:06.962Z</time></trkpt><trkpt lat="41.4405833" lon="0.73367"><ele>356.0</ele><time>2026-04-19T10:26:07.962Z</time></trkpt><trkpt lat="41.4405633" lon="0.733775"><ele>356.66666666666663</ele><time>2026-04-19T10:26:08.961Z</time></trkpt><trkpt lat="41.4405533" lon="0.733895"><ele>357.3333333333333</ele><time>2026-04-19T10:26:09.962Z</time></trkpt><trkpt lat="41.4405617" lon="0.7340233"><ele>358.0</ele><time>2026-04-19T10:26:10.962Z</time></trkpt><trkpt lat="41.4405883" lon="0.734155"><ele>358.0</ele><time>2026-04-19T10:26:11.962Z</time></trkpt><trkpt lat="41.44063" lon="0.7342833"><ele>358.0</ele><time>2026-04-19T10:26:12.962Z</time></trkpt><trkpt lat="41.44069" lon="0.7343883"><ele>358.0</ele><time>2026-04-19T10:26:13.961Z</time></trkpt><trkpt lat="41.4407633" lon="0.734475"><ele>358.0</ele><time>2026-04-19T10:26:14.962Z</time></trkpt><trkpt lat="41.4408533" lon="0.7345383"><ele>358.0</ele><time>2026-04-19T10:26:15.962Z</time></trkpt><trkpt lat="41.440945" lon="0.7345783"><ele>360.0</ele><time>2026-04-19T10:26:16.962Z</time></trkpt><trkpt lat="41.4410483" lon="0.73459"><ele>362.0</ele><time>2026-04-19T10:26:17.961Z</time></trkpt><trkpt lat="41.4411617" lon="0.7345633"><ele>364.0</ele><time>2026-04-19T10:26:18.962Z</time></trkpt><trkpt lat="41.4412633" lon="0.7344933"><ele>366.0</ele><time>2026-04-19T10:26:19.962Z</time></trkpt><trkpt lat="41.4413467" lon="0.7344067"><ele>368.0</ele><time>2026-04-19T10:26:20.962Z</time></trkpt><trkpt lat="41.4414217" lon="0.73431"><ele>368.0</ele><time>2026-04-19T10:26:21.962Z</time></trkpt><trkpt lat="41.44149" lon="0.734225"><ele>368.0</ele><time>2026-04-19T10:26:22.961Z</time></trkpt><trkpt lat="41.4415583" lon="0.73413"><ele>368.0</ele><time>2026-04-19T10:26:23.962Z</time></trkpt><trkpt lat="41.441635" lon="0.7340467"><ele>368.0</ele><time>2026-04-19T10:26:24.961Z</time></trkpt><trkpt lat="41.44173" lon="0.734005"><ele>368.0</ele><time>2026-04-19T10:26:25.961Z</time></trkpt><trkpt lat="41.4418367" lon="0.7339817"><ele>368.0</ele><time>2026-04-19T10:26:26.961Z</time></trkpt><trkpt lat="41.44193" lon="0.7339683"><ele>368.0</ele><time>2026-04-19T10:26:27.961Z</time></trkpt><trkpt lat="41.4420183" lon="0.7339567"><ele>368.0</ele><time>2026-04-19T10:26:28.962Z</time></trkpt><trkpt lat="41.4421" lon="0.733915"><ele>368.0</ele><time>2026-04-19T10:26:29.961Z</time></trkpt><trkpt lat="41.4421867" lon="0.73386"><ele>368.0</ele><time>2026-04-19T10:26:30.961Z</time></trkpt><trkpt lat="41.4422617" lon="0.7337867"><ele>367.2</ele><time>2026-04-19T10:26:31.962Z</time></trkpt><trkpt lat="41.442345" lon="0.7337183"><ele>366.4</ele><time>2026-04-19T10:26:32.961Z</time></trkpt><trkpt lat="41.4424317" lon="0.73365"><ele>365.59999999999997</ele><time>2026-04-19T10:26:33.962Z</time></trkpt><trkpt lat="41.442515" lon="0.733595"><ele>364.79999999999995</ele><time>2026-04-19T10:26:34.962Z</time></trkpt><trkpt lat="41.4426083" lon="0.7335633"><ele>364.0</ele><time>2026-04-19T10:26:35.961Z</time></trkpt><trkpt lat="41.4427083" lon="0.7335517"><ele>364.0</ele><time>2026-04-19T10:26:36.962Z</time></trkpt><trkpt lat="41.4428033" lon="0.733545"><ele>364.0</ele><time>2026-04-19T10:26:37.961Z</time></trkpt><trkpt lat="41.4429067" lon="0.7335633"><ele>364.0</ele><time>2026-04-19T10:26:38.961Z</time></trkpt><trkpt lat="41.4430017" lon="0.73358"><ele>364.0</ele><time>2026-04-19T10:26:39.961Z</time></trkpt><trkpt lat="41.4430983" lon="0.73361"><ele>364.0</ele><time>2026-04-19T10:26:40.962Z</time></trkpt><trkpt lat="41.443195" lon="0.733645"><ele>366.4</ele><time>2026-04-19T10:26:41.961Z</time></trkpt><trkpt lat="41.44329" lon="0.7336933"><ele>368.79999999999995</ele><time>2026-04-19T10:26:42.961Z</time></trkpt><trkpt lat="41.443385" lon="0.7337467"><ele>371.20000000000005</ele><time>2026-04-19T10:26:43.962Z</time></trkpt><trkpt lat="41.4434833" lon="0.7338"><ele>373.6</ele><time>2026-04-19T10:26:44.961Z</time></trkpt><trkpt lat="41.443575" lon="0.7338717"><ele>376.0</ele><time>2026-04-19T10:26:45.961Z</time></trkpt><trkpt lat="41.4436517" lon="0.7339683"><ele>376.0</ele><time>2026-04-19T10:26:46.961Z</time></trkpt><trkpt lat="41.4436917" lon="0.73409"><ele>376.0</ele><time>2026-04-19T10:26:47.962Z</time></trkpt><trkpt lat="41.4437083" lon="0.73423"><ele>376.0</ele><time>2026-04-19T10:26:48.962Z</time></trkpt><trkpt lat="41.4437033" lon="0.734385"><ele>376.0</ele><time>2026-04-19T10:26:49.961Z</time></trkpt><trkpt lat="41.4436917" lon="0.734545"><ele>376.0</ele><time>2026-04-19T10:26:50.961Z</time></trkpt><trkpt lat="41.4436833" lon="0.734705"><ele>376.0</ele><time>2026-04-19T10:26:51.961Z</time></trkpt><trkpt lat="41.4436683" lon="0.7348583"><ele>376.0</ele><time>2026-04-19T10:26:52.961Z</time></trkpt><trkpt lat="41.4436483" lon="0.7350117"><ele>376.0</ele><time>2026-04-19T10:26:53.962Z</time></trkpt><trkpt lat="41.4436317" lon="0.735175"><ele>376.0</ele><time>2026-04-19T10:26:54.962Z</time></trkpt><trkpt lat="41.4435967" lon="0.7353367"><ele>375.25</ele><time>2026-04-19T10:26:55.962Z</time></trkpt><trkpt lat="41.4435517" lon="0.7354917"><ele>374.5</ele><time>2026-04-19T10:26:56.962Z</time></trkpt><trkpt lat="41.443515" lon="0.7356417"><ele>373.75</ele><time>2026-04-19T10:26:57.961Z</time></trkpt><trkpt lat="41.4434917" lon="0.7357967"><ele>373.0</ele><time>2026-04-19T10:26:58.962Z</time></trkpt><trkpt lat="41.4434767" lon="0.7359483"><ele>372.75</ele><time>2026-04-19T10:26:59.962Z</time></trkpt><trkpt lat="41.4435117" lon="0.7361117"><ele>372.5</ele><time>2026-04-19T10:27:00.961Z</time></trkpt><trkpt lat="41.443575" lon="0.7362583"><ele>372.25</ele><time>2026-04-19T10:27:01.962Z</time></trkpt><trkpt lat="41.4436817" lon="0.73635"><ele>372.0</ele><time>2026-04-19T10:27:02.962Z</time></trkpt><trkpt lat="41.4437917" lon="0.7364433"><ele>367.25</ele><time>2026-04-19T10:27:03.962Z</time></trkpt><trkpt lat="41.4438817" lon="0.7365567"><ele>362.5</ele><time>2026-04-19T10:27:04.961Z</time></trkpt><trkpt lat="41.4439067" lon="0.7367167"><ele>357.75</ele><time>2026-04-19T10:27:05.962Z</time></trkpt><trkpt lat="41.44392" lon="0.7369033"><ele>353.0</ele><time>2026-04-19T10:27:06.961Z</time></trkpt><trkpt lat="41.4438867" lon="0.7370883"><ele>353.5</ele><time>2026-04-19T10:27:07.961Z</time></trkpt><trkpt lat="41.4437933" lon="0.7372383"><ele>354.0</ele><time>2026-04-19T10:27:08.961Z</time></trkpt><trkpt lat="41.44373" lon="0.7373917"><ele>354.5</ele><time>2026-04-19T10:27:09.962Z</time></trkpt><trkpt lat="41.4436767" lon="0.7375717"><ele>355.0</ele><time>2026-04-19T10:27:10.961Z</time></trkpt><trkpt lat="41.4436583" lon="0.7377667"><ele>355.0</ele><time>2026-04-19T10:27:11.962Z</time></trkpt><trkpt lat="41.44367" lon="0.737985"><ele>355.0</ele><time>2026-04-19T10:27:12.962Z</time></trkpt><trkpt lat="41.4437333" lon="0.738175"><ele>355.0</ele><time>2026-04-19T10:27:13.962Z</time></trkpt><trkpt lat="41.4438283" lon="0.73833"><ele>354.75</ele><time>2026-04-19T10:27:14.962Z</time></trkpt><trkpt lat="41.4439367" lon="0.7384567"><ele>354.5</ele><time>2026-04-19T10:27:15.961Z</time></trkpt><trkpt lat="41.44406" lon="0.7385433"><ele>354.25</ele><time>2026-04-19T10:27:16.961Z</time></trkpt><trkpt lat="41.444215" lon="0.738555"><ele>354.0</ele><time>2026-04-19T10:27:17.962Z</time></trkpt><trkpt lat="41.4443733" lon="0.7385117"><ele>354.0</ele><time>2026-04-19T10:27:18.962Z</time></trkpt><trkpt lat="41.444535" lon="0.7384333"><ele>354.0</ele><time>2026-04-19T10:27:19.961Z</time></trkpt><trkpt lat="41.444685" lon="0.73831"><ele>354.0</ele><time>2026-04-19T10:27:20.962Z</time></trkpt><trkpt lat="41.4448217" lon="0.7381617"><ele>354.6666666666667</ele><time>2026-04-19T10:27:21.961Z</time></trkpt><trkpt lat="41.444915" lon="0.7379983"><ele>355.33333333333337</ele><time>2026-04-19T10:27:22.961Z</time></trkpt><trkpt lat="41.4449717" lon="0.7377933"><ele>356.0</ele><time>2026-04-19T10:27:23.961Z</time></trkpt><trkpt lat="41.4450217" lon="0.7375833"><ele>356.0</ele><time>2026-04-19T10:27:24.962Z</time></trkpt><trkpt lat="41.4450667" lon="0.737385"><ele>356.0</ele><time>2026-04-19T10:27:25.961Z</time></trkpt><trkpt lat="41.4450983" lon="0.7371883"><ele>356.0</ele><time>2026-04-19T10:27:26.961Z</time></trkpt><trkpt lat="41.4451467" lon="0.7369917"><ele>357.33333333333337</ele><time>2026-04-19T10:27:27.962Z</time></trkpt><trkpt lat="41.4452417" lon="0.736825"><ele>358.6666666666667</ele><time>2026-04-19T10:27:28.962Z</time></trkpt><trkpt lat="41.4453767" lon="0.736715"><ele>360.0</ele><time>2026-04-19T10:27:29.961Z</time></trkpt><trkpt lat="41.44552" lon="0.7365967"><ele>360.0</ele><time>2026-04-19T10:27:30.961Z</time></trkpt><trkpt lat="41.4456533" lon="0.7364983"><ele>360.0</ele><time>2026-04-19T10:27:31.962Z</time></trkpt><trkpt lat="41.445775" lon="0.7363917"><ele>360.0</ele><time>2026-04-19T10:27:32.961Z</time></trkpt><trkpt lat="41.445895" lon="0.7363017"><ele>360.0</ele><time>2026-04-19T10:27:33.962Z</time></trkpt><trkpt lat="41.4459917" lon="0.73624"><ele>360.0</ele><time>2026-04-19T10:27:34.962Z</time></trkpt><trkpt lat="41.4460983" lon="0.7362083"><ele>360.0</ele><time>2026-04-19T10:27:35.961Z</time></trkpt><trkpt lat="41.4462283" lon="0.7362267"><ele>360.0</ele><time>2026-04-19T10:27:36.961Z</time></trkpt><trkpt lat="41.446375" lon="0.73625"><ele>360.0</ele><time>2026-04-19T10:27:37.962Z</time></trkpt><trkpt lat="41.4465383" lon="0.73625"><ele>359.75</ele><time>2026-04-19T10:27:38.961Z</time></trkpt><trkpt lat="41.44669" lon="0.7362567"><ele>359.5</ele><time>2026-04-19T10:27:39.961Z</time></trkpt><trkpt lat="41.44682" lon="0.7362717"><ele>359.25</ele><time>2026-04-19T10:27:40.961Z</time></trkpt><trkpt lat="41.44693" lon="0.7363"><ele>359.0</ele><time>2026-04-19T10:27:41.961Z</time></trkpt><trkpt lat="41.4470183" lon="0.73638"><ele>359.0</ele><time>2026-04-19T10:27:42.962Z</time></trkpt><trkpt lat="41.4471" lon="0.7364817"><ele>359.0</ele><time>2026-04-19T10:27:43.962Z</time></trkpt><trkpt lat="41.44715" lon="0.736635"><ele>359.0</ele><time>2026-04-19T10:27:44.961Z</time></trkpt><trkpt lat="41.4471767" lon="0.7368083"><ele>359.0</ele><time>2026-04-19T10:27:45.961Z</time></trkpt><trkpt lat="41.4471717" lon="0.736985"><ele>358.0</ele><time>2026-04-19T10:27:46.961Z</time></trkpt><trkpt lat="41.4471583" lon="0.7371683"><ele>357.0</ele><time>2026-04-19T10:27:47.962Z</time></trkpt><trkpt lat="41.44716" lon="0.7373283"><ele>356.0</ele><time>2026-04-19T10:27:48.962Z</time></trkpt><trkpt lat="41.447165" lon="0.737475"><ele>355.0</ele><time>2026-04-19T10:27:49.962Z</time></trkpt><trkpt lat="41.447205" lon="0.737615"><ele>355.0</ele><time>2026-04-19T10:27:50.961Z</time></trkpt><trkpt lat="41.4472767" lon="0.7377183"><ele>355.0</ele><time>2026-04-19T10:27:51.962Z</time></trkpt><trkpt lat="41.4473683" lon="0.7377967"><ele>355.0</ele><time>2026-04-19T10:27:52.962Z</time></trkpt><trkpt lat="41.44747" lon="0.7378617"><ele>355.0</ele><time>2026-04-19T10:27:53.962Z</time></trkpt><trkpt lat="41.4475733" lon="0.7379233"><ele>355.0</ele><time>2026-04-19T10:27:54.961Z</time></trkpt><trkpt lat="41.4476783" lon="0.7379883"><ele>356.66666666666663</ele><time>2026-04-19T10:27:55.961Z</time></trkpt><trkpt lat="41.44776" lon="0.7380617"><ele>358.3333333333333</ele><time>2026-04-19T10:27:56.962Z</time></trkpt><trkpt lat="41.4478217" lon="0.7381483"><ele>360.0</ele><time>2026-04-19T10:27:57.962Z</time></trkpt><trkpt lat="41.44787" lon="0.7382417"><ele>361.6666666666667</ele><time>2026-04-19T10:27:58.961Z</time></trkpt><trkpt lat="41.4479117" lon="0.73833"><ele>363.33333333333337</ele><time>2026-04-19T10:27:59.962Z</time></trkpt><trkpt lat="41.4479417" lon="0.7384117"><ele>365.0</ele><time>2026-04-19T10:28:00.961Z</time></trkpt><trkpt lat="41.4479833" lon="0.7385333"><ele>366.0</ele><time>2026-04-19T10:28:02.961Z</time></trkpt><trkpt lat="41.4480417" lon="0.7386717"><ele>367.0</ele><time>2026-04-19T10:28:04.962Z</time></trkpt><trkpt lat="41.44807" lon="0.738755"><ele>368.0</ele><time>2026-04-19T10:28:05.962Z</time></trkpt><trkpt lat="41.4481017" lon="0.738835"><ele>369.0</ele><time>2026-04-19T10:28:06.962Z</time></trkpt><trkpt lat="41.4481433" lon="0.7389017"><ele>370.0</ele><time>2026-04-19T10:28:07.961Z</time></trkpt><trkpt lat="41.4482183" lon="0.7390017"><ele>371.0</ele><time>2026-04-19T10:28:09.961Z</time></trkpt><trkpt lat="41.4482483" lon="0.73908"><ele>371.0</ele><time>2026-04-19T10:28:11.962Z</time></trkpt><trkpt lat="41.4483533" lon="0.73911"><ele>371.0</ele><time>2026-04-19T10:28:37.961Z</time></trkpt><trkpt lat="41.4484067" lon="0.7391833"><ele>371.0</ele><time>2026-04-19T10:28:41.962Z</time></trkpt><trkpt lat="41.448385" lon="0.7392633"><ele>371.0</ele><time>2026-04-19T10:28:42.962Z</time></trkpt><trkpt lat="41.448345" lon="0.7393817"><ele>371.0</ele><time>2026-04-19T10:28:43.961Z</time></trkpt><trkpt lat="41.4483233" lon="0.7394783"><ele>371.0</ele><time>2026-04-19T10:28:44.962Z</time></trkpt><trkpt lat="41.4482933" lon="0.7395883"><ele>370.0</ele><time>2026-04-19T10:28:45.962Z</time></trkpt><trkpt lat="41.4482683" lon="0.7397067"><ele>369.0</ele><time>2026-04-19T10:28:46.961Z</time></trkpt><trkpt lat="41.448245" lon="0.7398367"><ele>368.0</ele><time>2026-04-19T10:28:47.961Z</time></trkpt><trkpt lat="41.4482217" lon="0.739975"><ele>367.0</ele><time>2026-04-19T10:28:48.962Z</time></trkpt><trkpt lat="41.4482017" lon="0.7401083"><ele>366.0</ele><time>2026-04-19T10:28:49.962Z</time></trkpt><trkpt lat="41.4481933" lon="0.7402267"><ele>365.4</ele><time>2026-04-19T10:28:50.962Z</time></trkpt><trkpt lat="41.4481917" lon="0.7403567"><ele>364.8</ele><time>2026-04-19T10:28:51.962Z</time></trkpt><trkpt lat="41.4482067" lon="0.74049"><ele>364.2</ele><time>2026-04-19T10:28:52.962Z</time></trkpt><trkpt lat="41.448245" lon="0.7406267"><ele>363.59999999999997</ele><time>2026-04-19T10:28:53.961Z</time></trkpt><trkpt lat="41.4482883" lon="0.7407567"><ele>363.0</ele><time>2026-04-19T10:28:54.962Z</time></trkpt><trkpt lat="41.4483483" lon="0.7408867"><ele>363.0</ele><time>2026-04-19T10:28:55.962Z</time></trkpt><trkpt lat="41.448405" lon="0.741005"><ele>363.0</ele><time>2026-04-19T10:28:56.962Z</time></trkpt><trkpt lat="41.4484533" lon="0.74112"><ele>363.0</ele><time>2026-04-19T10:28:57.962Z</time></trkpt><trkpt lat="41.4484883" lon="0.7412483"><ele>363.0</ele><time>2026-04-19T10:28:58.961Z</time></trkpt><trkpt lat="41.4485033" lon="0.7413867"><ele>363.0</ele><time>2026-04-19T10:28:59.961Z</time></trkpt><trkpt lat="41.4485083" lon="0.7415233"><ele>362.25</ele><time>2026-04-19T10:29:00.962Z</time></trkpt><trkpt lat="41.44852" lon="0.74167"><ele>361.5</ele><time>2026-04-19T10:29:01.962Z</time></trkpt><trkpt lat="41.4485267" lon="0.7418233"><ele>360.75</ele><time>2026-04-19T10:29:02.961Z</time></trkpt><trkpt lat="41.448525" lon="0.7419833"><ele>360.0</ele><time>2026-04-19T10:29:03.962Z</time></trkpt><trkpt lat="41.4485467" lon="0.7421633"><ele>360.0</ele><time>2026-04-19T10:29:04.961Z</time></trkpt><trkpt lat="41.448575" lon="0.74232"><ele>360.0</ele><time>2026-04-19T10:29:05.961Z</time></trkpt><trkpt lat="41.4485967" lon="0.742475"><ele>360.0</ele><time>2026-04-19T10:29:06.962Z</time></trkpt><trkpt lat="41.4486383" lon="0.74263"><ele>360.0</ele><time>2026-04-19T10:29:07.962Z</time></trkpt><trkpt lat="41.448665" lon="0.7427883"><ele>359.0</ele><time>2026-04-19T10:29:08.962Z</time></trkpt><trkpt lat="41.448675" lon="0.7429533"><ele>358.0</ele><time>2026-04-19T10:29:09.962Z</time></trkpt><trkpt lat="41.4486533" lon="0.7431417"><ele>357.0</ele><time>2026-04-19T10:29:10.962Z</time></trkpt><trkpt lat="41.44862" lon="0.743325"><ele>356.0</ele><time>2026-04-19T10:29:11.961Z</time></trkpt><trkpt lat="41.44859" lon="0.743505"><ele>354.75</ele><time>2026-04-19T10:29:12.961Z</time></trkpt><trkpt lat="41.4485617" lon="0.7436917"><ele>353.5</ele><time>2026-04-19T10:29:13.962Z</time></trkpt><trkpt lat="41.4485283" lon="0.743885"><ele>352.25</ele><time>2026-04-19T10:29:14.962Z</time></trkpt><trkpt lat="41.448505" lon="0.7440733"><ele>351.0</ele><time>2026-04-19T10:29:15.962Z</time></trkpt><trkpt lat="41.4484883" lon="0.7442567"><ele>350.25</ele><time>2026-04-19T10:29:16.961Z</time></trkpt><trkpt lat="41.4484783" lon="0.7444317"><ele>349.5</ele><time>2026-04-19T10:29:17.962Z</time></trkpt><trkpt lat="41.44847" lon="0.7446017"><ele>348.75</ele><time>2026-04-19T10:29:18.961Z</time></trkpt><trkpt lat="41.4484617" lon="0.7447683"><ele>348.0</ele><time>2026-04-19T10:29:19.962Z</time></trkpt><trkpt lat="41.4484617" lon="0.7449267"><ele>348.0</ele><time>2026-04-19T10:29:20.962Z</time></trkpt><trkpt lat="41.448445" lon="0.745095"><ele>348.0</ele><time>2026-04-19T10:29:21.962Z</time></trkpt><trkpt lat="41.4484367" lon="0.7452517"><ele>348.0</ele><time>2026-04-19T10:29:22.962Z</time></trkpt><trkpt lat="41.4484267" lon="0.7453917"><ele>348.0</ele><time>2026-04-19T10:29:23.961Z</time></trkpt><trkpt lat="41.4484267" lon="0.7455467"><ele>346.5</ele><time>2026-04-19T10:29:24.962Z</time></trkpt><trkpt lat="41.44844" lon="0.74569"><ele>345.0</ele><time>2026-04-19T10:29:25.961Z</time></trkpt><trkpt lat="41.4484683" lon="0.7458417"><ele>343.5</ele><time>2026-04-19T10:29:26.961Z</time></trkpt><trkpt lat="41.44851" lon="0.74598"><ele>342.0</ele><time>2026-04-19T10:29:27.961Z</time></trkpt><trkpt lat="41.448565" lon="0.7461217"><ele>341.0</ele><time>2026-04-19T10:29:28.962Z</time></trkpt><trkpt lat="41.4486383" lon="0.7462517"><ele>340.0</ele><time>2026-04-19T10:29:29.961Z</time></trkpt><trkpt lat="41.4487183" lon="0.7463683"><ele>339.0</ele><time>2026-04-19T10:29:30.962Z</time></trkpt><trkpt lat="41.448815" lon="0.7464617"><ele>338.0</ele><time>2026-04-19T10:29:31.961Z</time></trkpt><trkpt lat="41.44893" lon="0.7465383"><ele>338.0</ele><time>2026-04-19T10:29:32.962Z</time></trkpt><trkpt lat="41.4490467" lon="0.7465983"><ele>338.0</ele><time>2026-04-19T10:29:33.962Z</time></trkpt><trkpt lat="41.44918" lon="0.7466283"><ele>338.0</ele><time>2026-04-19T10:29:34.961Z</time></trkpt><trkpt lat="41.449305" lon="0.746635"><ele>338.0</ele><time>2026-04-19T10:29:35.962Z</time></trkpt><trkpt lat="41.4494317" lon="0.7466233"><ele>338.0</ele><time>2026-04-19T10:29:36.962Z</time></trkpt><trkpt lat="41.4495533" lon="0.7465833"><ele>338.0</ele><time>2026-04-19T10:29:37.962Z</time></trkpt><trkpt lat="41.4496767" lon="0.746525"><ele>338.0</ele><time>2026-04-19T10:29:38.961Z</time></trkpt><trkpt lat="41.449795" lon="0.7464367"><ele>338.0</ele><time>2026-04-19T10:29:39.962Z</time></trkpt><trkpt lat="41.4499" lon="0.7463283"><ele>337.5</ele><time>2026-04-19T10:29:40.961Z</time></trkpt><trkpt lat="41.4499833" lon="0.7461967"><ele>337.0</ele><time>2026-04-19T10:29:41.961Z</time></trkpt><trkpt lat="41.4500517" lon="0.7460583"><ele>336.5</ele><time>2026-04-19T10:29:42.961Z</time></trkpt><trkpt lat="41.4501133" lon="0.7459067"><ele>336.0</ele><time>2026-04-19T10:29:43.961Z</time></trkpt><trkpt lat="41.4501467" lon="0.745745"><ele>336.0</ele><time>2026-04-19T10:29:44.962Z</time></trkpt><trkpt lat="41.4501583" lon="0.7455667"><ele>336.0</ele><time>2026-04-19T10:29:45.962Z</time></trkpt><trkpt lat="41.4501783" lon="0.7453867"><ele>336.0</ele><time>2026-04-19T10:29:46.962Z</time></trkpt><trkpt lat="41.4501383" lon="0.7451817"><ele>336.0</ele><time>2026-04-19T10:29:47.961Z</time></trkpt><trkpt lat="41.450095" lon="0.7449883"><ele>336.0</ele><time>2026-04-19T10:29:48.961Z</time></trkpt><trkpt lat="41.4500633" lon="0.7448083"><ele>336.0</ele><time>2026-04-19T10:29:49.962Z</time></trkpt><trkpt lat="41.450045" lon="0.74464"><ele>336.0</ele><time>2026-04-19T10:29:50.962Z</time></trkpt><trkpt lat="41.4500567" lon="0.7444517"><ele>336.0</ele><time>2026-04-19T10:29:51.961Z</time></trkpt><trkpt lat="41.4500867" lon="0.74426"><ele>335.75</ele><time>2026-04-19T10:29:52.962Z</time></trkpt><trkpt lat="41.45013" lon="0.7440733"><ele>335.5</ele><time>2026-04-19T10:29:53.962Z</time></trkpt><trkpt lat="41.450185" lon="0.74389"><ele>335.25</ele><time>2026-04-19T10:29:54.962Z</time></trkpt><trkpt lat="41.4502617" lon="0.7437333"><ele>335.0</ele><time>2026-04-19T10:29:55.961Z</time></trkpt><trkpt lat="41.4503467" lon="0.7435767"><ele>332.25</ele><time>2026-04-19T10:29:56.962Z</time></trkpt><trkpt lat="41.4504633" lon="0.7434567"><ele>329.5</ele><time>2026-04-19T10:29:57.962Z</time></trkpt><trkpt lat="41.45054" lon="0.743325"><ele>326.75</ele><time>2026-04-19T10:29:58.962Z</time></trkpt><trkpt lat="41.4506217" lon="0.7432083"><ele>324.0</ele><time>2026-04-19T10:29:59.962Z</time></trkpt><trkpt lat="41.45074" lon="0.74311"><ele>324.0</ele><time>2026-04-19T10:30:00.961Z</time></trkpt><trkpt lat="41.4508733" lon="0.74304"><ele>324.0</ele><time>2026-04-19T10:30:01.961Z</time></trkpt><trkpt lat="41.4510133" lon="0.7429867"><ele>324.0</ele><time>2026-04-19T10:30:02.962Z</time></trkpt><trkpt lat="41.451155" lon="0.7429883"><ele>324.0</ele><time>2026-04-19T10:30:03.962Z</time></trkpt><trkpt lat="41.45129" lon="0.7430367"><ele>322.0</ele><time>2026-04-19T10:30:04.962Z</time></trkpt><trkpt lat="41.451405" lon="0.7431083"><ele>320.0</ele><time>2026-04-19T10:30:05.962Z</time></trkpt><trkpt lat="41.4515383" lon="0.7431983"><ele>318.0</ele><time>2026-04-19T10:30:06.962Z</time></trkpt><trkpt lat="41.4516267" lon="0.7433483"><ele>316.0</ele><time>2026-04-19T10:30:07.962Z</time></trkpt><trkpt lat="41.4516983" lon="0.7435117"><ele>316.25</ele><time>2026-04-19T10:30:08.961Z</time></trkpt><trkpt lat="41.45174" lon="0.7437"><ele>316.5</ele><time>2026-04-19T10:30:09.962Z</time></trkpt><trkpt lat="41.4517583" lon="0.7438967"><ele>316.75</ele><time>2026-04-19T10:30:10.961Z</time></trkpt><trkpt lat="41.4517333" lon="0.74409"><ele>317.0</ele><time>2026-04-19T10:30:11.962Z</time></trkpt><trkpt lat="41.451685" lon="0.74428"><ele>314.75</ele><time>2026-04-19T10:30:12.961Z</time></trkpt><trkpt lat="41.451615" lon="0.7444467"><ele>312.5</ele><time>2026-04-19T10:30:13.962Z</time></trkpt><trkpt lat="41.4515283" lon="0.7445867"><ele>310.25</ele><time>2026-04-19T10:30:14.962Z</time></trkpt><trkpt lat="41.4514433" lon="0.7447317"><ele>308.0</ele><time>2026-04-19T10:30:15.962Z</time></trkpt><trkpt lat="41.4513533" lon="0.7448917"><ele>310.33333333333337</ele><time>2026-04-19T10:30:16.961Z</time></trkpt><trkpt lat="41.4512717" lon="0.74506"><ele>312.6666666666667</ele><time>2026-04-19T10:30:17.961Z</time></trkpt><trkpt lat="41.45119" lon="0.74524"><ele>315.0</ele><time>2026-04-19T10:30:18.962Z</time></trkpt><trkpt lat="41.4511217" lon="0.745425"><ele>315.0</ele><time>2026-04-19T10:30:19.961Z</time></trkpt><trkpt lat="41.45107" lon="0.745615"><ele>315.0</ele><time>2026-04-19T10:30:20.961Z</time></trkpt><trkpt lat="41.4510417" lon="0.7458"><ele>315.0</ele><time>2026-04-19T10:30:21.961Z</time></trkpt><trkpt lat="41.4510383" lon="0.7459767"><ele>315.0</ele><time>2026-04-19T10:30:22.962Z</time></trkpt><trkpt lat="41.4510617" lon="0.7461483"><ele>313.25</ele><time>2026-04-19T10:30:23.962Z</time></trkpt><trkpt lat="41.4511067" lon="0.7462967"><ele>311.5</ele><time>2026-04-19T10:30:24.961Z</time></trkpt><trkpt lat="41.4511817" lon="0.746435"><ele>309.75</ele><time>2026-04-19T10:30:25.962Z</time></trkpt><trkpt lat="41.4513067" lon="0.7465167"><ele>308.0</ele><time>2026-04-19T10:30:26.962Z</time></trkpt><trkpt lat="41.45141" lon="0.7465617"><ele>307.25</ele><time>2026-04-19T10:30:27.961Z</time></trkpt><trkpt lat="41.4515283" lon="0.7465983"><ele>306.5</ele><time>2026-04-19T10:30:28.962Z</time></trkpt><trkpt lat="41.45167" lon="0.7465933"><ele>305.75</ele><time>2026-04-19T10:30:29.962Z</time></trkpt><trkpt lat="41.4518183" lon="0.746555"><ele>305.0</ele><time>2026-04-19T10:30:30.961Z</time></trkpt><trkpt lat="41.4519167" lon="0.7465"><ele>305.0</ele><time>2026-04-19T10:30:31.962Z</time></trkpt><trkpt lat="41.45202" lon="0.7464217"><ele>305.0</ele><time>2026-04-19T10:30:32.962Z</time></trkpt><trkpt lat="41.4521283" lon="0.7463167"><ele>305.0</ele><time>2026-04-19T10:30:33.962Z</time></trkpt><trkpt lat="41.4522217" lon="0.7461917"><ele>305.0</ele><time>2026-04-19T10:30:34.962Z</time></trkpt><trkpt lat="41.4523083" lon="0.7460367"><ele>308.0</ele><time>2026-04-19T10:30:35.961Z</time></trkpt><trkpt lat="41.452385" lon="0.7458783"><ele>311.0</ele><time>2026-04-19T10:30:36.962Z</time></trkpt><trkpt lat="41.4524283" lon="0.74572"><ele>314.0</ele><time>2026-04-19T10:30:37.961Z</time></trkpt><trkpt lat="41.4524533" lon="0.7455583"><ele>317.0</ele><time>2026-04-19T10:30:38.962Z</time></trkpt><trkpt lat="41.452495" lon="0.7454017"><ele>317.0</ele><time>2026-04-19T10:30:39.961Z</time></trkpt><trkpt lat="41.4525217" lon="0.7452333"><ele>317.0</ele><time>2026-04-19T10:30:40.961Z</time></trkpt><trkpt lat="41.4525667" lon="0.7450667"><ele>317.0</ele><time>2026-04-19T10:30:41.961Z</time></trkpt><trkpt lat="41.4526233" lon="0.744905"><ele>317.0</ele><time>2026-04-19T10:30:42.962Z</time></trkpt><trkpt lat="41.452665" lon="0.74474"><ele>315.5</ele><time>2026-04-19T10:30:43.962Z</time></trkpt><trkpt lat="41.4527067" lon="0.74458"><ele>314.0</ele><time>2026-04-19T10:30:44.961Z</time></trkpt><trkpt lat="41.4527467" lon="0.74441"><ele>312.5</ele><time>2026-04-19T10:30:45.962Z</time></trkpt><trkpt lat="41.4527833" lon="0.74424"><ele>311.0</ele><time>2026-04-19T10:30:46.961Z</time></trkpt><trkpt lat="41.452825" lon="0.7440717"><ele>310.5</ele><time>2026-04-19T10:30:47.961Z</time></trkpt><trkpt lat="41.452865" lon="0.7439017"><ele>310.0</ele><time>2026-04-19T10:30:48.961Z</time></trkpt><trkpt lat="41.4529133" lon="0.743725"><ele>309.5</ele><time>2026-04-19T10:30:49.961Z</time></trkpt><trkpt lat="41.45296" lon="0.7435533"><ele>309.0</ele><time>2026-04-19T10:30:50.961Z</time></trkpt><trkpt lat="41.4530017" lon="0.7433817"><ele>311.5</ele><time>2026-04-19T10:30:51.961Z</time></trkpt><trkpt lat="41.4530467" lon="0.7432233"><ele>314.0</ele><time>2026-04-19T10:30:52.961Z</time></trkpt><trkpt lat="41.4530967" lon="0.743075"><ele>316.5</ele><time>2026-04-19T10:30:53.962Z</time></trkpt><trkpt lat="41.4531783" lon="0.7429483"><ele>319.0</ele><time>2026-04-19T10:30:54.961Z</time></trkpt><trkpt lat="41.4532683" lon="0.7428483"><ele>319.0</ele><time>2026-04-19T10:30:55.961Z</time></trkpt><trkpt lat="41.453375" lon="0.7427767"><ele>319.0</ele><time>2026-04-19T10:30:56.961Z</time></trkpt><trkpt lat="41.4534867" lon="0.742735"><ele>319.0</ele><time>2026-04-19T10:30:57.961Z</time></trkpt><trkpt lat="41.453605" lon="0.7427133"><ele>319.0</ele><time>2026-04-19T10:30:58.962Z</time></trkpt><trkpt lat="41.45371" lon="0.74269"><ele>319.79999999999995</ele><time>2026-04-19T10:30:59.962Z</time></trkpt><trkpt lat="41.45381" lon="0.74264"><ele>320.59999999999997</ele><time>2026-04-19T10:31:00.962Z</time></trkpt><trkpt lat="41.4538983" lon="0.742585"><ele>321.4</ele><time>2026-04-19T10:31:01.962Z</time></trkpt><trkpt lat="41.4539717" lon="0.74251"><ele>322.2</ele><time>2026-04-19T10:31:02.961Z</time></trkpt><trkpt lat="41.45404" lon="0.7424083"><ele>323.0</ele><time>2026-04-19T10:31:03.961Z</time></trkpt><trkpt lat="41.454095" lon="0.7422917"><ele>323.0</ele><time>2026-04-19T10:31:04.961Z</time></trkpt><trkpt lat="41.4541433" lon="0.7421483"><ele>323.0</ele><time>2026-04-19T10:31:05.962Z</time></trkpt><trkpt lat="41.4541633" lon="0.7420117"><ele>323.0</ele><time>2026-04-19T10:31:06.961Z</time></trkpt><trkpt lat="41.4541683" lon="0.7418783"><ele>323.0</ele><time>2026-04-19T10:31:07.962Z</time></trkpt><trkpt lat="41.45418" lon="0.7417417"><ele>323.0</ele><time>2026-04-19T10:31:08.962Z</time></trkpt><trkpt lat="41.4541967" lon="0.7416167"><ele>322.4</ele><time>2026-04-19T10:31:09.961Z</time></trkpt><trkpt lat="41.4542133" lon="0.74149"><ele>321.79999999999995</ele><time>2026-04-19T10:31:10.961Z</time></trkpt><trkpt lat="41.45423" lon="0.7413667"><ele>321.2</ele><time>2026-04-19T10:31:11.962Z</time></trkpt><trkpt lat="41.454245" lon="0.7412383"><ele>320.6</ele><time>2026-04-19T10:31:12.962Z</time></trkpt><trkpt lat="41.4542617" lon="0.7411233"><ele>320.0</ele><time>2026-04-19T10:31:13.961Z</time></trkpt><trkpt lat="41.4542833" lon="0.741"><ele>319.6</ele><time>2026-04-19T10:31:14.961Z</time></trkpt><trkpt lat="41.4543083" lon="0.74088"><ele>319.2</ele><time>2026-04-19T10:31:15.961Z</time></trkpt><trkpt lat="41.4543417" lon="0.7407633"><ele>318.8</ele><time>2026-04-19T10:31:16.962Z</time></trkpt><trkpt lat="41.4543883" lon="0.7406667"><ele>318.4</ele><time>2026-04-19T10:31:17.962Z</time></trkpt><trkpt lat="41.4544617" lon="0.74059"><ele>318.0</ele><time>2026-04-19T10:31:18.961Z</time></trkpt><trkpt lat="41.4545483" lon="0.7405317"><ele>319.6</ele><time>2026-04-19T10:31:19.961Z</time></trkpt><trkpt lat="41.4546417" lon="0.7405067"><ele>321.20000000000005</ele><time>2026-04-19T10:31:20.961Z</time></trkpt><trkpt lat="41.454745" lon="0.7405167"><ele>322.8</ele><time>2026-04-19T10:31:21.961Z</time></trkpt><trkpt lat="41.45485" lon="0.7405483"><ele>324.40000000000003</ele><time>2026-04-19T10:31:22.961Z</time></trkpt><trkpt lat="41.45494" lon="0.7405983"><ele>326.0</ele><time>2026-04-19T10:31:23.962Z</time></trkpt><trkpt lat="41.4550383" lon="0.7406667"><ele>326.0</ele><time>2026-04-19T10:31:24.962Z</time></trkpt><trkpt lat="41.455125" lon="0.7407567"><ele>326.0</ele><time>2026-04-19T10:31:25.961Z</time></trkpt><trkpt lat="41.4551967" lon="0.7408583"><ele>326.0</ele><time>2026-04-19T10:31:26.962Z</time></trkpt><trkpt lat="41.455265" lon="0.74095"><ele>326.0</ele><time>2026-04-19T10:31:27.962Z</time></trkpt><trkpt lat="41.4553367" lon="0.7410383"><ele>326.0</ele><time>2026-04-19T10:31:28.961Z</time></trkpt><trkpt lat="41.4554033" lon="0.7411233"><ele>327.20000000000005</ele><time>2026-04-19T10:31:29.961Z</time></trkpt><trkpt lat="41.4554667" lon="0.74121"><ele>328.40000000000003</ele><time>2026-04-19T10:31:30.961Z</time></trkpt><trkpt lat="41.4555333" lon="0.741305"><ele>329.6</ele><time>2026-04-19T10:31:31.962Z</time></trkpt><trkpt lat="41.4555967" lon="0.741395"><ele>330.8</ele><time>2026-04-19T10:31:32.961Z</time></trkpt><trkpt lat="41.4556617" lon="0.7414833"><ele>332.0</ele><time>2026-04-19T10:31:33.961Z</time></trkpt><trkpt lat="41.4557283" lon="0.74157"><ele>332.0</ele><time>2026-04-19T10:31:34.962Z</time></trkpt><trkpt lat="41.4557883" lon="0.741645"><ele>332.0</ele><time>2026-04-19T10:31:35.962Z</time></trkpt><trkpt lat="41.45584" lon="0.741725"><ele>332.0</ele><time>2026-04-19T10:31:36.961Z</time></trkpt><trkpt lat="41.4558933" lon="0.7417933"><ele>332.0</ele><time>2026-04-19T10:31:37.962Z</time></trkpt><trkpt lat="41.4559417" lon="0.7418617"><ele>332.0</ele><time>2026-04-19T10:31:38.962Z</time></trkpt><trkpt lat="41.455985" lon="0.74193"><ele>332.0</ele><time>2026-04-19T10:31:39.962Z</time></trkpt><trkpt lat="41.4560233" lon="0.7420783"><ele>333.33333333333337</ele><time>2026-04-19T10:31:41.961Z</time></trkpt><trkpt lat="41.4560567" lon="0.7422417"><ele>334.6666666666667</ele><time>2026-04-19T10:31:43.961Z</time></trkpt><trkpt lat="41.456085" lon="0.742325"><ele>336.0</ele><time>2026-04-19T10:31:44.961Z</time></trkpt><trkpt lat="41.4561133" lon="0.74241"><ele>337.3333333333333</ele><time>2026-04-19T10:31:45.962Z</time></trkpt><trkpt lat="41.456135" lon="0.7424967"><ele>338.66666666666663</ele><time>2026-04-19T10:31:46.962Z</time></trkpt><trkpt lat="41.45616" lon="0.742585"><ele>340.0</ele><time>2026-04-19T10:31:47.962Z</time></trkpt><trkpt lat="41.45619" lon="0.7427183"><ele>340.6</ele><time>2026-04-19T10:31:49.962Z</time></trkpt><trkpt lat="41.4562217" lon="0.742865"><ele>341.2</ele><time>2026-04-19T10:31:51.962Z</time></trkpt><trkpt lat="41.45627" lon="0.7430033"><ele>341.79999999999995</ele><time>2026-04-19T10:31:53.961Z</time></trkpt><trkpt lat="41.456305" lon="0.7431217"><ele>342.4</ele><time>2026-04-19T10:31:55.961Z</time></trkpt><trkpt lat="41.456285" lon="0.7432067"><ele>343.0</ele><time>2026-04-19T10:31:57.962Z</time></trkpt><trkpt lat="41.4562133" lon="0.7432867"><ele>343.0</ele><time>2026-04-19T10:31:59.961Z</time></trkpt><trkpt lat="41.4561667" lon="0.7433433"><ele>343.0</ele><time>2026-04-19T10:32:00.961Z</time></trkpt><trkpt lat="41.4561167" lon="0.743405"><ele>343.0</ele><time>2026-04-19T10:32:01.961Z</time></trkpt><trkpt lat="41.4560633" lon="0.7434583"><ele>343.0</ele><time>2026-04-19T10:32:02.961Z</time></trkpt><trkpt lat="41.45601" lon="0.74351"><ele>343.0</ele><time>2026-04-19T10:32:03.961Z</time></trkpt><trkpt lat="41.45591" lon="0.743615"><ele>343.0</ele><time>2026-04-19T10:32:05.962Z</time></trkpt><trkpt lat="41.4558567" lon="0.7436633"><ele>343.16666666666663</ele><time>2026-04-19T10:32:06.962Z</time></trkpt><trkpt lat="41.4557883" lon="0.74371"><ele>343.3333333333333</ele><time>2026-04-19T10:32:07.962Z</time></trkpt><trkpt lat="41.455715" lon="0.7437533"><ele>343.5</ele><time>2026-04-19T10:32:08.962Z</time></trkpt><trkpt lat="41.4556417" lon="0.7437883"><ele>343.6666666666667</ele><time>2026-04-19T10:32:09.961Z</time></trkpt><trkpt lat="41.455565" lon="0.7438233"><ele>343.83333333333337</ele><time>2026-04-19T10:32:10.961Z</time></trkpt><trkpt lat="41.4554983" lon="0.7438533"><ele>344.0</ele><time>2026-04-19T10:32:11.962Z</time></trkpt><trkpt lat="41.4554283" lon="0.74389"><ele>344.0</ele><time>2026-04-19T10:32:12.962Z</time></trkpt><trkpt lat="41.455365" lon="0.74394"><ele>344.0</ele><time>2026-04-19T10:32:13.962Z</time></trkpt><trkpt lat="41.4553067" lon="0.744"><ele>344.0</ele><time>2026-04-19T10:32:14.962Z</time></trkpt><trkpt lat="41.4552567" lon="0.7440817"><ele>344.0</ele><time>2026-04-19T10:32:15.961Z</time></trkpt><trkpt lat="41.4552117" lon="0.7441633"><ele>344.0</ele><time>2026-04-19T10:32:16.962Z</time></trkpt><trkpt lat="41.45517" lon="0.7442483"><ele>344.0</ele><time>2026-04-19T10:32:17.962Z</time></trkpt><trkpt lat="41.4551383" lon="0.7443367"><ele>344.2</ele><time>2026-04-19T10:32:18.961Z</time></trkpt><trkpt lat="41.45511" lon="0.7444683"><ele>344.4</ele><time>2026-04-19T10:32:20.961Z</time></trkpt><trkpt lat="41.4551033" lon="0.744625"><ele>344.6</ele><time>2026-04-19T10:32:22.962Z</time></trkpt><trkpt lat="41.4551117" lon="0.7447117"><ele>344.8</ele><time>2026-04-19T10:32:23.961Z</time></trkpt><trkpt lat="41.4551333" lon="0.7448733"><ele>345.0</ele><time>2026-04-19T10:32:25.962Z</time></trkpt><trkpt lat="41.455145" lon="0.744965"><ele>345.0</ele><time>2026-04-19T10:32:26.962Z</time></trkpt><trkpt lat="41.4551517" lon="0.74506"><ele>345.0</ele><time>2026-04-19T10:32:27.961Z</time></trkpt><trkpt lat="41.4551567" lon="0.74515"><ele>345.0</ele><time>2026-04-19T10:32:28.962Z</time></trkpt><trkpt lat="41.4551617" lon="0.745245"><ele>345.0</ele><time>2026-04-19T10:32:29.962Z</time></trkpt><trkpt lat="41.45517" lon="0.7453467"><ele>345.0</ele><time>2026-04-19T10:32:30.962Z</time></trkpt><trkpt lat="41.4551833" lon="0.74545"><ele>345.0</ele><time>2026-04-19T10:32:31.961Z</time></trkpt><trkpt lat="41.4551917" lon="0.74554"><ele>345.0</ele><time>2026-04-19T10:32:32.961Z</time></trkpt><trkpt lat="41.4551983" lon="0.7456433"><ele>345.5</ele><time>2026-04-19T10:32:33.962Z</time></trkpt><trkpt lat="41.4552083" lon="0.7457433"><ele>346.0</ele><time>2026-04-19T10:32:34.962Z</time></trkpt><trkpt lat="41.4552167" lon="0.7458467"><ele>346.5</ele><time>2026-04-19T10:32:35.962Z</time></trkpt><trkpt lat="41.455225" lon="0.7459483"><ele>347.0</ele><time>2026-04-19T10:32:36.961Z</time></trkpt><trkpt lat="41.4552367" lon="0.7460533"><ele>347.5</ele><time>2026-04-19T10:32:37.961Z</time></trkpt><trkpt lat="41.45525" lon="0.7461583"><ele>348.0</ele><time>2026-04-19T10:32:38.962Z</time></trkpt><trkpt lat="41.4552633" lon="0.74626"><ele>348.1666666666667</ele><time>2026-04-19T10:32:39.962Z</time></trkpt><trkpt lat="41.45528" lon="0.746355"><ele>348.3333333333333</ele><time>2026-04-19T10:32:40.962Z</time></trkpt><trkpt lat="41.4553083" lon="0.7464483"><ele>348.5</ele><time>2026-04-19T10:32:41.962Z</time></trkpt><trkpt lat="41.45534" lon="0.746545"><ele>348.66666666666663</ele><time>2026-04-19T10:32:42.962Z</time></trkpt><trkpt lat="41.45538" lon="0.746635"><ele>348.8333333333333</ele><time>2026-04-19T10:32:43.962Z</time></trkpt><trkpt lat="41.4554283" lon="0.74672"><ele>349.0</ele><time>2026-04-19T10:32:44.962Z</time></trkpt><trkpt lat="41.4554817" lon="0.7467917"><ele>350.3333333333333</ele><time>2026-04-19T10:32:45.962Z</time></trkpt><trkpt lat="41.4555367" lon="0.7468467"><ele>351.66666666666663</ele><time>2026-04-19T10:32:46.961Z</time></trkpt><trkpt lat="41.455595" lon="0.7469017"><ele>353.0</ele><time>2026-04-19T10:32:47.961Z</time></trkpt><trkpt lat="41.45565" lon="0.7469467"><ele>354.3333333333333</ele><time>2026-04-19T10:32:48.962Z</time></trkpt><trkpt lat="41.45577" lon="0.7470167"><ele>355.6666666666667</ele><time>2026-04-19T10:32:50.962Z</time></trkpt><trkpt lat="41.4558267" lon="0.747055"><ele>357.0</ele><time>2026-04-19T10:32:51.962Z</time></trkpt><trkpt lat="41.455885" lon="0.7470967"><ele>357.0</ele><time>2026-04-19T10:32:52.962Z</time></trkpt><trkpt lat="41.455945" lon="0.7471483"><ele>357.0</ele><time>2026-04-19T10:32:53.961Z</time></trkpt><trkpt lat="41.4559933" lon="0.7472233"><ele>357.0</ele><time>2026-04-19T10:32:54.961Z</time></trkpt><trkpt lat="41.456065" lon="0.7472933"><ele>357.0</ele><time>2026-04-19T10:32:55.962Z</time></trkpt><trkpt lat="41.4561283" lon="0.74738"><ele>357.0</ele><time>2026-04-19T10:32:56.961Z</time></trkpt><trkpt lat="41.4561783" lon="0.74748"><ele>357.0</ele><time>2026-04-19T10:32:57.961Z</time></trkpt><trkpt lat="41.4562267" lon="0.7475833"><ele>357.0</ele><time>2026-04-19T10:32:58.961Z</time></trkpt><trkpt lat="41.45627" lon="0.747675"><ele>357.0</ele><time>2026-04-19T10:32:59.962Z</time></trkpt><trkpt lat="41.4563117" lon="0.7477617"><ele>357.0</ele><time>2026-04-19T10:33:00.962Z</time></trkpt><trkpt lat="41.4563567" lon="0.7478417"><ele>357.0</ele><time>2026-04-19T10:33:01.961Z</time></trkpt><trkpt lat="41.456405" lon="0.74792"><ele>357.0</ele><time>2026-04-19T10:33:02.962Z</time></trkpt><trkpt lat="41.4564583" lon="0.7479983"><ele>357.0</ele><time>2026-04-19T10:33:03.961Z</time></trkpt><trkpt lat="41.4565117" lon="0.748075"><ele>358.1666666666667</ele><time>2026-04-19T10:33:04.962Z</time></trkpt><trkpt lat="41.4565617" lon="0.7481533"><ele>359.3333333333333</ele><time>2026-04-19T10:33:05.962Z</time></trkpt><trkpt lat="41.4566167" lon="0.748215"><ele>360.5</ele><time>2026-04-19T10:33:06.961Z</time></trkpt><trkpt lat="41.456675" lon="0.7482783"><ele>361.66666666666663</ele><time>2026-04-19T10:33:07.962Z</time></trkpt><trkpt lat="41.4567283" lon="0.7483467"><ele>362.8333333333333</ele><time>2026-04-19T10:33:08.961Z</time></trkpt><trkpt lat="41.45678" lon="0.7484233"><ele>364.0</ele><time>2026-04-19T10:33:09.962Z</time></trkpt><trkpt lat="41.4568333" lon="0.748505"><ele>363.3333333333333</ele><time>2026-04-19T10:33:10.962Z</time></trkpt><trkpt lat="41.456895" lon="0.74858"><ele>362.66666666666663</ele><time>2026-04-19T10:33:11.961Z</time></trkpt><trkpt lat="41.456945" lon="0.7486583"><ele>362.0</ele><time>2026-04-19T10:33:12.961Z</time></trkpt><trkpt lat="41.4570017" lon="0.748735"><ele>361.3333333333333</ele><time>2026-04-19T10:33:13.962Z</time></trkpt><trkpt lat="41.45705" lon="0.7488167"><ele>360.6666666666667</ele><time>2026-04-19T10:33:14.962Z</time></trkpt><trkpt lat="41.4570967" lon="0.7489017"><ele>360.0</ele><time>2026-04-19T10:33:15.962Z</time></trkpt><trkpt lat="41.4571433" lon="0.7489817"><ele>361.3333333333333</ele><time>2026-04-19T10:33:16.961Z</time></trkpt><trkpt lat="41.4571883" lon="0.7490633"><ele>362.6666666666667</ele><time>2026-04-19T10:33:17.962Z</time></trkpt><trkpt lat="41.4572367" lon="0.74914"><ele>364.0</ele><time>2026-04-19T10:33:18.962Z</time></trkpt><trkpt lat="41.45729" lon="0.74922"><ele>365.33333333333337</ele><time>2026-04-19T10:33:19.962Z</time></trkpt><trkpt lat="41.457335" lon="0.749305"><ele>366.6666666666667</ele><time>2026-04-19T10:33:20.962Z</time></trkpt><trkpt lat="41.45737" lon="0.7494033"><ele>368.0</ele><time>2026-04-19T10:33:21.962Z</time></trkpt><trkpt lat="41.45741" lon="0.7494967"><ele>368.0</ele><time>2026-04-19T10:33:22.961Z</time></trkpt><trkpt lat="41.4574567" lon="0.7495867"><ele>368.0</ele><time>2026-04-19T10:33:23.961Z</time></trkpt><trkpt lat="41.4575017" lon="0.74968"><ele>368.0</ele><time>2026-04-19T10:33:24.962Z</time></trkpt><trkpt lat="41.4575433" lon="0.7497683"><ele>368.0</ele><time>2026-04-19T10:33:25.962Z</time></trkpt><trkpt lat="41.4575783" lon="0.7498533"><ele>368.0</ele><time>2026-04-19T10:33:26.961Z</time></trkpt><trkpt lat="41.4576167" lon="0.7499367"><ele>368.0</ele><time>2026-04-19T10:33:27.961Z</time></trkpt><trkpt lat="41.4576567" lon="0.7500183"><ele>368.0</ele><time>2026-04-19T10:33:28.962Z</time></trkpt><trkpt lat="41.45769" lon="0.750095"><ele>368.0</ele><time>2026-04-19T10:33:29.962Z</time></trkpt><trkpt lat="41.4577233" lon="0.75018"><ele>368.0</ele><time>2026-04-19T10:33:30.962Z</time></trkpt><trkpt lat="41.4577583" lon="0.7502617"><ele>368.0</ele><time>2026-04-19T10:33:31.962Z</time></trkpt><trkpt lat="41.4577933" lon="0.750355"><ele>368.0</ele><time>2026-04-19T10:33:32.962Z</time></trkpt><trkpt lat="41.4578217" lon="0.7504567"><ele>368.0</ele><time>2026-04-19T10:33:33.962Z</time></trkpt><trkpt lat="41.4578467" lon="0.75056"><ele>367.5</ele><time>2026-04-19T10:33:34.962Z</time></trkpt><trkpt lat="41.457865" lon="0.7506717"><ele>367.0</ele><time>2026-04-19T10:33:35.961Z</time></trkpt><trkpt lat="41.45786" lon="0.75079"><ele>366.5</ele><time>2026-04-19T10:33:36.961Z</time></trkpt><trkpt lat="41.45785" lon="0.750905"><ele>366.0</ele><time>2026-04-19T10:33:37.962Z</time></trkpt><trkpt lat="41.4578367" lon="0.7510183"><ele>365.5</ele><time>2026-04-19T10:33:38.962Z</time></trkpt><trkpt lat="41.4578217" lon="0.751135"><ele>365.0</ele><time>2026-04-19T10:33:39.961Z</time></trkpt><trkpt lat="41.457795" lon="0.751245"><ele>366.2</ele><time>2026-04-19T10:33:40.962Z</time></trkpt><trkpt lat="41.4577683" lon="0.7513483"><ele>367.4</ele><time>2026-04-19T10:33:41.961Z</time></trkpt><trkpt lat="41.45774" lon="0.7514733"><ele>368.6</ele><time>2026-04-19T10:33:42.962Z</time></trkpt><trkpt lat="41.45771" lon="0.7516017"><ele>369.8</ele><time>2026-04-19T10:33:43.961Z</time></trkpt><trkpt lat="41.457675" lon="0.75172"><ele>371.0</ele><time>2026-04-19T10:33:44.961Z</time></trkpt><trkpt lat="41.4576417" lon="0.75184"><ele>371.8</ele><time>2026-04-19T10:33:45.962Z</time></trkpt><trkpt lat="41.457615" lon="0.7519617"><ele>372.6</ele><time>2026-04-19T10:33:46.961Z</time></trkpt><trkpt lat="41.4575867" lon="0.7520883"><ele>373.4</ele><time>2026-04-19T10:33:47.962Z</time></trkpt><trkpt lat="41.457565" lon="0.7522167"><ele>374.2</ele><time>2026-04-19T10:33:48.962Z</time></trkpt><trkpt lat="41.457535" lon="0.7523383"><ele>375.0</ele><time>2026-04-19T10:33:49.961Z</time></trkpt><trkpt lat="41.4575067" lon="0.752455"><ele>375.0</ele><time>2026-04-19T10:33:50.962Z</time></trkpt><trkpt lat="41.4574817" lon="0.7525533"><ele>375.0</ele><time>2026-04-19T10:33:51.962Z</time></trkpt><trkpt lat="41.45746" lon="0.7526533"><ele>375.0</ele><time>2026-04-19T10:33:52.961Z</time></trkpt><trkpt lat="41.4574467" lon="0.752745"><ele>375.0</ele><time>2026-04-19T10:33:53.962Z</time></trkpt><trkpt lat="41.4574483" lon="0.7528467"><ele>375.0</ele><time>2026-04-19T10:33:54.962Z</time></trkpt><trkpt lat="41.4574633" lon="0.753025"><ele>375.0</ele><time>2026-04-19T10:33:56.962Z</time></trkpt><trkpt lat="41.4574817" lon="0.7531183"><ele>375.3333333333333</ele><time>2026-04-19T10:33:57.961Z</time></trkpt><trkpt lat="41.4575033" lon="0.7532083"><ele>375.6666666666667</ele><time>2026-04-19T10:33:58.961Z</time></trkpt><trkpt lat="41.4575267" lon="0.7533"><ele>376.0</ele><time>2026-04-19T10:33:59.962Z</time></trkpt><trkpt lat="41.45755" lon="0.7533967"><ele>376.33333333333337</ele><time>2026-04-19T10:34:00.961Z</time></trkpt><trkpt lat="41.45757" lon="0.7534933"><ele>376.6666666666667</ele><time>2026-04-19T10:34:01.962Z</time></trkpt><trkpt lat="41.457595" lon="0.7535867"><ele>377.0</ele><time>2026-04-19T10:34:02.962Z</time></trkpt><trkpt lat="41.4576283" lon="0.753685"><ele>377.33333333333337</ele><time>2026-04-19T10:34:03.961Z</time></trkpt><trkpt lat="41.4576683" lon="0.7537767"><ele>377.6666666666667</ele><time>2026-04-19T10:34:04.961Z</time></trkpt><trkpt lat="41.4577067" lon="0.753875"><ele>378.0</ele><time>2026-04-19T10:34:05.962Z</time></trkpt><trkpt lat="41.4577517" lon="0.7539717"><ele>378.3333333333333</ele><time>2026-04-19T10:34:06.962Z</time></trkpt><trkpt lat="41.4578083" lon="0.754055"><ele>378.66666666666663</ele><time>2026-04-19T10:34:07.961Z</time></trkpt><trkpt lat="41.4578683" lon="0.7541383"><ele>379.0</ele><time>2026-04-19T10:34:08.962Z</time></trkpt><trkpt lat="41.45793" lon="0.7542217"><ele>380.0</ele><time>2026-04-19T10:34:09.962Z</time></trkpt><trkpt lat="41.4580033" lon="0.7542817"><ele>381.0</ele><time>2026-04-19T10:34:10.962Z</time></trkpt><trkpt lat="41.4580717" lon="0.75434"><ele>382.0</ele><time>2026-04-19T10:34:11.961Z</time></trkpt><trkpt lat="41.4581433" lon="0.754395"><ele>383.0</ele><time>2026-04-19T10:34:12.961Z</time></trkpt><trkpt lat="41.4582183" lon="0.7544433"><ele>384.00000000000006</ele><time>2026-04-19T10:34:13.962Z</time></trkpt><trkpt lat="41.458295" lon="0.7544917"><ele>385.0</ele><time>2026-04-19T10:34:14.962Z</time></trkpt><trkpt lat="41.4583633" lon="0.7545383"><ele>385.00000000000006</ele><time>2026-04-19T10:34:15.961Z</time></trkpt><trkpt lat="41.4584267" lon="0.75459"><ele>385.0</ele><time>2026-04-19T10:34:16.962Z</time></trkpt><trkpt lat="41.4584883" lon="0.754645"><ele>385.0</ele><time>2026-04-19T10:34:17.961Z</time></trkpt><trkpt lat="41.4585583" lon="0.7547017"><ele>385.0</ele><time>2026-04-19T10:34:18.962Z</time></trkpt><trkpt lat="41.4586233" lon="0.75476"><ele>385.00000000000006</ele><time>2026-04-19T10:34:19.962Z</time></trkpt><trkpt lat="41.4586917" lon="0.7548167"><ele>385.0</ele><time>2026-04-19T10:34:20.961Z</time></trkpt><trkpt lat="41.4587583" lon="0.7548783"><ele>386.1666666666667</ele><time>2026-04-19T10:34:21.961Z</time></trkpt><trkpt lat="41.45882" lon="0.754935"><ele>387.33333333333337</ele><time>2026-04-19T10:34:22.962Z</time></trkpt><trkpt lat="41.4588833" lon="0.7549867"><ele>388.5</ele><time>2026-04-19T10:34:23.961Z</time></trkpt><trkpt lat="41.4589517" lon="0.75504"><ele>389.66666666666663</ele><time>2026-04-19T10:34:24.962Z</time></trkpt><trkpt lat="41.4590217" lon="0.755095"><ele>390.8333333333333</ele><time>2026-04-19T10:34:25.961Z</time></trkpt><trkpt lat="41.4590867" lon="0.7551467"><ele>392.0</ele><time>2026-04-19T10:34:26.962Z</time></trkpt><trkpt lat="41.459155" lon="0.7551983"><ele>392.3333333333333</ele><time>2026-04-19T10:34:27.962Z</time></trkpt><trkpt lat="41.4592217" lon="0.7552617"><ele>392.66666666666663</ele><time>2026-04-19T10:34:28.962Z</time></trkpt><trkpt lat="41.4592833" lon="0.7553333"><ele>393.0</ele><time>2026-04-19T10:34:29.961Z</time></trkpt><trkpt lat="41.459325" lon="0.7554167"><ele>393.33333333333337</ele><time>2026-04-19T10:34:30.961Z</time></trkpt><trkpt lat="41.4593617" lon="0.7555133"><ele>393.6666666666667</ele><time>2026-04-19T10:34:31.961Z</time></trkpt><trkpt lat="41.4593917" lon="0.755605"><ele>394.0</ele><time>2026-04-19T10:34:32.961Z</time></trkpt><trkpt lat="41.4594017" lon="0.7556967"><ele>394.0</ele><time>2026-04-19T10:34:33.961Z</time></trkpt><trkpt lat="41.4593767" lon="0.7558567"><ele>394.0</ele><time>2026-04-19T10:34:35.962Z</time></trkpt><trkpt lat="41.4593017" lon="0.7559983"><ele>394.0</ele><time>2026-04-19T10:34:37.961Z</time></trkpt><trkpt lat="41.45924" lon="0.7560617"><ele>394.0</ele><time>2026-04-19T10:34:38.962Z</time></trkpt><trkpt lat="41.4591683" lon="0.75611"><ele>394.0</ele><time>2026-04-19T10:34:39.961Z</time></trkpt><trkpt lat="41.4590967" lon="0.7561533"><ele>394.6666666666667</ele><time>2026-04-19T10:34:40.961Z</time></trkpt><trkpt lat="41.45902" lon="0.7561767"><ele>395.33333333333337</ele><time>2026-04-19T10:34:41.961Z</time></trkpt><trkpt lat="41.45894" lon="0.7561867"><ele>396.0</ele><time>2026-04-19T10:34:42.961Z</time></trkpt><trkpt lat="41.45886" lon="0.756185"><ele>396.66666666666663</ele><time>2026-04-19T10:34:43.962Z</time></trkpt><trkpt lat="41.458775" lon="0.7561817"><ele>397.3333333333333</ele><time>2026-04-19T10:34:44.961Z</time></trkpt><trkpt lat="41.45869" lon="0.7561817"><ele>398.0</ele><time>2026-04-19T10:34:45.962Z</time></trkpt><trkpt lat="41.4586117" lon="0.756185"><ele>397.99999999999994</ele><time>2026-04-19T10:34:46.962Z</time></trkpt><trkpt lat="41.4585217" lon="0.7562033"><ele>398.0</ele><time>2026-04-19T10:34:47.961Z</time></trkpt><trkpt lat="41.4584367" lon="0.7562083"><ele>398.0</ele><time>2026-04-19T10:34:48.962Z</time></trkpt><trkpt lat="41.45835" lon="0.7562033"><ele>398.0</ele><time>2026-04-19T10:34:49.961Z</time></trkpt><trkpt lat="41.4582617" lon="0.7562233"><ele>397.99999999999994</ele><time>2026-04-19T10:34:50.961Z</time></trkpt><trkpt lat="41.458185" lon="0.75626"><ele>398.0</ele><time>2026-04-19T10:34:51.961Z</time></trkpt><trkpt lat="41.4581133" lon="0.7562967"><ele>397.99999999999994</ele><time>2026-04-19T10:34:52.962Z</time></trkpt><trkpt lat="41.4580383" lon="0.7563467"><ele>398.0</ele><time>2026-04-19T10:34:53.961Z</time></trkpt><trkpt lat="41.4579717" lon="0.7564017"><ele>398.0</ele><time>2026-04-19T10:34:54.962Z</time></trkpt><trkpt lat="41.4579067" lon="0.7564667"><ele>398.0</ele><time>2026-04-19T10:34:55.962Z</time></trkpt><trkpt lat="41.4578567" lon="0.7565367"><ele>397.99999999999994</ele><time>2026-04-19T10:34:56.961Z</time></trkpt><trkpt lat="41.457815" lon="0.75661"><ele>398.0</ele><time>2026-04-19T10:34:57.962Z</time></trkpt><trkpt lat="41.457775" lon="0.7566967"><ele>397.99999999999994</ele><time>2026-04-19T10:34:58.961Z</time></trkpt><trkpt lat="41.457745" lon="0.7567833"><ele>398.0</ele><time>2026-04-19T10:34:59.961Z</time></trkpt><trkpt lat="41.4577083" lon="0.7568783"><ele>398.0</ele><time>2026-04-19T10:35:00.962Z</time></trkpt><trkpt lat="41.457665" lon="0.7569767"><ele>398.0</ele><time>2026-04-19T10:35:01.961Z</time></trkpt><trkpt lat="41.4576233" lon="0.7570783"><ele>397.99999999999994</ele><time>2026-04-19T10:35:02.961Z</time></trkpt><trkpt lat="41.457585" lon="0.7571683"><ele>398.0</ele><time>2026-04-19T10:35:03.962Z</time></trkpt><trkpt lat="41.4575617" lon="0.75725"><ele>398.59999999999997</ele><time>2026-04-19T10:35:04.962Z</time></trkpt><trkpt lat="41.45753" lon="0.7573433"><ele>399.2</ele><time>2026-04-19T10:35:05.961Z</time></trkpt><trkpt lat="41.4574717" lon="0.7574867"><ele>399.8</ele><time>2026-04-19T10:35:07.961Z</time></trkpt><trkpt lat="41.4574433" lon="0.7575617"><ele>400.4</ele><time>2026-04-19T10:35:08.962Z</time></trkpt><trkpt lat="41.4573883" lon="0.7577017"><ele>401.0</ele><time>2026-04-19T10:35:10.961Z</time></trkpt><trkpt lat="41.4573433" lon="0.757825"><ele>400.99999999999994</ele><time>2026-04-19T10:35:12.961Z</time></trkpt><trkpt lat="41.4573067" lon="0.7579217"><ele>401.0</ele><time>2026-04-19T10:35:14.961Z</time></trkpt><trkpt lat="41.4572483" lon="0.7579817"><ele>401.0</ele><time>2026-04-19T10:35:16.961Z</time></trkpt><trkpt lat="41.4571633" lon="0.758"><ele>401.0</ele><time>2026-04-19T10:35:18.962Z</time></trkpt><trkpt lat="41.4570417" lon="0.7579867"><ele>400.99999999999994</ele><time>2026-04-19T10:35:20.962Z</time></trkpt><trkpt lat="41.4569767" lon="0.7579633"><ele>401.0</ele><time>2026-04-19T10:35:21.962Z</time></trkpt><trkpt lat="41.4569083" lon="0.7579333"><ele>400.8333333333333</ele><time>2026-04-19T10:35:22.962Z</time></trkpt><trkpt lat="41.456835" lon="0.7578983"><ele>400.66666666666663</ele><time>2026-04-19T10:35:23.961Z</time></trkpt><trkpt lat="41.4567667" lon="0.7578583"><ele>400.5</ele><time>2026-04-19T10:35:24.962Z</time></trkpt><trkpt lat="41.4566933" lon="0.7578217"><ele>400.33333333333337</ele><time>2026-04-19T10:35:25.961Z</time></trkpt><trkpt lat="41.456625" lon="0.757775"><ele>400.1666666666667</ele><time>2026-04-19T10:35:26.961Z</time></trkpt><trkpt lat="41.456565" lon="0.7577167"><ele>400.0</ele><time>2026-04-19T10:35:27.962Z</time></trkpt><trkpt lat="41.4565083" lon="0.7576583"><ele>400.6</ele><time>2026-04-19T10:35:28.962Z</time></trkpt><trkpt lat="41.4563983" lon="0.757595"><ele>401.2</ele><time>2026-04-19T10:35:30.962Z</time></trkpt><trkpt lat="41.4563067" lon="0.7576467"><ele>401.79999999999995</ele><time>2026-04-19T10:35:32.962Z</time></trkpt><trkpt lat="41.456245" lon="0.757765"><ele>402.4</ele><time>2026-04-19T10:35:34.962Z</time></trkpt><trkpt lat="41.45618" lon="0.7578767"><ele>403.0</ele><time>2026-04-19T10:35:36.961Z</time></trkpt><trkpt lat="41.456115" lon="0.7579633"><ele>403.1666666666667</ele><time>2026-04-19T10:35:38.962Z</time></trkpt><trkpt lat="41.4560417" lon="0.75803"><ele>403.33333333333337</ele><time>2026-04-19T10:35:41.961Z</time></trkpt><trkpt lat="41.455995" lon="0.75809"><ele>403.5</ele><time>2026-04-19T10:35:44.962Z</time></trkpt><trkpt lat="41.456065" lon="0.7580358"><ele>403.66666666666663</ele><time>2026-04-19T10:48:13.017Z</time></trkpt><trkpt lat="41.4561329" lon="0.7579759"><ele>403.8333333333333</ele><time>2026-04-19T10:48:14.996Z</time></trkpt><trkpt lat="41.4562043" lon="0.7578706"><ele>404.0</ele><time>2026-04-19T10:48:16.961Z</time></trkpt><trkpt lat="41.4562758" lon="0.7577787"><ele>403.79999999999995</ele><time>2026-04-19T10:48:19.007Z</time></trkpt><trkpt lat="41.4564037" lon="0.7576385"><ele>403.59999999999997</ele><time>2026-04-19T10:48:20.966Z</time></trkpt><trkpt lat="41.4564935" lon="0.7575731"><ele>403.4</ele><time>2026-04-19T10:48:21.997Z</time></trkpt><trkpt lat="41.4565549" lon="0.7575918"><ele>403.2</ele><time>2026-04-19T10:48:23.036Z</time></trkpt><trkpt lat="41.4566209" lon="0.7576383"><ele>403.0</ele><time>2026-04-19T10:48:23.966Z</time></trkpt><trkpt lat="41.4566923" lon="0.7576738"><ele>402.25</ele><time>2026-04-19T10:48:24.996Z</time></trkpt><trkpt lat="41.4567591" lon="0.7577072"><ele>401.5</ele><time>2026-04-19T10:48:26.017Z</time></trkpt><trkpt lat="41.456875" lon="0.757837"><ele>400.75</ele><time>2026-04-19T10:48:26.962Z</time></trkpt><trkpt lat="41.4569846" lon="0.7579201"><ele>400.0</ele><time>2026-04-19T10:48:27.962Z</time></trkpt><trkpt lat="41.4570847" lon="0.7579672"><ele>400.2</ele><time>2026-04-19T10:48:28.962Z</time></trkpt><trkpt lat="41.4571697" lon="0.7579841"><ele>400.4</ele><time>2026-04-19T10:48:29.962Z</time></trkpt><trkpt lat="41.4572362" lon="0.7579804"><ele>400.6</ele><time>2026-04-19T10:48:30.961Z</time></trkpt><trkpt lat="41.4573285" lon="0.7579169"><ele>400.8</ele><time>2026-04-19T10:48:32.962Z</time></trkpt><trkpt lat="41.4573933" lon="0.7577683"><ele>401.0</ele><time>2026-04-19T10:48:34.961Z</time></trkpt><trkpt lat="41.457435" lon="0.7576833"><ele>401.0</ele><time>2026-04-19T10:48:35.961Z</time></trkpt><trkpt lat="41.4574817" lon="0.7575983"><ele>401.0</ele><time>2026-04-19T10:48:36.962Z</time></trkpt><trkpt lat="41.457535" lon="0.7575017"><ele>401.0</ele><time>2026-04-19T10:48:37.962Z</time></trkpt><trkpt lat="41.4575833" lon="0.7574033"><ele>401.0</ele><time>2026-04-19T10:48:38.962Z</time></trkpt><trkpt lat="41.457635" lon="0.7573067"><ele>401.0</ele><time>2026-04-19T10:48:39.961Z</time></trkpt><trkpt lat="41.4576883" lon="0.75717"><ele>400.99999999999994</ele><time>2026-04-19T10:48:40.961Z</time></trkpt><trkpt lat="41.4577333" lon="0.7570667"><ele>401.0</ele><time>2026-04-19T10:48:41.961Z</time></trkpt><trkpt lat="41.457775" lon="0.756975"><ele>401.0</ele><time>2026-04-19T10:48:42.961Z</time></trkpt><trkpt lat="41.4578167" lon="0.7568867"><ele>401.0</ele><time>2026-04-19T10:48:43.962Z</time></trkpt><trkpt lat="41.457815" lon="0.75679"><ele>400.99999999999994</ele><time>2026-04-19T10:48:44.961Z</time></trkpt><trkpt lat="41.45784" lon="0.7567033"><ele>401.0</ele><time>2026-04-19T10:48:45.961Z</time></trkpt><trkpt lat="41.4578733" lon="0.756615"><ele>400.57142857142856</ele><time>2026-04-19T10:48:46.962Z</time></trkpt><trkpt lat="41.457915" lon="0.7565467"><ele>400.14285714285717</ele><time>2026-04-19T10:48:47.962Z</time></trkpt><trkpt lat="41.45795" lon="0.7564717"><ele>399.71428571428567</ele><time>2026-04-19T10:48:48.961Z</time></trkpt><trkpt lat="41.4579867" lon="0.7564"><ele>399.2857142857143</ele><time>2026-04-19T10:48:49.962Z</time></trkpt><trkpt lat="41.4580833" lon="0.756325"><ele>398.85714285714283</ele><time>2026-04-19T10:48:51.961Z</time></trkpt><trkpt lat="41.4581417" lon="0.7562883"><ele>398.4285714285714</ele><time>2026-04-19T10:48:52.962Z</time></trkpt><trkpt lat="41.4581983" lon="0.75625"><ele>398.0</ele><time>2026-04-19T10:48:53.961Z</time></trkpt><trkpt lat="41.4582617" lon="0.75622"><ele>397.99999999999994</ele><time>2026-04-19T10:48:54.961Z</time></trkpt><trkpt lat="41.45833" lon="0.756195"><ele>398.0</ele><time>2026-04-19T10:48:55.962Z</time></trkpt><trkpt lat="41.4584017" lon="0.7561717"><ele>398.0</ele><time>2026-04-19T10:48:56.961Z</time></trkpt><trkpt lat="41.4585183" lon="0.7561467"><ele>398.0</ele><time>2026-04-19T10:48:58.961Z</time></trkpt><trkpt lat="41.4585867" lon="0.7561517"><ele>397.99999999999994</ele><time>2026-04-19T10:48:59.961Z</time></trkpt><trkpt lat="41.4586517" lon="0.75616"><ele>398.0</ele><time>2026-04-19T10:49:00.961Z</time></trkpt><trkpt lat="41.458715" lon="0.756155"><ele>399.2</ele><time>2026-04-19T10:49:01.962Z</time></trkpt><trkpt lat="41.4588217" lon="0.756145"><ele>400.4</ele><time>2026-04-19T10:49:03.962Z</time></trkpt><trkpt lat="41.4589133" lon="0.756145"><ele>401.59999999999997</ele><time>2026-04-19T10:49:05.962Z</time></trkpt><trkpt lat="41.4590133" lon="0.7561317"><ele>402.79999999999995</ele><time>2026-04-19T10:49:07.962Z</time></trkpt><trkpt lat="41.4591033" lon="0.7561167"><ele>404.0</ele><time>2026-04-19T10:49:09.962Z</time></trkpt><trkpt lat="41.4592017" lon="0.7560867"><ele>402.3333333333333</ele><time>2026-04-19T10:49:11.962Z</time></trkpt><trkpt lat="41.4593033" lon="0.7560117"><ele>400.66666666666663</ele><time>2026-04-19T10:49:13.962Z</time></trkpt><trkpt lat="41.4593533" lon="0.7559517"><ele>399.0</ele><time>2026-04-19T10:49:14.962Z</time></trkpt><trkpt lat="41.4594067" lon="0.7558817"><ele>397.33333333333337</ele><time>2026-04-19T10:49:15.961Z</time></trkpt><trkpt lat="41.4594633" lon="0.7557983"><ele>395.6666666666667</ele><time>2026-04-19T10:49:16.962Z</time></trkpt><trkpt lat="41.4595217" lon="0.7557183"><ele>394.0</ele><time>2026-04-19T10:49:17.962Z</time></trkpt><trkpt lat="41.45952" lon="0.755625"><ele>394.00000000000006</ele><time>2026-04-19T10:49:18.962Z</time></trkpt><trkpt lat="41.4595133" lon="0.75554"><ele>394.0</ele><time>2026-04-19T10:49:19.961Z</time></trkpt><trkpt lat="41.4594433" lon="0.7554233"><ele>394.0</ele><time>2026-04-19T10:49:21.962Z</time></trkpt><trkpt lat="41.4594" lon="0.75536"><ele>394.0</ele><time>2026-04-19T10:49:22.961Z</time></trkpt><trkpt lat="41.459305" lon="0.75524"><ele>394.00000000000006</ele><time>2026-04-19T10:49:24.961Z</time></trkpt><trkpt lat="41.4592467" lon="0.75519"><ele>394.0</ele><time>2026-04-19T10:49:25.962Z</time></trkpt><trkpt lat="41.4591867" lon="0.7551383"><ele>393.6666666666667</ele><time>2026-04-19T10:49:26.962Z</time></trkpt><trkpt lat="41.4591167" lon="0.755075"><ele>393.33333333333337</ele><time>2026-04-19T10:49:27.962Z</time></trkpt><trkpt lat="41.45905" lon="0.7550017"><ele>393.0</ele><time>2026-04-19T10:49:28.961Z</time></trkpt><trkpt lat="41.4589967" lon="0.7549467"><ele>392.66666666666663</ele><time>2026-04-19T10:49:29.961Z</time></trkpt><trkpt lat="41.458945" lon="0.7548817"><ele>392.3333333333333</ele><time>2026-04-19T10:49:30.961Z</time></trkpt><trkpt lat="41.45884" lon="0.7548017"><ele>392.0</ele><time>2026-04-19T10:49:32.961Z</time></trkpt><trkpt lat="41.4587783" lon="0.7547633"><ele>390.6</ele><time>2026-04-19T10:49:33.962Z</time></trkpt><trkpt lat="41.4587233" lon="0.75472"><ele>389.20000000000005</ele><time>2026-04-19T10:49:34.961Z</time></trkpt><trkpt lat="41.4586683" lon="0.7546783"><ele>387.8</ele><time>2026-04-19T10:49:35.962Z</time></trkpt><trkpt lat="41.4585817" lon="0.7546017"><ele>386.4</ele><time>2026-04-19T10:49:37.961Z</time></trkpt><trkpt lat="41.458485" lon="0.7545117"><ele>385.0</ele><time>2026-04-19T10:49:39.962Z</time></trkpt><trkpt lat="41.4583817" lon="0.7544217"><ele>385.0</ele><time>2026-04-19T10:49:41.961Z</time></trkpt><trkpt lat="41.4583233" lon="0.7543717"><ele>385.0</ele><time>2026-04-19T10:49:42.962Z</time></trkpt><trkpt lat="41.4582667" lon="0.7543133"><ele>385.0</ele><time>2026-04-19T10:49:43.962Z</time></trkpt><trkpt lat="41.45821" lon="0.754255"><ele>385.0</ele><time>2026-04-19T10:49:44.961Z</time></trkpt><trkpt lat="41.458155" lon="0.7541933"><ele>385.0</ele><time>2026-04-19T10:49:45.961Z</time></trkpt><trkpt lat="41.45809" lon="0.75414"><ele>385.0</ele><time>2026-04-19T10:49:46.962Z</time></trkpt><trkpt lat="41.4580217" lon="0.7540867"><ele>385.0</ele><time>2026-04-19T10:49:47.962Z</time></trkpt><trkpt lat="41.4579533" lon="0.7540283"><ele>384.00000000000006</ele><time>2026-04-19T10:49:48.962Z</time></trkpt><trkpt lat="41.457875" lon="0.7539583"><ele>383.0</ele><time>2026-04-19T10:49:49.962Z</time></trkpt><trkpt lat="41.4578333" lon="0.753895"><ele>382.0</ele><time>2026-04-19T10:49:50.961Z</time></trkpt><trkpt lat="41.4577783" lon="0.7538317"><ele>381.0</ele><time>2026-04-19T10:49:51.961Z</time></trkpt><trkpt lat="41.457725" lon="0.7537033"><ele>380.0</ele><time>2026-04-19T10:49:53.961Z</time></trkpt><trkpt lat="41.4576733" lon="0.753575"><ele>379.0</ele><time>2026-04-19T10:49:55.962Z</time></trkpt><trkpt lat="41.4576217" lon="0.7534367"><ele>378.66666666666663</ele><time>2026-04-19T10:49:57.962Z</time></trkpt><trkpt lat="41.4575717" lon="0.7532783"><ele>378.3333333333333</ele><time>2026-04-19T10:49:59.961Z</time></trkpt><trkpt lat="41.4575467" lon="0.7531933"><ele>378.0</ele><time>2026-04-19T10:50:00.961Z</time></trkpt><trkpt lat="41.4575167" lon="0.7531067"><ele>377.6666666666667</ele><time>2026-04-19T10:50:01.961Z</time></trkpt><trkpt lat="41.457495" lon="0.7530167"><ele>377.33333333333337</ele><time>2026-04-19T10:50:02.962Z</time></trkpt><trkpt lat="41.4574783" lon="0.7529333"><ele>377.0</ele><time>2026-04-19T10:50:03.961Z</time></trkpt><trkpt lat="41.4574683" lon="0.7528483"><ele>377.0</ele><time>2026-04-19T10:50:04.961Z</time></trkpt><trkpt lat="41.4574583" lon="0.7527517"><ele>377.0</ele><time>2026-04-19T10:50:05.962Z</time></trkpt><trkpt lat="41.4574517" lon="0.7526083"><ele>377.0</ele><time>2026-04-19T10:50:07.962Z</time></trkpt><trkpt lat="41.4574817" lon="0.7524533"><ele>377.0</ele><time>2026-04-19T10:50:09.962Z</time></trkpt><trkpt lat="41.4575167" lon="0.7523083"><ele>377.0</ele><time>2026-04-19T10:50:11.962Z</time></trkpt><trkpt lat="41.4575717" lon="0.75217"><ele>376.6666666666667</ele><time>2026-04-19T10:50:13.962Z</time></trkpt><trkpt lat="41.4576" lon="0.7520367"><ele>376.33333333333337</ele><time>2026-04-19T10:50:15.962Z</time></trkpt><trkpt lat="41.45762" lon="0.7519533"><ele>376.0</ele><time>2026-04-19T10:50:16.962Z</time></trkpt><trkpt lat="41.4576567" lon="0.7518583"><ele>375.6666666666667</ele><time>2026-04-19T10:50:17.961Z</time></trkpt><trkpt lat="41.4576917" lon="0.7517633"><ele>375.3333333333333</ele><time>2026-04-19T10:50:18.961Z</time></trkpt><trkpt lat="41.4577233" lon="0.75166"><ele>375.0</ele><time>2026-04-19T10:50:19.962Z</time></trkpt><trkpt lat="41.45776" lon="0.7515617"><ele>374.42857142857144</ele><time>2026-04-19T10:50:20.961Z</time></trkpt><trkpt lat="41.4577883" lon="0.75147"><ele>373.85714285714283</ele><time>2026-04-19T10:50:21.961Z</time></trkpt><trkpt lat="41.4578083" lon="0.75139"><ele>373.2857142857143</ele><time>2026-04-19T10:50:22.961Z</time></trkpt><trkpt lat="41.457825" lon="0.7513033"><ele>372.7142857142857</ele><time>2026-04-19T10:50:23.962Z</time></trkpt><trkpt lat="41.45784" lon="0.75121"><ele>372.1428571428571</ele><time>2026-04-19T10:50:24.962Z</time></trkpt><trkpt lat="41.457855" lon="0.7511117"><ele>371.57142857142856</ele><time>2026-04-19T10:50:25.962Z</time></trkpt><trkpt lat="41.4578617" lon="0.7510083"><ele>371.0</ele><time>2026-04-19T10:50:26.962Z</time></trkpt><trkpt lat="41.45787" lon="0.7508983"><ele>370.0</ele><time>2026-04-19T10:50:27.961Z</time></trkpt><trkpt lat="41.457875" lon="0.75079"><ele>369.0</ele><time>2026-04-19T10:50:28.961Z</time></trkpt><trkpt lat="41.4578783" lon="0.75068"><ele>368.0</ele><time>2026-04-19T10:50:29.962Z</time></trkpt><trkpt lat="41.457875" lon="0.7505717"><ele>367.0</ele><time>2026-04-19T10:50:30.961Z</time></trkpt><trkpt lat="41.4578617" lon="0.750465"><ele>366.0</ele><time>2026-04-19T10:50:31.961Z</time></trkpt><trkpt lat="41.4578367" lon="0.7503533"><ele>365.0</ele><time>2026-04-19T10:50:32.962Z</time></trkpt><trkpt lat="41.457805" lon="0.7502483"><ele>365.5</ele><time>2026-04-19T10:50:33.961Z</time></trkpt><trkpt lat="41.4577717" lon="0.7501367"><ele>366.0</ele><time>2026-04-19T10:50:34.961Z</time></trkpt><trkpt lat="41.457735" lon="0.7500317"><ele>366.5</ele><time>2026-04-19T10:50:35.962Z</time></trkpt><trkpt lat="41.457695" lon="0.7499383"><ele>367.0</ele><time>2026-04-19T10:50:36.962Z</time></trkpt><trkpt lat="41.45765" lon="0.749855"><ele>367.5</ele><time>2026-04-19T10:50:37.961Z</time></trkpt><trkpt lat="41.4576117" lon="0.7497867"><ele>368.0</ele><time>2026-04-19T10:50:38.962Z</time></trkpt><trkpt lat="41.4575433" lon="0.749665"><ele>368.0</ele><time>2026-04-19T10:50:40.962Z</time></trkpt><trkpt lat="41.4574717" lon="0.7495267"><ele>368.0</ele><time>2026-04-19T10:50:42.962Z</time></trkpt><trkpt lat="41.4574317" lon="0.7494533"><ele>368.0</ele><time>2026-04-19T10:50:43.961Z</time></trkpt><trkpt lat="41.4573917" lon="0.7493783"><ele>368.0</ele><time>2026-04-19T10:50:44.961Z</time></trkpt><trkpt lat="41.4573467" lon="0.7492933"><ele>368.0</ele><time>2026-04-19T10:50:45.962Z</time></trkpt><trkpt lat="41.4573033" lon="0.74921"><ele>368.0</ele><time>2026-04-19T10:50:46.962Z</time></trkpt><trkpt lat="41.4572583" lon="0.7491217"><ele>368.8571428571429</ele><time>2026-04-19T10:50:47.962Z</time></trkpt><trkpt lat="41.4572117" lon="0.7490383"><ele>369.71428571428567</ele><time>2026-04-19T10:50:48.962Z</time></trkpt><trkpt lat="41.457165" lon="0.7489633"><ele>370.57142857142856</ele><time>2026-04-19T10:50:49.961Z</time></trkpt><trkpt lat="41.4571167" lon="0.7488867"><ele>371.42857142857144</ele><time>2026-04-19T10:50:50.961Z</time></trkpt><trkpt lat="41.4570667" lon="0.7488083"><ele>372.28571428571433</ele><time>2026-04-19T10:50:51.962Z</time></trkpt><trkpt lat="41.4570217" lon="0.7487317"><ele>373.1428571428571</ele><time>2026-04-19T10:50:52.961Z</time></trkpt><trkpt lat="41.4569717" lon="0.7486633"><ele>374.0</ele><time>2026-04-19T10:50:53.961Z</time></trkpt><trkpt lat="41.456925" lon="0.748595"><ele>372.33333333333337</ele><time>2026-04-19T10:50:54.961Z</time></trkpt><trkpt lat="41.456875" lon="0.748525"><ele>370.6666666666667</ele><time>2026-04-19T10:50:55.961Z</time></trkpt><trkpt lat="41.4568267" lon="0.7484533"><ele>369.0</ele><time>2026-04-19T10:50:56.962Z</time></trkpt><trkpt lat="41.4567733" lon="0.7483783"><ele>367.3333333333333</ele><time>2026-04-19T10:50:57.961Z</time></trkpt><trkpt lat="41.45672" lon="0.7483017"><ele>365.66666666666663</ele><time>2026-04-19T10:50:58.961Z</time></trkpt><trkpt lat="41.4566633" lon="0.7482267"><ele>364.0</ele><time>2026-04-19T10:50:59.962Z</time></trkpt><trkpt lat="41.4566117" lon="0.7481483"><ele>364.0</ele><time>2026-04-19T10:51:00.962Z</time></trkpt><trkpt lat="41.4565633" lon="0.7480733"><ele>364.0</ele><time>2026-04-19T10:51:01.961Z</time></trkpt><trkpt lat="41.4565083" lon="0.7479983"><ele>364.0</ele><time>2026-04-19T10:51:02.961Z</time></trkpt><trkpt lat="41.4564467" lon="0.747925"><ele>364.0</ele><time>2026-04-19T10:51:03.962Z</time></trkpt><trkpt lat="41.45639" lon="0.7478533"><ele>364.0</ele><time>2026-04-19T10:51:04.961Z</time></trkpt><trkpt lat="41.4563317" lon="0.7477717"><ele>364.0</ele><time>2026-04-19T10:51:05.962Z</time></trkpt><trkpt lat="41.4562833" lon="0.7476883"><ele>363.0</ele><time>2026-04-19T10:51:06.962Z</time></trkpt><trkpt lat="41.4562417" lon="0.747595"><ele>362.0</ele><time>2026-04-19T10:51:07.962Z</time></trkpt><trkpt lat="41.4562017" lon="0.7475067"><ele>361.0</ele><time>2026-04-19T10:51:08.962Z</time></trkpt><trkpt lat="41.4561633" lon="0.74743"><ele>360.0</ele><time>2026-04-19T10:51:09.961Z</time></trkpt><trkpt lat="41.456125" lon="0.74735"><ele>359.0</ele><time>2026-04-19T10:51:10.962Z</time></trkpt><trkpt lat="41.4560867" lon="0.7472817"><ele>358.0</ele><time>2026-04-19T10:51:11.961Z</time></trkpt><trkpt lat="41.45604" lon="0.7472133"><ele>357.0</ele><time>2026-04-19T10:51:12.962Z</time></trkpt><trkpt lat="41.455965" lon="0.7470883"><ele>357.0</ele><time>2026-04-19T10:51:14.961Z</time></trkpt><trkpt lat="41.4558733" lon="0.7469933"><ele>357.0</ele><time>2026-04-19T10:51:16.961Z</time></trkpt><trkpt lat="41.4557733" lon="0.7469267"><ele>357.0</ele><time>2026-04-19T10:51:18.961Z</time></trkpt><trkpt lat="41.455675" lon="0.7468683"><ele>357.0</ele><time>2026-04-19T10:51:20.961Z</time></trkpt><trkpt lat="41.4556183" lon="0.7468317"><ele>357.0</ele><time>2026-04-19T10:51:21.961Z</time></trkpt><trkpt lat="41.4555133" lon="0.746735"><ele>358.0</ele><time>2026-04-19T10:51:23.961Z</time></trkpt><trkpt lat="41.4554583" lon="0.7466783"><ele>359.0</ele><time>2026-04-19T10:51:24.961Z</time></trkpt><trkpt lat="41.455405" lon="0.7466233"><ele>360.0</ele><time>2026-04-19T10:51:25.962Z</time></trkpt><trkpt lat="41.4553683" lon="0.7465533"><ele>361.0</ele><time>2026-04-19T10:51:26.962Z</time></trkpt><trkpt lat="41.4553383" lon="0.7464717"><ele>362.0</ele><time>2026-04-19T10:51:27.962Z</time></trkpt><trkpt lat="41.4553067" lon="0.7463883"><ele>363.0</ele><time>2026-04-19T10:51:28.961Z</time></trkpt><trkpt lat="41.4552633" lon="0.746305"><ele>364.0</ele><time>2026-04-19T10:51:29.961Z</time></trkpt><trkpt lat="41.4552367" lon="0.7462083"><ele>361.5</ele><time>2026-04-19T10:51:30.962Z</time></trkpt><trkpt lat="41.455205" lon="0.7461233"><ele>359.0</ele><time>2026-04-19T10:51:31.961Z</time></trkpt><trkpt lat="41.4551883" lon="0.7460383"><ele>356.5</ele><time>2026-04-19T10:51:32.961Z</time></trkpt><trkpt lat="41.45516" lon="0.7458867"><ele>354.0</ele><time>2026-04-19T10:51:34.961Z</time></trkpt><trkpt lat="41.45514" lon="0.7458067"><ele>351.5</ele><time>2026-04-19T10:51:35.962Z</time></trkpt><trkpt lat="41.45514" lon="0.7457167"><ele>349.0</ele><time>2026-04-19T10:51:36.962Z</time></trkpt><trkpt lat="41.4551283" lon="0.7456267"><ele>348.8333333333333</ele><time>2026-04-19T10:51:37.961Z</time></trkpt><trkpt lat="41.4551183" lon="0.745535"><ele>348.66666666666663</ele><time>2026-04-19T10:51:38.962Z</time></trkpt><trkpt lat="41.455125" lon="0.7453767"><ele>348.5</ele><time>2026-04-19T10:51:40.961Z</time></trkpt><trkpt lat="41.45513" lon="0.7452133"><ele>348.3333333333333</ele><time>2026-04-19T10:51:42.961Z</time></trkpt><trkpt lat="41.45513" lon="0.7451233"><ele>348.1666666666667</ele><time>2026-04-19T10:51:43.962Z</time></trkpt><trkpt lat="41.4551283" lon="0.745035"><ele>348.0</ele><time>2026-04-19T10:51:44.962Z</time></trkpt><trkpt lat="41.4551233" lon="0.74495"><ele>347.57142857142856</ele><time>2026-04-19T10:51:45.962Z</time></trkpt><trkpt lat="41.4551083" lon="0.7448533"><ele>347.14285714285717</ele><time>2026-04-19T10:51:46.962Z</time></trkpt><trkpt lat="41.4551067" lon="0.7447467"><ele>346.7142857142857</ele><time>2026-04-19T10:51:47.961Z</time></trkpt><trkpt lat="41.4550983" lon="0.7446467"><ele>346.2857142857143</ele><time>2026-04-19T10:51:48.961Z</time></trkpt><trkpt lat="41.4550967" lon="0.7445483"><ele>345.85714285714283</ele><time>2026-04-19T10:51:49.961Z</time></trkpt><trkpt lat="41.4551" lon="0.7444633"><ele>345.42857142857144</ele><time>2026-04-19T10:51:50.961Z</time></trkpt><trkpt lat="41.45511" lon="0.744375"><ele>345.0</ele><time>2026-04-19T10:51:51.961Z</time></trkpt><trkpt lat="41.4551317" lon="0.7442783"><ele>344.8333333333333</ele><time>2026-04-19T10:51:52.961Z</time></trkpt><trkpt lat="41.4551617" lon="0.7441933"><ele>344.6666666666667</ele><time>2026-04-19T10:51:53.961Z</time></trkpt><trkpt lat="41.4551983" lon="0.74411"><ele>344.5</ele><time>2026-04-19T10:51:54.962Z</time></trkpt><trkpt lat="41.4552433" lon="0.7440267"><ele>344.33333333333337</ele><time>2026-04-19T10:51:55.961Z</time></trkpt><trkpt lat="41.4552867" lon="0.7439317"><ele>344.1666666666667</ele><time>2026-04-19T10:51:56.962Z</time></trkpt><trkpt lat="41.4553383" lon="0.7438517"><ele>344.0</ele><time>2026-04-19T10:51:57.962Z</time></trkpt><trkpt lat="41.455405" lon="0.7438033"><ele>345.0</ele><time>2026-04-19T10:51:58.962Z</time></trkpt><trkpt lat="41.4554733" lon="0.7437883"><ele>346.0</ele><time>2026-04-19T10:51:59.962Z</time></trkpt><trkpt lat="41.4555417" lon="0.7437667"><ele>347.0</ele><time>2026-04-19T10:52:00.961Z</time></trkpt><trkpt lat="41.45561" lon="0.7437567"><ele>348.0</ele><time>2026-04-19T10:52:01.961Z</time></trkpt><trkpt lat="41.4556883" lon="0.7437383"><ele>349.0</ele><time>2026-04-19T10:52:02.962Z</time></trkpt><trkpt lat="41.45577" lon="0.7437233"><ele>350.0</ele><time>2026-04-19T10:52:03.962Z</time></trkpt><trkpt lat="41.45585" lon="0.74369"><ele>350.0</ele><time>2026-04-19T10:52:04.961Z</time></trkpt><trkpt lat="41.4559267" lon="0.74365"><ele>350.0</ele><time>2026-04-19T10:52:05.961Z</time></trkpt><trkpt lat="41.4559967" lon="0.743605"><ele>350.0</ele><time>2026-04-19T10:52:06.962Z</time></trkpt><trkpt lat="41.4560633" lon="0.743545"><ele>350.0</ele><time>2026-04-19T10:52:07.961Z</time></trkpt><trkpt lat="41.45612" lon="0.743485"><ele>350.0</ele><time>2026-04-19T10:52:08.96Z</time></trkpt><trkpt lat="41.4561733" lon="0.7434283"><ele>350.0</ele><time>2026-04-19T10:52:09.961Z</time></trkpt><trkpt lat="41.4562533" lon="0.743355"><ele>347.2</ele><time>2026-04-19T10:52:11.961Z</time></trkpt><trkpt lat="41.4563133" lon="0.7432967"><ele>344.4</ele><time>2026-04-19T10:52:13.961Z</time></trkpt><trkpt lat="41.4563917" lon="0.74326"><ele>341.6</ele><time>2026-04-19T10:52:15.96Z</time></trkpt><trkpt lat="41.4564933" lon="0.7432517"><ele>338.8</ele><time>2026-04-19T10:52:17.961Z</time></trkpt><trkpt lat="41.4565883" lon="0.7432933"><ele>336.0</ele><time>2026-04-19T10:52:19.961Z</time></trkpt><trkpt lat="41.4566883" lon="0.7433767"><ele>336.0</ele><time>2026-04-19T10:52:21.96Z</time></trkpt><trkpt lat="41.4567933" lon="0.7434483"><ele>336.0</ele><time>2026-04-19T10:52:23.961Z</time></trkpt><trkpt lat="41.4568883" lon="0.7435"><ele>336.0</ele><time>2026-04-19T10:52:25.961Z</time></trkpt><trkpt lat="41.4569817" lon="0.7435583"><ele>336.0</ele><time>2026-04-19T10:52:27.961Z</time></trkpt><trkpt lat="41.45707" lon="0.7436017"><ele>336.0</ele><time>2026-04-19T10:52:29.96Z</time></trkpt><trkpt lat="41.4571233" lon="0.743545"><ele>336.0</ele><time>2026-04-19T10:52:35.961Z</time></trkpt><trkpt lat="41.4570967" lon="0.743435"><ele>336.0</ele><time>2026-04-19T10:52:37.96Z</time></trkpt><trkpt lat="41.45705" lon="0.7433517"><ele>336.0</ele><time>2026-04-19T10:52:38.961Z</time></trkpt><trkpt lat="41.4569833" lon="0.7432433"><ele>336.0</ele><time>2026-04-19T10:52:39.96Z</time></trkpt><trkpt lat="41.4569" lon="0.7431217"><ele>336.0</ele><time>2026-04-19T10:52:40.961Z</time></trkpt><trkpt lat="41.456805" lon="0.74298"><ele>336.0</ele><time>2026-04-19T10:52:41.96Z</time></trkpt><trkpt lat="41.4566967" lon="0.742815"><ele>336.0</ele><time>2026-04-19T10:52:42.961Z</time></trkpt><trkpt lat="41.4565833" lon="0.74264"><ele>336.0</ele><time>2026-04-19T10:52:43.961Z</time></trkpt><trkpt lat="41.4564683" lon="0.7424633"><ele>337.3333333333333</ele><time>2026-04-19T10:52:44.96Z</time></trkpt><trkpt lat="41.4563433" lon="0.7422867"><ele>338.66666666666663</ele><time>2026-04-19T10:52:45.96Z</time></trkpt><trkpt lat="41.4562017" lon="0.7421217"><ele>340.0</ele><time>2026-04-19T10:52:46.961Z</time></trkpt><trkpt lat="41.4560767" lon="0.7419617"><ele>337.3333333333333</ele><time>2026-04-19T10:52:47.961Z</time></trkpt><trkpt lat="41.4559483" lon="0.7418"><ele>334.6666666666667</ele><time>2026-04-19T10:52:48.961Z</time></trkpt><trkpt lat="41.455825" lon="0.741635"><ele>332.0</ele><time>2026-04-19T10:52:49.96Z</time></trkpt><trkpt lat="41.45571" lon="0.7414667"><ele>332.0</ele><time>2026-04-19T10:52:50.961Z</time></trkpt><trkpt lat="41.4556017" lon="0.741305"><ele>332.0</ele><time>2026-04-19T10:52:51.961Z</time></trkpt><trkpt lat="41.4554767" lon="0.7411567"><ele>332.0</ele><time>2026-04-19T10:52:52.961Z</time></trkpt><trkpt lat="41.455365" lon="0.74102"><ele>330.5</ele><time>2026-04-19T10:52:53.961Z</time></trkpt><trkpt lat="41.4552783" lon="0.740855"><ele>329.0</ele><time>2026-04-19T10:52:54.96Z</time></trkpt><trkpt lat="41.45518" lon="0.74071"><ele>327.5</ele><time>2026-04-19T10:52:55.961Z</time></trkpt><trkpt lat="41.4550683" lon="0.7405917"><ele>326.0</ele><time>2026-04-19T10:52:56.96Z</time></trkpt><trkpt lat="41.4549417" lon="0.7405167"><ele>326.0</ele><time>2026-04-19T10:52:57.961Z</time></trkpt><trkpt lat="41.454805" lon="0.7404917"><ele>326.0</ele><time>2026-04-19T10:52:58.96Z</time></trkpt><trkpt lat="41.4546783" lon="0.7404783"><ele>326.0</ele><time>2026-04-19T10:52:59.96Z</time></trkpt><trkpt lat="41.4545617" lon="0.7405017"><ele>326.0</ele><time>2026-04-19T10:53:00.96Z</time></trkpt><trkpt lat="41.4544517" lon="0.7405733"><ele>324.5</ele><time>2026-04-19T10:53:01.96Z</time></trkpt><trkpt lat="41.4543467" lon="0.74068"><ele>323.0</ele><time>2026-04-19T10:53:02.96Z</time></trkpt><trkpt lat="41.4542567" lon="0.740855"><ele>321.5</ele><time>2026-04-19T10:53:03.96Z</time></trkpt><trkpt lat="41.4542183" lon="0.7410567"><ele>320.0</ele><time>2026-04-19T10:53:04.961Z</time></trkpt><trkpt lat="41.4541933" lon="0.741255"><ele>320.0</ele><time>2026-04-19T10:53:05.961Z</time></trkpt><trkpt lat="41.4541717" lon="0.741485"><ele>320.0</ele><time>2026-04-19T10:53:06.961Z</time></trkpt><trkpt lat="41.4541517" lon="0.7417417"><ele>320.0</ele><time>2026-04-19T10:53:07.961Z</time></trkpt><trkpt lat="41.4541183" lon="0.7419717"><ele>321.0</ele><time>2026-04-19T10:53:08.96Z</time></trkpt><trkpt lat="41.454065" lon="0.7421917"><ele>322.0</ele><time>2026-04-19T10:53:09.961Z</time></trkpt><trkpt lat="41.4540017" lon="0.74237"><ele>323.0</ele><time>2026-04-19T10:53:10.96Z</time></trkpt><trkpt lat="41.4539367" lon="0.7425317"><ele>323.0</ele><time>2026-04-19T10:53:11.961Z</time></trkpt><trkpt lat="41.45386" lon="0.74265"><ele>323.0</ele><time>2026-04-19T10:53:12.961Z</time></trkpt><trkpt lat="41.4537483" lon="0.7427033"><ele>323.0</ele><time>2026-04-19T10:53:13.96Z</time></trkpt><trkpt lat="41.4536033" lon="0.7427383"><ele>323.0</ele><time>2026-04-19T10:53:14.961Z</time></trkpt><trkpt lat="41.4534567" lon="0.7427533"><ele>322.0</ele><time>2026-04-19T10:53:15.961Z</time></trkpt><trkpt lat="41.45332" lon="0.7427933"><ele>321.0</ele><time>2026-04-19T10:53:16.96Z</time></trkpt><trkpt lat="41.453205" lon="0.7428783"><ele>320.0</ele><time>2026-04-19T10:53:17.961Z</time></trkpt><trkpt lat="41.4530933" lon="0.7430017"><ele>319.0</ele><time>2026-04-19T10:53:18.96Z</time></trkpt><trkpt lat="41.45302" lon="0.7431467"><ele>319.0</ele><time>2026-04-19T10:53:19.96Z</time></trkpt><trkpt lat="41.4529817" lon="0.7433233"><ele>319.0</ele><time>2026-04-19T10:53:20.96Z</time></trkpt><trkpt lat="41.4529333" lon="0.7435367"><ele>319.0</ele><time>2026-04-19T10:53:21.961Z</time></trkpt><trkpt lat="41.4528733" lon="0.7437667"><ele>316.3333333333333</ele><time>2026-04-19T10:53:22.96Z</time></trkpt><trkpt lat="41.4528017" lon="0.7439967"><ele>313.6666666666667</ele><time>2026-04-19T10:53:23.961Z</time></trkpt><trkpt lat="41.4527333" lon="0.744235"><ele>311.0</ele><time>2026-04-19T10:53:24.96Z</time></trkpt><trkpt lat="41.4526683" lon="0.74447"><ele>311.0</ele><time>2026-04-19T10:53:25.961Z</time></trkpt><trkpt lat="41.452605" lon="0.7447033"><ele>311.0</ele><time>2026-04-19T10:53:26.961Z</time></trkpt><trkpt lat="41.4525467" lon="0.7449383"><ele>311.0</ele><time>2026-04-19T10:53:27.961Z</time></trkpt><trkpt lat="41.4524767" lon="0.74516"><ele>313.0</ele><time>2026-04-19T10:53:28.961Z</time></trkpt><trkpt lat="41.4524283" lon="0.7453733"><ele>315.0</ele><time>2026-04-19T10:53:29.961Z</time></trkpt><trkpt lat="41.45238" lon="0.7455717"><ele>317.0</ele><time>2026-04-19T10:53:30.961Z</time></trkpt><trkpt lat="41.4523267" lon="0.745775"><ele>317.0</ele><time>2026-04-19T10:53:31.96Z</time></trkpt><trkpt lat="41.452255" lon="0.7459667"><ele>317.0</ele><time>2026-04-19T10:53:32.96Z</time></trkpt><trkpt lat="41.452165" lon="0.74615"><ele>317.0</ele><time>2026-04-19T10:53:33.961Z</time></trkpt><trkpt lat="41.4520517" lon="0.7462967"><ele>313.0</ele><time>2026-04-19T10:53:34.961Z</time></trkpt><trkpt lat="41.4519233" lon="0.7464167"><ele>309.0</ele><time>2026-04-19T10:53:35.96Z</time></trkpt><trkpt lat="41.4517817" lon="0.7465033"><ele>305.0</ele><time>2026-04-19T10:53:36.96Z</time></trkpt><trkpt lat="41.4516217" lon="0.74656"><ele>305.0</ele><time>2026-04-19T10:53:37.961Z</time></trkpt><trkpt lat="41.4514483" lon="0.7465617"><ele>305.0</ele><time>2026-04-19T10:53:38.96Z</time></trkpt><trkpt lat="41.4513" lon="0.746515"><ele>305.0</ele><time>2026-04-19T10:53:39.961Z</time></trkpt><trkpt lat="41.4511417" lon="0.7464567"><ele>306.0</ele><time>2026-04-19T10:53:40.96Z</time></trkpt><trkpt lat="41.4510133" lon="0.7463083"><ele>307.0</ele><time>2026-04-19T10:53:41.96Z</time></trkpt><trkpt lat="41.451015" lon="0.7460167"><ele>308.0</ele><time>2026-04-19T10:53:42.961Z</time></trkpt><trkpt lat="41.4510233" lon="0.7457817"><ele>310.33333333333337</ele><time>2026-04-19T10:53:43.96Z</time></trkpt><trkpt lat="41.4510633" lon="0.7455617"><ele>312.6666666666667</ele><time>2026-04-19T10:53:44.96Z</time></trkpt><trkpt lat="41.4511317" lon="0.7453533"><ele>315.0</ele><time>2026-04-19T10:53:45.961Z</time></trkpt><trkpt lat="41.4512333" lon="0.7451783"><ele>312.6666666666667</ele><time>2026-04-19T10:53:46.961Z</time></trkpt><trkpt lat="41.4513267" lon="0.7449917"><ele>310.33333333333337</ele><time>2026-04-19T10:53:47.96Z</time></trkpt><trkpt lat="41.45142" lon="0.7448133"><ele>308.0</ele><time>2026-04-19T10:53:48.96Z</time></trkpt><trkpt lat="41.4515083" lon="0.744635"><ele>308.0</ele><time>2026-04-19T10:53:49.961Z</time></trkpt><trkpt lat="41.4516" lon="0.7444617"><ele>308.0</ele><time>2026-04-19T10:53:50.961Z</time></trkpt><trkpt lat="41.4516717" lon="0.7442817"><ele>308.0</ele><time>2026-04-19T10:53:51.96Z</time></trkpt><trkpt lat="41.4517283" lon="0.7440883"><ele>310.6666666666667</ele><time>2026-04-19T10:53:52.96Z</time></trkpt><trkpt lat="41.451755" lon="0.7438767"><ele>313.3333333333333</ele><time>2026-04-19T10:53:53.961Z</time></trkpt><trkpt lat="41.45174" lon="0.743655"><ele>316.0</ele><time>2026-04-19T10:53:54.961Z</time></trkpt><trkpt lat="41.4517017" lon="0.7434517"><ele>316.0</ele><time>2026-04-19T10:53:55.96Z</time></trkpt><trkpt lat="41.4516067" lon="0.7432417"><ele>316.0</ele><time>2026-04-19T10:53:56.961Z</time></trkpt><trkpt lat="41.4514967" lon="0.743095"><ele>316.0</ele><time>2026-04-19T10:53:57.961Z</time></trkpt><trkpt lat="41.4513667" lon="0.74301"><ele>318.66666666666663</ele><time>2026-04-19T10:53:58.961Z</time></trkpt><trkpt lat="41.45121" lon="0.74294"><ele>321.3333333333333</ele><time>2026-04-19T10:53:59.961Z</time></trkpt><trkpt lat="41.4510467" lon="0.7429367"><ele>324.0</ele><time>2026-04-19T10:54:00.961Z</time></trkpt><trkpt lat="41.4508817" lon="0.7429767"><ele>324.0</ele><time>2026-04-19T10:54:01.96Z</time></trkpt><trkpt lat="41.4507367" lon="0.74309"><ele>324.0</ele><time>2026-04-19T10:54:02.961Z</time></trkpt><trkpt lat="41.4506283" lon="0.74324"><ele>324.0</ele><time>2026-04-19T10:54:03.96Z</time></trkpt><trkpt lat="41.4505367" lon="0.7434017"><ele>327.6666666666667</ele><time>2026-04-19T10:54:04.961Z</time></trkpt><trkpt lat="41.450445" lon="0.743565"><ele>331.33333333333337</ele><time>2026-04-19T10:54:05.961Z</time></trkpt><trkpt lat="41.450355" lon="0.7437367"><ele>335.0</ele><time>2026-04-19T10:54:06.961Z</time></trkpt><trkpt lat="41.4502817" lon="0.7438967"><ele>335.0</ele><time>2026-04-19T10:54:07.961Z</time></trkpt><trkpt lat="41.4501933" lon="0.7440583"><ele>335.0</ele><time>2026-04-19T10:54:08.961Z</time></trkpt><trkpt lat="41.45011" lon="0.74423"><ele>335.0</ele><time>2026-04-19T10:54:09.961Z</time></trkpt><trkpt lat="41.45006" lon="0.74442"><ele>335.33333333333337</ele><time>2026-04-19T10:54:10.961Z</time></trkpt><trkpt lat="41.4500283" lon="0.744615"><ele>335.6666666666667</ele><time>2026-04-19T10:54:11.961Z</time></trkpt><trkpt lat="41.4500333" lon="0.7448283"><ele>336.0</ele><time>2026-04-19T10:54:12.96Z</time></trkpt><trkpt lat="41.4500567" lon="0.745025"><ele>336.0</ele><time>2026-04-19T10:54:13.96Z</time></trkpt><trkpt lat="41.450085" lon="0.7452183"><ele>336.0</ele><time>2026-04-19T10:54:14.96Z</time></trkpt><trkpt lat="41.450115" lon="0.7454233"><ele>336.0</ele><time>2026-04-19T10:54:15.96Z</time></trkpt><trkpt lat="41.4501133" lon="0.74559"><ele>336.0</ele><time>2026-04-19T10:54:16.96Z</time></trkpt><trkpt lat="41.4500833" lon="0.74577"><ele>336.0</ele><time>2026-04-19T10:54:17.961Z</time></trkpt><trkpt lat="41.45002" lon="0.7459633"><ele>336.0</ele><time>2026-04-19T10:54:18.96Z</time></trkpt><trkpt lat="41.4499167" lon="0.7461317"><ele>336.0</ele><time>2026-04-19T10:54:19.961Z</time></trkpt><trkpt lat="41.44981" lon="0.7462833"><ele>336.6666666666667</ele><time>2026-04-19T10:54:20.961Z</time></trkpt><trkpt lat="41.4496833" lon="0.74642"><ele>337.33333333333337</ele><time>2026-04-19T10:54:21.96Z</time></trkpt><trkpt lat="41.4495383" lon="0.746515"><ele>338.0</ele><time>2026-04-19T10:54:22.96Z</time></trkpt><trkpt lat="41.4493567" lon="0.74657"><ele>338.0</ele><time>2026-04-19T10:54:23.961Z</time></trkpt><trkpt lat="41.44919" lon="0.746575"><ele>338.0</ele><time>2026-04-19T10:54:24.961Z</time></trkpt><trkpt lat="41.4490083" lon="0.7465467"><ele>338.0</ele><time>2026-04-19T10:54:25.961Z</time></trkpt><trkpt lat="41.44886" lon="0.74645"><ele>339.33333333333337</ele><time>2026-04-19T10:54:26.961Z</time></trkpt><trkpt lat="41.4487217" lon="0.7463217"><ele>340.6666666666667</ele><time>2026-04-19T10:54:27.96Z</time></trkpt><trkpt lat="41.4485917" lon="0.7461783"><ele>342.0</ele><time>2026-04-19T10:54:28.961Z</time></trkpt><trkpt lat="41.4484967" lon="0.7459883"><ele>342.0</ele><time>2026-04-19T10:54:29.961Z</time></trkpt><trkpt lat="41.448425" lon="0.7457917"><ele>342.0</ele><time>2026-04-19T10:54:30.961Z</time></trkpt><trkpt lat="41.4483967" lon="0.7455733"><ele>342.0</ele><time>2026-04-19T10:54:31.961Z</time></trkpt><trkpt lat="41.4483983" lon="0.74535"><ele>344.0</ele><time>2026-04-19T10:54:32.961Z</time></trkpt><trkpt lat="41.4484133" lon="0.74514"><ele>346.0</ele><time>2026-04-19T10:54:33.96Z</time></trkpt><trkpt lat="41.448435" lon="0.7449283"><ele>348.0</ele><time>2026-04-19T10:54:34.961Z</time></trkpt><trkpt lat="41.4484517" lon="0.7447233"><ele>348.0</ele><time>2026-04-19T10:54:35.961Z</time></trkpt><trkpt lat="41.4484633" lon="0.7445267"><ele>348.0</ele><time>2026-04-19T10:54:36.961Z</time></trkpt><trkpt lat="41.4484767" lon="0.7443367"><ele>348.0</ele><time>2026-04-19T10:54:37.96Z</time></trkpt><trkpt lat="41.448495" lon="0.74417"><ele>348.0</ele><time>2026-04-19T10:54:38.961Z</time></trkpt><trkpt lat="41.4485017" lon="0.7440217"><ele>348.59999999999997</ele><time>2026-04-19T10:54:39.96Z</time></trkpt><trkpt lat="41.4485117" lon="0.7438783"><ele>349.2</ele><time>2026-04-19T10:54:40.96Z</time></trkpt><trkpt lat="41.4485267" lon="0.7437333"><ele>349.8</ele><time>2026-04-19T10:54:41.96Z</time></trkpt><trkpt lat="41.44854" lon="0.743595"><ele>350.4</ele><time>2026-04-19T10:54:42.961Z</time></trkpt><trkpt lat="41.448565" lon="0.7434533"><ele>351.0</ele><time>2026-04-19T10:54:43.96Z</time></trkpt><trkpt lat="41.44859" lon="0.7433133"><ele>352.0</ele><time>2026-04-19T10:54:44.96Z</time></trkpt><trkpt lat="41.448615" lon="0.743175"><ele>353.0</ele><time>2026-04-19T10:54:45.961Z</time></trkpt><trkpt lat="41.448635" lon="0.74304"><ele>354.0</ele><time>2026-04-19T10:54:46.961Z</time></trkpt><trkpt lat="41.4486483" lon="0.7429067"><ele>355.0</ele><time>2026-04-19T10:54:47.961Z</time></trkpt><trkpt lat="41.448645" lon="0.7427767"><ele>356.0</ele><time>2026-04-19T10:54:48.961Z</time></trkpt><trkpt lat="41.4486283" lon="0.742635"><ele>356.8</ele><time>2026-04-19T10:54:49.961Z</time></trkpt><trkpt lat="41.4486017" lon="0.7424967"><ele>357.6</ele><time>2026-04-19T10:54:50.96Z</time></trkpt><trkpt lat="41.4485683" lon="0.7423583"><ele>358.4</ele><time>2026-04-19T10:54:51.96Z</time></trkpt><trkpt lat="41.4485433" lon="0.7422183"><ele>359.2</ele><time>2026-04-19T10:54:52.96Z</time></trkpt><trkpt lat="41.448525" lon="0.74208"><ele>360.0</ele><time>2026-04-19T10:54:53.961Z</time></trkpt><trkpt lat="41.4485117" lon="0.741945"><ele>359.8333333333333</ele><time>2026-04-19T10:54:54.96Z</time></trkpt><trkpt lat="41.4485017" lon="0.7418233"><ele>359.6666666666667</ele><time>2026-04-19T10:54:55.96Z</time></trkpt><trkpt lat="41.4484933" lon="0.74171"><ele>359.5</ele><time>2026-04-19T10:54:56.961Z</time></trkpt><trkpt lat="41.448495" lon="0.741595"><ele>359.33333333333337</ele><time>2026-04-19T10:54:57.96Z</time></trkpt><trkpt lat="41.44849" lon="0.7414817"><ele>359.1666666666667</ele><time>2026-04-19T10:54:58.96Z</time></trkpt><trkpt lat="41.448485" lon="0.7413833"><ele>359.0</ele><time>2026-04-19T10:54:59.961Z</time></trkpt><trkpt lat="41.4484783" lon="0.7412267"><ele>359.0</ele><time>2026-04-19T10:55:01.961Z</time></trkpt><trkpt lat="41.44847" lon="0.741095"><ele>359.0</ele><time>2026-04-19T10:55:03.96Z</time></trkpt><trkpt lat="41.4484933" lon="0.740955"><ele>359.0</ele><time>2026-04-19T10:55:05.96Z</time></trkpt><trkpt lat="41.4485317" lon="0.7408117"><ele>359.0</ele><time>2026-04-19T10:55:07.961Z</time></trkpt><trkpt lat="41.4485867" lon="0.740685"><ele>359.0</ele><time>2026-04-19T10:55:09.961Z</time></trkpt><trkpt lat="41.4486367" lon="0.7405567"><ele>358.79999999999995</ele><time>2026-04-19T10:55:11.96Z</time></trkpt><trkpt lat="41.4486717" lon="0.7404333"><ele>358.59999999999997</ele><time>2026-04-19T10:55:13.961Z</time></trkpt><trkpt lat="41.4487267" lon="0.7402967"><ele>358.4</ele><time>2026-04-19T10:55:15.961Z</time></trkpt><trkpt lat="41.4487567" lon="0.7402217"><ele>358.2</ele><time>2026-04-19T10:55:16.961Z</time></trkpt><trkpt lat="41.4488283" lon="0.740085"><ele>358.0</ele><time>2026-04-19T10:55:18.96Z</time></trkpt><trkpt lat="41.44888" lon="0.740015"><ele>358.0</ele><time>2026-04-19T10:55:19.96Z</time></trkpt><trkpt lat="41.4489767" lon="0.7399017"><ele>358.0</ele><time>2026-04-19T10:55:21.96Z</time></trkpt><trkpt lat="41.4490517" lon="0.73977"><ele>358.0</ele><time>2026-04-19T10:55:23.96Z</time></trkpt><trkpt lat="41.4491067" lon="0.739675"><ele>358.0</ele><time>2026-04-19T10:55:25.961Z</time></trkpt><trkpt lat="41.4491617" lon="0.7395667"><ele>358.0</ele><time>2026-04-19T10:55:27.961Z</time></trkpt><trkpt lat="41.44917" lon="0.7394683"><ele>358.0</ele><time>2026-04-19T10:55:31.96Z</time></trkpt><trkpt lat="41.4490933" lon="0.7394067"><ele>358.0</ele><time>2026-04-19T10:55:37.961Z</time></trkpt><trkpt lat="41.44903" lon="0.739385"><ele>358.0</ele><time>2026-04-19T10:55:39.961Z</time></trkpt><trkpt lat="41.4489383" lon="0.739435"><ele>358.0</ele><time>2026-04-19T10:55:49.961Z</time></trkpt><trkpt lat="41.448885" lon="0.7394817"><ele>358.0</ele><time>2026-04-19T10:56:16.961Z</time></trkpt></trkseg><trkseg><trkpt lat="41.4489055" lon="0.739638"><ele>358.0</ele><time>2026-04-19T11:31:10.008Z</time></trkpt><trkpt lat="41.4488604" lon="0.7395784"><ele>358.0</ele><time>2026-04-19T11:31:22.952Z</time></trkpt><trkpt lat="41.4489083" lon="0.739495"><ele>358.0</ele><time>2026-04-19T11:31:42.963Z</time></trkpt><trkpt lat="41.44899" lon="0.7394517"><ele>358.0</ele><time>2026-04-19T11:31:51.962Z</time></trkpt><trkpt lat="41.449065" lon="0.7394967"><ele>358.0</ele><time>2026-04-19T11:31:53.963Z</time></trkpt><trkpt lat="41.4491167" lon="0.7395667"><ele>358.0</ele><time>2026-04-19T11:31:55.962Z</time></trkpt><trkpt lat="41.4491217" lon="0.7396717"><ele>358.0</ele><time>2026-04-19T11:31:58.963Z</time></trkpt><trkpt lat="41.4490333" lon="0.7397783"><ele>358.0</ele><time>2026-04-19T11:32:00.963Z</time></trkpt><trkpt lat="41.4489767" lon="0.7398533"><ele>358.0</ele><time>2026-04-19T11:32:01.963Z</time></trkpt><trkpt lat="41.4489317" lon="0.7399233"><ele>358.0</ele><time>2026-04-19T11:32:02.963Z</time></trkpt><trkpt lat="41.448885" lon="0.7400133"><ele>358.0</ele><time>2026-04-19T11:32:03.962Z</time></trkpt><trkpt lat="41.4488483" lon="0.7400983"><ele>358.0</ele><time>2026-04-19T11:32:04.963Z</time></trkpt><trkpt lat="41.4488133" lon="0.740185"><ele>358.8333333333333</ele><time>2026-04-19T11:32:05.963Z</time></trkpt><trkpt lat="41.4487733" lon="0.7402633"><ele>359.66666666666663</ele><time>2026-04-19T11:32:06.962Z</time></trkpt><trkpt lat="41.44874" lon="0.74034"><ele>360.5</ele><time>2026-04-19T11:32:07.962Z</time></trkpt><trkpt lat="41.4487117" lon="0.7404167"><ele>361.3333333333333</ele><time>2026-04-19T11:32:08.963Z</time></trkpt><trkpt lat="41.448685" lon="0.7404933"><ele>362.1666666666667</ele><time>2026-04-19T11:32:09.963Z</time></trkpt><trkpt lat="41.44862" lon="0.7406217"><ele>363.0</ele><time>2026-04-19T11:32:11.963Z</time></trkpt><trkpt lat="41.4485767" lon="0.740735"><ele>363.0</ele><time>2026-04-19T11:32:13.963Z</time></trkpt><trkpt lat="41.448535" lon="0.7408433"><ele>363.0</ele><time>2026-04-19T11:32:15.963Z</time></trkpt><trkpt lat="41.4484917" lon="0.7409483"><ele>363.0</ele><time>2026-04-19T11:32:17.962Z</time></trkpt><trkpt lat="41.4484633" lon="0.7411"><ele>363.0</ele><time>2026-04-19T11:32:25.962Z</time></trkpt><trkpt lat="41.4484483" lon="0.7412733"><ele>363.0</ele><time>2026-04-19T11:32:27.963Z</time></trkpt><trkpt lat="41.4484567" lon="0.7413917"><ele>362.25</ele><time>2026-04-19T11:32:28.962Z</time></trkpt><trkpt lat="41.448465" lon="0.74153"><ele>361.5</ele><time>2026-04-19T11:32:29.963Z</time></trkpt><trkpt lat="41.44847" lon="0.7416917"><ele>360.75</ele><time>2026-04-19T11:32:30.962Z</time></trkpt><trkpt lat="41.448475" lon="0.741875"><ele>360.0</ele><time>2026-04-19T11:32:31.962Z</time></trkpt><trkpt lat="41.4484867" lon="0.74207"><ele>360.0</ele><time>2026-04-19T11:32:32.962Z</time></trkpt><trkpt lat="41.4485083" lon="0.742255"><ele>360.0</ele><time>2026-04-19T11:32:33.963Z</time></trkpt><trkpt lat="41.448535" lon="0.7424317"><ele>360.0</ele><time>2026-04-19T11:32:34.963Z</time></trkpt><trkpt lat="41.4485767" lon="0.74261"><ele>360.0</ele><time>2026-04-19T11:32:35.962Z</time></trkpt><trkpt lat="41.4486" lon="0.74277"><ele>359.0</ele><time>2026-04-19T11:32:36.962Z</time></trkpt><trkpt lat="41.4486017" lon="0.7429333"><ele>358.0</ele><time>2026-04-19T11:32:37.963Z</time></trkpt><trkpt lat="41.448585" lon="0.7431017"><ele>357.0</ele><time>2026-04-19T11:32:38.962Z</time></trkpt><trkpt lat="41.4485567" lon="0.743285"><ele>356.0</ele><time>2026-04-19T11:32:39.963Z</time></trkpt><trkpt lat="41.4485217" lon="0.7434633"><ele>354.75</ele><time>2026-04-19T11:32:40.963Z</time></trkpt><trkpt lat="41.4484883" lon="0.7436567"><ele>353.5</ele><time>2026-04-19T11:32:41.962Z</time></trkpt><trkpt lat="41.4484617" lon="0.743855"><ele>352.25</ele><time>2026-04-19T11:32:42.962Z</time></trkpt><trkpt lat="41.4484517" lon="0.7440533"><ele>351.0</ele><time>2026-04-19T11:32:43.962Z</time></trkpt><trkpt lat="41.44844" lon="0.7442467"><ele>350.25</ele><time>2026-04-19T11:32:44.962Z</time></trkpt><trkpt lat="41.4484317" lon="0.7444467"><ele>349.5</ele><time>2026-04-19T11:32:45.962Z</time></trkpt><trkpt lat="41.4484233" lon="0.74465"><ele>348.75</ele><time>2026-04-19T11:32:46.962Z</time></trkpt><trkpt lat="41.4484133" lon="0.7448433"><ele>348.0</ele><time>2026-04-19T11:32:47.962Z</time></trkpt><trkpt lat="41.4483933" lon="0.7450483"><ele>346.0</ele><time>2026-04-19T11:32:48.961Z</time></trkpt><trkpt lat="41.4483733" lon="0.7452583"><ele>344.0</ele><time>2026-04-19T11:32:49.962Z</time></trkpt><trkpt lat="41.44837" lon="0.745465"><ele>342.0</ele><time>2026-04-19T11:32:50.961Z</time></trkpt><trkpt lat="41.4483917" lon="0.7456667"><ele>342.0</ele><time>2026-04-19T11:32:51.961Z</time></trkpt><trkpt lat="41.4484417" lon="0.7458467"><ele>342.0</ele><time>2026-04-19T11:32:52.961Z</time></trkpt><trkpt lat="41.4485" lon="0.7460083"><ele>342.0</ele><time>2026-04-19T11:32:53.962Z</time></trkpt><trkpt lat="41.4485833" lon="0.7461733"><ele>342.0</ele><time>2026-04-19T11:32:54.961Z</time></trkpt><trkpt lat="41.4486833" lon="0.7463117"><ele>341.0</ele><time>2026-04-19T11:32:55.962Z</time></trkpt><trkpt lat="41.4487917" lon="0.7464383"><ele>340.0</ele><time>2026-04-19T11:32:56.962Z</time></trkpt><trkpt lat="41.4489117" lon="0.7465317"><ele>339.0</ele><time>2026-04-19T11:32:57.961Z</time></trkpt><trkpt lat="41.4490433" lon="0.7465933"><ele>338.0</ele><time>2026-04-19T11:32:58.961Z</time></trkpt><trkpt lat="41.4491783" lon="0.746625"><ele>338.0</ele><time>2026-04-19T11:32:59.961Z</time></trkpt><trkpt lat="41.4493233" lon="0.74663"><ele>338.0</ele><time>2026-04-19T11:33:00.961Z</time></trkpt><trkpt lat="41.4494583" lon="0.746595"><ele>338.0</ele><time>2026-04-19T11:33:01.962Z</time></trkpt><trkpt lat="41.4496067" lon="0.7465483"><ele>338.0</ele><time>2026-04-19T11:33:02.961Z</time></trkpt><trkpt lat="41.4497267" lon="0.7464567"><ele>337.5</ele><time>2026-04-19T11:33:03.962Z</time></trkpt><trkpt lat="41.4498333" lon="0.746345"><ele>337.0</ele><time>2026-04-19T11:33:04.962Z</time></trkpt><trkpt lat="41.4499317" lon="0.7462133"><ele>336.5</ele><time>2026-04-19T11:33:05.962Z</time></trkpt><trkpt lat="41.45002" lon="0.74606"><ele>336.0</ele><time>2026-04-19T11:33:06.962Z</time></trkpt><trkpt lat="41.4500883" lon="0.745895"><ele>336.0</ele><time>2026-04-19T11:33:07.961Z</time></trkpt><trkpt lat="41.450145" lon="0.7457333"><ele>336.0</ele><time>2026-04-19T11:33:08.961Z</time></trkpt><trkpt lat="41.45017" lon="0.7455467"><ele>336.0</ele><time>2026-04-19T11:33:09.961Z</time></trkpt><trkpt lat="41.4501633" lon="0.745355"><ele>336.0</ele><time>2026-04-19T11:33:10.961Z</time></trkpt><trkpt lat="41.4501267" lon="0.74516"><ele>336.0</ele><time>2026-04-19T11:33:11.962Z</time></trkpt><trkpt lat="41.4500867" lon="0.7449817"><ele>336.0</ele><time>2026-04-19T11:33:12.961Z</time></trkpt><trkpt lat="41.4500517" lon="0.744795"><ele>336.0</ele><time>2026-04-19T11:33:13.962Z</time></trkpt><trkpt lat="41.4500267" lon="0.744635"><ele>336.0</ele><time>2026-04-19T11:33:14.962Z</time></trkpt><trkpt lat="41.4500517" lon="0.7444433"><ele>335.6666666666667</ele><time>2026-04-19T11:33:15.961Z</time></trkpt><trkpt lat="41.4501033" lon="0.7442533"><ele>335.33333333333337</ele><time>2026-04-19T11:33:16.962Z</time></trkpt><trkpt lat="41.4501833" lon="0.7440833"><ele>335.0</ele><time>2026-04-19T11:33:17.961Z</time></trkpt><trkpt lat="41.4502717" lon="0.743915"><ele>335.0</ele><time>2026-04-19T11:33:18.962Z</time></trkpt><trkpt lat="41.450365" lon="0.743745"><ele>335.0</ele><time>2026-04-19T11:33:19.961Z</time></trkpt><trkpt lat="41.450455" lon="0.74358"><ele>335.0</ele><time>2026-04-19T11:33:20.962Z</time></trkpt><trkpt lat="41.4505517" lon="0.7434317"><ele>332.25</ele><time>2026-04-19T11:33:21.962Z</time></trkpt><trkpt lat="41.4506383" lon="0.7432933"><ele>329.5</ele><time>2026-04-19T11:33:22.962Z</time></trkpt><trkpt lat="41.4507417" lon="0.743165"><ele>326.75</ele><time>2026-04-19T11:33:23.962Z</time></trkpt><trkpt lat="41.45087" lon="0.7430767"><ele>324.0</ele><time>2026-04-19T11:33:24.962Z</time></trkpt><trkpt lat="41.4510033" lon="0.743025"><ele>324.0</ele><time>2026-04-19T11:33:25.961Z</time></trkpt><trkpt lat="41.4511533" lon="0.743025"><ele>324.0</ele><time>2026-04-19T11:33:26.962Z</time></trkpt><trkpt lat="41.4513033" lon="0.74307"><ele>324.0</ele><time>2026-04-19T11:33:27.962Z</time></trkpt><trkpt lat="41.451445" lon="0.7431567"><ele>321.6666666666667</ele><time>2026-04-19T11:33:28.962Z</time></trkpt><trkpt lat="41.4515667" lon="0.7432817"><ele>319.33333333333337</ele><time>2026-04-19T11:33:29.962Z</time></trkpt><trkpt lat="41.4516667" lon="0.7434417"><ele>317.0</ele><time>2026-04-19T11:33:30.962Z</time></trkpt><trkpt lat="41.451715" lon="0.743645"><ele>317.0</ele><time>2026-04-19T11:33:31.961Z</time></trkpt><trkpt lat="41.451735" lon="0.7438633"><ele>317.0</ele><time>2026-04-19T11:33:32.962Z</time></trkpt><trkpt lat="41.4516933" lon="0.7440533"><ele>317.0</ele><time>2026-04-19T11:33:33.961Z</time></trkpt><trkpt lat="41.4516467" lon="0.7442583"><ele>314.0</ele><time>2026-04-19T11:33:34.962Z</time></trkpt><trkpt lat="41.4515767" lon="0.7444483"><ele>311.0</ele><time>2026-04-19T11:33:35.962Z</time></trkpt><trkpt lat="41.45149" lon="0.7446383"><ele>308.0</ele><time>2026-04-19T11:33:36.962Z</time></trkpt><trkpt lat="41.4513967" lon="0.744805"><ele>308.0</ele><time>2026-04-19T11:33:37.962Z</time></trkpt><trkpt lat="41.451305" lon="0.7449717"><ele>308.0</ele><time>2026-04-19T11:33:38.962Z</time></trkpt><trkpt lat="41.451225" lon="0.7451433"><ele>308.0</ele><time>2026-04-19T11:33:39.962Z</time></trkpt><trkpt lat="41.4511467" lon="0.7453017"><ele>308.0</ele><time>2026-04-19T11:33:40.962Z</time></trkpt><trkpt lat="41.4510717" lon="0.7454683"><ele>308.0</ele><time>2026-04-19T11:33:41.961Z</time></trkpt><trkpt lat="41.451025" lon="0.745645"><ele>308.0</ele><time>2026-04-19T11:33:42.962Z</time></trkpt><trkpt lat="41.451005" lon="0.745835"><ele>308.0</ele><time>2026-04-19T11:33:43.962Z</time></trkpt><trkpt lat="41.4510133" lon="0.74603"><ele>308.0</ele><time>2026-04-19T11:33:44.961Z</time></trkpt><trkpt lat="41.4510567" lon="0.7462217"><ele>308.0</ele><time>2026-04-19T11:33:45.962Z</time></trkpt><trkpt lat="41.4511417" lon="0.746395"><ele>308.0</ele><time>2026-04-19T11:33:46.961Z</time></trkpt><trkpt lat="41.45126" lon="0.7465"><ele>308.0</ele><time>2026-04-19T11:33:47.962Z</time></trkpt><trkpt lat="41.45138" lon="0.7465817"><ele>308.0</ele><time>2026-04-19T11:33:48.961Z</time></trkpt><trkpt lat="41.4515433" lon="0.7465967"><ele>307.0</ele><time>2026-04-19T11:33:49.961Z</time></trkpt><trkpt lat="41.4516917" lon="0.74657"><ele>306.0</ele><time>2026-04-19T11:33:50.961Z</time></trkpt><trkpt lat="41.4518267" lon="0.7465133"><ele>305.0</ele><time>2026-04-19T11:33:51.962Z</time></trkpt><trkpt lat="41.45197" lon="0.7464033"><ele>305.0</ele><time>2026-04-19T11:33:52.962Z</time></trkpt><trkpt lat="41.4521083" lon="0.7462733"><ele>305.0</ele><time>2026-04-19T11:33:53.962Z</time></trkpt><trkpt lat="41.452225" lon="0.7461283"><ele>305.0</ele><time>2026-04-19T11:33:54.961Z</time></trkpt><trkpt lat="41.4523217" lon="0.7459617"><ele>309.0</ele><time>2026-04-19T11:33:55.961Z</time></trkpt><trkpt lat="41.4523933" lon="0.7457683"><ele>313.0</ele><time>2026-04-19T11:33:56.961Z</time></trkpt><trkpt lat="41.4524483" lon="0.7455733"><ele>317.0</ele><time>2026-04-19T11:33:57.962Z</time></trkpt><trkpt lat="41.4524967" lon="0.7453683"><ele>315.0</ele><time>2026-04-19T11:33:58.961Z</time></trkpt><trkpt lat="41.452535" lon="0.745175"><ele>313.0</ele><time>2026-04-19T11:33:59.961Z</time></trkpt><trkpt lat="41.4525733" lon="0.7449783"><ele>311.0</ele><time>2026-04-19T11:34:00.962Z</time></trkpt><trkpt lat="41.4526167" lon="0.7447733"><ele>311.0</ele><time>2026-04-19T11:34:01.961Z</time></trkpt><trkpt lat="41.4526667" lon="0.7445683"><ele>311.0</ele><time>2026-04-19T11:34:02.962Z</time></trkpt><trkpt lat="41.452725" lon="0.744375"><ele>311.0</ele><time>2026-04-19T11:34:03.962Z</time></trkpt><trkpt lat="41.4527817" lon="0.74418"><ele>310.33333333333337</ele><time>2026-04-19T11:34:04.961Z</time></trkpt><trkpt lat="41.4528367" lon="0.7439883"><ele>309.6666666666667</ele><time>2026-04-19T11:34:05.961Z</time></trkpt><trkpt lat="41.4528917" lon="0.7438017"><ele>309.0</ele><time>2026-04-19T11:34:06.961Z</time></trkpt><trkpt lat="41.452945" lon="0.7436117"><ele>311.5</ele><time>2026-04-19T11:34:07.961Z</time></trkpt><trkpt lat="41.452995" lon="0.74343"><ele>314.0</ele><time>2026-04-19T11:34:08.961Z</time></trkpt><trkpt lat="41.4530417" lon="0.7432533"><ele>316.5</ele><time>2026-04-19T11:34:09.962Z</time></trkpt><trkpt lat="41.4531083" lon="0.7430767"><ele>319.0</ele><time>2026-04-19T11:34:10.961Z</time></trkpt><trkpt lat="41.4531883" lon="0.7429267"><ele>319.0</ele><time>2026-04-19T11:34:11.962Z</time></trkpt><trkpt lat="41.4533067" lon="0.742805"><ele>319.0</ele><time>2026-04-19T11:34:12.961Z</time></trkpt><trkpt lat="41.4534217" lon="0.7427283"><ele>319.0</ele><time>2026-04-19T11:34:13.961Z</time></trkpt><trkpt lat="41.4535567" lon="0.74268"><ele>319.0</ele><time>2026-04-19T11:34:14.962Z</time></trkpt><trkpt lat="41.4537" lon="0.74263"><ele>320.0</ele><time>2026-04-19T11:34:15.961Z</time></trkpt><trkpt lat="41.4538333" lon="0.742545"><ele>321.0</ele><time>2026-04-19T11:34:16.962Z</time></trkpt><trkpt lat="41.4539517" lon="0.7424367"><ele>322.0</ele><time>2026-04-19T11:34:17.962Z</time></trkpt><trkpt lat="41.4540383" lon="0.7422883"><ele>323.0</ele><time>2026-04-19T11:34:18.962Z</time></trkpt><trkpt lat="41.4540967" lon="0.7421067"><ele>323.0</ele><time>2026-04-19T11:34:19.961Z</time></trkpt><trkpt lat="41.4541383" lon="0.7419233"><ele>323.0</ele><time>2026-04-19T11:34:20.962Z</time></trkpt><trkpt lat="41.45416" lon="0.7417283"><ele>323.0</ele><time>2026-04-19T11:34:21.961Z</time></trkpt><trkpt lat="41.4541883" lon="0.7415433"><ele>323.0</ele><time>2026-04-19T11:34:22.961Z</time></trkpt><trkpt lat="41.454215" lon="0.7413583"><ele>322.25</ele><time>2026-04-19T11:34:23.961Z</time></trkpt><trkpt lat="41.4542367" lon="0.7411817"><ele>321.5</ele><time>2026-04-19T11:34:24.961Z</time></trkpt><trkpt lat="41.4542567" lon="0.7410167"><ele>320.75</ele><time>2026-04-19T11:34:25.961Z</time></trkpt><trkpt lat="41.4542883" lon="0.7408583"><ele>320.0</ele><time>2026-04-19T11:34:26.961Z</time></trkpt><trkpt lat="41.4543483" lon="0.74071"><ele>319.5</ele><time>2026-04-19T11:34:27.961Z</time></trkpt><trkpt lat="41.4544433" lon="0.7405683"><ele>319.0</ele><time>2026-04-19T11:34:28.962Z</time></trkpt><trkpt lat="41.4545617" lon="0.7404967"><ele>318.5</ele><time>2026-04-19T11:34:29.962Z</time></trkpt><trkpt lat="41.4546917" lon="0.74047"><ele>318.0</ele><time>2026-04-19T11:34:30.961Z</time></trkpt><trkpt lat="41.4548333" lon="0.7405017"><ele>320.6666666666667</ele><time>2026-04-19T11:34:31.961Z</time></trkpt><trkpt lat="41.4549833" lon="0.74057"><ele>323.33333333333337</ele><time>2026-04-19T11:34:32.962Z</time></trkpt><trkpt lat="41.4551117" lon="0.7406867"><ele>326.0</ele><time>2026-04-19T11:34:33.962Z</time></trkpt><trkpt lat="41.4552283" lon="0.7408383"><ele>326.0</ele><time>2026-04-19T11:34:34.961Z</time></trkpt><trkpt lat="41.4553317" lon="0.7410033"><ele>326.0</ele><time>2026-04-19T11:34:35.962Z</time></trkpt><trkpt lat="41.4554383" lon="0.7411583"><ele>326.0</ele><time>2026-04-19T11:34:36.961Z</time></trkpt><trkpt lat="41.45555" lon="0.7413117"><ele>328.0</ele><time>2026-04-19T11:34:37.962Z</time></trkpt><trkpt lat="41.4556717" lon="0.74146"><ele>330.0</ele><time>2026-04-19T11:34:38.961Z</time></trkpt><trkpt lat="41.45578" lon="0.7416067"><ele>332.0</ele><time>2026-04-19T11:34:39.961Z</time></trkpt><trkpt lat="41.4558817" lon="0.7417417"><ele>334.6666666666667</ele><time>2026-04-19T11:34:40.962Z</time></trkpt><trkpt lat="41.4559867" lon="0.7418983"><ele>337.3333333333333</ele><time>2026-04-19T11:34:41.962Z</time></trkpt><trkpt lat="41.4560917" lon="0.742045"><ele>340.0</ele><time>2026-04-19T11:34:42.961Z</time></trkpt><trkpt lat="41.4561967" lon="0.7421933"><ele>339.0</ele><time>2026-04-19T11:34:43.961Z</time></trkpt><trkpt lat="41.4562967" lon="0.742335"><ele>338.0</ele><time>2026-04-19T11:34:44.962Z</time></trkpt><trkpt lat="41.4564067" lon="0.7424783"><ele>337.0</ele><time>2026-04-19T11:34:45.961Z</time></trkpt><trkpt lat="41.4565067" lon="0.742625"><ele>336.0</ele><time>2026-04-19T11:34:46.962Z</time></trkpt><trkpt lat="41.456605" lon="0.7427717"><ele>336.0</ele><time>2026-04-19T11:34:47.961Z</time></trkpt><trkpt lat="41.45669" lon="0.7429183"><ele>336.0</ele><time>2026-04-19T11:34:48.962Z</time></trkpt><trkpt lat="41.4567833" lon="0.743065"><ele>336.0</ele><time>2026-04-19T11:34:49.961Z</time></trkpt><trkpt lat="41.45688" lon="0.7432017"><ele>336.0</ele><time>2026-04-19T11:34:50.961Z</time></trkpt><trkpt lat="41.4569783" lon="0.743335"><ele>336.0</ele><time>2026-04-19T11:34:51.961Z</time></trkpt><trkpt lat="41.4570767" lon="0.7434633"><ele>336.0</ele><time>2026-04-19T11:34:52.962Z</time></trkpt><trkpt lat="41.45717" lon="0.7435883"><ele>336.0</ele><time>2026-04-19T11:34:53.961Z</time></trkpt><trkpt lat="41.4572667" lon="0.74371"><ele>336.0</ele><time>2026-04-19T11:34:54.961Z</time></trkpt><trkpt lat="41.45736" lon="0.7438367"><ele>337.5</ele><time>2026-04-19T11:34:55.962Z</time></trkpt><trkpt lat="41.4574467" lon="0.743955"><ele>339.0</ele><time>2026-04-19T11:34:56.962Z</time></trkpt><trkpt lat="41.457535" lon="0.74408"><ele>340.5</ele><time>2026-04-19T11:34:57.961Z</time></trkpt><trkpt lat="41.4576233" lon="0.7442083"><ele>342.0</ele><time>2026-04-19T11:34:58.961Z</time></trkpt><trkpt lat="41.457715" lon="0.744335"><ele>343.5</ele><time>2026-04-19T11:34:59.962Z</time></trkpt><trkpt lat="41.45781" lon="0.7444617"><ele>345.0</ele><time>2026-04-19T11:35:00.962Z</time></trkpt><trkpt lat="41.457905" lon="0.7445783"><ele>346.5</ele><time>2026-04-19T11:35:01.962Z</time></trkpt><trkpt lat="41.4580083" lon="0.7446933"><ele>348.0</ele><time>2026-04-19T11:35:02.961Z</time></trkpt><trkpt lat="41.45811" lon="0.7448283"><ele>348.0</ele><time>2026-04-19T11:35:03.962Z</time></trkpt><trkpt lat="41.4582033" lon="0.7449533"><ele>348.0</ele><time>2026-04-19T11:35:04.961Z</time></trkpt><trkpt lat="41.4583" lon="0.7450633"><ele>348.0</ele><time>2026-04-19T11:35:05.962Z</time></trkpt><trkpt lat="41.4583867" lon="0.7451767"><ele>348.0</ele><time>2026-04-19T11:35:06.961Z</time></trkpt><trkpt lat="41.45848" lon="0.7452917"><ele>348.5</ele><time>2026-04-19T11:35:07.962Z</time></trkpt><trkpt lat="41.45857" lon="0.7454083"><ele>349.0</ele><time>2026-04-19T11:35:08.961Z</time></trkpt><trkpt lat="41.4586517" lon="0.745525"><ele>349.5</ele><time>2026-04-19T11:35:09.961Z</time></trkpt><trkpt lat="41.4587517" lon="0.7456283"><ele>350.0</ele><time>2026-04-19T11:35:10.962Z</time></trkpt><trkpt lat="41.4588567" lon="0.74571"><ele>350.0</ele><time>2026-04-19T11:35:11.962Z</time></trkpt><trkpt lat="41.4589683" lon="0.7457833"><ele>350.0</ele><time>2026-04-19T11:35:12.962Z</time></trkpt><trkpt lat="41.4590967" lon="0.745855"><ele>350.0</ele><time>2026-04-19T11:35:13.962Z</time></trkpt><trkpt lat="41.459225" lon="0.7459167"><ele>350.0</ele><time>2026-04-19T11:35:14.961Z</time></trkpt><trkpt lat="41.4593617" lon="0.7459667"><ele>350.0</ele><time>2026-04-19T11:35:15.961Z</time></trkpt><trkpt lat="41.4595033" lon="0.746005"><ele>350.0</ele><time>2026-04-19T11:35:16.962Z</time></trkpt><trkpt lat="41.459645" lon="0.7460267"><ele>350.0</ele><time>2026-04-19T11:35:17.961Z</time></trkpt><trkpt lat="41.4597917" lon="0.7460383"><ele>350.0</ele><time>2026-04-19T11:35:18.961Z</time></trkpt><trkpt lat="41.4599167" lon="0.746035"><ele>351.0</ele><time>2026-04-19T11:35:19.962Z</time></trkpt><trkpt lat="41.4600317" lon="0.7460217"><ele>352.0</ele><time>2026-04-19T11:35:20.962Z</time></trkpt><trkpt lat="41.4601717" lon="0.745985"><ele>353.0</ele><time>2026-04-19T11:35:21.962Z</time></trkpt><trkpt lat="41.460315" lon="0.7459317"><ele>354.0</ele><time>2026-04-19T11:35:22.961Z</time></trkpt><trkpt lat="41.460445" lon="0.745865"><ele>357.25</ele><time>2026-04-19T11:35:23.961Z</time></trkpt><trkpt lat="41.460565" lon="0.7457783"><ele>360.5</ele><time>2026-04-19T11:35:24.961Z</time></trkpt><trkpt lat="41.4606833" lon="0.7456867"><ele>363.75</ele><time>2026-04-19T11:35:25.962Z</time></trkpt><trkpt lat="41.460795" lon="0.745595"><ele>367.0</ele><time>2026-04-19T11:35:26.961Z</time></trkpt><trkpt lat="41.4608983" lon="0.74549"><ele>367.0</ele><time>2026-04-19T11:35:27.962Z</time></trkpt><trkpt lat="41.461" lon="0.7453733"><ele>367.0</ele><time>2026-04-19T11:35:28.962Z</time></trkpt><trkpt lat="41.4610917" lon="0.7452517"><ele>367.0</ele><time>2026-04-19T11:35:29.961Z</time></trkpt><trkpt lat="41.4611833" lon="0.7451267"><ele>367.0</ele><time>2026-04-19T11:35:30.962Z</time></trkpt><trkpt lat="41.4612767" lon="0.7449967"><ele>370.0</ele><time>2026-04-19T11:35:31.961Z</time></trkpt><trkpt lat="41.461395" lon="0.7448667"><ele>373.0</ele><time>2026-04-19T11:35:32.961Z</time></trkpt><trkpt lat="41.4615" lon="0.7447417"><ele>376.0</ele><time>2026-04-19T11:35:33.961Z</time></trkpt><trkpt lat="41.4616183" lon="0.7446183"><ele>379.0</ele><time>2026-04-19T11:35:34.961Z</time></trkpt><trkpt lat="41.4617383" lon="0.7445067"><ele>379.0</ele><time>2026-04-19T11:35:35.962Z</time></trkpt><trkpt lat="41.4618717" lon="0.7444183"><ele>379.0</ele><time>2026-04-19T11:35:36.962Z</time></trkpt><trkpt lat="41.4620083" lon="0.7443467"><ele>379.0</ele><time>2026-04-19T11:35:37.961Z</time></trkpt><trkpt lat="41.4621433" lon="0.74429"><ele>379.0</ele><time>2026-04-19T11:35:38.962Z</time></trkpt><trkpt lat="41.4622883" lon="0.7442367"><ele>377.0</ele><time>2026-04-19T11:35:39.961Z</time></trkpt><trkpt lat="41.4624383" lon="0.7442083"><ele>375.0</ele><time>2026-04-19T11:35:40.962Z</time></trkpt><trkpt lat="41.46259" lon="0.7442017"><ele>373.0</ele><time>2026-04-19T11:35:41.961Z</time></trkpt><trkpt lat="41.4627533" lon="0.7442"><ele>373.0</ele><time>2026-04-19T11:35:42.962Z</time></trkpt><trkpt lat="41.4628983" lon="0.7442367"><ele>373.0</ele><time>2026-04-19T11:35:43.961Z</time></trkpt><trkpt lat="41.4630233" lon="0.744275"><ele>373.0</ele><time>2026-04-19T11:35:44.962Z</time></trkpt><trkpt lat="41.4631417" lon="0.7443333"><ele>373.0</ele><time>2026-04-19T11:35:45.961Z</time></trkpt><trkpt lat="41.4632683" lon="0.74441"><ele>376.0</ele><time>2026-04-19T11:35:46.961Z</time></trkpt><trkpt lat="41.46339" lon="0.7444917"><ele>379.0</ele><time>2026-04-19T11:35:47.961Z</time></trkpt><trkpt lat="41.46352" lon="0.7445767"><ele>382.0</ele><time>2026-04-19T11:35:48.962Z</time></trkpt><trkpt lat="41.4636617" lon="0.7446517"><ele>385.0</ele><time>2026-04-19T11:35:49.961Z</time></trkpt><trkpt lat="41.4637983" lon="0.7447267"><ele>386.75</ele><time>2026-04-19T11:35:50.961Z</time></trkpt><trkpt lat="41.46394" lon="0.74479"><ele>388.5</ele><time>2026-04-19T11:35:51.962Z</time></trkpt><trkpt lat="41.46408" lon="0.7448483"><ele>390.25</ele><time>2026-04-19T11:35:52.961Z</time></trkpt><trkpt lat="41.4642233" lon="0.7449"><ele>392.0</ele><time>2026-04-19T11:35:53.961Z</time></trkpt><trkpt lat="41.4643433" lon="0.7449433"><ele>392.0</ele><time>2026-04-19T11:35:54.961Z</time></trkpt><trkpt lat="41.464485" lon="0.7449683"><ele>392.0</ele><time>2026-04-19T11:35:55.962Z</time></trkpt><trkpt lat="41.464625" lon="0.7449733"><ele>392.0</ele><time>2026-04-19T11:35:56.962Z</time></trkpt><trkpt lat="41.4647833" lon="0.744945"><ele>392.0</ele><time>2026-04-19T11:35:57.961Z</time></trkpt><trkpt lat="41.4649433" lon="0.7448883"><ele>394.66666666666663</ele><time>2026-04-19T11:35:58.961Z</time></trkpt><trkpt lat="41.4650933" lon="0.74483"><ele>397.33333333333337</ele><time>2026-04-19T11:35:59.961Z</time></trkpt><trkpt lat="41.465245" lon="0.7447617"><ele>400.0</ele><time>2026-04-19T11:36:00.961Z</time></trkpt><trkpt lat="41.4653767" lon="0.74468"><ele>400.33333333333337</ele><time>2026-04-19T11:36:01.962Z</time></trkpt><trkpt lat="41.465505" lon="0.7445867"><ele>400.66666666666663</ele><time>2026-04-19T11:36:02.962Z</time></trkpt><trkpt lat="41.4656383" lon="0.7444583"><ele>401.0</ele><time>2026-04-19T11:36:03.961Z</time></trkpt><trkpt lat="41.46575" lon="0.744285"><ele>401.0</ele><time>2026-04-19T11:36:04.962Z</time></trkpt><trkpt lat="41.4658583" lon="0.7441283"><ele>401.0</ele><time>2026-04-19T11:36:05.962Z</time></trkpt><trkpt lat="41.46596" lon="0.7439683"><ele>401.0</ele><time>2026-04-19T11:36:06.962Z</time></trkpt><trkpt lat="41.4660467" lon="0.74381"><ele>401.0</ele><time>2026-04-19T11:36:07.962Z</time></trkpt><trkpt lat="41.4661067" lon="0.7436433"><ele>401.0</ele><time>2026-04-19T11:36:08.962Z</time></trkpt><trkpt lat="41.46617" lon="0.7434667"><ele>401.0</ele><time>2026-04-19T11:36:09.961Z</time></trkpt><trkpt lat="41.4662233" lon="0.7432833"><ele>401.0</ele><time>2026-04-19T11:36:10.961Z</time></trkpt><trkpt lat="41.4662833" lon="0.7430983"><ele>400.75</ele><time>2026-04-19T11:36:11.962Z</time></trkpt><trkpt lat="41.4663283" lon="0.7429217"><ele>400.5</ele><time>2026-04-19T11:36:12.961Z</time></trkpt><trkpt lat="41.4663867" lon="0.7427533"><ele>400.25</ele><time>2026-04-19T11:36:13.962Z</time></trkpt><trkpt lat="41.46645" lon="0.7425833"><ele>400.0</ele><time>2026-04-19T11:36:14.961Z</time></trkpt><trkpt lat="41.46653" lon="0.742415"><ele>400.6666666666667</ele><time>2026-04-19T11:36:15.961Z</time></trkpt><trkpt lat="41.466625" lon="0.7422483"><ele>401.33333333333337</ele><time>2026-04-19T11:36:16.961Z</time></trkpt><trkpt lat="41.4667217" lon="0.7421017"><ele>402.0</ele><time>2026-04-19T11:36:17.961Z</time></trkpt><trkpt lat="41.4668283" lon="0.7419633"><ele>401.75</ele><time>2026-04-19T11:36:18.961Z</time></trkpt><trkpt lat="41.46694" lon="0.74184"><ele>401.5</ele><time>2026-04-19T11:36:19.962Z</time></trkpt><trkpt lat="41.4670683" lon="0.741735"><ele>401.25</ele><time>2026-04-19T11:36:20.962Z</time></trkpt><trkpt lat="41.4672033" lon="0.7416433"><ele>401.0</ele><time>2026-04-19T11:36:21.962Z</time></trkpt><trkpt lat="41.4673433" lon="0.7415717"><ele>398.66666666666663</ele><time>2026-04-19T11:36:22.962Z</time></trkpt><trkpt lat="41.4674833" lon="0.7415167"><ele>396.33333333333337</ele><time>2026-04-19T11:36:23.962Z</time></trkpt><trkpt lat="41.4676433" lon="0.7414783"><ele>394.0</ele><time>2026-04-19T11:36:24.961Z</time></trkpt><trkpt lat="41.4678" lon="0.74146"><ele>392.0</ele><time>2026-04-19T11:36:25.962Z</time></trkpt><trkpt lat="41.4679717" lon="0.74145"><ele>390.0</ele><time>2026-04-19T11:36:26.961Z</time></trkpt><trkpt lat="41.468135" lon="0.741465"><ele>388.0</ele><time>2026-04-19T11:36:27.962Z</time></trkpt><trkpt lat="41.4683" lon="0.7414883"><ele>388.0</ele><time>2026-04-19T11:36:28.962Z</time></trkpt><trkpt lat="41.4684567" lon="0.7415217"><ele>388.0</ele><time>2026-04-19T11:36:29.961Z</time></trkpt><trkpt lat="41.4685833" lon="0.741605"><ele>388.0</ele><time>2026-04-19T11:36:30.961Z</time></trkpt><trkpt lat="41.4687267" lon="0.7417067"><ele>386.6666666666667</ele><time>2026-04-19T11:36:31.961Z</time></trkpt><trkpt lat="41.4688567" lon="0.7418067"><ele>385.33333333333337</ele><time>2026-04-19T11:36:32.961Z</time></trkpt><trkpt lat="41.4689983" lon="0.7419033"><ele>384.0</ele><time>2026-04-19T11:36:33.961Z</time></trkpt><trkpt lat="41.4691317" lon="0.742005"><ele>382.25</ele><time>2026-04-19T11:36:34.961Z</time></trkpt><trkpt lat="41.4692633" lon="0.7420867"><ele>380.5</ele><time>2026-04-19T11:36:35.961Z</time></trkpt><trkpt lat="41.4693933" lon="0.742175"><ele>378.75</ele><time>2026-04-19T11:36:36.962Z</time></trkpt><trkpt lat="41.46953" lon="0.7422367"><ele>377.0</ele><time>2026-04-19T11:36:37.961Z</time></trkpt><trkpt lat="41.4696783" lon="0.7422833"><ele>375.6666666666667</ele><time>2026-04-19T11:36:38.961Z</time></trkpt><trkpt lat="41.4698367" lon="0.7423117"><ele>374.3333333333333</ele><time>2026-04-19T11:36:39.961Z</time></trkpt><trkpt lat="41.4700067" lon="0.7423233"><ele>373.0</ele><time>2026-04-19T11:36:40.962Z</time></trkpt><trkpt lat="41.4701717" lon="0.7423167"><ele>373.0</ele><time>2026-04-19T11:36:41.962Z</time></trkpt><trkpt lat="41.4703333" lon="0.7423017"><ele>373.0</ele><time>2026-04-19T11:36:42.961Z</time></trkpt><trkpt lat="41.4704967" lon="0.7422683"><ele>373.0</ele><time>2026-04-19T11:36:43.961Z</time></trkpt><trkpt lat="41.47065" lon="0.7422117"><ele>371.66666666666663</ele><time>2026-04-19T11:36:44.962Z</time></trkpt><trkpt lat="41.4708017" lon="0.7421367"><ele>370.3333333333333</ele><time>2026-04-19T11:36:45.961Z</time></trkpt><trkpt lat="41.4709533" lon="0.7420433"><ele>369.0</ele><time>2026-04-19T11:36:46.961Z</time></trkpt><trkpt lat="41.4710917" lon="0.741945"><ele>369.0</ele><time>2026-04-19T11:36:47.961Z</time></trkpt><trkpt lat="41.4712267" lon="0.7418383"><ele>369.0</ele><time>2026-04-19T11:36:48.962Z</time></trkpt><trkpt lat="41.4713567" lon="0.7417333"><ele>369.0</ele><time>2026-04-19T11:36:49.962Z</time></trkpt><trkpt lat="41.4714883" lon="0.7416317"><ele>367.3333333333333</ele><time>2026-04-19T11:36:50.961Z</time></trkpt><trkpt lat="41.47163" lon="0.741535"><ele>365.66666666666663</ele><time>2026-04-19T11:36:51.961Z</time></trkpt><trkpt lat="41.4717833" lon="0.7414267"><ele>364.0</ele><time>2026-04-19T11:36:52.961Z</time></trkpt><trkpt lat="41.4719417" lon="0.741315"><ele>364.0</ele><time>2026-04-19T11:36:53.961Z</time></trkpt><trkpt lat="41.4720967" lon="0.7412117"><ele>364.0</ele><time>2026-04-19T11:36:54.961Z</time></trkpt><trkpt lat="41.4722617" lon="0.74109"><ele>364.0</ele><time>2026-04-19T11:36:55.961Z</time></trkpt><trkpt lat="41.472415" lon="0.7409767"><ele>363.66666666666663</ele><time>2026-04-19T11:36:56.961Z</time></trkpt><trkpt lat="41.4725783" lon="0.7408617"><ele>363.3333333333333</ele><time>2026-04-19T11:36:57.961Z</time></trkpt><trkpt lat="41.472735" lon="0.740755"><ele>363.0</ele><time>2026-04-19T11:36:58.961Z</time></trkpt><trkpt lat="41.4729033" lon="0.74064"><ele>361.3333333333333</ele><time>2026-04-19T11:36:59.962Z</time></trkpt><trkpt lat="41.47307" lon="0.7405133"><ele>359.66666666666663</ele><time>2026-04-19T11:37:00.961Z</time></trkpt><trkpt lat="41.47324" lon="0.7403933"><ele>358.0</ele><time>2026-04-19T11:37:01.961Z</time></trkpt><trkpt lat="41.4734133" lon="0.7402683"><ele>358.66666666666663</ele><time>2026-04-19T11:37:02.962Z</time></trkpt><trkpt lat="41.47357" lon="0.74015"><ele>359.3333333333333</ele><time>2026-04-19T11:37:03.961Z</time></trkpt><trkpt lat="41.47374" lon="0.7399783"><ele>360.0</ele><time>2026-04-19T11:37:04.961Z</time></trkpt><trkpt lat="41.473885" lon="0.7397967"><ele>358.6666666666667</ele><time>2026-04-19T11:37:05.961Z</time></trkpt><trkpt lat="41.4740367" lon="0.7396"><ele>357.33333333333337</ele><time>2026-04-19T11:37:06.961Z</time></trkpt><trkpt lat="41.4741867" lon="0.7393967"><ele>356.0</ele><time>2026-04-19T11:37:07.961Z</time></trkpt><trkpt lat="41.4743333" lon="0.7392017"><ele>356.0</ele><time>2026-04-19T11:37:08.961Z</time></trkpt><trkpt lat="41.474475" lon="0.7390133"><ele>356.0</ele><time>2026-04-19T11:37:09.962Z</time></trkpt><trkpt lat="41.4746167" lon="0.7388267"><ele>356.0</ele><time>2026-04-19T11:37:10.962Z</time></trkpt><trkpt lat="41.4747683" lon="0.7386433"><ele>354.6666666666667</ele><time>2026-04-19T11:37:11.961Z</time></trkpt><trkpt lat="41.47494" lon="0.7384833"><ele>353.3333333333333</ele><time>2026-04-19T11:37:12.962Z</time></trkpt><trkpt lat="41.4751167" lon="0.7383467"><ele>352.0</ele><time>2026-04-19T11:37:13.961Z</time></trkpt><trkpt lat="41.47531" lon="0.7382167"><ele>349.0</ele><time>2026-04-19T11:37:14.961Z</time></trkpt><trkpt lat="41.4754933" lon="0.7381017"><ele>346.0</ele><time>2026-04-19T11:37:15.961Z</time></trkpt><trkpt lat="41.475685" lon="0.737985"><ele>343.0</ele><time>2026-04-19T11:37:16.962Z</time></trkpt><trkpt lat="41.47586" lon="0.7378633"><ele>343.0</ele><time>2026-04-19T11:37:17.962Z</time></trkpt><trkpt lat="41.4760267" lon="0.737745"><ele>343.0</ele><time>2026-04-19T11:37:18.961Z</time></trkpt><trkpt lat="41.4761967" lon="0.737615"><ele>343.0</ele><time>2026-04-19T11:37:19.961Z</time></trkpt><trkpt lat="41.47636" lon="0.7374733"><ele>343.3333333333333</ele><time>2026-04-19T11:37:20.961Z</time></trkpt><trkpt lat="41.476525" lon="0.7373267"><ele>343.6666666666667</ele><time>2026-04-19T11:37:21.961Z</time></trkpt><trkpt lat="41.4766783" lon="0.7371817"><ele>344.0</ele><time>2026-04-19T11:37:22.962Z</time></trkpt><trkpt lat="41.4768267" lon="0.7370133"><ele>341.33333333333337</ele><time>2026-04-19T11:37:23.961Z</time></trkpt><trkpt lat="41.476975" lon="0.736835"><ele>338.6666666666667</ele><time>2026-04-19T11:37:24.961Z</time></trkpt><trkpt lat="41.4771233" lon="0.736645"><ele>336.0</ele><time>2026-04-19T11:37:25.961Z</time></trkpt><trkpt lat="41.47727" lon="0.7364433"><ele>336.0</ele><time>2026-04-19T11:37:26.962Z</time></trkpt><trkpt lat="41.4774067" lon="0.7362367"><ele>336.0</ele><time>2026-04-19T11:37:27.961Z</time></trkpt><trkpt lat="41.4775383" lon="0.73603"><ele>336.0</ele><time>2026-04-19T11:37:28.961Z</time></trkpt><trkpt lat="41.4776783" lon="0.73582"><ele>334.6666666666667</ele><time>2026-04-19T11:37:29.962Z</time></trkpt><trkpt lat="41.4778117" lon="0.735605"><ele>333.33333333333337</ele><time>2026-04-19T11:37:30.962Z</time></trkpt><trkpt lat="41.4779467" lon="0.7354133"><ele>332.0</ele><time>2026-04-19T11:37:31.961Z</time></trkpt><trkpt lat="41.478085" lon="0.735235"><ele>335.0</ele><time>2026-04-19T11:37:32.962Z</time></trkpt><trkpt lat="41.478225" lon="0.7350583"><ele>338.0</ele><time>2026-04-19T11:37:33.962Z</time></trkpt><trkpt lat="41.4783883" lon="0.7349367"><ele>341.0</ele><time>2026-04-19T11:37:34.962Z</time></trkpt><trkpt lat="41.4785533" lon="0.73483"><ele>341.0</ele><time>2026-04-19T11:37:35.962Z</time></trkpt><trkpt lat="41.47873" lon="0.7347533"><ele>341.0</ele><time>2026-04-19T11:37:36.961Z</time></trkpt><trkpt lat="41.47892" lon="0.7347067"><ele>341.0</ele><time>2026-04-19T11:37:37.962Z</time></trkpt><trkpt lat="41.47911" lon="0.73469"><ele>337.6666666666667</ele><time>2026-04-19T11:37:38.962Z</time></trkpt><trkpt lat="41.4792967" lon="0.7346983"><ele>334.3333333333333</ele><time>2026-04-19T11:37:39.962Z</time></trkpt><trkpt lat="41.47948" lon="0.7347367"><ele>331.0</ele><time>2026-04-19T11:37:40.962Z</time></trkpt><trkpt lat="41.479665" lon="0.7347983"><ele>331.0</ele><time>2026-04-19T11:37:41.961Z</time></trkpt><trkpt lat="41.4798467" lon="0.7348817"><ele>331.0</ele><time>2026-04-19T11:37:42.961Z</time></trkpt><trkpt lat="41.480015" lon="0.7349917"><ele>331.0</ele><time>2026-04-19T11:37:43.962Z</time></trkpt><trkpt lat="41.4801867" lon="0.7351083"><ele>331.3333333333333</ele><time>2026-04-19T11:37:44.962Z</time></trkpt><trkpt lat="41.4803233" lon="0.7352583"><ele>331.6666666666667</ele><time>2026-04-19T11:37:45.962Z</time></trkpt><trkpt lat="41.48046" lon="0.73543"><ele>332.0</ele><time>2026-04-19T11:37:46.962Z</time></trkpt><trkpt lat="41.480585" lon="0.7356183"><ele>334.33333333333337</ele><time>2026-04-19T11:37:47.961Z</time></trkpt><trkpt lat="41.4806917" lon="0.735815"><ele>336.6666666666667</ele><time>2026-04-19T11:37:48.962Z</time></trkpt><trkpt lat="41.4807717" lon="0.7360383"><ele>339.0</ele><time>2026-04-19T11:37:49.961Z</time></trkpt><trkpt lat="41.4808483" lon="0.7362567"><ele>339.3333333333333</ele><time>2026-04-19T11:37:50.961Z</time></trkpt><trkpt lat="41.48092" lon="0.7364717"><ele>339.66666666666663</ele><time>2026-04-19T11:37:51.961Z</time></trkpt><trkpt lat="41.480995" lon="0.7366933"><ele>340.0</ele><time>2026-04-19T11:37:52.962Z</time></trkpt><trkpt lat="41.481065" lon="0.7369183"><ele>340.3333333333333</ele><time>2026-04-19T11:37:53.962Z</time></trkpt><trkpt lat="41.4811417" lon="0.7371417"><ele>340.6666666666667</ele><time>2026-04-19T11:37:54.961Z</time></trkpt><trkpt lat="41.48121" lon="0.7373567"><ele>341.0</ele><time>2026-04-19T11:37:55.962Z</time></trkpt><trkpt lat="41.4812967" lon="0.7375733"><ele>344.33333333333337</ele><time>2026-04-19T11:37:56.962Z</time></trkpt><trkpt lat="41.4813833" lon="0.73779"><ele>347.6666666666667</ele><time>2026-04-19T11:37:57.962Z</time></trkpt><trkpt lat="41.4814517" lon="0.7380017"><ele>351.0</ele><time>2026-04-19T11:37:58.962Z</time></trkpt><trkpt lat="41.48151" lon="0.73821"><ele>351.0</ele><time>2026-04-19T11:37:59.961Z</time></trkpt><trkpt lat="41.4815733" lon="0.7384133"><ele>351.0</ele><time>2026-04-19T11:38:00.961Z</time></trkpt><trkpt lat="41.4816417" lon="0.7386167"><ele>351.0</ele><time>2026-04-19T11:38:01.962Z</time></trkpt><trkpt lat="41.4817117" lon="0.73881"><ele>350.3333333333333</ele><time>2026-04-19T11:38:02.962Z</time></trkpt><trkpt lat="41.4817733" lon="0.7390033"><ele>349.66666666666663</ele><time>2026-04-19T11:38:03.962Z</time></trkpt><trkpt lat="41.48183" lon="0.7391933"><ele>349.0</ele><time>2026-04-19T11:38:04.962Z</time></trkpt><trkpt lat="41.481895" lon="0.7393817"><ele>350.3333333333333</ele><time>2026-04-19T11:38:05.962Z</time></trkpt><trkpt lat="41.4819683" lon="0.7395733"><ele>351.6666666666667</ele><time>2026-04-19T11:38:06.961Z</time></trkpt><trkpt lat="41.482035" lon="0.7397517"><ele>353.0</ele><time>2026-04-19T11:38:07.962Z</time></trkpt><trkpt lat="41.4820967" lon="0.739935"><ele>357.0</ele><time>2026-04-19T11:38:08.961Z</time></trkpt><trkpt lat="41.4821667" lon="0.740125"><ele>361.0</ele><time>2026-04-19T11:38:09.962Z</time></trkpt><trkpt lat="41.4822333" lon="0.74031"><ele>365.0</ele><time>2026-04-19T11:38:10.961Z</time></trkpt><trkpt lat="41.4822983" lon="0.7404983"><ele>365.0</ele><time>2026-04-19T11:38:11.962Z</time></trkpt><trkpt lat="41.4823683" lon="0.7406783"><ele>365.0</ele><time>2026-04-19T11:38:12.962Z</time></trkpt><trkpt lat="41.4824367" lon="0.7408583"><ele>365.0</ele><time>2026-04-19T11:38:13.961Z</time></trkpt><trkpt lat="41.4825033" lon="0.7410433"><ele>365.6666666666667</ele><time>2026-04-19T11:38:14.962Z</time></trkpt><trkpt lat="41.4825767" lon="0.7412217"><ele>366.3333333333333</ele><time>2026-04-19T11:38:15.962Z</time></trkpt><trkpt lat="41.482655" lon="0.7414"><ele>367.0</ele><time>2026-04-19T11:38:16.961Z</time></trkpt><trkpt lat="41.4827417" lon="0.7415733"><ele>367.0</ele><time>2026-04-19T11:38:17.961Z</time></trkpt><trkpt lat="41.4828467" lon="0.7417517"><ele>367.0</ele><time>2026-04-19T11:38:18.961Z</time></trkpt><trkpt lat="41.482955" lon="0.7419"><ele>367.0</ele><time>2026-04-19T11:38:19.961Z</time></trkpt><trkpt lat="41.4830683" lon="0.7420667"><ele>371.0</ele><time>2026-04-19T11:38:20.962Z</time></trkpt><trkpt lat="41.4831883" lon="0.7422133"><ele>375.0</ele><time>2026-04-19T11:38:21.962Z</time></trkpt><trkpt lat="41.4833217" lon="0.7423667"><ele>379.0</ele><time>2026-04-19T11:38:22.962Z</time></trkpt><trkpt lat="41.4834667" lon="0.7424967"><ele>379.0</ele><time>2026-04-19T11:38:23.961Z</time></trkpt><trkpt lat="41.483605" lon="0.7426167"><ele>379.0</ele><time>2026-04-19T11:38:24.962Z</time></trkpt><trkpt lat="41.483745" lon="0.7427233"><ele>379.0</ele><time>2026-04-19T11:38:25.962Z</time></trkpt><trkpt lat="41.4838983" lon="0.7428067"><ele>380.66666666666663</ele><time>2026-04-19T11:38:26.961Z</time></trkpt><trkpt lat="41.4840633" lon="0.742875"><ele>382.3333333333333</ele><time>2026-04-19T11:38:27.962Z</time></trkpt><trkpt lat="41.4842417" lon="0.7429217"><ele>384.0</ele><time>2026-04-19T11:38:28.961Z</time></trkpt><trkpt lat="41.4843983" lon="0.742965"><ele>384.0</ele><time>2026-04-19T11:38:29.961Z</time></trkpt><trkpt lat="41.4845883" lon="0.7429983"><ele>384.0</ele><time>2026-04-19T11:38:30.961Z</time></trkpt><trkpt lat="41.484765" lon="0.7430317"><ele>384.0</ele><time>2026-04-19T11:38:31.962Z</time></trkpt><trkpt lat="41.48493" lon="0.7430783"><ele>383.3333333333333</ele><time>2026-04-19T11:38:32.962Z</time></trkpt><trkpt lat="41.485105" lon="0.743125"><ele>382.66666666666663</ele><time>2026-04-19T11:38:33.962Z</time></trkpt><trkpt lat="41.4852767" lon="0.74317"><ele>382.0</ele><time>2026-04-19T11:38:34.961Z</time></trkpt><trkpt lat="41.48544" lon="0.7432183"><ele>381.3333333333333</ele><time>2026-04-19T11:38:35.962Z</time></trkpt><trkpt lat="41.4856117" lon="0.743265"><ele>380.6666666666667</ele><time>2026-04-19T11:38:36.961Z</time></trkpt><trkpt lat="41.4857967" lon="0.7433117"><ele>380.0</ele><time>2026-04-19T11:38:37.961Z</time></trkpt><trkpt lat="41.48598" lon="0.74336"><ele>380.0</ele><time>2026-04-19T11:38:38.961Z</time></trkpt><trkpt lat="41.4861667" lon="0.7434183"><ele>380.0</ele><time>2026-04-19T11:38:39.962Z</time></trkpt><trkpt lat="41.4863533" lon="0.7434767"><ele>380.0</ele><time>2026-04-19T11:38:40.962Z</time></trkpt><trkpt lat="41.4865333" lon="0.7435583"><ele>377.0</ele><time>2026-04-19T11:38:41.962Z</time></trkpt><trkpt lat="41.486705" lon="0.743675"><ele>374.0</ele><time>2026-04-19T11:38:42.962Z</time></trkpt><trkpt lat="41.4868783" lon="0.7438133"><ele>371.0</ele><time>2026-04-19T11:38:43.962Z</time></trkpt><trkpt lat="41.4870367" lon="0.743985"><ele>372.33333333333337</ele><time>2026-04-19T11:38:44.962Z</time></trkpt><trkpt lat="41.4871817" lon="0.7441767"><ele>373.6666666666667</ele><time>2026-04-19T11:38:45.961Z</time></trkpt><trkpt lat="41.4873267" lon="0.7443733"><ele>375.0</ele><time>2026-04-19T11:38:46.961Z</time></trkpt><trkpt lat="41.48746" lon="0.744575"><ele>372.3333333333333</ele><time>2026-04-19T11:38:47.961Z</time></trkpt><trkpt lat="41.48761" lon="0.74477"><ele>369.66666666666663</ele><time>2026-04-19T11:38:48.962Z</time></trkpt><trkpt lat="41.48776" lon="0.744935"><ele>367.0</ele><time>2026-04-19T11:38:49.962Z</time></trkpt><trkpt lat="41.4879233" lon="0.7450817"><ele>364.3333333333333</ele><time>2026-04-19T11:38:50.962Z</time></trkpt><trkpt lat="41.4880933" lon="0.7452133"><ele>361.6666666666667</ele><time>2026-04-19T11:38:51.961Z</time></trkpt><trkpt lat="41.4882917" lon="0.7453217"><ele>359.0</ele><time>2026-04-19T11:38:52.961Z</time></trkpt><trkpt lat="41.4884783" lon="0.7454283"><ele>359.0</ele><time>2026-04-19T11:38:53.962Z</time></trkpt><trkpt lat="41.4886517" lon="0.7455483"><ele>359.0</ele><time>2026-04-19T11:38:54.962Z</time></trkpt><trkpt lat="41.4888217" lon="0.74569"><ele>359.0</ele><time>2026-04-19T11:38:55.962Z</time></trkpt><trkpt lat="41.4889883" lon="0.7458533"><ele>359.0</ele><time>2026-04-19T11:38:56.962Z</time></trkpt><trkpt lat="41.4891433" lon="0.74604"><ele>359.0</ele><time>2026-04-19T11:38:57.961Z</time></trkpt><trkpt lat="41.489275" lon="0.746255"><ele>359.0</ele><time>2026-04-19T11:38:58.961Z</time></trkpt><trkpt lat="41.489395" lon="0.7464767"><ele>356.6666666666667</ele><time>2026-04-19T11:38:59.962Z</time></trkpt><trkpt lat="41.489505" lon="0.7466967"><ele>354.3333333333333</ele><time>2026-04-19T11:39:00.961Z</time></trkpt><trkpt lat="41.4896067" lon="0.7469367"><ele>352.0</ele><time>2026-04-19T11:39:01.962Z</time></trkpt><trkpt lat="41.489715" lon="0.7471733"><ele>350.66666666666663</ele><time>2026-04-19T11:39:02.962Z</time></trkpt><trkpt lat="41.4898367" lon="0.7474017"><ele>349.3333333333333</ele><time>2026-04-19T11:39:03.962Z</time></trkpt><trkpt lat="41.489965" lon="0.7476133"><ele>348.0</ele><time>2026-04-19T11:39:04.962Z</time></trkpt><trkpt lat="41.4901" lon="0.7477917"><ele>346.6666666666667</ele><time>2026-04-19T11:39:05.961Z</time></trkpt><trkpt lat="41.490255" lon="0.7479683"><ele>345.33333333333337</ele><time>2026-04-19T11:39:06.961Z</time></trkpt><trkpt lat="41.4904133" lon="0.7481317"><ele>344.0</ele><time>2026-04-19T11:39:07.962Z</time></trkpt><trkpt lat="41.4905717" lon="0.748285"><ele>343.6666666666667</ele><time>2026-04-19T11:39:08.962Z</time></trkpt><trkpt lat="41.4907317" lon="0.7484517"><ele>343.3333333333333</ele><time>2026-04-19T11:39:09.962Z</time></trkpt><trkpt lat="41.4909017" lon="0.7486233"><ele>343.0</ele><time>2026-04-19T11:39:10.961Z</time></trkpt><trkpt lat="41.4910717" lon="0.7487833"><ele>342.66666666666663</ele><time>2026-04-19T11:39:11.962Z</time></trkpt><trkpt lat="41.4912433" lon="0.748945"><ele>342.3333333333333</ele><time>2026-04-19T11:39:12.961Z</time></trkpt><trkpt lat="41.4914117" lon="0.7491117"><ele>342.0</ele><time>2026-04-19T11:39:13.962Z</time></trkpt><trkpt lat="41.4915767" lon="0.749275"><ele>341.0</ele><time>2026-04-19T11:39:14.961Z</time></trkpt><trkpt lat="41.4917383" lon="0.7494483"><ele>340.0</ele><time>2026-04-19T11:39:15.962Z</time></trkpt><trkpt lat="41.4918933" lon="0.7496083"><ele>339.0</ele><time>2026-04-19T11:39:16.962Z</time></trkpt><trkpt lat="41.492045" lon="0.749785"><ele>338.6666666666667</ele><time>2026-04-19T11:39:17.962Z</time></trkpt><trkpt lat="41.492195" lon="0.7499533"><ele>338.33333333333337</ele><time>2026-04-19T11:39:18.961Z</time></trkpt><trkpt lat="41.4923367" lon="0.75014"><ele>338.0</ele><time>2026-04-19T11:39:19.961Z</time></trkpt><trkpt lat="41.492465" lon="0.7503267"><ele>336.33333333333337</ele><time>2026-04-19T11:39:20.961Z</time></trkpt><trkpt lat="41.4925883" lon="0.7505383"><ele>334.6666666666667</ele><time>2026-04-19T11:39:21.962Z</time></trkpt><trkpt lat="41.492675" lon="0.750755"><ele>333.0</ele><time>2026-04-19T11:39:22.962Z</time></trkpt><trkpt lat="41.4927683" lon="0.751005"><ele>332.0</ele><time>2026-04-19T11:39:23.962Z</time></trkpt><trkpt lat="41.4928383" lon="0.7512517"><ele>331.0</ele><time>2026-04-19T11:39:24.962Z</time></trkpt><trkpt lat="41.4929167" lon="0.751505"><ele>330.0</ele><time>2026-04-19T11:39:25.961Z</time></trkpt><trkpt lat="41.49299" lon="0.7517567"><ele>329.3333333333333</ele><time>2026-04-19T11:39:26.961Z</time></trkpt><trkpt lat="41.493065" lon="0.7520083"><ele>328.66666666666663</ele><time>2026-04-19T11:39:27.962Z</time></trkpt><trkpt lat="41.4931367" lon="0.752255"><ele>328.0</ele><time>2026-04-19T11:39:28.961Z</time></trkpt><trkpt lat="41.49321" lon="0.7524933"><ele>329.66666666666663</ele><time>2026-04-19T11:39:29.961Z</time></trkpt><trkpt lat="41.493295" lon="0.7527333"><ele>331.3333333333333</ele><time>2026-04-19T11:39:30.961Z</time></trkpt><trkpt lat="41.4933933" lon="0.7529683"><ele>333.0</ele><time>2026-04-19T11:39:31.961Z</time></trkpt><trkpt lat="41.4934983" lon="0.7532067"><ele>333.0</ele><time>2026-04-19T11:39:32.962Z</time></trkpt><trkpt lat="41.4936067" lon="0.753425"><ele>333.0</ele><time>2026-04-19T11:39:33.961Z</time></trkpt><trkpt lat="41.49372" lon="0.7536283"><ele>333.0</ele><time>2026-04-19T11:39:34.961Z</time></trkpt><trkpt lat="41.4938517" lon="0.753845"><ele>332.0</ele><time>2026-04-19T11:39:35.962Z</time></trkpt><trkpt lat="41.4939817" lon="0.7540733"><ele>331.0</ele><time>2026-04-19T11:39:36.962Z</time></trkpt><trkpt lat="41.4940983" lon="0.754275"><ele>330.0</ele><time>2026-04-19T11:39:37.962Z</time></trkpt><trkpt lat="41.494205" lon="0.75449"><ele>330.0</ele><time>2026-04-19T11:39:38.961Z</time></trkpt><trkpt lat="41.4943017" lon="0.754715"><ele>330.0</ele><time>2026-04-19T11:39:39.962Z</time></trkpt><trkpt lat="41.49439" lon="0.7549567"><ele>330.0</ele><time>2026-04-19T11:39:40.962Z</time></trkpt><trkpt lat="41.494465" lon="0.755215"><ele>331.0</ele><time>2026-04-19T11:39:41.962Z</time></trkpt><trkpt lat="41.4945267" lon="0.755465"><ele>332.0</ele><time>2026-04-19T11:39:42.962Z</time></trkpt><trkpt lat="41.49459" lon="0.7557067"><ele>333.0</ele><time>2026-04-19T11:39:43.961Z</time></trkpt><trkpt lat="41.4946483" lon="0.7559433"><ele>334.0</ele><time>2026-04-19T11:39:44.961Z</time></trkpt><trkpt lat="41.4947117" lon="0.7561833"><ele>335.0</ele><time>2026-04-19T11:39:45.961Z</time></trkpt><trkpt lat="41.4947617" lon="0.7564267"><ele>336.0</ele><time>2026-04-19T11:39:46.961Z</time></trkpt><trkpt lat="41.4948183" lon="0.756675"><ele>336.3333333333333</ele><time>2026-04-19T11:39:47.961Z</time></trkpt><trkpt lat="41.4948833" lon="0.75692"><ele>336.66666666666663</ele><time>2026-04-19T11:39:48.962Z</time></trkpt><trkpt lat="41.4949333" lon="0.7571567"><ele>337.0</ele><time>2026-04-19T11:39:49.961Z</time></trkpt><trkpt lat="41.4949967" lon="0.7574083"><ele>337.0</ele><time>2026-04-19T11:39:50.961Z</time></trkpt><trkpt lat="41.49506" lon="0.7576533"><ele>337.0</ele><time>2026-04-19T11:39:51.961Z</time></trkpt><trkpt lat="41.4951233" lon="0.7579067"><ele>337.0</ele><time>2026-04-19T11:39:52.961Z</time></trkpt><trkpt lat="41.4951767" lon="0.7581433"><ele>337.3333333333333</ele><time>2026-04-19T11:39:53.961Z</time></trkpt><trkpt lat="41.4952417" lon="0.7584"><ele>337.6666666666667</ele><time>2026-04-19T11:39:54.962Z</time></trkpt><trkpt lat="41.4953017" lon="0.758655"><ele>338.0</ele><time>2026-04-19T11:39:55.962Z</time></trkpt><trkpt lat="41.4953617" lon="0.7589067"><ele>339.33333333333337</ele><time>2026-04-19T11:39:56.961Z</time></trkpt><trkpt lat="41.4954283" lon="0.7591517"><ele>340.6666666666667</ele><time>2026-04-19T11:39:57.962Z</time></trkpt><trkpt lat="41.4954883" lon="0.7593883"><ele>342.0</ele><time>2026-04-19T11:39:58.961Z</time></trkpt><trkpt lat="41.495545" lon="0.7596133"><ele>342.0</ele><time>2026-04-19T11:39:59.962Z</time></trkpt><trkpt lat="41.4956033" lon="0.7598333"><ele>342.0</ele><time>2026-04-19T11:40:00.961Z</time></trkpt><trkpt lat="41.4956617" lon="0.7600483"><ele>342.0</ele><time>2026-04-19T11:40:01.961Z</time></trkpt><trkpt lat="41.4957083" lon="0.76025"><ele>342.0</ele><time>2026-04-19T11:40:02.961Z</time></trkpt><trkpt lat="41.4957517" lon="0.7604517"><ele>342.0</ele><time>2026-04-19T11:40:03.962Z</time></trkpt><trkpt lat="41.4957917" lon="0.760655"><ele>342.0</ele><time>2026-04-19T11:40:04.961Z</time></trkpt><trkpt lat="41.4958383" lon="0.76086"><ele>342.6666666666667</ele><time>2026-04-19T11:40:05.961Z</time></trkpt><trkpt lat="41.4958883" lon="0.7610617"><ele>343.33333333333337</ele><time>2026-04-19T11:40:06.961Z</time></trkpt><trkpt lat="41.4959417" lon="0.7612583"><ele>344.0</ele><time>2026-04-19T11:40:07.961Z</time></trkpt><trkpt lat="41.49599" lon="0.7614483"><ele>344.0</ele><time>2026-04-19T11:40:08.961Z</time></trkpt><trkpt lat="41.4960317" lon="0.7616333"><ele>344.0</ele><time>2026-04-19T11:40:09.961Z</time></trkpt><trkpt lat="41.4960667" lon="0.7618017"><ele>344.0</ele><time>2026-04-19T11:40:10.961Z</time></trkpt><trkpt lat="41.496105" lon="0.76198"><ele>344.0</ele><time>2026-04-19T11:40:11.962Z</time></trkpt><trkpt lat="41.496145" lon="0.76215"><ele>343.79999999999995</ele><time>2026-04-19T11:40:12.962Z</time></trkpt><trkpt lat="41.496175" lon="0.7623"><ele>343.59999999999997</ele><time>2026-04-19T11:40:13.962Z</time></trkpt><trkpt lat="41.4962083" lon="0.7624533"><ele>343.4</ele><time>2026-04-19T11:40:14.962Z</time></trkpt><trkpt lat="41.49624" lon="0.7625917"><ele>343.2</ele><time>2026-04-19T11:40:15.962Z</time></trkpt><trkpt lat="41.4962733" lon="0.762715"><ele>343.0</ele><time>2026-04-19T11:40:16.961Z</time></trkpt><trkpt lat="41.4963117" lon="0.7628483"><ele>344.59999999999997</ele><time>2026-04-19T11:40:17.961Z</time></trkpt><trkpt lat="41.4963433" lon="0.7629717"><ele>346.2</ele><time>2026-04-19T11:40:18.962Z</time></trkpt><trkpt lat="41.4963767" lon="0.7631033"><ele>347.8</ele><time>2026-04-19T11:40:19.962Z</time></trkpt><trkpt lat="41.4964083" lon="0.7632233"><ele>349.4</ele><time>2026-04-19T11:40:20.962Z</time></trkpt><trkpt lat="41.4964433" lon="0.7633433"><ele>351.0</ele><time>2026-04-19T11:40:21.962Z</time></trkpt><trkpt lat="41.4964833" lon="0.76346"><ele>351.0</ele><time>2026-04-19T11:40:22.961Z</time></trkpt><trkpt lat="41.49652" lon="0.7635717"><ele>351.0</ele><time>2026-04-19T11:40:23.962Z</time></trkpt><trkpt lat="41.4965583" lon="0.7636817"><ele>351.0</ele><time>2026-04-19T11:40:24.962Z</time></trkpt><trkpt lat="41.4965967" lon="0.7637783"><ele>351.0</ele><time>2026-04-19T11:40:25.961Z</time></trkpt><trkpt lat="41.496645" lon="0.7638717"><ele>351.0</ele><time>2026-04-19T11:40:26.962Z</time></trkpt><trkpt lat="41.4967017" lon="0.7639667"><ele>351.0</ele><time>2026-04-19T11:40:27.962Z</time></trkpt><trkpt lat="41.4967633" lon="0.7640683"><ele>351.0</ele><time>2026-04-19T11:40:28.962Z</time></trkpt><trkpt lat="41.496825" lon="0.76417"><ele>351.0</ele><time>2026-04-19T11:40:29.962Z</time></trkpt><trkpt lat="41.4968883" lon="0.76426"><ele>351.0</ele><time>2026-04-19T11:40:30.961Z</time></trkpt><trkpt lat="41.4969483" lon="0.7643567"><ele>351.0</ele><time>2026-04-19T11:40:31.962Z</time></trkpt><trkpt lat="41.4970033" lon="0.76444"><ele>351.0</ele><time>2026-04-19T11:40:32.961Z</time></trkpt><trkpt lat="41.49706" lon="0.76452"><ele>351.3333333333333</ele><time>2026-04-19T11:40:33.962Z</time></trkpt><trkpt lat="41.497115" lon="0.7646133"><ele>351.6666666666667</ele><time>2026-04-19T11:40:34.961Z</time></trkpt><trkpt lat="41.497165" lon="0.764695"><ele>352.0</ele><time>2026-04-19T11:40:35.962Z</time></trkpt><trkpt lat="41.497225" lon="0.7647767"><ele>352.33333333333337</ele><time>2026-04-19T11:40:36.962Z</time></trkpt><trkpt lat="41.4972717" lon="0.7648717"><ele>352.6666666666667</ele><time>2026-04-19T11:40:37.961Z</time></trkpt><trkpt lat="41.49734" lon="0.764945"><ele>353.0</ele><time>2026-04-19T11:40:38.962Z</time></trkpt><trkpt lat="41.49741" lon="0.76501"><ele>353.0</ele><time>2026-04-19T11:40:39.961Z</time></trkpt><trkpt lat="41.4974867" lon="0.7650583"><ele>353.0</ele><time>2026-04-19T11:40:40.962Z</time></trkpt><trkpt lat="41.4975667" lon="0.7651067"><ele>353.0</ele><time>2026-04-19T11:40:41.962Z</time></trkpt><trkpt lat="41.497635" lon="0.7651383"><ele>353.0</ele><time>2026-04-19T11:40:42.962Z</time></trkpt><trkpt lat="41.4977067" lon="0.7651617"><ele>353.0</ele><time>2026-04-19T11:40:43.961Z</time></trkpt><trkpt lat="41.497775" lon="0.7651867"><ele>353.0</ele><time>2026-04-19T11:40:44.962Z</time></trkpt><trkpt lat="41.49784" lon="0.76522"><ele>353.59999999999997</ele><time>2026-04-19T11:40:45.961Z</time></trkpt><trkpt lat="41.4979383" lon="0.7652717"><ele>354.2</ele><time>2026-04-19T11:40:47.961Z</time></trkpt><trkpt lat="41.4980233" lon="0.76534"><ele>354.8</ele><time>2026-04-19T11:40:49.962Z</time></trkpt><trkpt lat="41.4981067" lon="0.7654917"><ele>355.4</ele><time>2026-04-19T11:40:51.961Z</time></trkpt><trkpt lat="41.498145" lon="0.7655833"><ele>356.0</ele><time>2026-04-19T11:40:52.962Z</time></trkpt><trkpt lat="41.4981933" lon="0.765685"><ele>356.0</ele><time>2026-04-19T11:40:53.962Z</time></trkpt><trkpt lat="41.498235" lon="0.76579"><ele>356.0</ele><time>2026-04-19T11:40:54.961Z</time></trkpt><trkpt lat="41.498285" lon="0.7659133"><ele>356.0</ele><time>2026-04-19T11:40:55.961Z</time></trkpt><trkpt lat="41.498335" lon="0.76604"><ele>356.0</ele><time>2026-04-19T11:40:56.961Z</time></trkpt><trkpt lat="41.4983733" lon="0.76617"><ele>356.0</ele><time>2026-04-19T11:40:57.961Z</time></trkpt><trkpt lat="41.4984217" lon="0.7663083"><ele>356.20000000000005</ele><time>2026-04-19T11:40:58.961Z</time></trkpt><trkpt lat="41.4984667" lon="0.7664417"><ele>356.40000000000003</ele><time>2026-04-19T11:40:59.962Z</time></trkpt><trkpt lat="41.4985117" lon="0.7665767"><ele>356.6</ele><time>2026-04-19T11:41:00.962Z</time></trkpt><trkpt lat="41.49855" lon="0.7667067"><ele>356.8</ele><time>2026-04-19T11:41:01.961Z</time></trkpt><trkpt lat="41.498595" lon="0.7668383"><ele>357.0</ele><time>2026-04-19T11:41:02.961Z</time></trkpt><trkpt lat="41.49864" lon="0.7669783"><ele>357.0</ele><time>2026-04-19T11:41:03.962Z</time></trkpt><trkpt lat="41.4986733" lon="0.7671233"><ele>357.0</ele><time>2026-04-19T11:41:04.962Z</time></trkpt><trkpt lat="41.4986967" lon="0.7672683"><ele>357.0</ele><time>2026-04-19T11:41:05.961Z</time></trkpt><trkpt lat="41.4987233" lon="0.76741"><ele>357.0</ele><time>2026-04-19T11:41:06.962Z</time></trkpt><trkpt lat="41.4987467" lon="0.7675517"><ele>357.0</ele><time>2026-04-19T11:41:07.962Z</time></trkpt><trkpt lat="41.4987767" lon="0.76769"><ele>355.8333333333333</ele><time>2026-04-19T11:41:08.962Z</time></trkpt><trkpt lat="41.498805" lon="0.7678333"><ele>354.6666666666667</ele><time>2026-04-19T11:41:09.962Z</time></trkpt><trkpt lat="41.4988217" lon="0.7679667"><ele>353.5</ele><time>2026-04-19T11:41:10.961Z</time></trkpt><trkpt lat="41.4988367" lon="0.7680833"><ele>352.33333333333337</ele><time>2026-04-19T11:41:11.961Z</time></trkpt><trkpt lat="41.49885" lon="0.768185"><ele>351.1666666666667</ele><time>2026-04-19T11:41:12.961Z</time></trkpt><trkpt lat="41.4988533" lon="0.7682783"><ele>350.0</ele><time>2026-04-19T11:41:13.962Z</time></trkpt><trkpt lat="41.49883" lon="0.7684133"><ele>350.0</ele><time>2026-04-19T11:41:15.962Z</time></trkpt><trkpt lat="41.49888" lon="0.7685167"><ele>350.0</ele><time>2026-04-19T11:42:44.962Z</time></trkpt><trkpt lat="41.49889" lon="0.76862"><ele>350.0</ele><time>2026-04-19T11:42:45.962Z</time></trkpt><trkpt lat="41.4988967" lon="0.7687683"><ele>350.0</ele><time>2026-04-19T11:42:46.962Z</time></trkpt><trkpt lat="41.4989183" lon="0.7689333"><ele>350.0</ele><time>2026-04-19T11:42:47.961Z</time></trkpt><trkpt lat="41.4989417" lon="0.7691117"><ele>349.5</ele><time>2026-04-19T11:42:48.962Z</time></trkpt><trkpt lat="41.49897" lon="0.7692767"><ele>349.0</ele><time>2026-04-19T11:42:49.961Z</time></trkpt><trkpt lat="41.4990017" lon="0.769445"><ele>348.5</ele><time>2026-04-19T11:42:50.962Z</time></trkpt><trkpt lat="41.499045" lon="0.7696033"><ele>348.0</ele><time>2026-04-19T11:42:51.961Z</time></trkpt><trkpt lat="41.49908" lon="0.7697617"><ele>348.0</ele><time>2026-04-19T11:42:52.962Z</time></trkpt><trkpt lat="41.4991417" lon="0.76992"><ele>348.0</ele><time>2026-04-19T11:42:53.962Z</time></trkpt><trkpt lat="41.4992283" lon="0.7700933"><ele>348.0</ele><time>2026-04-19T11:42:54.962Z</time></trkpt><trkpt lat="41.49932" lon="0.7702533"><ele>348.0</ele><time>2026-04-19T11:42:55.962Z</time></trkpt><trkpt lat="41.4994083" lon="0.770425"><ele>349.3333333333333</ele><time>2026-04-19T11:42:56.962Z</time></trkpt><trkpt lat="41.4994883" lon="0.7706033"><ele>350.66666666666663</ele><time>2026-04-19T11:42:57.962Z</time></trkpt><trkpt lat="41.4995733" lon="0.7707917"><ele>352.0</ele><time>2026-04-19T11:42:58.961Z</time></trkpt><trkpt lat="41.49963" lon="0.7709817"><ele>346.3333333333333</ele><time>2026-04-19T11:42:59.962Z</time></trkpt><trkpt lat="41.499675" lon="0.7711967"><ele>340.6666666666667</ele><time>2026-04-19T11:43:00.961Z</time></trkpt><trkpt lat="41.4996917" lon="0.771405"><ele>335.0</ele><time>2026-04-19T11:43:01.962Z</time></trkpt><trkpt lat="41.499695" lon="0.7716317"><ele>332.0</ele><time>2026-04-19T11:43:02.962Z</time></trkpt><trkpt lat="41.4996933" lon="0.7718683"><ele>329.0</ele><time>2026-04-19T11:43:03.961Z</time></trkpt><trkpt lat="41.4996817" lon="0.7720967"><ele>326.0</ele><time>2026-04-19T11:43:04.961Z</time></trkpt><trkpt lat="41.4996717" lon="0.7723267"><ele>326.0</ele><time>2026-04-19T11:43:05.962Z</time></trkpt><trkpt lat="41.4996733" lon="0.77255"><ele>326.0</ele><time>2026-04-19T11:43:06.961Z</time></trkpt><trkpt lat="41.499715" lon="0.77278"><ele>326.0</ele><time>2026-04-19T11:43:07.962Z</time></trkpt><trkpt lat="41.4997717" lon="0.773"><ele>324.6666666666667</ele><time>2026-04-19T11:43:08.961Z</time></trkpt><trkpt lat="41.4998633" lon="0.7732283"><ele>323.3333333333333</ele><time>2026-04-19T11:43:09.961Z</time></trkpt><trkpt lat="41.4999767" lon="0.7734433"><ele>322.0</ele><time>2026-04-19T11:43:10.961Z</time></trkpt><trkpt lat="41.5001167" lon="0.77363"><ele>322.0</ele><time>2026-04-19T11:43:11.962Z</time></trkpt><trkpt lat="41.5002833" lon="0.7738183"><ele>322.0</ele><time>2026-04-19T11:43:12.962Z</time></trkpt><trkpt lat="41.5004367" lon="0.7739767"><ele>322.0</ele><time>2026-04-19T11:43:13.962Z</time></trkpt><trkpt lat="41.500595" lon="0.774155"><ele>320.66666666666663</ele><time>2026-04-19T11:43:14.961Z</time></trkpt><trkpt lat="41.5007467" lon="0.7743133"><ele>319.3333333333333</ele><time>2026-04-19T11:43:15.961Z</time></trkpt><trkpt lat="41.5009067" lon="0.7744783"><ele>318.0</ele><time>2026-04-19T11:43:16.962Z</time></trkpt><trkpt lat="41.50107" lon="0.7746317"><ele>317.0</ele><time>2026-04-19T11:43:17.962Z</time></trkpt><trkpt lat="41.501235" lon="0.7747917"><ele>316.0</ele><time>2026-04-19T11:43:18.961Z</time></trkpt><trkpt lat="41.5014067" lon="0.7749517"><ele>315.0</ele><time>2026-04-19T11:43:19.961Z</time></trkpt><trkpt lat="41.5015667" lon="0.77512"><ele>318.3333333333333</ele><time>2026-04-19T11:43:20.962Z</time></trkpt><trkpt lat="41.501725" lon="0.7752867"><ele>321.66666666666663</ele><time>2026-04-19T11:43:21.962Z</time></trkpt><trkpt lat="41.5018783" lon="0.77545"><ele>325.0</ele><time>2026-04-19T11:43:22.962Z</time></trkpt><trkpt lat="41.50204" lon="0.775615"><ele>323.0</ele><time>2026-04-19T11:43:23.962Z</time></trkpt><trkpt lat="41.5021933" lon="0.7757717"><ele>321.0</ele><time>2026-04-19T11:43:24.962Z</time></trkpt><trkpt lat="41.502345" lon="0.7759383"><ele>319.0</ele><time>2026-04-19T11:43:25.962Z</time></trkpt><trkpt lat="41.502495" lon="0.7761"><ele>319.0</ele><time>2026-04-19T11:43:26.961Z</time></trkpt><trkpt lat="41.5026283" lon="0.776275"><ele>319.0</ele><time>2026-04-19T11:43:27.962Z</time></trkpt><trkpt lat="41.5027683" lon="0.7764717"><ele>319.0</ele><time>2026-04-19T11:43:28.961Z</time></trkpt><trkpt lat="41.5028867" lon="0.7766817"><ele>313.66666666666663</ele><time>2026-04-19T11:43:29.961Z</time></trkpt><trkpt lat="41.5029917" lon="0.776915"><ele>308.3333333333333</ele><time>2026-04-19T11:43:30.961Z</time></trkpt><trkpt lat="41.5030767" lon="0.7771667"><ele>303.0</ele><time>2026-04-19T11:43:31.962Z</time></trkpt><trkpt lat="41.5031317" lon="0.77742"><ele>303.3333333333333</ele><time>2026-04-19T11:43:32.962Z</time></trkpt><trkpt lat="41.5031583" lon="0.7776883"><ele>303.66666666666663</ele><time>2026-04-19T11:43:33.962Z</time></trkpt><trkpt lat="41.503155" lon="0.7779533"><ele>304.0</ele><time>2026-04-19T11:43:34.961Z</time></trkpt><trkpt lat="41.5031333" lon="0.778215"><ele>304.0</ele><time>2026-04-19T11:43:35.962Z</time></trkpt><trkpt lat="41.503085" lon="0.7784783"><ele>304.0</ele><time>2026-04-19T11:43:36.961Z</time></trkpt><trkpt lat="41.5030217" lon="0.7787367"><ele>304.0</ele><time>2026-04-19T11:43:37.961Z</time></trkpt><trkpt lat="41.5029617" lon="0.7789933"><ele>306.66666666666663</ele><time>2026-04-19T11:43:38.961Z</time></trkpt><trkpt lat="41.5029017" lon="0.7792467"><ele>309.3333333333333</ele><time>2026-04-19T11:43:39.961Z</time></trkpt><trkpt lat="41.5028467" lon="0.7794967"><ele>312.0</ele><time>2026-04-19T11:43:40.962Z</time></trkpt><trkpt lat="41.5027933" lon="0.779735"><ele>312.0</ele><time>2026-04-19T11:43:41.961Z</time></trkpt><trkpt lat="41.5027383" lon="0.7799833"><ele>312.0</ele><time>2026-04-19T11:43:42.962Z</time></trkpt><trkpt lat="41.5026817" lon="0.78023"><ele>312.0</ele><time>2026-04-19T11:43:43.961Z</time></trkpt><trkpt lat="41.502625" lon="0.7804767"><ele>311.3333333333333</ele><time>2026-04-19T11:43:44.962Z</time></trkpt><trkpt lat="41.5025633" lon="0.78073"><ele>310.66666666666663</ele><time>2026-04-19T11:43:45.962Z</time></trkpt><trkpt lat="41.502505" lon="0.7809717"><ele>310.0</ele><time>2026-04-19T11:43:46.962Z</time></trkpt><trkpt lat="41.502445" lon="0.7812233"><ele>309.3333333333333</ele><time>2026-04-19T11:43:47.962Z</time></trkpt><trkpt lat="41.5023933" lon="0.781465"><ele>308.6666666666667</ele><time>2026-04-19T11:43:48.962Z</time></trkpt><trkpt lat="41.502345" lon="0.7817083"><ele>308.0</ele><time>2026-04-19T11:43:49.961Z</time></trkpt><trkpt lat="41.502295" lon="0.78196"><ele>306.6666666666667</ele><time>2026-04-19T11:43:50.961Z</time></trkpt><trkpt lat="41.5022333" lon="0.7821967"><ele>305.3333333333333</ele><time>2026-04-19T11:43:51.961Z</time></trkpt><trkpt lat="41.5021833" lon="0.78244"><ele>304.0</ele><time>2026-04-19T11:43:52.962Z</time></trkpt><trkpt lat="41.5021283" lon="0.7826933"><ele>305.66666666666663</ele><time>2026-04-19T11:43:53.961Z</time></trkpt><trkpt lat="41.5020717" lon="0.7829483"><ele>307.3333333333333</ele><time>2026-04-19T11:43:54.962Z</time></trkpt><trkpt lat="41.5020183" lon="0.7831717"><ele>309.0</ele><time>2026-04-19T11:43:55.962Z</time></trkpt><trkpt lat="41.5019683" lon="0.7834"><ele>308.3333333333333</ele><time>2026-04-19T11:43:56.962Z</time></trkpt><trkpt lat="41.5019217" lon="0.7836333"><ele>307.66666666666663</ele><time>2026-04-19T11:43:57.962Z</time></trkpt><trkpt lat="41.5018683" lon="0.7838633"><ele>307.0</ele><time>2026-04-19T11:43:58.962Z</time></trkpt><trkpt lat="41.5018133" lon="0.7841"><ele>307.0</ele><time>2026-04-19T11:43:59.962Z</time></trkpt><trkpt lat="41.501765" lon="0.7843367"><ele>307.0</ele><time>2026-04-19T11:44:00.962Z</time></trkpt><trkpt lat="41.501715" lon="0.7845783"><ele>307.0</ele><time>2026-04-19T11:44:01.962Z</time></trkpt><trkpt lat="41.501665" lon="0.7848267"><ele>307.3333333333333</ele><time>2026-04-19T11:44:02.962Z</time></trkpt><trkpt lat="41.5016117" lon="0.7850683"><ele>307.6666666666667</ele><time>2026-04-19T11:44:03.961Z</time></trkpt><trkpt lat="41.5015567" lon="0.7853133"><ele>308.0</ele><time>2026-04-19T11:44:04.962Z</time></trkpt><trkpt lat="41.501495" lon="0.785565"><ele>307.6666666666667</ele><time>2026-04-19T11:44:05.961Z</time></trkpt><trkpt lat="41.5014467" lon="0.7858167"><ele>307.3333333333333</ele><time>2026-04-19T11:44:06.962Z</time></trkpt><trkpt lat="41.501395" lon="0.7860717"><ele>307.0</ele><time>2026-04-19T11:44:07.961Z</time></trkpt><trkpt lat="41.5013383" lon="0.7863183"><ele>307.0</ele><time>2026-04-19T11:44:08.962Z</time></trkpt><trkpt lat="41.501285" lon="0.7865683"><ele>307.0</ele><time>2026-04-19T11:44:09.961Z</time></trkpt><trkpt lat="41.5012367" lon="0.786815"><ele>307.0</ele><time>2026-04-19T11:44:10.962Z</time></trkpt><trkpt lat="41.5011783" lon="0.787065"><ele>307.66666666666663</ele><time>2026-04-19T11:44:11.961Z</time></trkpt><trkpt lat="41.5011217" lon="0.7873117"><ele>308.3333333333333</ele><time>2026-04-19T11:44:12.962Z</time></trkpt><trkpt lat="41.5010683" lon="0.7875617"><ele>309.0</ele><time>2026-04-19T11:44:13.962Z</time></trkpt><trkpt lat="41.5010183" lon="0.7878117"><ele>309.0</ele><time>2026-04-19T11:44:14.961Z</time></trkpt><trkpt lat="41.5009617" lon="0.7880633"><ele>309.0</ele><time>2026-04-19T11:44:15.962Z</time></trkpt><trkpt lat="41.5009033" lon="0.7883017"><ele>309.0</ele><time>2026-04-19T11:44:16.962Z</time></trkpt><trkpt lat="41.500835" lon="0.78855"><ele>308.6666666666667</ele><time>2026-04-19T11:44:17.962Z</time></trkpt><trkpt lat="41.5007767" lon="0.7887867"><ele>308.33333333333337</ele><time>2026-04-19T11:44:18.962Z</time></trkpt><trkpt lat="41.50072" lon="0.7890433"><ele>308.0</ele><time>2026-04-19T11:44:19.961Z</time></trkpt><trkpt lat="41.5006683" lon="0.7892983"><ele>308.33333333333337</ele><time>2026-04-19T11:44:20.961Z</time></trkpt><trkpt lat="41.5006217" lon="0.7895517"><ele>308.6666666666667</ele><time>2026-04-19T11:44:21.961Z</time></trkpt><trkpt lat="41.500565" lon="0.7898"><ele>309.0</ele><time>2026-04-19T11:44:22.961Z</time></trkpt><trkpt lat="41.5005017" lon="0.7900517"><ele>308.3333333333333</ele><time>2026-04-19T11:44:23.961Z</time></trkpt><trkpt lat="41.5004383" lon="0.7903083"><ele>307.66666666666663</ele><time>2026-04-19T11:44:24.962Z</time></trkpt><trkpt lat="41.50038" lon="0.7905567"><ele>307.0</ele><time>2026-04-19T11:44:25.961Z</time></trkpt><trkpt lat="41.5003267" lon="0.79081"><ele>308.66666666666663</ele><time>2026-04-19T11:44:26.962Z</time></trkpt><trkpt lat="41.5002717" lon="0.79106"><ele>310.3333333333333</ele><time>2026-04-19T11:44:27.961Z</time></trkpt><trkpt lat="41.5002167" lon="0.7913033"><ele>312.0</ele><time>2026-04-19T11:44:28.961Z</time></trkpt><trkpt lat="41.5001617" lon="0.7915417"><ele>312.0</ele><time>2026-04-19T11:44:29.962Z</time></trkpt><trkpt lat="41.5001183" lon="0.7918067"><ele>312.0</ele><time>2026-04-19T11:44:30.961Z</time></trkpt><trkpt lat="41.5000717" lon="0.7920517"><ele>312.0</ele><time>2026-04-19T11:44:31.962Z</time></trkpt><trkpt lat="41.5000133" lon="0.7923067"><ele>311.6666666666667</ele><time>2026-04-19T11:44:32.961Z</time></trkpt><trkpt lat="41.4999517" lon="0.7925583"><ele>311.33333333333337</ele><time>2026-04-19T11:44:33.962Z</time></trkpt><trkpt lat="41.4998917" lon="0.7928167"><ele>311.0</ele><time>2026-04-19T11:44:34.961Z</time></trkpt><trkpt lat="41.499835" lon="0.7930667"><ele>311.6666666666667</ele><time>2026-04-19T11:44:35.961Z</time></trkpt><trkpt lat="41.49978" lon="0.7933133"><ele>312.3333333333333</ele><time>2026-04-19T11:44:36.962Z</time></trkpt><trkpt lat="41.4997317" lon="0.7935467"><ele>313.0</ele><time>2026-04-19T11:44:37.961Z</time></trkpt><trkpt lat="41.4996883" lon="0.7937917"><ele>313.3333333333333</ele><time>2026-04-19T11:44:38.961Z</time></trkpt><trkpt lat="41.4996383" lon="0.7940417"><ele>313.6666666666667</ele><time>2026-04-19T11:44:39.961Z</time></trkpt><trkpt lat="41.49959" lon="0.7942833"><ele>314.0</ele><time>2026-04-19T11:44:40.962Z</time></trkpt><trkpt lat="41.49955" lon="0.794545"><ele>315.0</ele><time>2026-04-19T11:44:41.961Z</time></trkpt><trkpt lat="41.499515" lon="0.7947833"><ele>316.0</ele><time>2026-04-19T11:44:42.962Z</time></trkpt><trkpt lat="41.4994683" lon="0.7950417"><ele>317.0</ele><time>2026-04-19T11:44:43.961Z</time></trkpt><trkpt lat="41.4994167" lon="0.7952933"><ele>317.33333333333337</ele><time>2026-04-19T11:44:44.961Z</time></trkpt><trkpt lat="41.4993683" lon="0.79555"><ele>317.6666666666667</ele><time>2026-04-19T11:44:45.962Z</time></trkpt><trkpt lat="41.4993317" lon="0.795795"><ele>318.0</ele><time>2026-04-19T11:44:46.961Z</time></trkpt><trkpt lat="41.4992967" lon="0.79604"><ele>317.3333333333333</ele><time>2026-04-19T11:44:47.962Z</time></trkpt><trkpt lat="41.49925" lon="0.7962933"><ele>316.66666666666663</ele><time>2026-04-19T11:44:48.962Z</time></trkpt><trkpt lat="41.4992167" lon="0.79654"><ele>316.0</ele><time>2026-04-19T11:44:49.961Z</time></trkpt><trkpt lat="41.4991867" lon="0.7967867"><ele>316.0</ele><time>2026-04-19T11:44:50.961Z</time></trkpt><trkpt lat="41.49916" lon="0.797035"><ele>316.0</ele><time>2026-04-19T11:44:51.961Z</time></trkpt><trkpt lat="41.4991317" lon="0.797275"><ele>316.0</ele><time>2026-04-19T11:44:52.962Z</time></trkpt><trkpt lat="41.499105" lon="0.7975267"><ele>317.66666666666663</ele><time>2026-04-19T11:44:53.962Z</time></trkpt><trkpt lat="41.4990783" lon="0.7977717"><ele>319.3333333333333</ele><time>2026-04-19T11:44:54.961Z</time></trkpt><trkpt lat="41.49905" lon="0.7980067"><ele>321.0</ele><time>2026-04-19T11:44:55.962Z</time></trkpt><trkpt lat="41.4990233" lon="0.7982583"><ele>322.3333333333333</ele><time>2026-04-19T11:44:56.961Z</time></trkpt><trkpt lat="41.49898" lon="0.7985117"><ele>323.66666666666663</ele><time>2026-04-19T11:44:57.962Z</time></trkpt><trkpt lat="41.4989433" lon="0.7987583"><ele>325.0</ele><time>2026-04-19T11:44:58.962Z</time></trkpt><trkpt lat="41.4989067" lon="0.798995"><ele>325.0</ele><time>2026-04-19T11:44:59.961Z</time></trkpt><trkpt lat="41.4988717" lon="0.799235"><ele>325.0</ele><time>2026-04-19T11:45:00.961Z</time></trkpt><trkpt lat="41.4988367" lon="0.7994617"><ele>325.0</ele><time>2026-04-19T11:45:01.961Z</time></trkpt><trkpt lat="41.4988083" lon="0.79968"><ele>325.3333333333333</ele><time>2026-04-19T11:45:02.962Z</time></trkpt><trkpt lat="41.49878" lon="0.799895"><ele>325.6666666666667</ele><time>2026-04-19T11:45:03.962Z</time></trkpt><trkpt lat="41.4987467" lon="0.8001"><ele>326.0</ele><time>2026-04-19T11:45:04.961Z</time></trkpt><trkpt lat="41.4987183" lon="0.80032"><ele>328.6666666666667</ele><time>2026-04-19T11:45:05.961Z</time></trkpt><trkpt lat="41.49869" lon="0.800545"><ele>331.3333333333333</ele><time>2026-04-19T11:45:06.961Z</time></trkpt><trkpt lat="41.49866" lon="0.8007683"><ele>334.0</ele><time>2026-04-19T11:45:07.961Z</time></trkpt><trkpt lat="41.4986333" lon="0.80099"><ele>334.3333333333333</ele><time>2026-04-19T11:45:08.961Z</time></trkpt><trkpt lat="41.4986" lon="0.8011983"><ele>334.6666666666667</ele><time>2026-04-19T11:45:09.961Z</time></trkpt><trkpt lat="41.4985667" lon="0.8014133"><ele>335.0</ele><time>2026-04-19T11:45:10.961Z</time></trkpt><trkpt lat="41.4985333" lon="0.8016317"><ele>335.0</ele><time>2026-04-19T11:45:11.962Z</time></trkpt><trkpt lat="41.4984967" lon="0.8018617"><ele>335.0</ele><time>2026-04-19T11:45:12.961Z</time></trkpt><trkpt lat="41.4984667" lon="0.8020867"><ele>335.0</ele><time>2026-04-19T11:45:13.962Z</time></trkpt><trkpt lat="41.4984433" lon="0.802325"><ele>335.0</ele><time>2026-04-19T11:45:14.962Z</time></trkpt><trkpt lat="41.4984183" lon="0.8025533"><ele>335.0</ele><time>2026-04-19T11:45:15.962Z</time></trkpt><trkpt lat="41.49839" lon="0.802785"><ele>335.0</ele><time>2026-04-19T11:45:16.962Z</time></trkpt><trkpt lat="41.4983533" lon="0.8030267"><ele>335.0</ele><time>2026-04-19T11:45:17.961Z</time></trkpt><trkpt lat="41.4983267" lon="0.80329"><ele>335.0</ele><time>2026-04-19T11:45:18.962Z</time></trkpt><trkpt lat="41.4982967" lon="0.80355"><ele>335.0</ele><time>2026-04-19T11:45:19.961Z</time></trkpt><trkpt lat="41.4982583" lon="0.8038017"><ele>335.33333333333337</ele><time>2026-04-19T11:45:20.962Z</time></trkpt><trkpt lat="41.498215" lon="0.80406"><ele>335.6666666666667</ele><time>2026-04-19T11:45:21.961Z</time></trkpt><trkpt lat="41.4981733" lon="0.8043183"><ele>336.0</ele><time>2026-04-19T11:45:22.962Z</time></trkpt><trkpt lat="41.4981367" lon="0.80457"><ele>336.3333333333333</ele><time>2026-04-19T11:45:23.961Z</time></trkpt><trkpt lat="41.4980983" lon="0.8048217"><ele>336.66666666666663</ele><time>2026-04-19T11:45:24.961Z</time></trkpt><trkpt lat="41.4980683" lon="0.8050817"><ele>337.0</ele><time>2026-04-19T11:45:25.961Z</time></trkpt><trkpt lat="41.4980383" lon="0.8053433"><ele>337.3333333333333</ele><time>2026-04-19T11:45:26.961Z</time></trkpt><trkpt lat="41.4980017" lon="0.8056"><ele>337.6666666666667</ele><time>2026-04-19T11:45:27.962Z</time></trkpt><trkpt lat="41.497975" lon="0.8058617"><ele>338.0</ele><time>2026-04-19T11:45:28.961Z</time></trkpt><trkpt lat="41.497945" lon="0.8061183"><ele>338.6666666666667</ele><time>2026-04-19T11:45:29.961Z</time></trkpt><trkpt lat="41.49792" lon="0.806375"><ele>339.3333333333333</ele><time>2026-04-19T11:45:30.961Z</time></trkpt><trkpt lat="41.4978917" lon="0.8066283"><ele>340.0</ele><time>2026-04-19T11:45:31.961Z</time></trkpt><trkpt lat="41.4978733" lon="0.8068967"><ele>341.3333333333333</ele><time>2026-04-19T11:45:32.961Z</time></trkpt><trkpt lat="41.497865" lon="0.8071617"><ele>342.6666666666667</ele><time>2026-04-19T11:45:33.962Z</time></trkpt><trkpt lat="41.4978683" lon="0.8074283"><ele>344.0</ele><time>2026-04-19T11:45:34.961Z</time></trkpt><trkpt lat="41.4978817" lon="0.8076917"><ele>344.0</ele><time>2026-04-19T11:45:35.961Z</time></trkpt><trkpt lat="41.4979083" lon="0.8079533"><ele>344.0</ele><time>2026-04-19T11:45:36.962Z</time></trkpt><trkpt lat="41.4979483" lon="0.8082117"><ele>344.0</ele><time>2026-04-19T11:45:37.962Z</time></trkpt><trkpt lat="41.498015" lon="0.8084733"><ele>343.6666666666667</ele><time>2026-04-19T11:45:38.962Z</time></trkpt><trkpt lat="41.4980767" lon="0.8087183"><ele>343.3333333333333</ele><time>2026-04-19T11:45:39.961Z</time></trkpt><trkpt lat="41.49814" lon="0.808945"><ele>343.0</ele><time>2026-04-19T11:45:40.962Z</time></trkpt><trkpt lat="41.4982033" lon="0.8092083"><ele>343.66666666666663</ele><time>2026-04-19T11:45:41.962Z</time></trkpt><trkpt lat="41.4982583" lon="0.8094733"><ele>344.3333333333333</ele><time>2026-04-19T11:45:42.961Z</time></trkpt><trkpt lat="41.49832" lon="0.8097267"><ele>345.0</ele><time>2026-04-19T11:45:43.962Z</time></trkpt><trkpt lat="41.4983833" lon="0.8099783"><ele>345.0</ele><time>2026-04-19T11:45:44.961Z</time></trkpt><trkpt lat="41.4984533" lon="0.81023"><ele>345.0</ele><time>2026-04-19T11:45:45.962Z</time></trkpt><trkpt lat="41.49852" lon="0.8104867"><ele>345.0</ele><time>2026-04-19T11:45:46.962Z</time></trkpt><trkpt lat="41.4985933" lon="0.8107533"><ele>345.0</ele><time>2026-04-19T11:45:47.961Z</time></trkpt><trkpt lat="41.4986617" lon="0.8110083"><ele>345.0</ele><time>2026-04-19T11:45:48.961Z</time></trkpt><trkpt lat="41.4987283" lon="0.8112583"><ele>345.0</ele><time>2026-04-19T11:45:49.962Z</time></trkpt><trkpt lat="41.4987917" lon="0.8115067"><ele>345.0</ele><time>2026-04-19T11:45:50.961Z</time></trkpt><trkpt lat="41.4988567" lon="0.8117583"><ele>345.0</ele><time>2026-04-19T11:45:51.961Z</time></trkpt><trkpt lat="41.49892" lon="0.8120083"><ele>345.0</ele><time>2026-04-19T11:45:52.962Z</time></trkpt><trkpt lat="41.4989783" lon="0.812255"><ele>345.0</ele><time>2026-04-19T11:45:53.962Z</time></trkpt><trkpt lat="41.499045" lon="0.8124967"><ele>345.0</ele><time>2026-04-19T11:45:54.962Z</time></trkpt><trkpt lat="41.499115" lon="0.81274"><ele>345.0</ele><time>2026-04-19T11:45:55.961Z</time></trkpt><trkpt lat="41.4991933" lon="0.81299"><ele>346.0</ele><time>2026-04-19T11:45:56.962Z</time></trkpt><trkpt lat="41.49927" lon="0.8132433"><ele>347.0</ele><time>2026-04-19T11:45:57.961Z</time></trkpt><trkpt lat="41.4993317" lon="0.8134883"><ele>348.0</ele><time>2026-04-19T11:45:58.962Z</time></trkpt><trkpt lat="41.49939" lon="0.81373"><ele>348.3333333333333</ele><time>2026-04-19T11:45:59.961Z</time></trkpt><trkpt lat="41.4994533" lon="0.8139717"><ele>348.66666666666663</ele><time>2026-04-19T11:46:00.961Z</time></trkpt><trkpt lat="41.4995117" lon="0.8142167"><ele>349.0</ele><time>2026-04-19T11:46:01.961Z</time></trkpt><trkpt lat="41.49957" lon="0.8144667"><ele>349.0</ele><time>2026-04-19T11:46:02.962Z</time></trkpt><trkpt lat="41.499625" lon="0.8147317"><ele>349.0</ele><time>2026-04-19T11:46:03.962Z</time></trkpt><trkpt lat="41.4996583" lon="0.8149933"><ele>349.0</ele><time>2026-04-19T11:46:04.962Z</time></trkpt><trkpt lat="41.4996733" lon="0.8152517"><ele>349.3333333333333</ele><time>2026-04-19T11:46:05.961Z</time></trkpt><trkpt lat="41.4996667" lon="0.8155117"><ele>349.6666666666667</ele><time>2026-04-19T11:46:06.961Z</time></trkpt><trkpt lat="41.4996417" lon="0.815775"><ele>350.0</ele><time>2026-04-19T11:46:07.962Z</time></trkpt><trkpt lat="41.499615" lon="0.8160533"><ele>350.6666666666667</ele><time>2026-04-19T11:46:08.961Z</time></trkpt><trkpt lat="41.49957" lon="0.8163217"><ele>351.3333333333333</ele><time>2026-04-19T11:46:09.961Z</time></trkpt><trkpt lat="41.4995183" lon="0.8165833"><ele>352.0</ele><time>2026-04-19T11:46:10.961Z</time></trkpt><trkpt lat="41.49945" lon="0.81684"><ele>350.0</ele><time>2026-04-19T11:46:11.961Z</time></trkpt><trkpt lat="41.499365" lon="0.817105"><ele>348.0</ele><time>2026-04-19T11:46:12.961Z</time></trkpt><trkpt lat="41.4992683" lon="0.8173433"><ele>346.0</ele><time>2026-04-19T11:46:13.961Z</time></trkpt><trkpt lat="41.499175" lon="0.8175817"><ele>343.0</ele><time>2026-04-19T11:46:14.961Z</time></trkpt><trkpt lat="41.4990867" lon="0.81783"><ele>340.0</ele><time>2026-04-19T11:46:15.962Z</time></trkpt><trkpt lat="41.4990083" lon="0.8180867"><ele>337.0</ele><time>2026-04-19T11:46:16.962Z</time></trkpt><trkpt lat="41.498935" lon="0.818355"><ele>335.3333333333333</ele><time>2026-04-19T11:46:17.962Z</time></trkpt><trkpt lat="41.4988683" lon="0.81862"><ele>333.6666666666667</ele><time>2026-04-19T11:46:18.961Z</time></trkpt><trkpt lat="41.498815" lon="0.8189"><ele>332.0</ele><time>2026-04-19T11:46:19.962Z</time></trkpt><trkpt lat="41.498785" lon="0.8191783"><ele>330.6666666666667</ele><time>2026-04-19T11:46:20.962Z</time></trkpt><trkpt lat="41.498765" lon="0.819455"><ele>329.3333333333333</ele><time>2026-04-19T11:46:21.961Z</time></trkpt><trkpt lat="41.4987633" lon="0.8197317"><ele>328.0</ele><time>2026-04-19T11:46:22.962Z</time></trkpt><trkpt lat="41.4987717" lon="0.82"><ele>327.0</ele><time>2026-04-19T11:46:23.961Z</time></trkpt><trkpt lat="41.4987833" lon="0.8202683"><ele>326.0</ele><time>2026-04-19T11:46:24.962Z</time></trkpt><trkpt lat="41.4988183" lon="0.8205483"><ele>325.0</ele><time>2026-04-19T11:46:25.961Z</time></trkpt><trkpt lat="41.4988633" lon="0.8208217"><ele>324.66666666666663</ele><time>2026-04-19T11:46:26.962Z</time></trkpt><trkpt lat="41.4989117" lon="0.8210883"><ele>324.3333333333333</ele><time>2026-04-19T11:46:27.962Z</time></trkpt><trkpt lat="41.4989817" lon="0.8213367"><ele>324.0</ele><time>2026-04-19T11:46:28.962Z</time></trkpt><trkpt lat="41.49906" lon="0.821585"><ele>325.0</ele><time>2026-04-19T11:46:29.962Z</time></trkpt><trkpt lat="41.4991483" lon="0.821825"><ele>326.0</ele><time>2026-04-19T11:46:30.962Z</time></trkpt><trkpt lat="41.499245" lon="0.8220567"><ele>327.0</ele><time>2026-04-19T11:46:31.962Z</time></trkpt><trkpt lat="41.4993533" lon="0.8222867"><ele>327.0</ele><time>2026-04-19T11:46:32.961Z</time></trkpt><trkpt lat="41.4994633" lon="0.82251"><ele>327.0</ele><time>2026-04-19T11:46:33.961Z</time></trkpt><trkpt lat="41.4995867" lon="0.8227367"><ele>327.0</ele><time>2026-04-19T11:46:34.961Z</time></trkpt><trkpt lat="41.49972" lon="0.82296"><ele>328.0</ele><time>2026-04-19T11:46:35.962Z</time></trkpt><trkpt lat="41.49985" lon="0.823175"><ele>329.0</ele><time>2026-04-19T11:46:36.962Z</time></trkpt><trkpt lat="41.4999783" lon="0.8233883"><ele>330.0</ele><time>2026-04-19T11:46:37.961Z</time></trkpt><trkpt lat="41.5001" lon="0.8236"><ele>329.0</ele><time>2026-04-19T11:46:38.962Z</time></trkpt><trkpt lat="41.5002217" lon="0.8238117"><ele>328.0</ele><time>2026-04-19T11:46:39.962Z</time></trkpt><trkpt lat="41.5003367" lon="0.82402"><ele>327.0</ele><time>2026-04-19T11:46:40.961Z</time></trkpt><trkpt lat="41.5004467" lon="0.8242367"><ele>329.0</ele><time>2026-04-19T11:46:41.961Z</time></trkpt><trkpt lat="41.5005483" lon="0.8244583"><ele>331.0</ele><time>2026-04-19T11:46:42.961Z</time></trkpt><trkpt lat="41.5006367" lon="0.8246867"><ele>333.0</ele><time>2026-04-19T11:46:43.962Z</time></trkpt><trkpt lat="41.5007233" lon="0.8249083"><ele>333.0</ele><time>2026-04-19T11:46:44.961Z</time></trkpt><trkpt lat="41.500815" lon="0.825135"><ele>333.0</ele><time>2026-04-19T11:46:45.961Z</time></trkpt><trkpt lat="41.5009117" lon="0.8253633"><ele>333.0</ele><time>2026-04-19T11:46:46.961Z</time></trkpt><trkpt lat="41.5010083" lon="0.8256"><ele>332.6666666666667</ele><time>2026-04-19T11:46:47.961Z</time></trkpt><trkpt lat="41.501105" lon="0.825835"><ele>332.33333333333337</ele><time>2026-04-19T11:46:48.961Z</time></trkpt><trkpt lat="41.5012017" lon="0.8260683"><ele>332.0</ele><time>2026-04-19T11:46:49.962Z</time></trkpt><trkpt lat="41.5012933" lon="0.826315"><ele>332.0</ele><time>2026-04-19T11:46:50.962Z</time></trkpt><trkpt lat="41.5013833" lon="0.8265567"><ele>332.0</ele><time>2026-04-19T11:46:51.962Z</time></trkpt><trkpt lat="41.5014733" lon="0.8268"><ele>332.0</ele><time>2026-04-19T11:46:52.961Z</time></trkpt><trkpt lat="41.5015683" lon="0.8270417"><ele>332.33333333333337</ele><time>2026-04-19T11:46:53.962Z</time></trkpt><trkpt lat="41.501665" lon="0.82728"><ele>332.6666666666667</ele><time>2026-04-19T11:46:54.961Z</time></trkpt><trkpt lat="41.5017633" lon="0.82751"><ele>333.0</ele><time>2026-04-19T11:46:55.962Z</time></trkpt><trkpt lat="41.501865" lon="0.8277317"><ele>333.0</ele><time>2026-04-19T11:46:56.961Z</time></trkpt><trkpt lat="41.5019617" lon="0.8279483"><ele>333.0</ele><time>2026-04-19T11:46:57.961Z</time></trkpt><trkpt lat="41.50207" lon="0.828165"><ele>333.0</ele><time>2026-04-19T11:46:58.962Z</time></trkpt><trkpt lat="41.5021833" lon="0.828375"><ele>331.3333333333333</ele><time>2026-04-19T11:46:59.962Z</time></trkpt><trkpt lat="41.50229" lon="0.8285883"><ele>329.66666666666663</ele><time>2026-04-19T11:47:00.961Z</time></trkpt><trkpt lat="41.5024033" lon="0.8288117"><ele>328.0</ele><time>2026-04-19T11:47:01.962Z</time></trkpt><trkpt lat="41.502525" lon="0.82905"><ele>328.0</ele><time>2026-04-19T11:47:02.962Z</time></trkpt><trkpt lat="41.50264" lon="0.82928"><ele>328.0</ele><time>2026-04-19T11:47:03.962Z</time></trkpt><trkpt lat="41.5027567" lon="0.829525"><ele>328.0</ele><time>2026-04-19T11:47:04.962Z</time></trkpt><trkpt lat="41.5028783" lon="0.82976"><ele>326.66666666666663</ele><time>2026-04-19T11:47:05.962Z</time></trkpt><trkpt lat="41.5029933" lon="0.8299967"><ele>325.3333333333333</ele><time>2026-04-19T11:47:06.961Z</time></trkpt><trkpt lat="41.503125" lon="0.8302333"><ele>324.0</ele><time>2026-04-19T11:47:07.961Z</time></trkpt><trkpt lat="41.503245" lon="0.8304717"><ele>323.6666666666667</ele><time>2026-04-19T11:47:08.962Z</time></trkpt><trkpt lat="41.5033733" lon="0.830705"><ele>323.33333333333337</ele><time>2026-04-19T11:47:09.962Z</time></trkpt><trkpt lat="41.5035" lon="0.83093"><ele>323.0</ele><time>2026-04-19T11:47:10.962Z</time></trkpt><trkpt lat="41.503625" lon="0.8311633"><ele>321.6666666666667</ele><time>2026-04-19T11:47:11.961Z</time></trkpt><trkpt lat="41.5037517" lon="0.8314017"><ele>320.3333333333333</ele><time>2026-04-19T11:47:12.962Z</time></trkpt><trkpt lat="41.5038717" lon="0.83163"><ele>319.0</ele><time>2026-04-19T11:47:13.961Z</time></trkpt><trkpt lat="41.503995" lon="0.8318717"><ele>318.66666666666663</ele><time>2026-04-19T11:47:14.961Z</time></trkpt><trkpt lat="41.5041167" lon="0.8321017"><ele>318.3333333333333</ele><time>2026-04-19T11:47:15.962Z</time></trkpt><trkpt lat="41.5042317" lon="0.8323217"><ele>318.0</ele><time>2026-04-19T11:47:16.962Z</time></trkpt><trkpt lat="41.50435" lon="0.8325433"><ele>317.6666666666667</ele><time>2026-04-19T11:47:17.962Z</time></trkpt><trkpt lat="41.50447" lon="0.83277"><ele>317.33333333333337</ele><time>2026-04-19T11:47:18.962Z</time></trkpt><trkpt lat="41.504585" lon="0.8329933"><ele>317.0</ele><time>2026-04-19T11:47:19.961Z</time></trkpt><trkpt lat="41.5047017" lon="0.8332183"><ele>316.6666666666667</ele><time>2026-04-19T11:47:20.961Z</time></trkpt><trkpt lat="41.5048217" lon="0.8334433"><ele>316.3333333333333</ele><time>2026-04-19T11:47:21.961Z</time></trkpt><trkpt lat="41.5049433" lon="0.8336683"><ele>316.0</ele><time>2026-04-19T11:47:22.962Z</time></trkpt><trkpt lat="41.5050583" lon="0.833895"><ele>316.0</ele><time>2026-04-19T11:47:23.961Z</time></trkpt><trkpt lat="41.5051767" lon="0.83411"><ele>316.0</ele><time>2026-04-19T11:47:24.961Z</time></trkpt><trkpt lat="41.5052967" lon="0.83433"><ele>316.0</ele><time>2026-04-19T11:47:25.962Z</time></trkpt><trkpt lat="41.5054133" lon="0.8345533"><ele>315.0</ele><time>2026-04-19T11:47:26.961Z</time></trkpt><trkpt lat="41.5055367" lon="0.8347767"><ele>314.0</ele><time>2026-04-19T11:47:27.962Z</time></trkpt><trkpt lat="41.50565" lon="0.8349983"><ele>313.0</ele><time>2026-04-19T11:47:28.961Z</time></trkpt><trkpt lat="41.5057633" lon="0.8352217"><ele>313.0</ele><time>2026-04-19T11:47:29.961Z</time></trkpt><trkpt lat="41.505875" lon="0.8354533"><ele>313.0</ele><time>2026-04-19T11:47:30.962Z</time></trkpt><trkpt lat="41.5059833" lon="0.8356667"><ele>313.0</ele><time>2026-04-19T11:47:31.962Z</time></trkpt><trkpt lat="41.5061017" lon="0.83588"><ele>312.66666666666663</ele><time>2026-04-19T11:47:32.962Z</time></trkpt><trkpt lat="41.5062233" lon="0.8361017"><ele>312.3333333333333</ele><time>2026-04-19T11:47:33.961Z</time></trkpt><trkpt lat="41.5063433" lon="0.8363217"><ele>312.0</ele><time>2026-04-19T11:47:34.961Z</time></trkpt><trkpt lat="41.5064583" lon="0.83654"><ele>312.0</ele><time>2026-04-19T11:47:35.962Z</time></trkpt><trkpt lat="41.5065767" lon="0.8367633"><ele>312.0</ele><time>2026-04-19T11:47:36.961Z</time></trkpt><trkpt lat="41.5066933" lon="0.836985"><ele>312.0</ele><time>2026-04-19T11:47:37.961Z</time></trkpt><trkpt lat="41.5068067" lon="0.8372133"><ele>311.3333333333333</ele><time>2026-04-19T11:47:38.962Z</time></trkpt><trkpt lat="41.5069233" lon="0.83744"><ele>310.66666666666663</ele><time>2026-04-19T11:47:39.961Z</time></trkpt><trkpt lat="41.5070417" lon="0.8376583"><ele>310.0</ele><time>2026-04-19T11:47:40.962Z</time></trkpt><trkpt lat="41.507165" lon="0.83787"><ele>309.3333333333333</ele><time>2026-04-19T11:47:41.961Z</time></trkpt><trkpt lat="41.507285" lon="0.8380883"><ele>308.6666666666667</ele><time>2026-04-19T11:47:42.961Z</time></trkpt><trkpt lat="41.5074067" lon="0.8382867"><ele>308.0</ele><time>2026-04-19T11:47:43.961Z</time></trkpt><trkpt lat="41.5075167" lon="0.8385267"><ele>308.0</ele><time>2026-04-19T11:47:44.962Z</time></trkpt><trkpt lat="41.507635" lon="0.8387617"><ele>308.0</ele><time>2026-04-19T11:47:45.961Z</time></trkpt><trkpt lat="41.5077567" lon="0.8389933"><ele>308.0</ele><time>2026-04-19T11:47:46.962Z</time></trkpt><trkpt lat="41.5078717" lon="0.839215"><ele>306.6666666666667</ele><time>2026-04-19T11:47:47.961Z</time></trkpt><trkpt lat="41.5079783" lon="0.83942"><ele>305.3333333333333</ele><time>2026-04-19T11:47:48.962Z</time></trkpt><trkpt lat="41.508095" lon="0.83963"><ele>304.0</ele><time>2026-04-19T11:47:49.962Z</time></trkpt><trkpt lat="41.5082083" lon="0.8398483"><ele>304.0</ele><time>2026-04-19T11:47:50.962Z</time></trkpt><trkpt lat="41.5083233" lon="0.8400567"><ele>304.0</ele><time>2026-04-19T11:47:51.961Z</time></trkpt><trkpt lat="41.5084383" lon="0.8402683"><ele>304.0</ele><time>2026-04-19T11:47:52.962Z</time></trkpt><trkpt lat="41.5085383" lon="0.8405117"><ele>303.66666666666663</ele><time>2026-04-19T11:47:53.962Z</time></trkpt><trkpt lat="41.5086517" lon="0.840725"><ele>303.3333333333333</ele><time>2026-04-19T11:47:54.962Z</time></trkpt><trkpt lat="41.508765" lon="0.84095"><ele>303.0</ele><time>2026-04-19T11:47:55.962Z</time></trkpt><trkpt lat="41.508875" lon="0.841175"><ele>302.6666666666667</ele><time>2026-04-19T11:47:56.961Z</time></trkpt><trkpt lat="41.5089883" lon="0.8413817"><ele>302.33333333333337</ele><time>2026-04-19T11:47:57.962Z</time></trkpt><trkpt lat="41.5091083" lon="0.8415883"><ele>302.0</ele><time>2026-04-19T11:47:58.962Z</time></trkpt><trkpt lat="41.509215" lon="0.8418"><ele>302.0</ele><time>2026-04-19T11:47:59.962Z</time></trkpt><trkpt lat="41.5093233" lon="0.842015"><ele>302.0</ele><time>2026-04-19T11:48:00.962Z</time></trkpt><trkpt lat="41.509435" lon="0.8422317"><ele>302.0</ele><time>2026-04-19T11:48:01.962Z</time></trkpt><trkpt lat="41.5095417" lon="0.84245"><ele>301.33333333333337</ele><time>2026-04-19T11:48:02.961Z</time></trkpt><trkpt lat="41.5096467" lon="0.8426583"><ele>300.6666666666667</ele><time>2026-04-19T11:48:03.961Z</time></trkpt><trkpt lat="41.5097483" lon="0.8428667"><ele>300.0</ele><time>2026-04-19T11:48:04.962Z</time></trkpt><trkpt lat="41.509845" lon="0.8430817"><ele>300.0</ele><time>2026-04-19T11:48:05.962Z</time></trkpt><trkpt lat="41.5099383" lon="0.8433017"><ele>300.0</ele><time>2026-04-19T11:48:06.962Z</time></trkpt><trkpt lat="41.510025" lon="0.8435067"><ele>300.0</ele><time>2026-04-19T11:48:07.961Z</time></trkpt><trkpt lat="41.5101" lon="0.8437033"><ele>300.0</ele><time>2026-04-19T11:48:08.961Z</time></trkpt><trkpt lat="41.5101667" lon="0.8439"><ele>300.0</ele><time>2026-04-19T11:48:09.961Z</time></trkpt><trkpt lat="41.5102283" lon="0.8441017"><ele>300.0</ele><time>2026-04-19T11:48:10.961Z</time></trkpt><trkpt lat="41.5102883" lon="0.84431"><ele>300.0</ele><time>2026-04-19T11:48:11.962Z</time></trkpt><trkpt lat="41.5103517" lon="0.844515"><ele>300.0</ele><time>2026-04-19T11:48:12.962Z</time></trkpt><trkpt lat="41.5104133" lon="0.8447167"><ele>300.0</ele><time>2026-04-19T11:48:13.961Z</time></trkpt><trkpt lat="41.510485" lon="0.8449167"><ele>299.6666666666667</ele><time>2026-04-19T11:48:14.962Z</time></trkpt><trkpt lat="41.5105683" lon="0.8451233"><ele>299.33333333333337</ele><time>2026-04-19T11:48:15.961Z</time></trkpt><trkpt lat="41.5106667" lon="0.84531"><ele>299.0</ele><time>2026-04-19T11:48:16.961Z</time></trkpt><trkpt lat="41.5107767" lon="0.8455017"><ele>298.33333333333337</ele><time>2026-04-19T11:48:17.961Z</time></trkpt><trkpt lat="41.5108983" lon="0.8456833"><ele>297.6666666666667</ele><time>2026-04-19T11:48:18.961Z</time></trkpt><trkpt lat="41.5110167" lon="0.8458567"><ele>297.0</ele><time>2026-04-19T11:48:19.962Z</time></trkpt><trkpt lat="41.51114" lon="0.84602"><ele>296.6666666666667</ele><time>2026-04-19T11:48:20.962Z</time></trkpt><trkpt lat="41.511275" lon="0.8461683"><ele>296.33333333333337</ele><time>2026-04-19T11:48:21.962Z</time></trkpt><trkpt lat="41.5114333" lon="0.8463033"><ele>296.0</ele><time>2026-04-19T11:48:22.962Z</time></trkpt><trkpt lat="41.51159" lon="0.8464333"><ele>296.0</ele><time>2026-04-19T11:48:23.962Z</time></trkpt><trkpt lat="41.511755" lon="0.84656"><ele>296.0</ele><time>2026-04-19T11:48:24.962Z</time></trkpt><trkpt lat="41.51192" lon="0.8466867"><ele>296.0</ele><time>2026-04-19T11:48:25.962Z</time></trkpt><trkpt lat="41.5120883" lon="0.846825"><ele>296.33333333333337</ele><time>2026-04-19T11:48:26.961Z</time></trkpt><trkpt lat="41.5122433" lon="0.8469833"><ele>296.6666666666667</ele><time>2026-04-19T11:48:27.962Z</time></trkpt><trkpt lat="41.5123917" lon="0.8471583"><ele>297.0</ele><time>2026-04-19T11:48:28.961Z</time></trkpt><trkpt lat="41.5125333" lon="0.84734"><ele>297.0</ele><time>2026-04-19T11:48:29.962Z</time></trkpt><trkpt lat="41.5126817" lon="0.8475217"><ele>297.0</ele><time>2026-04-19T11:48:30.961Z</time></trkpt><trkpt lat="41.5128217" lon="0.8477083"><ele>297.0</ele><time>2026-04-19T11:48:31.962Z</time></trkpt><trkpt lat="41.5129583" lon="0.8478933"><ele>296.6666666666667</ele><time>2026-04-19T11:48:32.962Z</time></trkpt><trkpt lat="41.5131" lon="0.8480817"><ele>296.33333333333337</ele><time>2026-04-19T11:48:33.961Z</time></trkpt><trkpt lat="41.513245" lon="0.84827"><ele>296.0</ele><time>2026-04-19T11:48:34.961Z</time></trkpt><trkpt lat="41.5133867" lon="0.8484533"><ele>296.0</ele><time>2026-04-19T11:48:35.961Z</time></trkpt><trkpt lat="41.5135317" lon="0.8486433"><ele>296.0</ele><time>2026-04-19T11:48:36.962Z</time></trkpt><trkpt lat="41.513675" lon="0.8488317"><ele>296.0</ele><time>2026-04-19T11:48:37.961Z</time></trkpt><trkpt lat="41.513815" lon="0.849025"><ele>294.6666666666667</ele><time>2026-04-19T11:48:38.961Z</time></trkpt><trkpt lat="41.51395" lon="0.8492117"><ele>293.3333333333333</ele><time>2026-04-19T11:48:39.962Z</time></trkpt><trkpt lat="41.5140883" lon="0.8494"><ele>292.0</ele><time>2026-04-19T11:48:40.962Z</time></trkpt><trkpt lat="41.514215" lon="0.8495917"><ele>292.0</ele><time>2026-04-19T11:48:41.962Z</time></trkpt><trkpt lat="41.5143517" lon="0.8497867"><ele>292.0</ele><time>2026-04-19T11:48:42.961Z</time></trkpt><trkpt lat="41.514485" lon="0.849975"><ele>292.0</ele><time>2026-04-19T11:48:43.961Z</time></trkpt><trkpt lat="41.5146267" lon="0.850165"><ele>291.0</ele><time>2026-04-19T11:48:44.962Z</time></trkpt><trkpt lat="41.5147633" lon="0.8503583"><ele>290.0</ele><time>2026-04-19T11:48:45.961Z</time></trkpt><trkpt lat="41.5149083" lon="0.8505617"><ele>289.0</ele><time>2026-04-19T11:48:46.961Z</time></trkpt><trkpt lat="41.515045" lon="0.8507517"><ele>289.0</ele><time>2026-04-19T11:48:47.962Z</time></trkpt><trkpt lat="41.51518" lon="0.850945"><ele>289.0</ele><time>2026-04-19T11:48:48.961Z</time></trkpt><trkpt lat="41.5153267" lon="0.85114"><ele>289.0</ele><time>2026-04-19T11:48:49.962Z</time></trkpt><trkpt lat="41.5154633" lon="0.8513217"><ele>288.3333333333333</ele><time>2026-04-19T11:48:50.961Z</time></trkpt><trkpt lat="41.515615" lon="0.8515117"><ele>287.6666666666667</ele><time>2026-04-19T11:48:51.962Z</time></trkpt><trkpt lat="41.5157617" lon="0.8517067"><ele>287.0</ele><time>2026-04-19T11:48:52.962Z</time></trkpt><trkpt lat="41.5159017" lon="0.8519033"><ele>287.0</ele><time>2026-04-19T11:48:53.961Z</time></trkpt><trkpt lat="41.5160467" lon="0.8520967"><ele>287.0</ele><time>2026-04-19T11:48:54.961Z</time></trkpt><trkpt lat="41.5161917" lon="0.8522833"><ele>287.0</ele><time>2026-04-19T11:48:55.962Z</time></trkpt><trkpt lat="41.5163267" lon="0.8524817"><ele>285.0</ele><time>2026-04-19T11:48:56.961Z</time></trkpt><trkpt lat="41.5164583" lon="0.8526867"><ele>283.0</ele><time>2026-04-19T11:48:57.962Z</time></trkpt><trkpt lat="41.5165967" lon="0.8528933"><ele>281.0</ele><time>2026-04-19T11:48:58.962Z</time></trkpt><trkpt lat="41.51673" lon="0.8530967"><ele>281.0</ele><time>2026-04-19T11:48:59.962Z</time></trkpt><trkpt lat="41.5168417" lon="0.853305"><ele>281.0</ele><time>2026-04-19T11:49:00.961Z</time></trkpt><trkpt lat="41.5169533" lon="0.853525"><ele>281.0</ele><time>2026-04-19T11:49:01.962Z</time></trkpt><trkpt lat="41.517065" lon="0.853745"><ele>280.33333333333337</ele><time>2026-04-19T11:49:02.962Z</time></trkpt><trkpt lat="41.5171667" lon="0.8539617"><ele>279.6666666666667</ele><time>2026-04-19T11:49:03.962Z</time></trkpt><trkpt lat="41.5172617" lon="0.854175"><ele>279.0</ele><time>2026-04-19T11:49:04.961Z</time></trkpt><trkpt lat="41.517365" lon="0.8543967"><ele>278.3333333333333</ele><time>2026-04-19T11:49:05.962Z</time></trkpt><trkpt lat="41.5174683" lon="0.8546117"><ele>277.66666666666663</ele><time>2026-04-19T11:49:06.962Z</time></trkpt><trkpt lat="41.5175783" lon="0.854825"><ele>277.0</ele><time>2026-04-19T11:49:07.961Z</time></trkpt><trkpt lat="41.5176883" lon="0.85504"><ele>277.0</ele><time>2026-04-19T11:49:08.961Z</time></trkpt><trkpt lat="41.5177917" lon="0.855245"><ele>277.0</ele><time>2026-04-19T11:49:09.962Z</time></trkpt><trkpt lat="41.5178817" lon="0.8554367"><ele>277.0</ele><time>2026-04-19T11:49:10.961Z</time></trkpt><trkpt lat="41.517965" lon="0.855615"><ele>277.0</ele><time>2026-04-19T11:49:11.962Z</time></trkpt><trkpt lat="41.51805" lon="0.8557867"><ele>277.0</ele><time>2026-04-19T11:49:12.961Z</time></trkpt><trkpt lat="41.5181267" lon="0.855955"><ele>277.0</ele><time>2026-04-19T11:49:13.962Z</time></trkpt><trkpt lat="41.5182083" lon="0.856105"><ele>277.0</ele><time>2026-04-19T11:49:14.961Z</time></trkpt><trkpt lat="41.5182833" lon="0.8562617"><ele>278.0</ele><time>2026-04-19T11:49:15.961Z</time></trkpt><trkpt lat="41.51836" lon="0.856405"><ele>279.0</ele><time>2026-04-19T11:49:16.962Z</time></trkpt><trkpt lat="41.5184183" lon="0.85654"><ele>280.0</ele><time>2026-04-19T11:49:17.962Z</time></trkpt><trkpt lat="41.5184583" lon="0.856685"><ele>281.0</ele><time>2026-04-19T11:49:18.962Z</time></trkpt><trkpt lat="41.518475" lon="0.856825"><ele>281.40000000000003</ele><time>2026-04-19T11:49:19.962Z</time></trkpt><trkpt lat="41.518495" lon="0.8569683"><ele>281.8</ele><time>2026-04-19T11:49:20.961Z</time></trkpt><trkpt lat="41.5185267" lon="0.8570733"><ele>282.20000000000005</ele><time>2026-04-19T11:49:21.961Z</time></trkpt><trkpt lat="41.51858" lon="0.8571717"><ele>282.6</ele><time>2026-04-19T11:49:22.961Z</time></trkpt><trkpt lat="41.518645" lon="0.85729"><ele>283.0</ele><time>2026-04-19T11:49:23.961Z</time></trkpt><trkpt lat="41.5187" lon="0.8574117"><ele>282.0</ele><time>2026-04-19T11:49:24.962Z</time></trkpt><trkpt lat="41.5187383" lon="0.8575483"><ele>281.0</ele><time>2026-04-19T11:49:25.962Z</time></trkpt><trkpt lat="41.5187667" lon="0.8577033"><ele>280.0</ele><time>2026-04-19T11:49:26.961Z</time></trkpt><trkpt lat="41.51879" lon="0.8578567"><ele>279.0</ele><time>2026-04-19T11:49:27.961Z</time></trkpt><trkpt lat="41.5188183" lon="0.8580067"><ele>278.8</ele><time>2026-04-19T11:49:28.962Z</time></trkpt><trkpt lat="41.51886" lon="0.8581567"><ele>278.59999999999997</ele><time>2026-04-19T11:49:29.962Z</time></trkpt><trkpt lat="41.5188983" lon="0.8582967"><ele>278.4</ele><time>2026-04-19T11:49:30.961Z</time></trkpt><trkpt lat="41.5189233" lon="0.8584333"><ele>278.2</ele><time>2026-04-19T11:49:31.962Z</time></trkpt><trkpt lat="41.5189383" lon="0.858565"><ele>278.0</ele><time>2026-04-19T11:49:32.962Z</time></trkpt><trkpt lat="41.51895" lon="0.8587083"><ele>278.4</ele><time>2026-04-19T11:49:33.961Z</time></trkpt><trkpt lat="41.5189617" lon="0.8588417"><ele>278.8</ele><time>2026-04-19T11:49:34.962Z</time></trkpt><trkpt lat="41.518965" lon="0.85897"><ele>279.2</ele><time>2026-04-19T11:49:35.961Z</time></trkpt><trkpt lat="41.518945" lon="0.859095"><ele>279.6</ele><time>2026-04-19T11:49:36.962Z</time></trkpt><trkpt lat="41.5189133" lon="0.859215"><ele>280.0</ele><time>2026-04-19T11:49:37.962Z</time></trkpt><trkpt lat="41.518885" lon="0.8593283"><ele>280.0</ele><time>2026-04-19T11:49:38.962Z</time></trkpt><trkpt lat="41.5188733" lon="0.85945"><ele>280.0</ele><time>2026-04-19T11:49:39.961Z</time></trkpt><trkpt lat="41.518895" lon="0.8595617"><ele>280.0</ele><time>2026-04-19T11:49:40.962Z</time></trkpt><trkpt lat="41.5189417" lon="0.859665"><ele>280.0</ele><time>2026-04-19T11:49:41.962Z</time></trkpt><trkpt lat="41.5190217" lon="0.8597333"><ele>280.0</ele><time>2026-04-19T11:49:42.962Z</time></trkpt><trkpt lat="41.5191117" lon="0.8598233"><ele>280.0</ele><time>2026-04-19T11:49:43.962Z</time></trkpt><trkpt lat="41.5192" lon="0.8599517"><ele>280.0</ele><time>2026-04-19T11:49:44.962Z</time></trkpt><trkpt lat="41.519275" lon="0.8600867"><ele>280.0</ele><time>2026-04-19T11:49:45.961Z</time></trkpt><trkpt lat="41.5193617" lon="0.86025"><ele>280.0</ele><time>2026-04-19T11:49:46.962Z</time></trkpt><trkpt lat="41.519445" lon="0.8604133"><ele>280.0</ele><time>2026-04-19T11:49:47.962Z</time></trkpt><trkpt lat="41.5195267" lon="0.8605833"><ele>280.0</ele><time>2026-04-19T11:49:48.962Z</time></trkpt><trkpt lat="41.5196083" lon="0.8607533"><ele>280.0</ele><time>2026-04-19T11:49:49.961Z</time></trkpt><trkpt lat="41.5196917" lon="0.86091"><ele>280.0</ele><time>2026-04-19T11:49:50.961Z</time></trkpt><trkpt lat="41.5197733" lon="0.8610583"><ele>280.75</ele><time>2026-04-19T11:49:51.962Z</time></trkpt><trkpt lat="41.519855" lon="0.86121"><ele>281.5</ele><time>2026-04-19T11:49:52.961Z</time></trkpt><trkpt lat="41.5199317" lon="0.8613583"><ele>282.25</ele><time>2026-04-19T11:49:53.961Z</time></trkpt><trkpt lat="41.5200083" lon="0.8615"><ele>283.0</ele><time>2026-04-19T11:49:54.961Z</time></trkpt><trkpt lat="41.520085" lon="0.8616583"><ele>284.0</ele><time>2026-04-19T11:49:55.961Z</time></trkpt><trkpt lat="41.5201583" lon="0.8617967"><ele>285.0</ele><time>2026-04-19T11:49:56.962Z</time></trkpt><trkpt lat="41.5202267" lon="0.8619383"><ele>286.0</ele><time>2026-04-19T11:49:57.961Z</time></trkpt><trkpt lat="41.5203" lon="0.862075"><ele>287.0</ele><time>2026-04-19T11:49:58.962Z</time></trkpt><trkpt lat="41.5203783" lon="0.8622033"><ele>286.5</ele><time>2026-04-19T11:49:59.961Z</time></trkpt><trkpt lat="41.5204583" lon="0.8623483"><ele>286.0</ele><time>2026-04-19T11:50:00.962Z</time></trkpt><trkpt lat="41.5205317" lon="0.8624817"><ele>285.5</ele><time>2026-04-19T11:50:01.962Z</time></trkpt><trkpt lat="41.5206067" lon="0.8626233"><ele>285.0</ele><time>2026-04-19T11:50:02.962Z</time></trkpt><trkpt lat="41.5206867" lon="0.8627717"><ele>286.0</ele><time>2026-04-19T11:50:03.961Z</time></trkpt><trkpt lat="41.52077" lon="0.8629283"><ele>287.0</ele><time>2026-04-19T11:50:04.962Z</time></trkpt><trkpt lat="41.520845" lon="0.86308"><ele>288.0</ele><time>2026-04-19T11:50:05.961Z</time></trkpt><trkpt lat="41.520915" lon="0.8632267"><ele>289.0</ele><time>2026-04-19T11:50:06.961Z</time></trkpt><trkpt lat="41.5209817" lon="0.86337"><ele>289.25</ele><time>2026-04-19T11:50:07.962Z</time></trkpt><trkpt lat="41.52105" lon="0.86351"><ele>289.5</ele><time>2026-04-19T11:50:08.961Z</time></trkpt><trkpt lat="41.521125" lon="0.8636533"><ele>289.75</ele><time>2026-04-19T11:50:09.962Z</time></trkpt><trkpt lat="41.5211933" lon="0.8637833"><ele>290.0</ele><time>2026-04-19T11:50:10.961Z</time></trkpt><trkpt lat="41.52127" lon="0.8639083"><ele>290.0</ele><time>2026-04-19T11:50:11.961Z</time></trkpt><trkpt lat="41.5213333" lon="0.8640267"><ele>290.0</ele><time>2026-04-19T11:50:12.961Z</time></trkpt><trkpt lat="41.5213983" lon="0.8641367"><ele>290.0</ele><time>2026-04-19T11:50:13.962Z</time></trkpt><trkpt lat="41.5214567" lon="0.8642483"><ele>290.0</ele><time>2026-04-19T11:50:14.961Z</time></trkpt><trkpt lat="41.5215133" lon="0.86434"><ele>290.0</ele><time>2026-04-19T11:50:15.962Z</time></trkpt><trkpt lat="41.521565" lon="0.8644383"><ele>290.0</ele><time>2026-04-19T11:50:16.961Z</time></trkpt><trkpt lat="41.5216117" lon="0.8645283"><ele>290.0</ele><time>2026-04-19T11:50:17.962Z</time></trkpt><trkpt lat="41.5216567" lon="0.8646067"><ele>290.0</ele><time>2026-04-19T11:50:18.962Z</time></trkpt><trkpt lat="41.5217017" lon="0.8646733"><ele>290.0</ele><time>2026-04-19T11:50:19.961Z</time></trkpt><trkpt lat="41.5217617" lon="0.8647483"><ele>290.0</ele><time>2026-04-19T11:50:21.962Z</time></trkpt><trkpt lat="41.5217417" lon="0.8648617"><ele>290.0</ele><time>2026-04-19T11:50:24.962Z</time></trkpt><trkpt lat="41.5216667" lon="0.8649967"><ele>290.0</ele><time>2026-04-19T11:50:26.962Z</time></trkpt><trkpt lat="41.52162" lon="0.8650983"><ele>290.0</ele><time>2026-04-19T11:50:27.962Z</time></trkpt><trkpt lat="41.5215783" lon="0.865195"><ele>290.0</ele><time>2026-04-19T11:50:28.961Z</time></trkpt><trkpt lat="41.521525" lon="0.8653033"><ele>290.0</ele><time>2026-04-19T11:50:29.961Z</time></trkpt><trkpt lat="41.5214733" lon="0.8654183"><ele>290.0</ele><time>2026-04-19T11:50:30.961Z</time></trkpt><trkpt lat="41.5214167" lon="0.8655333"><ele>290.8</ele><time>2026-04-19T11:50:31.961Z</time></trkpt><trkpt lat="41.5213533" lon="0.865645"><ele>291.6</ele><time>2026-04-19T11:50:32.962Z</time></trkpt><trkpt lat="41.521295" lon="0.8657483"><ele>292.4</ele><time>2026-04-19T11:50:33.962Z</time></trkpt><trkpt lat="41.52124" lon="0.865855"><ele>293.2</ele><time>2026-04-19T11:50:34.961Z</time></trkpt><trkpt lat="41.5211767" lon="0.8659583"><ele>294.0</ele><time>2026-04-19T11:50:35.961Z</time></trkpt><trkpt lat="41.5211267" lon="0.8660533"><ele>294.8333333333333</ele><time>2026-04-19T11:50:36.962Z</time></trkpt><trkpt lat="41.5210817" lon="0.8661417"><ele>295.6666666666667</ele><time>2026-04-19T11:50:37.962Z</time></trkpt><trkpt lat="41.5210467" lon="0.8662117"><ele>296.5</ele><time>2026-04-19T11:50:38.961Z</time></trkpt><trkpt lat="41.5209767" lon="0.8663017"><ele>297.33333333333337</ele><time>2026-04-19T11:50:40.962Z</time></trkpt><trkpt lat="41.520935" lon="0.8663717"><ele>298.1666666666667</ele><time>2026-04-19T11:50:43.962Z</time></trkpt><trkpt lat="41.5209117" lon="0.866465"><ele>299.0</ele><time>2026-04-19T11:50:59.961Z</time></trkpt><trkpt lat="41.5208067" lon="0.86656"><ele>299.0</ele><time>2026-04-19T11:51:01.961Z</time></trkpt><trkpt lat="41.520745" lon="0.8666217"><ele>299.0</ele><time>2026-04-19T11:51:02.962Z</time></trkpt><trkpt lat="41.520695" lon="0.866695"><ele>299.0</ele><time>2026-04-19T11:51:03.962Z</time></trkpt><trkpt lat="41.5206433" lon="0.866765"><ele>299.0</ele><time>2026-04-19T11:51:04.961Z</time></trkpt><trkpt lat="41.5205883" lon="0.86683"><ele>299.0</ele><time>2026-04-19T11:51:05.961Z</time></trkpt><trkpt lat="41.5205383" lon="0.8668867"><ele>299.0</ele><time>2026-04-19T11:51:06.961Z</time></trkpt><trkpt lat="41.5204567" lon="0.8669733"><ele>298.59999999999997</ele><time>2026-04-19T11:51:08.961Z</time></trkpt><trkpt lat="41.5204" lon="0.8670433"><ele>298.2</ele><time>2026-04-19T11:51:10.962Z</time></trkpt><trkpt lat="41.5203317" lon="0.8671317"><ele>297.79999999999995</ele><time>2026-04-19T11:51:12.961Z</time></trkpt><trkpt lat="41.520245" lon="0.86723"><ele>297.4</ele><time>2026-04-19T11:51:14.962Z</time></trkpt><trkpt lat="41.5201617" lon="0.8673533"><ele>297.0</ele><time>2026-04-19T11:51:16.961Z</time></trkpt><trkpt lat="41.5201117" lon="0.8674333"><ele>297.0</ele><time>2026-04-19T11:51:18.961Z</time></trkpt><trkpt lat="41.5200483" lon="0.867545"><ele>297.0</ele><time>2026-04-19T11:51:20.962Z</time></trkpt><trkpt lat="41.5199867" lon="0.8676667"><ele>297.0</ele><time>2026-04-19T11:51:22.962Z</time></trkpt><trkpt lat="41.5199567" lon="0.8677467"><ele>297.0</ele><time>2026-04-19T11:51:23.961Z</time></trkpt><trkpt lat="41.51994" lon="0.8678317"><ele>297.0</ele><time>2026-04-19T11:51:24.962Z</time></trkpt><trkpt lat="41.5199117" lon="0.8679967"><ele>297.0</ele><time>2026-04-19T11:51:26.961Z</time></trkpt><trkpt lat="41.5198983" lon="0.8681567"><ele>297.0</ele><time>2026-04-19T11:51:28.961Z</time></trkpt><trkpt lat="41.5199" lon="0.8683033"><ele>297.0</ele><time>2026-04-19T11:51:30.961Z</time></trkpt><trkpt lat="41.5199283" lon="0.8684183"><ele>297.0</ele><time>2026-04-19T11:51:32.961Z</time></trkpt><trkpt lat="41.5199583" lon="0.8685"><ele>297.0</ele><time>2026-04-19T11:51:34.962Z</time></trkpt><trkpt lat="41.51998" lon="0.8685867"><ele>298.0</ele><time>2026-04-19T11:51:36.961Z</time></trkpt><trkpt lat="41.5200333" lon="0.8686567"><ele>299.0</ele><time>2026-04-19T11:51:40.962Z</time></trkpt><trkpt lat="41.5200733" lon="0.8687883"><ele>300.0</ele><time>2026-04-19T11:52:02.962Z</time></trkpt><trkpt lat="41.5201233" lon="0.86887"><ele>301.0</ele><time>2026-04-19T11:52:04.962Z</time></trkpt><trkpt lat="41.52016" lon="0.8689433"><ele>302.0</ele><time>2026-04-19T11:52:06.962Z</time></trkpt><trkpt lat="41.520215" lon="0.8690533"><ele>303.0</ele><time>2026-04-19T11:52:08.961Z</time></trkpt><trkpt lat="41.5202667" lon="0.869125"><ele>303.0</ele><time>2026-04-19T11:52:09.961Z</time></trkpt><trkpt lat="41.5203117" lon="0.86922"><ele>303.0</ele><time>2026-04-19T11:52:10.962Z</time></trkpt><trkpt lat="41.5203617" lon="0.8693067"><ele>303.0</ele><time>2026-04-19T11:52:11.961Z</time></trkpt><trkpt lat="41.52042" lon="0.869385"><ele>303.0</ele><time>2026-04-19T11:52:12.962Z</time></trkpt><trkpt lat="41.5204133" lon="0.869475"><ele>303.0</ele><time>2026-04-19T11:52:13.961Z</time></trkpt><trkpt lat="41.5203983" lon="0.8695717"><ele>303.0</ele><time>2026-04-19T11:52:14.962Z</time></trkpt><trkpt lat="41.52036" lon="0.86972"><ele>303.3333333333333</ele><time>2026-04-19T11:52:16.961Z</time></trkpt><trkpt lat="41.5203467" lon="0.8698067"><ele>303.6666666666667</ele><time>2026-04-19T11:52:17.962Z</time></trkpt><trkpt lat="41.5203133" lon="0.8698883"><ele>304.0</ele><time>2026-04-19T11:52:18.962Z</time></trkpt><trkpt lat="41.520275" lon="0.86999"><ele>304.33333333333337</ele><time>2026-04-19T11:52:19.961Z</time></trkpt><trkpt lat="41.5202333" lon="0.870095"><ele>304.6666666666667</ele><time>2026-04-19T11:52:20.962Z</time></trkpt><trkpt lat="41.5202033" lon="0.870205"><ele>305.0</ele><time>2026-04-19T11:52:21.962Z</time></trkpt><trkpt lat="41.5201817" lon="0.8703233"><ele>305.1666666666667</ele><time>2026-04-19T11:52:22.962Z</time></trkpt><trkpt lat="41.5201617" lon="0.8704417"><ele>305.33333333333337</ele><time>2026-04-19T11:52:23.961Z</time></trkpt><trkpt lat="41.5201383" lon="0.87055"><ele>305.5</ele><time>2026-04-19T11:52:24.961Z</time></trkpt><trkpt lat="41.520105" lon="0.8706583"><ele>305.6666666666667</ele><time>2026-04-19T11:52:25.961Z</time></trkpt><trkpt lat="41.5200633" lon="0.8707467"><ele>305.8333333333333</ele><time>2026-04-19T11:52:26.962Z</time></trkpt><trkpt lat="41.5200283" lon="0.8708767"><ele>306.0</ele><time>2026-04-19T11:52:28.961Z</time></trkpt><trkpt lat="41.5200517" lon="0.8709667"><ele>306.3333333333333</ele><time>2026-04-19T11:52:30.962Z</time></trkpt><trkpt lat="41.5201267" lon="0.8710333"><ele>306.6666666666667</ele><time>2026-04-19T11:52:32.962Z</time></trkpt><trkpt lat="41.5201917" lon="0.8710817"><ele>307.0</ele><time>2026-04-19T11:52:33.961Z</time></trkpt><trkpt lat="41.5202617" lon="0.871115"><ele>307.33333333333337</ele><time>2026-04-19T11:52:34.962Z</time></trkpt><trkpt lat="41.5203283" lon="0.87116"><ele>307.6666666666667</ele><time>2026-04-19T11:52:35.962Z</time></trkpt><trkpt lat="41.5204167" lon="0.8712133"><ele>308.0</ele><time>2026-04-19T11:52:36.962Z</time></trkpt><trkpt lat="41.5205117" lon="0.87126"><ele>308.83333333333337</ele><time>2026-04-19T11:52:37.961Z</time></trkpt><trkpt lat="41.5206017" lon="0.8712783"><ele>309.6666666666667</ele><time>2026-04-19T11:52:38.962Z</time></trkpt><trkpt lat="41.52069" lon="0.8713217"><ele>310.5</ele><time>2026-04-19T11:52:39.962Z</time></trkpt><trkpt lat="41.5207733" lon="0.8713567"><ele>311.3333333333333</ele><time>2026-04-19T11:52:40.961Z</time></trkpt><trkpt lat="41.5208533" lon="0.8713967"><ele>312.16666666666663</ele><time>2026-04-19T11:52:41.962Z</time></trkpt><trkpt lat="41.5209283" lon="0.87144"><ele>313.0</ele><time>2026-04-19T11:52:42.961Z</time></trkpt><trkpt lat="41.520995" lon="0.871475"><ele>313.0</ele><time>2026-04-19T11:52:43.962Z</time></trkpt><trkpt lat="41.521085" lon="0.871535"><ele>313.0</ele><time>2026-04-19T11:52:45.962Z</time></trkpt><trkpt lat="41.521165" lon="0.8715533"><ele>313.0</ele><time>2026-04-19T11:52:48.961Z</time></trkpt><trkpt lat="41.521265" lon="0.87161"><ele>313.0</ele><time>2026-04-19T11:52:50.962Z</time></trkpt><trkpt lat="41.5213283" lon="0.8716467"><ele>313.0</ele><time>2026-04-19T11:52:51.962Z</time></trkpt><trkpt lat="41.5213917" lon="0.8716817"><ele>313.0</ele><time>2026-04-19T11:52:52.962Z</time></trkpt><trkpt lat="41.5214517" lon="0.8717117"><ele>313.66666666666663</ele><time>2026-04-19T11:52:53.962Z</time></trkpt><trkpt lat="41.5215617" lon="0.87179"><ele>314.3333333333333</ele><time>2026-04-19T11:52:55.962Z</time></trkpt><trkpt lat="41.52162" lon="0.8718317"><ele>315.0</ele><time>2026-04-19T11:52:56.962Z</time></trkpt><trkpt lat="41.521705" lon="0.8718967"><ele>315.6666666666667</ele><time>2026-04-19T11:52:58.962Z</time></trkpt><trkpt lat="41.5217633" lon="0.8719583"><ele>316.33333333333337</ele><time>2026-04-19T11:53:02.961Z</time></trkpt><trkpt lat="41.5217533" lon="0.8720467"><ele>317.0</ele><time>2026-04-19T11:53:04.961Z</time></trkpt><trkpt lat="41.5217183" lon="0.872175"><ele>317.0</ele><time>2026-04-19T11:53:06.962Z</time></trkpt><trkpt lat="41.5216833" lon="0.8722833"><ele>317.0</ele><time>2026-04-19T11:53:08.962Z</time></trkpt><trkpt lat="41.52163" lon="0.8723367"><ele>317.0</ele><time>2026-04-19T11:53:10.961Z</time></trkpt><trkpt lat="41.5216583" lon="0.8724417"><ele>317.0</ele><time>2026-04-19T11:53:53.962Z</time></trkpt></trkseg></trk></gpx>